<?xml version="1.0" encoding="UTF-8"?>
<gpx version="1.1" creator="https://www.youtrack.es" xsi:schemaLocation="http://www.topografix.com/GPX/1/1 http://www.topografix.com/GPX/1/1/gpx.xsd http://www.garmin.com/xmlschemas/GpxExtensions/v3 http://www.garmin.com/xmlschemas/GpxExtensionsv3.xsd http://www.garmin.com/xmlschemas/TrackPointExtension/v1 http://www.garmin.com/xmlschemas/TrackPointExtensionv1.xsd" xmlns:gpxtpx="http://www.garmin.com/xmlschemas/TrackPointExtension/v1" xmlns:gpxx="http://www.garmin.com/xmlschemas/GpxExtensions/v3" xmlns:xsi="http://www.w3.org/2001/XMLSchema-instance">
  <metadata>
    <link href="https://www.youtrack.es">
      <text>YouTrack.es</text>
    </link>
    <time>2026-05-09T04:52:34Z</time>
  </metadata>
  <trk>
    <src>https://www.youtrack.es</src>
    <link href="https://www.youtrack.es/ruta/21294-azpeiti-xtrem-ultra-2021">
      <text>YouTrack.es</text>
    </link>
    <trkseg>
      <trkpt lat="43.183861" lon="-2.265521">
        <ele>81.174</ele>
        <time>2021-03-21T06:10:54Z</time>
      </trkpt>
      <trkpt lat="43.183875" lon="-2.265491">
        <ele>81.256</ele>
        <time>2021-03-21T06:10:55Z</time>
      </trkpt>
      <trkpt lat="43.183899" lon="-2.265481">
        <ele>81.321</ele>
        <time>2021-03-21T06:10:57Z</time>
      </trkpt>
      <trkpt lat="43.183920" lon="-2.265475">
        <ele>81.308</ele>
        <time>2021-03-21T06:10:59Z</time>
      </trkpt>
      <trkpt lat="43.183942" lon="-2.265481">
        <ele>81.283</ele>
        <time>2021-03-21T06:11:01Z</time>
      </trkpt>
      <trkpt lat="43.183972" lon="-2.265503">
        <ele>81.116</ele>
        <time>2021-03-21T06:11:04Z</time>
      </trkpt>
      <trkpt lat="43.183993" lon="-2.265501">
        <ele>81.139</ele>
        <time>2021-03-21T06:11:06Z</time>
      </trkpt>
      <trkpt lat="43.184016" lon="-2.265493">
        <ele>81.180</ele>
        <time>2021-03-21T06:11:09Z</time>
      </trkpt>
      <trkpt lat="43.184053" lon="-2.265478">
        <ele>81.127</ele>
        <time>2021-03-21T06:11:12Z</time>
      </trkpt>
      <trkpt lat="43.184070" lon="-2.265461">
        <ele>81.125</ele>
        <time>2021-03-21T06:11:14Z</time>
      </trkpt>
      <trkpt lat="43.184155" lon="-2.265436">
        <ele>81.085</ele>
        <time>2021-03-21T06:11:20Z</time>
      </trkpt>
      <trkpt lat="43.184259" lon="-2.265409">
        <ele>81.245</ele>
        <time>2021-03-21T06:11:25Z</time>
      </trkpt>
      <trkpt lat="43.184321" lon="-2.265318">
        <ele>81.138</ele>
        <time>2021-03-21T06:11:31Z</time>
      </trkpt>
      <trkpt lat="43.184374" lon="-2.265215">
        <ele>81.070</ele>
        <time>2021-03-21T06:11:43Z</time>
      </trkpt>
      <trkpt lat="43.184404" lon="-2.265092">
        <ele>81.017</ele>
        <time>2021-03-21T06:11:48Z</time>
      </trkpt>
      <trkpt lat="43.184461" lon="-2.264997">
        <ele>81.008</ele>
        <time>2021-03-21T06:11:57Z</time>
      </trkpt>
      <trkpt lat="43.184552" lon="-2.264926">
        <ele>81.069</ele>
        <time>2021-03-21T06:12:03Z</time>
      </trkpt>
      <trkpt lat="43.184628" lon="-2.264838">
        <ele>81.042</ele>
        <time>2021-03-21T06:12:10Z</time>
      </trkpt>
      <trkpt lat="43.184728" lon="-2.264800">
        <ele>81.075</ele>
        <time>2021-03-21T06:12:16Z</time>
      </trkpt>
      <trkpt lat="43.184806" lon="-2.264733">
        <ele>81.046</ele>
        <time>2021-03-21T06:12:27Z</time>
      </trkpt>
      <trkpt lat="43.184890" lon="-2.264656">
        <ele>80.923</ele>
        <time>2021-03-21T06:12:32Z</time>
      </trkpt>
      <trkpt lat="43.184975" lon="-2.264592">
        <ele>80.641</ele>
        <time>2021-03-21T06:12:40Z</time>
      </trkpt>
      <trkpt lat="43.185059" lon="-2.264524">
        <ele>80.231</ele>
        <time>2021-03-21T06:12:45Z</time>
      </trkpt>
      <trkpt lat="43.185130" lon="-2.264433">
        <ele>80.051</ele>
        <time>2021-03-21T06:12:49Z</time>
      </trkpt>
      <trkpt lat="43.185201" lon="-2.264352">
        <ele>80.048</ele>
        <time>2021-03-21T06:12:53Z</time>
      </trkpt>
      <trkpt lat="43.185290" lon="-2.264254">
        <ele>80.061</ele>
        <time>2021-03-21T06:12:57Z</time>
      </trkpt>
      <trkpt lat="43.185369" lon="-2.264186">
        <ele>80.017</ele>
        <time>2021-03-21T06:13:01Z</time>
      </trkpt>
      <trkpt lat="43.185461" lon="-2.264133">
        <ele>80.008</ele>
        <time>2021-03-21T06:13:05Z</time>
      </trkpt>
      <trkpt lat="43.185548" lon="-2.264081">
        <ele>80.010</ele>
        <time>2021-03-21T06:13:08Z</time>
      </trkpt>
      <trkpt lat="43.185626" lon="-2.264017">
        <ele>80.043</ele>
        <time>2021-03-21T06:13:11Z</time>
      </trkpt>
      <trkpt lat="43.185726" lon="-2.263922">
        <ele>80.086</ele>
        <time>2021-03-21T06:13:15Z</time>
      </trkpt>
      <trkpt lat="43.185817" lon="-2.263834">
        <ele>79.877</ele>
        <time>2021-03-21T06:13:19Z</time>
      </trkpt>
      <trkpt lat="43.185890" lon="-2.263759">
        <ele>79.684</ele>
        <time>2021-03-21T06:13:22Z</time>
      </trkpt>
      <trkpt lat="43.185963" lon="-2.263657">
        <ele>79.652</ele>
        <time>2021-03-21T06:13:27Z</time>
      </trkpt>
      <trkpt lat="43.186021" lon="-2.263576">
        <ele>79.562</ele>
        <time>2021-03-21T06:13:31Z</time>
      </trkpt>
      <trkpt lat="43.186079" lon="-2.263520">
        <ele>79.392</ele>
        <time>2021-03-21T06:13:34Z</time>
      </trkpt>
      <trkpt lat="43.186095" lon="-2.263506">
        <ele>79.281</ele>
        <time>2021-03-21T06:13:35Z</time>
      </trkpt>
      <trkpt lat="43.186177" lon="-2.263405">
        <ele>78.561</ele>
        <time>2021-03-21T06:13:40Z</time>
      </trkpt>
      <trkpt lat="43.186262" lon="-2.263310">
        <ele>77.717</ele>
        <time>2021-03-21T06:13:44Z</time>
      </trkpt>
      <trkpt lat="43.186356" lon="-2.263263">
        <ele>77.208</ele>
        <time>2021-03-21T06:13:48Z</time>
      </trkpt>
      <trkpt lat="43.186463" lon="-2.263269">
        <ele>77.334</ele>
        <time>2021-03-21T06:13:52Z</time>
      </trkpt>
      <trkpt lat="43.186567" lon="-2.263234">
        <ele>76.917</ele>
        <time>2021-03-21T06:13:55Z</time>
      </trkpt>
      <trkpt lat="43.186606" lon="-2.263099">
        <ele>75.520</ele>
        <time>2021-03-21T06:13:59Z</time>
      </trkpt>
      <trkpt lat="43.186609" lon="-2.263065">
        <ele>75.111</ele>
        <time>2021-03-21T06:14:00Z</time>
      </trkpt>
      <trkpt lat="43.186612" lon="-2.263031">
        <ele>75.328</ele>
        <time>2021-03-21T06:14:01Z</time>
      </trkpt>
      <trkpt lat="43.186614" lon="-2.263003">
        <ele>75.636</ele>
        <time>2021-03-21T06:14:02Z</time>
      </trkpt>
      <trkpt lat="43.186613" lon="-2.262973">
        <ele>75.976</ele>
        <time>2021-03-21T06:14:03Z</time>
      </trkpt>
      <trkpt lat="43.186610" lon="-2.262916">
        <ele>76.676</ele>
        <time>2021-03-21T06:14:05Z</time>
      </trkpt>
      <trkpt lat="43.186615" lon="-2.262887">
        <ele>76.935</ele>
        <time>2021-03-21T06:14:06Z</time>
      </trkpt>
      <trkpt lat="43.186635" lon="-2.262850">
        <ele>77.386</ele>
        <time>2021-03-21T06:14:08Z</time>
      </trkpt>
      <trkpt lat="43.186653" lon="-2.262832">
        <ele>77.514</ele>
        <time>2021-03-21T06:14:09Z</time>
      </trkpt>
      <trkpt lat="43.186675" lon="-2.262820">
        <ele>77.508</ele>
        <time>2021-03-21T06:14:10Z</time>
      </trkpt>
      <trkpt lat="43.186697" lon="-2.262812">
        <ele>77.549</ele>
        <time>2021-03-21T06:14:11Z</time>
      </trkpt>
      <trkpt lat="43.186721" lon="-2.262803">
        <ele>77.412</ele>
        <time>2021-03-21T06:14:12Z</time>
      </trkpt>
      <trkpt lat="43.186746" lon="-2.262797">
        <ele>77.345</ele>
        <time>2021-03-21T06:14:13Z</time>
      </trkpt>
      <trkpt lat="43.186767" lon="-2.262791">
        <ele>77.226</ele>
        <time>2021-03-21T06:14:14Z</time>
      </trkpt>
      <trkpt lat="43.186790" lon="-2.262782">
        <ele>77.173</ele>
        <time>2021-03-21T06:14:15Z</time>
      </trkpt>
      <trkpt lat="43.186811" lon="-2.262773">
        <ele>77.051</ele>
        <time>2021-03-21T06:14:16Z</time>
      </trkpt>
      <trkpt lat="43.186834" lon="-2.262762">
        <ele>77.151</ele>
        <time>2021-03-21T06:14:17Z</time>
      </trkpt>
      <trkpt lat="43.186858" lon="-2.262753">
        <ele>77.141</ele>
        <time>2021-03-21T06:14:18Z</time>
      </trkpt>
      <trkpt lat="43.186884" lon="-2.262742">
        <ele>77.164</ele>
        <time>2021-03-21T06:14:19Z</time>
      </trkpt>
      <trkpt lat="43.186904" lon="-2.262730">
        <ele>77.206</ele>
        <time>2021-03-21T06:14:20Z</time>
      </trkpt>
      <trkpt lat="43.186926" lon="-2.262724">
        <ele>77.116</ele>
        <time>2021-03-21T06:14:21Z</time>
      </trkpt>
      <trkpt lat="43.186950" lon="-2.262718">
        <ele>77.008</ele>
        <time>2021-03-21T06:14:22Z</time>
      </trkpt>
      <trkpt lat="43.187005" lon="-2.262704">
        <ele>77.062</ele>
        <time>2021-03-21T06:14:24Z</time>
      </trkpt>
      <trkpt lat="43.187063" lon="-2.262692">
        <ele>76.815</ele>
        <time>2021-03-21T06:14:26Z</time>
      </trkpt>
      <trkpt lat="43.187088" lon="-2.262687">
        <ele>76.868</ele>
        <time>2021-03-21T06:14:27Z</time>
      </trkpt>
      <trkpt lat="43.187115" lon="-2.262678">
        <ele>76.859</ele>
        <time>2021-03-21T06:14:28Z</time>
      </trkpt>
      <trkpt lat="43.187142" lon="-2.262665">
        <ele>76.946</ele>
        <time>2021-03-21T06:14:29Z</time>
      </trkpt>
      <trkpt lat="43.187166" lon="-2.262650">
        <ele>77.164</ele>
        <time>2021-03-21T06:14:30Z</time>
      </trkpt>
      <trkpt lat="43.187185" lon="-2.262636">
        <ele>77.394</ele>
        <time>2021-03-21T06:14:31Z</time>
      </trkpt>
      <trkpt lat="43.187209" lon="-2.262623">
        <ele>77.424</ele>
        <time>2021-03-21T06:14:32Z</time>
      </trkpt>
      <trkpt lat="43.187235" lon="-2.262610">
        <ele>77.542</ele>
        <time>2021-03-21T06:14:33Z</time>
      </trkpt>
      <trkpt lat="43.187260" lon="-2.262601">
        <ele>77.522</ele>
        <time>2021-03-21T06:14:34Z</time>
      </trkpt>
      <trkpt lat="43.187288" lon="-2.262589">
        <ele>77.514</ele>
        <time>2021-03-21T06:14:35Z</time>
      </trkpt>
      <trkpt lat="43.187315" lon="-2.262572">
        <ele>77.508</ele>
        <time>2021-03-21T06:14:36Z</time>
      </trkpt>
      <trkpt lat="43.187340" lon="-2.262556">
        <ele>77.520</ele>
        <time>2021-03-21T06:14:37Z</time>
      </trkpt>
      <trkpt lat="43.187364" lon="-2.262536">
        <ele>77.523</ele>
        <time>2021-03-21T06:14:38Z</time>
      </trkpt>
      <trkpt lat="43.187387" lon="-2.262515">
        <ele>77.586</ele>
        <time>2021-03-21T06:14:39Z</time>
      </trkpt>
      <trkpt lat="43.187411" lon="-2.262494">
        <ele>77.437</ele>
        <time>2021-03-21T06:14:40Z</time>
      </trkpt>
      <trkpt lat="43.187435" lon="-2.262474">
        <ele>77.424</ele>
        <time>2021-03-21T06:14:41Z</time>
      </trkpt>
      <trkpt lat="43.187454" lon="-2.262455">
        <ele>77.452</ele>
        <time>2021-03-21T06:14:42Z</time>
      </trkpt>
      <trkpt lat="43.187475" lon="-2.262435">
        <ele>77.512</ele>
        <time>2021-03-21T06:14:43Z</time>
      </trkpt>
      <trkpt lat="43.187497" lon="-2.262413">
        <ele>77.682</ele>
        <time>2021-03-21T06:14:44Z</time>
      </trkpt>
      <trkpt lat="43.187544" lon="-2.262377">
        <ele>77.737</ele>
        <time>2021-03-21T06:14:46Z</time>
      </trkpt>
      <trkpt lat="43.187603" lon="-2.262259">
        <ele>78.449</ele>
        <time>2021-03-21T06:14:50Z</time>
      </trkpt>
      <trkpt lat="43.187650" lon="-2.262132">
        <ele>78.613</ele>
        <time>2021-03-21T06:14:54Z</time>
      </trkpt>
      <trkpt lat="43.187699" lon="-2.262001">
        <ele>78.908</ele>
        <time>2021-03-21T06:14:58Z</time>
      </trkpt>
      <trkpt lat="43.187774" lon="-2.261879">
        <ele>79.029</ele>
        <time>2021-03-21T06:15:02Z</time>
      </trkpt>
      <trkpt lat="43.187842" lon="-2.261763">
        <ele>79.512</ele>
        <time>2021-03-21T06:15:06Z</time>
      </trkpt>
      <trkpt lat="43.187898" lon="-2.261631">
        <ele>79.215</ele>
        <time>2021-03-21T06:15:10Z</time>
      </trkpt>
      <trkpt lat="43.187968" lon="-2.261520">
        <ele>77.716</ele>
        <time>2021-03-21T06:15:14Z</time>
      </trkpt>
      <trkpt lat="43.188018" lon="-2.261397">
        <ele>76.373</ele>
        <time>2021-03-21T06:15:18Z</time>
      </trkpt>
      <trkpt lat="43.188074" lon="-2.261270">
        <ele>76.141</ele>
        <time>2021-03-21T06:15:22Z</time>
      </trkpt>
      <trkpt lat="43.188108" lon="-2.261143">
        <ele>76.961</ele>
        <time>2021-03-21T06:15:26Z</time>
      </trkpt>
      <trkpt lat="43.188125" lon="-2.261011">
        <ele>77.551</ele>
        <time>2021-03-21T06:15:30Z</time>
      </trkpt>
      <trkpt lat="43.188154" lon="-2.260861">
        <ele>77.871</ele>
        <time>2021-03-21T06:15:34Z</time>
      </trkpt>
      <trkpt lat="43.188203" lon="-2.260743">
        <ele>77.541</ele>
        <time>2021-03-21T06:15:37Z</time>
      </trkpt>
      <trkpt lat="43.188269" lon="-2.260635">
        <ele>76.115</ele>
        <time>2021-03-21T06:15:40Z</time>
      </trkpt>
      <trkpt lat="43.188292" lon="-2.260599">
        <ele>75.408</ele>
        <time>2021-03-21T06:15:41Z</time>
      </trkpt>
      <trkpt lat="43.188330" lon="-2.260482">
        <ele>74.453</ele>
        <time>2021-03-21T06:15:46Z</time>
      </trkpt>
      <trkpt lat="43.188333" lon="-2.260260">
        <ele>75.146</ele>
        <time>2021-03-21T06:15:49Z</time>
      </trkpt>
      <trkpt lat="43.188298" lon="-2.260101">
        <ele>76.699</ele>
        <time>2021-03-21T06:15:51Z</time>
      </trkpt>
      <trkpt lat="43.188317" lon="-2.259972">
        <ele>76.560</ele>
        <time>2021-03-21T06:15:54Z</time>
      </trkpt>
      <trkpt lat="43.188311" lon="-2.259838">
        <ele>77.197</ele>
        <time>2021-03-21T06:15:57Z</time>
      </trkpt>
      <trkpt lat="43.188320" lon="-2.259765">
        <ele>77.175</ele>
        <time>2021-03-21T06:15:59Z</time>
      </trkpt>
      <trkpt lat="43.188314" lon="-2.259734">
        <ele>77.365</ele>
        <time>2021-03-21T06:16:00Z</time>
      </trkpt>
      <trkpt lat="43.188289" lon="-2.259713">
        <ele>77.835</ele>
        <time>2021-03-21T06:16:01Z</time>
      </trkpt>
      <trkpt lat="43.188165" lon="-2.259707">
        <ele>80.159</ele>
        <time>2021-03-21T06:16:04Z</time>
      </trkpt>
      <trkpt lat="43.188080" lon="-2.259768">
        <ele>81.703</ele>
        <time>2021-03-21T06:16:08Z</time>
      </trkpt>
      <trkpt lat="43.188050" lon="-2.259781">
        <ele>82.223</ele>
        <time>2021-03-21T06:16:10Z</time>
      </trkpt>
      <trkpt lat="43.188026" lon="-2.259778">
        <ele>82.408</ele>
        <time>2021-03-21T06:16:11Z</time>
      </trkpt>
      <trkpt lat="43.187999" lon="-2.259802">
        <ele>82.661</ele>
        <time>2021-03-21T06:16:13Z</time>
      </trkpt>
      <trkpt lat="43.187980" lon="-2.259814">
        <ele>82.794</ele>
        <time>2021-03-21T06:16:14Z</time>
      </trkpt>
      <trkpt lat="43.187963" lon="-2.259828">
        <ele>82.817</ele>
        <time>2021-03-21T06:16:15Z</time>
      </trkpt>
      <trkpt lat="43.187937" lon="-2.259861">
        <ele>82.988</ele>
        <time>2021-03-21T06:16:18Z</time>
      </trkpt>
      <trkpt lat="43.187914" lon="-2.259890">
        <ele>83.015</ele>
        <time>2021-03-21T06:16:19Z</time>
      </trkpt>
      <trkpt lat="43.187888" lon="-2.259908">
        <ele>83.193</ele>
        <time>2021-03-21T06:16:21Z</time>
      </trkpt>
      <trkpt lat="43.187861" lon="-2.259925">
        <ele>83.133</ele>
        <time>2021-03-21T06:16:23Z</time>
      </trkpt>
      <trkpt lat="43.187838" lon="-2.259950">
        <ele>83.113</ele>
        <time>2021-03-21T06:16:25Z</time>
      </trkpt>
      <trkpt lat="43.187817" lon="-2.259974">
        <ele>83.138</ele>
        <time>2021-03-21T06:16:27Z</time>
      </trkpt>
      <trkpt lat="43.187794" lon="-2.259986">
        <ele>83.070</ele>
        <time>2021-03-21T06:16:29Z</time>
      </trkpt>
      <trkpt lat="43.187768" lon="-2.259984">
        <ele>83.217</ele>
        <time>2021-03-21T06:16:31Z</time>
      </trkpt>
      <trkpt lat="43.187744" lon="-2.259972">
        <ele>83.608</ele>
        <time>2021-03-21T06:16:33Z</time>
      </trkpt>
      <trkpt lat="43.187728" lon="-2.259943">
        <ele>84.189</ele>
        <time>2021-03-21T06:16:35Z</time>
      </trkpt>
      <trkpt lat="43.187715" lon="-2.259916">
        <ele>84.522</ele>
        <time>2021-03-21T06:16:37Z</time>
      </trkpt>
      <trkpt lat="43.187703" lon="-2.259889">
        <ele>84.965</ele>
        <time>2021-03-21T06:16:39Z</time>
      </trkpt>
      <trkpt lat="43.187681" lon="-2.259864">
        <ele>85.676</ele>
        <time>2021-03-21T06:16:41Z</time>
      </trkpt>
      <trkpt lat="43.187668" lon="-2.259846">
        <ele>86.073</ele>
        <time>2021-03-21T06:16:42Z</time>
      </trkpt>
      <trkpt lat="43.187645" lon="-2.259827">
        <ele>86.791</ele>
        <time>2021-03-21T06:16:44Z</time>
      </trkpt>
      <trkpt lat="43.187623" lon="-2.259831">
        <ele>87.291</ele>
        <time>2021-03-21T06:16:46Z</time>
      </trkpt>
      <trkpt lat="43.187603" lon="-2.259852">
        <ele>87.491</ele>
        <time>2021-03-21T06:16:48Z</time>
      </trkpt>
      <trkpt lat="43.187585" lon="-2.259879">
        <ele>87.412</ele>
        <time>2021-03-21T06:16:50Z</time>
      </trkpt>
      <trkpt lat="43.187559" lon="-2.259900">
        <ele>87.632</ele>
        <time>2021-03-21T06:16:52Z</time>
      </trkpt>
      <trkpt lat="43.187537" lon="-2.259916">
        <ele>87.805</ele>
        <time>2021-03-21T06:16:54Z</time>
      </trkpt>
      <trkpt lat="43.187519" lon="-2.259936">
        <ele>87.808</ele>
        <time>2021-03-21T06:16:56Z</time>
      </trkpt>
      <trkpt lat="43.187500" lon="-2.259955">
        <ele>87.897</ele>
        <time>2021-03-21T06:16:58Z</time>
      </trkpt>
      <trkpt lat="43.187479" lon="-2.259966">
        <ele>88.070</ele>
        <time>2021-03-21T06:17:00Z</time>
      </trkpt>
      <trkpt lat="43.187458" lon="-2.259968">
        <ele>88.433</ele>
        <time>2021-03-21T06:17:02Z</time>
      </trkpt>
      <trkpt lat="43.187437" lon="-2.259973">
        <ele>88.794</ele>
        <time>2021-03-21T06:17:04Z</time>
      </trkpt>
      <trkpt lat="43.187419" lon="-2.259972">
        <ele>89.081</ele>
        <time>2021-03-21T06:17:06Z</time>
      </trkpt>
      <trkpt lat="43.187401" lon="-2.259965">
        <ele>89.599</ele>
        <time>2021-03-21T06:17:08Z</time>
      </trkpt>
      <trkpt lat="43.187385" lon="-2.259953">
        <ele>90.129</ele>
        <time>2021-03-21T06:17:10Z</time>
      </trkpt>
      <trkpt lat="43.187368" lon="-2.259942">
        <ele>90.689</ele>
        <time>2021-03-21T06:17:12Z</time>
      </trkpt>
      <trkpt lat="43.187351" lon="-2.259933">
        <ele>91.195</ele>
        <time>2021-03-21T06:17:15Z</time>
      </trkpt>
      <trkpt lat="43.187337" lon="-2.259919">
        <ele>91.749</ele>
        <time>2021-03-21T06:17:17Z</time>
      </trkpt>
      <trkpt lat="43.187320" lon="-2.259899">
        <ele>92.523</ele>
        <time>2021-03-21T06:17:19Z</time>
      </trkpt>
      <trkpt lat="43.187300" lon="-2.259880">
        <ele>93.408</ele>
        <time>2021-03-21T06:17:21Z</time>
      </trkpt>
      <trkpt lat="43.187277" lon="-2.259867">
        <ele>94.225</ele>
        <time>2021-03-21T06:17:23Z</time>
      </trkpt>
      <trkpt lat="43.187251" lon="-2.259850">
        <ele>95.268</ele>
        <time>2021-03-21T06:17:25Z</time>
      </trkpt>
      <trkpt lat="43.187229" lon="-2.259838">
        <ele>95.991</ele>
        <time>2021-03-21T06:17:27Z</time>
      </trkpt>
      <trkpt lat="43.187206" lon="-2.259823">
        <ele>96.552</ele>
        <time>2021-03-21T06:17:30Z</time>
      </trkpt>
      <trkpt lat="43.187186" lon="-2.259813">
        <ele>96.839</ele>
        <time>2021-03-21T06:17:32Z</time>
      </trkpt>
      <trkpt lat="43.187161" lon="-2.259804">
        <ele>97.177</ele>
        <time>2021-03-21T06:17:34Z</time>
      </trkpt>
      <trkpt lat="43.187134" lon="-2.259795">
        <ele>97.417</ele>
        <time>2021-03-21T06:17:36Z</time>
      </trkpt>
      <trkpt lat="43.187110" lon="-2.259781">
        <ele>97.867</ele>
        <time>2021-03-21T06:17:38Z</time>
      </trkpt>
      <trkpt lat="43.187087" lon="-2.259769">
        <ele>98.279</ele>
        <time>2021-03-21T06:17:40Z</time>
      </trkpt>
      <trkpt lat="43.187064" lon="-2.259756">
        <ele>98.605</ele>
        <time>2021-03-21T06:17:42Z</time>
      </trkpt>
      <trkpt lat="43.187042" lon="-2.259743">
        <ele>99.125</ele>
        <time>2021-03-21T06:17:44Z</time>
      </trkpt>
      <trkpt lat="43.187025" lon="-2.259732">
        <ele>99.408</ele>
        <time>2021-03-21T06:17:46Z</time>
      </trkpt>
      <trkpt lat="43.187006" lon="-2.259713">
        <ele>100.033</ele>
        <time>2021-03-21T06:17:48Z</time>
      </trkpt>
      <trkpt lat="43.186984" lon="-2.259692">
        <ele>100.776</ele>
        <time>2021-03-21T06:17:50Z</time>
      </trkpt>
      <trkpt lat="43.186968" lon="-2.259675">
        <ele>101.319</ele>
        <time>2021-03-21T06:17:52Z</time>
      </trkpt>
      <trkpt lat="43.186958" lon="-2.259652">
        <ele>102.060</ele>
        <time>2021-03-21T06:17:54Z</time>
      </trkpt>
      <trkpt lat="43.186938" lon="-2.259622">
        <ele>102.837</ele>
        <time>2021-03-21T06:17:56Z</time>
      </trkpt>
      <trkpt lat="43.186914" lon="-2.259597">
        <ele>103.335</ele>
        <time>2021-03-21T06:17:58Z</time>
      </trkpt>
      <trkpt lat="43.186886" lon="-2.259573">
        <ele>103.755</ele>
        <time>2021-03-21T06:18:00Z</time>
      </trkpt>
      <trkpt lat="43.186861" lon="-2.259550">
        <ele>104.175</ele>
        <time>2021-03-21T06:18:02Z</time>
      </trkpt>
      <trkpt lat="43.186834" lon="-2.259530">
        <ele>104.377</ele>
        <time>2021-03-21T06:18:04Z</time>
      </trkpt>
      <trkpt lat="43.186809" lon="-2.259514">
        <ele>104.561</ele>
        <time>2021-03-21T06:18:06Z</time>
      </trkpt>
      <trkpt lat="43.186785" lon="-2.259493">
        <ele>104.927</ele>
        <time>2021-03-21T06:18:08Z</time>
      </trkpt>
      <trkpt lat="43.186766" lon="-2.259470">
        <ele>105.308</ele>
        <time>2021-03-21T06:18:10Z</time>
      </trkpt>
      <trkpt lat="43.186743" lon="-2.259444">
        <ele>105.853</ele>
        <time>2021-03-21T06:18:12Z</time>
      </trkpt>
      <trkpt lat="43.186714" lon="-2.259418">
        <ele>106.116</ele>
        <time>2021-03-21T06:18:14Z</time>
      </trkpt>
      <trkpt lat="43.186691" lon="-2.259413">
        <ele>106.099</ele>
        <time>2021-03-21T06:18:15Z</time>
      </trkpt>
      <trkpt lat="43.186674" lon="-2.259405">
        <ele>105.950</ele>
        <time>2021-03-21T06:18:16Z</time>
      </trkpt>
      <trkpt lat="43.186658" lon="-2.259398">
        <ele>105.997</ele>
        <time>2021-03-21T06:18:17Z</time>
      </trkpt>
      <trkpt lat="43.186627" lon="-2.259387">
        <ele>105.995</ele>
        <time>2021-03-21T06:18:19Z</time>
      </trkpt>
      <trkpt lat="43.186598" lon="-2.259372">
        <ele>106.045</ele>
        <time>2021-03-21T06:18:21Z</time>
      </trkpt>
      <trkpt lat="43.186571" lon="-2.259359">
        <ele>106.165</ele>
        <time>2021-03-21T06:18:23Z</time>
      </trkpt>
      <trkpt lat="43.186546" lon="-2.259341">
        <ele>106.434</ele>
        <time>2021-03-21T06:18:25Z</time>
      </trkpt>
      <trkpt lat="43.186525" lon="-2.259330">
        <ele>106.655</ele>
        <time>2021-03-21T06:18:27Z</time>
      </trkpt>
      <trkpt lat="43.186541" lon="-2.259319">
        <ele>107.010</ele>
        <time>2021-03-21T06:18:33Z</time>
      </trkpt>
      <trkpt lat="43.186568" lon="-2.259320">
        <ele>107.108</ele>
        <time>2021-03-21T06:18:35Z</time>
      </trkpt>
      <trkpt lat="43.186595" lon="-2.259323">
        <ele>107.259</ele>
        <time>2021-03-21T06:18:37Z</time>
      </trkpt>
      <trkpt lat="43.186626" lon="-2.259321">
        <ele>107.412</ele>
        <time>2021-03-21T06:18:39Z</time>
      </trkpt>
      <trkpt lat="43.186656" lon="-2.259308">
        <ele>107.965</ele>
        <time>2021-03-21T06:18:41Z</time>
      </trkpt>
      <trkpt lat="43.186685" lon="-2.259296">
        <ele>108.436</ele>
        <time>2021-03-21T06:18:43Z</time>
      </trkpt>
      <trkpt lat="43.186715" lon="-2.259286">
        <ele>109.033</ele>
        <time>2021-03-21T06:18:45Z</time>
      </trkpt>
      <trkpt lat="43.186745" lon="-2.259275">
        <ele>109.781</ele>
        <time>2021-03-21T06:18:47Z</time>
      </trkpt>
      <trkpt lat="43.186763" lon="-2.259262">
        <ele>110.261</ele>
        <time>2021-03-21T06:18:49Z</time>
      </trkpt>
      <trkpt lat="43.186778" lon="-2.259249">
        <ele>110.771</ele>
        <time>2021-03-21T06:18:52Z</time>
      </trkpt>
      <trkpt lat="43.186772" lon="-2.259275">
        <ele>110.096</ele>
        <time>2021-03-21T06:19:01Z</time>
      </trkpt>
      <trkpt lat="43.186790" lon="-2.259271">
        <ele>110.431</ele>
        <time>2021-03-21T06:19:05Z</time>
      </trkpt>
      <trkpt lat="43.186814" lon="-2.259257">
        <ele>111.024</ele>
        <time>2021-03-21T06:19:07Z</time>
      </trkpt>
      <trkpt lat="43.186837" lon="-2.259235">
        <ele>111.808</ele>
        <time>2021-03-21T06:19:09Z</time>
      </trkpt>
      <trkpt lat="43.186862" lon="-2.259215">
        <ele>112.625</ele>
        <time>2021-03-21T06:19:11Z</time>
      </trkpt>
      <trkpt lat="43.186887" lon="-2.259196">
        <ele>113.518</ele>
        <time>2021-03-21T06:19:13Z</time>
      </trkpt>
      <trkpt lat="43.186907" lon="-2.259176">
        <ele>114.281</ele>
        <time>2021-03-21T06:19:15Z</time>
      </trkpt>
      <trkpt lat="43.186926" lon="-2.259157">
        <ele>115.032</ele>
        <time>2021-03-21T06:19:17Z</time>
      </trkpt>
      <trkpt lat="43.186943" lon="-2.259137">
        <ele>115.799</ele>
        <time>2021-03-21T06:19:19Z</time>
      </trkpt>
      <trkpt lat="43.186955" lon="-2.259114">
        <ele>116.337</ele>
        <time>2021-03-21T06:19:21Z</time>
      </trkpt>
      <trkpt lat="43.186963" lon="-2.259085">
        <ele>116.937</ele>
        <time>2021-03-21T06:19:23Z</time>
      </trkpt>
      <trkpt lat="43.186982" lon="-2.259068">
        <ele>117.377</ele>
        <time>2021-03-21T06:19:26Z</time>
      </trkpt>
      <trkpt lat="43.186999" lon="-2.259060">
        <ele>117.434</ele>
        <time>2021-03-21T06:19:28Z</time>
      </trkpt>
      <trkpt lat="43.187020" lon="-2.259047">
        <ele>117.655</ele>
        <time>2021-03-21T06:19:31Z</time>
      </trkpt>
      <trkpt lat="43.187038" lon="-2.259020">
        <ele>118.210</ele>
        <time>2021-03-21T06:19:34Z</time>
      </trkpt>
      <trkpt lat="43.187050" lon="-2.259001">
        <ele>118.608</ele>
        <time>2021-03-21T06:19:36Z</time>
      </trkpt>
      <trkpt lat="43.187067" lon="-2.258984">
        <ele>119.079</ele>
        <time>2021-03-21T06:19:39Z</time>
      </trkpt>
      <trkpt lat="43.187081" lon="-2.258963">
        <ele>119.552</ele>
        <time>2021-03-21T06:19:42Z</time>
      </trkpt>
      <trkpt lat="43.187093" lon="-2.258936">
        <ele>120.265</ele>
        <time>2021-03-21T06:19:45Z</time>
      </trkpt>
      <trkpt lat="43.187106" lon="-2.258907">
        <ele>120.976</ele>
        <time>2021-03-21T06:19:49Z</time>
      </trkpt>
      <trkpt lat="43.187119" lon="-2.258879">
        <ele>121.783</ele>
        <time>2021-03-21T06:19:51Z</time>
      </trkpt>
      <trkpt lat="43.187128" lon="-2.258857">
        <ele>122.321</ele>
        <time>2021-03-21T06:19:53Z</time>
      </trkpt>
      <trkpt lat="43.187140" lon="-2.258830">
        <ele>123.111</ele>
        <time>2021-03-21T06:19:56Z</time>
      </trkpt>
      <trkpt lat="43.187155" lon="-2.258796">
        <ele>124.231</ele>
        <time>2021-03-21T06:19:59Z</time>
      </trkpt>
      <trkpt lat="43.187162" lon="-2.258782">
        <ele>124.667</ele>
        <time>2021-03-21T06:20:00Z</time>
      </trkpt>
      <trkpt lat="43.187166" lon="-2.258770">
        <ele>125.081</ele>
        <time>2021-03-21T06:20:01Z</time>
      </trkpt>
      <trkpt lat="43.187171" lon="-2.258761">
        <ele>125.219</ele>
        <time>2021-03-21T06:20:02Z</time>
      </trkpt>
      <trkpt lat="43.187182" lon="-2.258751">
        <ele>125.508</ele>
        <time>2021-03-21T06:20:03Z</time>
      </trkpt>
      <trkpt lat="43.187193" lon="-2.258731">
        <ele>126.272</ele>
        <time>2021-03-21T06:20:05Z</time>
      </trkpt>
      <trkpt lat="43.187202" lon="-2.258706">
        <ele>127.065</ele>
        <time>2021-03-21T06:20:07Z</time>
      </trkpt>
      <trkpt lat="43.187217" lon="-2.258685">
        <ele>127.698</ele>
        <time>2021-03-21T06:20:09Z</time>
      </trkpt>
      <trkpt lat="43.187234" lon="-2.258664">
        <ele>128.419</ele>
        <time>2021-03-21T06:20:11Z</time>
      </trkpt>
      <trkpt lat="43.187249" lon="-2.258642">
        <ele>129.396</ele>
        <time>2021-03-21T06:20:13Z</time>
      </trkpt>
      <trkpt lat="43.187267" lon="-2.258621">
        <ele>130.214</ele>
        <time>2021-03-21T06:20:16Z</time>
      </trkpt>
      <trkpt lat="43.187283" lon="-2.258608">
        <ele>130.844</ele>
        <time>2021-03-21T06:20:18Z</time>
      </trkpt>
      <trkpt lat="43.187304" lon="-2.258594">
        <ele>131.544</ele>
        <time>2021-03-21T06:20:20Z</time>
      </trkpt>
      <trkpt lat="43.187323" lon="-2.258585">
        <ele>132.168</ele>
        <time>2021-03-21T06:20:22Z</time>
      </trkpt>
      <trkpt lat="43.187346" lon="-2.258575">
        <ele>132.742</ele>
        <time>2021-03-21T06:20:25Z</time>
      </trkpt>
      <trkpt lat="43.187367" lon="-2.258567">
        <ele>133.226</ele>
        <time>2021-03-21T06:20:28Z</time>
      </trkpt>
      <trkpt lat="43.187385" lon="-2.258561">
        <ele>133.708</ele>
        <time>2021-03-21T06:20:30Z</time>
      </trkpt>
      <trkpt lat="43.187402" lon="-2.258553">
        <ele>134.252</ele>
        <time>2021-03-21T06:20:32Z</time>
      </trkpt>
      <trkpt lat="43.187421" lon="-2.258547">
        <ele>134.655</ele>
        <time>2021-03-21T06:20:35Z</time>
      </trkpt>
      <trkpt lat="43.187444" lon="-2.258546">
        <ele>134.928</ele>
        <time>2021-03-21T06:20:38Z</time>
      </trkpt>
      <trkpt lat="43.187462" lon="-2.258541">
        <ele>135.379</ele>
        <time>2021-03-21T06:20:41Z</time>
      </trkpt>
      <trkpt lat="43.187482" lon="-2.258526">
        <ele>136.276</ele>
        <time>2021-03-21T06:20:43Z</time>
      </trkpt>
      <trkpt lat="43.187499" lon="-2.258503">
        <ele>137.384</ele>
        <time>2021-03-21T06:20:45Z</time>
      </trkpt>
      <trkpt lat="43.187513" lon="-2.258475">
        <ele>138.234</ele>
        <time>2021-03-21T06:20:47Z</time>
      </trkpt>
      <trkpt lat="43.187514" lon="-2.258440">
        <ele>139.684</ele>
        <time>2021-03-21T06:20:49Z</time>
      </trkpt>
      <trkpt lat="43.187508" lon="-2.258406">
        <ele>141.027</ele>
        <time>2021-03-21T06:20:51Z</time>
      </trkpt>
      <trkpt lat="43.187504" lon="-2.258374">
        <ele>142.368</ele>
        <time>2021-03-21T06:20:53Z</time>
      </trkpt>
      <trkpt lat="43.187493" lon="-2.258343">
        <ele>143.514</ele>
        <time>2021-03-21T06:20:55Z</time>
      </trkpt>
      <trkpt lat="43.187486" lon="-2.258314">
        <ele>144.608</ele>
        <time>2021-03-21T06:20:57Z</time>
      </trkpt>
      <trkpt lat="43.187473" lon="-2.258286">
        <ele>145.568</ele>
        <time>2021-03-21T06:21:00Z</time>
      </trkpt>
      <trkpt lat="43.187445" lon="-2.258274">
        <ele>145.521</ele>
        <time>2021-03-21T06:21:03Z</time>
      </trkpt>
      <trkpt lat="43.187422" lon="-2.258262">
        <ele>145.624</ele>
        <time>2021-03-21T06:21:05Z</time>
      </trkpt>
      <trkpt lat="43.187406" lon="-2.258250">
        <ele>145.795</ele>
        <time>2021-03-21T06:21:06Z</time>
      </trkpt>
      <trkpt lat="43.187381" lon="-2.258231">
        <ele>146.072</ele>
        <time>2021-03-21T06:21:08Z</time>
      </trkpt>
      <trkpt lat="43.187364" lon="-2.258223">
        <ele>146.060</ele>
        <time>2021-03-21T06:21:09Z</time>
      </trkpt>
      <trkpt lat="43.187337" lon="-2.258207">
        <ele>146.140</ele>
        <time>2021-03-21T06:21:11Z</time>
      </trkpt>
      <trkpt lat="43.187309" lon="-2.258187">
        <ele>146.330</ele>
        <time>2021-03-21T06:21:13Z</time>
      </trkpt>
      <trkpt lat="43.187284" lon="-2.258167">
        <ele>146.522</ele>
        <time>2021-03-21T06:21:15Z</time>
      </trkpt>
      <trkpt lat="43.187259" lon="-2.258146">
        <ele>146.862</ele>
        <time>2021-03-21T06:21:17Z</time>
      </trkpt>
      <trkpt lat="43.187236" lon="-2.258124">
        <ele>147.108</ele>
        <time>2021-03-21T06:21:19Z</time>
      </trkpt>
      <trkpt lat="43.187217" lon="-2.258104">
        <ele>147.408</ele>
        <time>2021-03-21T06:21:21Z</time>
      </trkpt>
      <trkpt lat="43.187192" lon="-2.258084">
        <ele>147.978</ele>
        <time>2021-03-21T06:21:23Z</time>
      </trkpt>
      <trkpt lat="43.187168" lon="-2.258068">
        <ele>148.281</ele>
        <time>2021-03-21T06:21:25Z</time>
      </trkpt>
      <trkpt lat="43.187142" lon="-2.258054">
        <ele>148.524</ele>
        <time>2021-03-21T06:21:27Z</time>
      </trkpt>
      <trkpt lat="43.187118" lon="-2.258039">
        <ele>148.745</ele>
        <time>2021-03-21T06:21:29Z</time>
      </trkpt>
      <trkpt lat="43.187096" lon="-2.258022">
        <ele>149.112</ele>
        <time>2021-03-21T06:21:31Z</time>
      </trkpt>
      <trkpt lat="43.187077" lon="-2.258002">
        <ele>149.640</ele>
        <time>2021-03-21T06:21:33Z</time>
      </trkpt>
      <trkpt lat="43.187065" lon="-2.257973">
        <ele>150.450</ele>
        <time>2021-03-21T06:21:35Z</time>
      </trkpt>
      <trkpt lat="43.187071" lon="-2.257946">
        <ele>151.380</ele>
        <time>2021-03-21T06:21:37Z</time>
      </trkpt>
      <trkpt lat="43.187083" lon="-2.257922">
        <ele>152.174</ele>
        <time>2021-03-21T06:21:39Z</time>
      </trkpt>
      <trkpt lat="43.187099" lon="-2.257904">
        <ele>152.756</ele>
        <time>2021-03-21T06:21:41Z</time>
      </trkpt>
      <trkpt lat="43.187118" lon="-2.257885">
        <ele>153.421</ele>
        <time>2021-03-21T06:21:43Z</time>
      </trkpt>
      <trkpt lat="43.187135" lon="-2.257867">
        <ele>154.008</ele>
        <time>2021-03-21T06:21:45Z</time>
      </trkpt>
      <trkpt lat="43.187154" lon="-2.257856">
        <ele>154.413</ele>
        <time>2021-03-21T06:21:47Z</time>
      </trkpt>
      <trkpt lat="43.187175" lon="-2.257844">
        <ele>154.966</ele>
        <time>2021-03-21T06:21:49Z</time>
      </trkpt>
      <trkpt lat="43.187198" lon="-2.257834">
        <ele>155.399</ele>
        <time>2021-03-21T06:21:51Z</time>
      </trkpt>
      <trkpt lat="43.187214" lon="-2.257817">
        <ele>155.870</ele>
        <time>2021-03-21T06:21:54Z</time>
      </trkpt>
      <trkpt lat="43.187233" lon="-2.257802">
        <ele>156.617</ele>
        <time>2021-03-21T06:21:56Z</time>
      </trkpt>
      <trkpt lat="43.187252" lon="-2.257793">
        <ele>157.365</ele>
        <time>2021-03-21T06:21:58Z</time>
      </trkpt>
      <trkpt lat="43.187271" lon="-2.257791">
        <ele>157.835</ele>
        <time>2021-03-21T06:22:00Z</time>
      </trkpt>
      <trkpt lat="43.187288" lon="-2.257788">
        <ele>158.485</ele>
        <time>2021-03-21T06:22:02Z</time>
      </trkpt>
      <trkpt lat="43.187311" lon="-2.257789">
        <ele>158.989</ele>
        <time>2021-03-21T06:22:04Z</time>
      </trkpt>
      <trkpt lat="43.187331" lon="-2.257788">
        <ele>159.406</ele>
        <time>2021-03-21T06:22:06Z</time>
      </trkpt>
      <trkpt lat="43.187357" lon="-2.257791">
        <ele>160.026</ele>
        <time>2021-03-21T06:22:08Z</time>
      </trkpt>
      <trkpt lat="43.187384" lon="-2.257800">
        <ele>160.408</ele>
        <time>2021-03-21T06:22:10Z</time>
      </trkpt>
      <trkpt lat="43.187410" lon="-2.257812">
        <ele>160.754</ele>
        <time>2021-03-21T06:22:12Z</time>
      </trkpt>
      <trkpt lat="43.187433" lon="-2.257826">
        <ele>160.837</ele>
        <time>2021-03-21T06:22:14Z</time>
      </trkpt>
      <trkpt lat="43.187453" lon="-2.257837">
        <ele>160.950</ele>
        <time>2021-03-21T06:22:16Z</time>
      </trkpt>
      <trkpt lat="43.187477" lon="-2.257851">
        <ele>161.111</ele>
        <time>2021-03-21T06:22:18Z</time>
      </trkpt>
      <trkpt lat="43.187499" lon="-2.257860">
        <ele>161.368</ele>
        <time>2021-03-21T06:22:20Z</time>
      </trkpt>
      <trkpt lat="43.187521" lon="-2.257859">
        <ele>161.216</ele>
        <time>2021-03-21T06:22:22Z</time>
      </trkpt>
      <trkpt lat="43.187542" lon="-2.257851">
        <ele>161.416</ele>
        <time>2021-03-21T06:22:24Z</time>
      </trkpt>
      <trkpt lat="43.187563" lon="-2.257844">
        <ele>161.586</ele>
        <time>2021-03-21T06:22:26Z</time>
      </trkpt>
      <trkpt lat="43.187583" lon="-2.257833">
        <ele>161.798</ele>
        <time>2021-03-21T06:22:28Z</time>
      </trkpt>
      <trkpt lat="43.187597" lon="-2.257818">
        <ele>162.215</ele>
        <time>2021-03-21T06:22:30Z</time>
      </trkpt>
      <trkpt lat="43.187620" lon="-2.257798">
        <ele>162.826</ele>
        <time>2021-03-21T06:22:32Z</time>
      </trkpt>
      <trkpt lat="43.187644" lon="-2.257774">
        <ele>163.608</ele>
        <time>2021-03-21T06:22:34Z</time>
      </trkpt>
      <trkpt lat="43.187666" lon="-2.257750">
        <ele>164.485</ele>
        <time>2021-03-21T06:22:36Z</time>
      </trkpt>
      <trkpt lat="43.187693" lon="-2.257726">
        <ele>165.188</ele>
        <time>2021-03-21T06:22:38Z</time>
      </trkpt>
      <trkpt lat="43.187714" lon="-2.257701">
        <ele>165.981</ele>
        <time>2021-03-21T06:22:40Z</time>
      </trkpt>
      <trkpt lat="43.187729" lon="-2.257672">
        <ele>166.972</ele>
        <time>2021-03-21T06:22:42Z</time>
      </trkpt>
      <trkpt lat="43.187738" lon="-2.257636">
        <ele>168.289</ele>
        <time>2021-03-21T06:22:44Z</time>
      </trkpt>
      <trkpt lat="43.187741" lon="-2.257599">
        <ele>169.537</ele>
        <time>2021-03-21T06:22:46Z</time>
      </trkpt>
      <trkpt lat="43.187729" lon="-2.257564">
        <ele>170.787</ele>
        <time>2021-03-21T06:22:48Z</time>
      </trkpt>
      <trkpt lat="43.187717" lon="-2.257545">
        <ele>171.437</ele>
        <time>2021-03-21T06:22:50Z</time>
      </trkpt>
      <trkpt lat="43.187697" lon="-2.257529">
        <ele>172.032</ele>
        <time>2021-03-21T06:22:52Z</time>
      </trkpt>
      <trkpt lat="43.187683" lon="-2.257516">
        <ele>172.492</ele>
        <time>2021-03-21T06:22:54Z</time>
      </trkpt>
      <trkpt lat="43.187667" lon="-2.257507">
        <ele>172.811</ele>
        <time>2021-03-21T06:22:56Z</time>
      </trkpt>
      <trkpt lat="43.187651" lon="-2.257495">
        <ele>173.208</ele>
        <time>2021-03-21T06:22:58Z</time>
      </trkpt>
      <trkpt lat="43.187634" lon="-2.257484">
        <ele>173.699</ele>
        <time>2021-03-21T06:23:00Z</time>
      </trkpt>
      <trkpt lat="43.187614" lon="-2.257471">
        <ele>174.042</ele>
        <time>2021-03-21T06:23:02Z</time>
      </trkpt>
      <trkpt lat="43.187596" lon="-2.257457">
        <ele>174.585</ele>
        <time>2021-03-21T06:23:04Z</time>
      </trkpt>
      <trkpt lat="43.187579" lon="-2.257447">
        <ele>174.956</ele>
        <time>2021-03-21T06:23:06Z</time>
      </trkpt>
      <trkpt lat="43.187558" lon="-2.257432">
        <ele>175.493</ele>
        <time>2021-03-21T06:23:08Z</time>
      </trkpt>
      <trkpt lat="43.187536" lon="-2.257416">
        <ele>176.071</ele>
        <time>2021-03-21T06:23:10Z</time>
      </trkpt>
      <trkpt lat="43.187515" lon="-2.257402">
        <ele>176.511</ele>
        <time>2021-03-21T06:23:12Z</time>
      </trkpt>
      <trkpt lat="43.187496" lon="-2.257384">
        <ele>177.111</ele>
        <time>2021-03-21T06:23:14Z</time>
      </trkpt>
      <trkpt lat="43.187478" lon="-2.257365">
        <ele>177.339</ele>
        <time>2021-03-21T06:23:16Z</time>
      </trkpt>
      <trkpt lat="43.187462" lon="-2.257341">
        <ele>177.801</ele>
        <time>2021-03-21T06:23:18Z</time>
      </trkpt>
      <trkpt lat="43.187449" lon="-2.257318">
        <ele>178.321</ele>
        <time>2021-03-21T06:23:20Z</time>
      </trkpt>
      <trkpt lat="43.187435" lon="-2.257293">
        <ele>178.908</ele>
        <time>2021-03-21T06:23:22Z</time>
      </trkpt>
      <trkpt lat="43.187420" lon="-2.257263">
        <ele>179.669</ele>
        <time>2021-03-21T06:23:24Z</time>
      </trkpt>
      <trkpt lat="43.187407" lon="-2.257235">
        <ele>180.222</ele>
        <time>2021-03-21T06:23:26Z</time>
      </trkpt>
      <trkpt lat="43.187396" lon="-2.257202">
        <ele>181.035</ele>
        <time>2021-03-21T06:23:28Z</time>
      </trkpt>
      <trkpt lat="43.187384" lon="-2.257167">
        <ele>181.996</ele>
        <time>2021-03-21T06:23:30Z</time>
      </trkpt>
      <trkpt lat="43.187371" lon="-2.257135">
        <ele>182.693</ele>
        <time>2021-03-21T06:23:32Z</time>
      </trkpt>
      <trkpt lat="43.187355" lon="-2.257105">
        <ele>183.151</ele>
        <time>2021-03-21T06:23:34Z</time>
      </trkpt>
      <trkpt lat="43.187341" lon="-2.257076">
        <ele>183.731</ele>
        <time>2021-03-21T06:23:36Z</time>
      </trkpt>
      <trkpt lat="43.187328" lon="-2.257041">
        <ele>184.531</ele>
        <time>2021-03-21T06:23:38Z</time>
      </trkpt>
      <trkpt lat="43.187319" lon="-2.257007">
        <ele>185.495</ele>
        <time>2021-03-21T06:23:40Z</time>
      </trkpt>
      <trkpt lat="43.187308" lon="-2.256981">
        <ele>186.049</ele>
        <time>2021-03-21T06:23:42Z</time>
      </trkpt>
      <trkpt lat="43.187292" lon="-2.256950">
        <ele>186.623</ele>
        <time>2021-03-21T06:23:44Z</time>
      </trkpt>
      <trkpt lat="43.187277" lon="-2.256921">
        <ele>187.108</ele>
        <time>2021-03-21T06:23:46Z</time>
      </trkpt>
      <trkpt lat="43.187266" lon="-2.256896">
        <ele>187.525</ele>
        <time>2021-03-21T06:23:48Z</time>
      </trkpt>
      <trkpt lat="43.187253" lon="-2.256865">
        <ele>188.148</ele>
        <time>2021-03-21T06:23:50Z</time>
      </trkpt>
      <trkpt lat="43.187240" lon="-2.256838">
        <ele>188.551</ele>
        <time>2021-03-21T06:23:52Z</time>
      </trkpt>
      <trkpt lat="43.187220" lon="-2.256816">
        <ele>188.772</ele>
        <time>2021-03-21T06:23:54Z</time>
      </trkpt>
      <trkpt lat="43.187199" lon="-2.256795">
        <ele>189.389</ele>
        <time>2021-03-21T06:23:56Z</time>
      </trkpt>
      <trkpt lat="43.187179" lon="-2.256778">
        <ele>189.987</ele>
        <time>2021-03-21T06:23:58Z</time>
      </trkpt>
      <trkpt lat="43.187163" lon="-2.256760">
        <ele>190.457</ele>
        <time>2021-03-21T06:24:00Z</time>
      </trkpt>
      <trkpt lat="43.187145" lon="-2.256739">
        <ele>191.047</ele>
        <time>2021-03-21T06:24:02Z</time>
      </trkpt>
      <trkpt lat="43.187129" lon="-2.256722">
        <ele>191.587</ele>
        <time>2021-03-21T06:24:04Z</time>
      </trkpt>
      <trkpt lat="43.187113" lon="-2.256701">
        <ele>192.142</ele>
        <time>2021-03-21T06:24:06Z</time>
      </trkpt>
      <trkpt lat="43.187099" lon="-2.256681">
        <ele>192.626</ele>
        <time>2021-03-21T06:24:08Z</time>
      </trkpt>
      <trkpt lat="43.187086" lon="-2.256660">
        <ele>193.208</ele>
        <time>2021-03-21T06:24:10Z</time>
      </trkpt>
      <trkpt lat="43.187072" lon="-2.256630">
        <ele>194.034</ele>
        <time>2021-03-21T06:24:12Z</time>
      </trkpt>
      <trkpt lat="43.187057" lon="-2.256601">
        <ele>194.797</ele>
        <time>2021-03-21T06:24:14Z</time>
      </trkpt>
      <trkpt lat="43.187047" lon="-2.256563">
        <ele>195.780</ele>
        <time>2021-03-21T06:24:16Z</time>
      </trkpt>
      <trkpt lat="43.187037" lon="-2.256529">
        <ele>196.551</ele>
        <time>2021-03-21T06:24:18Z</time>
      </trkpt>
      <trkpt lat="43.187027" lon="-2.256495">
        <ele>197.328</ele>
        <time>2021-03-21T06:24:20Z</time>
      </trkpt>
      <trkpt lat="43.187017" lon="-2.256461">
        <ele>198.026</ele>
        <time>2021-03-21T06:24:22Z</time>
      </trkpt>
      <trkpt lat="43.187003" lon="-2.256437">
        <ele>198.536</ele>
        <time>2021-03-21T06:24:24Z</time>
      </trkpt>
      <trkpt lat="43.186987" lon="-2.256412">
        <ele>198.996</ele>
        <time>2021-03-21T06:24:26Z</time>
      </trkpt>
      <trkpt lat="43.186967" lon="-2.256392">
        <ele>199.283</ele>
        <time>2021-03-21T06:24:28Z</time>
      </trkpt>
      <trkpt lat="43.186947" lon="-2.256379">
        <ele>199.425</ele>
        <time>2021-03-21T06:24:30Z</time>
      </trkpt>
      <trkpt lat="43.186922" lon="-2.256368">
        <ele>200.117</ele>
        <time>2021-03-21T06:24:32Z</time>
      </trkpt>
      <trkpt lat="43.186899" lon="-2.256357">
        <ele>200.708</ele>
        <time>2021-03-21T06:24:34Z</time>
      </trkpt>
      <trkpt lat="43.186876" lon="-2.256347">
        <ele>201.414</ele>
        <time>2021-03-21T06:24:36Z</time>
      </trkpt>
      <trkpt lat="43.186855" lon="-2.256343">
        <ele>201.857</ele>
        <time>2021-03-21T06:24:38Z</time>
      </trkpt>
      <trkpt lat="43.186830" lon="-2.256328">
        <ele>202.620</ele>
        <time>2021-03-21T06:24:40Z</time>
      </trkpt>
      <trkpt lat="43.186807" lon="-2.256313">
        <ele>203.331</ele>
        <time>2021-03-21T06:24:42Z</time>
      </trkpt>
      <trkpt lat="43.186783" lon="-2.256311">
        <ele>203.638</ele>
        <time>2021-03-21T06:24:44Z</time>
      </trkpt>
      <trkpt lat="43.186757" lon="-2.256305">
        <ele>204.146</ele>
        <time>2021-03-21T06:24:46Z</time>
      </trkpt>
      <trkpt lat="43.186734" lon="-2.256297">
        <ele>204.636</ele>
        <time>2021-03-21T06:24:48Z</time>
      </trkpt>
      <trkpt lat="43.186709" lon="-2.256287">
        <ele>205.126</ele>
        <time>2021-03-21T06:24:50Z</time>
      </trkpt>
      <trkpt lat="43.186687" lon="-2.256280">
        <ele>205.531</ele>
        <time>2021-03-21T06:24:52Z</time>
      </trkpt>
      <trkpt lat="43.186667" lon="-2.256266">
        <ele>206.161</ele>
        <time>2021-03-21T06:24:54Z</time>
      </trkpt>
      <trkpt lat="43.186646" lon="-2.256252">
        <ele>206.407</ele>
        <time>2021-03-21T06:24:56Z</time>
      </trkpt>
      <trkpt lat="43.186630" lon="-2.256235">
        <ele>206.808</ele>
        <time>2021-03-21T06:24:58Z</time>
      </trkpt>
      <trkpt lat="43.186620" lon="-2.256203">
        <ele>207.629</ele>
        <time>2021-03-21T06:25:00Z</time>
      </trkpt>
      <trkpt lat="43.186616" lon="-2.256167">
        <ele>208.652</ele>
        <time>2021-03-21T06:25:02Z</time>
      </trkpt>
      <trkpt lat="43.186619" lon="-2.256134">
        <ele>209.435</ele>
        <time>2021-03-21T06:25:04Z</time>
      </trkpt>
      <trkpt lat="43.186628" lon="-2.256101">
        <ele>210.346</ele>
        <time>2021-03-21T06:25:06Z</time>
      </trkpt>
      <trkpt lat="43.186639" lon="-2.256072">
        <ele>211.113</ele>
        <time>2021-03-21T06:25:08Z</time>
      </trkpt>
      <trkpt lat="43.186653" lon="-2.256046">
        <ele>211.981</ele>
        <time>2021-03-21T06:25:10Z</time>
      </trkpt>
      <trkpt lat="43.186672" lon="-2.256021">
        <ele>212.631</ele>
        <time>2021-03-21T06:25:12Z</time>
      </trkpt>
      <trkpt lat="43.186691" lon="-2.255999">
        <ele>213.271</ele>
        <time>2021-03-21T06:25:14Z</time>
      </trkpt>
      <trkpt lat="43.186717" lon="-2.255973">
        <ele>214.172</ele>
        <time>2021-03-21T06:25:16Z</time>
      </trkpt>
      <trkpt lat="43.186739" lon="-2.255952">
        <ele>214.813</ele>
        <time>2021-03-21T06:25:18Z</time>
      </trkpt>
      <trkpt lat="43.186756" lon="-2.255933">
        <ele>215.414</ele>
        <time>2021-03-21T06:25:20Z</time>
      </trkpt>
      <trkpt lat="43.186771" lon="-2.255907">
        <ele>216.308</ele>
        <time>2021-03-21T06:25:22Z</time>
      </trkpt>
      <trkpt lat="43.186790" lon="-2.255886">
        <ele>217.163</ele>
        <time>2021-03-21T06:25:24Z</time>
      </trkpt>
      <trkpt lat="43.186809" lon="-2.255866">
        <ele>217.946</ele>
        <time>2021-03-21T06:25:26Z</time>
      </trkpt>
      <trkpt lat="43.186836" lon="-2.255849">
        <ele>218.719</ele>
        <time>2021-03-21T06:25:28Z</time>
      </trkpt>
      <trkpt lat="43.186860" lon="-2.255839">
        <ele>219.250</ele>
        <time>2021-03-21T06:25:30Z</time>
      </trkpt>
      <trkpt lat="43.186880" lon="-2.255835">
        <ele>219.547</ele>
        <time>2021-03-21T06:25:32Z</time>
      </trkpt>
      <trkpt lat="43.186902" lon="-2.255831">
        <ele>219.815</ele>
        <time>2021-03-21T06:25:34Z</time>
      </trkpt>
      <trkpt lat="43.186927" lon="-2.255827">
        <ele>220.165</ele>
        <time>2021-03-21T06:25:36Z</time>
      </trkpt>
      <trkpt lat="43.186946" lon="-2.255828">
        <ele>220.225</ele>
        <time>2021-03-21T06:25:38Z</time>
      </trkpt>
      <trkpt lat="43.186967" lon="-2.255825">
        <ele>220.735</ele>
        <time>2021-03-21T06:25:41Z</time>
      </trkpt>
      <trkpt lat="43.186990" lon="-2.255821">
        <ele>221.286</ele>
        <time>2021-03-21T06:25:43Z</time>
      </trkpt>
      <trkpt lat="43.187007" lon="-2.255813">
        <ele>221.814</ele>
        <time>2021-03-21T06:25:45Z</time>
      </trkpt>
      <trkpt lat="43.187025" lon="-2.255805">
        <ele>222.308</ele>
        <time>2021-03-21T06:25:47Z</time>
      </trkpt>
      <trkpt lat="43.187043" lon="-2.255795">
        <ele>223.019</ele>
        <time>2021-03-21T06:25:49Z</time>
      </trkpt>
      <trkpt lat="43.187065" lon="-2.255778">
        <ele>223.962</ele>
        <time>2021-03-21T06:25:51Z</time>
      </trkpt>
      <trkpt lat="43.187084" lon="-2.255758">
        <ele>224.865</ele>
        <time>2021-03-21T06:25:53Z</time>
      </trkpt>
      <trkpt lat="43.187097" lon="-2.255736">
        <ele>225.736</ele>
        <time>2021-03-21T06:25:55Z</time>
      </trkpt>
      <trkpt lat="43.187106" lon="-2.255709">
        <ele>226.753</ele>
        <time>2021-03-21T06:25:57Z</time>
      </trkpt>
      <trkpt lat="43.187111" lon="-2.255672">
        <ele>227.991</ele>
        <time>2021-03-21T06:25:59Z</time>
      </trkpt>
      <trkpt lat="43.187114" lon="-2.255635">
        <ele>229.031</ele>
        <time>2021-03-21T06:26:01Z</time>
      </trkpt>
      <trkpt lat="43.187107" lon="-2.255604">
        <ele>229.971</ele>
        <time>2021-03-21T06:26:03Z</time>
      </trkpt>
      <trkpt lat="43.187090" lon="-2.255579">
        <ele>230.478</ele>
        <time>2021-03-21T06:26:05Z</time>
      </trkpt>
      <trkpt lat="43.187076" lon="-2.255558">
        <ele>230.833</ele>
        <time>2021-03-21T06:26:07Z</time>
      </trkpt>
      <trkpt lat="43.187062" lon="-2.255537">
        <ele>231.326</ele>
        <time>2021-03-21T06:26:09Z</time>
      </trkpt>
      <trkpt lat="43.187047" lon="-2.255513">
        <ele>231.908</ele>
        <time>2021-03-21T06:26:11Z</time>
      </trkpt>
      <trkpt lat="43.187031" lon="-2.255491">
        <ele>232.493</ele>
        <time>2021-03-21T06:26:13Z</time>
      </trkpt>
      <trkpt lat="43.187018" lon="-2.255469">
        <ele>232.986</ele>
        <time>2021-03-21T06:26:15Z</time>
      </trkpt>
      <trkpt lat="43.187002" lon="-2.255443">
        <ele>233.689</ele>
        <time>2021-03-21T06:26:17Z</time>
      </trkpt>
      <trkpt lat="43.186985" lon="-2.255417">
        <ele>234.110</ele>
        <time>2021-03-21T06:26:19Z</time>
      </trkpt>
      <trkpt lat="43.186968" lon="-2.255394">
        <ele>234.627</ele>
        <time>2021-03-21T06:26:21Z</time>
      </trkpt>
      <trkpt lat="43.186952" lon="-2.255367">
        <ele>235.225</ele>
        <time>2021-03-21T06:26:23Z</time>
      </trkpt>
      <trkpt lat="43.186929" lon="-2.255341">
        <ele>235.825</ele>
        <time>2021-03-21T06:26:25Z</time>
      </trkpt>
      <trkpt lat="43.186906" lon="-2.255319">
        <ele>236.365</ele>
        <time>2021-03-21T06:26:27Z</time>
      </trkpt>
      <trkpt lat="43.186887" lon="-2.255295">
        <ele>236.834</ele>
        <time>2021-03-21T06:26:29Z</time>
      </trkpt>
      <trkpt lat="43.186866" lon="-2.255267">
        <ele>237.555</ele>
        <time>2021-03-21T06:26:31Z</time>
      </trkpt>
      <trkpt lat="43.186848" lon="-2.255236">
        <ele>238.310</ele>
        <time>2021-03-21T06:26:33Z</time>
      </trkpt>
      <trkpt lat="43.186831" lon="-2.255208">
        <ele>239.008</ele>
        <time>2021-03-21T06:26:35Z</time>
      </trkpt>
      <trkpt lat="43.186814" lon="-2.255178">
        <ele>239.719</ele>
        <time>2021-03-21T06:26:37Z</time>
      </trkpt>
      <trkpt lat="43.186792" lon="-2.255156">
        <ele>240.072</ele>
        <time>2021-03-21T06:26:39Z</time>
      </trkpt>
      <trkpt lat="43.186772" lon="-2.255136">
        <ele>240.335</ele>
        <time>2021-03-21T06:26:41Z</time>
      </trkpt>
      <trkpt lat="43.186751" lon="-2.255115">
        <ele>240.546</ele>
        <time>2021-03-21T06:26:43Z</time>
      </trkpt>
      <trkpt lat="43.186732" lon="-2.255092">
        <ele>240.933</ele>
        <time>2021-03-21T06:26:45Z</time>
      </trkpt>
      <trkpt lat="43.186710" lon="-2.255072">
        <ele>241.031</ele>
        <time>2021-03-21T06:26:47Z</time>
      </trkpt>
      <trkpt lat="43.186689" lon="-2.255055">
        <ele>241.091</ele>
        <time>2021-03-21T06:26:49Z</time>
      </trkpt>
      <trkpt lat="43.186669" lon="-2.255037">
        <ele>241.151</ele>
        <time>2021-03-21T06:26:51Z</time>
      </trkpt>
      <trkpt lat="43.186647" lon="-2.255019">
        <ele>241.633</ele>
        <time>2021-03-21T06:26:53Z</time>
      </trkpt>
      <trkpt lat="43.186626" lon="-2.255000">
        <ele>242.123</ele>
        <time>2021-03-21T06:26:55Z</time>
      </trkpt>
      <trkpt lat="43.186603" lon="-2.254987">
        <ele>242.615</ele>
        <time>2021-03-21T06:26:57Z</time>
      </trkpt>
      <trkpt lat="43.186581" lon="-2.254973">
        <ele>243.008</ele>
        <time>2021-03-21T06:26:59Z</time>
      </trkpt>
      <trkpt lat="43.186560" lon="-2.254962">
        <ele>243.469</ele>
        <time>2021-03-21T06:27:01Z</time>
      </trkpt>
      <trkpt lat="43.186536" lon="-2.254942">
        <ele>243.932</ele>
        <time>2021-03-21T06:27:03Z</time>
      </trkpt>
      <trkpt lat="43.186514" lon="-2.254925">
        <ele>244.445</ele>
        <time>2021-03-21T06:27:05Z</time>
      </trkpt>
      <trkpt lat="43.186492" lon="-2.254908">
        <ele>244.986</ele>
        <time>2021-03-21T06:27:07Z</time>
      </trkpt>
      <trkpt lat="43.186471" lon="-2.254889">
        <ele>245.333</ele>
        <time>2021-03-21T06:27:09Z</time>
      </trkpt>
      <trkpt lat="43.186450" lon="-2.254868">
        <ele>245.891</ele>
        <time>2021-03-21T06:27:11Z</time>
      </trkpt>
      <trkpt lat="43.186431" lon="-2.254840">
        <ele>246.561</ele>
        <time>2021-03-21T06:27:13Z</time>
      </trkpt>
      <trkpt lat="43.186411" lon="-2.254816">
        <ele>247.081</ele>
        <time>2021-03-21T06:27:15Z</time>
      </trkpt>
      <trkpt lat="43.186392" lon="-2.254787">
        <ele>247.624</ele>
        <time>2021-03-21T06:27:17Z</time>
      </trkpt>
      <trkpt lat="43.186376" lon="-2.254754">
        <ele>248.104</ele>
        <time>2021-03-21T06:27:19Z</time>
      </trkpt>
      <trkpt lat="43.186360" lon="-2.254717">
        <ele>248.714</ele>
        <time>2021-03-21T06:27:21Z</time>
      </trkpt>
      <trkpt lat="43.186345" lon="-2.254683">
        <ele>249.208</ele>
        <time>2021-03-21T06:27:23Z</time>
      </trkpt>
      <trkpt lat="43.186335" lon="-2.254647">
        <ele>249.888</ele>
        <time>2021-03-21T06:27:25Z</time>
      </trkpt>
      <trkpt lat="43.186325" lon="-2.254611">
        <ele>250.531</ele>
        <time>2021-03-21T06:27:27Z</time>
      </trkpt>
      <trkpt lat="43.186315" lon="-2.254575">
        <ele>251.124</ele>
        <time>2021-03-21T06:27:29Z</time>
      </trkpt>
      <trkpt lat="43.186304" lon="-2.254539">
        <ele>251.735</ele>
        <time>2021-03-21T06:27:31Z</time>
      </trkpt>
      <trkpt lat="43.186293" lon="-2.254503">
        <ele>252.452</ele>
        <time>2021-03-21T06:27:33Z</time>
      </trkpt>
      <trkpt lat="43.186284" lon="-2.254473">
        <ele>252.960</ele>
        <time>2021-03-21T06:27:35Z</time>
      </trkpt>
      <trkpt lat="43.186275" lon="-2.254435">
        <ele>253.540</ele>
        <time>2021-03-21T06:27:37Z</time>
      </trkpt>
      <trkpt lat="43.186265" lon="-2.254399">
        <ele>254.040</ele>
        <time>2021-03-21T06:27:39Z</time>
      </trkpt>
      <trkpt lat="43.186258" lon="-2.254366">
        <ele>254.469</ele>
        <time>2021-03-21T06:27:41Z</time>
      </trkpt>
      <trkpt lat="43.186251" lon="-2.254326">
        <ele>254.904</ele>
        <time>2021-03-21T06:27:43Z</time>
      </trkpt>
      <trkpt lat="43.186245" lon="-2.254288">
        <ele>255.524</ele>
        <time>2021-03-21T06:27:45Z</time>
      </trkpt>
      <trkpt lat="43.186241" lon="-2.254253">
        <ele>255.908</ele>
        <time>2021-03-21T06:27:47Z</time>
      </trkpt>
      <trkpt lat="43.186242" lon="-2.254215">
        <ele>256.662</ele>
        <time>2021-03-21T06:27:49Z</time>
      </trkpt>
      <trkpt lat="43.186255" lon="-2.254188">
        <ele>257.245</ele>
        <time>2021-03-21T06:27:51Z</time>
      </trkpt>
      <trkpt lat="43.186273" lon="-2.254167">
        <ele>257.978</ele>
        <time>2021-03-21T06:27:53Z</time>
      </trkpt>
      <trkpt lat="43.186293" lon="-2.254148">
        <ele>258.459</ele>
        <time>2021-03-21T06:27:55Z</time>
      </trkpt>
      <trkpt lat="43.186314" lon="-2.254135">
        <ele>258.926</ele>
        <time>2021-03-21T06:27:57Z</time>
      </trkpt>
      <trkpt lat="43.186341" lon="-2.254142">
        <ele>259.424</ele>
        <time>2021-03-21T06:27:59Z</time>
      </trkpt>
      <trkpt lat="43.186369" lon="-2.254157">
        <ele>259.894</ele>
        <time>2021-03-21T06:28:01Z</time>
      </trkpt>
      <trkpt lat="43.186393" lon="-2.254167">
        <ele>260.134</ele>
        <time>2021-03-21T06:28:03Z</time>
      </trkpt>
      <trkpt lat="43.186416" lon="-2.254176">
        <ele>260.446</ele>
        <time>2021-03-21T06:28:05Z</time>
      </trkpt>
      <trkpt lat="43.186441" lon="-2.254184">
        <ele>260.888</ele>
        <time>2021-03-21T06:28:07Z</time>
      </trkpt>
      <trkpt lat="43.186467" lon="-2.254190">
        <ele>261.216</ele>
        <time>2021-03-21T06:28:09Z</time>
      </trkpt>
      <trkpt lat="43.186493" lon="-2.254197">
        <ele>261.608</ele>
        <time>2021-03-21T06:28:11Z</time>
      </trkpt>
      <trkpt lat="43.186518" lon="-2.254204">
        <ele>262.090</ele>
        <time>2021-03-21T06:28:13Z</time>
      </trkpt>
      <trkpt lat="43.186543" lon="-2.254209">
        <ele>262.413</ele>
        <time>2021-03-21T06:28:15Z</time>
      </trkpt>
      <trkpt lat="43.186569" lon="-2.254215">
        <ele>262.836</ele>
        <time>2021-03-21T06:28:17Z</time>
      </trkpt>
      <trkpt lat="43.186592" lon="-2.254224">
        <ele>263.187</ele>
        <time>2021-03-21T06:28:19Z</time>
      </trkpt>
      <trkpt lat="43.186618" lon="-2.254228">
        <ele>263.564</ele>
        <time>2021-03-21T06:28:21Z</time>
      </trkpt>
      <trkpt lat="43.186644" lon="-2.254232">
        <ele>263.962</ele>
        <time>2021-03-21T06:28:23Z</time>
      </trkpt>
      <trkpt lat="43.186668" lon="-2.254238">
        <ele>264.232</ele>
        <time>2021-03-21T06:28:25Z</time>
      </trkpt>
      <trkpt lat="43.186694" lon="-2.254245">
        <ele>264.722</ele>
        <time>2021-03-21T06:28:27Z</time>
      </trkpt>
      <trkpt lat="43.186717" lon="-2.254251">
        <ele>265.085</ele>
        <time>2021-03-21T06:28:29Z</time>
      </trkpt>
      <trkpt lat="43.186741" lon="-2.254255">
        <ele>265.589</ele>
        <time>2021-03-21T06:28:31Z</time>
      </trkpt>
      <trkpt lat="43.186765" lon="-2.254259">
        <ele>265.917</ele>
        <time>2021-03-21T06:28:33Z</time>
      </trkpt>
      <trkpt lat="43.186791" lon="-2.254265">
        <ele>266.308</ele>
        <time>2021-03-21T06:28:35Z</time>
      </trkpt>
      <trkpt lat="43.186819" lon="-2.254270">
        <ele>266.834</ele>
        <time>2021-03-21T06:28:37Z</time>
      </trkpt>
      <trkpt lat="43.186844" lon="-2.254273">
        <ele>267.367</ele>
        <time>2021-03-21T06:28:39Z</time>
      </trkpt>
      <trkpt lat="43.186867" lon="-2.254273">
        <ele>267.890</ele>
        <time>2021-03-21T06:28:41Z</time>
      </trkpt>
      <trkpt lat="43.186896" lon="-2.254272">
        <ele>268.571</ele>
        <time>2021-03-21T06:28:43Z</time>
      </trkpt>
      <trkpt lat="43.186921" lon="-2.254271">
        <ele>269.178</ele>
        <time>2021-03-21T06:28:45Z</time>
      </trkpt>
      <trkpt lat="43.186950" lon="-2.254269">
        <ele>269.886</ele>
        <time>2021-03-21T06:28:47Z</time>
      </trkpt>
      <trkpt lat="43.186967" lon="-2.254266">
        <ele>270.156</ele>
        <time>2021-03-21T06:28:48Z</time>
      </trkpt>
      <trkpt lat="43.186996" lon="-2.254261">
        <ele>270.626</ele>
        <time>2021-03-21T06:28:50Z</time>
      </trkpt>
      <trkpt lat="43.187022" lon="-2.254261">
        <ele>270.995</ele>
        <time>2021-03-21T06:28:52Z</time>
      </trkpt>
      <trkpt lat="43.187048" lon="-2.254260">
        <ele>271.249</ele>
        <time>2021-03-21T06:28:54Z</time>
      </trkpt>
      <trkpt lat="43.187068" lon="-2.254260">
        <ele>271.523</ele>
        <time>2021-03-21T06:28:56Z</time>
      </trkpt>
      <trkpt lat="43.187096" lon="-2.254255">
        <ele>271.908</ele>
        <time>2021-03-21T06:28:58Z</time>
      </trkpt>
      <trkpt lat="43.187125" lon="-2.254252">
        <ele>272.465</ele>
        <time>2021-03-21T06:29:00Z</time>
      </trkpt>
      <trkpt lat="43.187150" lon="-2.254249">
        <ele>272.888</ele>
        <time>2021-03-21T06:29:02Z</time>
      </trkpt>
      <trkpt lat="43.187179" lon="-2.254247">
        <ele>273.211</ele>
        <time>2021-03-21T06:29:04Z</time>
      </trkpt>
      <trkpt lat="43.187212" lon="-2.254244">
        <ele>273.732</ele>
        <time>2021-03-21T06:29:06Z</time>
      </trkpt>
      <trkpt lat="43.187239" lon="-2.254237">
        <ele>274.279</ele>
        <time>2021-03-21T06:29:08Z</time>
      </trkpt>
      <trkpt lat="43.187266" lon="-2.254222">
        <ele>274.957</ele>
        <time>2021-03-21T06:29:10Z</time>
      </trkpt>
      <trkpt lat="43.187288" lon="-2.254194">
        <ele>275.957</ele>
        <time>2021-03-21T06:29:12Z</time>
      </trkpt>
      <trkpt lat="43.187288" lon="-2.254160">
        <ele>276.987</ele>
        <time>2021-03-21T06:29:14Z</time>
      </trkpt>
      <trkpt lat="43.187270" lon="-2.254127">
        <ele>277.537</ele>
        <time>2021-03-21T06:29:16Z</time>
      </trkpt>
      <trkpt lat="43.187245" lon="-2.254104">
        <ele>277.849</ele>
        <time>2021-03-21T06:29:18Z</time>
      </trkpt>
      <trkpt lat="43.187223" lon="-2.254082">
        <ele>278.113</ele>
        <time>2021-03-21T06:29:20Z</time>
      </trkpt>
      <trkpt lat="43.187202" lon="-2.254058">
        <ele>278.508</ele>
        <time>2021-03-21T06:29:22Z</time>
      </trkpt>
      <trkpt lat="43.187185" lon="-2.254036">
        <ele>278.989</ele>
        <time>2021-03-21T06:29:24Z</time>
      </trkpt>
      <trkpt lat="43.187166" lon="-2.254012">
        <ele>279.392</ele>
        <time>2021-03-21T06:29:26Z</time>
      </trkpt>
      <trkpt lat="43.187145" lon="-2.253990">
        <ele>279.685</ele>
        <time>2021-03-21T06:29:28Z</time>
      </trkpt>
      <trkpt lat="43.187121" lon="-2.253969">
        <ele>279.926</ele>
        <time>2021-03-21T06:29:30Z</time>
      </trkpt>
      <trkpt lat="43.187095" lon="-2.253948">
        <ele>280.123</ele>
        <time>2021-03-21T06:29:32Z</time>
      </trkpt>
      <trkpt lat="43.187071" lon="-2.253933">
        <ele>280.391</ele>
        <time>2021-03-21T06:29:34Z</time>
      </trkpt>
      <trkpt lat="43.187046" lon="-2.253922">
        <ele>280.371</ele>
        <time>2021-03-21T06:29:36Z</time>
      </trkpt>
      <trkpt lat="43.187022" lon="-2.253900">
        <ele>280.611</ele>
        <time>2021-03-21T06:29:38Z</time>
      </trkpt>
      <trkpt lat="43.186998" lon="-2.253879">
        <ele>280.848</ele>
        <time>2021-03-21T06:29:40Z</time>
      </trkpt>
      <trkpt lat="43.186979" lon="-2.253855">
        <ele>281.161</ele>
        <time>2021-03-21T06:29:42Z</time>
      </trkpt>
      <trkpt lat="43.186963" lon="-2.253827">
        <ele>281.617</ele>
        <time>2021-03-21T06:29:44Z</time>
      </trkpt>
      <trkpt lat="43.186950" lon="-2.253804">
        <ele>281.908</ele>
        <time>2021-03-21T06:29:47Z</time>
      </trkpt>
      <trkpt lat="43.186942" lon="-2.253794">
        <ele>282.070</ele>
        <time>2021-03-21T06:29:51Z</time>
      </trkpt>
      <trkpt lat="43.186932" lon="-2.253771">
        <ele>282.233</ele>
        <time>2021-03-21T06:29:57Z</time>
      </trkpt>
      <trkpt lat="43.186930" lon="-2.253734">
        <ele>283.036</ele>
        <time>2021-03-21T06:29:59Z</time>
      </trkpt>
      <trkpt lat="43.186926" lon="-2.253696">
        <ele>283.757</ele>
        <time>2021-03-21T06:30:01Z</time>
      </trkpt>
      <trkpt lat="43.186919" lon="-2.253662">
        <ele>284.214</ele>
        <time>2021-03-21T06:30:03Z</time>
      </trkpt>
      <trkpt lat="43.186911" lon="-2.253629">
        <ele>284.772</ele>
        <time>2021-03-21T06:30:05Z</time>
      </trkpt>
      <trkpt lat="43.186909" lon="-2.253591">
        <ele>285.312</ele>
        <time>2021-03-21T06:30:07Z</time>
      </trkpt>
      <trkpt lat="43.186910" lon="-2.253554">
        <ele>285.882</ele>
        <time>2021-03-21T06:30:09Z</time>
      </trkpt>
      <trkpt lat="43.186908" lon="-2.253530">
        <ele>286.193</ele>
        <time>2021-03-21T06:30:10Z</time>
      </trkpt>
      <trkpt lat="43.186917" lon="-2.253498">
        <ele>286.865</ele>
        <time>2021-03-21T06:30:12Z</time>
      </trkpt>
      <trkpt lat="43.186920" lon="-2.253463">
        <ele>287.421</ele>
        <time>2021-03-21T06:30:14Z</time>
      </trkpt>
      <trkpt lat="43.186928" lon="-2.253431">
        <ele>288.108</ele>
        <time>2021-03-21T06:30:16Z</time>
      </trkpt>
      <trkpt lat="43.186930" lon="-2.253385">
        <ele>288.815</ele>
        <time>2021-03-21T06:30:18Z</time>
      </trkpt>
      <trkpt lat="43.186947" lon="-2.253345">
        <ele>289.938</ele>
        <time>2021-03-21T06:30:20Z</time>
      </trkpt>
      <trkpt lat="43.186957" lon="-2.253316">
        <ele>290.691</ele>
        <time>2021-03-21T06:30:22Z</time>
      </trkpt>
      <trkpt lat="43.186965" lon="-2.253289">
        <ele>291.292</ele>
        <time>2021-03-21T06:30:25Z</time>
      </trkpt>
      <trkpt lat="43.186971" lon="-2.253256">
        <ele>292.069</ele>
        <time>2021-03-21T06:30:27Z</time>
      </trkpt>
      <trkpt lat="43.186971" lon="-2.253220">
        <ele>292.667</ele>
        <time>2021-03-21T06:30:29Z</time>
      </trkpt>
      <trkpt lat="43.186984" lon="-2.253195">
        <ele>293.377</ele>
        <time>2021-03-21T06:30:31Z</time>
      </trkpt>
      <trkpt lat="43.186989" lon="-2.253159">
        <ele>294.157</ele>
        <time>2021-03-21T06:30:34Z</time>
      </trkpt>
      <trkpt lat="43.186986" lon="-2.253127">
        <ele>294.653</ele>
        <time>2021-03-21T06:30:36Z</time>
      </trkpt>
      <trkpt lat="43.186982" lon="-2.253096">
        <ele>295.104</ele>
        <time>2021-03-21T06:30:39Z</time>
      </trkpt>
      <trkpt lat="43.186987" lon="-2.253073">
        <ele>295.614</ele>
        <time>2021-03-21T06:30:41Z</time>
      </trkpt>
      <trkpt lat="43.186984" lon="-2.253046">
        <ele>296.008</ele>
        <time>2021-03-21T06:30:46Z</time>
      </trkpt>
      <trkpt lat="43.186981" lon="-2.253019">
        <ele>296.341</ele>
        <time>2021-03-21T06:30:49Z</time>
      </trkpt>
      <trkpt lat="43.186982" lon="-2.252994">
        <ele>296.714</ele>
        <time>2021-03-21T06:30:51Z</time>
      </trkpt>
      <trkpt lat="43.186985" lon="-2.252963">
        <ele>297.377</ele>
        <time>2021-03-21T06:30:53Z</time>
      </trkpt>
      <trkpt lat="43.186989" lon="-2.252924">
        <ele>297.948</ele>
        <time>2021-03-21T06:30:55Z</time>
      </trkpt>
      <trkpt lat="43.186991" lon="-2.252903">
        <ele>298.375</ele>
        <time>2021-03-21T06:30:57Z</time>
      </trkpt>
      <trkpt lat="43.186992" lon="-2.252870">
        <ele>298.873</ele>
        <time>2021-03-21T06:30:59Z</time>
      </trkpt>
      <trkpt lat="43.186995" lon="-2.252837">
        <ele>299.443</ele>
        <time>2021-03-21T06:31:01Z</time>
      </trkpt>
      <trkpt lat="43.186999" lon="-2.252805">
        <ele>300.023</ele>
        <time>2021-03-21T06:31:03Z</time>
      </trkpt>
      <trkpt lat="43.187004" lon="-2.252771">
        <ele>300.672</ele>
        <time>2021-03-21T06:31:05Z</time>
      </trkpt>
      <trkpt lat="43.187003" lon="-2.252740">
        <ele>301.013</ele>
        <time>2021-03-21T06:31:07Z</time>
      </trkpt>
      <trkpt lat="43.187005" lon="-2.252703">
        <ele>301.714</ele>
        <time>2021-03-21T06:31:09Z</time>
      </trkpt>
      <trkpt lat="43.187008" lon="-2.252665">
        <ele>302.308</ele>
        <time>2021-03-21T06:31:11Z</time>
      </trkpt>
      <trkpt lat="43.187008" lon="-2.252630">
        <ele>302.923</ele>
        <time>2021-03-21T06:31:13Z</time>
      </trkpt>
      <trkpt lat="43.187007" lon="-2.252600">
        <ele>303.356</ele>
        <time>2021-03-21T06:31:15Z</time>
      </trkpt>
      <trkpt lat="43.187006" lon="-2.252563">
        <ele>303.819</ele>
        <time>2021-03-21T06:31:18Z</time>
      </trkpt>
      <trkpt lat="43.187006" lon="-2.252530">
        <ele>304.350</ele>
        <time>2021-03-21T06:31:19Z</time>
      </trkpt>
      <trkpt lat="43.187010" lon="-2.252499">
        <ele>304.957</ele>
        <time>2021-03-21T06:31:21Z</time>
      </trkpt>
      <trkpt lat="43.187011" lon="-2.252472">
        <ele>305.415</ele>
        <time>2021-03-21T06:31:23Z</time>
      </trkpt>
      <trkpt lat="43.187018" lon="-2.252441">
        <ele>306.225</ele>
        <time>2021-03-21T06:31:25Z</time>
      </trkpt>
      <trkpt lat="43.187019" lon="-2.252417">
        <ele>306.695</ele>
        <time>2021-03-21T06:31:27Z</time>
      </trkpt>
      <trkpt lat="43.187024" lon="-2.252394">
        <ele>307.244</ele>
        <time>2021-03-21T06:31:29Z</time>
      </trkpt>
      <trkpt lat="43.187032" lon="-2.252369">
        <ele>307.905</ele>
        <time>2021-03-21T06:31:31Z</time>
      </trkpt>
      <trkpt lat="43.187043" lon="-2.252344">
        <ele>308.615</ele>
        <time>2021-03-21T06:31:33Z</time>
      </trkpt>
      <trkpt lat="43.187053" lon="-2.252322">
        <ele>309.308</ele>
        <time>2021-03-21T06:31:35Z</time>
      </trkpt>
      <trkpt lat="43.187058" lon="-2.252299">
        <ele>309.990</ele>
        <time>2021-03-21T06:31:37Z</time>
      </trkpt>
      <trkpt lat="43.187066" lon="-2.252275">
        <ele>310.693</ele>
        <time>2021-03-21T06:31:39Z</time>
      </trkpt>
      <trkpt lat="43.187069" lon="-2.252243">
        <ele>311.296</ele>
        <time>2021-03-21T06:31:42Z</time>
      </trkpt>
      <trkpt lat="43.187077" lon="-2.252208">
        <ele>312.177</ele>
        <time>2021-03-21T06:31:45Z</time>
      </trkpt>
      <trkpt lat="43.187083" lon="-2.252189">
        <ele>312.664</ele>
        <time>2021-03-21T06:31:47Z</time>
      </trkpt>
      <trkpt lat="43.187098" lon="-2.252168">
        <ele>313.592</ele>
        <time>2021-03-21T06:31:49Z</time>
      </trkpt>
      <trkpt lat="43.187111" lon="-2.252153">
        <ele>314.232</ele>
        <time>2021-03-21T06:31:51Z</time>
      </trkpt>
      <trkpt lat="43.187130" lon="-2.252144">
        <ele>314.982</ele>
        <time>2021-03-21T06:31:53Z</time>
      </trkpt>
      <trkpt lat="43.187155" lon="-2.252154">
        <ele>315.518</ele>
        <time>2021-03-21T06:31:55Z</time>
      </trkpt>
      <trkpt lat="43.187182" lon="-2.252168">
        <ele>316.098</ele>
        <time>2021-03-21T06:31:57Z</time>
      </trkpt>
      <trkpt lat="43.187204" lon="-2.252190">
        <ele>316.217</ele>
        <time>2021-03-21T06:31:59Z</time>
      </trkpt>
      <trkpt lat="43.187225" lon="-2.252213">
        <ele>316.308</ele>
        <time>2021-03-21T06:32:01Z</time>
      </trkpt>
      <trkpt lat="43.187245" lon="-2.252238">
        <ele>316.477</ele>
        <time>2021-03-21T06:32:03Z</time>
      </trkpt>
      <trkpt lat="43.187266" lon="-2.252263">
        <ele>316.790</ele>
        <time>2021-03-21T06:32:05Z</time>
      </trkpt>
      <trkpt lat="43.187287" lon="-2.252287">
        <ele>316.993</ele>
        <time>2021-03-21T06:32:07Z</time>
      </trkpt>
      <trkpt lat="43.187309" lon="-2.252312">
        <ele>317.154</ele>
        <time>2021-03-21T06:32:09Z</time>
      </trkpt>
      <trkpt lat="43.187330" lon="-2.252330">
        <ele>317.441</ele>
        <time>2021-03-21T06:32:11Z</time>
      </trkpt>
      <trkpt lat="43.187354" lon="-2.252344">
        <ele>317.919</ele>
        <time>2021-03-21T06:32:13Z</time>
      </trkpt>
      <trkpt lat="43.187376" lon="-2.252359">
        <ele>318.259</ele>
        <time>2021-03-21T06:32:15Z</time>
      </trkpt>
      <trkpt lat="43.187400" lon="-2.252376">
        <ele>318.619</ele>
        <time>2021-03-21T06:32:17Z</time>
      </trkpt>
      <trkpt lat="43.187429" lon="-2.252389">
        <ele>319.316</ele>
        <time>2021-03-21T06:32:19Z</time>
      </trkpt>
      <trkpt lat="43.187455" lon="-2.252401">
        <ele>319.876</ele>
        <time>2021-03-21T06:32:21Z</time>
      </trkpt>
      <trkpt lat="43.187479" lon="-2.252415">
        <ele>320.213</ele>
        <time>2021-03-21T06:32:23Z</time>
      </trkpt>
      <trkpt lat="43.187501" lon="-2.252430">
        <ele>320.508</ele>
        <time>2021-03-21T06:32:25Z</time>
      </trkpt>
      <trkpt lat="43.187520" lon="-2.252447">
        <ele>320.747</ele>
        <time>2021-03-21T06:32:27Z</time>
      </trkpt>
      <trkpt lat="43.187543" lon="-2.252474">
        <ele>320.780</ele>
        <time>2021-03-21T06:32:30Z</time>
      </trkpt>
      <trkpt lat="43.187573" lon="-2.252489">
        <ele>321.183</ele>
        <time>2021-03-21T06:32:32Z</time>
      </trkpt>
      <trkpt lat="43.187599" lon="-2.252504">
        <ele>321.454</ele>
        <time>2021-03-21T06:32:34Z</time>
      </trkpt>
      <trkpt lat="43.187625" lon="-2.252520">
        <ele>321.631</ele>
        <time>2021-03-21T06:32:36Z</time>
      </trkpt>
      <trkpt lat="43.187650" lon="-2.252535">
        <ele>321.969</ele>
        <time>2021-03-21T06:32:38Z</time>
      </trkpt>
      <trkpt lat="43.187676" lon="-2.252549">
        <ele>322.229</ele>
        <time>2021-03-21T06:32:40Z</time>
      </trkpt>
      <trkpt lat="43.187703" lon="-2.252566">
        <ele>322.559</ele>
        <time>2021-03-21T06:32:42Z</time>
      </trkpt>
      <trkpt lat="43.187729" lon="-2.252583">
        <ele>322.715</ele>
        <time>2021-03-21T06:32:45Z</time>
      </trkpt>
      <trkpt lat="43.187756" lon="-2.252602">
        <ele>322.965</ele>
        <time>2021-03-21T06:32:46Z</time>
      </trkpt>
      <trkpt lat="43.187778" lon="-2.252623">
        <ele>322.911</ele>
        <time>2021-03-21T06:32:48Z</time>
      </trkpt>
      <trkpt lat="43.187803" lon="-2.252643">
        <ele>323.108</ele>
        <time>2021-03-21T06:32:50Z</time>
      </trkpt>
      <trkpt lat="43.187829" lon="-2.252662">
        <ele>323.477</ele>
        <time>2021-03-21T06:32:52Z</time>
      </trkpt>
      <trkpt lat="43.187855" lon="-2.252681">
        <ele>323.610</ele>
        <time>2021-03-21T06:32:54Z</time>
      </trkpt>
      <trkpt lat="43.187883" lon="-2.252697">
        <ele>323.973</ele>
        <time>2021-03-21T06:32:56Z</time>
      </trkpt>
      <trkpt lat="43.187909" lon="-2.252713">
        <ele>324.294</ele>
        <time>2021-03-21T06:32:58Z</time>
      </trkpt>
      <trkpt lat="43.187939" lon="-2.252729">
        <ele>324.571</ele>
        <time>2021-03-21T06:33:00Z</time>
      </trkpt>
      <trkpt lat="43.187966" lon="-2.252744">
        <ele>324.849</ele>
        <time>2021-03-21T06:33:02Z</time>
      </trkpt>
      <trkpt lat="43.187995" lon="-2.252759">
        <ele>325.169</ele>
        <time>2021-03-21T06:33:04Z</time>
      </trkpt>
      <trkpt lat="43.188022" lon="-2.252775">
        <ele>325.259</ele>
        <time>2021-03-21T06:33:06Z</time>
      </trkpt>
      <trkpt lat="43.188048" lon="-2.252793">
        <ele>325.423</ele>
        <time>2021-03-21T06:33:08Z</time>
      </trkpt>
      <trkpt lat="43.188078" lon="-2.252806">
        <ele>326.083</ele>
        <time>2021-03-21T06:33:10Z</time>
      </trkpt>
      <trkpt lat="43.188101" lon="-2.252821">
        <ele>326.311</ele>
        <time>2021-03-21T06:33:12Z</time>
      </trkpt>
      <trkpt lat="43.188124" lon="-2.252844">
        <ele>326.408</ele>
        <time>2021-03-21T06:33:14Z</time>
      </trkpt>
      <trkpt lat="43.188151" lon="-2.252863">
        <ele>326.828</ele>
        <time>2021-03-21T06:33:16Z</time>
      </trkpt>
      <trkpt lat="43.188180" lon="-2.252887">
        <ele>327.021</ele>
        <time>2021-03-21T06:33:18Z</time>
      </trkpt>
      <trkpt lat="43.188207" lon="-2.252908">
        <ele>327.234</ele>
        <time>2021-03-21T06:33:20Z</time>
      </trkpt>
      <trkpt lat="43.188233" lon="-2.252927">
        <ele>327.425</ele>
        <time>2021-03-21T06:33:23Z</time>
      </trkpt>
      <trkpt lat="43.188258" lon="-2.252943">
        <ele>327.742</ele>
        <time>2021-03-21T06:33:24Z</time>
      </trkpt>
      <trkpt lat="43.188283" lon="-2.252959">
        <ele>327.910</ele>
        <time>2021-03-21T06:33:26Z</time>
      </trkpt>
      <trkpt lat="43.188307" lon="-2.252974">
        <ele>328.180</ele>
        <time>2021-03-21T06:33:28Z</time>
      </trkpt>
      <trkpt lat="43.188333" lon="-2.252988">
        <ele>328.480</ele>
        <time>2021-03-21T06:33:30Z</time>
      </trkpt>
      <trkpt lat="43.188363" lon="-2.253001">
        <ele>328.715</ele>
        <time>2021-03-21T06:33:32Z</time>
      </trkpt>
      <trkpt lat="43.188389" lon="-2.253018">
        <ele>328.765</ele>
        <time>2021-03-21T06:33:34Z</time>
      </trkpt>
      <trkpt lat="43.188413" lon="-2.253038">
        <ele>328.611</ele>
        <time>2021-03-21T06:33:36Z</time>
      </trkpt>
      <trkpt lat="43.188434" lon="-2.253049">
        <ele>328.808</ele>
        <time>2021-03-21T06:33:38Z</time>
      </trkpt>
      <trkpt lat="43.188453" lon="-2.253065">
        <ele>328.787</ele>
        <time>2021-03-21T06:33:41Z</time>
      </trkpt>
      <trkpt lat="43.188469" lon="-2.253085">
        <ele>328.550</ele>
        <time>2021-03-21T06:33:45Z</time>
      </trkpt>
      <trkpt lat="43.188489" lon="-2.253087">
        <ele>328.943</ele>
        <time>2021-03-21T06:33:48Z</time>
      </trkpt>
      <trkpt lat="43.188513" lon="-2.253090">
        <ele>329.464</ele>
        <time>2021-03-21T06:33:49Z</time>
      </trkpt>
      <trkpt lat="43.188546" lon="-2.253087">
        <ele>330.341</ele>
        <time>2021-03-21T06:33:51Z</time>
      </trkpt>
      <trkpt lat="43.188564" lon="-2.253085">
        <ele>330.979</ele>
        <time>2021-03-21T06:33:52Z</time>
      </trkpt>
      <trkpt lat="43.188598" lon="-2.253085">
        <ele>331.739</ele>
        <time>2021-03-21T06:33:54Z</time>
      </trkpt>
      <trkpt lat="43.188631" lon="-2.253091">
        <ele>332.019</ele>
        <time>2021-03-21T06:33:56Z</time>
      </trkpt>
      <trkpt lat="43.188663" lon="-2.253097">
        <ele>332.078</ele>
        <time>2021-03-21T06:33:58Z</time>
      </trkpt>
      <trkpt lat="43.188694" lon="-2.253101">
        <ele>332.133</ele>
        <time>2021-03-21T06:34:00Z</time>
      </trkpt>
      <trkpt lat="43.188724" lon="-2.253100">
        <ele>332.426</ele>
        <time>2021-03-21T06:34:02Z</time>
      </trkpt>
      <trkpt lat="43.188750" lon="-2.253088">
        <ele>332.908</ele>
        <time>2021-03-21T06:34:04Z</time>
      </trkpt>
      <trkpt lat="43.188758" lon="-2.253064">
        <ele>333.853</ele>
        <time>2021-03-21T06:34:06Z</time>
      </trkpt>
      <trkpt lat="43.188749" lon="-2.253040">
        <ele>334.446</ele>
        <time>2021-03-21T06:34:08Z</time>
      </trkpt>
      <trkpt lat="43.188729" lon="-2.253024">
        <ele>334.849</ele>
        <time>2021-03-21T06:34:10Z</time>
      </trkpt>
      <trkpt lat="43.188723" lon="-2.253000">
        <ele>335.470</ele>
        <time>2021-03-21T06:34:13Z</time>
      </trkpt>
      <trkpt lat="43.188731" lon="-2.252973">
        <ele>336.297</ele>
        <time>2021-03-21T06:34:16Z</time>
      </trkpt>
      <trkpt lat="43.188744" lon="-2.252953">
        <ele>336.985</ele>
        <time>2021-03-21T06:34:19Z</time>
      </trkpt>
      <trkpt lat="43.188760" lon="-2.252935">
        <ele>337.535</ele>
        <time>2021-03-21T06:34:21Z</time>
      </trkpt>
      <trkpt lat="43.188773" lon="-2.252910">
        <ele>338.485</ele>
        <time>2021-03-21T06:34:24Z</time>
      </trkpt>
      <trkpt lat="43.188782" lon="-2.252878">
        <ele>339.316</ele>
        <time>2021-03-21T06:34:27Z</time>
      </trkpt>
      <trkpt lat="43.188796" lon="-2.252850">
        <ele>340.376</ele>
        <time>2021-03-21T06:34:30Z</time>
      </trkpt>
      <trkpt lat="43.188804" lon="-2.252828">
        <ele>340.913</ele>
        <time>2021-03-21T06:34:32Z</time>
      </trkpt>
      <trkpt lat="43.188813" lon="-2.252799">
        <ele>341.808</ele>
        <time>2021-03-21T06:34:35Z</time>
      </trkpt>
      <trkpt lat="43.188820" lon="-2.252775">
        <ele>342.687</ele>
        <time>2021-03-21T06:34:37Z</time>
      </trkpt>
      <trkpt lat="43.188828" lon="-2.252747">
        <ele>343.540</ele>
        <time>2021-03-21T06:34:40Z</time>
      </trkpt>
      <trkpt lat="43.188834" lon="-2.252717">
        <ele>344.533</ele>
        <time>2021-03-21T06:34:44Z</time>
      </trkpt>
      <trkpt lat="43.188842" lon="-2.252686">
        <ele>345.664</ele>
        <time>2021-03-21T06:34:47Z</time>
      </trkpt>
      <trkpt lat="43.188847" lon="-2.252657">
        <ele>346.591</ele>
        <time>2021-03-21T06:34:49Z</time>
      </trkpt>
      <trkpt lat="43.188852" lon="-2.252635">
        <ele>347.339</ele>
        <time>2021-03-21T06:34:51Z</time>
      </trkpt>
      <trkpt lat="43.188864" lon="-2.252617">
        <ele>348.039</ele>
        <time>2021-03-21T06:34:53Z</time>
      </trkpt>
      <trkpt lat="43.188876" lon="-2.252599">
        <ele>348.719</ele>
        <time>2021-03-21T06:34:55Z</time>
      </trkpt>
      <trkpt lat="43.188886" lon="-2.252575">
        <ele>349.574</ele>
        <time>2021-03-21T06:34:57Z</time>
      </trkpt>
      <trkpt lat="43.188888" lon="-2.252544">
        <ele>350.656</ele>
        <time>2021-03-21T06:35:00Z</time>
      </trkpt>
      <trkpt lat="43.188895" lon="-2.252518">
        <ele>351.521</ele>
        <time>2021-03-21T06:35:03Z</time>
      </trkpt>
      <trkpt lat="43.188904" lon="-2.252495">
        <ele>352.308</ele>
        <time>2021-03-21T06:35:05Z</time>
      </trkpt>
      <trkpt lat="43.188918" lon="-2.252476">
        <ele>353.083</ele>
        <time>2021-03-21T06:35:08Z</time>
      </trkpt>
      <trkpt lat="43.188931" lon="-2.252456">
        <ele>353.736</ele>
        <time>2021-03-21T06:35:10Z</time>
      </trkpt>
      <trkpt lat="43.188947" lon="-2.252435">
        <ele>354.599</ele>
        <time>2021-03-21T06:35:13Z</time>
      </trkpt>
      <trkpt lat="43.188955" lon="-2.252415">
        <ele>355.270</ele>
        <time>2021-03-21T06:35:15Z</time>
      </trkpt>
      <trkpt lat="43.188963" lon="-2.252393">
        <ele>355.967</ele>
        <time>2021-03-21T06:35:18Z</time>
      </trkpt>
      <trkpt lat="43.188972" lon="-2.252368">
        <ele>356.745</ele>
        <time>2021-03-21T06:35:20Z</time>
      </trkpt>
      <trkpt lat="43.188986" lon="-2.252352">
        <ele>357.375</ele>
        <time>2021-03-21T06:35:23Z</time>
      </trkpt>
      <trkpt lat="43.189001" lon="-2.252332">
        <ele>358.085</ele>
        <time>2021-03-21T06:35:25Z</time>
      </trkpt>
      <trkpt lat="43.189011" lon="-2.252313">
        <ele>358.745</ele>
        <time>2021-03-21T06:35:27Z</time>
      </trkpt>
      <trkpt lat="43.189030" lon="-2.252286">
        <ele>359.747</ele>
        <time>2021-03-21T06:35:30Z</time>
      </trkpt>
      <trkpt lat="43.189046" lon="-2.252267">
        <ele>360.411</ele>
        <time>2021-03-21T06:35:32Z</time>
      </trkpt>
      <trkpt lat="43.189065" lon="-2.252249">
        <ele>361.108</ele>
        <time>2021-03-21T06:35:34Z</time>
      </trkpt>
      <trkpt lat="43.189078" lon="-2.252229">
        <ele>361.840</ele>
        <time>2021-03-21T06:35:37Z</time>
      </trkpt>
      <trkpt lat="43.189091" lon="-2.252208">
        <ele>362.553</ele>
        <time>2021-03-21T06:35:38Z</time>
      </trkpt>
      <trkpt lat="43.189104" lon="-2.252190">
        <ele>363.116</ele>
        <time>2021-03-21T06:35:41Z</time>
      </trkpt>
      <trkpt lat="43.189120" lon="-2.252170">
        <ele>363.857</ele>
        <time>2021-03-21T06:35:44Z</time>
      </trkpt>
      <trkpt lat="43.189140" lon="-2.252148">
        <ele>364.644</ele>
        <time>2021-03-21T06:35:47Z</time>
      </trkpt>
      <trkpt lat="43.189147" lon="-2.252131">
        <ele>365.182</ele>
        <time>2021-03-21T06:35:49Z</time>
      </trkpt>
      <trkpt lat="43.189163" lon="-2.252109">
        <ele>365.892</ele>
        <time>2021-03-21T06:35:52Z</time>
      </trkpt>
      <trkpt lat="43.189175" lon="-2.252089">
        <ele>366.442</ele>
        <time>2021-03-21T06:35:54Z</time>
      </trkpt>
      <trkpt lat="43.189193" lon="-2.252062">
        <ele>367.395</ele>
        <time>2021-03-21T06:35:57Z</time>
      </trkpt>
      <trkpt lat="43.189209" lon="-2.252041">
        <ele>368.049</ele>
        <time>2021-03-21T06:36:00Z</time>
      </trkpt>
      <trkpt lat="43.189219" lon="-2.252021">
        <ele>368.623</ele>
        <time>2021-03-21T06:36:03Z</time>
      </trkpt>
      <trkpt lat="43.189235" lon="-2.251990">
        <ele>369.608</ele>
        <time>2021-03-21T06:36:05Z</time>
      </trkpt>
      <trkpt lat="43.189254" lon="-2.251970">
        <ele>370.365</ele>
        <time>2021-03-21T06:36:08Z</time>
      </trkpt>
      <trkpt lat="43.189264" lon="-2.251952">
        <ele>370.928</ele>
        <time>2021-03-21T06:36:10Z</time>
      </trkpt>
      <trkpt lat="43.189276" lon="-2.251933">
        <ele>371.531</ele>
        <time>2021-03-21T06:36:12Z</time>
      </trkpt>
      <trkpt lat="43.189289" lon="-2.251916">
        <ele>372.052</ele>
        <time>2021-03-21T06:36:14Z</time>
      </trkpt>
      <trkpt lat="43.189304" lon="-2.251899">
        <ele>372.679</ele>
        <time>2021-03-21T06:36:17Z</time>
      </trkpt>
      <trkpt lat="43.189322" lon="-2.251877">
        <ele>373.447</ele>
        <time>2021-03-21T06:36:20Z</time>
      </trkpt>
      <trkpt lat="43.189333" lon="-2.251848">
        <ele>374.267</ele>
        <time>2021-03-21T06:36:23Z</time>
      </trkpt>
      <trkpt lat="43.189340" lon="-2.251825">
        <ele>374.977</ele>
        <time>2021-03-21T06:36:26Z</time>
      </trkpt>
      <trkpt lat="43.189344" lon="-2.251792">
        <ele>375.854</ele>
        <time>2021-03-21T06:36:27Z</time>
      </trkpt>
      <trkpt lat="43.189348" lon="-2.251765">
        <ele>376.556</ele>
        <time>2021-03-21T06:36:29Z</time>
      </trkpt>
      <trkpt lat="43.189356" lon="-2.251736">
        <ele>377.311</ele>
        <time>2021-03-21T06:36:32Z</time>
      </trkpt>
      <trkpt lat="43.189360" lon="-2.251713">
        <ele>377.908</ele>
        <time>2021-03-21T06:36:34Z</time>
      </trkpt>
      <trkpt lat="43.189371" lon="-2.251676">
        <ele>379.081</ele>
        <time>2021-03-21T06:36:37Z</time>
      </trkpt>
      <trkpt lat="43.189377" lon="-2.251655">
        <ele>379.694</ele>
        <time>2021-03-21T06:36:39Z</time>
      </trkpt>
      <trkpt lat="43.189395" lon="-2.251634">
        <ele>380.487</ele>
        <time>2021-03-21T06:36:42Z</time>
      </trkpt>
      <trkpt lat="43.189406" lon="-2.251609">
        <ele>381.248</ele>
        <time>2021-03-21T06:36:45Z</time>
      </trkpt>
      <trkpt lat="43.189415" lon="-2.251586">
        <ele>382.025</ele>
        <time>2021-03-21T06:36:48Z</time>
      </trkpt>
      <trkpt lat="43.189428" lon="-2.251564">
        <ele>382.873</ele>
        <time>2021-03-21T06:36:51Z</time>
      </trkpt>
      <trkpt lat="43.189439" lon="-2.251537">
        <ele>383.733</ele>
        <time>2021-03-21T06:36:54Z</time>
      </trkpt>
      <trkpt lat="43.189445" lon="-2.251510">
        <ele>384.523</ele>
        <time>2021-03-21T06:36:57Z</time>
      </trkpt>
      <trkpt lat="43.189446" lon="-2.251486">
        <ele>385.249</ele>
        <time>2021-03-21T06:37:00Z</time>
      </trkpt>
      <trkpt lat="43.189462" lon="-2.251469">
        <ele>385.902</ele>
        <time>2021-03-21T06:37:03Z</time>
      </trkpt>
      <trkpt lat="43.189473" lon="-2.251448">
        <ele>386.622</ele>
        <time>2021-03-21T06:37:06Z</time>
      </trkpt>
      <trkpt lat="43.189488" lon="-2.251431">
        <ele>387.208</ele>
        <time>2021-03-21T06:37:08Z</time>
      </trkpt>
      <trkpt lat="43.189499" lon="-2.251403">
        <ele>388.230</ele>
        <time>2021-03-21T06:37:12Z</time>
      </trkpt>
      <trkpt lat="43.189513" lon="-2.251376">
        <ele>389.143</ele>
        <time>2021-03-21T06:37:15Z</time>
      </trkpt>
      <trkpt lat="43.189527" lon="-2.251360">
        <ele>389.726</ele>
        <time>2021-03-21T06:37:17Z</time>
      </trkpt>
      <trkpt lat="43.189548" lon="-2.251344">
        <ele>390.427</ele>
        <time>2021-03-21T06:37:19Z</time>
      </trkpt>
      <trkpt lat="43.189565" lon="-2.251328">
        <ele>391.064</ele>
        <time>2021-03-21T06:37:21Z</time>
      </trkpt>
      <trkpt lat="43.189580" lon="-2.251317">
        <ele>391.482</ele>
        <time>2021-03-21T06:37:23Z</time>
      </trkpt>
      <trkpt lat="43.189604" lon="-2.251304">
        <ele>392.072</ele>
        <time>2021-03-21T06:37:26Z</time>
      </trkpt>
      <trkpt lat="43.189627" lon="-2.251287">
        <ele>392.752</ele>
        <time>2021-03-21T06:37:29Z</time>
      </trkpt>
      <trkpt lat="43.189643" lon="-2.251275">
        <ele>393.119</ele>
        <time>2021-03-21T06:37:31Z</time>
      </trkpt>
      <trkpt lat="43.189657" lon="-2.251262">
        <ele>393.609</ele>
        <time>2021-03-21T06:37:33Z</time>
      </trkpt>
      <trkpt lat="43.189665" lon="-2.251232">
        <ele>394.519</ele>
        <time>2021-03-21T06:37:39Z</time>
      </trkpt>
      <trkpt lat="43.189683" lon="-2.251217">
        <ele>395.008</ele>
        <time>2021-03-21T06:37:42Z</time>
      </trkpt>
      <trkpt lat="43.189700" lon="-2.251210">
        <ele>395.337</ele>
        <time>2021-03-21T06:37:45Z</time>
      </trkpt>
      <trkpt lat="43.189716" lon="-2.251198">
        <ele>395.850</ele>
        <time>2021-03-21T06:37:47Z</time>
      </trkpt>
      <trkpt lat="43.189732" lon="-2.251186">
        <ele>396.213</ele>
        <time>2021-03-21T06:37:49Z</time>
      </trkpt>
      <trkpt lat="43.189754" lon="-2.251174">
        <ele>396.684</ele>
        <time>2021-03-21T06:37:52Z</time>
      </trkpt>
      <trkpt lat="43.189770" lon="-2.251160">
        <ele>397.141</ele>
        <time>2021-03-21T06:37:54Z</time>
      </trkpt>
      <trkpt lat="43.189786" lon="-2.251143">
        <ele>397.769</ele>
        <time>2021-03-21T06:37:56Z</time>
      </trkpt>
      <trkpt lat="43.189802" lon="-2.251124">
        <ele>398.259</ele>
        <time>2021-03-21T06:37:58Z</time>
      </trkpt>
      <trkpt lat="43.189820" lon="-2.251117">
        <ele>398.639</ele>
        <time>2021-03-21T06:38:00Z</time>
      </trkpt>
      <trkpt lat="43.189842" lon="-2.251107">
        <ele>399.016</ele>
        <time>2021-03-21T06:38:02Z</time>
      </trkpt>
      <trkpt lat="43.189861" lon="-2.251097">
        <ele>399.476</ele>
        <time>2021-03-21T06:38:04Z</time>
      </trkpt>
      <trkpt lat="43.189883" lon="-2.251085">
        <ele>399.913</ele>
        <time>2021-03-21T06:38:06Z</time>
      </trkpt>
      <trkpt lat="43.189903" lon="-2.251079">
        <ele>400.208</ele>
        <time>2021-03-21T06:38:08Z</time>
      </trkpt>
      <trkpt lat="43.189924" lon="-2.251066">
        <ele>400.627</ele>
        <time>2021-03-21T06:38:10Z</time>
      </trkpt>
      <trkpt lat="43.189947" lon="-2.251055">
        <ele>401.130</ele>
        <time>2021-03-21T06:38:12Z</time>
      </trkpt>
      <trkpt lat="43.189966" lon="-2.251047">
        <ele>401.483</ele>
        <time>2021-03-21T06:38:14Z</time>
      </trkpt>
      <trkpt lat="43.189988" lon="-2.251034">
        <ele>401.964</ele>
        <time>2021-03-21T06:38:16Z</time>
      </trkpt>
      <trkpt lat="43.190009" lon="-2.251023">
        <ele>402.221</ele>
        <time>2021-03-21T06:38:18Z</time>
      </trkpt>
      <trkpt lat="43.190030" lon="-2.251013">
        <ele>402.469</ele>
        <time>2021-03-21T06:38:20Z</time>
      </trkpt>
      <trkpt lat="43.190055" lon="-2.251011">
        <ele>402.559</ele>
        <time>2021-03-21T06:38:23Z</time>
      </trkpt>
      <trkpt lat="43.190077" lon="-2.251009">
        <ele>402.569</ele>
        <time>2021-03-21T06:38:30Z</time>
      </trkpt>
      <trkpt lat="43.190083" lon="-2.250982">
        <ele>403.146</ele>
        <time>2021-03-21T06:38:33Z</time>
      </trkpt>
      <trkpt lat="43.190098" lon="-2.250970">
        <ele>403.488</ele>
        <time>2021-03-21T06:38:38Z</time>
      </trkpt>
      <trkpt lat="43.190114" lon="-2.250962">
        <ele>403.516</ele>
        <time>2021-03-21T06:38:41Z</time>
      </trkpt>
      <trkpt lat="43.190138" lon="-2.250951">
        <ele>403.708</ele>
        <time>2021-03-21T06:38:44Z</time>
      </trkpt>
      <trkpt lat="43.190155" lon="-2.250931">
        <ele>404.250</ele>
        <time>2021-03-21T06:38:46Z</time>
      </trkpt>
      <trkpt lat="43.190173" lon="-2.250907">
        <ele>404.753</ele>
        <time>2021-03-21T06:38:48Z</time>
      </trkpt>
      <trkpt lat="43.190188" lon="-2.250881">
        <ele>405.286</ele>
        <time>2021-03-21T06:38:50Z</time>
      </trkpt>
      <trkpt lat="43.190203" lon="-2.250853">
        <ele>405.897</ele>
        <time>2021-03-21T06:38:52Z</time>
      </trkpt>
      <trkpt lat="43.190209" lon="-2.250820">
        <ele>406.254</ele>
        <time>2021-03-21T06:38:54Z</time>
      </trkpt>
      <trkpt lat="43.190209" lon="-2.250789">
        <ele>406.212</ele>
        <time>2021-03-21T06:38:56Z</time>
      </trkpt>
      <trkpt lat="43.190199" lon="-2.250764">
        <ele>406.292</ele>
        <time>2021-03-21T06:38:59Z</time>
      </trkpt>
      <trkpt lat="43.190183" lon="-2.250758">
        <ele>406.592</ele>
        <time>2021-03-21T06:39:01Z</time>
      </trkpt>
      <trkpt lat="43.190164" lon="-2.250755">
        <ele>406.721</ele>
        <time>2021-03-21T06:39:03Z</time>
      </trkpt>
      <trkpt lat="43.190144" lon="-2.250747">
        <ele>407.041</ele>
        <time>2021-03-21T06:39:05Z</time>
      </trkpt>
      <trkpt lat="43.190116" lon="-2.250733">
        <ele>407.605</ele>
        <time>2021-03-21T06:39:07Z</time>
      </trkpt>
      <trkpt lat="43.190096" lon="-2.250717">
        <ele>408.108</ele>
        <time>2021-03-21T06:39:09Z</time>
      </trkpt>
      <trkpt lat="43.190075" lon="-2.250702">
        <ele>408.818</ele>
        <time>2021-03-21T06:39:12Z</time>
      </trkpt>
      <trkpt lat="43.190054" lon="-2.250686">
        <ele>409.591</ele>
        <time>2021-03-21T06:39:13Z</time>
      </trkpt>
      <trkpt lat="43.190032" lon="-2.250668">
        <ele>410.414</ele>
        <time>2021-03-21T06:39:15Z</time>
      </trkpt>
      <trkpt lat="43.190015" lon="-2.250645">
        <ele>411.385</ele>
        <time>2021-03-21T06:39:17Z</time>
      </trkpt>
      <trkpt lat="43.190001" lon="-2.250624">
        <ele>412.282</ele>
        <time>2021-03-21T06:39:19Z</time>
      </trkpt>
      <trkpt lat="43.189992" lon="-2.250603">
        <ele>412.860</ele>
        <time>2021-03-21T06:39:21Z</time>
      </trkpt>
      <trkpt lat="43.189980" lon="-2.250579">
        <ele>413.420</ele>
        <time>2021-03-21T06:39:23Z</time>
      </trkpt>
      <trkpt lat="43.189967" lon="-2.250552">
        <ele>414.170</ele>
        <time>2021-03-21T06:39:25Z</time>
      </trkpt>
      <trkpt lat="43.189957" lon="-2.250528">
        <ele>414.753</ele>
        <time>2021-03-21T06:39:27Z</time>
      </trkpt>
      <trkpt lat="43.189949" lon="-2.250504">
        <ele>415.304</ele>
        <time>2021-03-21T06:39:29Z</time>
      </trkpt>
      <trkpt lat="43.189935" lon="-2.250477">
        <ele>416.014</ele>
        <time>2021-03-21T06:39:32Z</time>
      </trkpt>
      <trkpt lat="43.189921" lon="-2.250451">
        <ele>416.608</ele>
        <time>2021-03-21T06:39:36Z</time>
      </trkpt>
      <trkpt lat="43.189908" lon="-2.250419">
        <ele>417.491</ele>
        <time>2021-03-21T06:39:39Z</time>
      </trkpt>
      <trkpt lat="43.189893" lon="-2.250389">
        <ele>418.284</ele>
        <time>2021-03-21T06:39:42Z</time>
      </trkpt>
      <trkpt lat="43.189885" lon="-2.250366">
        <ele>418.857</ele>
        <time>2021-03-21T06:39:44Z</time>
      </trkpt>
      <trkpt lat="43.189870" lon="-2.250351">
        <ele>419.288</ele>
        <time>2021-03-21T06:39:46Z</time>
      </trkpt>
      <trkpt lat="43.189859" lon="-2.250331">
        <ele>419.775</ele>
        <time>2021-03-21T06:39:48Z</time>
      </trkpt>
      <trkpt lat="43.189846" lon="-2.250312">
        <ele>420.113</ele>
        <time>2021-03-21T06:39:50Z</time>
      </trkpt>
      <trkpt lat="43.189838" lon="-2.250282">
        <ele>420.963</ele>
        <time>2021-03-21T06:39:52Z</time>
      </trkpt>
      <trkpt lat="43.189831" lon="-2.250250">
        <ele>421.813</ele>
        <time>2021-03-21T06:39:55Z</time>
      </trkpt>
      <trkpt lat="43.189825" lon="-2.250227">
        <ele>422.492</ele>
        <time>2021-03-21T06:39:57Z</time>
      </trkpt>
      <trkpt lat="43.189819" lon="-2.250195">
        <ele>423.373</ele>
        <time>2021-03-21T06:40:00Z</time>
      </trkpt>
      <trkpt lat="43.189834" lon="-2.250175">
        <ele>423.820</ele>
        <time>2021-03-21T06:40:04Z</time>
      </trkpt>
      <trkpt lat="43.189852" lon="-2.250153">
        <ele>424.408</ele>
        <time>2021-03-21T06:40:06Z</time>
      </trkpt>
      <trkpt lat="43.189863" lon="-2.250120">
        <ele>425.385</ele>
        <time>2021-03-21T06:40:09Z</time>
      </trkpt>
      <trkpt lat="43.189878" lon="-2.250095">
        <ele>425.918</ele>
        <time>2021-03-21T06:40:12Z</time>
      </trkpt>
      <trkpt lat="43.189891" lon="-2.250078">
        <ele>426.391</ele>
        <time>2021-03-21T06:40:14Z</time>
      </trkpt>
      <trkpt lat="43.189905" lon="-2.250054">
        <ele>426.922</ele>
        <time>2021-03-21T06:40:16Z</time>
      </trkpt>
      <trkpt lat="43.189916" lon="-2.250031">
        <ele>427.559</ele>
        <time>2021-03-21T06:40:18Z</time>
      </trkpt>
      <trkpt lat="43.189922" lon="-2.250008">
        <ele>428.167</ele>
        <time>2021-03-21T06:40:21Z</time>
      </trkpt>
      <trkpt lat="43.189930" lon="-2.249981">
        <ele>428.767</ele>
        <time>2021-03-21T06:40:23Z</time>
      </trkpt>
      <trkpt lat="43.189941" lon="-2.249956">
        <ele>429.277</ele>
        <time>2021-03-21T06:40:25Z</time>
      </trkpt>
      <trkpt lat="43.189954" lon="-2.249936">
        <ele>429.611</ele>
        <time>2021-03-21T06:40:27Z</time>
      </trkpt>
      <trkpt lat="43.189966" lon="-2.249910">
        <ele>430.121</ele>
        <time>2021-03-21T06:40:29Z</time>
      </trkpt>
      <trkpt lat="43.189980" lon="-2.249884">
        <ele>430.603</ele>
        <time>2021-03-21T06:40:31Z</time>
      </trkpt>
      <trkpt lat="43.189993" lon="-2.249856">
        <ele>431.108</ele>
        <time>2021-03-21T06:40:33Z</time>
      </trkpt>
      <trkpt lat="43.190003" lon="-2.249829">
        <ele>431.667</ele>
        <time>2021-03-21T06:40:35Z</time>
      </trkpt>
      <trkpt lat="43.190009" lon="-2.249801">
        <ele>432.040</ele>
        <time>2021-03-21T06:40:37Z</time>
      </trkpt>
      <trkpt lat="43.190017" lon="-2.249775">
        <ele>432.493</ele>
        <time>2021-03-21T06:40:39Z</time>
      </trkpt>
      <trkpt lat="43.190023" lon="-2.249744">
        <ele>432.974</ele>
        <time>2021-03-21T06:40:41Z</time>
      </trkpt>
      <trkpt lat="43.190031" lon="-2.249718">
        <ele>433.241</ele>
        <time>2021-03-21T06:40:43Z</time>
      </trkpt>
      <trkpt lat="43.190039" lon="-2.249684">
        <ele>433.749</ele>
        <time>2021-03-21T06:40:45Z</time>
      </trkpt>
      <trkpt lat="43.190042" lon="-2.249660">
        <ele>434.269</ele>
        <time>2021-03-21T06:40:47Z</time>
      </trkpt>
      <trkpt lat="43.190047" lon="-2.249628">
        <ele>434.869</ele>
        <time>2021-03-21T06:40:49Z</time>
      </trkpt>
      <trkpt lat="43.190049" lon="-2.249591">
        <ele>435.632</ele>
        <time>2021-03-21T06:40:52Z</time>
      </trkpt>
      <trkpt lat="43.190054" lon="-2.249565">
        <ele>436.192</ele>
        <time>2021-03-21T06:40:54Z</time>
      </trkpt>
      <trkpt lat="43.190063" lon="-2.249539">
        <ele>436.411</ele>
        <time>2021-03-21T06:40:56Z</time>
      </trkpt>
      <trkpt lat="43.190070" lon="-2.249515">
        <ele>436.808</ele>
        <time>2021-03-21T06:40:58Z</time>
      </trkpt>
      <trkpt lat="43.190077" lon="-2.249489">
        <ele>437.369</ele>
        <time>2021-03-21T06:41:00Z</time>
      </trkpt>
      <trkpt lat="43.190085" lon="-2.249462">
        <ele>437.792</ele>
        <time>2021-03-21T06:41:02Z</time>
      </trkpt>
      <trkpt lat="43.190097" lon="-2.249429">
        <ele>438.375</ele>
        <time>2021-03-21T06:41:04Z</time>
      </trkpt>
      <trkpt lat="43.190106" lon="-2.249397">
        <ele>439.016</ele>
        <time>2021-03-21T06:41:06Z</time>
      </trkpt>
      <trkpt lat="43.190114" lon="-2.249367">
        <ele>439.763</ele>
        <time>2021-03-21T06:41:08Z</time>
      </trkpt>
      <trkpt lat="43.190122" lon="-2.249334">
        <ele>440.521</ele>
        <time>2021-03-21T06:41:10Z</time>
      </trkpt>
      <trkpt lat="43.190131" lon="-2.249303">
        <ele>441.211</ele>
        <time>2021-03-21T06:41:12Z</time>
      </trkpt>
      <trkpt lat="43.190142" lon="-2.249278">
        <ele>441.741</ele>
        <time>2021-03-21T06:41:14Z</time>
      </trkpt>
      <trkpt lat="43.190151" lon="-2.249248">
        <ele>442.545</ele>
        <time>2021-03-21T06:41:16Z</time>
      </trkpt>
      <trkpt lat="43.190156" lon="-2.249216">
        <ele>443.347</ele>
        <time>2021-03-21T06:41:19Z</time>
      </trkpt>
      <trkpt lat="43.190161" lon="-2.249189">
        <ele>444.011</ele>
        <time>2021-03-21T06:41:20Z</time>
      </trkpt>
      <trkpt lat="43.190160" lon="-2.249159">
        <ele>444.908</ele>
        <time>2021-03-21T06:41:22Z</time>
      </trkpt>
      <trkpt lat="43.190166" lon="-2.249132">
        <ele>445.770</ele>
        <time>2021-03-21T06:41:25Z</time>
      </trkpt>
      <trkpt lat="43.190180" lon="-2.249109">
        <ele>446.353</ele>
        <time>2021-03-21T06:41:28Z</time>
      </trkpt>
      <trkpt lat="43.190192" lon="-2.249092">
        <ele>446.726</ele>
        <time>2021-03-21T06:41:30Z</time>
      </trkpt>
      <trkpt lat="43.190203" lon="-2.249063">
        <ele>447.577</ele>
        <time>2021-03-21T06:41:33Z</time>
      </trkpt>
      <trkpt lat="43.190221" lon="-2.249040">
        <ele>448.114</ele>
        <time>2021-03-21T06:41:37Z</time>
      </trkpt>
      <trkpt lat="43.190232" lon="-2.249019">
        <ele>448.782</ele>
        <time>2021-03-21T06:41:38Z</time>
      </trkpt>
      <trkpt lat="43.190244" lon="-2.248996">
        <ele>449.432</ele>
        <time>2021-03-21T06:41:41Z</time>
      </trkpt>
      <trkpt lat="43.190265" lon="-2.248979">
        <ele>449.882</ele>
        <time>2021-03-21T06:41:44Z</time>
      </trkpt>
      <trkpt lat="43.190281" lon="-2.248955">
        <ele>450.768</ele>
        <time>2021-03-21T06:41:47Z</time>
      </trkpt>
      <trkpt lat="43.190295" lon="-2.248928">
        <ele>451.842</ele>
        <time>2021-03-21T06:41:50Z</time>
      </trkpt>
      <trkpt lat="43.190309" lon="-2.248901">
        <ele>452.926</ele>
        <time>2021-03-21T06:41:53Z</time>
      </trkpt>
      <trkpt lat="43.190322" lon="-2.248878">
        <ele>453.808</ele>
        <time>2021-03-21T06:41:56Z</time>
      </trkpt>
      <trkpt lat="43.190331" lon="-2.248851">
        <ele>454.862</ele>
        <time>2021-03-21T06:41:59Z</time>
      </trkpt>
      <trkpt lat="43.190331" lon="-2.248820">
        <ele>455.855</ele>
        <time>2021-03-21T06:42:03Z</time>
      </trkpt>
      <trkpt lat="43.190336" lon="-2.248798">
        <ele>456.618</ele>
        <time>2021-03-21T06:42:06Z</time>
      </trkpt>
      <trkpt lat="43.190338" lon="-2.248774">
        <ele>457.469</ele>
        <time>2021-03-21T06:42:09Z</time>
      </trkpt>
      <trkpt lat="43.190343" lon="-2.248747">
        <ele>458.316</ele>
        <time>2021-03-21T06:42:12Z</time>
      </trkpt>
      <trkpt lat="43.190347" lon="-2.248720">
        <ele>459.284</ele>
        <time>2021-03-21T06:42:15Z</time>
      </trkpt>
      <trkpt lat="43.190355" lon="-2.248695">
        <ele>460.144</ele>
        <time>2021-03-21T06:42:18Z</time>
      </trkpt>
      <trkpt lat="43.190357" lon="-2.248664">
        <ele>461.174</ele>
        <time>2021-03-21T06:42:21Z</time>
      </trkpt>
      <trkpt lat="43.190362" lon="-2.248636">
        <ele>462.125</ele>
        <time>2021-03-21T06:42:24Z</time>
      </trkpt>
      <trkpt lat="43.190369" lon="-2.248618">
        <ele>462.826</ele>
        <time>2021-03-21T06:42:26Z</time>
      </trkpt>
      <trkpt lat="43.190377" lon="-2.248589">
        <ele>463.808</ele>
        <time>2021-03-21T06:42:29Z</time>
      </trkpt>
      <trkpt lat="43.190384" lon="-2.248559">
        <ele>465.008</ele>
        <time>2021-03-21T06:42:32Z</time>
      </trkpt>
      <trkpt lat="43.190396" lon="-2.248533">
        <ele>466.058</ele>
        <time>2021-03-21T06:42:35Z</time>
      </trkpt>
      <trkpt lat="43.190403" lon="-2.248511">
        <ele>466.841</ele>
        <time>2021-03-21T06:42:38Z</time>
      </trkpt>
      <trkpt lat="43.190415" lon="-2.248488">
        <ele>467.784</ele>
        <time>2021-03-21T06:42:41Z</time>
      </trkpt>
      <trkpt lat="43.190427" lon="-2.248461">
        <ele>468.775</ele>
        <time>2021-03-21T06:42:44Z</time>
      </trkpt>
      <trkpt lat="43.190436" lon="-2.248435">
        <ele>469.782</ele>
        <time>2021-03-21T06:42:47Z</time>
      </trkpt>
      <trkpt lat="43.190447" lon="-2.248412">
        <ele>470.680</ele>
        <time>2021-03-21T06:42:49Z</time>
      </trkpt>
      <trkpt lat="43.190454" lon="-2.248388">
        <ele>471.440</ele>
        <time>2021-03-21T06:42:52Z</time>
      </trkpt>
      <trkpt lat="43.190463" lon="-2.248359">
        <ele>472.530</ele>
        <time>2021-03-21T06:42:55Z</time>
      </trkpt>
      <trkpt lat="43.190471" lon="-2.248336">
        <ele>473.352</ele>
        <time>2021-03-21T06:42:58Z</time>
      </trkpt>
      <trkpt lat="43.190474" lon="-2.248309">
        <ele>474.253</ele>
        <time>2021-03-21T06:43:01Z</time>
      </trkpt>
      <trkpt lat="43.190478" lon="-2.248287">
        <ele>474.908</ele>
        <time>2021-03-21T06:43:04Z</time>
      </trkpt>
      <trkpt lat="43.190489" lon="-2.248261">
        <ele>475.808</ele>
        <time>2021-03-21T06:43:07Z</time>
      </trkpt>
      <trkpt lat="43.190504" lon="-2.248242">
        <ele>476.561</ele>
        <time>2021-03-21T06:43:09Z</time>
      </trkpt>
      <trkpt lat="43.190522" lon="-2.248230">
        <ele>477.184</ele>
        <time>2021-03-21T06:43:11Z</time>
      </trkpt>
      <trkpt lat="43.190542" lon="-2.248209">
        <ele>477.947</ele>
        <time>2021-03-21T06:43:14Z</time>
      </trkpt>
      <trkpt lat="43.190562" lon="-2.248192">
        <ele>478.788</ele>
        <time>2021-03-21T06:43:17Z</time>
      </trkpt>
      <trkpt lat="43.190585" lon="-2.248176">
        <ele>479.565</ele>
        <time>2021-03-21T06:43:20Z</time>
      </trkpt>
      <trkpt lat="43.190607" lon="-2.248164">
        <ele>480.233</ele>
        <time>2021-03-21T06:43:23Z</time>
      </trkpt>
      <trkpt lat="43.190624" lon="-2.248156">
        <ele>480.723</ele>
        <time>2021-03-21T06:43:25Z</time>
      </trkpt>
      <trkpt lat="43.190639" lon="-2.248140">
        <ele>481.513</ele>
        <time>2021-03-21T06:43:27Z</time>
      </trkpt>
      <trkpt lat="43.190660" lon="-2.248116">
        <ele>482.524</ele>
        <time>2021-03-21T06:43:30Z</time>
      </trkpt>
      <trkpt lat="43.190678" lon="-2.248106">
        <ele>483.104</ele>
        <time>2021-03-21T06:43:33Z</time>
      </trkpt>
      <trkpt lat="43.190699" lon="-2.248101">
        <ele>483.614</ele>
        <time>2021-03-21T06:43:36Z</time>
      </trkpt>
      <trkpt lat="43.190718" lon="-2.248100">
        <ele>483.908</ele>
        <time>2021-03-21T06:43:38Z</time>
      </trkpt>
      <trkpt lat="43.190742" lon="-2.248096">
        <ele>484.478</ele>
        <time>2021-03-21T06:43:41Z</time>
      </trkpt>
      <trkpt lat="43.190752" lon="-2.248073">
        <ele>485.331</ele>
        <time>2021-03-21T06:43:46Z</time>
      </trkpt>
      <trkpt lat="43.190759" lon="-2.248045">
        <ele>486.374</ele>
        <time>2021-03-21T06:43:48Z</time>
      </trkpt>
      <trkpt lat="43.190773" lon="-2.248029">
        <ele>487.035</ele>
        <time>2021-03-21T06:43:51Z</time>
      </trkpt>
      <trkpt lat="43.190793" lon="-2.248015">
        <ele>487.792</ele>
        <time>2021-03-21T06:43:53Z</time>
      </trkpt>
      <trkpt lat="43.190807" lon="-2.248000">
        <ele>488.430</ele>
        <time>2021-03-21T06:43:55Z</time>
      </trkpt>
      <trkpt lat="43.190824" lon="-2.247978">
        <ele>489.470</ele>
        <time>2021-03-21T06:43:58Z</time>
      </trkpt>
      <trkpt lat="43.190839" lon="-2.247956">
        <ele>490.370</ele>
        <time>2021-03-21T06:44:01Z</time>
      </trkpt>
      <trkpt lat="43.190845" lon="-2.247936">
        <ele>491.138</ele>
        <time>2021-03-21T06:44:03Z</time>
      </trkpt>
      <trkpt lat="43.190849" lon="-2.247904">
        <ele>492.270</ele>
        <time>2021-03-21T06:44:06Z</time>
      </trkpt>
      <trkpt lat="43.190851" lon="-2.247876">
        <ele>493.117</ele>
        <time>2021-03-21T06:44:09Z</time>
      </trkpt>
      <trkpt lat="43.190847" lon="-2.247846">
        <ele>494.008</ele>
        <time>2021-03-21T06:44:12Z</time>
      </trkpt>
      <trkpt lat="43.190840" lon="-2.247816">
        <ele>494.989</ele>
        <time>2021-03-21T06:44:15Z</time>
      </trkpt>
      <trkpt lat="43.190841" lon="-2.247790">
        <ele>495.812</ele>
        <time>2021-03-21T06:44:18Z</time>
      </trkpt>
      <trkpt lat="43.190842" lon="-2.247769">
        <ele>496.585</ele>
        <time>2021-03-21T06:44:20Z</time>
      </trkpt>
      <trkpt lat="43.190843" lon="-2.247740">
        <ele>497.686</ele>
        <time>2021-03-21T06:44:23Z</time>
      </trkpt>
      <trkpt lat="43.190848" lon="-2.247711">
        <ele>498.783</ele>
        <time>2021-03-21T06:44:26Z</time>
      </trkpt>
      <trkpt lat="43.190844" lon="-2.247678">
        <ele>499.821</ele>
        <time>2021-03-21T06:44:29Z</time>
      </trkpt>
      <trkpt lat="43.190842" lon="-2.247648">
        <ele>500.951</ele>
        <time>2021-03-21T06:44:32Z</time>
      </trkpt>
      <trkpt lat="43.190862" lon="-2.247626">
        <ele>502.181</ele>
        <time>2021-03-21T06:44:35Z</time>
      </trkpt>
      <trkpt lat="43.190878" lon="-2.247615">
        <ele>502.954</ele>
        <time>2021-03-21T06:44:37Z</time>
      </trkpt>
      <trkpt lat="43.190898" lon="-2.247610">
        <ele>503.656</ele>
        <time>2021-03-21T06:44:40Z</time>
      </trkpt>
      <trkpt lat="43.190916" lon="-2.247611">
        <ele>504.011</ele>
        <time>2021-03-21T06:44:42Z</time>
      </trkpt>
      <trkpt lat="43.190938" lon="-2.247613">
        <ele>504.408</ele>
        <time>2021-03-21T06:44:44Z</time>
      </trkpt>
      <trkpt lat="43.190962" lon="-2.247604">
        <ele>505.311</ele>
        <time>2021-03-21T06:44:48Z</time>
      </trkpt>
      <trkpt lat="43.190987" lon="-2.247600">
        <ele>506.114</ele>
        <time>2021-03-21T06:44:50Z</time>
      </trkpt>
      <trkpt lat="43.191011" lon="-2.247597">
        <ele>506.827</ele>
        <time>2021-03-21T06:44:53Z</time>
      </trkpt>
      <trkpt lat="43.191033" lon="-2.247593">
        <ele>507.458</ele>
        <time>2021-03-21T06:44:56Z</time>
      </trkpt>
      <trkpt lat="43.191055" lon="-2.247596">
        <ele>507.955</ele>
        <time>2021-03-21T06:44:59Z</time>
      </trkpt>
      <trkpt lat="43.191080" lon="-2.247596">
        <ele>508.563</ele>
        <time>2021-03-21T06:45:02Z</time>
      </trkpt>
      <trkpt lat="43.191103" lon="-2.247599">
        <ele>508.983</ele>
        <time>2021-03-21T06:45:04Z</time>
      </trkpt>
      <trkpt lat="43.191121" lon="-2.247597">
        <ele>509.343</ele>
        <time>2021-03-21T06:45:06Z</time>
      </trkpt>
      <trkpt lat="43.191146" lon="-2.247589">
        <ele>510.175</ele>
        <time>2021-03-21T06:45:09Z</time>
      </trkpt>
      <trkpt lat="43.191167" lon="-2.247589">
        <ele>510.528</ele>
        <time>2021-03-21T06:45:11Z</time>
      </trkpt>
      <trkpt lat="43.191186" lon="-2.247591">
        <ele>510.820</ele>
        <time>2021-03-21T06:45:14Z</time>
      </trkpt>
      <trkpt lat="43.191206" lon="-2.247597">
        <ele>511.008</ele>
        <time>2021-03-21T06:45:15Z</time>
      </trkpt>
      <trkpt lat="43.191232" lon="-2.247606">
        <ele>511.193</ele>
        <time>2021-03-21T06:45:17Z</time>
      </trkpt>
      <trkpt lat="43.191258" lon="-2.247600">
        <ele>511.976</ele>
        <time>2021-03-21T06:45:19Z</time>
      </trkpt>
      <trkpt lat="43.191276" lon="-2.247596">
        <ele>512.499</ele>
        <time>2021-03-21T06:45:21Z</time>
      </trkpt>
      <trkpt lat="43.191295" lon="-2.247589">
        <ele>513.090</ele>
        <time>2021-03-21T06:45:23Z</time>
      </trkpt>
      <trkpt lat="43.191321" lon="-2.247583">
        <ele>513.757</ele>
        <time>2021-03-21T06:45:26Z</time>
      </trkpt>
      <trkpt lat="43.191342" lon="-2.247576">
        <ele>514.415</ele>
        <time>2021-03-21T06:45:28Z</time>
      </trkpt>
      <trkpt lat="43.191360" lon="-2.247565">
        <ele>515.175</ele>
        <time>2021-03-21T06:45:30Z</time>
      </trkpt>
      <trkpt lat="43.191379" lon="-2.247562">
        <ele>515.675</ele>
        <time>2021-03-21T06:45:32Z</time>
      </trkpt>
      <trkpt lat="43.191395" lon="-2.247562">
        <ele>515.972</ele>
        <time>2021-03-21T06:45:34Z</time>
      </trkpt>
      <trkpt lat="43.191416" lon="-2.247550">
        <ele>516.713</ele>
        <time>2021-03-21T06:45:36Z</time>
      </trkpt>
      <trkpt lat="43.191435" lon="-2.247536">
        <ele>517.514</ele>
        <time>2021-03-21T06:45:38Z</time>
      </trkpt>
      <trkpt lat="43.191449" lon="-2.247522">
        <ele>518.308</ele>
        <time>2021-03-21T06:45:40Z</time>
      </trkpt>
      <trkpt lat="43.191468" lon="-2.247519">
        <ele>518.733</ele>
        <time>2021-03-21T06:45:42Z</time>
      </trkpt>
      <trkpt lat="43.191487" lon="-2.247509">
        <ele>519.496</ele>
        <time>2021-03-21T06:45:44Z</time>
      </trkpt>
      <trkpt lat="43.191504" lon="-2.247496">
        <ele>520.279</ele>
        <time>2021-03-21T06:45:46Z</time>
      </trkpt>
      <trkpt lat="43.191521" lon="-2.247491">
        <ele>520.720</ele>
        <time>2021-03-21T06:45:48Z</time>
      </trkpt>
      <trkpt lat="43.191541" lon="-2.247485">
        <ele>521.247</ele>
        <time>2021-03-21T06:45:50Z</time>
      </trkpt>
      <trkpt lat="43.191567" lon="-2.247475">
        <ele>522.095</ele>
        <time>2021-03-21T06:45:53Z</time>
      </trkpt>
      <trkpt lat="43.191594" lon="-2.247466">
        <ele>522.835</ele>
        <time>2021-03-21T06:45:56Z</time>
      </trkpt>
      <trkpt lat="43.191614" lon="-2.247464">
        <ele>523.265</ele>
        <time>2021-03-21T06:45:58Z</time>
      </trkpt>
      <trkpt lat="43.191631" lon="-2.247456">
        <ele>523.863</ele>
        <time>2021-03-21T06:46:00Z</time>
      </trkpt>
      <trkpt lat="43.191655" lon="-2.247448">
        <ele>524.544</ele>
        <time>2021-03-21T06:46:03Z</time>
      </trkpt>
      <trkpt lat="43.191677" lon="-2.247437">
        <ele>525.118</ele>
        <time>2021-03-21T06:46:05Z</time>
      </trkpt>
      <trkpt lat="43.191697" lon="-2.247432">
        <ele>525.508</ele>
        <time>2021-03-21T06:46:07Z</time>
      </trkpt>
      <trkpt lat="43.191721" lon="-2.247437">
        <ele>525.592</ele>
        <time>2021-03-21T06:46:09Z</time>
      </trkpt>
      <trkpt lat="43.191746" lon="-2.247432">
        <ele>525.955</ele>
        <time>2021-03-21T06:46:11Z</time>
      </trkpt>
      <trkpt lat="43.191765" lon="-2.247418">
        <ele>526.578</ele>
        <time>2021-03-21T06:46:13Z</time>
      </trkpt>
      <trkpt lat="43.191778" lon="-2.247395">
        <ele>527.379</ele>
        <time>2021-03-21T06:46:15Z</time>
      </trkpt>
      <trkpt lat="43.191794" lon="-2.247376">
        <ele>528.036</ele>
        <time>2021-03-21T06:46:17Z</time>
      </trkpt>
      <trkpt lat="43.191805" lon="-2.247345">
        <ele>529.074</ele>
        <time>2021-03-21T06:46:20Z</time>
      </trkpt>
      <trkpt lat="43.191802" lon="-2.247319">
        <ele>529.724</ele>
        <time>2021-03-21T06:46:22Z</time>
      </trkpt>
      <trkpt lat="43.191798" lon="-2.247284">
        <ele>530.754</ele>
        <time>2021-03-21T06:46:25Z</time>
      </trkpt>
      <trkpt lat="43.191794" lon="-2.247263">
        <ele>531.314</ele>
        <time>2021-03-21T06:46:27Z</time>
      </trkpt>
      <trkpt lat="43.191799" lon="-2.247231">
        <ele>532.254</ele>
        <time>2021-03-21T06:46:30Z</time>
      </trkpt>
      <trkpt lat="43.191801" lon="-2.247199">
        <ele>533.009</ele>
        <time>2021-03-21T06:46:33Z</time>
      </trkpt>
      <trkpt lat="43.191802" lon="-2.247166">
        <ele>533.708</ele>
        <time>2021-03-21T06:46:36Z</time>
      </trkpt>
      <trkpt lat="43.191796" lon="-2.247143">
        <ele>534.247</ele>
        <time>2021-03-21T06:46:38Z</time>
      </trkpt>
      <trkpt lat="43.191785" lon="-2.247108">
        <ele>535.010</ele>
        <time>2021-03-21T06:46:41Z</time>
      </trkpt>
      <trkpt lat="43.191779" lon="-2.247085">
        <ele>535.563</ele>
        <time>2021-03-21T06:46:43Z</time>
      </trkpt>
      <trkpt lat="43.191771" lon="-2.247063">
        <ele>536.034</ele>
        <time>2021-03-21T06:46:45Z</time>
      </trkpt>
      <trkpt lat="43.191764" lon="-2.247039">
        <ele>536.581</ele>
        <time>2021-03-21T06:46:47Z</time>
      </trkpt>
      <trkpt lat="43.191754" lon="-2.247018">
        <ele>537.049</ele>
        <time>2021-03-21T06:46:49Z</time>
      </trkpt>
      <trkpt lat="43.191750" lon="-2.246990">
        <ele>537.629</ele>
        <time>2021-03-21T06:46:52Z</time>
      </trkpt>
      <trkpt lat="43.191751" lon="-2.246962">
        <ele>538.339</ele>
        <time>2021-03-21T06:46:55Z</time>
      </trkpt>
      <trkpt lat="43.191757" lon="-2.246938">
        <ele>538.865</ele>
        <time>2021-03-21T06:46:57Z</time>
      </trkpt>
      <trkpt lat="43.191757" lon="-2.246908">
        <ele>539.668</ele>
        <time>2021-03-21T06:47:00Z</time>
      </trkpt>
      <trkpt lat="43.191756" lon="-2.246870">
        <ele>540.614</ele>
        <time>2021-03-21T06:47:03Z</time>
      </trkpt>
      <trkpt lat="43.191749" lon="-2.246845">
        <ele>541.208</ele>
        <time>2021-03-21T06:47:05Z</time>
      </trkpt>
      <trkpt lat="43.191738" lon="-2.246812">
        <ele>542.112</ele>
        <time>2021-03-21T06:47:08Z</time>
      </trkpt>
      <trkpt lat="43.191731" lon="-2.246790">
        <ele>542.795</ele>
        <time>2021-03-21T06:47:10Z</time>
      </trkpt>
      <trkpt lat="43.191718" lon="-2.246761">
        <ele>543.458</ele>
        <time>2021-03-21T06:47:13Z</time>
      </trkpt>
      <trkpt lat="43.191710" lon="-2.246728">
        <ele>544.369</ele>
        <time>2021-03-21T06:47:16Z</time>
      </trkpt>
      <trkpt lat="43.191698" lon="-2.246703">
        <ele>545.066</ele>
        <time>2021-03-21T06:47:18Z</time>
      </trkpt>
      <trkpt lat="43.191690" lon="-2.246681">
        <ele>545.644</ele>
        <time>2021-03-21T06:47:20Z</time>
      </trkpt>
      <trkpt lat="43.191681" lon="-2.246658">
        <ele>546.274</ele>
        <time>2021-03-21T06:47:22Z</time>
      </trkpt>
      <trkpt lat="43.191665" lon="-2.246642">
        <ele>546.794</ele>
        <time>2021-03-21T06:47:24Z</time>
      </trkpt>
      <trkpt lat="43.191650" lon="-2.246626">
        <ele>547.162</ele>
        <time>2021-03-21T06:47:27Z</time>
      </trkpt>
      <trkpt lat="43.191633" lon="-2.246597">
        <ele>547.983</ele>
        <time>2021-03-21T06:47:29Z</time>
      </trkpt>
      <trkpt lat="43.191622" lon="-2.246574">
        <ele>548.511</ele>
        <time>2021-03-21T06:47:31Z</time>
      </trkpt>
      <trkpt lat="43.191619" lon="-2.246549">
        <ele>549.208</ele>
        <time>2021-03-21T06:47:33Z</time>
      </trkpt>
      <trkpt lat="43.191617" lon="-2.246524">
        <ele>549.912</ele>
        <time>2021-03-21T06:47:35Z</time>
      </trkpt>
      <trkpt lat="43.191606" lon="-2.246494">
        <ele>550.815</ele>
        <time>2021-03-21T06:47:38Z</time>
      </trkpt>
      <trkpt lat="43.191592" lon="-2.246469">
        <ele>551.428</ele>
        <time>2021-03-21T06:47:41Z</time>
      </trkpt>
      <trkpt lat="43.191586" lon="-2.246438">
        <ele>552.329</ele>
        <time>2021-03-21T06:47:44Z</time>
      </trkpt>
      <trkpt lat="43.191588" lon="-2.246406">
        <ele>553.216</ele>
        <time>2021-03-21T06:47:47Z</time>
      </trkpt>
      <trkpt lat="43.191591" lon="-2.246372">
        <ele>554.224</ele>
        <time>2021-03-21T06:47:50Z</time>
      </trkpt>
      <trkpt lat="43.191591" lon="-2.246347">
        <ele>554.834</ele>
        <time>2021-03-21T06:47:52Z</time>
      </trkpt>
      <trkpt lat="43.191586" lon="-2.246315">
        <ele>555.634</ele>
        <time>2021-03-21T06:47:55Z</time>
      </trkpt>
      <trkpt lat="43.191578" lon="-2.246289">
        <ele>556.287</ele>
        <time>2021-03-21T06:47:58Z</time>
      </trkpt>
      <trkpt lat="43.191575" lon="-2.246263">
        <ele>556.842</ele>
        <time>2021-03-21T06:48:01Z</time>
      </trkpt>
      <trkpt lat="43.191583" lon="-2.246238">
        <ele>557.526</ele>
        <time>2021-03-21T06:48:03Z</time>
      </trkpt>
      <trkpt lat="43.191596" lon="-2.246212">
        <ele>558.208</ele>
        <time>2021-03-21T06:48:06Z</time>
      </trkpt>
      <trkpt lat="43.191617" lon="-2.246191">
        <ele>558.844</ele>
        <time>2021-03-21T06:48:09Z</time>
      </trkpt>
      <trkpt lat="43.191643" lon="-2.246182">
        <ele>559.137</ele>
        <time>2021-03-21T06:48:11Z</time>
      </trkpt>
      <trkpt lat="43.191665" lon="-2.246170">
        <ele>559.510</ele>
        <time>2021-03-21T06:48:13Z</time>
      </trkpt>
      <trkpt lat="43.191687" lon="-2.246158">
        <ele>559.721</ele>
        <time>2021-03-21T06:48:15Z</time>
      </trkpt>
      <trkpt lat="43.191708" lon="-2.246146">
        <ele>560.048</ele>
        <time>2021-03-21T06:48:17Z</time>
      </trkpt>
      <trkpt lat="43.191730" lon="-2.246134">
        <ele>560.226</ele>
        <time>2021-03-21T06:48:19Z</time>
      </trkpt>
      <trkpt lat="43.191757" lon="-2.246125">
        <ele>560.366</ele>
        <time>2021-03-21T06:48:21Z</time>
      </trkpt>
      <trkpt lat="43.191776" lon="-2.246113">
        <ele>560.666</ele>
        <time>2021-03-21T06:48:23Z</time>
      </trkpt>
      <trkpt lat="43.191792" lon="-2.246094">
        <ele>561.045</ele>
        <time>2021-03-21T06:48:25Z</time>
      </trkpt>
      <trkpt lat="43.191809" lon="-2.246068">
        <ele>561.747</ele>
        <time>2021-03-21T06:48:27Z</time>
      </trkpt>
      <trkpt lat="43.191826" lon="-2.246046">
        <ele>562.311</ele>
        <time>2021-03-21T06:48:29Z</time>
      </trkpt>
      <trkpt lat="43.191844" lon="-2.246037">
        <ele>562.508</ele>
        <time>2021-03-21T06:48:31Z</time>
      </trkpt>
      <trkpt lat="43.191863" lon="-2.246025">
        <ele>562.840</ele>
        <time>2021-03-21T06:48:33Z</time>
      </trkpt>
      <trkpt lat="43.191876" lon="-2.245999">
        <ele>563.553</ele>
        <time>2021-03-21T06:48:35Z</time>
      </trkpt>
      <trkpt lat="43.191885" lon="-2.245971">
        <ele>564.226</ele>
        <time>2021-03-21T06:48:37Z</time>
      </trkpt>
      <trkpt lat="43.191880" lon="-2.245938">
        <ele>565.287</ele>
        <time>2021-03-21T06:48:39Z</time>
      </trkpt>
      <trkpt lat="43.191870" lon="-2.245912">
        <ele>566.044</ele>
        <time>2021-03-21T06:48:41Z</time>
      </trkpt>
      <trkpt lat="43.191872" lon="-2.245877">
        <ele>567.052</ele>
        <time>2021-03-21T06:48:44Z</time>
      </trkpt>
      <trkpt lat="43.191883" lon="-2.245851">
        <ele>567.732</ele>
        <time>2021-03-21T06:48:46Z</time>
      </trkpt>
      <trkpt lat="43.191892" lon="-2.245827">
        <ele>568.392</ele>
        <time>2021-03-21T06:48:48Z</time>
      </trkpt>
      <trkpt lat="43.191910" lon="-2.245808">
        <ele>568.779</ele>
        <time>2021-03-21T06:48:50Z</time>
      </trkpt>
      <trkpt lat="43.191923" lon="-2.245780">
        <ele>569.205</ele>
        <time>2021-03-21T06:48:52Z</time>
      </trkpt>
      <trkpt lat="43.191937" lon="-2.245760">
        <ele>569.625</ele>
        <time>2021-03-21T06:48:54Z</time>
      </trkpt>
      <trkpt lat="43.191953" lon="-2.245737">
        <ele>570.008</ele>
        <time>2021-03-21T06:48:56Z</time>
      </trkpt>
      <trkpt lat="43.191967" lon="-2.245722">
        <ele>570.383</ele>
        <time>2021-03-21T06:48:58Z</time>
      </trkpt>
      <trkpt lat="43.191977" lon="-2.245697">
        <ele>570.896</ele>
        <time>2021-03-21T06:49:00Z</time>
      </trkpt>
      <trkpt lat="43.191979" lon="-2.245668">
        <ele>571.489</ele>
        <time>2021-03-21T06:49:02Z</time>
      </trkpt>
      <trkpt lat="43.191973" lon="-2.245643">
        <ele>572.040</ele>
        <time>2021-03-21T06:49:04Z</time>
      </trkpt>
      <trkpt lat="43.191969" lon="-2.245617">
        <ele>572.627</ele>
        <time>2021-03-21T06:49:06Z</time>
      </trkpt>
      <trkpt lat="43.191965" lon="-2.245589">
        <ele>573.255</ele>
        <time>2021-03-21T06:49:08Z</time>
      </trkpt>
      <trkpt lat="43.191958" lon="-2.245564">
        <ele>573.875</ele>
        <time>2021-03-21T06:49:10Z</time>
      </trkpt>
      <trkpt lat="43.191944" lon="-2.245540">
        <ele>574.585</ele>
        <time>2021-03-21T06:49:12Z</time>
      </trkpt>
      <trkpt lat="43.191938" lon="-2.245518">
        <ele>575.198</ele>
        <time>2021-03-21T06:49:14Z</time>
      </trkpt>
      <trkpt lat="43.191930" lon="-2.245493">
        <ele>575.915</ele>
        <time>2021-03-21T06:49:16Z</time>
      </trkpt>
      <trkpt lat="43.191921" lon="-2.245471">
        <ele>576.626</ele>
        <time>2021-03-21T06:49:18Z</time>
      </trkpt>
      <trkpt lat="43.191911" lon="-2.245440">
        <ele>577.608</ele>
        <time>2021-03-21T06:49:21Z</time>
      </trkpt>
      <trkpt lat="43.191907" lon="-2.245409">
        <ele>578.535</ele>
        <time>2021-03-21T06:49:24Z</time>
      </trkpt>
      <trkpt lat="43.191907" lon="-2.245373">
        <ele>579.578</ele>
        <time>2021-03-21T06:49:27Z</time>
      </trkpt>
      <trkpt lat="43.191925" lon="-2.245353">
        <ele>580.041</ele>
        <time>2021-03-21T06:49:31Z</time>
      </trkpt>
      <trkpt lat="43.191940" lon="-2.245334">
        <ele>580.442</ele>
        <time>2021-03-21T06:49:33Z</time>
      </trkpt>
      <trkpt lat="43.191949" lon="-2.245306">
        <ele>581.269</ele>
        <time>2021-03-21T06:49:35Z</time>
      </trkpt>
      <trkpt lat="43.191955" lon="-2.245277">
        <ele>581.947</ele>
        <time>2021-03-21T06:49:38Z</time>
      </trkpt>
      <trkpt lat="43.191953" lon="-2.245242">
        <ele>582.887</ele>
        <time>2021-03-21T06:49:41Z</time>
      </trkpt>
      <trkpt lat="43.191950" lon="-2.245208">
        <ele>583.747</ele>
        <time>2021-03-21T06:49:44Z</time>
      </trkpt>
      <trkpt lat="43.191944" lon="-2.245183">
        <ele>584.465</ele>
        <time>2021-03-21T06:49:46Z</time>
      </trkpt>
      <trkpt lat="43.191937" lon="-2.245159">
        <ele>585.068</ele>
        <time>2021-03-21T06:49:48Z</time>
      </trkpt>
      <trkpt lat="43.191928" lon="-2.245134">
        <ele>585.714</ele>
        <time>2021-03-21T06:49:50Z</time>
      </trkpt>
      <trkpt lat="43.191916" lon="-2.245102">
        <ele>586.608</ele>
        <time>2021-03-21T06:49:53Z</time>
      </trkpt>
      <trkpt lat="43.191920" lon="-2.245067">
        <ele>587.412</ele>
        <time>2021-03-21T06:49:56Z</time>
      </trkpt>
      <trkpt lat="43.191929" lon="-2.245046">
        <ele>587.945</ele>
        <time>2021-03-21T06:49:58Z</time>
      </trkpt>
      <trkpt lat="43.191942" lon="-2.245014">
        <ele>588.758</ele>
        <time>2021-03-21T06:50:00Z</time>
      </trkpt>
      <trkpt lat="43.191954" lon="-2.244993">
        <ele>589.139</ele>
        <time>2021-03-21T06:50:02Z</time>
      </trkpt>
      <trkpt lat="43.191966" lon="-2.244973">
        <ele>589.576</ele>
        <time>2021-03-21T06:50:05Z</time>
      </trkpt>
      <trkpt lat="43.191975" lon="-2.244946">
        <ele>590.144</ele>
        <time>2021-03-21T06:50:07Z</time>
      </trkpt>
      <trkpt lat="43.191988" lon="-2.244925">
        <ele>590.534</ele>
        <time>2021-03-21T06:50:09Z</time>
      </trkpt>
      <trkpt lat="43.192002" lon="-2.244902">
        <ele>591.064</ele>
        <time>2021-03-21T06:50:11Z</time>
      </trkpt>
      <trkpt lat="43.192011" lon="-2.244869">
        <ele>591.746</ele>
        <time>2021-03-21T06:50:13Z</time>
      </trkpt>
      <trkpt lat="43.192003" lon="-2.244847">
        <ele>592.388</ele>
        <time>2021-03-21T06:50:15Z</time>
      </trkpt>
      <trkpt lat="43.191986" lon="-2.244826">
        <ele>593.016</ele>
        <time>2021-03-21T06:50:18Z</time>
      </trkpt>
      <trkpt lat="43.191973" lon="-2.244807">
        <ele>593.608</ele>
        <time>2021-03-21T06:50:19Z</time>
      </trkpt>
      <trkpt lat="43.191968" lon="-2.244782">
        <ele>594.380</ele>
        <time>2021-03-21T06:50:21Z</time>
      </trkpt>
      <trkpt lat="43.191959" lon="-2.244754">
        <ele>595.043</ele>
        <time>2021-03-21T06:50:23Z</time>
      </trkpt>
      <trkpt lat="43.191961" lon="-2.244729">
        <ele>595.726</ele>
        <time>2021-03-21T06:50:25Z</time>
      </trkpt>
      <trkpt lat="43.191964" lon="-2.244692">
        <ele>596.247</ele>
        <time>2021-03-21T06:50:28Z</time>
      </trkpt>
      <trkpt lat="43.191970" lon="-2.244667">
        <ele>596.684</ele>
        <time>2021-03-21T06:50:30Z</time>
      </trkpt>
      <trkpt lat="43.191970" lon="-2.244640">
        <ele>597.052</ele>
        <time>2021-03-21T06:50:32Z</time>
      </trkpt>
      <trkpt lat="43.191975" lon="-2.244613">
        <ele>597.352</ele>
        <time>2021-03-21T06:50:34Z</time>
      </trkpt>
      <trkpt lat="43.191978" lon="-2.244578">
        <ele>597.852</ele>
        <time>2021-03-21T06:50:36Z</time>
      </trkpt>
      <trkpt lat="43.191981" lon="-2.244544">
        <ele>598.375</ele>
        <time>2021-03-21T06:50:38Z</time>
      </trkpt>
      <trkpt lat="43.191984" lon="-2.244505">
        <ele>598.928</ele>
        <time>2021-03-21T06:50:40Z</time>
      </trkpt>
      <trkpt lat="43.191982" lon="-2.244472">
        <ele>599.420</ele>
        <time>2021-03-21T06:50:42Z</time>
      </trkpt>
      <trkpt lat="43.191989" lon="-2.244439">
        <ele>599.908</ele>
        <time>2021-03-21T06:50:44Z</time>
      </trkpt>
      <trkpt lat="43.191997" lon="-2.244406">
        <ele>600.193</ele>
        <time>2021-03-21T06:50:46Z</time>
      </trkpt>
      <trkpt lat="43.192001" lon="-2.244371">
        <ele>600.416</ele>
        <time>2021-03-21T06:50:48Z</time>
      </trkpt>
      <trkpt lat="43.192002" lon="-2.244342">
        <ele>600.799</ele>
        <time>2021-03-21T06:50:50Z</time>
      </trkpt>
      <trkpt lat="43.192004" lon="-2.244309">
        <ele>601.040</ele>
        <time>2021-03-21T06:50:52Z</time>
      </trkpt>
      <trkpt lat="43.192011" lon="-2.244270">
        <ele>601.377</ele>
        <time>2021-03-21T06:50:54Z</time>
      </trkpt>
      <trkpt lat="43.192018" lon="-2.244233">
        <ele>601.765</ele>
        <time>2021-03-21T06:50:56Z</time>
      </trkpt>
      <trkpt lat="43.192028" lon="-2.244202">
        <ele>602.055</ele>
        <time>2021-03-21T06:50:58Z</time>
      </trkpt>
      <trkpt lat="43.192044" lon="-2.244171">
        <ele>602.345</ele>
        <time>2021-03-21T06:51:00Z</time>
      </trkpt>
      <trkpt lat="43.192061" lon="-2.244143">
        <ele>602.776</ele>
        <time>2021-03-21T06:51:02Z</time>
      </trkpt>
      <trkpt lat="43.192078" lon="-2.244118">
        <ele>603.190</ele>
        <time>2021-03-21T06:51:04Z</time>
      </trkpt>
      <trkpt lat="43.192094" lon="-2.244090">
        <ele>603.519</ele>
        <time>2021-03-21T06:51:06Z</time>
      </trkpt>
      <trkpt lat="43.192110" lon="-2.244062">
        <ele>604.008</ele>
        <time>2021-03-21T06:51:08Z</time>
      </trkpt>
      <trkpt lat="43.192128" lon="-2.244036">
        <ele>604.423</ele>
        <time>2021-03-21T06:51:10Z</time>
      </trkpt>
      <trkpt lat="43.192150" lon="-2.244006">
        <ele>604.946</ele>
        <time>2021-03-21T06:51:12Z</time>
      </trkpt>
      <trkpt lat="43.192168" lon="-2.243982">
        <ele>605.379</ele>
        <time>2021-03-21T06:51:14Z</time>
      </trkpt>
      <trkpt lat="43.192191" lon="-2.243958">
        <ele>605.880</ele>
        <time>2021-03-21T06:51:16Z</time>
      </trkpt>
      <trkpt lat="43.192207" lon="-2.243934">
        <ele>606.297</ele>
        <time>2021-03-21T06:51:18Z</time>
      </trkpt>
      <trkpt lat="43.192219" lon="-2.243915">
        <ele>606.635</ele>
        <time>2021-03-21T06:51:20Z</time>
      </trkpt>
      <trkpt lat="43.192225" lon="-2.243883">
        <ele>607.075</ele>
        <time>2021-03-21T06:51:23Z</time>
      </trkpt>
      <trkpt lat="43.192230" lon="-2.243857">
        <ele>607.275</ele>
        <time>2021-03-21T06:51:25Z</time>
      </trkpt>
      <trkpt lat="43.192236" lon="-2.243822">
        <ele>607.482</ele>
        <time>2021-03-21T06:51:27Z</time>
      </trkpt>
      <trkpt lat="43.192238" lon="-2.243786">
        <ele>607.643</ele>
        <time>2021-03-21T06:51:29Z</time>
      </trkpt>
      <trkpt lat="43.192240" lon="-2.243751">
        <ele>607.917</ele>
        <time>2021-03-21T06:51:31Z</time>
      </trkpt>
      <trkpt lat="43.192243" lon="-2.243723">
        <ele>608.108</ele>
        <time>2021-03-21T06:51:33Z</time>
      </trkpt>
      <trkpt lat="43.192246" lon="-2.243697">
        <ele>608.294</ele>
        <time>2021-03-21T06:51:35Z</time>
      </trkpt>
      <trkpt lat="43.192251" lon="-2.243671">
        <ele>608.457</ele>
        <time>2021-03-21T06:51:37Z</time>
      </trkpt>
      <trkpt lat="43.192256" lon="-2.243645">
        <ele>608.650</ele>
        <time>2021-03-21T06:51:39Z</time>
      </trkpt>
      <trkpt lat="43.192262" lon="-2.243620">
        <ele>608.821</ele>
        <time>2021-03-21T06:51:41Z</time>
      </trkpt>
      <trkpt lat="43.192270" lon="-2.243593">
        <ele>608.638</ele>
        <time>2021-03-21T06:51:43Z</time>
      </trkpt>
      <trkpt lat="43.192287" lon="-2.243574">
        <ele>608.326</ele>
        <time>2021-03-21T06:51:45Z</time>
      </trkpt>
      <trkpt lat="43.192312" lon="-2.243566">
        <ele>608.256</ele>
        <time>2021-03-21T06:51:48Z</time>
      </trkpt>
      <trkpt lat="43.192333" lon="-2.243561">
        <ele>608.176</ele>
        <time>2021-03-21T06:51:51Z</time>
      </trkpt>
      <trkpt lat="43.192349" lon="-2.243544">
        <ele>607.982</ele>
        <time>2021-03-21T06:52:02Z</time>
      </trkpt>
      <trkpt lat="43.192358" lon="-2.243521">
        <ele>607.743</ele>
        <time>2021-03-21T06:52:05Z</time>
      </trkpt>
      <trkpt lat="43.192374" lon="-2.243501">
        <ele>607.517</ele>
        <time>2021-03-21T06:52:10Z</time>
      </trkpt>
      <trkpt lat="43.192391" lon="-2.243464">
        <ele>607.208</ele>
        <time>2021-03-21T06:52:12Z</time>
      </trkpt>
      <trkpt lat="43.192399" lon="-2.243431">
        <ele>607.054</ele>
        <time>2021-03-21T06:52:14Z</time>
      </trkpt>
      <trkpt lat="43.192405" lon="-2.243401">
        <ele>606.827</ele>
        <time>2021-03-21T06:52:16Z</time>
      </trkpt>
      <trkpt lat="43.192416" lon="-2.243376">
        <ele>606.740</ele>
        <time>2021-03-21T06:52:18Z</time>
      </trkpt>
      <trkpt lat="43.192426" lon="-2.243344">
        <ele>606.591</ele>
        <time>2021-03-21T06:52:20Z</time>
      </trkpt>
      <trkpt lat="43.192446" lon="-2.243313">
        <ele>606.388</ele>
        <time>2021-03-21T06:52:22Z</time>
      </trkpt>
      <trkpt lat="43.192469" lon="-2.243287">
        <ele>606.146</ele>
        <time>2021-03-21T06:52:24Z</time>
      </trkpt>
      <trkpt lat="43.192490" lon="-2.243255">
        <ele>605.896</ele>
        <time>2021-03-21T06:52:26Z</time>
      </trkpt>
      <trkpt lat="43.192498" lon="-2.243211">
        <ele>605.266</ele>
        <time>2021-03-21T06:52:28Z</time>
      </trkpt>
      <trkpt lat="43.192490" lon="-2.243177">
        <ele>604.738</ele>
        <time>2021-03-21T06:52:30Z</time>
      </trkpt>
      <trkpt lat="43.192482" lon="-2.243156">
        <ele>604.370</ele>
        <time>2021-03-21T06:52:31Z</time>
      </trkpt>
      <trkpt lat="43.192459" lon="-2.243135">
        <ele>603.717</ele>
        <time>2021-03-21T06:52:33Z</time>
      </trkpt>
      <trkpt lat="43.192441" lon="-2.243110">
        <ele>603.208</ele>
        <time>2021-03-21T06:52:34Z</time>
      </trkpt>
      <trkpt lat="43.192416" lon="-2.243045">
        <ele>602.039</ele>
        <time>2021-03-21T06:52:35Z</time>
      </trkpt>
      <trkpt lat="43.192411" lon="-2.243009">
        <ele>601.822</ele>
        <time>2021-03-21T06:52:36Z</time>
      </trkpt>
      <trkpt lat="43.192410" lon="-2.242970">
        <ele>601.535</ele>
        <time>2021-03-21T06:52:37Z</time>
      </trkpt>
      <trkpt lat="43.192411" lon="-2.242930">
        <ele>601.336</ele>
        <time>2021-03-21T06:52:38Z</time>
      </trkpt>
      <trkpt lat="43.192410" lon="-2.242889">
        <ele>601.083</ele>
        <time>2021-03-21T06:52:39Z</time>
      </trkpt>
      <trkpt lat="43.192416" lon="-2.242850">
        <ele>600.891</ele>
        <time>2021-03-21T06:52:40Z</time>
      </trkpt>
      <trkpt lat="43.192427" lon="-2.242812">
        <ele>600.781</ele>
        <time>2021-03-21T06:52:41Z</time>
      </trkpt>
      <trkpt lat="43.192457" lon="-2.242746">
        <ele>600.961</ele>
        <time>2021-03-21T06:52:43Z</time>
      </trkpt>
      <trkpt lat="43.192471" lon="-2.242716">
        <ele>601.217</ele>
        <time>2021-03-21T06:52:44Z</time>
      </trkpt>
      <trkpt lat="43.192483" lon="-2.242686">
        <ele>601.587</ele>
        <time>2021-03-21T06:52:45Z</time>
      </trkpt>
      <trkpt lat="43.192495" lon="-2.242656">
        <ele>601.815</ele>
        <time>2021-03-21T06:52:46Z</time>
      </trkpt>
      <trkpt lat="43.192507" lon="-2.242626">
        <ele>602.008</ele>
        <time>2021-03-21T06:52:47Z</time>
      </trkpt>
      <trkpt lat="43.192520" lon="-2.242597">
        <ele>602.067</ele>
        <time>2021-03-21T06:52:49Z</time>
      </trkpt>
      <trkpt lat="43.192544" lon="-2.242539">
        <ele>602.120</ele>
        <time>2021-03-21T06:52:50Z</time>
      </trkpt>
      <trkpt lat="43.192552" lon="-2.242507">
        <ele>602.223</ele>
        <time>2021-03-21T06:52:51Z</time>
      </trkpt>
      <trkpt lat="43.192557" lon="-2.242478">
        <ele>602.384</ele>
        <time>2021-03-21T06:52:52Z</time>
      </trkpt>
      <trkpt lat="43.192564" lon="-2.242451">
        <ele>602.461</ele>
        <time>2021-03-21T06:52:53Z</time>
      </trkpt>
      <trkpt lat="43.192569" lon="-2.242423">
        <ele>602.529</ele>
        <time>2021-03-21T06:52:54Z</time>
      </trkpt>
      <trkpt lat="43.192574" lon="-2.242393">
        <ele>602.629</ele>
        <time>2021-03-21T06:52:55Z</time>
      </trkpt>
      <trkpt lat="43.192579" lon="-2.242368">
        <ele>602.799</ele>
        <time>2021-03-21T06:52:56Z</time>
      </trkpt>
      <trkpt lat="43.192583" lon="-2.242324">
        <ele>602.957</ele>
        <time>2021-03-21T06:52:59Z</time>
      </trkpt>
      <trkpt lat="43.192587" lon="-2.242291">
        <ele>603.000</ele>
        <time>2021-03-21T06:53:00Z</time>
      </trkpt>
      <trkpt lat="43.192597" lon="-2.242257">
        <ele>603.020</ele>
        <time>2021-03-21T06:53:02Z</time>
      </trkpt>
      <trkpt lat="43.192605" lon="-2.242229">
        <ele>603.108</ele>
        <time>2021-03-21T06:53:04Z</time>
      </trkpt>
      <trkpt lat="43.192611" lon="-2.242196">
        <ele>603.141</ele>
        <time>2021-03-21T06:53:06Z</time>
      </trkpt>
      <trkpt lat="43.192618" lon="-2.242158">
        <ele>603.134</ele>
        <time>2021-03-21T06:53:08Z</time>
      </trkpt>
      <trkpt lat="43.192625" lon="-2.242121">
        <ele>603.287</ele>
        <time>2021-03-21T06:53:10Z</time>
      </trkpt>
      <trkpt lat="43.192634" lon="-2.242088">
        <ele>603.168</ele>
        <time>2021-03-21T06:53:12Z</time>
      </trkpt>
      <trkpt lat="43.192640" lon="-2.242053">
        <ele>603.155</ele>
        <time>2021-03-21T06:53:14Z</time>
      </trkpt>
      <trkpt lat="43.192643" lon="-2.242014">
        <ele>603.233</ele>
        <time>2021-03-21T06:53:16Z</time>
      </trkpt>
      <trkpt lat="43.192639" lon="-2.241972">
        <ele>603.463</ele>
        <time>2021-03-21T06:53:18Z</time>
      </trkpt>
      <trkpt lat="43.192637" lon="-2.241928">
        <ele>603.513</ele>
        <time>2021-03-21T06:53:20Z</time>
      </trkpt>
      <trkpt lat="43.192637" lon="-2.241884">
        <ele>603.422</ele>
        <time>2021-03-21T06:53:22Z</time>
      </trkpt>
      <trkpt lat="43.192641" lon="-2.241841">
        <ele>603.362</ele>
        <time>2021-03-21T06:53:24Z</time>
      </trkpt>
      <trkpt lat="43.192645" lon="-2.241798">
        <ele>603.108</ele>
        <time>2021-03-21T06:53:26Z</time>
      </trkpt>
      <trkpt lat="43.192643" lon="-2.241756">
        <ele>603.108</ele>
        <time>2021-03-21T06:53:28Z</time>
      </trkpt>
      <trkpt lat="43.192642" lon="-2.241715">
        <ele>603.038</ele>
        <time>2021-03-21T06:53:30Z</time>
      </trkpt>
      <trkpt lat="43.192637" lon="-2.241666">
        <ele>603.061</ele>
        <time>2021-03-21T06:53:32Z</time>
      </trkpt>
      <trkpt lat="43.192636" lon="-2.241637">
        <ele>602.964</ele>
        <time>2021-03-21T06:53:33Z</time>
      </trkpt>
      <trkpt lat="43.192634" lon="-2.241608">
        <ele>602.895</ele>
        <time>2021-03-21T06:53:34Z</time>
      </trkpt>
      <trkpt lat="43.192636" lon="-2.241579">
        <ele>602.632</ele>
        <time>2021-03-21T06:53:35Z</time>
      </trkpt>
      <trkpt lat="43.192644" lon="-2.241548">
        <ele>602.340</ele>
        <time>2021-03-21T06:53:36Z</time>
      </trkpt>
      <trkpt lat="43.192646" lon="-2.241514">
        <ele>602.010</ele>
        <time>2021-03-21T06:53:37Z</time>
      </trkpt>
      <trkpt lat="43.192643" lon="-2.241476">
        <ele>601.950</ele>
        <time>2021-03-21T06:53:38Z</time>
      </trkpt>
      <trkpt lat="43.192641" lon="-2.241437">
        <ele>601.775</ele>
        <time>2021-03-21T06:53:39Z</time>
      </trkpt>
      <trkpt lat="43.192639" lon="-2.241400">
        <ele>601.628</ele>
        <time>2021-03-21T06:53:40Z</time>
      </trkpt>
      <trkpt lat="43.192638" lon="-2.241365">
        <ele>601.320</ele>
        <time>2021-03-21T06:53:41Z</time>
      </trkpt>
      <trkpt lat="43.192637" lon="-2.241327">
        <ele>601.108</ele>
        <time>2021-03-21T06:53:42Z</time>
      </trkpt>
      <trkpt lat="43.192638" lon="-2.241291">
        <ele>600.843</ele>
        <time>2021-03-21T06:53:43Z</time>
      </trkpt>
      <trkpt lat="43.192639" lon="-2.241256">
        <ele>600.546</ele>
        <time>2021-03-21T06:53:44Z</time>
      </trkpt>
      <trkpt lat="43.192641" lon="-2.241219">
        <ele>600.279</ele>
        <time>2021-03-21T06:53:45Z</time>
      </trkpt>
      <trkpt lat="43.192647" lon="-2.241182">
        <ele>599.960</ele>
        <time>2021-03-21T06:53:46Z</time>
      </trkpt>
      <trkpt lat="43.192654" lon="-2.241144">
        <ele>599.577</ele>
        <time>2021-03-21T06:53:47Z</time>
      </trkpt>
      <trkpt lat="43.192665" lon="-2.241109">
        <ele>599.015</ele>
        <time>2021-03-21T06:53:48Z</time>
      </trkpt>
      <trkpt lat="43.192671" lon="-2.241070">
        <ele>598.725</ele>
        <time>2021-03-21T06:53:49Z</time>
      </trkpt>
      <trkpt lat="43.192677" lon="-2.241027">
        <ele>598.385</ele>
        <time>2021-03-21T06:53:50Z</time>
      </trkpt>
      <trkpt lat="43.192687" lon="-2.240988">
        <ele>597.966</ele>
        <time>2021-03-21T06:53:51Z</time>
      </trkpt>
      <trkpt lat="43.192698" lon="-2.240953">
        <ele>597.529</ele>
        <time>2021-03-21T06:53:52Z</time>
      </trkpt>
      <trkpt lat="43.192708" lon="-2.240914">
        <ele>597.221</ele>
        <time>2021-03-21T06:53:53Z</time>
      </trkpt>
      <trkpt lat="43.192714" lon="-2.240875">
        <ele>596.908</ele>
        <time>2021-03-21T06:53:54Z</time>
      </trkpt>
      <trkpt lat="43.192720" lon="-2.240837">
        <ele>596.652</ele>
        <time>2021-03-21T06:53:55Z</time>
      </trkpt>
      <trkpt lat="43.192725" lon="-2.240798">
        <ele>596.445</ele>
        <time>2021-03-21T06:53:56Z</time>
      </trkpt>
      <trkpt lat="43.192726" lon="-2.240760">
        <ele>596.298</ele>
        <time>2021-03-21T06:53:57Z</time>
      </trkpt>
      <trkpt lat="43.192734" lon="-2.240682">
        <ele>595.849</ele>
        <time>2021-03-21T06:53:59Z</time>
      </trkpt>
      <trkpt lat="43.192735" lon="-2.240641">
        <ele>595.726</ele>
        <time>2021-03-21T06:54:00Z</time>
      </trkpt>
      <trkpt lat="43.192738" lon="-2.240599">
        <ele>595.564</ele>
        <time>2021-03-21T06:54:01Z</time>
      </trkpt>
      <trkpt lat="43.192741" lon="-2.240555">
        <ele>595.384</ele>
        <time>2021-03-21T06:54:02Z</time>
      </trkpt>
      <trkpt lat="43.192748" lon="-2.240515">
        <ele>595.054</ele>
        <time>2021-03-21T06:54:03Z</time>
      </trkpt>
      <trkpt lat="43.192753" lon="-2.240478">
        <ele>594.881</ele>
        <time>2021-03-21T06:54:04Z</time>
      </trkpt>
      <trkpt lat="43.192753" lon="-2.240443">
        <ele>594.761</ele>
        <time>2021-03-21T06:54:05Z</time>
      </trkpt>
      <trkpt lat="43.192757" lon="-2.240406">
        <ele>594.517</ele>
        <time>2021-03-21T06:54:06Z</time>
      </trkpt>
      <trkpt lat="43.192759" lon="-2.240368">
        <ele>594.408</ele>
        <time>2021-03-21T06:54:07Z</time>
      </trkpt>
      <trkpt lat="43.192759" lon="-2.240330">
        <ele>594.234</ele>
        <time>2021-03-21T06:54:08Z</time>
      </trkpt>
      <trkpt lat="43.192761" lon="-2.240289">
        <ele>594.067</ele>
        <time>2021-03-21T06:54:09Z</time>
      </trkpt>
      <trkpt lat="43.192762" lon="-2.240247">
        <ele>593.930</ele>
        <time>2021-03-21T06:54:10Z</time>
      </trkpt>
      <trkpt lat="43.192761" lon="-2.240204">
        <ele>593.721</ele>
        <time>2021-03-21T06:54:11Z</time>
      </trkpt>
      <trkpt lat="43.192763" lon="-2.240163">
        <ele>593.618</ele>
        <time>2021-03-21T06:54:12Z</time>
      </trkpt>
      <trkpt lat="43.192763" lon="-2.240122">
        <ele>593.456</ele>
        <time>2021-03-21T06:54:13Z</time>
      </trkpt>
      <trkpt lat="43.192765" lon="-2.240086">
        <ele>593.366</ele>
        <time>2021-03-21T06:54:14Z</time>
      </trkpt>
      <trkpt lat="43.192766" lon="-2.240044">
        <ele>593.126</ele>
        <time>2021-03-21T06:54:15Z</time>
      </trkpt>
      <trkpt lat="43.192767" lon="-2.240003">
        <ele>593.058</ele>
        <time>2021-03-21T06:54:16Z</time>
      </trkpt>
      <trkpt lat="43.192769" lon="-2.239962">
        <ele>593.052</ele>
        <time>2021-03-21T06:54:17Z</time>
      </trkpt>
      <trkpt lat="43.192772" lon="-2.239924">
        <ele>593.017</ele>
        <time>2021-03-21T06:54:18Z</time>
      </trkpt>
      <trkpt lat="43.192774" lon="-2.239880">
        <ele>593.008</ele>
        <time>2021-03-21T06:54:19Z</time>
      </trkpt>
      <trkpt lat="43.192776" lon="-2.239835">
        <ele>593.081</ele>
        <time>2021-03-21T06:54:20Z</time>
      </trkpt>
      <trkpt lat="43.192774" lon="-2.239793">
        <ele>593.064</ele>
        <time>2021-03-21T06:54:21Z</time>
      </trkpt>
      <trkpt lat="43.192772" lon="-2.239749">
        <ele>593.077</ele>
        <time>2021-03-21T06:54:22Z</time>
      </trkpt>
      <trkpt lat="43.192767" lon="-2.239705">
        <ele>593.048</ele>
        <time>2021-03-21T06:54:23Z</time>
      </trkpt>
      <trkpt lat="43.192763" lon="-2.239662">
        <ele>593.235</ele>
        <time>2021-03-21T06:54:24Z</time>
      </trkpt>
      <trkpt lat="43.192762" lon="-2.239617">
        <ele>593.363</ele>
        <time>2021-03-21T06:54:25Z</time>
      </trkpt>
      <trkpt lat="43.192754" lon="-2.239533">
        <ele>593.533</ele>
        <time>2021-03-21T06:54:27Z</time>
      </trkpt>
      <trkpt lat="43.192745" lon="-2.239494">
        <ele>593.653</ele>
        <time>2021-03-21T06:54:28Z</time>
      </trkpt>
      <trkpt lat="43.192738" lon="-2.239460">
        <ele>593.783</ele>
        <time>2021-03-21T06:54:29Z</time>
      </trkpt>
      <trkpt lat="43.192734" lon="-2.239430">
        <ele>593.725</ele>
        <time>2021-03-21T06:54:30Z</time>
      </trkpt>
      <trkpt lat="43.192730" lon="-2.239400">
        <ele>593.817</ele>
        <time>2021-03-21T06:54:31Z</time>
      </trkpt>
      <trkpt lat="43.192722" lon="-2.239369">
        <ele>593.908</ele>
        <time>2021-03-21T06:54:32Z</time>
      </trkpt>
      <trkpt lat="43.192715" lon="-2.239336">
        <ele>593.934</ele>
        <time>2021-03-21T06:54:33Z</time>
      </trkpt>
      <trkpt lat="43.192707" lon="-2.239302">
        <ele>594.057</ele>
        <time>2021-03-21T06:54:34Z</time>
      </trkpt>
      <trkpt lat="43.192700" lon="-2.239269">
        <ele>594.180</ele>
        <time>2021-03-21T06:54:35Z</time>
      </trkpt>
      <trkpt lat="43.192699" lon="-2.239234">
        <ele>594.251</ele>
        <time>2021-03-21T06:54:36Z</time>
      </trkpt>
      <trkpt lat="43.192699" lon="-2.239199">
        <ele>594.328</ele>
        <time>2021-03-21T06:54:37Z</time>
      </trkpt>
      <trkpt lat="43.192701" lon="-2.239168">
        <ele>594.436</ele>
        <time>2021-03-21T06:54:38Z</time>
      </trkpt>
      <trkpt lat="43.192708" lon="-2.239137">
        <ele>594.636</ele>
        <time>2021-03-21T06:54:39Z</time>
      </trkpt>
      <trkpt lat="43.192717" lon="-2.239104">
        <ele>594.816</ele>
        <time>2021-03-21T06:54:40Z</time>
      </trkpt>
      <trkpt lat="43.192726" lon="-2.239075">
        <ele>595.083</ele>
        <time>2021-03-21T06:54:41Z</time>
      </trkpt>
      <trkpt lat="43.192737" lon="-2.239045">
        <ele>595.125</ele>
        <time>2021-03-21T06:54:42Z</time>
      </trkpt>
      <trkpt lat="43.192749" lon="-2.239012">
        <ele>595.417</ele>
        <time>2021-03-21T06:54:43Z</time>
      </trkpt>
      <trkpt lat="43.192764" lon="-2.238982">
        <ele>595.608</ele>
        <time>2021-03-21T06:54:44Z</time>
      </trkpt>
      <trkpt lat="43.192779" lon="-2.238957">
        <ele>595.724</ele>
        <time>2021-03-21T06:54:45Z</time>
      </trkpt>
      <trkpt lat="43.192797" lon="-2.238930">
        <ele>595.627</ele>
        <time>2021-03-21T06:54:46Z</time>
      </trkpt>
      <trkpt lat="43.192815" lon="-2.238902">
        <ele>595.550</ele>
        <time>2021-03-21T06:54:47Z</time>
      </trkpt>
      <trkpt lat="43.192831" lon="-2.238871">
        <ele>595.421</ele>
        <time>2021-03-21T06:54:48Z</time>
      </trkpt>
      <trkpt lat="43.192846" lon="-2.238836">
        <ele>595.198</ele>
        <time>2021-03-21T06:54:49Z</time>
      </trkpt>
      <trkpt lat="43.192861" lon="-2.238803">
        <ele>594.956</ele>
        <time>2021-03-21T06:54:50Z</time>
      </trkpt>
      <trkpt lat="43.192876" lon="-2.238770">
        <ele>594.736</ele>
        <time>2021-03-21T06:54:51Z</time>
      </trkpt>
      <trkpt lat="43.192893" lon="-2.238735">
        <ele>594.416</ele>
        <time>2021-03-21T06:54:52Z</time>
      </trkpt>
      <trkpt lat="43.192912" lon="-2.238699">
        <ele>594.211</ele>
        <time>2021-03-21T06:54:53Z</time>
      </trkpt>
      <trkpt lat="43.192930" lon="-2.238662">
        <ele>594.021</ele>
        <time>2021-03-21T06:54:54Z</time>
      </trkpt>
      <trkpt lat="43.192945" lon="-2.238621">
        <ele>593.803</ele>
        <time>2021-03-21T06:54:55Z</time>
      </trkpt>
      <trkpt lat="43.192956" lon="-2.238582">
        <ele>593.708</ele>
        <time>2021-03-21T06:54:56Z</time>
      </trkpt>
      <trkpt lat="43.192963" lon="-2.238543">
        <ele>593.757</ele>
        <time>2021-03-21T06:54:57Z</time>
      </trkpt>
      <trkpt lat="43.192967" lon="-2.238503">
        <ele>593.680</ele>
        <time>2021-03-21T06:54:58Z</time>
      </trkpt>
      <trkpt lat="43.192969" lon="-2.238468">
        <ele>593.663</ele>
        <time>2021-03-21T06:54:59Z</time>
      </trkpt>
      <trkpt lat="43.192973" lon="-2.238429">
        <ele>593.674</ele>
        <time>2021-03-21T06:55:00Z</time>
      </trkpt>
      <trkpt lat="43.192973" lon="-2.238392">
        <ele>593.661</ele>
        <time>2021-03-21T06:55:01Z</time>
      </trkpt>
      <trkpt lat="43.192976" lon="-2.238355">
        <ele>593.659</ele>
        <time>2021-03-21T06:55:02Z</time>
      </trkpt>
      <trkpt lat="43.192985" lon="-2.238320">
        <ele>593.579</ele>
        <time>2021-03-21T06:55:03Z</time>
      </trkpt>
      <trkpt lat="43.192993" lon="-2.238282">
        <ele>593.369</ele>
        <time>2021-03-21T06:55:04Z</time>
      </trkpt>
      <trkpt lat="43.192999" lon="-2.238248">
        <ele>593.192</ele>
        <time>2021-03-21T06:55:05Z</time>
      </trkpt>
      <trkpt lat="43.193006" lon="-2.238213">
        <ele>592.973</ele>
        <time>2021-03-21T06:55:06Z</time>
      </trkpt>
      <trkpt lat="43.193012" lon="-2.238179">
        <ele>592.820</ele>
        <time>2021-03-21T06:55:07Z</time>
      </trkpt>
      <trkpt lat="43.193015" lon="-2.238145">
        <ele>592.608</ele>
        <time>2021-03-21T06:55:08Z</time>
      </trkpt>
      <trkpt lat="43.193016" lon="-2.238109">
        <ele>592.545</ele>
        <time>2021-03-21T06:55:09Z</time>
      </trkpt>
      <trkpt lat="43.193019" lon="-2.238075">
        <ele>592.398</ele>
        <time>2021-03-21T06:55:10Z</time>
      </trkpt>
      <trkpt lat="43.193028" lon="-2.238040">
        <ele>592.241</ele>
        <time>2021-03-21T06:55:11Z</time>
      </trkpt>
      <trkpt lat="43.193036" lon="-2.238005">
        <ele>592.152</ele>
        <time>2021-03-21T06:55:12Z</time>
      </trkpt>
      <trkpt lat="43.193047" lon="-2.237964">
        <ele>592.149</ele>
        <time>2021-03-21T06:55:13Z</time>
      </trkpt>
      <trkpt lat="43.193060" lon="-2.237923">
        <ele>591.917</ele>
        <time>2021-03-21T06:55:14Z</time>
      </trkpt>
      <trkpt lat="43.193070" lon="-2.237886">
        <ele>591.837</ele>
        <time>2021-03-21T06:55:15Z</time>
      </trkpt>
      <trkpt lat="43.193077" lon="-2.237848">
        <ele>591.767</ele>
        <time>2021-03-21T06:55:16Z</time>
      </trkpt>
      <trkpt lat="43.193084" lon="-2.237807">
        <ele>591.786</ele>
        <time>2021-03-21T06:55:17Z</time>
      </trkpt>
      <trkpt lat="43.193092" lon="-2.237772">
        <ele>591.660</ele>
        <time>2021-03-21T06:55:18Z</time>
      </trkpt>
      <trkpt lat="43.193097" lon="-2.237734">
        <ele>591.726</ele>
        <time>2021-03-21T06:55:19Z</time>
      </trkpt>
      <trkpt lat="43.193100" lon="-2.237699">
        <ele>591.808</ele>
        <time>2021-03-21T06:55:20Z</time>
      </trkpt>
      <trkpt lat="43.193105" lon="-2.237665">
        <ele>591.814</ele>
        <time>2021-03-21T06:55:21Z</time>
      </trkpt>
      <trkpt lat="43.193114" lon="-2.237634">
        <ele>591.827</ele>
        <time>2021-03-21T06:55:22Z</time>
      </trkpt>
      <trkpt lat="43.193116" lon="-2.237600">
        <ele>591.870</ele>
        <time>2021-03-21T06:55:23Z</time>
      </trkpt>
      <trkpt lat="43.193116" lon="-2.237567">
        <ele>591.991</ele>
        <time>2021-03-21T06:55:24Z</time>
      </trkpt>
      <trkpt lat="43.193120" lon="-2.237536">
        <ele>592.098</ele>
        <time>2021-03-21T06:55:25Z</time>
      </trkpt>
      <trkpt lat="43.193124" lon="-2.237502">
        <ele>592.086</ele>
        <time>2021-03-21T06:55:26Z</time>
      </trkpt>
      <trkpt lat="43.193129" lon="-2.237467">
        <ele>592.296</ele>
        <time>2021-03-21T06:55:27Z</time>
      </trkpt>
      <trkpt lat="43.193134" lon="-2.237435">
        <ele>592.316</ele>
        <time>2021-03-21T06:55:28Z</time>
      </trkpt>
      <trkpt lat="43.193137" lon="-2.237404">
        <ele>592.599</ele>
        <time>2021-03-21T06:55:29Z</time>
      </trkpt>
      <trkpt lat="43.193140" lon="-2.237370">
        <ele>592.707</ele>
        <time>2021-03-21T06:55:30Z</time>
      </trkpt>
      <trkpt lat="43.193145" lon="-2.237336">
        <ele>592.927</ele>
        <time>2021-03-21T06:55:31Z</time>
      </trkpt>
      <trkpt lat="43.193151" lon="-2.237303">
        <ele>593.008</ele>
        <time>2021-03-21T06:55:32Z</time>
      </trkpt>
      <trkpt lat="43.193158" lon="-2.237272">
        <ele>593.225</ele>
        <time>2021-03-21T06:55:33Z</time>
      </trkpt>
      <trkpt lat="43.193167" lon="-2.237243">
        <ele>593.278</ele>
        <time>2021-03-21T06:55:34Z</time>
      </trkpt>
      <trkpt lat="43.193178" lon="-2.237212">
        <ele>593.381</ele>
        <time>2021-03-21T06:55:35Z</time>
      </trkpt>
      <trkpt lat="43.193190" lon="-2.237180">
        <ele>593.592</ele>
        <time>2021-03-21T06:55:36Z</time>
      </trkpt>
      <trkpt lat="43.193202" lon="-2.237151">
        <ele>593.729</ele>
        <time>2021-03-21T06:55:37Z</time>
      </trkpt>
      <trkpt lat="43.193210" lon="-2.237119">
        <ele>593.927</ele>
        <time>2021-03-21T06:55:38Z</time>
      </trkpt>
      <trkpt lat="43.193217" lon="-2.237089">
        <ele>594.127</ele>
        <time>2021-03-21T06:55:39Z</time>
      </trkpt>
      <trkpt lat="43.193226" lon="-2.237062">
        <ele>594.397</ele>
        <time>2021-03-21T06:55:40Z</time>
      </trkpt>
      <trkpt lat="43.193235" lon="-2.237035">
        <ele>594.488</ele>
        <time>2021-03-21T06:55:41Z</time>
      </trkpt>
      <trkpt lat="43.193244" lon="-2.237011">
        <ele>594.624</ele>
        <time>2021-03-21T06:55:42Z</time>
      </trkpt>
      <trkpt lat="43.193252" lon="-2.236972">
        <ele>594.926</ele>
        <time>2021-03-21T06:55:44Z</time>
      </trkpt>
      <trkpt lat="43.193245" lon="-2.236949">
        <ele>595.208</ele>
        <time>2021-03-21T06:55:56Z</time>
      </trkpt>
      <trkpt lat="43.193242" lon="-2.236925">
        <ele>595.694</ele>
        <time>2021-03-21T06:56:00Z</time>
      </trkpt>
      <trkpt lat="43.193254" lon="-2.236895">
        <ele>595.817</ele>
        <time>2021-03-21T06:56:03Z</time>
      </trkpt>
      <trkpt lat="43.193260" lon="-2.236874">
        <ele>596.090</ele>
        <time>2021-03-21T06:56:05Z</time>
      </trkpt>
      <trkpt lat="43.193266" lon="-2.236849">
        <ele>596.321</ele>
        <time>2021-03-21T06:56:07Z</time>
      </trkpt>
      <trkpt lat="43.193278" lon="-2.236816">
        <ele>596.618</ele>
        <time>2021-03-21T06:56:09Z</time>
      </trkpt>
      <trkpt lat="43.193288" lon="-2.236790">
        <ele>596.876</ele>
        <time>2021-03-21T06:56:11Z</time>
      </trkpt>
      <trkpt lat="43.193300" lon="-2.236757">
        <ele>597.136</ele>
        <time>2021-03-21T06:56:14Z</time>
      </trkpt>
      <trkpt lat="43.193310" lon="-2.236729">
        <ele>597.476</ele>
        <time>2021-03-21T06:56:15Z</time>
      </trkpt>
      <trkpt lat="43.193325" lon="-2.236658">
        <ele>598.228</ele>
        <time>2021-03-21T06:56:17Z</time>
      </trkpt>
      <trkpt lat="43.193335" lon="-2.236621">
        <ele>598.589</ele>
        <time>2021-03-21T06:56:18Z</time>
      </trkpt>
      <trkpt lat="43.193363" lon="-2.236547">
        <ele>598.917</ele>
        <time>2021-03-21T06:56:20Z</time>
      </trkpt>
      <trkpt lat="43.193395" lon="-2.236482">
        <ele>599.308</ele>
        <time>2021-03-21T06:56:22Z</time>
      </trkpt>
      <trkpt lat="43.193411" lon="-2.236453">
        <ele>599.468</ele>
        <time>2021-03-21T06:56:24Z</time>
      </trkpt>
      <trkpt lat="43.193435" lon="-2.236393">
        <ele>599.931</ele>
        <time>2021-03-21T06:56:25Z</time>
      </trkpt>
      <trkpt lat="43.193445" lon="-2.236361">
        <ele>600.224</ele>
        <time>2021-03-21T06:56:26Z</time>
      </trkpt>
      <trkpt lat="43.193455" lon="-2.236327">
        <ele>600.615</ele>
        <time>2021-03-21T06:56:27Z</time>
      </trkpt>
      <trkpt lat="43.193464" lon="-2.236297">
        <ele>600.922</ele>
        <time>2021-03-21T06:56:28Z</time>
      </trkpt>
      <trkpt lat="43.193476" lon="-2.236268">
        <ele>601.290</ele>
        <time>2021-03-21T06:56:29Z</time>
      </trkpt>
      <trkpt lat="43.193507" lon="-2.236220">
        <ele>601.610</ele>
        <time>2021-03-21T06:56:31Z</time>
      </trkpt>
      <trkpt lat="43.193524" lon="-2.236192">
        <ele>601.820</ele>
        <time>2021-03-21T06:56:32Z</time>
      </trkpt>
      <trkpt lat="43.193539" lon="-2.236166">
        <ele>602.096</ele>
        <time>2021-03-21T06:56:33Z</time>
      </trkpt>
      <trkpt lat="43.193554" lon="-2.236141">
        <ele>602.231</ele>
        <time>2021-03-21T06:56:34Z</time>
      </trkpt>
      <trkpt lat="43.193572" lon="-2.236115">
        <ele>602.424</ele>
        <time>2021-03-21T06:56:35Z</time>
      </trkpt>
      <trkpt lat="43.193588" lon="-2.236088">
        <ele>602.508</ele>
        <time>2021-03-21T06:56:36Z</time>
      </trkpt>
      <trkpt lat="43.193602" lon="-2.236062">
        <ele>602.615</ele>
        <time>2021-03-21T06:56:37Z</time>
      </trkpt>
      <trkpt lat="43.193618" lon="-2.236034">
        <ele>602.748</ele>
        <time>2021-03-21T06:56:38Z</time>
      </trkpt>
      <trkpt lat="43.193631" lon="-2.236004">
        <ele>602.931</ele>
        <time>2021-03-21T06:56:39Z</time>
      </trkpt>
      <trkpt lat="43.193640" lon="-2.235975">
        <ele>603.122</ele>
        <time>2021-03-21T06:56:40Z</time>
      </trkpt>
      <trkpt lat="43.193647" lon="-2.235943">
        <ele>603.379</ele>
        <time>2021-03-21T06:56:41Z</time>
      </trkpt>
      <trkpt lat="43.193656" lon="-2.235913">
        <ele>603.567</ele>
        <time>2021-03-21T06:56:42Z</time>
      </trkpt>
      <trkpt lat="43.193667" lon="-2.235887">
        <ele>603.617</ele>
        <time>2021-03-21T06:56:43Z</time>
      </trkpt>
      <trkpt lat="43.193679" lon="-2.235860">
        <ele>603.797</ele>
        <time>2021-03-21T06:56:44Z</time>
      </trkpt>
      <trkpt lat="43.193691" lon="-2.235832">
        <ele>603.943</ele>
        <time>2021-03-21T06:56:45Z</time>
      </trkpt>
      <trkpt lat="43.193700" lon="-2.235804">
        <ele>604.064</ele>
        <time>2021-03-21T06:56:46Z</time>
      </trkpt>
      <trkpt lat="43.193711" lon="-2.235775">
        <ele>604.210</ele>
        <time>2021-03-21T06:56:47Z</time>
      </trkpt>
      <trkpt lat="43.193720" lon="-2.235743">
        <ele>604.408</ele>
        <time>2021-03-21T06:56:49Z</time>
      </trkpt>
      <trkpt lat="43.193736" lon="-2.235681">
        <ele>604.830</ele>
        <time>2021-03-21T06:56:50Z</time>
      </trkpt>
      <trkpt lat="43.193741" lon="-2.235649">
        <ele>605.163</ele>
        <time>2021-03-21T06:56:51Z</time>
      </trkpt>
      <trkpt lat="43.193740" lon="-2.235619">
        <ele>605.546</ele>
        <time>2021-03-21T06:56:52Z</time>
      </trkpt>
      <trkpt lat="43.193739" lon="-2.235592">
        <ele>605.827</ele>
        <time>2021-03-21T06:56:53Z</time>
      </trkpt>
      <trkpt lat="43.193737" lon="-2.235559">
        <ele>606.134</ele>
        <time>2021-03-21T06:56:54Z</time>
      </trkpt>
      <trkpt lat="43.193738" lon="-2.235525">
        <ele>606.492</ele>
        <time>2021-03-21T06:56:55Z</time>
      </trkpt>
      <trkpt lat="43.193744" lon="-2.235494">
        <ele>606.592</ele>
        <time>2021-03-21T06:56:56Z</time>
      </trkpt>
      <trkpt lat="43.193753" lon="-2.235464">
        <ele>606.662</ele>
        <time>2021-03-21T06:56:57Z</time>
      </trkpt>
      <trkpt lat="43.193759" lon="-2.235431">
        <ele>606.857</ele>
        <time>2021-03-21T06:56:58Z</time>
      </trkpt>
      <trkpt lat="43.193762" lon="-2.235395">
        <ele>607.000</ele>
        <time>2021-03-21T06:56:59Z</time>
      </trkpt>
      <trkpt lat="43.193769" lon="-2.235360">
        <ele>607.120</ele>
        <time>2021-03-21T06:57:00Z</time>
      </trkpt>
      <trkpt lat="43.193778" lon="-2.235324">
        <ele>607.308</ele>
        <time>2021-03-21T06:57:01Z</time>
      </trkpt>
      <trkpt lat="43.193788" lon="-2.235289">
        <ele>607.471</ele>
        <time>2021-03-21T06:57:02Z</time>
      </trkpt>
      <trkpt lat="43.193800" lon="-2.235254">
        <ele>607.464</ele>
        <time>2021-03-21T06:57:03Z</time>
      </trkpt>
      <trkpt lat="43.193807" lon="-2.235217">
        <ele>607.597</ele>
        <time>2021-03-21T06:57:04Z</time>
      </trkpt>
      <trkpt lat="43.193816" lon="-2.235184">
        <ele>607.528</ele>
        <time>2021-03-21T06:57:05Z</time>
      </trkpt>
      <trkpt lat="43.193827" lon="-2.235150">
        <ele>607.635</ele>
        <time>2021-03-21T06:57:06Z</time>
      </trkpt>
      <trkpt lat="43.193835" lon="-2.235112">
        <ele>607.733</ele>
        <time>2021-03-21T06:57:07Z</time>
      </trkpt>
      <trkpt lat="43.193845" lon="-2.235077">
        <ele>607.873</ele>
        <time>2021-03-21T06:57:08Z</time>
      </trkpt>
      <trkpt lat="43.193851" lon="-2.235042">
        <ele>608.063</ele>
        <time>2021-03-21T06:57:09Z</time>
      </trkpt>
      <trkpt lat="43.193858" lon="-2.235007">
        <ele>608.227</ele>
        <time>2021-03-21T06:57:10Z</time>
      </trkpt>
      <trkpt lat="43.193868" lon="-2.234974">
        <ele>608.268</ele>
        <time>2021-03-21T06:57:11Z</time>
      </trkpt>
      <trkpt lat="43.193876" lon="-2.234945">
        <ele>608.314</ele>
        <time>2021-03-21T06:57:12Z</time>
      </trkpt>
      <trkpt lat="43.193884" lon="-2.234914">
        <ele>608.308</ele>
        <time>2021-03-21T06:57:13Z</time>
      </trkpt>
      <trkpt lat="43.193890" lon="-2.234885">
        <ele>608.488</ele>
        <time>2021-03-21T06:57:14Z</time>
      </trkpt>
      <trkpt lat="43.193896" lon="-2.234858">
        <ele>608.381</ele>
        <time>2021-03-21T06:57:15Z</time>
      </trkpt>
      <trkpt lat="43.193901" lon="-2.234797">
        <ele>608.494</ele>
        <time>2021-03-21T06:57:17Z</time>
      </trkpt>
      <trkpt lat="43.193902" lon="-2.234767">
        <ele>608.585</ele>
        <time>2021-03-21T06:57:18Z</time>
      </trkpt>
      <trkpt lat="43.193902" lon="-2.234736">
        <ele>608.642</ele>
        <time>2021-03-21T06:57:19Z</time>
      </trkpt>
      <trkpt lat="43.193902" lon="-2.234702">
        <ele>608.490</ele>
        <time>2021-03-21T06:57:20Z</time>
      </trkpt>
      <trkpt lat="43.193903" lon="-2.234665">
        <ele>608.040</ele>
        <time>2021-03-21T06:57:21Z</time>
      </trkpt>
      <trkpt lat="43.193904" lon="-2.234628">
        <ele>607.610</ele>
        <time>2021-03-21T06:57:22Z</time>
      </trkpt>
      <trkpt lat="43.193908" lon="-2.234589">
        <ele>607.131</ele>
        <time>2021-03-21T06:57:23Z</time>
      </trkpt>
      <trkpt lat="43.193911" lon="-2.234550">
        <ele>606.761</ele>
        <time>2021-03-21T06:57:24Z</time>
      </trkpt>
      <trkpt lat="43.193912" lon="-2.234513">
        <ele>606.307</ele>
        <time>2021-03-21T06:57:25Z</time>
      </trkpt>
      <trkpt lat="43.193917" lon="-2.234435">
        <ele>605.408</ele>
        <time>2021-03-21T06:57:27Z</time>
      </trkpt>
      <trkpt lat="43.193923" lon="-2.234393">
        <ele>604.969</ele>
        <time>2021-03-21T06:57:28Z</time>
      </trkpt>
      <trkpt lat="43.193931" lon="-2.234353">
        <ele>604.482</ele>
        <time>2021-03-21T06:57:29Z</time>
      </trkpt>
      <trkpt lat="43.193937" lon="-2.234313">
        <ele>603.925</ele>
        <time>2021-03-21T06:57:30Z</time>
      </trkpt>
      <trkpt lat="43.193944" lon="-2.234274">
        <ele>603.416</ele>
        <time>2021-03-21T06:57:31Z</time>
      </trkpt>
      <trkpt lat="43.193950" lon="-2.234234">
        <ele>603.063</ele>
        <time>2021-03-21T06:57:32Z</time>
      </trkpt>
      <trkpt lat="43.193964" lon="-2.234192">
        <ele>602.471</ele>
        <time>2021-03-21T06:57:33Z</time>
      </trkpt>
      <trkpt lat="43.193979" lon="-2.234151">
        <ele>602.091</ele>
        <time>2021-03-21T06:57:34Z</time>
      </trkpt>
      <trkpt lat="43.193992" lon="-2.234111">
        <ele>601.791</ele>
        <time>2021-03-21T06:57:35Z</time>
      </trkpt>
      <trkpt lat="43.194007" lon="-2.234068">
        <ele>601.473</ele>
        <time>2021-03-21T06:57:36Z</time>
      </trkpt>
      <trkpt lat="43.194032" lon="-2.233985">
        <ele>600.885</ele>
        <time>2021-03-21T06:57:38Z</time>
      </trkpt>
      <trkpt lat="43.194046" lon="-2.233946">
        <ele>600.513</ele>
        <time>2021-03-21T06:57:39Z</time>
      </trkpt>
      <trkpt lat="43.194057" lon="-2.233908">
        <ele>600.308</ele>
        <time>2021-03-21T06:57:40Z</time>
      </trkpt>
      <trkpt lat="43.194077" lon="-2.233830">
        <ele>599.823</ele>
        <time>2021-03-21T06:57:42Z</time>
      </trkpt>
      <trkpt lat="43.194088" lon="-2.233794">
        <ele>599.526</ele>
        <time>2021-03-21T06:57:43Z</time>
      </trkpt>
      <trkpt lat="43.194095" lon="-2.233757">
        <ele>599.399</ele>
        <time>2021-03-21T06:57:44Z</time>
      </trkpt>
      <trkpt lat="43.194102" lon="-2.233713">
        <ele>599.130</ele>
        <time>2021-03-21T06:57:45Z</time>
      </trkpt>
      <trkpt lat="43.194105" lon="-2.233670">
        <ele>598.917</ele>
        <time>2021-03-21T06:57:46Z</time>
      </trkpt>
      <trkpt lat="43.194110" lon="-2.233628">
        <ele>598.775</ele>
        <time>2021-03-21T06:57:47Z</time>
      </trkpt>
      <trkpt lat="43.194113" lon="-2.233585">
        <ele>598.535</ele>
        <time>2021-03-21T06:57:48Z</time>
      </trkpt>
      <trkpt lat="43.194116" lon="-2.233544">
        <ele>598.335</ele>
        <time>2021-03-21T06:57:49Z</time>
      </trkpt>
      <trkpt lat="43.194118" lon="-2.233505">
        <ele>598.166</ele>
        <time>2021-03-21T06:57:50Z</time>
      </trkpt>
      <trkpt lat="43.194123" lon="-2.233463">
        <ele>597.929</ele>
        <time>2021-03-21T06:57:51Z</time>
      </trkpt>
      <trkpt lat="43.194132" lon="-2.233420">
        <ele>597.721</ele>
        <time>2021-03-21T06:57:52Z</time>
      </trkpt>
      <trkpt lat="43.194142" lon="-2.233382">
        <ele>597.408</ele>
        <time>2021-03-21T06:57:53Z</time>
      </trkpt>
      <trkpt lat="43.194148" lon="-2.233340">
        <ele>597.212</ele>
        <time>2021-03-21T06:57:54Z</time>
      </trkpt>
      <trkpt lat="43.194160" lon="-2.233300">
        <ele>597.185</ele>
        <time>2021-03-21T06:57:55Z</time>
      </trkpt>
      <trkpt lat="43.194167" lon="-2.233262">
        <ele>597.098</ele>
        <time>2021-03-21T06:57:56Z</time>
      </trkpt>
      <trkpt lat="43.194184" lon="-2.233184">
        <ele>596.739</ele>
        <time>2021-03-21T06:57:58Z</time>
      </trkpt>
      <trkpt lat="43.194194" lon="-2.233152">
        <ele>596.576</ele>
        <time>2021-03-21T06:57:59Z</time>
      </trkpt>
      <trkpt lat="43.194210" lon="-2.233122">
        <ele>596.294</ele>
        <time>2021-03-21T06:58:00Z</time>
      </trkpt>
      <trkpt lat="43.194222" lon="-2.233096">
        <ele>596.024</ele>
        <time>2021-03-21T06:58:01Z</time>
      </trkpt>
      <trkpt lat="43.194230" lon="-2.233073">
        <ele>595.894</ele>
        <time>2021-03-21T06:58:02Z</time>
      </trkpt>
      <trkpt lat="43.194236" lon="-2.233049">
        <ele>595.743</ele>
        <time>2021-03-21T06:58:03Z</time>
      </trkpt>
      <trkpt lat="43.194242" lon="-2.233009">
        <ele>595.264</ele>
        <time>2021-03-21T06:58:05Z</time>
      </trkpt>
      <trkpt lat="43.194256" lon="-2.232981">
        <ele>594.810</ele>
        <time>2021-03-21T06:58:07Z</time>
      </trkpt>
      <trkpt lat="43.194289" lon="-2.232952">
        <ele>594.008</ele>
        <time>2021-03-21T06:58:09Z</time>
      </trkpt>
      <trkpt lat="43.194308" lon="-2.232934">
        <ele>593.610</ele>
        <time>2021-03-21T06:58:10Z</time>
      </trkpt>
      <trkpt lat="43.194332" lon="-2.232911">
        <ele>593.133</ele>
        <time>2021-03-21T06:58:11Z</time>
      </trkpt>
      <trkpt lat="43.194354" lon="-2.232887">
        <ele>592.666</ele>
        <time>2021-03-21T06:58:12Z</time>
      </trkpt>
      <trkpt lat="43.194375" lon="-2.232864">
        <ele>592.287</ele>
        <time>2021-03-21T06:58:13Z</time>
      </trkpt>
      <trkpt lat="43.194396" lon="-2.232843">
        <ele>591.894</ele>
        <time>2021-03-21T06:58:14Z</time>
      </trkpt>
      <trkpt lat="43.194419" lon="-2.232826">
        <ele>591.522</ele>
        <time>2021-03-21T06:58:15Z</time>
      </trkpt>
      <trkpt lat="43.194439" lon="-2.232806">
        <ele>591.212</ele>
        <time>2021-03-21T06:58:16Z</time>
      </trkpt>
      <trkpt lat="43.194460" lon="-2.232780">
        <ele>590.772</ele>
        <time>2021-03-21T06:58:17Z</time>
      </trkpt>
      <trkpt lat="43.194479" lon="-2.232747">
        <ele>590.439</ele>
        <time>2021-03-21T06:58:18Z</time>
      </trkpt>
      <trkpt lat="43.194494" lon="-2.232710">
        <ele>590.201</ele>
        <time>2021-03-21T06:58:19Z</time>
      </trkpt>
      <trkpt lat="43.194507" lon="-2.232677">
        <ele>590.021</ele>
        <time>2021-03-21T06:58:20Z</time>
      </trkpt>
      <trkpt lat="43.194516" lon="-2.232644">
        <ele>590.008</ele>
        <time>2021-03-21T06:58:21Z</time>
      </trkpt>
      <trkpt lat="43.194523" lon="-2.232607">
        <ele>589.999</ele>
        <time>2021-03-21T06:58:22Z</time>
      </trkpt>
      <trkpt lat="43.194526" lon="-2.232570">
        <ele>590.082</ele>
        <time>2021-03-21T06:58:23Z</time>
      </trkpt>
      <trkpt lat="43.194538" lon="-2.232497">
        <ele>590.025</ele>
        <time>2021-03-21T06:58:25Z</time>
      </trkpt>
      <trkpt lat="43.194548" lon="-2.232462">
        <ele>589.836</ele>
        <time>2021-03-21T06:58:26Z</time>
      </trkpt>
      <trkpt lat="43.194556" lon="-2.232427">
        <ele>589.753</ele>
        <time>2021-03-21T06:58:27Z</time>
      </trkpt>
      <trkpt lat="43.194562" lon="-2.232394">
        <ele>589.721</ele>
        <time>2021-03-21T06:58:28Z</time>
      </trkpt>
      <trkpt lat="43.194566" lon="-2.232361">
        <ele>589.691</ele>
        <time>2021-03-21T06:58:29Z</time>
      </trkpt>
      <trkpt lat="43.194569" lon="-2.232327">
        <ele>589.631</ele>
        <time>2021-03-21T06:58:30Z</time>
      </trkpt>
      <trkpt lat="43.194571" lon="-2.232290">
        <ele>589.695</ele>
        <time>2021-03-21T06:58:31Z</time>
      </trkpt>
      <trkpt lat="43.194580" lon="-2.232254">
        <ele>589.549</ele>
        <time>2021-03-21T06:58:32Z</time>
      </trkpt>
      <trkpt lat="43.194591" lon="-2.232219">
        <ele>589.523</ele>
        <time>2021-03-21T06:58:33Z</time>
      </trkpt>
      <trkpt lat="43.194601" lon="-2.232187">
        <ele>589.708</ele>
        <time>2021-03-21T06:58:34Z</time>
      </trkpt>
      <trkpt lat="43.194612" lon="-2.232161">
        <ele>589.995</ele>
        <time>2021-03-21T06:58:35Z</time>
      </trkpt>
      <trkpt lat="43.194624" lon="-2.232136">
        <ele>590.188</ele>
        <time>2021-03-21T06:58:36Z</time>
      </trkpt>
      <trkpt lat="43.194635" lon="-2.232106">
        <ele>590.311</ele>
        <time>2021-03-21T06:58:37Z</time>
      </trkpt>
      <trkpt lat="43.194645" lon="-2.232078">
        <ele>590.512</ele>
        <time>2021-03-21T06:58:38Z</time>
      </trkpt>
      <trkpt lat="43.194654" lon="-2.232049">
        <ele>590.829</ele>
        <time>2021-03-21T06:58:39Z</time>
      </trkpt>
      <trkpt lat="43.194665" lon="-2.232023">
        <ele>591.117</ele>
        <time>2021-03-21T06:58:40Z</time>
      </trkpt>
      <trkpt lat="43.194679" lon="-2.232000">
        <ele>591.377</ele>
        <time>2021-03-21T06:58:41Z</time>
      </trkpt>
      <trkpt lat="43.194693" lon="-2.231976">
        <ele>591.617</ele>
        <time>2021-03-21T06:58:42Z</time>
      </trkpt>
      <trkpt lat="43.194707" lon="-2.231948">
        <ele>591.952</ele>
        <time>2021-03-21T06:58:43Z</time>
      </trkpt>
      <trkpt lat="43.194715" lon="-2.231920">
        <ele>592.153</ele>
        <time>2021-03-21T06:58:44Z</time>
      </trkpt>
      <trkpt lat="43.194728" lon="-2.231880">
        <ele>592.508</ele>
        <time>2021-03-21T06:58:46Z</time>
      </trkpt>
      <trkpt lat="43.194751" lon="-2.231841">
        <ele>592.808</ele>
        <time>2021-03-21T06:58:48Z</time>
      </trkpt>
      <trkpt lat="43.194771" lon="-2.231810">
        <ele>593.121</ele>
        <time>2021-03-21T06:58:50Z</time>
      </trkpt>
      <trkpt lat="43.194788" lon="-2.231792">
        <ele>593.224</ele>
        <time>2021-03-21T06:58:51Z</time>
      </trkpt>
      <trkpt lat="43.194803" lon="-2.231772">
        <ele>593.477</ele>
        <time>2021-03-21T06:58:52Z</time>
      </trkpt>
      <trkpt lat="43.194820" lon="-2.231750">
        <ele>593.678</ele>
        <time>2021-03-21T06:58:53Z</time>
      </trkpt>
      <trkpt lat="43.194836" lon="-2.231722">
        <ele>593.925</ele>
        <time>2021-03-21T06:58:54Z</time>
      </trkpt>
      <trkpt lat="43.194852" lon="-2.231695">
        <ele>594.273</ele>
        <time>2021-03-21T06:58:55Z</time>
      </trkpt>
      <trkpt lat="43.194865" lon="-2.231674">
        <ele>594.453</ele>
        <time>2021-03-21T06:58:56Z</time>
      </trkpt>
      <trkpt lat="43.194879" lon="-2.231649">
        <ele>594.793</ele>
        <time>2021-03-21T06:58:57Z</time>
      </trkpt>
      <trkpt lat="43.194888" lon="-2.231620">
        <ele>594.984</ele>
        <time>2021-03-21T06:58:58Z</time>
      </trkpt>
      <trkpt lat="43.194897" lon="-2.231595">
        <ele>595.007</ele>
        <time>2021-03-21T06:58:59Z</time>
      </trkpt>
      <trkpt lat="43.194913" lon="-2.231550">
        <ele>595.417</ele>
        <time>2021-03-21T06:59:01Z</time>
      </trkpt>
      <trkpt lat="43.194924" lon="-2.231529">
        <ele>595.608</ele>
        <time>2021-03-21T06:59:02Z</time>
      </trkpt>
      <trkpt lat="43.194950" lon="-2.231500">
        <ele>595.984</ele>
        <time>2021-03-21T06:59:04Z</time>
      </trkpt>
      <trkpt lat="43.194964" lon="-2.231479">
        <ele>596.127</ele>
        <time>2021-03-21T06:59:05Z</time>
      </trkpt>
      <trkpt lat="43.194978" lon="-2.231457">
        <ele>596.420</ele>
        <time>2021-03-21T06:59:06Z</time>
      </trkpt>
      <trkpt lat="43.194991" lon="-2.231435">
        <ele>596.611</ele>
        <time>2021-03-21T06:59:07Z</time>
      </trkpt>
      <trkpt lat="43.195005" lon="-2.231410">
        <ele>596.988</ele>
        <time>2021-03-21T06:59:08Z</time>
      </trkpt>
      <trkpt lat="43.195019" lon="-2.231387">
        <ele>597.216</ele>
        <time>2021-03-21T06:59:09Z</time>
      </trkpt>
      <trkpt lat="43.195034" lon="-2.231365">
        <ele>597.486</ele>
        <time>2021-03-21T06:59:10Z</time>
      </trkpt>
      <trkpt lat="43.195046" lon="-2.231342">
        <ele>597.716</ele>
        <time>2021-03-21T06:59:11Z</time>
      </trkpt>
      <trkpt lat="43.195060" lon="-2.231318">
        <ele>598.019</ele>
        <time>2021-03-21T06:59:12Z</time>
      </trkpt>
      <trkpt lat="43.195075" lon="-2.231297">
        <ele>598.309</ele>
        <time>2021-03-21T06:59:13Z</time>
      </trkpt>
      <trkpt lat="43.195089" lon="-2.231277">
        <ele>598.619</ele>
        <time>2021-03-21T06:59:14Z</time>
      </trkpt>
      <trkpt lat="43.195103" lon="-2.231253">
        <ele>598.908</ele>
        <time>2021-03-21T06:59:15Z</time>
      </trkpt>
      <trkpt lat="43.195116" lon="-2.231231">
        <ele>599.237</ele>
        <time>2021-03-21T06:59:16Z</time>
      </trkpt>
      <trkpt lat="43.195131" lon="-2.231211">
        <ele>599.550</ele>
        <time>2021-03-21T06:59:17Z</time>
      </trkpt>
      <trkpt lat="43.195143" lon="-2.231192">
        <ele>599.843</ele>
        <time>2021-03-21T06:59:18Z</time>
      </trkpt>
      <trkpt lat="43.195158" lon="-2.231171">
        <ele>600.264</ele>
        <time>2021-03-21T06:59:19Z</time>
      </trkpt>
      <trkpt lat="43.195172" lon="-2.231151">
        <ele>600.551</ele>
        <time>2021-03-21T06:59:20Z</time>
      </trkpt>
      <trkpt lat="43.195184" lon="-2.231129">
        <ele>600.889</ele>
        <time>2021-03-21T06:59:21Z</time>
      </trkpt>
      <trkpt lat="43.195197" lon="-2.231105">
        <ele>601.129</ele>
        <time>2021-03-21T06:59:22Z</time>
      </trkpt>
      <trkpt lat="43.195210" lon="-2.231082">
        <ele>601.339</ele>
        <time>2021-03-21T06:59:23Z</time>
      </trkpt>
      <trkpt lat="43.195222" lon="-2.231063">
        <ele>601.478</ele>
        <time>2021-03-21T06:59:24Z</time>
      </trkpt>
      <trkpt lat="43.195232" lon="-2.231043">
        <ele>601.533</ele>
        <time>2021-03-21T06:59:25Z</time>
      </trkpt>
      <trkpt lat="43.195243" lon="-2.231019">
        <ele>601.726</ele>
        <time>2021-03-21T06:59:26Z</time>
      </trkpt>
      <trkpt lat="43.195254" lon="-2.230996">
        <ele>601.808</ele>
        <time>2021-03-21T06:59:27Z</time>
      </trkpt>
      <trkpt lat="43.195266" lon="-2.230960">
        <ele>601.993</ele>
        <time>2021-03-21T06:59:29Z</time>
      </trkpt>
      <trkpt lat="43.195271" lon="-2.230933">
        <ele>601.996</ele>
        <time>2021-03-21T06:59:31Z</time>
      </trkpt>
      <trkpt lat="43.195281" lon="-2.230903">
        <ele>601.969</ele>
        <time>2021-03-21T06:59:33Z</time>
      </trkpt>
      <trkpt lat="43.195295" lon="-2.230875">
        <ele>601.720</ele>
        <time>2021-03-21T06:59:35Z</time>
      </trkpt>
      <trkpt lat="43.195305" lon="-2.230844">
        <ele>601.447</ele>
        <time>2021-03-21T06:59:37Z</time>
      </trkpt>
      <trkpt lat="43.195321" lon="-2.230806">
        <ele>600.595</ele>
        <time>2021-03-21T06:59:39Z</time>
      </trkpt>
      <trkpt lat="43.195331" lon="-2.230788">
        <ele>599.935</ele>
        <time>2021-03-21T06:59:40Z</time>
      </trkpt>
      <trkpt lat="43.195345" lon="-2.230770">
        <ele>599.235</ele>
        <time>2021-03-21T06:59:41Z</time>
      </trkpt>
      <trkpt lat="43.195365" lon="-2.230752">
        <ele>598.577</ele>
        <time>2021-03-21T06:59:42Z</time>
      </trkpt>
      <trkpt lat="43.195382" lon="-2.230730">
        <ele>597.761</ele>
        <time>2021-03-21T06:59:43Z</time>
      </trkpt>
      <trkpt lat="43.195403" lon="-2.230705">
        <ele>596.727</ele>
        <time>2021-03-21T06:59:44Z</time>
      </trkpt>
      <trkpt lat="43.195425" lon="-2.230682">
        <ele>595.808</ele>
        <time>2021-03-21T06:59:45Z</time>
      </trkpt>
      <trkpt lat="43.195447" lon="-2.230659">
        <ele>595.063</ele>
        <time>2021-03-21T06:59:46Z</time>
      </trkpt>
      <trkpt lat="43.195468" lon="-2.230632">
        <ele>594.056</ele>
        <time>2021-03-21T06:59:47Z</time>
      </trkpt>
      <trkpt lat="43.195491" lon="-2.230609">
        <ele>593.299</ele>
        <time>2021-03-21T06:59:48Z</time>
      </trkpt>
      <trkpt lat="43.195511" lon="-2.230584">
        <ele>592.350</ele>
        <time>2021-03-21T06:59:49Z</time>
      </trkpt>
      <trkpt lat="43.195529" lon="-2.230558">
        <ele>591.577</ele>
        <time>2021-03-21T06:59:50Z</time>
      </trkpt>
      <trkpt lat="43.195547" lon="-2.230535">
        <ele>590.765</ele>
        <time>2021-03-21T06:59:51Z</time>
      </trkpt>
      <trkpt lat="43.195570" lon="-2.230515">
        <ele>589.875</ele>
        <time>2021-03-21T06:59:52Z</time>
      </trkpt>
      <trkpt lat="43.195592" lon="-2.230494">
        <ele>588.985</ele>
        <time>2021-03-21T06:59:53Z</time>
      </trkpt>
      <trkpt lat="43.195614" lon="-2.230474">
        <ele>588.182</ele>
        <time>2021-03-21T06:59:54Z</time>
      </trkpt>
      <trkpt lat="43.195636" lon="-2.230456">
        <ele>587.343</ele>
        <time>2021-03-21T06:59:55Z</time>
      </trkpt>
      <trkpt lat="43.195655" lon="-2.230440">
        <ele>586.717</ele>
        <time>2021-03-21T06:59:56Z</time>
      </trkpt>
      <trkpt lat="43.195677" lon="-2.230424">
        <ele>585.908</ele>
        <time>2021-03-21T06:59:57Z</time>
      </trkpt>
      <trkpt lat="43.195739" lon="-2.230362">
        <ele>583.874</ele>
        <time>2021-03-21T07:00:00Z</time>
      </trkpt>
      <trkpt lat="43.195759" lon="-2.230336">
        <ele>583.097</ele>
        <time>2021-03-21T07:00:01Z</time>
      </trkpt>
      <trkpt lat="43.195777" lon="-2.230308">
        <ele>582.350</ele>
        <time>2021-03-21T07:00:02Z</time>
      </trkpt>
      <trkpt lat="43.195798" lon="-2.230281">
        <ele>581.641</ele>
        <time>2021-03-21T07:00:03Z</time>
      </trkpt>
      <trkpt lat="43.195819" lon="-2.230251">
        <ele>581.088</ele>
        <time>2021-03-21T07:00:04Z</time>
      </trkpt>
      <trkpt lat="43.195842" lon="-2.230222">
        <ele>580.526</ele>
        <time>2021-03-21T07:00:05Z</time>
      </trkpt>
      <trkpt lat="43.195865" lon="-2.230193">
        <ele>580.256</ele>
        <time>2021-03-21T07:00:06Z</time>
      </trkpt>
      <trkpt lat="43.195884" lon="-2.230162">
        <ele>580.036</ele>
        <time>2021-03-21T07:00:07Z</time>
      </trkpt>
      <trkpt lat="43.195901" lon="-2.230131">
        <ele>579.783</ele>
        <time>2021-03-21T07:00:08Z</time>
      </trkpt>
      <trkpt lat="43.195915" lon="-2.230101">
        <ele>579.525</ele>
        <time>2021-03-21T07:00:09Z</time>
      </trkpt>
      <trkpt lat="43.195930" lon="-2.230073">
        <ele>579.317</ele>
        <time>2021-03-21T07:00:10Z</time>
      </trkpt>
      <trkpt lat="43.195943" lon="-2.230045">
        <ele>579.208</ele>
        <time>2021-03-21T07:00:11Z</time>
      </trkpt>
      <trkpt lat="43.195959" lon="-2.230010">
        <ele>579.014</ele>
        <time>2021-03-21T07:00:14Z</time>
      </trkpt>
      <trkpt lat="43.195935" lon="-2.229985">
        <ele>578.967</ele>
        <time>2021-03-21T07:00:17Z</time>
      </trkpt>
      <trkpt lat="43.195913" lon="-2.229969">
        <ele>578.940</ele>
        <time>2021-03-21T07:00:19Z</time>
      </trkpt>
      <trkpt lat="43.195899" lon="-2.229934">
        <ele>578.831</ele>
        <time>2021-03-21T07:00:23Z</time>
      </trkpt>
      <trkpt lat="43.195885" lon="-2.229911">
        <ele>578.768</ele>
        <time>2021-03-21T07:00:24Z</time>
      </trkpt>
      <trkpt lat="43.195875" lon="-2.229884">
        <ele>578.686</ele>
        <time>2021-03-21T07:00:25Z</time>
      </trkpt>
      <trkpt lat="43.195870" lon="-2.229854">
        <ele>578.546</ele>
        <time>2021-03-21T07:00:26Z</time>
      </trkpt>
      <trkpt lat="43.195872" lon="-2.229825">
        <ele>578.436</ele>
        <time>2021-03-21T07:00:27Z</time>
      </trkpt>
      <trkpt lat="43.195876" lon="-2.229797">
        <ele>578.348</ele>
        <time>2021-03-21T07:00:28Z</time>
      </trkpt>
      <trkpt lat="43.195887" lon="-2.229775">
        <ele>578.261</ele>
        <time>2021-03-21T07:00:29Z</time>
      </trkpt>
      <trkpt lat="43.195905" lon="-2.229751">
        <ele>578.117</ele>
        <time>2021-03-21T07:00:31Z</time>
      </trkpt>
      <trkpt lat="43.195927" lon="-2.229732">
        <ele>578.008</ele>
        <time>2021-03-21T07:00:33Z</time>
      </trkpt>
      <trkpt lat="43.195945" lon="-2.229716">
        <ele>577.930</ele>
        <time>2021-03-21T07:00:34Z</time>
      </trkpt>
      <trkpt lat="43.195963" lon="-2.229701">
        <ele>577.763</ele>
        <time>2021-03-21T07:00:35Z</time>
      </trkpt>
      <trkpt lat="43.195979" lon="-2.229689">
        <ele>577.696</ele>
        <time>2021-03-21T07:00:36Z</time>
      </trkpt>
      <trkpt lat="43.195996" lon="-2.229677">
        <ele>577.467</ele>
        <time>2021-03-21T07:00:37Z</time>
      </trkpt>
      <trkpt lat="43.196014" lon="-2.229662">
        <ele>577.344</ele>
        <time>2021-03-21T07:00:38Z</time>
      </trkpt>
      <trkpt lat="43.196032" lon="-2.229647">
        <ele>577.192</ele>
        <time>2021-03-21T07:00:39Z</time>
      </trkpt>
      <trkpt lat="43.196052" lon="-2.229633">
        <ele>577.022</ele>
        <time>2021-03-21T07:00:40Z</time>
      </trkpt>
      <trkpt lat="43.196073" lon="-2.229616">
        <ele>576.852</ele>
        <time>2021-03-21T07:00:41Z</time>
      </trkpt>
      <trkpt lat="43.196098" lon="-2.229601">
        <ele>576.741</ele>
        <time>2021-03-21T07:00:42Z</time>
      </trkpt>
      <trkpt lat="43.196122" lon="-2.229587">
        <ele>576.581</ele>
        <time>2021-03-21T07:00:43Z</time>
      </trkpt>
      <trkpt lat="43.196148" lon="-2.229573">
        <ele>576.409</ele>
        <time>2021-03-21T07:00:44Z</time>
      </trkpt>
      <trkpt lat="43.196175" lon="-2.229557">
        <ele>576.308</ele>
        <time>2021-03-21T07:00:45Z</time>
      </trkpt>
      <trkpt lat="43.196199" lon="-2.229538">
        <ele>576.150</ele>
        <time>2021-03-21T07:00:46Z</time>
      </trkpt>
      <trkpt lat="43.196225" lon="-2.229517">
        <ele>576.093</ele>
        <time>2021-03-21T07:00:47Z</time>
      </trkpt>
      <trkpt lat="43.196252" lon="-2.229491">
        <ele>575.896</ele>
        <time>2021-03-21T07:00:48Z</time>
      </trkpt>
      <trkpt lat="43.196272" lon="-2.229468">
        <ele>575.757</ele>
        <time>2021-03-21T07:00:49Z</time>
      </trkpt>
      <trkpt lat="43.196294" lon="-2.229447">
        <ele>575.764</ele>
        <time>2021-03-21T07:00:50Z</time>
      </trkpt>
      <trkpt lat="43.196315" lon="-2.229422">
        <ele>575.682</ele>
        <time>2021-03-21T07:00:51Z</time>
      </trkpt>
      <trkpt lat="43.196359" lon="-2.229375">
        <ele>575.462</ele>
        <time>2021-03-21T07:00:53Z</time>
      </trkpt>
      <trkpt lat="43.196381" lon="-2.229349">
        <ele>575.382</ele>
        <time>2021-03-21T07:00:54Z</time>
      </trkpt>
      <trkpt lat="43.196401" lon="-2.229319">
        <ele>575.194</ele>
        <time>2021-03-21T07:00:55Z</time>
      </trkpt>
      <trkpt lat="43.196420" lon="-2.229292">
        <ele>574.957</ele>
        <time>2021-03-21T07:00:56Z</time>
      </trkpt>
      <trkpt lat="43.196439" lon="-2.229264">
        <ele>574.822</ele>
        <time>2021-03-21T07:00:57Z</time>
      </trkpt>
      <trkpt lat="43.196460" lon="-2.229238">
        <ele>574.608</ele>
        <time>2021-03-21T07:00:58Z</time>
      </trkpt>
      <trkpt lat="43.196478" lon="-2.229213">
        <ele>574.515</ele>
        <time>2021-03-21T07:00:59Z</time>
      </trkpt>
      <trkpt lat="43.196498" lon="-2.229188">
        <ele>574.518</ele>
        <time>2021-03-21T07:01:00Z</time>
      </trkpt>
      <trkpt lat="43.196520" lon="-2.229164">
        <ele>574.591</ele>
        <time>2021-03-21T07:01:01Z</time>
      </trkpt>
      <trkpt lat="43.196539" lon="-2.229140">
        <ele>574.442</ele>
        <time>2021-03-21T07:01:02Z</time>
      </trkpt>
      <trkpt lat="43.196558" lon="-2.229115">
        <ele>574.339</ele>
        <time>2021-03-21T07:01:03Z</time>
      </trkpt>
      <trkpt lat="43.196577" lon="-2.229089">
        <ele>574.267</ele>
        <time>2021-03-21T07:01:04Z</time>
      </trkpt>
      <trkpt lat="43.196616" lon="-2.229033">
        <ele>574.247</ele>
        <time>2021-03-21T07:01:06Z</time>
      </trkpt>
      <trkpt lat="43.196632" lon="-2.229006">
        <ele>574.227</ele>
        <time>2021-03-21T07:01:07Z</time>
      </trkpt>
      <trkpt lat="43.196647" lon="-2.228976">
        <ele>574.133</ele>
        <time>2021-03-21T07:01:08Z</time>
      </trkpt>
      <trkpt lat="43.196661" lon="-2.228946">
        <ele>574.223</ele>
        <time>2021-03-21T07:01:09Z</time>
      </trkpt>
      <trkpt lat="43.196678" lon="-2.228922">
        <ele>574.215</ele>
        <time>2021-03-21T07:01:10Z</time>
      </trkpt>
      <trkpt lat="43.196696" lon="-2.228896">
        <ele>574.208</ele>
        <time>2021-03-21T07:01:11Z</time>
      </trkpt>
      <trkpt lat="43.196713" lon="-2.228868">
        <ele>574.399</ele>
        <time>2021-03-21T07:01:12Z</time>
      </trkpt>
      <trkpt lat="43.196731" lon="-2.228843">
        <ele>574.542</ele>
        <time>2021-03-21T07:01:13Z</time>
      </trkpt>
      <trkpt lat="43.196748" lon="-2.228818">
        <ele>574.785</ele>
        <time>2021-03-21T07:01:14Z</time>
      </trkpt>
      <trkpt lat="43.196764" lon="-2.228792">
        <ele>574.856</ele>
        <time>2021-03-21T07:01:15Z</time>
      </trkpt>
      <trkpt lat="43.196781" lon="-2.228765">
        <ele>575.023</ele>
        <time>2021-03-21T07:01:16Z</time>
      </trkpt>
      <trkpt lat="43.196796" lon="-2.228739">
        <ele>575.251</ele>
        <time>2021-03-21T07:01:17Z</time>
      </trkpt>
      <trkpt lat="43.196811" lon="-2.228712">
        <ele>575.491</ele>
        <time>2021-03-21T07:01:18Z</time>
      </trkpt>
      <trkpt lat="43.196824" lon="-2.228685">
        <ele>575.591</ele>
        <time>2021-03-21T07:01:19Z</time>
      </trkpt>
      <trkpt lat="43.196839" lon="-2.228660">
        <ele>575.881</ele>
        <time>2021-03-21T07:01:20Z</time>
      </trkpt>
      <trkpt lat="43.196852" lon="-2.228636">
        <ele>575.961</ele>
        <time>2021-03-21T07:01:21Z</time>
      </trkpt>
      <trkpt lat="43.196867" lon="-2.228612">
        <ele>576.217</ele>
        <time>2021-03-21T07:01:22Z</time>
      </trkpt>
      <trkpt lat="43.196884" lon="-2.228587">
        <ele>576.408</ele>
        <time>2021-03-21T07:01:23Z</time>
      </trkpt>
      <trkpt lat="43.196897" lon="-2.228565">
        <ele>576.684</ele>
        <time>2021-03-21T07:01:24Z</time>
      </trkpt>
      <trkpt lat="43.196911" lon="-2.228542">
        <ele>576.977</ele>
        <time>2021-03-21T07:01:25Z</time>
      </trkpt>
      <trkpt lat="43.196926" lon="-2.228515">
        <ele>577.160</ele>
        <time>2021-03-21T07:01:26Z</time>
      </trkpt>
      <trkpt lat="43.196940" lon="-2.228491">
        <ele>577.411</ele>
        <time>2021-03-21T07:01:27Z</time>
      </trkpt>
      <trkpt lat="43.196952" lon="-2.228469">
        <ele>577.518</ele>
        <time>2021-03-21T07:01:28Z</time>
      </trkpt>
      <trkpt lat="43.196966" lon="-2.228445">
        <ele>577.796</ele>
        <time>2021-03-21T07:01:29Z</time>
      </trkpt>
      <trkpt lat="43.196978" lon="-2.228424">
        <ele>577.896</ele>
        <time>2021-03-21T07:01:30Z</time>
      </trkpt>
      <trkpt lat="43.196992" lon="-2.228404">
        <ele>577.916</ele>
        <time>2021-03-21T07:01:31Z</time>
      </trkpt>
      <trkpt lat="43.197006" lon="-2.228381">
        <ele>578.064</ele>
        <time>2021-03-21T07:01:32Z</time>
      </trkpt>
      <trkpt lat="43.197019" lon="-2.228361">
        <ele>578.206</ele>
        <time>2021-03-21T07:01:33Z</time>
      </trkpt>
      <trkpt lat="43.197033" lon="-2.228341">
        <ele>578.316</ele>
        <time>2021-03-21T07:01:34Z</time>
      </trkpt>
      <trkpt lat="43.197046" lon="-2.228319">
        <ele>578.308</ele>
        <time>2021-03-21T07:01:35Z</time>
      </trkpt>
      <trkpt lat="43.197060" lon="-2.228298">
        <ele>578.352</ele>
        <time>2021-03-21T07:01:36Z</time>
      </trkpt>
      <trkpt lat="43.197076" lon="-2.228277">
        <ele>578.475</ele>
        <time>2021-03-21T07:01:37Z</time>
      </trkpt>
      <trkpt lat="43.197095" lon="-2.228251">
        <ele>578.458</ele>
        <time>2021-03-21T07:01:38Z</time>
      </trkpt>
      <trkpt lat="43.197112" lon="-2.228225">
        <ele>578.459</ele>
        <time>2021-03-21T07:01:39Z</time>
      </trkpt>
      <trkpt lat="43.197129" lon="-2.228198">
        <ele>578.536</ele>
        <time>2021-03-21T07:01:40Z</time>
      </trkpt>
      <trkpt lat="43.197145" lon="-2.228170">
        <ele>578.684</ele>
        <time>2021-03-21T07:01:41Z</time>
      </trkpt>
      <trkpt lat="43.197161" lon="-2.228144">
        <ele>578.614</ele>
        <time>2021-03-21T07:01:42Z</time>
      </trkpt>
      <trkpt lat="43.197176" lon="-2.228114">
        <ele>578.774</ele>
        <time>2021-03-21T07:01:43Z</time>
      </trkpt>
      <trkpt lat="43.197188" lon="-2.228083">
        <ele>578.856</ele>
        <time>2021-03-21T07:01:44Z</time>
      </trkpt>
      <trkpt lat="43.197200" lon="-2.228051">
        <ele>578.859</ele>
        <time>2021-03-21T07:01:45Z</time>
      </trkpt>
      <trkpt lat="43.197215" lon="-2.228016">
        <ele>578.814</ele>
        <time>2021-03-21T07:01:46Z</time>
      </trkpt>
      <trkpt lat="43.197223" lon="-2.227982">
        <ele>578.708</ele>
        <time>2021-03-21T07:01:47Z</time>
      </trkpt>
      <trkpt lat="43.197226" lon="-2.227946">
        <ele>578.651</ele>
        <time>2021-03-21T07:01:48Z</time>
      </trkpt>
      <trkpt lat="43.197234" lon="-2.227908">
        <ele>578.544</ele>
        <time>2021-03-21T07:01:49Z</time>
      </trkpt>
      <trkpt lat="43.197240" lon="-2.227870">
        <ele>578.337</ele>
        <time>2021-03-21T07:01:50Z</time>
      </trkpt>
      <trkpt lat="43.197248" lon="-2.227834">
        <ele>578.298</ele>
        <time>2021-03-21T07:01:51Z</time>
      </trkpt>
      <trkpt lat="43.197257" lon="-2.227796">
        <ele>578.125</ele>
        <time>2021-03-21T07:01:53Z</time>
      </trkpt>
      <trkpt lat="43.197277" lon="-2.227726">
        <ele>577.853</ele>
        <time>2021-03-21T07:01:54Z</time>
      </trkpt>
      <trkpt lat="43.197287" lon="-2.227689">
        <ele>577.723</ele>
        <time>2021-03-21T07:01:55Z</time>
      </trkpt>
      <trkpt lat="43.197297" lon="-2.227651">
        <ele>577.573</ele>
        <time>2021-03-21T07:01:56Z</time>
      </trkpt>
      <trkpt lat="43.197308" lon="-2.227614">
        <ele>577.443</ele>
        <time>2021-03-21T07:01:57Z</time>
      </trkpt>
      <trkpt lat="43.197318" lon="-2.227576">
        <ele>577.364</ele>
        <time>2021-03-21T07:01:58Z</time>
      </trkpt>
      <trkpt lat="43.197326" lon="-2.227539">
        <ele>577.110</ele>
        <time>2021-03-21T07:01:59Z</time>
      </trkpt>
      <trkpt lat="43.197331" lon="-2.227502">
        <ele>577.008</ele>
        <time>2021-03-21T07:02:00Z</time>
      </trkpt>
      <trkpt lat="43.197337" lon="-2.227462">
        <ele>576.920</ele>
        <time>2021-03-21T07:02:01Z</time>
      </trkpt>
      <trkpt lat="43.197344" lon="-2.227426">
        <ele>576.873</ele>
        <time>2021-03-21T07:02:02Z</time>
      </trkpt>
      <trkpt lat="43.197350" lon="-2.227390">
        <ele>576.616</ele>
        <time>2021-03-21T07:02:03Z</time>
      </trkpt>
      <trkpt lat="43.197358" lon="-2.227351">
        <ele>576.587</ele>
        <time>2021-03-21T07:02:04Z</time>
      </trkpt>
      <trkpt lat="43.197367" lon="-2.227314">
        <ele>576.384</ele>
        <time>2021-03-21T07:02:05Z</time>
      </trkpt>
      <trkpt lat="43.197374" lon="-2.227276">
        <ele>576.172</ele>
        <time>2021-03-21T07:02:06Z</time>
      </trkpt>
      <trkpt lat="43.197379" lon="-2.227238">
        <ele>575.952</ele>
        <time>2021-03-21T07:02:07Z</time>
      </trkpt>
      <trkpt lat="43.197381" lon="-2.227204">
        <ele>575.952</ele>
        <time>2021-03-21T07:02:08Z</time>
      </trkpt>
      <trkpt lat="43.197384" lon="-2.227169">
        <ele>575.989</ele>
        <time>2021-03-21T07:02:09Z</time>
      </trkpt>
      <trkpt lat="43.197383" lon="-2.227132">
        <ele>576.006</ele>
        <time>2021-03-21T07:02:10Z</time>
      </trkpt>
      <trkpt lat="43.197381" lon="-2.227096">
        <ele>576.126</ele>
        <time>2021-03-21T07:02:11Z</time>
      </trkpt>
      <trkpt lat="43.197390" lon="-2.227020">
        <ele>576.108</ele>
        <time>2021-03-21T07:02:13Z</time>
      </trkpt>
      <trkpt lat="43.197397" lon="-2.226984">
        <ele>576.154</ele>
        <time>2021-03-21T07:02:14Z</time>
      </trkpt>
      <trkpt lat="43.197403" lon="-2.226946">
        <ele>576.027</ele>
        <time>2021-03-21T07:02:15Z</time>
      </trkpt>
      <trkpt lat="43.197411" lon="-2.226910">
        <ele>576.170</ele>
        <time>2021-03-21T07:02:16Z</time>
      </trkpt>
      <trkpt lat="43.197418" lon="-2.226874">
        <ele>576.181</ele>
        <time>2021-03-21T07:02:17Z</time>
      </trkpt>
      <trkpt lat="43.197425" lon="-2.226836">
        <ele>576.258</ele>
        <time>2021-03-21T07:02:18Z</time>
      </trkpt>
      <trkpt lat="43.197434" lon="-2.226803">
        <ele>576.216</ele>
        <time>2021-03-21T07:02:19Z</time>
      </trkpt>
      <trkpt lat="43.197444" lon="-2.226770">
        <ele>576.286</ele>
        <time>2021-03-21T07:02:20Z</time>
      </trkpt>
      <trkpt lat="43.197452" lon="-2.226733">
        <ele>576.316</ele>
        <time>2021-03-21T07:02:21Z</time>
      </trkpt>
      <trkpt lat="43.197460" lon="-2.226700">
        <ele>576.375</ele>
        <time>2021-03-21T07:02:22Z</time>
      </trkpt>
      <trkpt lat="43.197467" lon="-2.226666">
        <ele>576.428</ele>
        <time>2021-03-21T07:02:23Z</time>
      </trkpt>
      <trkpt lat="43.197474" lon="-2.226632">
        <ele>576.520</ele>
        <time>2021-03-21T07:02:24Z</time>
      </trkpt>
      <trkpt lat="43.197481" lon="-2.226599">
        <ele>576.708</ele>
        <time>2021-03-21T07:02:25Z</time>
      </trkpt>
      <trkpt lat="43.197489" lon="-2.226566">
        <ele>576.863</ele>
        <time>2021-03-21T07:02:26Z</time>
      </trkpt>
      <trkpt lat="43.197497" lon="-2.226533">
        <ele>577.086</ele>
        <time>2021-03-21T07:02:27Z</time>
      </trkpt>
      <trkpt lat="43.197514" lon="-2.226463">
        <ele>577.279</ele>
        <time>2021-03-21T07:02:29Z</time>
      </trkpt>
      <trkpt lat="43.197520" lon="-2.226428">
        <ele>577.390</ele>
        <time>2021-03-21T07:02:30Z</time>
      </trkpt>
      <trkpt lat="43.197526" lon="-2.226394">
        <ele>577.447</ele>
        <time>2021-03-21T07:02:31Z</time>
      </trkpt>
      <trkpt lat="43.197533" lon="-2.226356">
        <ele>577.595</ele>
        <time>2021-03-21T07:02:32Z</time>
      </trkpt>
      <trkpt lat="43.197540" lon="-2.226321">
        <ele>577.665</ele>
        <time>2021-03-21T07:02:33Z</time>
      </trkpt>
      <trkpt lat="43.197547" lon="-2.226288">
        <ele>577.725</ele>
        <time>2021-03-21T07:02:34Z</time>
      </trkpt>
      <trkpt lat="43.197552" lon="-2.226255">
        <ele>577.873</ele>
        <time>2021-03-21T07:02:35Z</time>
      </trkpt>
      <trkpt lat="43.197559" lon="-2.226225">
        <ele>577.985</ele>
        <time>2021-03-21T07:02:36Z</time>
      </trkpt>
      <trkpt lat="43.197566" lon="-2.226197">
        <ele>578.013</ele>
        <time>2021-03-21T07:02:37Z</time>
      </trkpt>
      <trkpt lat="43.197579" lon="-2.226136">
        <ele>578.108</ele>
        <time>2021-03-21T07:02:39Z</time>
      </trkpt>
      <trkpt lat="43.197588" lon="-2.226104">
        <ele>578.123</ele>
        <time>2021-03-21T07:02:40Z</time>
      </trkpt>
      <trkpt lat="43.197598" lon="-2.226069">
        <ele>577.916</ele>
        <time>2021-03-21T07:02:41Z</time>
      </trkpt>
      <trkpt lat="43.197604" lon="-2.226035">
        <ele>577.979</ele>
        <time>2021-03-21T07:02:42Z</time>
      </trkpt>
      <trkpt lat="43.197611" lon="-2.226002">
        <ele>577.890</ele>
        <time>2021-03-21T07:02:43Z</time>
      </trkpt>
      <trkpt lat="43.197621" lon="-2.225968">
        <ele>577.617</ele>
        <time>2021-03-21T07:02:44Z</time>
      </trkpt>
      <trkpt lat="43.197628" lon="-2.225935">
        <ele>577.565</ele>
        <time>2021-03-21T07:02:45Z</time>
      </trkpt>
      <trkpt lat="43.197638" lon="-2.225859">
        <ele>577.565</ele>
        <time>2021-03-21T07:02:47Z</time>
      </trkpt>
      <trkpt lat="43.197642" lon="-2.225821">
        <ele>577.425</ele>
        <time>2021-03-21T07:02:48Z</time>
      </trkpt>
      <trkpt lat="43.197644" lon="-2.225783">
        <ele>577.469</ele>
        <time>2021-03-21T07:02:49Z</time>
      </trkpt>
      <trkpt lat="43.197650" lon="-2.225706">
        <ele>577.304</ele>
        <time>2021-03-21T07:02:51Z</time>
      </trkpt>
      <trkpt lat="43.197653" lon="-2.225670">
        <ele>577.324</ele>
        <time>2021-03-21T07:02:52Z</time>
      </trkpt>
      <trkpt lat="43.197654" lon="-2.225631">
        <ele>577.308</ele>
        <time>2021-03-21T07:02:53Z</time>
      </trkpt>
      <trkpt lat="43.197656" lon="-2.225594">
        <ele>577.382</ele>
        <time>2021-03-21T07:02:54Z</time>
      </trkpt>
      <trkpt lat="43.197660" lon="-2.225555">
        <ele>577.335</ele>
        <time>2021-03-21T07:02:55Z</time>
      </trkpt>
      <trkpt lat="43.197664" lon="-2.225517">
        <ele>577.388</ele>
        <time>2021-03-21T07:02:56Z</time>
      </trkpt>
      <trkpt lat="43.197666" lon="-2.225481">
        <ele>577.499</ele>
        <time>2021-03-21T07:02:57Z</time>
      </trkpt>
      <trkpt lat="43.197671" lon="-2.225446">
        <ele>577.486</ele>
        <time>2021-03-21T07:02:58Z</time>
      </trkpt>
      <trkpt lat="43.197677" lon="-2.225409">
        <ele>577.434</ele>
        <time>2021-03-21T07:02:59Z</time>
      </trkpt>
      <trkpt lat="43.197685" lon="-2.225374">
        <ele>577.414</ele>
        <time>2021-03-21T07:03:00Z</time>
      </trkpt>
      <trkpt lat="43.197694" lon="-2.225340">
        <ele>577.464</ele>
        <time>2021-03-21T07:03:01Z</time>
      </trkpt>
      <trkpt lat="43.197699" lon="-2.225306">
        <ele>577.585</ele>
        <time>2021-03-21T07:03:02Z</time>
      </trkpt>
      <trkpt lat="43.197709" lon="-2.225273">
        <ele>577.589</ele>
        <time>2021-03-21T07:03:03Z</time>
      </trkpt>
      <trkpt lat="43.197724" lon="-2.225242">
        <ele>577.617</ele>
        <time>2021-03-21T07:03:04Z</time>
      </trkpt>
      <trkpt lat="43.197736" lon="-2.225210">
        <ele>577.708</ele>
        <time>2021-03-21T07:03:05Z</time>
      </trkpt>
      <trkpt lat="43.197748" lon="-2.225181">
        <ele>577.874</ele>
        <time>2021-03-21T07:03:06Z</time>
      </trkpt>
      <trkpt lat="43.197765" lon="-2.225149">
        <ele>578.057</ele>
        <time>2021-03-21T07:03:07Z</time>
      </trkpt>
      <trkpt lat="43.197783" lon="-2.225118">
        <ele>578.110</ele>
        <time>2021-03-21T07:03:08Z</time>
      </trkpt>
      <trkpt lat="43.197797" lon="-2.225089">
        <ele>578.051</ele>
        <time>2021-03-21T07:03:09Z</time>
      </trkpt>
      <trkpt lat="43.197810" lon="-2.225053">
        <ele>578.058</ele>
        <time>2021-03-21T07:03:10Z</time>
      </trkpt>
      <trkpt lat="43.197821" lon="-2.225019">
        <ele>578.126</ele>
        <time>2021-03-21T07:03:11Z</time>
      </trkpt>
      <trkpt lat="43.197834" lon="-2.224982">
        <ele>577.976</ele>
        <time>2021-03-21T07:03:12Z</time>
      </trkpt>
      <trkpt lat="43.197848" lon="-2.224944">
        <ele>577.636</ele>
        <time>2021-03-21T07:03:13Z</time>
      </trkpt>
      <trkpt lat="43.197856" lon="-2.224910">
        <ele>577.546</ele>
        <time>2021-03-21T07:03:14Z</time>
      </trkpt>
      <trkpt lat="43.197863" lon="-2.224871">
        <ele>577.388</ele>
        <time>2021-03-21T07:03:15Z</time>
      </trkpt>
      <trkpt lat="43.197869" lon="-2.224830">
        <ele>577.116</ele>
        <time>2021-03-21T07:03:16Z</time>
      </trkpt>
      <trkpt lat="43.197874" lon="-2.224793">
        <ele>577.008</ele>
        <time>2021-03-21T07:03:17Z</time>
      </trkpt>
      <trkpt lat="43.197882" lon="-2.224753">
        <ele>576.960</ele>
        <time>2021-03-21T07:03:18Z</time>
      </trkpt>
      <trkpt lat="43.197889" lon="-2.224714">
        <ele>576.863</ele>
        <time>2021-03-21T07:03:19Z</time>
      </trkpt>
      <trkpt lat="43.197893" lon="-2.224678">
        <ele>576.536</ele>
        <time>2021-03-21T07:03:20Z</time>
      </trkpt>
      <trkpt lat="43.197895" lon="-2.224641">
        <ele>576.387</ele>
        <time>2021-03-21T07:03:21Z</time>
      </trkpt>
      <trkpt lat="43.197898" lon="-2.224602">
        <ele>576.084</ele>
        <time>2021-03-21T07:03:22Z</time>
      </trkpt>
      <trkpt lat="43.197901" lon="-2.224562">
        <ele>575.842</ele>
        <time>2021-03-21T07:03:23Z</time>
      </trkpt>
      <trkpt lat="43.197903" lon="-2.224520">
        <ele>575.552</ele>
        <time>2021-03-21T07:03:24Z</time>
      </trkpt>
      <trkpt lat="43.197902" lon="-2.224479">
        <ele>575.362</ele>
        <time>2021-03-21T07:03:25Z</time>
      </trkpt>
      <trkpt lat="43.197902" lon="-2.224441">
        <ele>575.189</ele>
        <time>2021-03-21T07:03:26Z</time>
      </trkpt>
      <trkpt lat="43.197900" lon="-2.224401">
        <ele>575.106</ele>
        <time>2021-03-21T07:03:27Z</time>
      </trkpt>
      <trkpt lat="43.197898" lon="-2.224361">
        <ele>575.126</ele>
        <time>2021-03-21T07:03:28Z</time>
      </trkpt>
      <trkpt lat="43.197899" lon="-2.224320">
        <ele>575.108</ele>
        <time>2021-03-21T07:03:29Z</time>
      </trkpt>
      <trkpt lat="43.197901" lon="-2.224279">
        <ele>575.054</ele>
        <time>2021-03-21T07:03:30Z</time>
      </trkpt>
      <trkpt lat="43.197904" lon="-2.224237">
        <ele>575.057</ele>
        <time>2021-03-21T07:03:31Z</time>
      </trkpt>
      <trkpt lat="43.197906" lon="-2.224198">
        <ele>575.080</ele>
        <time>2021-03-21T07:03:32Z</time>
      </trkpt>
      <trkpt lat="43.197911" lon="-2.224158">
        <ele>575.041</ele>
        <time>2021-03-21T07:03:33Z</time>
      </trkpt>
      <trkpt lat="43.197918" lon="-2.224117">
        <ele>574.858</ele>
        <time>2021-03-21T07:03:34Z</time>
      </trkpt>
      <trkpt lat="43.197928" lon="-2.224079">
        <ele>574.746</ele>
        <time>2021-03-21T07:03:35Z</time>
      </trkpt>
      <trkpt lat="43.197935" lon="-2.224040">
        <ele>574.516</ele>
        <time>2021-03-21T07:03:36Z</time>
      </trkpt>
      <trkpt lat="43.197945" lon="-2.224004">
        <ele>574.486</ele>
        <time>2021-03-21T07:03:37Z</time>
      </trkpt>
      <trkpt lat="43.197956" lon="-2.223968">
        <ele>574.326</ele>
        <time>2021-03-21T07:03:38Z</time>
      </trkpt>
      <trkpt lat="43.197967" lon="-2.223933">
        <ele>574.247</ele>
        <time>2021-03-21T07:03:39Z</time>
      </trkpt>
      <trkpt lat="43.197980" lon="-2.223899">
        <ele>574.011</ele>
        <time>2021-03-21T07:03:40Z</time>
      </trkpt>
      <trkpt lat="43.197995" lon="-2.223868">
        <ele>574.108</ele>
        <time>2021-03-21T07:03:41Z</time>
      </trkpt>
      <trkpt lat="43.198006" lon="-2.223833">
        <ele>574.298</ele>
        <time>2021-03-21T07:03:42Z</time>
      </trkpt>
      <trkpt lat="43.198014" lon="-2.223799">
        <ele>574.441</ele>
        <time>2021-03-21T07:03:43Z</time>
      </trkpt>
      <trkpt lat="43.198024" lon="-2.223762">
        <ele>574.574</ele>
        <time>2021-03-21T07:03:44Z</time>
      </trkpt>
      <trkpt lat="43.198031" lon="-2.223727">
        <ele>574.675</ele>
        <time>2021-03-21T07:03:45Z</time>
      </trkpt>
      <trkpt lat="43.198039" lon="-2.223693">
        <ele>574.792</ele>
        <time>2021-03-21T07:03:46Z</time>
      </trkpt>
      <trkpt lat="43.198050" lon="-2.223658">
        <ele>574.830</ele>
        <time>2021-03-21T07:03:47Z</time>
      </trkpt>
      <trkpt lat="43.198061" lon="-2.223623">
        <ele>574.930</ele>
        <time>2021-03-21T07:03:48Z</time>
      </trkpt>
      <trkpt lat="43.198073" lon="-2.223588">
        <ele>574.880</ele>
        <time>2021-03-21T07:03:49Z</time>
      </trkpt>
      <trkpt lat="43.198083" lon="-2.223555">
        <ele>574.786</ele>
        <time>2021-03-21T07:03:50Z</time>
      </trkpt>
      <trkpt lat="43.198095" lon="-2.223522">
        <ele>574.760</ele>
        <time>2021-03-21T07:03:51Z</time>
      </trkpt>
      <trkpt lat="43.198109" lon="-2.223487">
        <ele>574.626</ele>
        <time>2021-03-21T07:03:52Z</time>
      </trkpt>
      <trkpt lat="43.198123" lon="-2.223451">
        <ele>574.508</ele>
        <time>2021-03-21T07:03:53Z</time>
      </trkpt>
      <trkpt lat="43.198135" lon="-2.223419">
        <ele>574.524</ele>
        <time>2021-03-21T07:03:54Z</time>
      </trkpt>
      <trkpt lat="43.198147" lon="-2.223385">
        <ele>574.437</ele>
        <time>2021-03-21T07:03:55Z</time>
      </trkpt>
      <trkpt lat="43.198159" lon="-2.223349">
        <ele>574.450</ele>
        <time>2021-03-21T07:03:56Z</time>
      </trkpt>
      <trkpt lat="43.198174" lon="-2.223320">
        <ele>574.431</ele>
        <time>2021-03-21T07:03:57Z</time>
      </trkpt>
      <trkpt lat="43.198191" lon="-2.223290">
        <ele>574.498</ele>
        <time>2021-03-21T07:03:58Z</time>
      </trkpt>
      <trkpt lat="43.198207" lon="-2.223262">
        <ele>574.526</ele>
        <time>2021-03-21T07:03:59Z</time>
      </trkpt>
      <trkpt lat="43.198224" lon="-2.223231">
        <ele>574.556</ele>
        <time>2021-03-21T07:04:00Z</time>
      </trkpt>
      <trkpt lat="43.198236" lon="-2.223201">
        <ele>574.776</ele>
        <time>2021-03-21T07:04:01Z</time>
      </trkpt>
      <trkpt lat="43.198250" lon="-2.223171">
        <ele>574.895</ele>
        <time>2021-03-21T07:04:02Z</time>
      </trkpt>
      <trkpt lat="43.198264" lon="-2.223140">
        <ele>574.949</ele>
        <time>2021-03-21T07:04:03Z</time>
      </trkpt>
      <trkpt lat="43.198277" lon="-2.223107">
        <ele>575.123</ele>
        <time>2021-03-21T07:04:04Z</time>
      </trkpt>
      <trkpt lat="43.198291" lon="-2.223076">
        <ele>575.208</ele>
        <time>2021-03-21T07:04:05Z</time>
      </trkpt>
      <trkpt lat="43.198310" lon="-2.223044">
        <ele>575.445</ele>
        <time>2021-03-21T07:04:06Z</time>
      </trkpt>
      <trkpt lat="43.198329" lon="-2.223015">
        <ele>575.518</ele>
        <time>2021-03-21T07:04:07Z</time>
      </trkpt>
      <trkpt lat="43.198348" lon="-2.222988">
        <ele>575.421</ele>
        <time>2021-03-21T07:04:08Z</time>
      </trkpt>
      <trkpt lat="43.198364" lon="-2.222961">
        <ele>575.412</ele>
        <time>2021-03-21T07:04:09Z</time>
      </trkpt>
      <trkpt lat="43.198384" lon="-2.222934">
        <ele>575.399</ele>
        <time>2021-03-21T07:04:10Z</time>
      </trkpt>
      <trkpt lat="43.198404" lon="-2.222910">
        <ele>575.277</ele>
        <time>2021-03-21T07:04:11Z</time>
      </trkpt>
      <trkpt lat="43.198423" lon="-2.222887">
        <ele>575.167</ele>
        <time>2021-03-21T07:04:12Z</time>
      </trkpt>
      <trkpt lat="43.198460" lon="-2.222837">
        <ele>575.077</ele>
        <time>2021-03-21T07:04:14Z</time>
      </trkpt>
      <trkpt lat="43.198478" lon="-2.222814">
        <ele>574.931</ele>
        <time>2021-03-21T07:04:15Z</time>
      </trkpt>
      <trkpt lat="43.198498" lon="-2.222790">
        <ele>574.961</ele>
        <time>2021-03-21T07:04:16Z</time>
      </trkpt>
      <trkpt lat="43.198521" lon="-2.222769">
        <ele>574.707</ele>
        <time>2021-03-21T07:04:17Z</time>
      </trkpt>
      <trkpt lat="43.198537" lon="-2.222748">
        <ele>574.708</ele>
        <time>2021-03-21T07:04:18Z</time>
      </trkpt>
      <trkpt lat="43.198553" lon="-2.222726">
        <ele>574.839</ele>
        <time>2021-03-21T07:04:19Z</time>
      </trkpt>
      <trkpt lat="43.198574" lon="-2.222702">
        <ele>574.762</ele>
        <time>2021-03-21T07:04:20Z</time>
      </trkpt>
      <trkpt lat="43.198594" lon="-2.222678">
        <ele>574.745</ele>
        <time>2021-03-21T07:04:21Z</time>
      </trkpt>
      <trkpt lat="43.198614" lon="-2.222652">
        <ele>574.736</ele>
        <time>2021-03-21T07:04:22Z</time>
      </trkpt>
      <trkpt lat="43.198636" lon="-2.222630">
        <ele>574.583</ele>
        <time>2021-03-21T07:04:23Z</time>
      </trkpt>
      <trkpt lat="43.198657" lon="-2.222608">
        <ele>574.351</ele>
        <time>2021-03-21T07:04:24Z</time>
      </trkpt>
      <trkpt lat="43.198707" lon="-2.222559">
        <ele>573.911</ele>
        <time>2021-03-21T07:04:26Z</time>
      </trkpt>
      <trkpt lat="43.198729" lon="-2.222537">
        <ele>573.881</ele>
        <time>2021-03-21T07:04:27Z</time>
      </trkpt>
      <trkpt lat="43.198750" lon="-2.222516">
        <ele>573.778</ele>
        <time>2021-03-21T07:04:28Z</time>
      </trkpt>
      <trkpt lat="43.198776" lon="-2.222495">
        <ele>573.533</ele>
        <time>2021-03-21T07:04:29Z</time>
      </trkpt>
      <trkpt lat="43.198797" lon="-2.222472">
        <ele>573.626</ele>
        <time>2021-03-21T07:04:30Z</time>
      </trkpt>
      <trkpt lat="43.198818" lon="-2.222451">
        <ele>573.508</ele>
        <time>2021-03-21T07:04:31Z</time>
      </trkpt>
      <trkpt lat="43.198840" lon="-2.222428">
        <ele>573.633</ele>
        <time>2021-03-21T07:04:32Z</time>
      </trkpt>
      <trkpt lat="43.198856" lon="-2.222408">
        <ele>573.746</ele>
        <time>2021-03-21T07:04:33Z</time>
      </trkpt>
      <trkpt lat="43.198880" lon="-2.222382">
        <ele>573.779</ele>
        <time>2021-03-21T07:04:34Z</time>
      </trkpt>
      <trkpt lat="43.198901" lon="-2.222359">
        <ele>573.780</ele>
        <time>2021-03-21T07:04:35Z</time>
      </trkpt>
      <trkpt lat="43.198921" lon="-2.222340">
        <ele>573.687</ele>
        <time>2021-03-21T07:04:36Z</time>
      </trkpt>
      <trkpt lat="43.198944" lon="-2.222320">
        <ele>573.495</ele>
        <time>2021-03-21T07:04:37Z</time>
      </trkpt>
      <trkpt lat="43.198964" lon="-2.222299">
        <ele>573.495</ele>
        <time>2021-03-21T07:04:38Z</time>
      </trkpt>
      <trkpt lat="43.198984" lon="-2.222279">
        <ele>573.465</ele>
        <time>2021-03-21T07:04:39Z</time>
      </trkpt>
      <trkpt lat="43.199006" lon="-2.222262">
        <ele>573.487</ele>
        <time>2021-03-21T07:04:40Z</time>
      </trkpt>
      <trkpt lat="43.199033" lon="-2.222243">
        <ele>573.342</ele>
        <time>2021-03-21T07:04:41Z</time>
      </trkpt>
      <trkpt lat="43.199057" lon="-2.222227">
        <ele>573.226</ele>
        <time>2021-03-21T07:04:42Z</time>
      </trkpt>
      <trkpt lat="43.199078" lon="-2.222210">
        <ele>573.208</ele>
        <time>2021-03-21T07:04:43Z</time>
      </trkpt>
      <trkpt lat="43.199100" lon="-2.222192">
        <ele>573.274</ele>
        <time>2021-03-21T07:04:44Z</time>
      </trkpt>
      <trkpt lat="43.199123" lon="-2.222173">
        <ele>573.287</ele>
        <time>2021-03-21T07:04:45Z</time>
      </trkpt>
      <trkpt lat="43.199147" lon="-2.222152">
        <ele>573.290</ele>
        <time>2021-03-21T07:04:46Z</time>
      </trkpt>
      <trkpt lat="43.199170" lon="-2.222136">
        <ele>573.081</ele>
        <time>2021-03-21T07:04:47Z</time>
      </trkpt>
      <trkpt lat="43.199196" lon="-2.222118">
        <ele>572.548</ele>
        <time>2021-03-21T07:04:48Z</time>
      </trkpt>
      <trkpt lat="43.199218" lon="-2.222099">
        <ele>572.116</ele>
        <time>2021-03-21T07:04:49Z</time>
      </trkpt>
      <trkpt lat="43.199235" lon="-2.222081">
        <ele>572.066</ele>
        <time>2021-03-21T07:04:50Z</time>
      </trkpt>
      <trkpt lat="43.199255" lon="-2.222061">
        <ele>571.856</ele>
        <time>2021-03-21T07:04:51Z</time>
      </trkpt>
      <trkpt lat="43.199278" lon="-2.222043">
        <ele>571.559</ele>
        <time>2021-03-21T07:04:52Z</time>
      </trkpt>
      <trkpt lat="43.199299" lon="-2.222025">
        <ele>571.303</ele>
        <time>2021-03-21T07:04:53Z</time>
      </trkpt>
      <trkpt lat="43.199324" lon="-2.222005">
        <ele>571.023</ele>
        <time>2021-03-21T07:04:54Z</time>
      </trkpt>
      <trkpt lat="43.199354" lon="-2.221984">
        <ele>570.608</ele>
        <time>2021-03-21T07:04:55Z</time>
      </trkpt>
      <trkpt lat="43.199380" lon="-2.221964">
        <ele>570.421</ele>
        <time>2021-03-21T07:04:56Z</time>
      </trkpt>
      <trkpt lat="43.199402" lon="-2.221944">
        <ele>570.494</ele>
        <time>2021-03-21T07:04:57Z</time>
      </trkpt>
      <trkpt lat="43.199425" lon="-2.221928">
        <ele>570.147</ele>
        <time>2021-03-21T07:04:58Z</time>
      </trkpt>
      <trkpt lat="43.199449" lon="-2.221908">
        <ele>569.988</ele>
        <time>2021-03-21T07:04:59Z</time>
      </trkpt>
      <trkpt lat="43.199479" lon="-2.221884">
        <ele>569.255</ele>
        <time>2021-03-21T07:05:00Z</time>
      </trkpt>
      <trkpt lat="43.199506" lon="-2.221858">
        <ele>568.893</ele>
        <time>2021-03-21T07:05:01Z</time>
      </trkpt>
      <trkpt lat="43.199528" lon="-2.221832">
        <ele>568.633</ele>
        <time>2021-03-21T07:05:02Z</time>
      </trkpt>
      <trkpt lat="43.199546" lon="-2.221802">
        <ele>568.733</ele>
        <time>2021-03-21T07:05:03Z</time>
      </trkpt>
      <trkpt lat="43.199562" lon="-2.221779">
        <ele>568.765</ele>
        <time>2021-03-21T07:05:04Z</time>
      </trkpt>
      <trkpt lat="43.199582" lon="-2.221756">
        <ele>568.568</ele>
        <time>2021-03-21T07:05:05Z</time>
      </trkpt>
      <trkpt lat="43.199605" lon="-2.221725">
        <ele>568.414</ele>
        <time>2021-03-21T07:05:06Z</time>
      </trkpt>
      <trkpt lat="43.199625" lon="-2.221696">
        <ele>568.408</ele>
        <time>2021-03-21T07:05:07Z</time>
      </trkpt>
      <trkpt lat="43.199658" lon="-2.221643">
        <ele>568.312</ele>
        <time>2021-03-21T07:05:09Z</time>
      </trkpt>
      <trkpt lat="43.199680" lon="-2.221615">
        <ele>567.955</ele>
        <time>2021-03-21T07:05:10Z</time>
      </trkpt>
      <trkpt lat="43.199704" lon="-2.221581">
        <ele>567.668</ele>
        <time>2021-03-21T07:05:11Z</time>
      </trkpt>
      <trkpt lat="43.199723" lon="-2.221550">
        <ele>567.579</ele>
        <time>2021-03-21T07:05:12Z</time>
      </trkpt>
      <trkpt lat="43.199738" lon="-2.221519">
        <ele>567.366</ele>
        <time>2021-03-21T07:05:13Z</time>
      </trkpt>
      <trkpt lat="43.199749" lon="-2.221486">
        <ele>567.584</ele>
        <time>2021-03-21T07:05:14Z</time>
      </trkpt>
      <trkpt lat="43.199781" lon="-2.221332">
        <ele>568.234</ele>
        <time>2021-03-21T07:05:18Z</time>
      </trkpt>
      <trkpt lat="43.199795" lon="-2.221262">
        <ele>567.994</ele>
        <time>2021-03-21T07:05:20Z</time>
      </trkpt>
      <trkpt lat="43.199801" lon="-2.221226">
        <ele>567.823</ele>
        <time>2021-03-21T07:05:21Z</time>
      </trkpt>
      <trkpt lat="43.199807" lon="-2.221196">
        <ele>567.683</ele>
        <time>2021-03-21T07:05:22Z</time>
      </trkpt>
      <trkpt lat="43.199813" lon="-2.221161">
        <ele>567.511</ele>
        <time>2021-03-21T07:05:23Z</time>
      </trkpt>
      <trkpt lat="43.199821" lon="-2.221123">
        <ele>567.208</ele>
        <time>2021-03-21T07:05:24Z</time>
      </trkpt>
      <trkpt lat="43.199831" lon="-2.221081">
        <ele>566.788</ele>
        <time>2021-03-21T07:05:25Z</time>
      </trkpt>
      <trkpt lat="43.199847" lon="-2.221039">
        <ele>565.881</ele>
        <time>2021-03-21T07:05:26Z</time>
      </trkpt>
      <trkpt lat="43.199862" lon="-2.221000">
        <ele>564.984</ele>
        <time>2021-03-21T07:05:27Z</time>
      </trkpt>
      <trkpt lat="43.199870" lon="-2.220958">
        <ele>564.585</ele>
        <time>2021-03-21T07:05:28Z</time>
      </trkpt>
      <trkpt lat="43.199877" lon="-2.220916">
        <ele>564.182</ele>
        <time>2021-03-21T07:05:29Z</time>
      </trkpt>
      <trkpt lat="43.199900" lon="-2.220783">
        <ele>562.440</ele>
        <time>2021-03-21T07:05:32Z</time>
      </trkpt>
      <trkpt lat="43.199920" lon="-2.220656">
        <ele>560.310</ele>
        <time>2021-03-21T07:05:35Z</time>
      </trkpt>
      <trkpt lat="43.199934" lon="-2.220498">
        <ele>558.410</ele>
        <time>2021-03-21T07:05:39Z</time>
      </trkpt>
      <trkpt lat="43.199943" lon="-2.220341">
        <ele>556.787</ele>
        <time>2021-03-21T07:05:43Z</time>
      </trkpt>
      <trkpt lat="43.199952" lon="-2.220296">
        <ele>555.942</ele>
        <time>2021-03-21T07:05:44Z</time>
      </trkpt>
      <trkpt lat="43.199958" lon="-2.220249">
        <ele>555.126</ele>
        <time>2021-03-21T07:05:45Z</time>
      </trkpt>
      <trkpt lat="43.199963" lon="-2.220205">
        <ele>554.408</ele>
        <time>2021-03-21T07:05:46Z</time>
      </trkpt>
      <trkpt lat="43.199969" lon="-2.220161">
        <ele>553.654</ele>
        <time>2021-03-21T07:05:47Z</time>
      </trkpt>
      <trkpt lat="43.199975" lon="-2.220116">
        <ele>552.757</ele>
        <time>2021-03-21T07:05:48Z</time>
      </trkpt>
      <trkpt lat="43.199981" lon="-2.220075">
        <ele>552.020</ele>
        <time>2021-03-21T07:05:49Z</time>
      </trkpt>
      <trkpt lat="43.199983" lon="-2.220033">
        <ele>551.441</ele>
        <time>2021-03-21T07:05:50Z</time>
      </trkpt>
      <trkpt lat="43.199981" lon="-2.219993">
        <ele>551.168</ele>
        <time>2021-03-21T07:05:51Z</time>
      </trkpt>
      <trkpt lat="43.199976" lon="-2.219844">
        <ele>550.386</ele>
        <time>2021-03-21T07:05:54Z</time>
      </trkpt>
      <trkpt lat="43.199946" lon="-2.219697">
        <ele>551.216</ele>
        <time>2021-03-21T07:05:57Z</time>
      </trkpt>
      <trkpt lat="43.199930" lon="-2.219555">
        <ele>551.526</ele>
        <time>2021-03-21T07:06:00Z</time>
      </trkpt>
      <trkpt lat="43.199914" lon="-2.219424">
        <ele>551.959</ele>
        <time>2021-03-21T07:06:03Z</time>
      </trkpt>
      <trkpt lat="43.199904" lon="-2.219350">
        <ele>552.303</ele>
        <time>2021-03-21T07:06:05Z</time>
      </trkpt>
      <trkpt lat="43.199902" lon="-2.219319">
        <ele>552.323</ele>
        <time>2021-03-21T07:06:06Z</time>
      </trkpt>
      <trkpt lat="43.199896" lon="-2.219288">
        <ele>552.608</ele>
        <time>2021-03-21T07:06:07Z</time>
      </trkpt>
      <trkpt lat="43.199889" lon="-2.219250">
        <ele>552.811</ele>
        <time>2021-03-21T07:06:08Z</time>
      </trkpt>
      <trkpt lat="43.199880" lon="-2.219212">
        <ele>553.294</ele>
        <time>2021-03-21T07:06:09Z</time>
      </trkpt>
      <trkpt lat="43.199873" lon="-2.219169">
        <ele>553.497</ele>
        <time>2021-03-21T07:06:10Z</time>
      </trkpt>
      <trkpt lat="43.199872" lon="-2.219128">
        <ele>553.578</ele>
        <time>2021-03-21T07:06:11Z</time>
      </trkpt>
      <trkpt lat="43.199871" lon="-2.219086">
        <ele>553.715</ele>
        <time>2021-03-21T07:06:12Z</time>
      </trkpt>
      <trkpt lat="43.199875" lon="-2.219040">
        <ele>553.613</ele>
        <time>2021-03-21T07:06:13Z</time>
      </trkpt>
      <trkpt lat="43.199878" lon="-2.219000">
        <ele>553.623</ele>
        <time>2021-03-21T07:06:14Z</time>
      </trkpt>
      <trkpt lat="43.199877" lon="-2.218966">
        <ele>553.733</ele>
        <time>2021-03-21T07:06:15Z</time>
      </trkpt>
      <trkpt lat="43.199880" lon="-2.218928">
        <ele>553.733</ele>
        <time>2021-03-21T07:06:16Z</time>
      </trkpt>
      <trkpt lat="43.199889" lon="-2.218889">
        <ele>553.423</ele>
        <time>2021-03-21T07:06:17Z</time>
      </trkpt>
      <trkpt lat="43.199893" lon="-2.218851">
        <ele>553.315</ele>
        <time>2021-03-21T07:06:18Z</time>
      </trkpt>
      <trkpt lat="43.199891" lon="-2.218780">
        <ele>553.508</ele>
        <time>2021-03-21T07:06:20Z</time>
      </trkpt>
      <trkpt lat="43.199899" lon="-2.218696">
        <ele>553.499</ele>
        <time>2021-03-21T07:06:22Z</time>
      </trkpt>
      <trkpt lat="43.199904" lon="-2.218655">
        <ele>553.352</ele>
        <time>2021-03-21T07:06:23Z</time>
      </trkpt>
      <trkpt lat="43.199911" lon="-2.218614">
        <ele>553.265</ele>
        <time>2021-03-21T07:06:24Z</time>
      </trkpt>
      <trkpt lat="43.199916" lon="-2.218570">
        <ele>553.116</ele>
        <time>2021-03-21T07:06:25Z</time>
      </trkpt>
      <trkpt lat="43.199920" lon="-2.218525">
        <ele>553.043</ele>
        <time>2021-03-21T07:06:26Z</time>
      </trkpt>
      <trkpt lat="43.199920" lon="-2.218482">
        <ele>552.991</ele>
        <time>2021-03-21T07:06:27Z</time>
      </trkpt>
      <trkpt lat="43.199922" lon="-2.218438">
        <ele>552.921</ele>
        <time>2021-03-21T07:06:28Z</time>
      </trkpt>
      <trkpt lat="43.199923" lon="-2.218399">
        <ele>552.961</ele>
        <time>2021-03-21T07:06:29Z</time>
      </trkpt>
      <trkpt lat="43.199912" lon="-2.218260">
        <ele>553.065</ele>
        <time>2021-03-21T07:06:32Z</time>
      </trkpt>
      <trkpt lat="43.199909" lon="-2.218214">
        <ele>553.068</ele>
        <time>2021-03-21T07:06:33Z</time>
      </trkpt>
      <trkpt lat="43.199910" lon="-2.218086">
        <ele>553.014</ele>
        <time>2021-03-21T07:06:36Z</time>
      </trkpt>
      <trkpt lat="43.199918" lon="-2.217999">
        <ele>552.908</ele>
        <time>2021-03-21T07:06:38Z</time>
      </trkpt>
      <trkpt lat="43.199927" lon="-2.217962">
        <ele>552.852</ele>
        <time>2021-03-21T07:06:39Z</time>
      </trkpt>
      <trkpt lat="43.199937" lon="-2.217930">
        <ele>552.855</ele>
        <time>2021-03-21T07:06:40Z</time>
      </trkpt>
      <trkpt lat="43.199946" lon="-2.217896">
        <ele>552.898</ele>
        <time>2021-03-21T07:06:41Z</time>
      </trkpt>
      <trkpt lat="43.199953" lon="-2.217859">
        <ele>552.879</ele>
        <time>2021-03-21T07:06:42Z</time>
      </trkpt>
      <trkpt lat="43.199962" lon="-2.217825">
        <ele>552.896</ele>
        <time>2021-03-21T07:06:43Z</time>
      </trkpt>
      <trkpt lat="43.199996" lon="-2.217677">
        <ele>552.664</ele>
        <time>2021-03-21T07:06:47Z</time>
      </trkpt>
      <trkpt lat="43.200007" lon="-2.217646">
        <ele>552.414</ele>
        <time>2021-03-21T07:06:48Z</time>
      </trkpt>
      <trkpt lat="43.200021" lon="-2.217613">
        <ele>552.074</ele>
        <time>2021-03-21T07:06:49Z</time>
      </trkpt>
      <trkpt lat="43.200033" lon="-2.217574">
        <ele>551.773</ele>
        <time>2021-03-21T07:06:50Z</time>
      </trkpt>
      <trkpt lat="43.200046" lon="-2.217532">
        <ele>551.485</ele>
        <time>2021-03-21T07:06:51Z</time>
      </trkpt>
      <trkpt lat="43.200083" lon="-2.217418">
        <ele>550.613</ele>
        <time>2021-03-21T07:06:54Z</time>
      </trkpt>
      <trkpt lat="43.200122" lon="-2.217294">
        <ele>550.108</ele>
        <time>2021-03-21T07:06:57Z</time>
      </trkpt>
      <trkpt lat="43.200159" lon="-2.217192">
        <ele>550.013</ele>
        <time>2021-03-21T07:07:00Z</time>
      </trkpt>
      <trkpt lat="43.200178" lon="-2.217156">
        <ele>550.036</ele>
        <time>2021-03-21T07:07:01Z</time>
      </trkpt>
      <trkpt lat="43.200187" lon="-2.217121">
        <ele>550.049</ele>
        <time>2021-03-21T07:07:02Z</time>
      </trkpt>
      <trkpt lat="43.200186" lon="-2.217083">
        <ele>550.060</ele>
        <time>2021-03-21T07:07:03Z</time>
      </trkpt>
      <trkpt lat="43.200182" lon="-2.217046">
        <ele>550.057</ele>
        <time>2021-03-21T07:07:04Z</time>
      </trkpt>
      <trkpt lat="43.200178" lon="-2.217008">
        <ele>549.925</ele>
        <time>2021-03-21T07:07:05Z</time>
      </trkpt>
      <trkpt lat="43.200179" lon="-2.216969">
        <ele>549.915</ele>
        <time>2021-03-21T07:07:06Z</time>
      </trkpt>
      <trkpt lat="43.200188" lon="-2.216939">
        <ele>550.055</ele>
        <time>2021-03-21T07:07:07Z</time>
      </trkpt>
      <trkpt lat="43.200230" lon="-2.216836">
        <ele>549.856</ele>
        <time>2021-03-21T07:07:10Z</time>
      </trkpt>
      <trkpt lat="43.200243" lon="-2.216799">
        <ele>549.659</ele>
        <time>2021-03-21T07:07:11Z</time>
      </trkpt>
      <trkpt lat="43.200250" lon="-2.216768">
        <ele>549.514</ele>
        <time>2021-03-21T07:07:12Z</time>
      </trkpt>
      <trkpt lat="43.200260" lon="-2.216735">
        <ele>549.308</ele>
        <time>2021-03-21T07:07:13Z</time>
      </trkpt>
      <trkpt lat="43.200273" lon="-2.216699">
        <ele>549.241</ele>
        <time>2021-03-21T07:07:14Z</time>
      </trkpt>
      <trkpt lat="43.200286" lon="-2.216664">
        <ele>548.984</ele>
        <time>2021-03-21T07:07:15Z</time>
      </trkpt>
      <trkpt lat="43.200336" lon="-2.216520">
        <ele>547.347</ele>
        <time>2021-03-21T07:07:19Z</time>
      </trkpt>
      <trkpt lat="43.200380" lon="-2.216371">
        <ele>546.218</ele>
        <time>2021-03-21T07:07:23Z</time>
      </trkpt>
      <trkpt lat="43.200397" lon="-2.216340">
        <ele>546.125</ele>
        <time>2021-03-21T07:07:24Z</time>
      </trkpt>
      <trkpt lat="43.200414" lon="-2.216306">
        <ele>546.033</ele>
        <time>2021-03-21T07:07:25Z</time>
      </trkpt>
      <trkpt lat="43.200428" lon="-2.216269">
        <ele>546.073</ele>
        <time>2021-03-21T07:07:26Z</time>
      </trkpt>
      <trkpt lat="43.200441" lon="-2.216234">
        <ele>545.983</ele>
        <time>2021-03-21T07:07:27Z</time>
      </trkpt>
      <trkpt lat="43.200452" lon="-2.216197">
        <ele>545.992</ele>
        <time>2021-03-21T07:07:28Z</time>
      </trkpt>
      <trkpt lat="43.200462" lon="-2.216163">
        <ele>545.973</ele>
        <time>2021-03-21T07:07:29Z</time>
      </trkpt>
      <trkpt lat="43.200471" lon="-2.216132">
        <ele>546.020</ele>
        <time>2021-03-21T07:07:30Z</time>
      </trkpt>
      <trkpt lat="43.200493" lon="-2.216039">
        <ele>546.208</ele>
        <time>2021-03-21T07:07:33Z</time>
      </trkpt>
      <trkpt lat="43.200528" lon="-2.215956">
        <ele>546.525</ele>
        <time>2021-03-21T07:07:36Z</time>
      </trkpt>
      <trkpt lat="43.200574" lon="-2.215815">
        <ele>546.998</ele>
        <time>2021-03-21T07:07:40Z</time>
      </trkpt>
      <trkpt lat="43.200590" lon="-2.215781">
        <ele>546.811</ele>
        <time>2021-03-21T07:07:41Z</time>
      </trkpt>
      <trkpt lat="43.200643" lon="-2.215642">
        <ele>547.022</ele>
        <time>2021-03-21T07:07:45Z</time>
      </trkpt>
      <trkpt lat="43.200671" lon="-2.215495">
        <ele>547.349</ele>
        <time>2021-03-21T07:07:49Z</time>
      </trkpt>
      <trkpt lat="43.200696" lon="-2.215360">
        <ele>547.117</ele>
        <time>2021-03-21T07:07:53Z</time>
      </trkpt>
      <trkpt lat="43.200712" lon="-2.215232">
        <ele>546.617</ele>
        <time>2021-03-21T07:07:56Z</time>
      </trkpt>
      <trkpt lat="43.200705" lon="-2.215136">
        <ele>545.977</ele>
        <time>2021-03-21T07:07:58Z</time>
      </trkpt>
      <trkpt lat="43.200696" lon="-2.215094">
        <ele>545.756</ele>
        <time>2021-03-21T07:07:59Z</time>
      </trkpt>
      <trkpt lat="43.200686" lon="-2.215055">
        <ele>545.459</ele>
        <time>2021-03-21T07:08:00Z</time>
      </trkpt>
      <trkpt lat="43.200676" lon="-2.215017">
        <ele>545.214</ele>
        <time>2021-03-21T07:08:01Z</time>
      </trkpt>
      <trkpt lat="43.200665" lon="-2.214977">
        <ele>544.908</ele>
        <time>2021-03-21T07:08:02Z</time>
      </trkpt>
      <trkpt lat="43.200652" lon="-2.214933">
        <ele>544.391</ele>
        <time>2021-03-21T07:08:03Z</time>
      </trkpt>
      <trkpt lat="43.200638" lon="-2.214891">
        <ele>543.824</ele>
        <time>2021-03-21T07:08:04Z</time>
      </trkpt>
      <trkpt lat="43.200623" lon="-2.214855">
        <ele>543.437</ele>
        <time>2021-03-21T07:08:05Z</time>
      </trkpt>
      <trkpt lat="43.200606" lon="-2.214816">
        <ele>543.028</ele>
        <time>2021-03-21T07:08:06Z</time>
      </trkpt>
      <trkpt lat="43.200589" lon="-2.214775">
        <ele>542.515</ele>
        <time>2021-03-21T07:08:07Z</time>
      </trkpt>
      <trkpt lat="43.200576" lon="-2.214735">
        <ele>542.073</ele>
        <time>2021-03-21T07:08:08Z</time>
      </trkpt>
      <trkpt lat="43.200557" lon="-2.214696">
        <ele>541.783</ele>
        <time>2021-03-21T07:08:09Z</time>
      </trkpt>
      <trkpt lat="43.200537" lon="-2.214657">
        <ele>541.113</ele>
        <time>2021-03-21T07:08:10Z</time>
      </trkpt>
      <trkpt lat="43.200514" lon="-2.214622">
        <ele>540.618</ele>
        <time>2021-03-21T07:08:11Z</time>
      </trkpt>
      <trkpt lat="43.200496" lon="-2.214585">
        <ele>540.298</ele>
        <time>2021-03-21T07:08:12Z</time>
      </trkpt>
      <trkpt lat="43.200478" lon="-2.214515">
        <ele>539.517</ele>
        <time>2021-03-21T07:08:14Z</time>
      </trkpt>
      <trkpt lat="43.200461" lon="-2.214482">
        <ele>539.308</ele>
        <time>2021-03-21T07:08:15Z</time>
      </trkpt>
      <trkpt lat="43.200438" lon="-2.214449">
        <ele>539.027</ele>
        <time>2021-03-21T07:08:16Z</time>
      </trkpt>
      <trkpt lat="43.200417" lon="-2.214411">
        <ele>538.760</ele>
        <time>2021-03-21T07:08:17Z</time>
      </trkpt>
      <trkpt lat="43.200398" lon="-2.214379">
        <ele>538.533</ele>
        <time>2021-03-21T07:08:18Z</time>
      </trkpt>
      <trkpt lat="43.200380" lon="-2.214347">
        <ele>538.364</ele>
        <time>2021-03-21T07:08:19Z</time>
      </trkpt>
      <trkpt lat="43.200367" lon="-2.214311">
        <ele>538.121</ele>
        <time>2021-03-21T07:08:20Z</time>
      </trkpt>
      <trkpt lat="43.200356" lon="-2.214273">
        <ele>537.929</ele>
        <time>2021-03-21T07:08:21Z</time>
      </trkpt>
      <trkpt lat="43.200346" lon="-2.214233">
        <ele>537.729</ele>
        <time>2021-03-21T07:08:22Z</time>
      </trkpt>
      <trkpt lat="43.200335" lon="-2.214194">
        <ele>537.579</ele>
        <time>2021-03-21T07:08:23Z</time>
      </trkpt>
      <trkpt lat="43.200331" lon="-2.214151">
        <ele>537.239</ele>
        <time>2021-03-21T07:08:24Z</time>
      </trkpt>
      <trkpt lat="43.200322" lon="-2.214111">
        <ele>536.601</ele>
        <time>2021-03-21T07:08:25Z</time>
      </trkpt>
      <trkpt lat="43.200314" lon="-2.214072">
        <ele>536.121</ele>
        <time>2021-03-21T07:08:26Z</time>
      </trkpt>
      <trkpt lat="43.200311" lon="-2.214030">
        <ele>535.508</ele>
        <time>2021-03-21T07:08:27Z</time>
      </trkpt>
      <trkpt lat="43.200310" lon="-2.213991">
        <ele>534.929</ele>
        <time>2021-03-21T07:08:28Z</time>
      </trkpt>
      <trkpt lat="43.200307" lon="-2.213959">
        <ele>534.532</ele>
        <time>2021-03-21T07:08:29Z</time>
      </trkpt>
      <trkpt lat="43.200302" lon="-2.213922">
        <ele>534.025</ele>
        <time>2021-03-21T07:08:30Z</time>
      </trkpt>
      <trkpt lat="43.200296" lon="-2.213882">
        <ele>533.536</ele>
        <time>2021-03-21T07:08:31Z</time>
      </trkpt>
      <trkpt lat="43.200297" lon="-2.213847">
        <ele>532.813</ele>
        <time>2021-03-21T07:08:32Z</time>
      </trkpt>
      <trkpt lat="43.200301" lon="-2.213808">
        <ele>532.011</ele>
        <time>2021-03-21T07:08:33Z</time>
      </trkpt>
      <trkpt lat="43.200310" lon="-2.213773">
        <ele>531.221</ele>
        <time>2021-03-21T07:08:34Z</time>
      </trkpt>
      <trkpt lat="43.200317" lon="-2.213740">
        <ele>530.461</ele>
        <time>2021-03-21T07:08:35Z</time>
      </trkpt>
      <trkpt lat="43.200323" lon="-2.213702">
        <ele>529.584</ele>
        <time>2021-03-21T07:08:36Z</time>
      </trkpt>
      <trkpt lat="43.200332" lon="-2.213666">
        <ele>528.707</ele>
        <time>2021-03-21T07:08:37Z</time>
      </trkpt>
      <trkpt lat="43.200335" lon="-2.213625">
        <ele>527.817</ele>
        <time>2021-03-21T07:08:38Z</time>
      </trkpt>
      <trkpt lat="43.200335" lon="-2.213586">
        <ele>527.108</ele>
        <time>2021-03-21T07:08:39Z</time>
      </trkpt>
      <trkpt lat="43.200333" lon="-2.213541">
        <ele>526.434</ele>
        <time>2021-03-21T07:08:40Z</time>
      </trkpt>
      <trkpt lat="43.200327" lon="-2.213490">
        <ele>525.737</ele>
        <time>2021-03-21T07:08:41Z</time>
      </trkpt>
      <trkpt lat="43.200323" lon="-2.213444">
        <ele>525.070</ele>
        <time>2021-03-21T07:08:42Z</time>
      </trkpt>
      <trkpt lat="43.200312" lon="-2.213394">
        <ele>524.391</ele>
        <time>2021-03-21T07:08:43Z</time>
      </trkpt>
      <trkpt lat="43.200306" lon="-2.213348">
        <ele>523.668</ele>
        <time>2021-03-21T07:08:44Z</time>
      </trkpt>
      <trkpt lat="43.200298" lon="-2.213310">
        <ele>523.216</ele>
        <time>2021-03-21T07:08:45Z</time>
      </trkpt>
      <trkpt lat="43.200294" lon="-2.213267">
        <ele>522.756</ele>
        <time>2021-03-21T07:08:46Z</time>
      </trkpt>
      <trkpt lat="43.200282" lon="-2.213229">
        <ele>522.416</ele>
        <time>2021-03-21T07:08:47Z</time>
      </trkpt>
      <trkpt lat="43.200272" lon="-2.213192">
        <ele>522.026</ele>
        <time>2021-03-21T07:08:48Z</time>
      </trkpt>
      <trkpt lat="43.200264" lon="-2.213152">
        <ele>521.547</ele>
        <time>2021-03-21T07:08:49Z</time>
      </trkpt>
      <trkpt lat="43.200262" lon="-2.213118">
        <ele>521.011</ele>
        <time>2021-03-21T07:08:50Z</time>
      </trkpt>
      <trkpt lat="43.200262" lon="-2.213080">
        <ele>520.508</ele>
        <time>2021-03-21T07:08:51Z</time>
      </trkpt>
      <trkpt lat="43.200265" lon="-2.213039">
        <ele>519.878</ele>
        <time>2021-03-21T07:08:52Z</time>
      </trkpt>
      <trkpt lat="43.200269" lon="-2.212997">
        <ele>519.091</ele>
        <time>2021-03-21T07:08:53Z</time>
      </trkpt>
      <trkpt lat="43.200275" lon="-2.212956">
        <ele>518.264</ele>
        <time>2021-03-21T07:08:54Z</time>
      </trkpt>
      <trkpt lat="43.200286" lon="-2.212916">
        <ele>517.315</ele>
        <time>2021-03-21T07:08:55Z</time>
      </trkpt>
      <trkpt lat="43.200295" lon="-2.212877">
        <ele>516.422</ele>
        <time>2021-03-21T07:08:56Z</time>
      </trkpt>
      <trkpt lat="43.200302" lon="-2.212839">
        <ele>515.660</ele>
        <time>2021-03-21T07:08:57Z</time>
      </trkpt>
      <trkpt lat="43.200301" lon="-2.212801">
        <ele>514.930</ele>
        <time>2021-03-21T07:08:58Z</time>
      </trkpt>
      <trkpt lat="43.200301" lon="-2.212765">
        <ele>514.380</ele>
        <time>2021-03-21T07:08:59Z</time>
      </trkpt>
      <trkpt lat="43.200302" lon="-2.212727">
        <ele>513.641</ele>
        <time>2021-03-21T07:09:00Z</time>
      </trkpt>
      <trkpt lat="43.200302" lon="-2.212690">
        <ele>512.981</ele>
        <time>2021-03-21T07:09:01Z</time>
      </trkpt>
      <trkpt lat="43.200308" lon="-2.212655">
        <ele>512.209</ele>
        <time>2021-03-21T07:09:02Z</time>
      </trkpt>
      <trkpt lat="43.200316" lon="-2.212618">
        <ele>511.408</ele>
        <time>2021-03-21T07:09:03Z</time>
      </trkpt>
      <trkpt lat="43.200319" lon="-2.212578">
        <ele>510.670</ele>
        <time>2021-03-21T07:09:04Z</time>
      </trkpt>
      <trkpt lat="43.200323" lon="-2.212534">
        <ele>509.813</ele>
        <time>2021-03-21T07:09:05Z</time>
      </trkpt>
      <trkpt lat="43.200320" lon="-2.212448">
        <ele>508.736</ele>
        <time>2021-03-21T07:09:07Z</time>
      </trkpt>
      <trkpt lat="43.200311" lon="-2.212410">
        <ele>508.547</ele>
        <time>2021-03-21T07:09:08Z</time>
      </trkpt>
      <trkpt lat="43.200300" lon="-2.212366">
        <ele>508.244</ele>
        <time>2021-03-21T07:09:09Z</time>
      </trkpt>
      <trkpt lat="43.200289" lon="-2.212324">
        <ele>507.972</ele>
        <time>2021-03-21T07:09:10Z</time>
      </trkpt>
      <trkpt lat="43.200280" lon="-2.212282">
        <ele>507.612</ele>
        <time>2021-03-21T07:09:11Z</time>
      </trkpt>
      <trkpt lat="43.200266" lon="-2.212243">
        <ele>507.372</ele>
        <time>2021-03-21T07:09:12Z</time>
      </trkpt>
      <trkpt lat="43.200258" lon="-2.212209">
        <ele>507.131</ele>
        <time>2021-03-21T07:09:13Z</time>
      </trkpt>
      <trkpt lat="43.200254" lon="-2.212172">
        <ele>507.061</ele>
        <time>2021-03-21T07:09:14Z</time>
      </trkpt>
      <trkpt lat="43.200254" lon="-2.212132">
        <ele>506.807</ele>
        <time>2021-03-21T07:09:15Z</time>
      </trkpt>
      <trkpt lat="43.200252" lon="-2.212086">
        <ele>506.608</ele>
        <time>2021-03-21T07:09:16Z</time>
      </trkpt>
      <trkpt lat="43.200252" lon="-2.212037">
        <ele>506.549</ele>
        <time>2021-03-21T07:09:17Z</time>
      </trkpt>
      <trkpt lat="43.200249" lon="-2.211987">
        <ele>506.312</ele>
        <time>2021-03-21T07:09:18Z</time>
      </trkpt>
      <trkpt lat="43.200251" lon="-2.211943">
        <ele>506.115</ele>
        <time>2021-03-21T07:09:19Z</time>
      </trkpt>
      <trkpt lat="43.200253" lon="-2.211902">
        <ele>506.296</ele>
        <time>2021-03-21T07:09:20Z</time>
      </trkpt>
      <trkpt lat="43.200255" lon="-2.211863">
        <ele>506.383</ele>
        <time>2021-03-21T07:09:21Z</time>
      </trkpt>
      <trkpt lat="43.200255" lon="-2.211826">
        <ele>506.431</ele>
        <time>2021-03-21T07:09:22Z</time>
      </trkpt>
      <trkpt lat="43.200252" lon="-2.211753">
        <ele>506.611</ele>
        <time>2021-03-21T07:09:24Z</time>
      </trkpt>
      <trkpt lat="43.200250" lon="-2.211713">
        <ele>506.781</ele>
        <time>2021-03-21T07:09:25Z</time>
      </trkpt>
      <trkpt lat="43.200248" lon="-2.211669">
        <ele>506.873</ele>
        <time>2021-03-21T07:09:26Z</time>
      </trkpt>
      <trkpt lat="43.200245" lon="-2.211628">
        <ele>506.685</ele>
        <time>2021-03-21T07:09:27Z</time>
      </trkpt>
      <trkpt lat="43.200241" lon="-2.211589">
        <ele>506.513</ele>
        <time>2021-03-21T07:09:28Z</time>
      </trkpt>
      <trkpt lat="43.200235" lon="-2.211549">
        <ele>506.308</ele>
        <time>2021-03-21T07:09:29Z</time>
      </trkpt>
      <trkpt lat="43.200232" lon="-2.211510">
        <ele>506.283</ele>
        <time>2021-03-21T07:09:30Z</time>
      </trkpt>
      <trkpt lat="43.200229" lon="-2.211472">
        <ele>506.196</ele>
        <time>2021-03-21T07:09:31Z</time>
      </trkpt>
      <trkpt lat="43.200226" lon="-2.211434">
        <ele>505.979</ele>
        <time>2021-03-21T07:09:32Z</time>
      </trkpt>
      <trkpt lat="43.200226" lon="-2.211397">
        <ele>505.810</ele>
        <time>2021-03-21T07:09:33Z</time>
      </trkpt>
      <trkpt lat="43.200226" lon="-2.211358">
        <ele>505.887</ele>
        <time>2021-03-21T07:09:34Z</time>
      </trkpt>
      <trkpt lat="43.200223" lon="-2.211321">
        <ele>505.885</ele>
        <time>2021-03-21T07:09:35Z</time>
      </trkpt>
      <trkpt lat="43.200217" lon="-2.211287">
        <ele>505.865</ele>
        <time>2021-03-21T07:09:36Z</time>
      </trkpt>
      <trkpt lat="43.200216" lon="-2.211248">
        <ele>505.825</ele>
        <time>2021-03-21T07:09:37Z</time>
      </trkpt>
      <trkpt lat="43.200216" lon="-2.211211">
        <ele>505.834</ele>
        <time>2021-03-21T07:09:38Z</time>
      </trkpt>
      <trkpt lat="43.200216" lon="-2.211171">
        <ele>505.855</ele>
        <time>2021-03-21T07:09:39Z</time>
      </trkpt>
      <trkpt lat="43.200214" lon="-2.211130">
        <ele>505.810</ele>
        <time>2021-03-21T07:09:40Z</time>
      </trkpt>
      <trkpt lat="43.200213" lon="-2.211093">
        <ele>505.808</ele>
        <time>2021-03-21T07:09:41Z</time>
      </trkpt>
      <trkpt lat="43.200213" lon="-2.211057">
        <ele>505.729</ele>
        <time>2021-03-21T07:09:42Z</time>
      </trkpt>
      <trkpt lat="43.200212" lon="-2.211020">
        <ele>505.752</ele>
        <time>2021-03-21T07:09:43Z</time>
      </trkpt>
      <trkpt lat="43.200211" lon="-2.210985">
        <ele>505.615</ele>
        <time>2021-03-21T07:09:44Z</time>
      </trkpt>
      <trkpt lat="43.200212" lon="-2.210915">
        <ele>505.656</ele>
        <time>2021-03-21T07:09:46Z</time>
      </trkpt>
      <trkpt lat="43.200213" lon="-2.210883">
        <ele>505.623</ele>
        <time>2021-03-21T07:09:47Z</time>
      </trkpt>
      <trkpt lat="43.200209" lon="-2.210823">
        <ele>505.511</ele>
        <time>2021-03-21T07:09:49Z</time>
      </trkpt>
      <trkpt lat="43.200208" lon="-2.210789">
        <ele>505.571</ele>
        <time>2021-03-21T07:09:50Z</time>
      </trkpt>
      <trkpt lat="43.200213" lon="-2.210754">
        <ele>505.521</ele>
        <time>2021-03-21T07:09:51Z</time>
      </trkpt>
      <trkpt lat="43.200217" lon="-2.210718">
        <ele>505.637</ele>
        <time>2021-03-21T07:09:52Z</time>
      </trkpt>
      <trkpt lat="43.200216" lon="-2.210680">
        <ele>505.649</ele>
        <time>2021-03-21T07:09:53Z</time>
      </trkpt>
      <trkpt lat="43.200215" lon="-2.210646">
        <ele>505.513</ele>
        <time>2021-03-21T07:09:54Z</time>
      </trkpt>
      <trkpt lat="43.200214" lon="-2.210612">
        <ele>505.508</ele>
        <time>2021-03-21T07:09:55Z</time>
      </trkpt>
      <trkpt lat="43.200213" lon="-2.210576">
        <ele>505.559</ele>
        <time>2021-03-21T07:09:56Z</time>
      </trkpt>
      <trkpt lat="43.200215" lon="-2.210540">
        <ele>505.532</ele>
        <time>2021-03-21T07:09:57Z</time>
      </trkpt>
      <trkpt lat="43.200217" lon="-2.210500">
        <ele>505.665</ele>
        <time>2021-03-21T07:09:58Z</time>
      </trkpt>
      <trkpt lat="43.200218" lon="-2.210459">
        <ele>505.616</ele>
        <time>2021-03-21T07:09:59Z</time>
      </trkpt>
      <trkpt lat="43.200218" lon="-2.210419">
        <ele>505.683</ele>
        <time>2021-03-21T07:10:00Z</time>
      </trkpt>
      <trkpt lat="43.200216" lon="-2.210378">
        <ele>505.681</ele>
        <time>2021-03-21T07:10:01Z</time>
      </trkpt>
      <trkpt lat="43.200214" lon="-2.210340">
        <ele>505.551</ele>
        <time>2021-03-21T07:10:02Z</time>
      </trkpt>
      <trkpt lat="43.200214" lon="-2.210301">
        <ele>505.511</ele>
        <time>2021-03-21T07:10:03Z</time>
      </trkpt>
      <trkpt lat="43.200210" lon="-2.210264">
        <ele>505.696</ele>
        <time>2021-03-21T07:10:04Z</time>
      </trkpt>
      <trkpt lat="43.200209" lon="-2.210229">
        <ele>505.931</ele>
        <time>2021-03-21T07:10:05Z</time>
      </trkpt>
      <trkpt lat="43.200210" lon="-2.210194">
        <ele>506.124</ele>
        <time>2021-03-21T07:10:06Z</time>
      </trkpt>
      <trkpt lat="43.200212" lon="-2.210161">
        <ele>506.408</ele>
        <time>2021-03-21T07:10:07Z</time>
      </trkpt>
      <trkpt lat="43.200214" lon="-2.210128">
        <ele>506.695</ele>
        <time>2021-03-21T07:10:08Z</time>
      </trkpt>
      <trkpt lat="43.200212" lon="-2.210094">
        <ele>506.918</ele>
        <time>2021-03-21T07:10:09Z</time>
      </trkpt>
      <trkpt lat="43.200211" lon="-2.210060">
        <ele>507.151</ele>
        <time>2021-03-21T07:10:10Z</time>
      </trkpt>
      <trkpt lat="43.200210" lon="-2.210029">
        <ele>507.342</ele>
        <time>2021-03-21T07:10:11Z</time>
      </trkpt>
      <trkpt lat="43.200210" lon="-2.209995">
        <ele>507.629</ele>
        <time>2021-03-21T07:10:12Z</time>
      </trkpt>
      <trkpt lat="43.200210" lon="-2.209964">
        <ele>507.917</ele>
        <time>2021-03-21T07:10:13Z</time>
      </trkpt>
      <trkpt lat="43.200210" lon="-2.209935">
        <ele>508.247</ele>
        <time>2021-03-21T07:10:14Z</time>
      </trkpt>
      <trkpt lat="43.200209" lon="-2.209901">
        <ele>508.547</ele>
        <time>2021-03-21T07:10:15Z</time>
      </trkpt>
      <trkpt lat="43.200212" lon="-2.209867">
        <ele>508.823</ele>
        <time>2021-03-21T07:10:16Z</time>
      </trkpt>
      <trkpt lat="43.200212" lon="-2.209834">
        <ele>509.283</ele>
        <time>2021-03-21T07:10:17Z</time>
      </trkpt>
      <trkpt lat="43.200208" lon="-2.209801">
        <ele>509.511</ele>
        <time>2021-03-21T07:10:18Z</time>
      </trkpt>
      <trkpt lat="43.200208" lon="-2.209769">
        <ele>509.808</ele>
        <time>2021-03-21T07:10:19Z</time>
      </trkpt>
      <trkpt lat="43.200208" lon="-2.209736">
        <ele>510.128</ele>
        <time>2021-03-21T07:10:20Z</time>
      </trkpt>
      <trkpt lat="43.200202" lon="-2.209671">
        <ele>510.221</ele>
        <time>2021-03-21T07:10:22Z</time>
      </trkpt>
      <trkpt lat="43.200200" lon="-2.209640">
        <ele>510.274</ele>
        <time>2021-03-21T07:10:23Z</time>
      </trkpt>
      <trkpt lat="43.200200" lon="-2.209606">
        <ele>510.365</ele>
        <time>2021-03-21T07:10:24Z</time>
      </trkpt>
      <trkpt lat="43.200201" lon="-2.209573">
        <ele>510.382</ele>
        <time>2021-03-21T07:10:25Z</time>
      </trkpt>
      <trkpt lat="43.200199" lon="-2.209538">
        <ele>510.310</ele>
        <time>2021-03-21T07:10:26Z</time>
      </trkpt>
      <trkpt lat="43.200201" lon="-2.209502">
        <ele>510.470</ele>
        <time>2021-03-21T07:10:27Z</time>
      </trkpt>
      <trkpt lat="43.200202" lon="-2.209468">
        <ele>510.430</ele>
        <time>2021-03-21T07:10:28Z</time>
      </trkpt>
      <trkpt lat="43.200202" lon="-2.209432">
        <ele>510.542</ele>
        <time>2021-03-21T07:10:29Z</time>
      </trkpt>
      <trkpt lat="43.200203" lon="-2.209397">
        <ele>510.522</ele>
        <time>2021-03-21T07:10:30Z</time>
      </trkpt>
      <trkpt lat="43.200202" lon="-2.209365">
        <ele>510.514</ele>
        <time>2021-03-21T07:10:31Z</time>
      </trkpt>
      <trkpt lat="43.200199" lon="-2.209331">
        <ele>510.408</ele>
        <time>2021-03-21T07:10:32Z</time>
      </trkpt>
      <trkpt lat="43.200197" lon="-2.209298">
        <ele>510.480</ele>
        <time>2021-03-21T07:10:33Z</time>
      </trkpt>
      <trkpt lat="43.200197" lon="-2.209263">
        <ele>510.493</ele>
        <time>2021-03-21T07:10:34Z</time>
      </trkpt>
      <trkpt lat="43.200196" lon="-2.209225">
        <ele>510.446</ele>
        <time>2021-03-21T07:10:35Z</time>
      </trkpt>
      <trkpt lat="43.200194" lon="-2.209188">
        <ele>510.437</ele>
        <time>2021-03-21T07:10:36Z</time>
      </trkpt>
      <trkpt lat="43.200194" lon="-2.209148">
        <ele>510.354</ele>
        <time>2021-03-21T07:10:37Z</time>
      </trkpt>
      <trkpt lat="43.200194" lon="-2.209107">
        <ele>510.132</ele>
        <time>2021-03-21T07:10:38Z</time>
      </trkpt>
      <trkpt lat="43.200194" lon="-2.209069">
        <ele>509.912</ele>
        <time>2021-03-21T07:10:39Z</time>
      </trkpt>
      <trkpt lat="43.200194" lon="-2.209030">
        <ele>509.852</ele>
        <time>2021-03-21T07:10:40Z</time>
      </trkpt>
      <trkpt lat="43.200192" lon="-2.208990">
        <ele>509.686</ele>
        <time>2021-03-21T07:10:41Z</time>
      </trkpt>
      <trkpt lat="43.200193" lon="-2.208951">
        <ele>509.460</ele>
        <time>2021-03-21T07:10:42Z</time>
      </trkpt>
      <trkpt lat="43.200196" lon="-2.208910">
        <ele>509.226</ele>
        <time>2021-03-21T07:10:43Z</time>
      </trkpt>
      <trkpt lat="43.200198" lon="-2.208867">
        <ele>509.108</ele>
        <time>2021-03-21T07:10:44Z</time>
      </trkpt>
      <trkpt lat="43.200199" lon="-2.208824">
        <ele>508.964</ele>
        <time>2021-03-21T07:10:45Z</time>
      </trkpt>
      <trkpt lat="43.200203" lon="-2.208784">
        <ele>508.827</ele>
        <time>2021-03-21T07:10:46Z</time>
      </trkpt>
      <trkpt lat="43.200205" lon="-2.208742">
        <ele>508.740</ele>
        <time>2021-03-21T07:10:47Z</time>
      </trkpt>
      <trkpt lat="43.200208" lon="-2.208700">
        <ele>508.611</ele>
        <time>2021-03-21T07:10:48Z</time>
      </trkpt>
      <trkpt lat="43.200209" lon="-2.208656">
        <ele>508.438</ele>
        <time>2021-03-21T07:10:49Z</time>
      </trkpt>
      <trkpt lat="43.200210" lon="-2.208613">
        <ele>508.356</ele>
        <time>2021-03-21T07:10:50Z</time>
      </trkpt>
      <trkpt lat="43.200213" lon="-2.208573">
        <ele>508.436</ele>
        <time>2021-03-21T07:10:51Z</time>
      </trkpt>
      <trkpt lat="43.200218" lon="-2.208535">
        <ele>508.616</ele>
        <time>2021-03-21T07:10:52Z</time>
      </trkpt>
      <trkpt lat="43.200223" lon="-2.208496">
        <ele>508.776</ele>
        <time>2021-03-21T07:10:53Z</time>
      </trkpt>
      <trkpt lat="43.200224" lon="-2.208460">
        <ele>508.990</ele>
        <time>2021-03-21T07:10:54Z</time>
      </trkpt>
      <trkpt lat="43.200227" lon="-2.208421">
        <ele>509.019</ele>
        <time>2021-03-21T07:10:55Z</time>
      </trkpt>
      <trkpt lat="43.200227" lon="-2.208382">
        <ele>509.108</ele>
        <time>2021-03-21T07:10:56Z</time>
      </trkpt>
      <trkpt lat="43.200224" lon="-2.208341">
        <ele>509.293</ele>
        <time>2021-03-21T07:10:57Z</time>
      </trkpt>
      <trkpt lat="43.200220" lon="-2.208301">
        <ele>509.366</ele>
        <time>2021-03-21T07:10:58Z</time>
      </trkpt>
      <trkpt lat="43.200217" lon="-2.208263">
        <ele>509.439</ele>
        <time>2021-03-21T07:10:59Z</time>
      </trkpt>
      <trkpt lat="43.200212" lon="-2.208225">
        <ele>509.590</ele>
        <time>2021-03-21T07:11:00Z</time>
      </trkpt>
      <trkpt lat="43.200204" lon="-2.208189">
        <ele>509.677</ele>
        <time>2021-03-21T07:11:01Z</time>
      </trkpt>
      <trkpt lat="43.200197" lon="-2.208152">
        <ele>509.735</ele>
        <time>2021-03-21T07:11:02Z</time>
      </trkpt>
      <trkpt lat="43.200190" lon="-2.208113">
        <ele>509.825</ele>
        <time>2021-03-21T07:11:04Z</time>
      </trkpt>
      <trkpt lat="43.200178" lon="-2.208041">
        <ele>510.055</ele>
        <time>2021-03-21T07:11:05Z</time>
      </trkpt>
      <trkpt lat="43.200172" lon="-2.207968">
        <ele>510.595</ele>
        <time>2021-03-21T07:11:07Z</time>
      </trkpt>
      <trkpt lat="43.200168" lon="-2.207931">
        <ele>510.749</ele>
        <time>2021-03-21T07:11:08Z</time>
      </trkpt>
      <trkpt lat="43.200164" lon="-2.207896">
        <ele>510.923</ele>
        <time>2021-03-21T07:11:09Z</time>
      </trkpt>
      <trkpt lat="43.200161" lon="-2.207860">
        <ele>511.108</ele>
        <time>2021-03-21T07:11:10Z</time>
      </trkpt>
      <trkpt lat="43.200151" lon="-2.207794">
        <ele>511.565</ele>
        <time>2021-03-21T07:11:12Z</time>
      </trkpt>
      <trkpt lat="43.200149" lon="-2.207759">
        <ele>511.538</ele>
        <time>2021-03-21T07:11:13Z</time>
      </trkpt>
      <trkpt lat="43.200145" lon="-2.207721">
        <ele>511.271</ele>
        <time>2021-03-21T07:11:14Z</time>
      </trkpt>
      <trkpt lat="43.200142" lon="-2.207646">
        <ele>510.872</ele>
        <time>2021-03-21T07:11:16Z</time>
      </trkpt>
      <trkpt lat="43.200144" lon="-2.207607">
        <ele>510.689</ele>
        <time>2021-03-21T07:11:17Z</time>
      </trkpt>
      <trkpt lat="43.200149" lon="-2.207571">
        <ele>510.487</ele>
        <time>2021-03-21T07:11:18Z</time>
      </trkpt>
      <trkpt lat="43.200156" lon="-2.207532">
        <ele>510.237</ele>
        <time>2021-03-21T07:11:19Z</time>
      </trkpt>
      <trkpt lat="43.200159" lon="-2.207492">
        <ele>510.067</ele>
        <time>2021-03-21T07:11:20Z</time>
      </trkpt>
      <trkpt lat="43.200162" lon="-2.207450">
        <ele>510.174</ele>
        <time>2021-03-21T07:11:21Z</time>
      </trkpt>
      <trkpt lat="43.200168" lon="-2.207407">
        <ele>510.156</ele>
        <time>2021-03-21T07:11:22Z</time>
      </trkpt>
      <trkpt lat="43.200174" lon="-2.207368">
        <ele>510.221</ele>
        <time>2021-03-21T07:11:23Z</time>
      </trkpt>
      <trkpt lat="43.200180" lon="-2.207328">
        <ele>510.208</ele>
        <time>2021-03-21T07:11:24Z</time>
      </trkpt>
      <trkpt lat="43.200186" lon="-2.207287">
        <ele>510.333</ele>
        <time>2021-03-21T07:11:25Z</time>
      </trkpt>
      <trkpt lat="43.200191" lon="-2.207246">
        <ele>510.396</ele>
        <time>2021-03-21T07:11:26Z</time>
      </trkpt>
      <trkpt lat="43.200196" lon="-2.207204">
        <ele>510.459</ele>
        <time>2021-03-21T07:11:27Z</time>
      </trkpt>
      <trkpt lat="43.200199" lon="-2.207163">
        <ele>510.590</ele>
        <time>2021-03-21T07:11:28Z</time>
      </trkpt>
      <trkpt lat="43.200202" lon="-2.207123">
        <ele>510.717</ele>
        <time>2021-03-21T07:11:29Z</time>
      </trkpt>
      <trkpt lat="43.200208" lon="-2.207085">
        <ele>510.955</ele>
        <time>2021-03-21T07:11:30Z</time>
      </trkpt>
      <trkpt lat="43.200213" lon="-2.207047">
        <ele>511.195</ele>
        <time>2021-03-21T07:11:31Z</time>
      </trkpt>
      <trkpt lat="43.200219" lon="-2.207009">
        <ele>511.335</ele>
        <time>2021-03-21T07:11:32Z</time>
      </trkpt>
      <trkpt lat="43.200222" lon="-2.206969">
        <ele>511.566</ele>
        <time>2021-03-21T07:11:33Z</time>
      </trkpt>
      <trkpt lat="43.200223" lon="-2.206932">
        <ele>511.529</ele>
        <time>2021-03-21T07:11:34Z</time>
      </trkpt>
      <trkpt lat="43.200222" lon="-2.206897">
        <ele>511.321</ele>
        <time>2021-03-21T07:11:35Z</time>
      </trkpt>
      <trkpt lat="43.200224" lon="-2.206862">
        <ele>511.008</ele>
        <time>2021-03-21T07:11:36Z</time>
      </trkpt>
      <trkpt lat="43.200229" lon="-2.206827">
        <ele>510.872</ele>
        <time>2021-03-21T07:11:37Z</time>
      </trkpt>
      <trkpt lat="43.200234" lon="-2.206789">
        <ele>510.695</ele>
        <time>2021-03-21T07:11:38Z</time>
      </trkpt>
      <trkpt lat="43.200234" lon="-2.206748">
        <ele>510.328</ele>
        <time>2021-03-21T07:11:39Z</time>
      </trkpt>
      <trkpt lat="43.200235" lon="-2.206706">
        <ele>510.069</ele>
        <time>2021-03-21T07:11:40Z</time>
      </trkpt>
      <trkpt lat="43.200237" lon="-2.206661">
        <ele>509.756</ele>
        <time>2021-03-21T07:11:41Z</time>
      </trkpt>
      <trkpt lat="43.200242" lon="-2.206614">
        <ele>509.474</ele>
        <time>2021-03-21T07:11:42Z</time>
      </trkpt>
      <trkpt lat="43.200249" lon="-2.206571">
        <ele>509.164</ele>
        <time>2021-03-21T07:11:43Z</time>
      </trkpt>
      <trkpt lat="43.200257" lon="-2.206527">
        <ele>508.924</ele>
        <time>2021-03-21T07:11:44Z</time>
      </trkpt>
      <trkpt lat="43.200266" lon="-2.206483">
        <ele>508.675</ele>
        <time>2021-03-21T07:11:45Z</time>
      </trkpt>
      <trkpt lat="43.200273" lon="-2.206437">
        <ele>508.328</ele>
        <time>2021-03-21T07:11:46Z</time>
      </trkpt>
      <trkpt lat="43.200277" lon="-2.206390">
        <ele>508.020</ele>
        <time>2021-03-21T07:11:47Z</time>
      </trkpt>
      <trkpt lat="43.200278" lon="-2.206346">
        <ele>508.008</ele>
        <time>2021-03-21T07:11:48Z</time>
      </trkpt>
      <trkpt lat="43.200281" lon="-2.206302">
        <ele>508.023</ele>
        <time>2021-03-21T07:11:49Z</time>
      </trkpt>
      <trkpt lat="43.200284" lon="-2.206260">
        <ele>508.026</ele>
        <time>2021-03-21T07:11:50Z</time>
      </trkpt>
      <trkpt lat="43.200290" lon="-2.206218">
        <ele>507.959</ele>
        <time>2021-03-21T07:11:51Z</time>
      </trkpt>
      <trkpt lat="43.200300" lon="-2.206176">
        <ele>507.920</ele>
        <time>2021-03-21T07:11:52Z</time>
      </trkpt>
      <trkpt lat="43.200309" lon="-2.206132">
        <ele>507.847</ele>
        <time>2021-03-21T07:11:53Z</time>
      </trkpt>
      <trkpt lat="43.200314" lon="-2.206093">
        <ele>507.715</ele>
        <time>2021-03-21T07:11:54Z</time>
      </trkpt>
      <trkpt lat="43.200319" lon="-2.206054">
        <ele>507.785</ele>
        <time>2021-03-21T07:11:55Z</time>
      </trkpt>
      <trkpt lat="43.200325" lon="-2.206015">
        <ele>507.785</ele>
        <time>2021-03-21T07:11:56Z</time>
      </trkpt>
      <trkpt lat="43.200333" lon="-2.205974">
        <ele>507.746</ele>
        <time>2021-03-21T07:11:57Z</time>
      </trkpt>
      <trkpt lat="43.200338" lon="-2.205935">
        <ele>507.788</ele>
        <time>2021-03-21T07:11:58Z</time>
      </trkpt>
      <trkpt lat="43.200343" lon="-2.205897">
        <ele>507.716</ele>
        <time>2021-03-21T07:11:59Z</time>
      </trkpt>
      <trkpt lat="43.200344" lon="-2.205858">
        <ele>507.708</ele>
        <time>2021-03-21T07:12:01Z</time>
      </trkpt>
      <trkpt lat="43.200350" lon="-2.205784">
        <ele>507.740</ele>
        <time>2021-03-21T07:12:02Z</time>
      </trkpt>
      <trkpt lat="43.200355" lon="-2.205703">
        <ele>507.733</ele>
        <time>2021-03-21T07:12:04Z</time>
      </trkpt>
      <trkpt lat="43.200355" lon="-2.205666">
        <ele>507.716</ele>
        <time>2021-03-21T07:12:05Z</time>
      </trkpt>
      <trkpt lat="43.200354" lon="-2.205627">
        <ele>507.777</ele>
        <time>2021-03-21T07:12:06Z</time>
      </trkpt>
      <trkpt lat="43.200353" lon="-2.205591">
        <ele>507.734</ele>
        <time>2021-03-21T07:12:07Z</time>
      </trkpt>
      <trkpt lat="43.200352" lon="-2.205554">
        <ele>507.742</ele>
        <time>2021-03-21T07:12:08Z</time>
      </trkpt>
      <trkpt lat="43.200352" lon="-2.205516">
        <ele>507.452</ele>
        <time>2021-03-21T07:12:09Z</time>
      </trkpt>
      <trkpt lat="43.200347" lon="-2.205479">
        <ele>507.152</ele>
        <time>2021-03-21T07:12:10Z</time>
      </trkpt>
      <trkpt lat="43.200342" lon="-2.205442">
        <ele>506.768</ele>
        <time>2021-03-21T07:12:11Z</time>
      </trkpt>
      <trkpt lat="43.200337" lon="-2.205405">
        <ele>506.442</ele>
        <time>2021-03-21T07:12:12Z</time>
      </trkpt>
      <trkpt lat="43.200331" lon="-2.205365">
        <ele>506.026</ele>
        <time>2021-03-21T07:12:13Z</time>
      </trkpt>
      <trkpt lat="43.200317" lon="-2.205286">
        <ele>505.208</ele>
        <time>2021-03-21T07:12:15Z</time>
      </trkpt>
      <trkpt lat="43.200308" lon="-2.205246">
        <ele>504.732</ele>
        <time>2021-03-21T07:12:16Z</time>
      </trkpt>
      <trkpt lat="43.200300" lon="-2.205208">
        <ele>504.335</ele>
        <time>2021-03-21T07:12:17Z</time>
      </trkpt>
      <trkpt lat="43.200292" lon="-2.205169">
        <ele>503.888</ele>
        <time>2021-03-21T07:12:18Z</time>
      </trkpt>
      <trkpt lat="43.200285" lon="-2.205130">
        <ele>503.469</ele>
        <time>2021-03-21T07:12:19Z</time>
      </trkpt>
      <trkpt lat="43.200278" lon="-2.205091">
        <ele>503.096</ele>
        <time>2021-03-21T07:12:20Z</time>
      </trkpt>
      <trkpt lat="43.200270" lon="-2.205049">
        <ele>502.594</ele>
        <time>2021-03-21T07:12:21Z</time>
      </trkpt>
      <trkpt lat="43.200262" lon="-2.205008">
        <ele>502.034</ele>
        <time>2021-03-21T07:12:22Z</time>
      </trkpt>
      <trkpt lat="43.200255" lon="-2.204968">
        <ele>501.354</ele>
        <time>2021-03-21T07:12:23Z</time>
      </trkpt>
      <trkpt lat="43.200249" lon="-2.204932">
        <ele>500.677</ele>
        <time>2021-03-21T07:12:24Z</time>
      </trkpt>
      <trkpt lat="43.200243" lon="-2.204894">
        <ele>499.961</ele>
        <time>2021-03-21T07:12:25Z</time>
      </trkpt>
      <trkpt lat="43.200237" lon="-2.204852">
        <ele>499.127</ele>
        <time>2021-03-21T07:12:26Z</time>
      </trkpt>
      <trkpt lat="43.200233" lon="-2.204808">
        <ele>498.308</ele>
        <time>2021-03-21T07:12:27Z</time>
      </trkpt>
      <trkpt lat="43.200226" lon="-2.204759">
        <ele>497.553</ele>
        <time>2021-03-21T07:12:28Z</time>
      </trkpt>
      <trkpt lat="43.200218" lon="-2.204710">
        <ele>496.616</ele>
        <time>2021-03-21T07:12:29Z</time>
      </trkpt>
      <trkpt lat="43.200214" lon="-2.204665">
        <ele>495.819</ele>
        <time>2021-03-21T07:12:30Z</time>
      </trkpt>
      <trkpt lat="43.200209" lon="-2.204623">
        <ele>495.150</ele>
        <time>2021-03-21T07:12:31Z</time>
      </trkpt>
      <trkpt lat="43.200208" lon="-2.204583">
        <ele>494.527</ele>
        <time>2021-03-21T07:12:32Z</time>
      </trkpt>
      <trkpt lat="43.200205" lon="-2.204540">
        <ele>493.885</ele>
        <time>2021-03-21T07:12:33Z</time>
      </trkpt>
      <trkpt lat="43.200201" lon="-2.204499">
        <ele>493.195</ele>
        <time>2021-03-21T07:12:34Z</time>
      </trkpt>
      <trkpt lat="43.200197" lon="-2.204459">
        <ele>492.525</ele>
        <time>2021-03-21T07:12:35Z</time>
      </trkpt>
      <trkpt lat="43.200190" lon="-2.204418">
        <ele>492.065</ele>
        <time>2021-03-21T07:12:36Z</time>
      </trkpt>
      <trkpt lat="43.200168" lon="-2.204337">
        <ele>491.268</ele>
        <time>2021-03-21T07:12:38Z</time>
      </trkpt>
      <trkpt lat="43.200159" lon="-2.204301">
        <ele>490.914</ele>
        <time>2021-03-21T07:12:39Z</time>
      </trkpt>
      <trkpt lat="43.200150" lon="-2.204262">
        <ele>490.508</ele>
        <time>2021-03-21T07:12:40Z</time>
      </trkpt>
      <trkpt lat="43.200147" lon="-2.204229">
        <ele>490.162</ele>
        <time>2021-03-21T07:12:41Z</time>
      </trkpt>
      <trkpt lat="43.200140" lon="-2.204154">
        <ele>489.575</ele>
        <time>2021-03-21T07:12:43Z</time>
      </trkpt>
      <trkpt lat="43.200124" lon="-2.204003">
        <ele>489.318</ele>
        <time>2021-03-21T07:12:47Z</time>
      </trkpt>
      <trkpt lat="43.200135" lon="-2.203840">
        <ele>489.069</ele>
        <time>2021-03-21T07:12:51Z</time>
      </trkpt>
      <trkpt lat="43.200134" lon="-2.203801">
        <ele>489.046</ele>
        <time>2021-03-21T07:12:52Z</time>
      </trkpt>
      <trkpt lat="43.200134" lon="-2.203764">
        <ele>489.014</ele>
        <time>2021-03-21T07:12:53Z</time>
      </trkpt>
      <trkpt lat="43.200136" lon="-2.203726">
        <ele>489.054</ele>
        <time>2021-03-21T07:12:54Z</time>
      </trkpt>
      <trkpt lat="43.200139" lon="-2.203688">
        <ele>489.074</ele>
        <time>2021-03-21T07:12:55Z</time>
      </trkpt>
      <trkpt lat="43.200139" lon="-2.203651">
        <ele>489.063</ele>
        <time>2021-03-21T07:12:56Z</time>
      </trkpt>
      <trkpt lat="43.200139" lon="-2.203617">
        <ele>489.044</ele>
        <time>2021-03-21T07:12:57Z</time>
      </trkpt>
      <trkpt lat="43.200138" lon="-2.203580">
        <ele>489.018</ele>
        <time>2021-03-21T07:12:58Z</time>
      </trkpt>
      <trkpt lat="43.200139" lon="-2.203510">
        <ele>489.008</ele>
        <time>2021-03-21T07:13:00Z</time>
      </trkpt>
      <trkpt lat="43.200140" lon="-2.203475">
        <ele>489.012</ele>
        <time>2021-03-21T07:13:01Z</time>
      </trkpt>
      <trkpt lat="43.200139" lon="-2.203441">
        <ele>489.065</ele>
        <time>2021-03-21T07:13:02Z</time>
      </trkpt>
      <trkpt lat="43.200139" lon="-2.203407">
        <ele>489.018</ele>
        <time>2021-03-21T07:13:03Z</time>
      </trkpt>
      <trkpt lat="43.200138" lon="-2.203372">
        <ele>489.099</ele>
        <time>2021-03-21T07:13:04Z</time>
      </trkpt>
      <trkpt lat="43.200135" lon="-2.203338">
        <ele>489.066</ele>
        <time>2021-03-21T07:13:05Z</time>
      </trkpt>
      <trkpt lat="43.200131" lon="-2.203304">
        <ele>489.144</ele>
        <time>2021-03-21T07:13:06Z</time>
      </trkpt>
      <trkpt lat="43.200129" lon="-2.203269">
        <ele>489.174</ele>
        <time>2021-03-21T07:13:07Z</time>
      </trkpt>
      <trkpt lat="43.200126" lon="-2.203235">
        <ele>489.174</ele>
        <time>2021-03-21T07:13:08Z</time>
      </trkpt>
      <trkpt lat="43.200122" lon="-2.203198">
        <ele>489.175</ele>
        <time>2021-03-21T07:13:09Z</time>
      </trkpt>
      <trkpt lat="43.200118" lon="-2.203165">
        <ele>489.128</ele>
        <time>2021-03-21T07:13:10Z</time>
      </trkpt>
      <trkpt lat="43.200115" lon="-2.203130">
        <ele>489.220</ele>
        <time>2021-03-21T07:13:11Z</time>
      </trkpt>
      <trkpt lat="43.200107" lon="-2.203092">
        <ele>489.208</ele>
        <time>2021-03-21T07:13:12Z</time>
      </trkpt>
      <trkpt lat="43.200099" lon="-2.203057">
        <ele>489.323</ele>
        <time>2021-03-21T07:13:13Z</time>
      </trkpt>
      <trkpt lat="43.200092" lon="-2.203019">
        <ele>489.586</ele>
        <time>2021-03-21T07:13:14Z</time>
      </trkpt>
      <trkpt lat="43.200075" lon="-2.202948">
        <ele>489.869</ele>
        <time>2021-03-21T07:13:16Z</time>
      </trkpt>
      <trkpt lat="43.200067" lon="-2.202917">
        <ele>490.040</ele>
        <time>2021-03-21T07:13:17Z</time>
      </trkpt>
      <trkpt lat="43.200057" lon="-2.202887">
        <ele>490.227</ele>
        <time>2021-03-21T07:13:18Z</time>
      </trkpt>
      <trkpt lat="43.200045" lon="-2.202854">
        <ele>490.435</ele>
        <time>2021-03-21T07:13:19Z</time>
      </trkpt>
      <trkpt lat="43.200039" lon="-2.202818">
        <ele>490.665</ele>
        <time>2021-03-21T07:13:20Z</time>
      </trkpt>
      <trkpt lat="43.200030" lon="-2.202786">
        <ele>490.895</ele>
        <time>2021-03-21T07:13:21Z</time>
      </trkpt>
      <trkpt lat="43.200023" lon="-2.202753">
        <ele>491.075</ele>
        <time>2021-03-21T07:13:22Z</time>
      </trkpt>
      <trkpt lat="43.200016" lon="-2.202720">
        <ele>491.328</ele>
        <time>2021-03-21T07:13:23Z</time>
      </trkpt>
      <trkpt lat="43.200008" lon="-2.202685">
        <ele>491.620</ele>
        <time>2021-03-21T07:13:24Z</time>
      </trkpt>
      <trkpt lat="43.199999" lon="-2.202653">
        <ele>491.908</ele>
        <time>2021-03-21T07:13:25Z</time>
      </trkpt>
      <trkpt lat="43.199989" lon="-2.202624">
        <ele>492.123</ele>
        <time>2021-03-21T07:13:26Z</time>
      </trkpt>
      <trkpt lat="43.199980" lon="-2.202595">
        <ele>492.496</ele>
        <time>2021-03-21T07:13:27Z</time>
      </trkpt>
      <trkpt lat="43.199970" lon="-2.202565">
        <ele>492.639</ele>
        <time>2021-03-21T07:13:28Z</time>
      </trkpt>
      <trkpt lat="43.199961" lon="-2.202537">
        <ele>492.950</ele>
        <time>2021-03-21T07:13:29Z</time>
      </trkpt>
      <trkpt lat="43.199953" lon="-2.202509">
        <ele>493.137</ele>
        <time>2021-03-21T07:13:30Z</time>
      </trkpt>
      <trkpt lat="43.199943" lon="-2.202487">
        <ele>493.365</ele>
        <time>2021-03-21T07:13:31Z</time>
      </trkpt>
      <trkpt lat="43.199926" lon="-2.202449">
        <ele>493.825</ele>
        <time>2021-03-21T07:13:33Z</time>
      </trkpt>
      <trkpt lat="43.199910" lon="-2.202416">
        <ele>494.235</ele>
        <time>2021-03-21T07:13:35Z</time>
      </trkpt>
      <trkpt lat="43.199889" lon="-2.202388">
        <ele>494.676</ele>
        <time>2021-03-21T07:13:37Z</time>
      </trkpt>
      <trkpt lat="43.199869" lon="-2.202357">
        <ele>495.090</ele>
        <time>2021-03-21T07:13:39Z</time>
      </trkpt>
      <trkpt lat="43.199846" lon="-2.202334">
        <ele>495.319</ele>
        <time>2021-03-21T07:13:41Z</time>
      </trkpt>
      <trkpt lat="43.199827" lon="-2.202311">
        <ele>495.708</ele>
        <time>2021-03-21T07:13:44Z</time>
      </trkpt>
      <trkpt lat="43.199808" lon="-2.202281">
        <ele>496.153</ele>
        <time>2021-03-21T07:13:45Z</time>
      </trkpt>
      <trkpt lat="43.199790" lon="-2.202250">
        <ele>496.596</ele>
        <time>2021-03-21T07:13:47Z</time>
      </trkpt>
      <trkpt lat="43.199774" lon="-2.202224">
        <ele>496.879</ele>
        <time>2021-03-21T07:13:49Z</time>
      </trkpt>
      <trkpt lat="43.199756" lon="-2.202198">
        <ele>497.220</ele>
        <time>2021-03-21T07:13:52Z</time>
      </trkpt>
      <trkpt lat="43.199739" lon="-2.202172">
        <ele>497.727</ele>
        <time>2021-03-21T07:13:53Z</time>
      </trkpt>
      <trkpt lat="43.199716" lon="-2.202148">
        <ele>498.155</ele>
        <time>2021-03-21T07:13:55Z</time>
      </trkpt>
      <trkpt lat="43.199693" lon="-2.202128">
        <ele>498.435</ele>
        <time>2021-03-21T07:13:57Z</time>
      </trkpt>
      <trkpt lat="43.199672" lon="-2.202100">
        <ele>498.835</ele>
        <time>2021-03-21T07:13:59Z</time>
      </trkpt>
      <trkpt lat="43.199651" lon="-2.202073">
        <ele>499.141</ele>
        <time>2021-03-21T07:14:01Z</time>
      </trkpt>
      <trkpt lat="43.199628" lon="-2.202050">
        <ele>499.581</ele>
        <time>2021-03-21T07:14:03Z</time>
      </trkpt>
      <trkpt lat="43.199603" lon="-2.202027">
        <ele>499.809</ele>
        <time>2021-03-21T07:14:05Z</time>
      </trkpt>
      <trkpt lat="43.199580" lon="-2.202002">
        <ele>500.208</ele>
        <time>2021-03-21T07:14:07Z</time>
      </trkpt>
      <trkpt lat="43.199559" lon="-2.201975">
        <ele>500.620</ele>
        <time>2021-03-21T07:14:09Z</time>
      </trkpt>
      <trkpt lat="43.199535" lon="-2.201956">
        <ele>500.863</ele>
        <time>2021-03-21T07:14:11Z</time>
      </trkpt>
      <trkpt lat="43.199511" lon="-2.201935">
        <ele>501.166</ele>
        <time>2021-03-21T07:14:13Z</time>
      </trkpt>
      <trkpt lat="43.199487" lon="-2.201909">
        <ele>501.587</ele>
        <time>2021-03-21T07:14:15Z</time>
      </trkpt>
      <trkpt lat="43.199463" lon="-2.201886">
        <ele>501.824</ele>
        <time>2021-03-21T07:14:17Z</time>
      </trkpt>
      <trkpt lat="43.199438" lon="-2.201867">
        <ele>502.142</ele>
        <time>2021-03-21T07:14:19Z</time>
      </trkpt>
      <trkpt lat="43.199414" lon="-2.201845">
        <ele>502.492</ele>
        <time>2021-03-21T07:14:21Z</time>
      </trkpt>
      <trkpt lat="43.199389" lon="-2.201825">
        <ele>502.662</ele>
        <time>2021-03-21T07:14:23Z</time>
      </trkpt>
      <trkpt lat="43.199364" lon="-2.201807">
        <ele>502.892</ele>
        <time>2021-03-21T07:14:26Z</time>
      </trkpt>
      <trkpt lat="43.199339" lon="-2.201788">
        <ele>503.173</ele>
        <time>2021-03-21T07:14:27Z</time>
      </trkpt>
      <trkpt lat="43.199312" lon="-2.201773">
        <ele>503.320</ele>
        <time>2021-03-21T07:14:29Z</time>
      </trkpt>
      <trkpt lat="43.199283" lon="-2.201758">
        <ele>503.508</ele>
        <time>2021-03-21T07:14:31Z</time>
      </trkpt>
      <trkpt lat="43.199254" lon="-2.201742">
        <ele>503.735</ele>
        <time>2021-03-21T07:14:33Z</time>
      </trkpt>
      <trkpt lat="43.199228" lon="-2.201726">
        <ele>504.088</ele>
        <time>2021-03-21T07:14:35Z</time>
      </trkpt>
      <trkpt lat="43.199202" lon="-2.201707">
        <ele>504.311</ele>
        <time>2021-03-21T07:14:37Z</time>
      </trkpt>
      <trkpt lat="43.199176" lon="-2.201686">
        <ele>504.712</ele>
        <time>2021-03-21T07:14:39Z</time>
      </trkpt>
      <trkpt lat="43.199153" lon="-2.201664">
        <ele>504.969</ele>
        <time>2021-03-21T07:14:41Z</time>
      </trkpt>
      <trkpt lat="43.199126" lon="-2.201644">
        <ele>505.067</ele>
        <time>2021-03-21T07:14:43Z</time>
      </trkpt>
      <trkpt lat="43.199100" lon="-2.201622">
        <ele>505.117</ele>
        <time>2021-03-21T07:14:45Z</time>
      </trkpt>
      <trkpt lat="43.199077" lon="-2.201595">
        <ele>505.327</ele>
        <time>2021-03-21T07:14:47Z</time>
      </trkpt>
      <trkpt lat="43.199054" lon="-2.201568">
        <ele>505.634</ele>
        <time>2021-03-21T07:14:49Z</time>
      </trkpt>
      <trkpt lat="43.199031" lon="-2.201541">
        <ele>505.855</ele>
        <time>2021-03-21T07:14:51Z</time>
      </trkpt>
      <trkpt lat="43.199009" lon="-2.201513">
        <ele>506.110</ele>
        <time>2021-03-21T07:14:53Z</time>
      </trkpt>
      <trkpt lat="43.198988" lon="-2.201487">
        <ele>506.308</ele>
        <time>2021-03-21T07:14:55Z</time>
      </trkpt>
      <trkpt lat="43.198966" lon="-2.201464">
        <ele>506.529</ele>
        <time>2021-03-21T07:14:57Z</time>
      </trkpt>
      <trkpt lat="43.198943" lon="-2.201435">
        <ele>506.822</ele>
        <time>2021-03-21T07:14:59Z</time>
      </trkpt>
      <trkpt lat="43.198918" lon="-2.201408">
        <ele>507.035</ele>
        <time>2021-03-21T07:15:01Z</time>
      </trkpt>
      <trkpt lat="43.198894" lon="-2.201386">
        <ele>507.116</ele>
        <time>2021-03-21T07:15:03Z</time>
      </trkpt>
      <trkpt lat="43.198869" lon="-2.201367">
        <ele>507.063</ele>
        <time>2021-03-21T07:15:05Z</time>
      </trkpt>
      <trkpt lat="43.198849" lon="-2.201345">
        <ele>507.171</ele>
        <time>2021-03-21T07:15:07Z</time>
      </trkpt>
      <trkpt lat="43.198846" lon="-2.201314">
        <ele>507.481</ele>
        <time>2021-03-21T07:15:09Z</time>
      </trkpt>
      <trkpt lat="43.198843" lon="-2.201281">
        <ele>507.861</ele>
        <time>2021-03-21T07:15:11Z</time>
      </trkpt>
      <trkpt lat="43.198834" lon="-2.201251">
        <ele>508.116</ele>
        <time>2021-03-21T07:15:13Z</time>
      </trkpt>
      <trkpt lat="43.198822" lon="-2.201226">
        <ele>508.376</ele>
        <time>2021-03-21T07:15:15Z</time>
      </trkpt>
      <trkpt lat="43.198813" lon="-2.201200">
        <ele>508.613</ele>
        <time>2021-03-21T07:15:17Z</time>
      </trkpt>
      <trkpt lat="43.198804" lon="-2.201170">
        <ele>508.908</ele>
        <time>2021-03-21T07:15:19Z</time>
      </trkpt>
      <trkpt lat="43.198792" lon="-2.201148">
        <ele>509.267</ele>
        <time>2021-03-21T07:15:21Z</time>
      </trkpt>
      <trkpt lat="43.198775" lon="-2.201126">
        <ele>509.440</ele>
        <time>2021-03-21T07:15:23Z</time>
      </trkpt>
      <trkpt lat="43.198756" lon="-2.201104">
        <ele>509.653</ele>
        <time>2021-03-21T07:15:25Z</time>
      </trkpt>
      <trkpt lat="43.198742" lon="-2.201077">
        <ele>510.124</ele>
        <time>2021-03-21T07:15:27Z</time>
      </trkpt>
      <trkpt lat="43.198736" lon="-2.201044">
        <ele>510.771</ele>
        <time>2021-03-21T07:15:30Z</time>
      </trkpt>
      <trkpt lat="43.198734" lon="-2.201020">
        <ele>511.119</ele>
        <time>2021-03-21T07:15:32Z</time>
      </trkpt>
      <trkpt lat="43.198723" lon="-2.200998">
        <ele>511.449</ele>
        <time>2021-03-21T07:15:35Z</time>
      </trkpt>
      <trkpt lat="43.198698" lon="-2.200988">
        <ele>511.569</ele>
        <time>2021-03-21T07:15:38Z</time>
      </trkpt>
      <trkpt lat="43.198677" lon="-2.200980">
        <ele>511.652</ele>
        <time>2021-03-21T07:15:41Z</time>
      </trkpt>
      <trkpt lat="43.198659" lon="-2.200964">
        <ele>511.853</ele>
        <time>2021-03-21T07:15:42Z</time>
      </trkpt>
      <trkpt lat="43.198654" lon="-2.200938">
        <ele>512.308</ele>
        <time>2021-03-21T07:15:44Z</time>
      </trkpt>
      <trkpt lat="43.198654" lon="-2.200904">
        <ele>512.908</ele>
        <time>2021-03-21T07:15:46Z</time>
      </trkpt>
      <trkpt lat="43.198655" lon="-2.200870">
        <ele>513.541</ele>
        <time>2021-03-21T07:15:48Z</time>
      </trkpt>
      <trkpt lat="43.198647" lon="-2.200835">
        <ele>514.114</ele>
        <time>2021-03-21T07:15:50Z</time>
      </trkpt>
      <trkpt lat="43.198643" lon="-2.200819">
        <ele>514.497</ele>
        <time>2021-03-21T07:15:51Z</time>
      </trkpt>
      <trkpt lat="43.198637" lon="-2.200789">
        <ele>514.918</ele>
        <time>2021-03-21T07:15:53Z</time>
      </trkpt>
      <trkpt lat="43.198627" lon="-2.200756">
        <ele>515.495</ele>
        <time>2021-03-21T07:15:55Z</time>
      </trkpt>
      <trkpt lat="43.198620" lon="-2.200730">
        <ele>515.973</ele>
        <time>2021-03-21T07:15:57Z</time>
      </trkpt>
      <trkpt lat="43.198608" lon="-2.200695">
        <ele>516.573</ele>
        <time>2021-03-21T07:16:00Z</time>
      </trkpt>
      <trkpt lat="43.198601" lon="-2.200665">
        <ele>517.073</ele>
        <time>2021-03-21T07:16:02Z</time>
      </trkpt>
      <trkpt lat="43.198593" lon="-2.200640">
        <ele>517.465</ele>
        <time>2021-03-21T07:16:04Z</time>
      </trkpt>
      <trkpt lat="43.198582" lon="-2.200611">
        <ele>517.868</ele>
        <time>2021-03-21T07:16:06Z</time>
      </trkpt>
      <trkpt lat="43.198572" lon="-2.200581">
        <ele>518.314</ele>
        <time>2021-03-21T07:16:09Z</time>
      </trkpt>
      <trkpt lat="43.198559" lon="-2.200543">
        <ele>518.908</ele>
        <time>2021-03-21T07:16:11Z</time>
      </trkpt>
      <trkpt lat="43.198553" lon="-2.200514">
        <ele>519.422</ele>
        <time>2021-03-21T07:16:13Z</time>
      </trkpt>
      <trkpt lat="43.198548" lon="-2.200479">
        <ele>520.095</ele>
        <time>2021-03-21T07:16:15Z</time>
      </trkpt>
      <trkpt lat="43.198548" lon="-2.200448">
        <ele>520.658</ele>
        <time>2021-03-21T07:16:17Z</time>
      </trkpt>
      <trkpt lat="43.198545" lon="-2.200420">
        <ele>521.129</ele>
        <time>2021-03-21T07:16:19Z</time>
      </trkpt>
      <trkpt lat="43.198548" lon="-2.200394">
        <ele>521.666</ele>
        <time>2021-03-21T07:16:21Z</time>
      </trkpt>
      <trkpt lat="43.198539" lon="-2.200367">
        <ele>522.124</ele>
        <time>2021-03-21T07:16:23Z</time>
      </trkpt>
      <trkpt lat="43.198499" lon="-2.200343">
        <ele>522.364</ele>
        <time>2021-03-21T07:16:28Z</time>
      </trkpt>
      <trkpt lat="43.198476" lon="-2.200324">
        <ele>522.654</ele>
        <time>2021-03-21T07:16:31Z</time>
      </trkpt>
      <trkpt lat="43.198485" lon="-2.200302">
        <ele>523.173</ele>
        <time>2021-03-21T07:16:42Z</time>
      </trkpt>
      <trkpt lat="43.198467" lon="-2.200294">
        <ele>523.285</ele>
        <time>2021-03-21T07:16:46Z</time>
      </trkpt>
      <trkpt lat="43.198459" lon="-2.200279">
        <ele>523.413</ele>
        <time>2021-03-21T07:16:55Z</time>
      </trkpt>
      <trkpt lat="43.198483" lon="-2.200274">
        <ele>523.608</ele>
        <time>2021-03-21T07:17:23Z</time>
      </trkpt>
      <trkpt lat="43.198495" lon="-2.200249">
        <ele>524.123</ele>
        <time>2021-03-21T07:17:25Z</time>
      </trkpt>
      <trkpt lat="43.198507" lon="-2.200228">
        <ele>524.516</ele>
        <time>2021-03-21T07:17:27Z</time>
      </trkpt>
      <trkpt lat="43.198507" lon="-2.200203">
        <ele>525.059</ele>
        <time>2021-03-21T07:17:31Z</time>
      </trkpt>
      <trkpt lat="43.198516" lon="-2.200175">
        <ele>525.570</ele>
        <time>2021-03-21T07:17:36Z</time>
      </trkpt>
      <trkpt lat="43.198499" lon="-2.200138">
        <ele>526.147</ele>
        <time>2021-03-21T07:17:40Z</time>
      </trkpt>
      <trkpt lat="43.198497" lon="-2.200109">
        <ele>526.665</ele>
        <time>2021-03-21T07:17:43Z</time>
      </trkpt>
      <trkpt lat="43.198497" lon="-2.200083">
        <ele>527.135</ele>
        <time>2021-03-21T07:17:44Z</time>
      </trkpt>
      <trkpt lat="43.198493" lon="-2.200049">
        <ele>527.725</ele>
        <time>2021-03-21T07:17:45Z</time>
      </trkpt>
      <trkpt lat="43.198487" lon="-2.200023">
        <ele>528.195</ele>
        <time>2021-03-21T07:17:47Z</time>
      </trkpt>
      <trkpt lat="43.198479" lon="-2.199994">
        <ele>528.649</ele>
        <time>2021-03-21T07:17:49Z</time>
      </trkpt>
      <trkpt lat="43.198469" lon="-2.199965">
        <ele>529.223</ele>
        <time>2021-03-21T07:17:51Z</time>
      </trkpt>
      <trkpt lat="43.198465" lon="-2.199938">
        <ele>529.708</ele>
        <time>2021-03-21T07:17:53Z</time>
      </trkpt>
      <trkpt lat="43.198459" lon="-2.199908">
        <ele>530.325</ele>
        <time>2021-03-21T07:17:55Z</time>
      </trkpt>
      <trkpt lat="43.198455" lon="-2.199881">
        <ele>530.858</ele>
        <time>2021-03-21T07:17:57Z</time>
      </trkpt>
      <trkpt lat="43.198451" lon="-2.199854">
        <ele>531.331</ele>
        <time>2021-03-21T07:17:59Z</time>
      </trkpt>
      <trkpt lat="43.198447" lon="-2.199827">
        <ele>531.842</ele>
        <time>2021-03-21T07:18:01Z</time>
      </trkpt>
      <trkpt lat="43.198442" lon="-2.199799">
        <ele>532.339</ele>
        <time>2021-03-21T07:18:03Z</time>
      </trkpt>
      <trkpt lat="43.198436" lon="-2.199769">
        <ele>532.817</ele>
        <time>2021-03-21T07:18:05Z</time>
      </trkpt>
      <trkpt lat="43.198429" lon="-2.199742">
        <ele>533.357</ele>
        <time>2021-03-21T07:18:07Z</time>
      </trkpt>
      <trkpt lat="43.198425" lon="-2.199710">
        <ele>533.917</ele>
        <time>2021-03-21T07:18:09Z</time>
      </trkpt>
      <trkpt lat="43.198420" lon="-2.199684">
        <ele>534.419</ele>
        <time>2021-03-21T07:18:11Z</time>
      </trkpt>
      <trkpt lat="43.198418" lon="-2.199655">
        <ele>535.009</ele>
        <time>2021-03-21T07:18:13Z</time>
      </trkpt>
      <trkpt lat="43.198415" lon="-2.199626">
        <ele>535.619</ele>
        <time>2021-03-21T07:18:15Z</time>
      </trkpt>
      <trkpt lat="43.198410" lon="-2.199595">
        <ele>536.208</ele>
        <time>2021-03-21T07:18:17Z</time>
      </trkpt>
      <trkpt lat="43.198405" lon="-2.199565">
        <ele>536.867</ele>
        <time>2021-03-21T07:18:19Z</time>
      </trkpt>
      <trkpt lat="43.198403" lon="-2.199537">
        <ele>537.380</ele>
        <time>2021-03-21T07:18:21Z</time>
      </trkpt>
      <trkpt lat="43.198402" lon="-2.199505">
        <ele>538.063</ele>
        <time>2021-03-21T07:18:23Z</time>
      </trkpt>
      <trkpt lat="43.198395" lon="-2.199475">
        <ele>538.664</ele>
        <time>2021-03-21T07:18:25Z</time>
      </trkpt>
      <trkpt lat="43.198386" lon="-2.199449">
        <ele>539.151</ele>
        <time>2021-03-21T07:18:27Z</time>
      </trkpt>
      <trkpt lat="43.198381" lon="-2.199422">
        <ele>539.619</ele>
        <time>2021-03-21T07:18:29Z</time>
      </trkpt>
      <trkpt lat="43.198371" lon="-2.199383">
        <ele>540.299</ele>
        <time>2021-03-21T07:18:32Z</time>
      </trkpt>
      <trkpt lat="43.198362" lon="-2.199354">
        <ele>540.729</ele>
        <time>2021-03-21T07:18:34Z</time>
      </trkpt>
      <trkpt lat="43.198360" lon="-2.199328">
        <ele>541.278</ele>
        <time>2021-03-21T07:18:36Z</time>
      </trkpt>
      <trkpt lat="43.198354" lon="-2.199296">
        <ele>541.733</ele>
        <time>2021-03-21T07:18:38Z</time>
      </trkpt>
      <trkpt lat="43.198351" lon="-2.199267">
        <ele>542.326</ele>
        <time>2021-03-21T07:18:40Z</time>
      </trkpt>
      <trkpt lat="43.198348" lon="-2.199239">
        <ele>542.808</ele>
        <time>2021-03-21T07:18:42Z</time>
      </trkpt>
      <trkpt lat="43.198344" lon="-2.199210">
        <ele>543.333</ele>
        <time>2021-03-21T07:18:44Z</time>
      </trkpt>
      <trkpt lat="43.198339" lon="-2.199187">
        <ele>543.746</ele>
        <time>2021-03-21T07:18:46Z</time>
      </trkpt>
      <trkpt lat="43.198334" lon="-2.199152">
        <ele>544.259</ele>
        <time>2021-03-21T07:18:49Z</time>
      </trkpt>
      <trkpt lat="43.198328" lon="-2.199126">
        <ele>544.530</ele>
        <time>2021-03-21T07:18:51Z</time>
      </trkpt>
      <trkpt lat="43.198324" lon="-2.199088">
        <ele>545.057</ele>
        <time>2021-03-21T07:18:54Z</time>
      </trkpt>
      <trkpt lat="43.198317" lon="-2.199063">
        <ele>545.395</ele>
        <time>2021-03-21T07:18:56Z</time>
      </trkpt>
      <trkpt lat="43.198315" lon="-2.199038">
        <ele>545.685</ele>
        <time>2021-03-21T07:18:58Z</time>
      </trkpt>
      <trkpt lat="43.198309" lon="-2.199005">
        <ele>546.135</ele>
        <time>2021-03-21T07:19:00Z</time>
      </trkpt>
      <trkpt lat="43.198300" lon="-2.198975">
        <ele>546.437</ele>
        <time>2021-03-21T07:19:02Z</time>
      </trkpt>
      <trkpt lat="43.198297" lon="-2.198935">
        <ele>547.049</ele>
        <time>2021-03-21T07:19:04Z</time>
      </trkpt>
      <trkpt lat="43.198298" lon="-2.198906">
        <ele>547.513</ele>
        <time>2021-03-21T07:19:07Z</time>
      </trkpt>
      <trkpt lat="43.198296" lon="-2.198883">
        <ele>547.808</ele>
        <time>2021-03-21T07:19:08Z</time>
      </trkpt>
      <trkpt lat="43.198301" lon="-2.198858">
        <ele>548.369</ele>
        <time>2021-03-21T07:19:10Z</time>
      </trkpt>
      <trkpt lat="43.198297" lon="-2.198822">
        <ele>549.052</ele>
        <time>2021-03-21T07:19:12Z</time>
      </trkpt>
      <trkpt lat="43.198289" lon="-2.198791">
        <ele>549.515</ele>
        <time>2021-03-21T07:19:14Z</time>
      </trkpt>
      <trkpt lat="43.198282" lon="-2.198766">
        <ele>549.986</ele>
        <time>2021-03-21T07:19:16Z</time>
      </trkpt>
      <trkpt lat="43.198277" lon="-2.198739">
        <ele>550.423</ele>
        <time>2021-03-21T07:19:18Z</time>
      </trkpt>
      <trkpt lat="43.198279" lon="-2.198709">
        <ele>551.051</ele>
        <time>2021-03-21T07:19:20Z</time>
      </trkpt>
      <trkpt lat="43.198275" lon="-2.198671">
        <ele>551.781</ele>
        <time>2021-03-21T07:19:23Z</time>
      </trkpt>
      <trkpt lat="43.198273" lon="-2.198645">
        <ele>552.121</ele>
        <time>2021-03-21T07:19:25Z</time>
      </trkpt>
      <trkpt lat="43.198270" lon="-2.198618">
        <ele>552.689</ele>
        <time>2021-03-21T07:19:27Z</time>
      </trkpt>
      <trkpt lat="43.198266" lon="-2.198595">
        <ele>553.106</ele>
        <time>2021-03-21T07:19:29Z</time>
      </trkpt>
      <trkpt lat="43.198252" lon="-2.198565">
        <ele>553.726</ele>
        <time>2021-03-21T07:19:31Z</time>
      </trkpt>
      <trkpt lat="43.198252" lon="-2.198528">
        <ele>554.508</ele>
        <time>2021-03-21T07:19:34Z</time>
      </trkpt>
      <trkpt lat="43.198247" lon="-2.198501">
        <ele>555.144</ele>
        <time>2021-03-21T07:19:37Z</time>
      </trkpt>
      <trkpt lat="43.198236" lon="-2.198469">
        <ele>555.767</ele>
        <time>2021-03-21T07:19:39Z</time>
      </trkpt>
      <trkpt lat="43.198236" lon="-2.198440">
        <ele>556.360</ele>
        <time>2021-03-21T07:19:41Z</time>
      </trkpt>
      <trkpt lat="43.198227" lon="-2.198407">
        <ele>557.041</ele>
        <time>2021-03-21T07:19:44Z</time>
      </trkpt>
      <trkpt lat="43.198225" lon="-2.198374">
        <ele>557.768</ele>
        <time>2021-03-21T07:19:47Z</time>
      </trkpt>
      <trkpt lat="43.198222" lon="-2.198339">
        <ele>558.586</ele>
        <time>2021-03-21T07:19:50Z</time>
      </trkpt>
      <trkpt lat="43.198226" lon="-2.198316">
        <ele>558.926</ele>
        <time>2021-03-21T07:19:52Z</time>
      </trkpt>
      <trkpt lat="43.198227" lon="-2.198291">
        <ele>559.496</ele>
        <time>2021-03-21T07:19:54Z</time>
      </trkpt>
      <trkpt lat="43.198229" lon="-2.198260">
        <ele>559.996</ele>
        <time>2021-03-21T07:19:56Z</time>
      </trkpt>
      <trkpt lat="43.198224" lon="-2.198230">
        <ele>560.531</ele>
        <time>2021-03-21T07:19:59Z</time>
      </trkpt>
      <trkpt lat="43.198231" lon="-2.198203">
        <ele>561.024</ele>
        <time>2021-03-21T07:20:02Z</time>
      </trkpt>
      <trkpt lat="43.198242" lon="-2.198177">
        <ele>561.508</ele>
        <time>2021-03-21T07:20:04Z</time>
      </trkpt>
      <trkpt lat="43.198244" lon="-2.198154">
        <ele>561.955</ele>
        <time>2021-03-21T07:20:06Z</time>
      </trkpt>
      <trkpt lat="43.198251" lon="-2.198117">
        <ele>562.698</ele>
        <time>2021-03-21T07:20:09Z</time>
      </trkpt>
      <trkpt lat="43.198255" lon="-2.198087">
        <ele>563.271</ele>
        <time>2021-03-21T07:20:12Z</time>
      </trkpt>
      <trkpt lat="43.198259" lon="-2.198062">
        <ele>563.652</ele>
        <time>2021-03-21T07:20:14Z</time>
      </trkpt>
      <trkpt lat="43.198254" lon="-2.198035">
        <ele>564.289</ele>
        <time>2021-03-21T07:20:16Z</time>
      </trkpt>
      <trkpt lat="43.198252" lon="-2.198000">
        <ele>564.927</ele>
        <time>2021-03-21T07:20:19Z</time>
      </trkpt>
      <trkpt lat="43.198245" lon="-2.197974">
        <ele>565.497</ele>
        <time>2021-03-21T07:20:21Z</time>
      </trkpt>
      <trkpt lat="43.198247" lon="-2.197946">
        <ele>566.137</ele>
        <time>2021-03-21T07:20:23Z</time>
      </trkpt>
      <trkpt lat="43.198246" lon="-2.197907">
        <ele>566.969</ele>
        <time>2021-03-21T07:20:26Z</time>
      </trkpt>
      <trkpt lat="43.198241" lon="-2.197886">
        <ele>567.304</ele>
        <time>2021-03-21T07:20:28Z</time>
      </trkpt>
      <trkpt lat="43.198239" lon="-2.197860">
        <ele>567.924</ele>
        <time>2021-03-21T07:20:30Z</time>
      </trkpt>
      <trkpt lat="43.198241" lon="-2.197837">
        <ele>568.408</ele>
        <time>2021-03-21T07:20:32Z</time>
      </trkpt>
      <trkpt lat="43.198235" lon="-2.197805">
        <ele>569.192</ele>
        <time>2021-03-21T07:20:35Z</time>
      </trkpt>
      <trkpt lat="43.198225" lon="-2.197775">
        <ele>569.735</ele>
        <time>2021-03-21T07:20:37Z</time>
      </trkpt>
      <trkpt lat="43.198220" lon="-2.197750">
        <ele>570.268</ele>
        <time>2021-03-21T07:20:39Z</time>
      </trkpt>
      <trkpt lat="43.198213" lon="-2.197722">
        <ele>570.829</ele>
        <time>2021-03-21T07:20:42Z</time>
      </trkpt>
      <trkpt lat="43.198197" lon="-2.197700">
        <ele>571.216</ele>
        <time>2021-03-21T07:20:45Z</time>
      </trkpt>
      <trkpt lat="43.198179" lon="-2.197678">
        <ele>571.684</ele>
        <time>2021-03-21T07:20:48Z</time>
      </trkpt>
      <trkpt lat="43.198168" lon="-2.197643">
        <ele>572.334</ele>
        <time>2021-03-21T07:20:51Z</time>
      </trkpt>
      <trkpt lat="43.198158" lon="-2.197625">
        <ele>572.784</ele>
        <time>2021-03-21T07:20:53Z</time>
      </trkpt>
      <trkpt lat="43.198153" lon="-2.197592">
        <ele>573.467</ele>
        <time>2021-03-21T07:20:56Z</time>
      </trkpt>
      <trkpt lat="43.198148" lon="-2.197568">
        <ele>573.981</ele>
        <time>2021-03-21T07:20:58Z</time>
      </trkpt>
      <trkpt lat="43.198144" lon="-2.197541">
        <ele>574.419</ele>
        <time>2021-03-21T07:21:00Z</time>
      </trkpt>
      <trkpt lat="43.198147" lon="-2.197515">
        <ele>575.008</ele>
        <time>2021-03-21T07:21:02Z</time>
      </trkpt>
      <trkpt lat="43.198148" lon="-2.197491">
        <ele>575.532</ele>
        <time>2021-03-21T07:21:04Z</time>
      </trkpt>
      <trkpt lat="43.198131" lon="-2.197473">
        <ele>575.975</ele>
        <time>2021-03-21T07:21:07Z</time>
      </trkpt>
      <trkpt lat="43.198126" lon="-2.197448">
        <ele>576.418</ele>
        <time>2021-03-21T07:21:09Z</time>
      </trkpt>
      <trkpt lat="43.198127" lon="-2.197423">
        <ele>576.979</ele>
        <time>2021-03-21T07:21:11Z</time>
      </trkpt>
      <trkpt lat="43.198126" lon="-2.197393">
        <ele>577.636</ele>
        <time>2021-03-21T07:21:13Z</time>
      </trkpt>
      <trkpt lat="43.198118" lon="-2.197367">
        <ele>578.124</ele>
        <time>2021-03-21T07:21:15Z</time>
      </trkpt>
      <trkpt lat="43.198110" lon="-2.197334">
        <ele>578.844</ele>
        <time>2021-03-21T07:21:18Z</time>
      </trkpt>
      <trkpt lat="43.198101" lon="-2.197307">
        <ele>579.344</ele>
        <time>2021-03-21T07:21:20Z</time>
      </trkpt>
      <trkpt lat="43.198094" lon="-2.197280">
        <ele>579.965</ele>
        <time>2021-03-21T07:21:22Z</time>
      </trkpt>
      <trkpt lat="43.198106" lon="-2.197256">
        <ele>580.568</ele>
        <time>2021-03-21T07:21:25Z</time>
      </trkpt>
      <trkpt lat="43.198116" lon="-2.197234">
        <ele>581.014</ele>
        <time>2021-03-21T07:21:27Z</time>
      </trkpt>
      <trkpt lat="43.198128" lon="-2.197213">
        <ele>581.408</ele>
        <time>2021-03-21T07:21:29Z</time>
      </trkpt>
      <trkpt lat="43.198134" lon="-2.197178">
        <ele>582.182</ele>
        <time>2021-03-21T07:21:32Z</time>
      </trkpt>
      <trkpt lat="43.198148" lon="-2.197152">
        <ele>582.745</ele>
        <time>2021-03-21T07:21:34Z</time>
      </trkpt>
      <trkpt lat="43.198159" lon="-2.197131">
        <ele>583.138</ele>
        <time>2021-03-21T07:21:36Z</time>
      </trkpt>
      <trkpt lat="43.198166" lon="-2.197101">
        <ele>583.739</ele>
        <time>2021-03-21T07:21:39Z</time>
      </trkpt>
      <trkpt lat="43.198174" lon="-2.197071">
        <ele>584.266</ele>
        <time>2021-03-21T07:21:40Z</time>
      </trkpt>
      <trkpt lat="43.198176" lon="-2.197045">
        <ele>584.774</ele>
        <time>2021-03-21T07:21:42Z</time>
      </trkpt>
      <trkpt lat="43.198184" lon="-2.197019">
        <ele>585.294</ele>
        <time>2021-03-21T07:21:44Z</time>
      </trkpt>
      <trkpt lat="43.198199" lon="-2.197004">
        <ele>585.464</ele>
        <time>2021-03-21T07:21:47Z</time>
      </trkpt>
      <trkpt lat="43.198215" lon="-2.196991">
        <ele>585.685</ele>
        <time>2021-03-21T07:21:51Z</time>
      </trkpt>
      <trkpt lat="43.198212" lon="-2.196956">
        <ele>586.289</ele>
        <time>2021-03-21T07:21:55Z</time>
      </trkpt>
      <trkpt lat="43.198192" lon="-2.196953">
        <ele>586.417</ele>
        <time>2021-03-21T07:21:57Z</time>
      </trkpt>
      <trkpt lat="43.198199" lon="-2.196928">
        <ele>586.708</ele>
        <time>2021-03-21T07:22:00Z</time>
      </trkpt>
      <trkpt lat="43.198192" lon="-2.196903">
        <ele>587.254</ele>
        <time>2021-03-21T07:22:02Z</time>
      </trkpt>
      <trkpt lat="43.198179" lon="-2.196883">
        <ele>587.667</ele>
        <time>2021-03-21T07:22:04Z</time>
      </trkpt>
      <trkpt lat="43.198160" lon="-2.196864">
        <ele>588.030</ele>
        <time>2021-03-21T07:22:06Z</time>
      </trkpt>
      <trkpt lat="43.198139" lon="-2.196849">
        <ele>588.331</ele>
        <time>2021-03-21T07:22:08Z</time>
      </trkpt>
      <trkpt lat="43.198117" lon="-2.196843">
        <ele>588.558</ele>
        <time>2021-03-21T07:22:10Z</time>
      </trkpt>
      <trkpt lat="43.198094" lon="-2.196827">
        <ele>588.916</ele>
        <time>2021-03-21T07:22:12Z</time>
      </trkpt>
      <trkpt lat="43.198070" lon="-2.196811">
        <ele>589.356</ele>
        <time>2021-03-21T07:22:14Z</time>
      </trkpt>
      <trkpt lat="43.198046" lon="-2.196796">
        <ele>589.776</ele>
        <time>2021-03-21T07:22:17Z</time>
      </trkpt>
      <trkpt lat="43.198023" lon="-2.196782">
        <ele>590.117</ele>
        <time>2021-03-21T07:22:18Z</time>
      </trkpt>
      <trkpt lat="43.197999" lon="-2.196773">
        <ele>590.487</ele>
        <time>2021-03-21T07:22:20Z</time>
      </trkpt>
      <trkpt lat="43.197980" lon="-2.196758">
        <ele>590.815</ele>
        <time>2021-03-21T07:22:22Z</time>
      </trkpt>
      <trkpt lat="43.197957" lon="-2.196747">
        <ele>591.208</ele>
        <time>2021-03-21T07:22:25Z</time>
      </trkpt>
      <trkpt lat="43.197934" lon="-2.196737">
        <ele>591.537</ele>
        <time>2021-03-21T07:22:26Z</time>
      </trkpt>
      <trkpt lat="43.197909" lon="-2.196724">
        <ele>591.910</ele>
        <time>2021-03-21T07:22:28Z</time>
      </trkpt>
      <trkpt lat="43.197888" lon="-2.196717">
        <ele>592.243</ele>
        <time>2021-03-21T07:22:30Z</time>
      </trkpt>
      <trkpt lat="43.197862" lon="-2.196714">
        <ele>592.434</ele>
        <time>2021-03-21T07:22:32Z</time>
      </trkpt>
      <trkpt lat="43.197838" lon="-2.196706">
        <ele>592.741</ele>
        <time>2021-03-21T07:22:34Z</time>
      </trkpt>
      <trkpt lat="43.197816" lon="-2.196698">
        <ele>593.149</ele>
        <time>2021-03-21T07:22:36Z</time>
      </trkpt>
      <trkpt lat="43.197794" lon="-2.196690">
        <ele>593.469</ele>
        <time>2021-03-21T07:22:39Z</time>
      </trkpt>
      <trkpt lat="43.197771" lon="-2.196686">
        <ele>593.769</ele>
        <time>2021-03-21T07:22:40Z</time>
      </trkpt>
      <trkpt lat="43.197744" lon="-2.196690">
        <ele>593.978</ele>
        <time>2021-03-21T07:22:42Z</time>
      </trkpt>
      <trkpt lat="43.197720" lon="-2.196683">
        <ele>594.333</ele>
        <time>2021-03-21T07:22:44Z</time>
      </trkpt>
      <trkpt lat="43.197698" lon="-2.196676">
        <ele>594.726</ele>
        <time>2021-03-21T07:22:47Z</time>
      </trkpt>
      <trkpt lat="43.197679" lon="-2.196666">
        <ele>595.108</ele>
        <time>2021-03-21T07:22:48Z</time>
      </trkpt>
      <trkpt lat="43.197661" lon="-2.196658">
        <ele>595.443</ele>
        <time>2021-03-21T07:22:50Z</time>
      </trkpt>
      <trkpt lat="43.197642" lon="-2.196650">
        <ele>595.896</ele>
        <time>2021-03-21T07:22:52Z</time>
      </trkpt>
      <trkpt lat="43.197620" lon="-2.196643">
        <ele>596.289</ele>
        <time>2021-03-21T07:22:54Z</time>
      </trkpt>
      <trkpt lat="43.197596" lon="-2.196631">
        <ele>596.770</ele>
        <time>2021-03-21T07:22:58Z</time>
      </trkpt>
      <trkpt lat="43.197572" lon="-2.196618">
        <ele>597.337</ele>
        <time>2021-03-21T07:22:59Z</time>
      </trkpt>
      <trkpt lat="43.197489" lon="-2.196569">
        <ele>599.235</ele>
        <time>2021-03-21T07:23:06Z</time>
      </trkpt>
      <trkpt lat="43.197456" lon="-2.196551">
        <ele>599.895</ele>
        <time>2021-03-21T07:23:09Z</time>
      </trkpt>
      <trkpt lat="43.197431" lon="-2.196548">
        <ele>600.135</ele>
        <time>2021-03-21T07:23:11Z</time>
      </trkpt>
      <trkpt lat="43.197332" lon="-2.196524">
        <ele>601.352</ele>
        <time>2021-03-21T07:23:18Z</time>
      </trkpt>
      <trkpt lat="43.197247" lon="-2.196487">
        <ele>602.753</ele>
        <time>2021-03-21T07:23:26Z</time>
      </trkpt>
      <trkpt lat="43.197162" lon="-2.196433">
        <ele>604.508</ele>
        <time>2021-03-21T07:23:34Z</time>
      </trkpt>
      <trkpt lat="43.197118" lon="-2.196428">
        <ele>604.908</ele>
        <time>2021-03-21T07:23:38Z</time>
      </trkpt>
      <trkpt lat="43.197098" lon="-2.196422">
        <ele>605.231</ele>
        <time>2021-03-21T07:23:40Z</time>
      </trkpt>
      <trkpt lat="43.197076" lon="-2.196418">
        <ele>605.494</ele>
        <time>2021-03-21T07:23:42Z</time>
      </trkpt>
      <trkpt lat="43.197054" lon="-2.196412">
        <ele>605.797</ele>
        <time>2021-03-21T07:23:44Z</time>
      </trkpt>
      <trkpt lat="43.197036" lon="-2.196401">
        <ele>606.178</ele>
        <time>2021-03-21T07:23:46Z</time>
      </trkpt>
      <trkpt lat="43.197014" lon="-2.196391">
        <ele>606.555</ele>
        <time>2021-03-21T07:23:48Z</time>
      </trkpt>
      <trkpt lat="43.196997" lon="-2.196380">
        <ele>606.913</ele>
        <time>2021-03-21T07:23:50Z</time>
      </trkpt>
      <trkpt lat="43.196971" lon="-2.196377">
        <ele>607.133</ele>
        <time>2021-03-21T07:23:52Z</time>
      </trkpt>
      <trkpt lat="43.196944" lon="-2.196372">
        <ele>607.443</ele>
        <time>2021-03-21T07:23:54Z</time>
      </trkpt>
      <trkpt lat="43.196917" lon="-2.196360">
        <ele>607.936</ele>
        <time>2021-03-21T07:23:56Z</time>
      </trkpt>
      <trkpt lat="43.196890" lon="-2.196347">
        <ele>608.417</ele>
        <time>2021-03-21T07:23:58Z</time>
      </trkpt>
      <trkpt lat="43.196867" lon="-2.196330">
        <ele>609.018</ele>
        <time>2021-03-21T07:24:00Z</time>
      </trkpt>
      <trkpt lat="43.196852" lon="-2.196319">
        <ele>609.308</ele>
        <time>2021-03-21T07:24:01Z</time>
      </trkpt>
      <trkpt lat="43.196828" lon="-2.196304">
        <ele>609.859</ele>
        <time>2021-03-21T07:24:03Z</time>
      </trkpt>
      <trkpt lat="43.196807" lon="-2.196292">
        <ele>610.342</ele>
        <time>2021-03-21T07:24:05Z</time>
      </trkpt>
      <trkpt lat="43.196707" lon="-2.196273">
        <ele>611.345</ele>
        <time>2021-03-21T07:24:12Z</time>
      </trkpt>
      <trkpt lat="43.196633" lon="-2.196256">
        <ele>612.056</ele>
        <time>2021-03-21T07:24:16Z</time>
      </trkpt>
      <trkpt lat="43.196581" lon="-2.196253">
        <ele>612.433</ele>
        <time>2021-03-21T07:24:19Z</time>
      </trkpt>
      <trkpt lat="43.196555" lon="-2.196244">
        <ele>612.751</ele>
        <time>2021-03-21T07:24:21Z</time>
      </trkpt>
      <trkpt lat="43.196531" lon="-2.196234">
        <ele>613.151</ele>
        <time>2021-03-21T07:24:23Z</time>
      </trkpt>
      <trkpt lat="43.196506" lon="-2.196225">
        <ele>613.521</ele>
        <time>2021-03-21T07:24:25Z</time>
      </trkpt>
      <trkpt lat="43.196474" lon="-2.196217">
        <ele>613.862</ele>
        <time>2021-03-21T07:24:27Z</time>
      </trkpt>
      <trkpt lat="43.196446" lon="-2.196210">
        <ele>614.283</ele>
        <time>2021-03-21T07:24:29Z</time>
      </trkpt>
      <trkpt lat="43.196422" lon="-2.196198">
        <ele>614.611</ele>
        <time>2021-03-21T07:24:31Z</time>
      </trkpt>
      <trkpt lat="43.196399" lon="-2.196183">
        <ele>615.108</ele>
        <time>2021-03-21T07:24:33Z</time>
      </trkpt>
      <trkpt lat="43.196374" lon="-2.196173">
        <ele>615.592</ele>
        <time>2021-03-21T07:24:36Z</time>
      </trkpt>
      <trkpt lat="43.196351" lon="-2.196160">
        <ele>615.815</ele>
        <time>2021-03-21T07:24:37Z</time>
      </trkpt>
      <trkpt lat="43.196331" lon="-2.196149">
        <ele>616.138</ele>
        <time>2021-03-21T07:24:39Z</time>
      </trkpt>
      <trkpt lat="43.196303" lon="-2.196141">
        <ele>616.349</ele>
        <time>2021-03-21T07:24:41Z</time>
      </trkpt>
      <trkpt lat="43.196281" lon="-2.196132">
        <ele>616.576</ele>
        <time>2021-03-21T07:24:43Z</time>
      </trkpt>
      <trkpt lat="43.196265" lon="-2.196130">
        <ele>616.654</ele>
        <time>2021-03-21T07:24:45Z</time>
      </trkpt>
      <trkpt lat="43.196246" lon="-2.196125">
        <ele>616.744</ele>
        <time>2021-03-21T07:24:49Z</time>
      </trkpt>
      <trkpt lat="43.196227" lon="-2.196118">
        <ele>616.824</ele>
        <time>2021-03-21T07:24:53Z</time>
      </trkpt>
      <trkpt lat="43.196210" lon="-2.196091">
        <ele>617.456</ele>
        <time>2021-03-21T07:24:56Z</time>
      </trkpt>
      <trkpt lat="43.196201" lon="-2.196071">
        <ele>617.859</ele>
        <time>2021-03-21T07:24:58Z</time>
      </trkpt>
      <trkpt lat="43.196180" lon="-2.196042">
        <ele>618.314</ele>
        <time>2021-03-21T07:25:01Z</time>
      </trkpt>
      <trkpt lat="43.196156" lon="-2.196030">
        <ele>618.508</ele>
        <time>2021-03-21T07:25:03Z</time>
      </trkpt>
      <trkpt lat="43.196138" lon="-2.196018">
        <ele>618.761</ele>
        <time>2021-03-21T07:25:05Z</time>
      </trkpt>
      <trkpt lat="43.196119" lon="-2.196004">
        <ele>618.944</ele>
        <time>2021-03-21T07:25:07Z</time>
      </trkpt>
      <trkpt lat="43.196095" lon="-2.195990">
        <ele>619.127</ele>
        <time>2021-03-21T07:25:09Z</time>
      </trkpt>
      <trkpt lat="43.196077" lon="-2.195976">
        <ele>619.328</ele>
        <time>2021-03-21T07:25:11Z</time>
      </trkpt>
      <trkpt lat="43.196055" lon="-2.195959">
        <ele>619.585</ele>
        <time>2021-03-21T07:25:13Z</time>
      </trkpt>
      <trkpt lat="43.196033" lon="-2.195937">
        <ele>619.923</ele>
        <time>2021-03-21T07:25:15Z</time>
      </trkpt>
      <trkpt lat="43.196013" lon="-2.195914">
        <ele>620.253</ele>
        <time>2021-03-21T07:25:17Z</time>
      </trkpt>
      <trkpt lat="43.195988" lon="-2.195889">
        <ele>620.693</ele>
        <time>2021-03-21T07:25:19Z</time>
      </trkpt>
      <trkpt lat="43.195967" lon="-2.195865">
        <ele>620.931</ele>
        <time>2021-03-21T07:25:21Z</time>
      </trkpt>
      <trkpt lat="43.195943" lon="-2.195844">
        <ele>621.261</ele>
        <time>2021-03-21T07:25:24Z</time>
      </trkpt>
      <trkpt lat="43.195926" lon="-2.195817">
        <ele>621.607</ele>
        <time>2021-03-21T07:25:25Z</time>
      </trkpt>
      <trkpt lat="43.195911" lon="-2.195788">
        <ele>622.008</ele>
        <time>2021-03-21T07:25:27Z</time>
      </trkpt>
      <trkpt lat="43.195890" lon="-2.195762">
        <ele>622.399</ele>
        <time>2021-03-21T07:25:29Z</time>
      </trkpt>
      <trkpt lat="43.195868" lon="-2.195739">
        <ele>622.592</ele>
        <time>2021-03-21T07:25:31Z</time>
      </trkpt>
      <trkpt lat="43.195861" lon="-2.195707">
        <ele>623.085</ele>
        <time>2021-03-21T07:25:33Z</time>
      </trkpt>
      <trkpt lat="43.195858" lon="-2.195670">
        <ele>623.576</ele>
        <time>2021-03-21T07:25:35Z</time>
      </trkpt>
      <trkpt lat="43.195834" lon="-2.195646">
        <ele>623.763</ele>
        <time>2021-03-21T07:25:37Z</time>
      </trkpt>
      <trkpt lat="43.195805" lon="-2.195615">
        <ele>623.891</ele>
        <time>2021-03-21T07:25:39Z</time>
      </trkpt>
      <trkpt lat="43.195785" lon="-2.195589">
        <ele>624.011</ele>
        <time>2021-03-21T07:25:41Z</time>
      </trkpt>
      <trkpt lat="43.195764" lon="-2.195555">
        <ele>624.331</ele>
        <time>2021-03-21T07:25:43Z</time>
      </trkpt>
      <trkpt lat="43.195753" lon="-2.195535">
        <ele>624.418</ele>
        <time>2021-03-21T07:25:44Z</time>
      </trkpt>
      <trkpt lat="43.195741" lon="-2.195519">
        <ele>624.598</ele>
        <time>2021-03-21T07:25:46Z</time>
      </trkpt>
      <trkpt lat="43.195719" lon="-2.195484">
        <ele>624.717</ele>
        <time>2021-03-21T07:25:47Z</time>
      </trkpt>
      <trkpt lat="43.195701" lon="-2.195448">
        <ele>624.908</ele>
        <time>2021-03-21T07:25:49Z</time>
      </trkpt>
      <trkpt lat="43.195689" lon="-2.195408">
        <ele>625.327</ele>
        <time>2021-03-21T07:25:51Z</time>
      </trkpt>
      <trkpt lat="43.195674" lon="-2.195374">
        <ele>625.580</ele>
        <time>2021-03-21T07:25:53Z</time>
      </trkpt>
      <trkpt lat="43.195657" lon="-2.195341">
        <ele>625.743</ele>
        <time>2021-03-21T07:25:55Z</time>
      </trkpt>
      <trkpt lat="43.195641" lon="-2.195307">
        <ele>625.914</ele>
        <time>2021-03-21T07:25:58Z</time>
      </trkpt>
      <trkpt lat="43.195624" lon="-2.195280">
        <ele>626.011</ele>
        <time>2021-03-21T07:25:59Z</time>
      </trkpt>
      <trkpt lat="43.195615" lon="-2.195248">
        <ele>626.269</ele>
        <time>2021-03-21T07:26:01Z</time>
      </trkpt>
      <trkpt lat="43.195603" lon="-2.195205">
        <ele>626.599</ele>
        <time>2021-03-21T07:26:03Z</time>
      </trkpt>
      <trkpt lat="43.195601" lon="-2.195157">
        <ele>627.019</ele>
        <time>2021-03-21T07:26:05Z</time>
      </trkpt>
      <trkpt lat="43.195588" lon="-2.195114">
        <ele>627.337</ele>
        <time>2021-03-21T07:26:07Z</time>
      </trkpt>
      <trkpt lat="43.195576" lon="-2.195078">
        <ele>627.549</ele>
        <time>2021-03-21T07:26:09Z</time>
      </trkpt>
      <trkpt lat="43.195556" lon="-2.195040">
        <ele>627.613</ele>
        <time>2021-03-21T07:26:12Z</time>
      </trkpt>
      <trkpt lat="43.195544" lon="-2.195009">
        <ele>627.708</ele>
        <time>2021-03-21T07:26:14Z</time>
      </trkpt>
      <trkpt lat="43.195536" lon="-2.194979">
        <ele>627.999</ele>
        <time>2021-03-21T07:26:17Z</time>
      </trkpt>
      <trkpt lat="43.195530" lon="-2.194947">
        <ele>628.142</ele>
        <time>2021-03-21T07:26:18Z</time>
      </trkpt>
      <trkpt lat="43.195522" lon="-2.194908">
        <ele>628.495</ele>
        <time>2021-03-21T07:26:20Z</time>
      </trkpt>
      <trkpt lat="43.195520" lon="-2.194884">
        <ele>628.696</ele>
        <time>2021-03-21T07:26:21Z</time>
      </trkpt>
      <trkpt lat="43.195516" lon="-2.194843">
        <ele>629.083</ele>
        <time>2021-03-21T07:26:23Z</time>
      </trkpt>
      <trkpt lat="43.195505" lon="-2.194803">
        <ele>629.261</ele>
        <time>2021-03-21T07:26:25Z</time>
      </trkpt>
      <trkpt lat="43.195495" lon="-2.194760">
        <ele>629.521</ele>
        <time>2021-03-21T07:26:27Z</time>
      </trkpt>
      <trkpt lat="43.195484" lon="-2.194722">
        <ele>629.751</ele>
        <time>2021-03-21T07:26:29Z</time>
      </trkpt>
      <trkpt lat="43.195474" lon="-2.194686">
        <ele>630.056</ele>
        <time>2021-03-21T07:26:31Z</time>
      </trkpt>
      <trkpt lat="43.195458" lon="-2.194643">
        <ele>630.259</ele>
        <time>2021-03-21T07:26:33Z</time>
      </trkpt>
      <trkpt lat="43.195447" lon="-2.194603">
        <ele>630.414</ele>
        <time>2021-03-21T07:26:35Z</time>
      </trkpt>
      <trkpt lat="43.195435" lon="-2.194565">
        <ele>630.608</ele>
        <time>2021-03-21T07:26:37Z</time>
      </trkpt>
      <trkpt lat="43.195414" lon="-2.194531">
        <ele>630.551</ele>
        <time>2021-03-21T07:26:39Z</time>
      </trkpt>
      <trkpt lat="43.195395" lon="-2.194500">
        <ele>630.424</ele>
        <time>2021-03-21T07:26:41Z</time>
      </trkpt>
      <trkpt lat="43.195385" lon="-2.194473">
        <ele>630.487</ele>
        <time>2021-03-21T07:26:43Z</time>
      </trkpt>
      <trkpt lat="43.195375" lon="-2.194451">
        <ele>630.428</ele>
        <time>2021-03-21T07:26:45Z</time>
      </trkpt>
      <trkpt lat="43.195361" lon="-2.194435">
        <ele>630.175</ele>
        <time>2021-03-21T07:26:48Z</time>
      </trkpt>
      <trkpt lat="43.195371" lon="-2.194400">
        <ele>630.643</ele>
        <time>2021-03-21T07:26:52Z</time>
      </trkpt>
      <trkpt lat="43.195369" lon="-2.194372">
        <ele>630.643</ele>
        <time>2021-03-21T07:26:55Z</time>
      </trkpt>
      <trkpt lat="43.195366" lon="-2.194343">
        <ele>630.793</ele>
        <time>2021-03-21T07:26:57Z</time>
      </trkpt>
      <trkpt lat="43.195369" lon="-2.194299">
        <ele>631.046</ele>
        <time>2021-03-21T07:26:59Z</time>
      </trkpt>
      <trkpt lat="43.195359" lon="-2.194255">
        <ele>630.988</ele>
        <time>2021-03-21T07:27:01Z</time>
      </trkpt>
      <trkpt lat="43.195347" lon="-2.194207">
        <ele>630.816</ele>
        <time>2021-03-21T07:27:03Z</time>
      </trkpt>
      <trkpt lat="43.195335" lon="-2.194148">
        <ele>630.708</ele>
        <time>2021-03-21T07:27:05Z</time>
      </trkpt>
      <trkpt lat="43.195325" lon="-2.194115">
        <ele>630.580</ele>
        <time>2021-03-21T07:27:06Z</time>
      </trkpt>
      <trkpt lat="43.195318" lon="-2.194079">
        <ele>630.583</ele>
        <time>2021-03-21T07:27:07Z</time>
      </trkpt>
      <trkpt lat="43.195315" lon="-2.194042">
        <ele>630.586</ele>
        <time>2021-03-21T07:27:08Z</time>
      </trkpt>
      <trkpt lat="43.195310" lon="-2.194003">
        <ele>630.577</ele>
        <time>2021-03-21T07:27:09Z</time>
      </trkpt>
      <trkpt lat="43.195304" lon="-2.193966">
        <ele>630.534</ele>
        <time>2021-03-21T07:27:10Z</time>
      </trkpt>
      <trkpt lat="43.195300" lon="-2.193927">
        <ele>630.512</ele>
        <time>2021-03-21T07:27:11Z</time>
      </trkpt>
      <trkpt lat="43.195294" lon="-2.193886">
        <ele>630.592</ele>
        <time>2021-03-21T07:27:13Z</time>
      </trkpt>
      <trkpt lat="43.195278" lon="-2.193806">
        <ele>630.362</ele>
        <time>2021-03-21T07:27:14Z</time>
      </trkpt>
      <trkpt lat="43.195269" lon="-2.193763">
        <ele>630.214</ele>
        <time>2021-03-21T07:27:15Z</time>
      </trkpt>
      <trkpt lat="43.195265" lon="-2.193722">
        <ele>630.254</ele>
        <time>2021-03-21T07:27:16Z</time>
      </trkpt>
      <trkpt lat="43.195244" lon="-2.193639">
        <ele>629.809</ele>
        <time>2021-03-21T07:27:18Z</time>
      </trkpt>
      <trkpt lat="43.195237" lon="-2.193597">
        <ele>629.708</ele>
        <time>2021-03-21T07:27:19Z</time>
      </trkpt>
      <trkpt lat="43.195221" lon="-2.193509">
        <ele>629.287</ele>
        <time>2021-03-21T07:27:21Z</time>
      </trkpt>
      <trkpt lat="43.195215" lon="-2.193466">
        <ele>629.090</ele>
        <time>2021-03-21T07:27:22Z</time>
      </trkpt>
      <trkpt lat="43.195211" lon="-2.193421">
        <ele>628.823</ele>
        <time>2021-03-21T07:27:23Z</time>
      </trkpt>
      <trkpt lat="43.195205" lon="-2.193377">
        <ele>628.614</ele>
        <time>2021-03-21T07:27:24Z</time>
      </trkpt>
      <trkpt lat="43.195202" lon="-2.193333">
        <ele>628.591</ele>
        <time>2021-03-21T07:27:25Z</time>
      </trkpt>
      <trkpt lat="43.195197" lon="-2.193288">
        <ele>628.429</ele>
        <time>2021-03-21T07:27:26Z</time>
      </trkpt>
      <trkpt lat="43.195192" lon="-2.193248">
        <ele>628.279</ele>
        <time>2021-03-21T07:27:27Z</time>
      </trkpt>
      <trkpt lat="43.195183" lon="-2.193209">
        <ele>627.919</ele>
        <time>2021-03-21T07:27:28Z</time>
      </trkpt>
      <trkpt lat="43.195179" lon="-2.193167">
        <ele>627.848</ele>
        <time>2021-03-21T07:27:29Z</time>
      </trkpt>
      <trkpt lat="43.195177" lon="-2.193124">
        <ele>627.761</ele>
        <time>2021-03-21T07:27:30Z</time>
      </trkpt>
      <trkpt lat="43.195176" lon="-2.193081">
        <ele>627.717</ele>
        <time>2021-03-21T07:27:31Z</time>
      </trkpt>
      <trkpt lat="43.195170" lon="-2.193039">
        <ele>627.508</ele>
        <time>2021-03-21T07:27:32Z</time>
      </trkpt>
      <trkpt lat="43.195168" lon="-2.192995">
        <ele>627.470</ele>
        <time>2021-03-21T07:27:33Z</time>
      </trkpt>
      <trkpt lat="43.195167" lon="-2.192951">
        <ele>627.453</ele>
        <time>2021-03-21T07:27:34Z</time>
      </trkpt>
      <trkpt lat="43.195167" lon="-2.192909">
        <ele>627.456</ele>
        <time>2021-03-21T07:27:35Z</time>
      </trkpt>
      <trkpt lat="43.195166" lon="-2.192869">
        <ele>627.477</ele>
        <time>2021-03-21T07:27:36Z</time>
      </trkpt>
      <trkpt lat="43.195164" lon="-2.192826">
        <ele>627.334</ele>
        <time>2021-03-21T07:27:37Z</time>
      </trkpt>
      <trkpt lat="43.195159" lon="-2.192782">
        <ele>627.232</ele>
        <time>2021-03-21T07:27:38Z</time>
      </trkpt>
      <trkpt lat="43.195154" lon="-2.192740">
        <ele>626.932</ele>
        <time>2021-03-21T07:27:39Z</time>
      </trkpt>
      <trkpt lat="43.195151" lon="-2.192699">
        <ele>626.712</ele>
        <time>2021-03-21T07:27:40Z</time>
      </trkpt>
      <trkpt lat="43.195149" lon="-2.192659">
        <ele>626.661</ele>
        <time>2021-03-21T07:27:41Z</time>
      </trkpt>
      <trkpt lat="43.195145" lon="-2.192618">
        <ele>626.421</ele>
        <time>2021-03-21T07:27:42Z</time>
      </trkpt>
      <trkpt lat="43.195145" lon="-2.192577">
        <ele>626.313</ele>
        <time>2021-03-21T07:27:43Z</time>
      </trkpt>
      <trkpt lat="43.195143" lon="-2.192535">
        <ele>626.208</ele>
        <time>2021-03-21T07:27:44Z</time>
      </trkpt>
      <trkpt lat="43.195142" lon="-2.192492">
        <ele>626.142</ele>
        <time>2021-03-21T07:27:45Z</time>
      </trkpt>
      <trkpt lat="43.195140" lon="-2.192451">
        <ele>626.045</ele>
        <time>2021-03-21T07:27:46Z</time>
      </trkpt>
      <trkpt lat="43.195140" lon="-2.192409">
        <ele>626.038</ele>
        <time>2021-03-21T07:27:47Z</time>
      </trkpt>
      <trkpt lat="43.195139" lon="-2.192365">
        <ele>626.069</ele>
        <time>2021-03-21T07:27:48Z</time>
      </trkpt>
      <trkpt lat="43.195139" lon="-2.192323">
        <ele>626.096</ele>
        <time>2021-03-21T07:27:49Z</time>
      </trkpt>
      <trkpt lat="43.195137" lon="-2.192282">
        <ele>625.934</ele>
        <time>2021-03-21T07:27:50Z</time>
      </trkpt>
      <trkpt lat="43.195131" lon="-2.192243">
        <ele>625.884</ele>
        <time>2021-03-21T07:27:51Z</time>
      </trkpt>
      <trkpt lat="43.195125" lon="-2.192202">
        <ele>625.634</ele>
        <time>2021-03-21T07:27:52Z</time>
      </trkpt>
      <trkpt lat="43.195115" lon="-2.192161">
        <ele>625.437</ele>
        <time>2021-03-21T07:27:53Z</time>
      </trkpt>
      <trkpt lat="43.195107" lon="-2.192120">
        <ele>625.249</ele>
        <time>2021-03-21T07:27:54Z</time>
      </trkpt>
      <trkpt lat="43.195097" lon="-2.192079">
        <ele>625.013</ele>
        <time>2021-03-21T07:27:55Z</time>
      </trkpt>
      <trkpt lat="43.195088" lon="-2.192040">
        <ele>624.708</ele>
        <time>2021-03-21T07:27:56Z</time>
      </trkpt>
      <trkpt lat="43.195082" lon="-2.191998">
        <ele>624.619</ele>
        <time>2021-03-21T07:27:57Z</time>
      </trkpt>
      <trkpt lat="43.195073" lon="-2.191957">
        <ele>624.482</ele>
        <time>2021-03-21T07:27:58Z</time>
      </trkpt>
      <trkpt lat="43.195062" lon="-2.191875">
        <ele>624.425</ele>
        <time>2021-03-21T07:28:00Z</time>
      </trkpt>
      <trkpt lat="43.195055" lon="-2.191835">
        <ele>624.446</ele>
        <time>2021-03-21T07:28:01Z</time>
      </trkpt>
      <trkpt lat="43.195046" lon="-2.191797">
        <ele>624.453</ele>
        <time>2021-03-21T07:28:02Z</time>
      </trkpt>
      <trkpt lat="43.195037" lon="-2.191760">
        <ele>624.431</ele>
        <time>2021-03-21T07:28:03Z</time>
      </trkpt>
      <trkpt lat="43.195026" lon="-2.191722">
        <ele>624.341</ele>
        <time>2021-03-21T07:28:04Z</time>
      </trkpt>
      <trkpt lat="43.195012" lon="-2.191684">
        <ele>624.261</ele>
        <time>2021-03-21T07:28:05Z</time>
      </trkpt>
      <trkpt lat="43.195000" lon="-2.191649">
        <ele>624.148</ele>
        <time>2021-03-21T07:28:06Z</time>
      </trkpt>
      <trkpt lat="43.194986" lon="-2.191612">
        <ele>623.861</ele>
        <time>2021-03-21T07:28:07Z</time>
      </trkpt>
      <trkpt lat="43.194975" lon="-2.191576">
        <ele>623.717</ele>
        <time>2021-03-21T07:28:08Z</time>
      </trkpt>
      <trkpt lat="43.194966" lon="-2.191541">
        <ele>623.608</ele>
        <time>2021-03-21T07:28:09Z</time>
      </trkpt>
      <trkpt lat="43.194940" lon="-2.191465">
        <ele>623.250</ele>
        <time>2021-03-21T07:28:11Z</time>
      </trkpt>
      <trkpt lat="43.194927" lon="-2.191429">
        <ele>623.093</ele>
        <time>2021-03-21T07:28:12Z</time>
      </trkpt>
      <trkpt lat="43.194914" lon="-2.191391">
        <ele>622.976</ele>
        <time>2021-03-21T07:28:13Z</time>
      </trkpt>
      <trkpt lat="43.194903" lon="-2.191354">
        <ele>622.867</ele>
        <time>2021-03-21T07:28:14Z</time>
      </trkpt>
      <trkpt lat="43.194894" lon="-2.191315">
        <ele>622.894</ele>
        <time>2021-03-21T07:28:15Z</time>
      </trkpt>
      <trkpt lat="43.194885" lon="-2.191277">
        <ele>622.852</ele>
        <time>2021-03-21T07:28:16Z</time>
      </trkpt>
      <trkpt lat="43.194877" lon="-2.191241">
        <ele>622.992</ele>
        <time>2021-03-21T07:28:17Z</time>
      </trkpt>
      <trkpt lat="43.194867" lon="-2.191203">
        <ele>622.952</ele>
        <time>2021-03-21T07:28:18Z</time>
      </trkpt>
      <trkpt lat="43.194848" lon="-2.191124">
        <ele>623.076</ele>
        <time>2021-03-21T07:28:20Z</time>
      </trkpt>
      <trkpt lat="43.194837" lon="-2.191085">
        <ele>622.990</ele>
        <time>2021-03-21T07:28:21Z</time>
      </trkpt>
      <trkpt lat="43.194827" lon="-2.191046">
        <ele>622.819</ele>
        <time>2021-03-21T07:28:22Z</time>
      </trkpt>
      <trkpt lat="43.194817" lon="-2.191011">
        <ele>622.708</ele>
        <time>2021-03-21T07:28:23Z</time>
      </trkpt>
      <trkpt lat="43.194806" lon="-2.190975">
        <ele>622.553</ele>
        <time>2021-03-21T07:28:24Z</time>
      </trkpt>
      <trkpt lat="43.194797" lon="-2.190939">
        <ele>622.596</ele>
        <time>2021-03-21T07:28:25Z</time>
      </trkpt>
      <trkpt lat="43.194788" lon="-2.190901">
        <ele>622.599</ele>
        <time>2021-03-21T07:28:26Z</time>
      </trkpt>
      <trkpt lat="43.194778" lon="-2.190865">
        <ele>622.470</ele>
        <time>2021-03-21T07:28:27Z</time>
      </trkpt>
      <trkpt lat="43.194771" lon="-2.190828">
        <ele>622.457</ele>
        <time>2021-03-21T07:28:28Z</time>
      </trkpt>
      <trkpt lat="43.194764" lon="-2.190792">
        <ele>622.225</ele>
        <time>2021-03-21T07:28:29Z</time>
      </trkpt>
      <trkpt lat="43.194756" lon="-2.190755">
        <ele>622.055</ele>
        <time>2021-03-21T07:28:30Z</time>
      </trkpt>
      <trkpt lat="43.194748" lon="-2.190719">
        <ele>621.865</ele>
        <time>2021-03-21T07:28:31Z</time>
      </trkpt>
      <trkpt lat="43.194739" lon="-2.190682">
        <ele>621.584</ele>
        <time>2021-03-21T07:28:32Z</time>
      </trkpt>
      <trkpt lat="43.194731" lon="-2.190644">
        <ele>621.307</ele>
        <time>2021-03-21T07:28:33Z</time>
      </trkpt>
      <trkpt lat="43.194721" lon="-2.190606">
        <ele>621.017</ele>
        <time>2021-03-21T07:28:34Z</time>
      </trkpt>
      <trkpt lat="43.194713" lon="-2.190568">
        <ele>620.708</ele>
        <time>2021-03-21T07:28:35Z</time>
      </trkpt>
      <trkpt lat="43.194702" lon="-2.190527">
        <ele>620.514</ele>
        <time>2021-03-21T07:28:36Z</time>
      </trkpt>
      <trkpt lat="43.194693" lon="-2.190489">
        <ele>620.437</ele>
        <time>2021-03-21T07:28:37Z</time>
      </trkpt>
      <trkpt lat="43.194684" lon="-2.190452">
        <ele>620.320</ele>
        <time>2021-03-21T07:28:38Z</time>
      </trkpt>
      <trkpt lat="43.194674" lon="-2.190413">
        <ele>620.171</ele>
        <time>2021-03-21T07:28:39Z</time>
      </trkpt>
      <trkpt lat="43.194664" lon="-2.190375">
        <ele>620.098</ele>
        <time>2021-03-21T07:28:40Z</time>
      </trkpt>
      <trkpt lat="43.194653" lon="-2.190338">
        <ele>619.866</ele>
        <time>2021-03-21T07:28:41Z</time>
      </trkpt>
      <trkpt lat="43.194641" lon="-2.190298">
        <ele>619.686</ele>
        <time>2021-03-21T07:28:42Z</time>
      </trkpt>
      <trkpt lat="43.194630" lon="-2.190260">
        <ele>619.346</ele>
        <time>2021-03-21T07:28:43Z</time>
      </trkpt>
      <trkpt lat="43.194618" lon="-2.190223">
        <ele>619.042</ele>
        <time>2021-03-21T07:28:44Z</time>
      </trkpt>
      <trkpt lat="43.194604" lon="-2.190185">
        <ele>618.622</ele>
        <time>2021-03-21T07:28:45Z</time>
      </trkpt>
      <trkpt lat="43.194594" lon="-2.190148">
        <ele>618.314</ele>
        <time>2021-03-21T07:28:46Z</time>
      </trkpt>
      <trkpt lat="43.194585" lon="-2.190111">
        <ele>618.008</ele>
        <time>2021-03-21T07:28:47Z</time>
      </trkpt>
      <trkpt lat="43.194574" lon="-2.190071">
        <ele>617.750</ele>
        <time>2021-03-21T07:28:48Z</time>
      </trkpt>
      <trkpt lat="43.194564" lon="-2.190029">
        <ele>617.483</ele>
        <time>2021-03-21T07:28:49Z</time>
      </trkpt>
      <trkpt lat="43.194555" lon="-2.189990">
        <ele>617.246</ele>
        <time>2021-03-21T07:28:50Z</time>
      </trkpt>
      <trkpt lat="43.194549" lon="-2.189946">
        <ele>616.977</ele>
        <time>2021-03-21T07:28:51Z</time>
      </trkpt>
      <trkpt lat="43.194544" lon="-2.189901">
        <ele>616.674</ele>
        <time>2021-03-21T07:28:52Z</time>
      </trkpt>
      <trkpt lat="43.194540" lon="-2.189854">
        <ele>616.442</ele>
        <time>2021-03-21T07:28:53Z</time>
      </trkpt>
      <trkpt lat="43.194536" lon="-2.189808">
        <ele>616.232</ele>
        <time>2021-03-21T07:28:54Z</time>
      </trkpt>
      <trkpt lat="43.194531" lon="-2.189720">
        <ele>615.912</ele>
        <time>2021-03-21T07:28:56Z</time>
      </trkpt>
      <trkpt lat="43.194526" lon="-2.189677">
        <ele>615.792</ele>
        <time>2021-03-21T07:28:57Z</time>
      </trkpt>
      <trkpt lat="43.194521" lon="-2.189634">
        <ele>615.673</ele>
        <time>2021-03-21T07:28:58Z</time>
      </trkpt>
      <trkpt lat="43.194516" lon="-2.189591">
        <ele>615.520</ele>
        <time>2021-03-21T07:28:59Z</time>
      </trkpt>
      <trkpt lat="43.194509" lon="-2.189549">
        <ele>615.408</ele>
        <time>2021-03-21T07:29:00Z</time>
      </trkpt>
      <trkpt lat="43.194500" lon="-2.189509">
        <ele>615.415</ele>
        <time>2021-03-21T07:29:01Z</time>
      </trkpt>
      <trkpt lat="43.194493" lon="-2.189468">
        <ele>615.368</ele>
        <time>2021-03-21T07:29:02Z</time>
      </trkpt>
      <trkpt lat="43.194487" lon="-2.189425">
        <ele>615.291</ele>
        <time>2021-03-21T07:29:03Z</time>
      </trkpt>
      <trkpt lat="43.194483" lon="-2.189384">
        <ele>615.072</ele>
        <time>2021-03-21T07:29:04Z</time>
      </trkpt>
      <trkpt lat="43.194478" lon="-2.189341">
        <ele>614.789</ele>
        <time>2021-03-21T07:29:05Z</time>
      </trkpt>
      <trkpt lat="43.194471" lon="-2.189298">
        <ele>614.597</ele>
        <time>2021-03-21T07:29:06Z</time>
      </trkpt>
      <trkpt lat="43.194465" lon="-2.189253">
        <ele>614.397</ele>
        <time>2021-03-21T07:29:07Z</time>
      </trkpt>
      <trkpt lat="43.194459" lon="-2.189210">
        <ele>614.187</ele>
        <time>2021-03-21T07:29:08Z</time>
      </trkpt>
      <trkpt lat="43.194454" lon="-2.189167">
        <ele>614.037</ele>
        <time>2021-03-21T07:29:09Z</time>
      </trkpt>
      <trkpt lat="43.194448" lon="-2.189122">
        <ele>613.849</ele>
        <time>2021-03-21T07:29:10Z</time>
      </trkpt>
      <trkpt lat="43.194436" lon="-2.189040">
        <ele>613.413</ele>
        <time>2021-03-21T07:29:12Z</time>
      </trkpt>
      <trkpt lat="43.194429" lon="-2.188997">
        <ele>613.108</ele>
        <time>2021-03-21T07:29:13Z</time>
      </trkpt>
      <trkpt lat="43.194404" lon="-2.188917">
        <ele>612.349</ele>
        <time>2021-03-21T07:29:15Z</time>
      </trkpt>
      <trkpt lat="43.194390" lon="-2.188878">
        <ele>611.932</ele>
        <time>2021-03-21T07:29:16Z</time>
      </trkpt>
      <trkpt lat="43.194379" lon="-2.188839">
        <ele>611.575</ele>
        <time>2021-03-21T07:29:17Z</time>
      </trkpt>
      <trkpt lat="43.194359" lon="-2.188762">
        <ele>610.756</ele>
        <time>2021-03-21T07:29:19Z</time>
      </trkpt>
      <trkpt lat="43.194349" lon="-2.188724">
        <ele>610.313</ele>
        <time>2021-03-21T07:29:20Z</time>
      </trkpt>
      <trkpt lat="43.194340" lon="-2.188683">
        <ele>610.021</ele>
        <time>2021-03-21T07:29:21Z</time>
      </trkpt>
      <trkpt lat="43.194329" lon="-2.188646">
        <ele>609.821</ele>
        <time>2021-03-21T07:29:22Z</time>
      </trkpt>
      <trkpt lat="43.194306" lon="-2.188580">
        <ele>609.321</ele>
        <time>2021-03-21T07:29:24Z</time>
      </trkpt>
      <trkpt lat="43.194298" lon="-2.188548">
        <ele>609.293</ele>
        <time>2021-03-21T07:29:25Z</time>
      </trkpt>
      <trkpt lat="43.194287" lon="-2.188512">
        <ele>609.065</ele>
        <time>2021-03-21T07:29:26Z</time>
      </trkpt>
      <trkpt lat="43.194277" lon="-2.188474">
        <ele>608.921</ele>
        <time>2021-03-21T07:29:27Z</time>
      </trkpt>
      <trkpt lat="43.194269" lon="-2.188435">
        <ele>608.808</ele>
        <time>2021-03-21T07:29:28Z</time>
      </trkpt>
      <trkpt lat="43.194261" lon="-2.188395">
        <ele>608.845</ele>
        <time>2021-03-21T07:29:29Z</time>
      </trkpt>
      <trkpt lat="43.194251" lon="-2.188356">
        <ele>608.878</ele>
        <time>2021-03-21T07:29:30Z</time>
      </trkpt>
      <trkpt lat="43.194242" lon="-2.188314">
        <ele>608.881</ele>
        <time>2021-03-21T07:29:31Z</time>
      </trkpt>
      <trkpt lat="43.194235" lon="-2.188271">
        <ele>608.542</ele>
        <time>2021-03-21T07:29:32Z</time>
      </trkpt>
      <trkpt lat="43.194228" lon="-2.188231">
        <ele>608.339</ele>
        <time>2021-03-21T07:29:33Z</time>
      </trkpt>
      <trkpt lat="43.194222" lon="-2.188191">
        <ele>608.287</ele>
        <time>2021-03-21T07:29:34Z</time>
      </trkpt>
      <trkpt lat="43.194216" lon="-2.188151">
        <ele>608.087</ele>
        <time>2021-03-21T07:29:35Z</time>
      </trkpt>
      <trkpt lat="43.194211" lon="-2.188109">
        <ele>607.917</ele>
        <time>2021-03-21T07:29:36Z</time>
      </trkpt>
      <trkpt lat="43.194204" lon="-2.188068">
        <ele>607.954</ele>
        <time>2021-03-21T07:29:37Z</time>
      </trkpt>
      <trkpt lat="43.194193" lon="-2.188027">
        <ele>608.256</ele>
        <time>2021-03-21T07:29:38Z</time>
      </trkpt>
      <trkpt lat="43.194181" lon="-2.187990">
        <ele>608.711</ele>
        <time>2021-03-21T07:29:39Z</time>
      </trkpt>
      <trkpt lat="43.194158" lon="-2.187916">
        <ele>609.408</ele>
        <time>2021-03-21T07:29:41Z</time>
      </trkpt>
      <trkpt lat="43.194145" lon="-2.187881">
        <ele>609.451</ele>
        <time>2021-03-21T07:29:42Z</time>
      </trkpt>
      <trkpt lat="43.194126" lon="-2.187853">
        <ele>609.214</ele>
        <time>2021-03-21T07:29:43Z</time>
      </trkpt>
      <trkpt lat="43.194105" lon="-2.187828">
        <ele>609.127</ele>
        <time>2021-03-21T07:29:44Z</time>
      </trkpt>
      <trkpt lat="43.194089" lon="-2.187805">
        <ele>609.038</ele>
        <time>2021-03-21T07:29:45Z</time>
      </trkpt>
      <trkpt lat="43.194077" lon="-2.187785">
        <ele>609.065</ele>
        <time>2021-03-21T07:29:46Z</time>
      </trkpt>
      <trkpt lat="43.194069" lon="-2.187755">
        <ele>609.033</ele>
        <time>2021-03-21T07:29:48Z</time>
      </trkpt>
      <trkpt lat="43.194065" lon="-2.187707">
        <ele>609.053</ele>
        <time>2021-03-21T07:29:50Z</time>
      </trkpt>
      <trkpt lat="43.194064" lon="-2.187681">
        <ele>609.133</ele>
        <time>2021-03-21T07:29:51Z</time>
      </trkpt>
      <trkpt lat="43.194066" lon="-2.187641">
        <ele>609.128</ele>
        <time>2021-03-21T07:29:53Z</time>
      </trkpt>
      <trkpt lat="43.194063" lon="-2.187604">
        <ele>609.289</ele>
        <time>2021-03-21T07:29:55Z</time>
      </trkpt>
      <trkpt lat="43.194059" lon="-2.187566">
        <ele>609.317</ele>
        <time>2021-03-21T07:29:57Z</time>
      </trkpt>
      <trkpt lat="43.194056" lon="-2.187527">
        <ele>609.308</ele>
        <time>2021-03-21T07:29:59Z</time>
      </trkpt>
      <trkpt lat="43.194053" lon="-2.187489">
        <ele>609.498</ele>
        <time>2021-03-21T07:30:02Z</time>
      </trkpt>
      <trkpt lat="43.194045" lon="-2.187450">
        <ele>609.451</ele>
        <time>2021-03-21T07:30:04Z</time>
      </trkpt>
      <trkpt lat="43.194036" lon="-2.187412">
        <ele>609.424</ele>
        <time>2021-03-21T07:30:05Z</time>
      </trkpt>
      <trkpt lat="43.194028" lon="-2.187372">
        <ele>609.515</ele>
        <time>2021-03-21T07:30:07Z</time>
      </trkpt>
      <trkpt lat="43.194019" lon="-2.187332">
        <ele>609.652</ele>
        <time>2021-03-21T07:30:09Z</time>
      </trkpt>
      <trkpt lat="43.194005" lon="-2.187294">
        <ele>609.890</ele>
        <time>2021-03-21T07:30:12Z</time>
      </trkpt>
      <trkpt lat="43.193993" lon="-2.187258">
        <ele>610.120</ele>
        <time>2021-03-21T07:30:14Z</time>
      </trkpt>
      <trkpt lat="43.193979" lon="-2.187221">
        <ele>610.480</ele>
        <time>2021-03-21T07:30:15Z</time>
      </trkpt>
      <trkpt lat="43.193965" lon="-2.187187">
        <ele>610.783</ele>
        <time>2021-03-21T07:30:17Z</time>
      </trkpt>
      <trkpt lat="43.193951" lon="-2.187152">
        <ele>611.025</ele>
        <time>2021-03-21T07:30:19Z</time>
      </trkpt>
      <trkpt lat="43.193940" lon="-2.187114">
        <ele>611.317</ele>
        <time>2021-03-21T07:30:21Z</time>
      </trkpt>
      <trkpt lat="43.193932" lon="-2.187078">
        <ele>611.608</ele>
        <time>2021-03-21T07:30:23Z</time>
      </trkpt>
      <trkpt lat="43.193923" lon="-2.187038">
        <ele>611.964</ele>
        <time>2021-03-21T07:30:25Z</time>
      </trkpt>
      <trkpt lat="43.193916" lon="-2.187002">
        <ele>612.117</ele>
        <time>2021-03-21T07:30:28Z</time>
      </trkpt>
      <trkpt lat="43.193909" lon="-2.186963">
        <ele>612.440</ele>
        <time>2021-03-21T07:30:29Z</time>
      </trkpt>
      <trkpt lat="43.193902" lon="-2.186925">
        <ele>612.891</ele>
        <time>2021-03-21T07:30:31Z</time>
      </trkpt>
      <trkpt lat="43.193899" lon="-2.186886">
        <ele>613.128</ele>
        <time>2021-03-21T07:30:33Z</time>
      </trkpt>
      <trkpt lat="43.193895" lon="-2.186846">
        <ele>613.536</ele>
        <time>2021-03-21T07:30:35Z</time>
      </trkpt>
      <trkpt lat="43.193893" lon="-2.186806">
        <ele>613.936</ele>
        <time>2021-03-21T07:30:37Z</time>
      </trkpt>
      <trkpt lat="43.193893" lon="-2.186763">
        <ele>614.266</ele>
        <time>2021-03-21T07:30:39Z</time>
      </trkpt>
      <trkpt lat="43.193893" lon="-2.186720">
        <ele>614.515</ele>
        <time>2021-03-21T07:30:41Z</time>
      </trkpt>
      <trkpt lat="43.193893" lon="-2.186676">
        <ele>614.865</ele>
        <time>2021-03-21T07:30:43Z</time>
      </trkpt>
      <trkpt lat="43.193893" lon="-2.186634">
        <ele>614.911</ele>
        <time>2021-03-21T07:30:45Z</time>
      </trkpt>
      <trkpt lat="43.193891" lon="-2.186594">
        <ele>615.208</ele>
        <time>2021-03-21T07:30:48Z</time>
      </trkpt>
      <trkpt lat="43.193887" lon="-2.186556">
        <ele>615.437</ele>
        <time>2021-03-21T07:30:49Z</time>
      </trkpt>
      <trkpt lat="43.193882" lon="-2.186518">
        <ele>615.550</ele>
        <time>2021-03-21T07:30:51Z</time>
      </trkpt>
      <trkpt lat="43.193880" lon="-2.186481">
        <ele>615.623</ele>
        <time>2021-03-21T07:30:53Z</time>
      </trkpt>
      <trkpt lat="43.193871" lon="-2.186445">
        <ele>615.684</ele>
        <time>2021-03-21T07:30:55Z</time>
      </trkpt>
      <trkpt lat="43.193865" lon="-2.186409">
        <ele>615.731</ele>
        <time>2021-03-21T07:30:57Z</time>
      </trkpt>
      <trkpt lat="43.193861" lon="-2.186373">
        <ele>615.889</ele>
        <time>2021-03-21T07:30:59Z</time>
      </trkpt>
      <trkpt lat="43.193851" lon="-2.186336">
        <ele>615.889</ele>
        <time>2021-03-21T07:31:02Z</time>
      </trkpt>
      <trkpt lat="43.193843" lon="-2.186299">
        <ele>615.999</ele>
        <time>2021-03-21T07:31:03Z</time>
      </trkpt>
      <trkpt lat="43.193835" lon="-2.186264">
        <ele>616.089</ele>
        <time>2021-03-21T07:31:06Z</time>
      </trkpt>
      <trkpt lat="43.193827" lon="-2.186232">
        <ele>616.106</ele>
        <time>2021-03-21T07:31:08Z</time>
      </trkpt>
      <trkpt lat="43.193816" lon="-2.186196">
        <ele>616.226</ele>
        <time>2021-03-21T07:31:09Z</time>
      </trkpt>
      <trkpt lat="43.193803" lon="-2.186159">
        <ele>616.408</ele>
        <time>2021-03-21T07:31:11Z</time>
      </trkpt>
      <trkpt lat="43.193792" lon="-2.186124">
        <ele>616.624</ele>
        <time>2021-03-21T07:31:13Z</time>
      </trkpt>
      <trkpt lat="43.193782" lon="-2.186091">
        <ele>617.097</ele>
        <time>2021-03-21T07:31:15Z</time>
      </trkpt>
      <trkpt lat="43.193769" lon="-2.186057">
        <ele>617.520</ele>
        <time>2021-03-21T07:31:17Z</time>
      </trkpt>
      <trkpt lat="43.193754" lon="-2.186025">
        <ele>618.031</ele>
        <time>2021-03-21T07:31:19Z</time>
      </trkpt>
      <trkpt lat="43.193742" lon="-2.185991">
        <ele>618.628</ele>
        <time>2021-03-21T07:31:21Z</time>
      </trkpt>
      <trkpt lat="43.193731" lon="-2.185960">
        <ele>619.286</ele>
        <time>2021-03-21T07:31:23Z</time>
      </trkpt>
      <trkpt lat="43.193716" lon="-2.185925">
        <ele>619.846</ele>
        <time>2021-03-21T07:31:25Z</time>
      </trkpt>
      <trkpt lat="43.193702" lon="-2.185892">
        <ele>620.586</ele>
        <time>2021-03-21T07:31:28Z</time>
      </trkpt>
      <trkpt lat="43.193687" lon="-2.185861">
        <ele>621.217</ele>
        <time>2021-03-21T07:31:29Z</time>
      </trkpt>
      <trkpt lat="43.193676" lon="-2.185829">
        <ele>621.987</ele>
        <time>2021-03-21T07:31:31Z</time>
      </trkpt>
      <trkpt lat="43.193663" lon="-2.185797">
        <ele>622.615</ele>
        <time>2021-03-21T07:31:33Z</time>
      </trkpt>
      <trkpt lat="43.193648" lon="-2.185762">
        <ele>623.408</ele>
        <time>2021-03-21T07:31:36Z</time>
      </trkpt>
      <trkpt lat="43.193636" lon="-2.185732">
        <ele>624.077</ele>
        <time>2021-03-21T07:31:38Z</time>
      </trkpt>
      <trkpt lat="43.193626" lon="-2.185706">
        <ele>624.610</ele>
        <time>2021-03-21T07:31:40Z</time>
      </trkpt>
      <trkpt lat="43.193612" lon="-2.185677">
        <ele>625.273</ele>
        <time>2021-03-21T07:31:42Z</time>
      </trkpt>
      <trkpt lat="43.193599" lon="-2.185649">
        <ele>625.794</ele>
        <time>2021-03-21T07:31:43Z</time>
      </trkpt>
      <trkpt lat="43.193586" lon="-2.185623">
        <ele>626.161</ele>
        <time>2021-03-21T07:31:45Z</time>
      </trkpt>
      <trkpt lat="43.193576" lon="-2.185598">
        <ele>626.579</ele>
        <time>2021-03-21T07:31:47Z</time>
      </trkpt>
      <trkpt lat="43.193565" lon="-2.185571">
        <ele>626.999</ele>
        <time>2021-03-21T07:31:50Z</time>
      </trkpt>
      <trkpt lat="43.193552" lon="-2.185541">
        <ele>627.589</ele>
        <time>2021-03-21T07:31:51Z</time>
      </trkpt>
      <trkpt lat="43.193539" lon="-2.185513">
        <ele>628.189</ele>
        <time>2021-03-21T07:31:53Z</time>
      </trkpt>
      <trkpt lat="43.193522" lon="-2.185487">
        <ele>628.606</ele>
        <time>2021-03-21T07:31:55Z</time>
      </trkpt>
      <trkpt lat="43.193504" lon="-2.185464">
        <ele>629.226</ele>
        <time>2021-03-21T07:31:57Z</time>
      </trkpt>
      <trkpt lat="43.193493" lon="-2.185443">
        <ele>629.608</ele>
        <time>2021-03-21T07:31:59Z</time>
      </trkpt>
      <trkpt lat="43.193481" lon="-2.185418">
        <ele>630.244</ele>
        <time>2021-03-21T07:32:01Z</time>
      </trkpt>
      <trkpt lat="43.193468" lon="-2.185394">
        <ele>630.727</ele>
        <time>2021-03-21T07:32:03Z</time>
      </trkpt>
      <trkpt lat="43.193457" lon="-2.185369">
        <ele>631.370</ele>
        <time>2021-03-21T07:32:05Z</time>
      </trkpt>
      <trkpt lat="43.193443" lon="-2.185343">
        <ele>631.911</ele>
        <time>2021-03-21T07:32:07Z</time>
      </trkpt>
      <trkpt lat="43.193431" lon="-2.185322">
        <ele>632.438</ele>
        <time>2021-03-21T07:32:09Z</time>
      </trkpt>
      <trkpt lat="43.193416" lon="-2.185299">
        <ele>633.086</ele>
        <time>2021-03-21T07:32:11Z</time>
      </trkpt>
      <trkpt lat="43.193400" lon="-2.185273">
        <ele>633.626</ele>
        <time>2021-03-21T07:32:13Z</time>
      </trkpt>
      <trkpt lat="43.193385" lon="-2.185247">
        <ele>634.356</ele>
        <time>2021-03-21T07:32:16Z</time>
      </trkpt>
      <trkpt lat="43.193368" lon="-2.185218">
        <ele>635.055</ele>
        <time>2021-03-21T07:32:17Z</time>
      </trkpt>
      <trkpt lat="43.193353" lon="-2.185191">
        <ele>635.707</ele>
        <time>2021-03-21T07:32:19Z</time>
      </trkpt>
      <trkpt lat="43.193335" lon="-2.185168">
        <ele>636.417</ele>
        <time>2021-03-21T07:32:21Z</time>
      </trkpt>
      <trkpt lat="43.193318" lon="-2.185140">
        <ele>636.908</ele>
        <time>2021-03-21T07:32:23Z</time>
      </trkpt>
      <trkpt lat="43.193305" lon="-2.185116">
        <ele>637.491</ele>
        <time>2021-03-21T07:32:25Z</time>
      </trkpt>
      <trkpt lat="43.193288" lon="-2.185091">
        <ele>637.874</ele>
        <time>2021-03-21T07:32:27Z</time>
      </trkpt>
      <trkpt lat="43.193274" lon="-2.185070">
        <ele>638.297</ele>
        <time>2021-03-21T07:32:29Z</time>
      </trkpt>
      <trkpt lat="43.193257" lon="-2.185049">
        <ele>638.688</ele>
        <time>2021-03-21T07:32:31Z</time>
      </trkpt>
      <trkpt lat="43.193241" lon="-2.185026">
        <ele>639.125</ele>
        <time>2021-03-21T07:32:34Z</time>
      </trkpt>
      <trkpt lat="43.193225" lon="-2.185003">
        <ele>639.513</ele>
        <time>2021-03-21T07:32:36Z</time>
      </trkpt>
      <trkpt lat="43.193205" lon="-2.184980">
        <ele>640.083</ele>
        <time>2021-03-21T07:32:37Z</time>
      </trkpt>
      <trkpt lat="43.193188" lon="-2.184955">
        <ele>640.583</ele>
        <time>2021-03-21T07:32:39Z</time>
      </trkpt>
      <trkpt lat="43.193173" lon="-2.184933">
        <ele>641.042</ele>
        <time>2021-03-21T07:32:41Z</time>
      </trkpt>
      <trkpt lat="43.193155" lon="-2.184907">
        <ele>641.622</ele>
        <time>2021-03-21T07:32:43Z</time>
      </trkpt>
      <trkpt lat="43.193140" lon="-2.184883">
        <ele>642.114</ele>
        <time>2021-03-21T07:32:46Z</time>
      </trkpt>
      <trkpt lat="43.193124" lon="-2.184860">
        <ele>642.608</ele>
        <time>2021-03-21T07:32:47Z</time>
      </trkpt>
      <trkpt lat="43.193105" lon="-2.184836">
        <ele>643.240</ele>
        <time>2021-03-21T07:32:49Z</time>
      </trkpt>
      <trkpt lat="43.193088" lon="-2.184814">
        <ele>643.713</ele>
        <time>2021-03-21T07:32:51Z</time>
      </trkpt>
      <trkpt lat="43.193071" lon="-2.184793">
        <ele>644.286</ele>
        <time>2021-03-21T07:32:54Z</time>
      </trkpt>
      <trkpt lat="43.193051" lon="-2.184769">
        <ele>644.857</ele>
        <time>2021-03-21T07:32:55Z</time>
      </trkpt>
      <trkpt lat="43.193036" lon="-2.184742">
        <ele>645.484</ele>
        <time>2021-03-21T07:32:57Z</time>
      </trkpt>
      <trkpt lat="43.193020" lon="-2.184717">
        <ele>645.952</ele>
        <time>2021-03-21T07:32:59Z</time>
      </trkpt>
      <trkpt lat="43.193004" lon="-2.184688">
        <ele>646.542</ele>
        <time>2021-03-21T07:33:01Z</time>
      </trkpt>
      <trkpt lat="43.192989" lon="-2.184663">
        <ele>647.142</ele>
        <time>2021-03-21T07:33:03Z</time>
      </trkpt>
      <trkpt lat="43.192972" lon="-2.184639">
        <ele>647.666</ele>
        <time>2021-03-21T07:33:05Z</time>
      </trkpt>
      <trkpt lat="43.192958" lon="-2.184609">
        <ele>648.329</ele>
        <time>2021-03-21T07:33:08Z</time>
      </trkpt>
      <trkpt lat="43.192943" lon="-2.184582">
        <ele>648.921</ele>
        <time>2021-03-21T07:33:09Z</time>
      </trkpt>
      <trkpt lat="43.192929" lon="-2.184555">
        <ele>649.608</ele>
        <time>2021-03-21T07:33:11Z</time>
      </trkpt>
      <trkpt lat="43.192915" lon="-2.184523">
        <ele>650.422</ele>
        <time>2021-03-21T07:33:14Z</time>
      </trkpt>
      <trkpt lat="43.192899" lon="-2.184498">
        <ele>651.095</ele>
        <time>2021-03-21T07:33:15Z</time>
      </trkpt>
      <trkpt lat="43.192882" lon="-2.184476">
        <ele>651.568</ele>
        <time>2021-03-21T07:33:17Z</time>
      </trkpt>
      <trkpt lat="43.192860" lon="-2.184455">
        <ele>652.099</ele>
        <time>2021-03-21T07:33:19Z</time>
      </trkpt>
      <trkpt lat="43.192843" lon="-2.184434">
        <ele>652.576</ele>
        <time>2021-03-21T07:33:21Z</time>
      </trkpt>
      <trkpt lat="43.192826" lon="-2.184411">
        <ele>653.134</ele>
        <time>2021-03-21T07:33:23Z</time>
      </trkpt>
      <trkpt lat="43.192804" lon="-2.184391">
        <ele>653.684</ele>
        <time>2021-03-21T07:33:25Z</time>
      </trkpt>
      <trkpt lat="43.192783" lon="-2.184372">
        <ele>654.154</ele>
        <time>2021-03-21T07:33:27Z</time>
      </trkpt>
      <trkpt lat="43.192764" lon="-2.184352">
        <ele>654.743</ele>
        <time>2021-03-21T07:33:29Z</time>
      </trkpt>
      <trkpt lat="43.192742" lon="-2.184334">
        <ele>655.264</ele>
        <time>2021-03-21T07:33:31Z</time>
      </trkpt>
      <trkpt lat="43.192722" lon="-2.184318">
        <ele>655.710</ele>
        <time>2021-03-21T07:33:33Z</time>
      </trkpt>
      <trkpt lat="43.192699" lon="-2.184300">
        <ele>656.308</ele>
        <time>2021-03-21T07:33:35Z</time>
      </trkpt>
      <trkpt lat="43.192676" lon="-2.184280">
        <ele>657.020</ele>
        <time>2021-03-21T07:33:37Z</time>
      </trkpt>
      <trkpt lat="43.192651" lon="-2.184263">
        <ele>657.573</ele>
        <time>2021-03-21T07:33:39Z</time>
      </trkpt>
      <trkpt lat="43.192633" lon="-2.184253">
        <ele>657.956</ele>
        <time>2021-03-21T07:33:41Z</time>
      </trkpt>
      <trkpt lat="43.192610" lon="-2.184240">
        <ele>658.317</ele>
        <time>2021-03-21T07:33:43Z</time>
      </trkpt>
      <trkpt lat="43.192588" lon="-2.184228">
        <ele>658.844</ele>
        <time>2021-03-21T07:33:45Z</time>
      </trkpt>
      <trkpt lat="43.192566" lon="-2.184214">
        <ele>659.372</ele>
        <time>2021-03-21T07:33:47Z</time>
      </trkpt>
      <trkpt lat="43.192546" lon="-2.184202">
        <ele>659.762</ele>
        <time>2021-03-21T07:33:49Z</time>
      </trkpt>
      <trkpt lat="43.192527" lon="-2.184186">
        <ele>660.372</ele>
        <time>2021-03-21T07:33:51Z</time>
      </trkpt>
      <trkpt lat="43.192506" lon="-2.184171">
        <ele>660.867</ele>
        <time>2021-03-21T07:33:53Z</time>
      </trkpt>
      <trkpt lat="43.192488" lon="-2.184155">
        <ele>661.481</ele>
        <time>2021-03-21T07:33:55Z</time>
      </trkpt>
      <trkpt lat="43.192470" lon="-2.184138">
        <ele>662.019</ele>
        <time>2021-03-21T07:33:57Z</time>
      </trkpt>
      <trkpt lat="43.192451" lon="-2.184114">
        <ele>662.908</ele>
        <time>2021-03-21T07:33:59Z</time>
      </trkpt>
      <trkpt lat="43.192442" lon="-2.184103">
        <ele>663.322</ele>
        <time>2021-03-21T07:34:00Z</time>
      </trkpt>
      <trkpt lat="43.192425" lon="-2.184080">
        <ele>664.155</ele>
        <time>2021-03-21T07:34:02Z</time>
      </trkpt>
      <trkpt lat="43.192408" lon="-2.184058">
        <ele>664.998</ele>
        <time>2021-03-21T07:34:04Z</time>
      </trkpt>
      <trkpt lat="43.192393" lon="-2.184039">
        <ele>665.619</ele>
        <time>2021-03-21T07:34:06Z</time>
      </trkpt>
      <trkpt lat="43.192375" lon="-2.184016">
        <ele>666.426</ele>
        <time>2021-03-21T07:34:08Z</time>
      </trkpt>
      <trkpt lat="43.192355" lon="-2.183996">
        <ele>667.164</ele>
        <time>2021-03-21T07:34:10Z</time>
      </trkpt>
      <trkpt lat="43.192337" lon="-2.183978">
        <ele>667.864</ele>
        <time>2021-03-21T07:34:12Z</time>
      </trkpt>
      <trkpt lat="43.192320" lon="-2.183957">
        <ele>668.514</ele>
        <time>2021-03-21T07:34:14Z</time>
      </trkpt>
      <trkpt lat="43.192297" lon="-2.183935">
        <ele>669.314</ele>
        <time>2021-03-21T07:34:16Z</time>
      </trkpt>
      <trkpt lat="43.192277" lon="-2.183918">
        <ele>670.054</ele>
        <time>2021-03-21T07:34:18Z</time>
      </trkpt>
      <trkpt lat="43.192258" lon="-2.183897">
        <ele>670.709</ele>
        <time>2021-03-21T07:34:20Z</time>
      </trkpt>
      <trkpt lat="43.192243" lon="-2.183879">
        <ele>671.408</ele>
        <time>2021-03-21T07:34:22Z</time>
      </trkpt>
      <trkpt lat="43.192230" lon="-2.183865">
        <ele>671.997</ele>
        <time>2021-03-21T07:34:24Z</time>
      </trkpt>
      <trkpt lat="43.192211" lon="-2.183841">
        <ele>672.760</ele>
        <time>2021-03-21T07:34:26Z</time>
      </trkpt>
      <trkpt lat="43.192197" lon="-2.183820">
        <ele>673.593</ele>
        <time>2021-03-21T07:34:28Z</time>
      </trkpt>
      <trkpt lat="43.192179" lon="-2.183797">
        <ele>674.364</ele>
        <time>2021-03-21T07:34:30Z</time>
      </trkpt>
      <trkpt lat="43.192164" lon="-2.183775">
        <ele>675.011</ele>
        <time>2021-03-21T07:34:32Z</time>
      </trkpt>
      <trkpt lat="43.192150" lon="-2.183756">
        <ele>675.759</ele>
        <time>2021-03-21T07:34:34Z</time>
      </trkpt>
      <trkpt lat="43.192136" lon="-2.183736">
        <ele>676.329</ele>
        <time>2021-03-21T07:34:36Z</time>
      </trkpt>
      <trkpt lat="43.192117" lon="-2.183709">
        <ele>677.289</ele>
        <time>2021-03-21T07:34:39Z</time>
      </trkpt>
      <trkpt lat="43.192103" lon="-2.183690">
        <ele>677.914</ele>
        <time>2021-03-21T07:34:41Z</time>
      </trkpt>
      <trkpt lat="43.192088" lon="-2.183675">
        <ele>678.354</ele>
        <time>2021-03-21T07:34:43Z</time>
      </trkpt>
      <trkpt lat="43.192068" lon="-2.183655">
        <ele>679.009</ele>
        <time>2021-03-21T07:34:45Z</time>
      </trkpt>
      <trkpt lat="43.192051" lon="-2.183635">
        <ele>679.608</ele>
        <time>2021-03-21T07:34:47Z</time>
      </trkpt>
      <trkpt lat="43.192031" lon="-2.183615">
        <ele>680.217</ele>
        <time>2021-03-21T07:34:49Z</time>
      </trkpt>
      <trkpt lat="43.192011" lon="-2.183597">
        <ele>680.760</ele>
        <time>2021-03-21T07:34:51Z</time>
      </trkpt>
      <trkpt lat="43.191991" lon="-2.183578">
        <ele>681.493</ele>
        <time>2021-03-21T07:34:53Z</time>
      </trkpt>
      <trkpt lat="43.191969" lon="-2.183558">
        <ele>682.044</ele>
        <time>2021-03-21T07:34:55Z</time>
      </trkpt>
      <trkpt lat="43.191950" lon="-2.183546">
        <ele>682.461</ele>
        <time>2021-03-21T07:34:57Z</time>
      </trkpt>
      <trkpt lat="43.191927" lon="-2.183530">
        <ele>682.839</ele>
        <time>2021-03-21T07:34:59Z</time>
      </trkpt>
      <trkpt lat="43.191910" lon="-2.183512">
        <ele>683.469</ele>
        <time>2021-03-21T07:35:01Z</time>
      </trkpt>
      <trkpt lat="43.191890" lon="-2.183487">
        <ele>684.289</ele>
        <time>2021-03-21T07:35:03Z</time>
      </trkpt>
      <trkpt lat="43.191875" lon="-2.183463">
        <ele>684.915</ele>
        <time>2021-03-21T07:35:05Z</time>
      </trkpt>
      <trkpt lat="43.191858" lon="-2.183445">
        <ele>685.565</ele>
        <time>2021-03-21T07:35:07Z</time>
      </trkpt>
      <trkpt lat="43.191841" lon="-2.183426">
        <ele>686.011</ele>
        <time>2021-03-21T07:35:09Z</time>
      </trkpt>
      <trkpt lat="43.191825" lon="-2.183405">
        <ele>686.708</ele>
        <time>2021-03-21T07:35:11Z</time>
      </trkpt>
      <trkpt lat="43.191808" lon="-2.183378">
        <ele>687.517</ele>
        <time>2021-03-21T07:35:13Z</time>
      </trkpt>
      <trkpt lat="43.191793" lon="-2.183354">
        <ele>688.220</ele>
        <time>2021-03-21T07:35:15Z</time>
      </trkpt>
      <trkpt lat="43.191779" lon="-2.183330">
        <ele>688.933</ele>
        <time>2021-03-21T07:35:17Z</time>
      </trkpt>
      <trkpt lat="43.191762" lon="-2.183307">
        <ele>689.754</ele>
        <time>2021-03-21T07:35:19Z</time>
      </trkpt>
      <trkpt lat="43.191747" lon="-2.183286">
        <ele>690.311</ele>
        <time>2021-03-21T07:35:21Z</time>
      </trkpt>
      <trkpt lat="43.191725" lon="-2.183258">
        <ele>691.249</ele>
        <time>2021-03-21T07:35:23Z</time>
      </trkpt>
      <trkpt lat="43.191703" lon="-2.183234">
        <ele>691.999</ele>
        <time>2021-03-21T07:35:25Z</time>
      </trkpt>
      <trkpt lat="43.191685" lon="-2.183215">
        <ele>692.439</ele>
        <time>2021-03-21T07:35:27Z</time>
      </trkpt>
      <trkpt lat="43.191665" lon="-2.183198">
        <ele>692.881</ele>
        <time>2021-03-21T07:35:29Z</time>
      </trkpt>
      <trkpt lat="43.191640" lon="-2.183180">
        <ele>693.161</ele>
        <time>2021-03-21T07:35:31Z</time>
      </trkpt>
      <trkpt lat="43.191613" lon="-2.183168">
        <ele>693.217</ele>
        <time>2021-03-21T07:35:33Z</time>
      </trkpt>
      <trkpt lat="43.191587" lon="-2.183156">
        <ele>693.208</ele>
        <time>2021-03-21T07:35:35Z</time>
      </trkpt>
      <trkpt lat="43.191562" lon="-2.183142">
        <ele>693.494</ele>
        <time>2021-03-21T07:35:37Z</time>
      </trkpt>
      <trkpt lat="43.191537" lon="-2.183126">
        <ele>693.657</ele>
        <time>2021-03-21T07:35:39Z</time>
      </trkpt>
      <trkpt lat="43.191513" lon="-2.183112">
        <ele>693.870</ele>
        <time>2021-03-21T07:35:41Z</time>
      </trkpt>
      <trkpt lat="43.191486" lon="-2.183098">
        <ele>693.991</ele>
        <time>2021-03-21T07:35:43Z</time>
      </trkpt>
      <trkpt lat="43.191460" lon="-2.183084">
        <ele>694.038</ele>
        <time>2021-03-21T07:35:45Z</time>
      </trkpt>
      <trkpt lat="43.191434" lon="-2.183067">
        <ele>694.246</ele>
        <time>2021-03-21T07:35:47Z</time>
      </trkpt>
      <trkpt lat="43.191405" lon="-2.183052">
        <ele>694.426</ele>
        <time>2021-03-21T07:35:49Z</time>
      </trkpt>
      <trkpt lat="43.191379" lon="-2.183037">
        <ele>694.686</ele>
        <time>2021-03-21T07:35:51Z</time>
      </trkpt>
      <trkpt lat="43.191355" lon="-2.183024">
        <ele>694.733</ele>
        <time>2021-03-21T07:35:53Z</time>
      </trkpt>
      <trkpt lat="43.191331" lon="-2.183009">
        <ele>694.923</ele>
        <time>2021-03-21T07:35:55Z</time>
      </trkpt>
      <trkpt lat="43.191308" lon="-2.182987">
        <ele>695.415</ele>
        <time>2021-03-21T07:35:57Z</time>
      </trkpt>
      <trkpt lat="43.191283" lon="-2.182970">
        <ele>695.608</ele>
        <time>2021-03-21T07:35:59Z</time>
      </trkpt>
      <trkpt lat="43.191256" lon="-2.182951">
        <ele>695.869</ele>
        <time>2021-03-21T07:36:02Z</time>
      </trkpt>
      <trkpt lat="43.191231" lon="-2.182931">
        <ele>696.072</ele>
        <time>2021-03-21T07:36:03Z</time>
      </trkpt>
      <trkpt lat="43.191207" lon="-2.182910">
        <ele>696.365</ele>
        <time>2021-03-21T07:36:05Z</time>
      </trkpt>
      <trkpt lat="43.191185" lon="-2.182888">
        <ele>696.726</ele>
        <time>2021-03-21T07:36:07Z</time>
      </trkpt>
      <trkpt lat="43.191162" lon="-2.182861">
        <ele>697.253</ele>
        <time>2021-03-21T07:36:09Z</time>
      </trkpt>
      <trkpt lat="43.191139" lon="-2.182833">
        <ele>697.711</ele>
        <time>2021-03-21T07:36:11Z</time>
      </trkpt>
      <trkpt lat="43.191118" lon="-2.182809">
        <ele>698.041</ele>
        <time>2021-03-21T07:36:13Z</time>
      </trkpt>
      <trkpt lat="43.191100" lon="-2.182779">
        <ele>698.761</ele>
        <time>2021-03-21T07:36:15Z</time>
      </trkpt>
      <trkpt lat="43.191079" lon="-2.182747">
        <ele>699.241</ele>
        <time>2021-03-21T07:36:17Z</time>
      </trkpt>
      <trkpt lat="43.191059" lon="-2.182715">
        <ele>699.781</ele>
        <time>2021-03-21T07:36:19Z</time>
      </trkpt>
      <trkpt lat="43.191039" lon="-2.182682">
        <ele>700.209</ele>
        <time>2021-03-21T07:36:21Z</time>
      </trkpt>
      <trkpt lat="43.191020" lon="-2.182650">
        <ele>700.708</ele>
        <time>2021-03-21T07:36:23Z</time>
      </trkpt>
      <trkpt lat="43.191002" lon="-2.182618">
        <ele>701.210</ele>
        <time>2021-03-21T07:36:25Z</time>
      </trkpt>
      <trkpt lat="43.190983" lon="-2.182584">
        <ele>701.743</ele>
        <time>2021-03-21T07:36:27Z</time>
      </trkpt>
      <trkpt lat="43.190967" lon="-2.182554">
        <ele>702.276</ele>
        <time>2021-03-21T07:36:29Z</time>
      </trkpt>
      <trkpt lat="43.190948" lon="-2.182524">
        <ele>702.637</ele>
        <time>2021-03-21T07:36:31Z</time>
      </trkpt>
      <trkpt lat="43.190935" lon="-2.182505">
        <ele>702.844</ele>
        <time>2021-03-21T07:36:32Z</time>
      </trkpt>
      <trkpt lat="43.190915" lon="-2.182475">
        <ele>703.122</ele>
        <time>2021-03-21T07:36:34Z</time>
      </trkpt>
      <trkpt lat="43.190898" lon="-2.182442">
        <ele>703.612</ele>
        <time>2021-03-21T07:36:36Z</time>
      </trkpt>
      <trkpt lat="43.190878" lon="-2.182412">
        <ele>703.932</ele>
        <time>2021-03-21T07:36:38Z</time>
      </trkpt>
      <trkpt lat="43.190858" lon="-2.182380">
        <ele>704.285</ele>
        <time>2021-03-21T07:36:40Z</time>
      </trkpt>
      <trkpt lat="43.190839" lon="-2.182347">
        <ele>704.689</ele>
        <time>2021-03-21T07:36:43Z</time>
      </trkpt>
      <trkpt lat="43.190817" lon="-2.182314">
        <ele>704.817</ele>
        <time>2021-03-21T07:36:44Z</time>
      </trkpt>
      <trkpt lat="43.190796" lon="-2.182282">
        <ele>705.108</ele>
        <time>2021-03-21T07:36:46Z</time>
      </trkpt>
      <trkpt lat="43.190774" lon="-2.182251">
        <ele>705.254</ele>
        <time>2021-03-21T07:36:48Z</time>
      </trkpt>
      <trkpt lat="43.190753" lon="-2.182219">
        <ele>705.557</ele>
        <time>2021-03-21T07:36:50Z</time>
      </trkpt>
      <trkpt lat="43.190733" lon="-2.182187">
        <ele>705.990</ele>
        <time>2021-03-21T07:36:52Z</time>
      </trkpt>
      <trkpt lat="43.190714" lon="-2.182151">
        <ele>706.481</ele>
        <time>2021-03-21T07:36:54Z</time>
      </trkpt>
      <trkpt lat="43.190691" lon="-2.182119">
        <ele>706.798</ele>
        <time>2021-03-21T07:36:56Z</time>
      </trkpt>
      <trkpt lat="43.190669" lon="-2.182086">
        <ele>707.176</ele>
        <time>2021-03-21T07:36:58Z</time>
      </trkpt>
      <trkpt lat="43.190645" lon="-2.182053">
        <ele>707.486</ele>
        <time>2021-03-21T07:37:00Z</time>
      </trkpt>
      <trkpt lat="43.190625" lon="-2.182019">
        <ele>707.876</ele>
        <time>2021-03-21T07:37:02Z</time>
      </trkpt>
      <trkpt lat="43.190604" lon="-2.181988">
        <ele>708.256</ele>
        <time>2021-03-21T07:37:04Z</time>
      </trkpt>
      <trkpt lat="43.190584" lon="-2.181959">
        <ele>708.559</ele>
        <time>2021-03-21T07:37:06Z</time>
      </trkpt>
      <trkpt lat="43.190564" lon="-2.181929">
        <ele>708.814</ele>
        <time>2021-03-21T07:37:08Z</time>
      </trkpt>
      <trkpt lat="43.190550" lon="-2.181896">
        <ele>709.408</ele>
        <time>2021-03-21T07:37:10Z</time>
      </trkpt>
      <trkpt lat="43.190531" lon="-2.181866">
        <ele>709.771</ele>
        <time>2021-03-21T07:37:12Z</time>
      </trkpt>
      <trkpt lat="43.190511" lon="-2.181834">
        <ele>710.194</ele>
        <time>2021-03-21T07:37:14Z</time>
      </trkpt>
      <trkpt lat="43.190492" lon="-2.181802">
        <ele>710.617</ele>
        <time>2021-03-21T07:37:16Z</time>
      </trkpt>
      <trkpt lat="43.190471" lon="-2.181769">
        <ele>710.948</ele>
        <time>2021-03-21T07:37:18Z</time>
      </trkpt>
      <trkpt lat="43.190451" lon="-2.181735">
        <ele>711.415</ele>
        <time>2021-03-21T07:37:21Z</time>
      </trkpt>
      <trkpt lat="43.190432" lon="-2.181701">
        <ele>711.913</ele>
        <time>2021-03-21T07:37:23Z</time>
      </trkpt>
      <trkpt lat="43.190414" lon="-2.181671">
        <ele>712.383</ele>
        <time>2021-03-21T07:37:24Z</time>
      </trkpt>
      <trkpt lat="43.190398" lon="-2.181638">
        <ele>712.723</ele>
        <time>2021-03-21T07:37:27Z</time>
      </trkpt>
      <trkpt lat="43.190383" lon="-2.181608">
        <ele>713.165</ele>
        <time>2021-03-21T07:37:28Z</time>
      </trkpt>
      <trkpt lat="43.190369" lon="-2.181575">
        <ele>713.668</ele>
        <time>2021-03-21T07:37:30Z</time>
      </trkpt>
      <trkpt lat="43.190354" lon="-2.181539">
        <ele>714.114</ele>
        <time>2021-03-21T07:37:32Z</time>
      </trkpt>
      <trkpt lat="43.190342" lon="-2.181501">
        <ele>714.908</ele>
        <time>2021-03-21T07:37:35Z</time>
      </trkpt>
      <trkpt lat="43.190327" lon="-2.181464">
        <ele>715.432</ele>
        <time>2021-03-21T07:37:36Z</time>
      </trkpt>
      <trkpt lat="43.190315" lon="-2.181431">
        <ele>716.095</ele>
        <time>2021-03-21T07:37:38Z</time>
      </trkpt>
      <trkpt lat="43.190303" lon="-2.181397">
        <ele>716.628</ele>
        <time>2021-03-21T07:37:41Z</time>
      </trkpt>
      <trkpt lat="43.190293" lon="-2.181362">
        <ele>717.169</ele>
        <time>2021-03-21T07:37:42Z</time>
      </trkpt>
      <trkpt lat="43.190280" lon="-2.181326">
        <ele>717.496</ele>
        <time>2021-03-21T07:37:44Z</time>
      </trkpt>
      <trkpt lat="43.190270" lon="-2.181288">
        <ele>717.984</ele>
        <time>2021-03-21T07:37:46Z</time>
      </trkpt>
      <trkpt lat="43.190258" lon="-2.181250">
        <ele>718.254</ele>
        <time>2021-03-21T07:37:48Z</time>
      </trkpt>
      <trkpt lat="43.190242" lon="-2.181214">
        <ele>718.414</ele>
        <time>2021-03-21T07:37:50Z</time>
      </trkpt>
      <trkpt lat="43.190229" lon="-2.181177">
        <ele>718.658</ele>
        <time>2021-03-21T07:37:52Z</time>
      </trkpt>
      <trkpt lat="43.190216" lon="-2.181138">
        <ele>719.052</ele>
        <time>2021-03-21T07:37:54Z</time>
      </trkpt>
      <trkpt lat="43.190204" lon="-2.181099">
        <ele>719.417</ele>
        <time>2021-03-21T07:37:56Z</time>
      </trkpt>
      <trkpt lat="43.190192" lon="-2.181058">
        <ele>719.908</ele>
        <time>2021-03-21T07:37:58Z</time>
      </trkpt>
      <trkpt lat="43.190179" lon="-2.181016">
        <ele>720.521</ele>
        <time>2021-03-21T07:38:00Z</time>
      </trkpt>
      <trkpt lat="43.190166" lon="-2.180975">
        <ele>721.064</ele>
        <time>2021-03-21T07:38:02Z</time>
      </trkpt>
      <trkpt lat="43.190157" lon="-2.180936">
        <ele>721.667</ele>
        <time>2021-03-21T07:38:04Z</time>
      </trkpt>
      <trkpt lat="43.190147" lon="-2.180896">
        <ele>722.298</ele>
        <time>2021-03-21T07:38:07Z</time>
      </trkpt>
      <trkpt lat="43.190138" lon="-2.180858">
        <ele>722.835</ele>
        <time>2021-03-21T07:38:08Z</time>
      </trkpt>
      <trkpt lat="43.190130" lon="-2.180819">
        <ele>723.563</ele>
        <time>2021-03-21T07:38:10Z</time>
      </trkpt>
      <trkpt lat="43.190121" lon="-2.180783">
        <ele>724.163</ele>
        <time>2021-03-21T07:38:12Z</time>
      </trkpt>
      <trkpt lat="43.190102" lon="-2.180731">
        <ele>724.663</ele>
        <time>2021-03-21T07:38:15Z</time>
      </trkpt>
      <trkpt lat="43.190091" lon="-2.180696">
        <ele>725.159</ele>
        <time>2021-03-21T07:38:17Z</time>
      </trkpt>
      <trkpt lat="43.190084" lon="-2.180677">
        <ele>725.303</ele>
        <time>2021-03-21T07:38:18Z</time>
      </trkpt>
      <trkpt lat="43.190072" lon="-2.180642">
        <ele>725.723</ele>
        <time>2021-03-21T07:38:20Z</time>
      </trkpt>
      <trkpt lat="43.190062" lon="-2.180607">
        <ele>726.208</ele>
        <time>2021-03-21T07:38:22Z</time>
      </trkpt>
      <trkpt lat="43.190049" lon="-2.180571">
        <ele>726.641</ele>
        <time>2021-03-21T07:38:24Z</time>
      </trkpt>
      <trkpt lat="43.190035" lon="-2.180540">
        <ele>726.834</ele>
        <time>2021-03-21T07:38:26Z</time>
      </trkpt>
      <trkpt lat="43.190021" lon="-2.180506">
        <ele>727.127</ele>
        <time>2021-03-21T07:38:28Z</time>
      </trkpt>
      <trkpt lat="43.190008" lon="-2.180470">
        <ele>727.588</ele>
        <time>2021-03-21T07:38:30Z</time>
      </trkpt>
      <trkpt lat="43.189993" lon="-2.180435">
        <ele>727.875</ele>
        <time>2021-03-21T07:38:32Z</time>
      </trkpt>
      <trkpt lat="43.189979" lon="-2.180400">
        <ele>728.283</ele>
        <time>2021-03-21T07:38:34Z</time>
      </trkpt>
      <trkpt lat="43.189964" lon="-2.180365">
        <ele>728.523</ele>
        <time>2021-03-21T07:38:36Z</time>
      </trkpt>
      <trkpt lat="43.189947" lon="-2.180329">
        <ele>728.863</ele>
        <time>2021-03-21T07:38:38Z</time>
      </trkpt>
      <trkpt lat="43.189934" lon="-2.180294">
        <ele>729.276</ele>
        <time>2021-03-21T07:38:40Z</time>
      </trkpt>
      <trkpt lat="43.189920" lon="-2.180263">
        <ele>729.590</ele>
        <time>2021-03-21T07:38:42Z</time>
      </trkpt>
      <trkpt lat="43.189909" lon="-2.180225">
        <ele>730.119</ele>
        <time>2021-03-21T07:38:44Z</time>
      </trkpt>
      <trkpt lat="43.189897" lon="-2.180188">
        <ele>730.608</ele>
        <time>2021-03-21T07:38:46Z</time>
      </trkpt>
      <trkpt lat="43.189884" lon="-2.180154">
        <ele>730.953</ele>
        <time>2021-03-21T07:38:48Z</time>
      </trkpt>
      <trkpt lat="43.189871" lon="-2.180120">
        <ele>731.396</ele>
        <time>2021-03-21T07:38:50Z</time>
      </trkpt>
      <trkpt lat="43.189859" lon="-2.180082">
        <ele>731.949</ele>
        <time>2021-03-21T07:38:52Z</time>
      </trkpt>
      <trkpt lat="43.189849" lon="-2.180044">
        <ele>732.550</ele>
        <time>2021-03-21T07:38:54Z</time>
      </trkpt>
      <trkpt lat="43.189838" lon="-2.180003">
        <ele>733.177</ele>
        <time>2021-03-21T07:38:56Z</time>
      </trkpt>
      <trkpt lat="43.189827" lon="-2.179966">
        <ele>733.585</ele>
        <time>2021-03-21T07:38:58Z</time>
      </trkpt>
      <trkpt lat="43.189815" lon="-2.179933">
        <ele>733.875</ele>
        <time>2021-03-21T07:39:00Z</time>
      </trkpt>
      <trkpt lat="43.189804" lon="-2.179899">
        <ele>734.165</ele>
        <time>2021-03-21T07:39:02Z</time>
      </trkpt>
      <trkpt lat="43.189794" lon="-2.179862">
        <ele>734.678</ele>
        <time>2021-03-21T07:39:04Z</time>
      </trkpt>
      <trkpt lat="43.189782" lon="-2.179829">
        <ele>734.833</ele>
        <time>2021-03-21T07:39:06Z</time>
      </trkpt>
      <trkpt lat="43.189774" lon="-2.179790">
        <ele>735.426</ele>
        <time>2021-03-21T07:39:08Z</time>
      </trkpt>
      <trkpt lat="43.189766" lon="-2.179748">
        <ele>736.008</ele>
        <time>2021-03-21T07:39:10Z</time>
      </trkpt>
      <trkpt lat="43.189754" lon="-2.179709">
        <ele>736.593</ele>
        <time>2021-03-21T07:39:12Z</time>
      </trkpt>
      <trkpt lat="43.189744" lon="-2.179670">
        <ele>737.156</ele>
        <time>2021-03-21T07:39:14Z</time>
      </trkpt>
      <trkpt lat="43.189733" lon="-2.179637">
        <ele>737.529</ele>
        <time>2021-03-21T07:39:16Z</time>
      </trkpt>
      <trkpt lat="43.189728" lon="-2.179602">
        <ele>738.230</ele>
        <time>2021-03-21T07:39:18Z</time>
      </trkpt>
      <trkpt lat="43.189715" lon="-2.179564">
        <ele>738.767</ele>
        <time>2021-03-21T07:39:20Z</time>
      </trkpt>
      <trkpt lat="43.189700" lon="-2.179529">
        <ele>739.155</ele>
        <time>2021-03-21T07:39:22Z</time>
      </trkpt>
      <trkpt lat="43.189685" lon="-2.179493">
        <ele>739.535</ele>
        <time>2021-03-21T07:39:24Z</time>
      </trkpt>
      <trkpt lat="43.189673" lon="-2.179458">
        <ele>740.145</ele>
        <time>2021-03-21T07:39:26Z</time>
      </trkpt>
      <trkpt lat="43.189660" lon="-2.179424">
        <ele>740.528</ele>
        <time>2021-03-21T07:39:28Z</time>
      </trkpt>
      <trkpt lat="43.189644" lon="-2.179390">
        <ele>741.089</ele>
        <time>2021-03-21T07:39:30Z</time>
      </trkpt>
      <trkpt lat="43.189627" lon="-2.179361">
        <ele>741.317</ele>
        <time>2021-03-21T07:39:32Z</time>
      </trkpt>
      <trkpt lat="43.189614" lon="-2.179332">
        <ele>741.808</ele>
        <time>2021-03-21T07:39:34Z</time>
      </trkpt>
      <trkpt lat="43.189597" lon="-2.179301">
        <ele>742.328</ele>
        <time>2021-03-21T07:39:37Z</time>
      </trkpt>
      <trkpt lat="43.189580" lon="-2.179271">
        <ele>742.781</ele>
        <time>2021-03-21T07:39:38Z</time>
      </trkpt>
      <trkpt lat="43.189564" lon="-2.179239">
        <ele>743.354</ele>
        <time>2021-03-21T07:39:40Z</time>
      </trkpt>
      <trkpt lat="43.189550" lon="-2.179208">
        <ele>744.095</ele>
        <time>2021-03-21T07:39:42Z</time>
      </trkpt>
      <trkpt lat="43.189529" lon="-2.179177">
        <ele>744.582</ele>
        <time>2021-03-21T07:39:44Z</time>
      </trkpt>
      <trkpt lat="43.189513" lon="-2.179152">
        <ele>745.030</ele>
        <time>2021-03-21T07:39:46Z</time>
      </trkpt>
      <trkpt lat="43.189499" lon="-2.179119">
        <ele>745.890</ele>
        <time>2021-03-21T07:39:48Z</time>
      </trkpt>
      <trkpt lat="43.189482" lon="-2.179090">
        <ele>746.480</ele>
        <time>2021-03-21T07:39:50Z</time>
      </trkpt>
      <trkpt lat="43.189464" lon="-2.179064">
        <ele>747.088</ele>
        <time>2021-03-21T07:39:52Z</time>
      </trkpt>
      <trkpt lat="43.189445" lon="-2.179037">
        <ele>747.724</ele>
        <time>2021-03-21T07:39:54Z</time>
      </trkpt>
      <trkpt lat="43.189434" lon="-2.179022">
        <ele>747.926</ele>
        <time>2021-03-21T07:39:56Z</time>
      </trkpt>
      <trkpt lat="43.189416" lon="-2.178993">
        <ele>748.508</ele>
        <time>2021-03-21T07:39:57Z</time>
      </trkpt>
      <trkpt lat="43.189399" lon="-2.178964">
        <ele>749.184</ele>
        <time>2021-03-21T07:39:59Z</time>
      </trkpt>
      <trkpt lat="43.189377" lon="-2.178931">
        <ele>749.917</ele>
        <time>2021-03-21T07:40:01Z</time>
      </trkpt>
      <trkpt lat="43.189358" lon="-2.178900">
        <ele>750.740</ele>
        <time>2021-03-21T07:40:03Z</time>
      </trkpt>
      <trkpt lat="43.189334" lon="-2.178867">
        <ele>751.431</ele>
        <time>2021-03-21T07:40:05Z</time>
      </trkpt>
      <trkpt lat="43.189310" lon="-2.178846">
        <ele>751.778</ele>
        <time>2021-03-21T07:40:07Z</time>
      </trkpt>
      <trkpt lat="43.189285" lon="-2.178822">
        <ele>752.166</ele>
        <time>2021-03-21T07:40:09Z</time>
      </trkpt>
      <trkpt lat="43.189259" lon="-2.178803">
        <ele>752.416</ele>
        <time>2021-03-21T07:40:12Z</time>
      </trkpt>
      <trkpt lat="43.189238" lon="-2.178777">
        <ele>753.116</ele>
        <time>2021-03-21T07:40:13Z</time>
      </trkpt>
      <trkpt lat="43.189215" lon="-2.178750">
        <ele>753.829</ele>
        <time>2021-03-21T07:40:15Z</time>
      </trkpt>
      <trkpt lat="43.189192" lon="-2.178731">
        <ele>754.200</ele>
        <time>2021-03-21T07:40:17Z</time>
      </trkpt>
      <trkpt lat="43.189172" lon="-2.178715">
        <ele>754.620</ele>
        <time>2021-03-21T07:40:19Z</time>
      </trkpt>
      <trkpt lat="43.189148" lon="-2.178699">
        <ele>754.808</ele>
        <time>2021-03-21T07:40:21Z</time>
      </trkpt>
      <trkpt lat="43.189126" lon="-2.178680">
        <ele>755.388</ele>
        <time>2021-03-21T07:40:23Z</time>
      </trkpt>
      <trkpt lat="43.189099" lon="-2.178658">
        <ele>755.791</ele>
        <time>2021-03-21T07:40:25Z</time>
      </trkpt>
      <trkpt lat="43.189068" lon="-2.178639">
        <ele>756.084</ele>
        <time>2021-03-21T07:40:27Z</time>
      </trkpt>
      <trkpt lat="43.189043" lon="-2.178623">
        <ele>756.265</ele>
        <time>2021-03-21T07:40:29Z</time>
      </trkpt>
      <trkpt lat="43.189018" lon="-2.178607">
        <ele>756.552</ele>
        <time>2021-03-21T07:40:31Z</time>
      </trkpt>
      <trkpt lat="43.188994" lon="-2.178591">
        <ele>756.840</ele>
        <time>2021-03-21T07:40:33Z</time>
      </trkpt>
      <trkpt lat="43.188970" lon="-2.178574">
        <ele>757.110</ele>
        <time>2021-03-21T07:40:35Z</time>
      </trkpt>
      <trkpt lat="43.188947" lon="-2.178562">
        <ele>757.230</ele>
        <time>2021-03-21T07:40:37Z</time>
      </trkpt>
      <trkpt lat="43.188918" lon="-2.178547">
        <ele>757.345</ele>
        <time>2021-03-21T07:40:39Z</time>
      </trkpt>
      <trkpt lat="43.188892" lon="-2.178532">
        <ele>757.547</ele>
        <time>2021-03-21T07:40:41Z</time>
      </trkpt>
      <trkpt lat="43.188868" lon="-2.178517">
        <ele>757.811</ele>
        <time>2021-03-21T07:40:43Z</time>
      </trkpt>
      <trkpt lat="43.188842" lon="-2.178500">
        <ele>758.108</ele>
        <time>2021-03-21T07:40:45Z</time>
      </trkpt>
      <trkpt lat="43.188820" lon="-2.178477">
        <ele>758.840</ele>
        <time>2021-03-21T07:40:47Z</time>
      </trkpt>
      <trkpt lat="43.188794" lon="-2.178457">
        <ele>759.363</ele>
        <time>2021-03-21T07:40:50Z</time>
      </trkpt>
      <trkpt lat="43.188769" lon="-2.178424">
        <ele>760.416</ele>
        <time>2021-03-21T07:40:51Z</time>
      </trkpt>
      <trkpt lat="43.188745" lon="-2.178399">
        <ele>761.177</ele>
        <time>2021-03-21T07:40:53Z</time>
      </trkpt>
      <trkpt lat="43.188723" lon="-2.178375">
        <ele>761.874</ele>
        <time>2021-03-21T07:40:55Z</time>
      </trkpt>
      <trkpt lat="43.188701" lon="-2.178350">
        <ele>762.682</ele>
        <time>2021-03-21T07:40:57Z</time>
      </trkpt>
      <trkpt lat="43.188682" lon="-2.178326">
        <ele>763.372</ele>
        <time>2021-03-21T07:41:00Z</time>
      </trkpt>
      <trkpt lat="43.188661" lon="-2.178302">
        <ele>763.992</ele>
        <time>2021-03-21T07:41:01Z</time>
      </trkpt>
      <trkpt lat="43.188647" lon="-2.178288">
        <ele>764.386</ele>
        <time>2021-03-21T07:41:02Z</time>
      </trkpt>
      <trkpt lat="43.188622" lon="-2.178265">
        <ele>764.860</ele>
        <time>2021-03-21T07:41:04Z</time>
      </trkpt>
      <trkpt lat="43.188599" lon="-2.178249">
        <ele>765.226</ele>
        <time>2021-03-21T07:41:06Z</time>
      </trkpt>
      <trkpt lat="43.188574" lon="-2.178233">
        <ele>765.608</ele>
        <time>2021-03-21T07:41:08Z</time>
      </trkpt>
      <trkpt lat="43.188548" lon="-2.178220">
        <ele>765.824</ele>
        <time>2021-03-21T07:41:10Z</time>
      </trkpt>
      <trkpt lat="43.188526" lon="-2.178204">
        <ele>766.227</ele>
        <time>2021-03-21T07:41:12Z</time>
      </trkpt>
      <trkpt lat="43.188506" lon="-2.178185">
        <ele>766.710</ele>
        <time>2021-03-21T07:41:14Z</time>
      </trkpt>
      <trkpt lat="43.188485" lon="-2.178162">
        <ele>767.471</ele>
        <time>2021-03-21T07:41:16Z</time>
      </trkpt>
      <trkpt lat="43.188465" lon="-2.178140">
        <ele>768.128</ele>
        <time>2021-03-21T07:41:18Z</time>
      </trkpt>
      <trkpt lat="43.188442" lon="-2.178121">
        <ele>768.626</ele>
        <time>2021-03-21T07:41:20Z</time>
      </trkpt>
      <trkpt lat="43.188419" lon="-2.178107">
        <ele>768.966</ele>
        <time>2021-03-21T07:41:22Z</time>
      </trkpt>
      <trkpt lat="43.188398" lon="-2.178092">
        <ele>769.396</ele>
        <time>2021-03-21T07:41:24Z</time>
      </trkpt>
      <trkpt lat="43.188377" lon="-2.178073">
        <ele>769.898</ele>
        <time>2021-03-21T07:41:26Z</time>
      </trkpt>
      <trkpt lat="43.188356" lon="-2.178057">
        <ele>770.215</ele>
        <time>2021-03-21T07:41:28Z</time>
      </trkpt>
      <trkpt lat="43.188334" lon="-2.178038">
        <ele>770.726</ele>
        <time>2021-03-21T07:41:30Z</time>
      </trkpt>
      <trkpt lat="43.188312" lon="-2.178020">
        <ele>771.208</ele>
        <time>2021-03-21T07:41:32Z</time>
      </trkpt>
      <trkpt lat="43.188286" lon="-2.177995">
        <ele>771.925</ele>
        <time>2021-03-21T07:41:34Z</time>
      </trkpt>
      <trkpt lat="43.188260" lon="-2.177977">
        <ele>772.348</ele>
        <time>2021-03-21T07:41:36Z</time>
      </trkpt>
      <trkpt lat="43.188236" lon="-2.177962">
        <ele>772.781</ele>
        <time>2021-03-21T07:41:38Z</time>
      </trkpt>
      <trkpt lat="43.188214" lon="-2.177946">
        <ele>773.032</ele>
        <time>2021-03-21T07:41:40Z</time>
      </trkpt>
      <trkpt lat="43.188187" lon="-2.177928">
        <ele>773.519</ele>
        <time>2021-03-21T07:41:42Z</time>
      </trkpt>
      <trkpt lat="43.188161" lon="-2.177909">
        <ele>773.967</ele>
        <time>2021-03-21T07:41:44Z</time>
      </trkpt>
      <trkpt lat="43.188136" lon="-2.177890">
        <ele>774.447</ele>
        <time>2021-03-21T07:41:47Z</time>
      </trkpt>
      <trkpt lat="43.188115" lon="-2.177867">
        <ele>775.197</ele>
        <time>2021-03-21T07:41:48Z</time>
      </trkpt>
      <trkpt lat="43.188091" lon="-2.177849">
        <ele>775.696</ele>
        <time>2021-03-21T07:41:50Z</time>
      </trkpt>
      <trkpt lat="43.188063" lon="-2.177834">
        <ele>775.931</ele>
        <time>2021-03-21T07:41:52Z</time>
      </trkpt>
      <trkpt lat="43.188044" lon="-2.177818">
        <ele>776.324</ele>
        <time>2021-03-21T07:41:54Z</time>
      </trkpt>
      <trkpt lat="43.188023" lon="-2.177796">
        <ele>777.108</ele>
        <time>2021-03-21T07:41:56Z</time>
      </trkpt>
      <trkpt lat="43.188000" lon="-2.177778">
        <ele>777.695</ele>
        <time>2021-03-21T07:41:58Z</time>
      </trkpt>
      <trkpt lat="43.187980" lon="-2.177758">
        <ele>778.128</ele>
        <time>2021-03-21T07:42:00Z</time>
      </trkpt>
      <trkpt lat="43.187961" lon="-2.177732">
        <ele>778.921</ele>
        <time>2021-03-21T07:42:03Z</time>
      </trkpt>
      <trkpt lat="43.187936" lon="-2.177712">
        <ele>779.462</ele>
        <time>2021-03-21T07:42:04Z</time>
      </trkpt>
      <trkpt lat="43.187916" lon="-2.177692">
        <ele>779.919</ele>
        <time>2021-03-21T07:42:07Z</time>
      </trkpt>
      <trkpt lat="43.187900" lon="-2.177672">
        <ele>780.527</ele>
        <time>2021-03-21T07:42:08Z</time>
      </trkpt>
      <trkpt lat="43.187885" lon="-2.177652">
        <ele>781.057</ele>
        <time>2021-03-21T07:42:10Z</time>
      </trkpt>
      <trkpt lat="43.187864" lon="-2.177634">
        <ele>781.467</ele>
        <time>2021-03-21T07:42:12Z</time>
      </trkpt>
      <trkpt lat="43.187843" lon="-2.177617">
        <ele>781.863</ele>
        <time>2021-03-21T07:42:14Z</time>
      </trkpt>
      <trkpt lat="43.187816" lon="-2.177602">
        <ele>782.144</ele>
        <time>2021-03-21T07:42:16Z</time>
      </trkpt>
      <trkpt lat="43.187792" lon="-2.177584">
        <ele>782.418</ele>
        <time>2021-03-21T07:42:18Z</time>
      </trkpt>
      <trkpt lat="43.187771" lon="-2.177561">
        <ele>783.008</ele>
        <time>2021-03-21T07:42:20Z</time>
      </trkpt>
      <trkpt lat="43.187749" lon="-2.177535">
        <ele>783.932</ele>
        <time>2021-03-21T07:42:22Z</time>
      </trkpt>
      <trkpt lat="43.187729" lon="-2.177504">
        <ele>785.025</ele>
        <time>2021-03-21T07:42:24Z</time>
      </trkpt>
      <trkpt lat="43.187708" lon="-2.177476">
        <ele>785.738</ele>
        <time>2021-03-21T07:42:26Z</time>
      </trkpt>
      <trkpt lat="43.187681" lon="-2.177449">
        <ele>786.459</ele>
        <time>2021-03-21T07:42:28Z</time>
      </trkpt>
      <trkpt lat="43.187656" lon="-2.177427">
        <ele>787.156</ele>
        <time>2021-03-21T07:42:30Z</time>
      </trkpt>
      <trkpt lat="43.187631" lon="-2.177409">
        <ele>787.734</ele>
        <time>2021-03-21T07:42:32Z</time>
      </trkpt>
      <trkpt lat="43.187607" lon="-2.177399">
        <ele>788.284</ele>
        <time>2021-03-21T07:42:34Z</time>
      </trkpt>
      <trkpt lat="43.187581" lon="-2.177388">
        <ele>788.764</ele>
        <time>2021-03-21T07:42:36Z</time>
      </trkpt>
      <trkpt lat="43.187559" lon="-2.177374">
        <ele>789.459</ele>
        <time>2021-03-21T07:42:38Z</time>
      </trkpt>
      <trkpt lat="43.187534" lon="-2.177367">
        <ele>789.903</ele>
        <time>2021-03-21T07:42:40Z</time>
      </trkpt>
      <trkpt lat="43.187508" lon="-2.177369">
        <ele>790.123</ele>
        <time>2021-03-21T07:42:42Z</time>
      </trkpt>
      <trkpt lat="43.187484" lon="-2.177371">
        <ele>790.508</ele>
        <time>2021-03-21T07:42:44Z</time>
      </trkpt>
      <trkpt lat="43.187464" lon="-2.177374">
        <ele>790.811</ele>
        <time>2021-03-21T07:42:46Z</time>
      </trkpt>
      <trkpt lat="43.187439" lon="-2.177374">
        <ele>791.434</ele>
        <time>2021-03-21T07:42:48Z</time>
      </trkpt>
      <trkpt lat="43.187413" lon="-2.177368">
        <ele>792.177</ele>
        <time>2021-03-21T07:42:50Z</time>
      </trkpt>
      <trkpt lat="43.187392" lon="-2.177364">
        <ele>792.718</ele>
        <time>2021-03-21T07:42:52Z</time>
      </trkpt>
      <trkpt lat="43.187371" lon="-2.177357">
        <ele>793.465</ele>
        <time>2021-03-21T07:42:54Z</time>
      </trkpt>
      <trkpt lat="43.187349" lon="-2.177356">
        <ele>793.943</ele>
        <time>2021-03-21T07:42:56Z</time>
      </trkpt>
      <trkpt lat="43.187331" lon="-2.177356">
        <ele>794.343</ele>
        <time>2021-03-21T07:42:58Z</time>
      </trkpt>
      <trkpt lat="43.187304" lon="-2.177357">
        <ele>794.973</ele>
        <time>2021-03-21T07:43:00Z</time>
      </trkpt>
      <trkpt lat="43.187275" lon="-2.177356">
        <ele>795.677</ele>
        <time>2021-03-21T07:43:02Z</time>
      </trkpt>
      <trkpt lat="43.187249" lon="-2.177350">
        <ele>796.461</ele>
        <time>2021-03-21T07:43:04Z</time>
      </trkpt>
      <trkpt lat="43.187229" lon="-2.177342">
        <ele>797.127</ele>
        <time>2021-03-21T07:43:06Z</time>
      </trkpt>
      <trkpt lat="43.187206" lon="-2.177334">
        <ele>797.608</ele>
        <time>2021-03-21T07:43:08Z</time>
      </trkpt>
      <trkpt lat="43.187181" lon="-2.177328">
        <ele>797.913</ele>
        <time>2021-03-21T07:43:11Z</time>
      </trkpt>
      <trkpt lat="43.187154" lon="-2.177321">
        <ele>798.276</ele>
        <time>2021-03-21T07:43:12Z</time>
      </trkpt>
      <trkpt lat="43.187140" lon="-2.177319">
        <ele>798.369</ele>
        <time>2021-03-21T07:43:13Z</time>
      </trkpt>
      <trkpt lat="43.187116" lon="-2.177311">
        <ele>798.650</ele>
        <time>2021-03-21T07:43:15Z</time>
      </trkpt>
      <trkpt lat="43.187093" lon="-2.177299">
        <ele>799.177</ele>
        <time>2021-03-21T07:43:17Z</time>
      </trkpt>
      <trkpt lat="43.187068" lon="-2.177278">
        <ele>799.995</ele>
        <time>2021-03-21T07:43:19Z</time>
      </trkpt>
      <trkpt lat="43.187045" lon="-2.177259">
        <ele>800.665</ele>
        <time>2021-03-21T07:43:22Z</time>
      </trkpt>
      <trkpt lat="43.187021" lon="-2.177240">
        <ele>801.315</ele>
        <time>2021-03-21T07:43:23Z</time>
      </trkpt>
      <trkpt lat="43.186998" lon="-2.177219">
        <ele>802.177</ele>
        <time>2021-03-21T07:43:25Z</time>
      </trkpt>
      <trkpt lat="43.186981" lon="-2.177207">
        <ele>802.561</ele>
        <time>2021-03-21T07:43:27Z</time>
      </trkpt>
      <trkpt lat="43.186955" lon="-2.177194">
        <ele>802.927</ele>
        <time>2021-03-21T07:43:28Z</time>
      </trkpt>
      <trkpt lat="43.186924" lon="-2.177184">
        <ele>803.408</ele>
        <time>2021-03-21T07:43:30Z</time>
      </trkpt>
      <trkpt lat="43.186891" lon="-2.177184">
        <ele>803.853</ele>
        <time>2021-03-21T07:43:32Z</time>
      </trkpt>
      <trkpt lat="43.186862" lon="-2.177180">
        <ele>804.276</ele>
        <time>2021-03-21T07:43:34Z</time>
      </trkpt>
      <trkpt lat="43.186835" lon="-2.177172">
        <ele>804.779</ele>
        <time>2021-03-21T07:43:36Z</time>
      </trkpt>
      <trkpt lat="43.186802" lon="-2.177174">
        <ele>805.090</ele>
        <time>2021-03-21T07:43:38Z</time>
      </trkpt>
      <trkpt lat="43.186776" lon="-2.177177">
        <ele>805.277</ele>
        <time>2021-03-21T07:43:41Z</time>
      </trkpt>
      <trkpt lat="43.186749" lon="-2.177180">
        <ele>805.415</ele>
        <time>2021-03-21T07:43:42Z</time>
      </trkpt>
      <trkpt lat="43.186724" lon="-2.177181">
        <ele>805.685</ele>
        <time>2021-03-21T07:43:44Z</time>
      </trkpt>
      <trkpt lat="43.186698" lon="-2.177173">
        <ele>806.115</ele>
        <time>2021-03-21T07:43:46Z</time>
      </trkpt>
      <trkpt lat="43.186671" lon="-2.177169">
        <ele>806.561</ele>
        <time>2021-03-21T07:43:48Z</time>
      </trkpt>
      <trkpt lat="43.186650" lon="-2.177163">
        <ele>807.021</ele>
        <time>2021-03-21T07:43:50Z</time>
      </trkpt>
      <trkpt lat="43.186628" lon="-2.177157">
        <ele>807.513</ele>
        <time>2021-03-21T07:43:52Z</time>
      </trkpt>
      <trkpt lat="43.186600" lon="-2.177156">
        <ele>808.008</ele>
        <time>2021-03-21T07:43:54Z</time>
      </trkpt>
      <trkpt lat="43.186581" lon="-2.177154">
        <ele>808.422</ele>
        <time>2021-03-21T07:43:56Z</time>
      </trkpt>
      <trkpt lat="43.186554" lon="-2.177141">
        <ele>809.275</ele>
        <time>2021-03-21T07:43:58Z</time>
      </trkpt>
      <trkpt lat="43.186524" lon="-2.177123">
        <ele>810.288</ele>
        <time>2021-03-21T07:44:00Z</time>
      </trkpt>
      <trkpt lat="43.186495" lon="-2.177101">
        <ele>811.399</ele>
        <time>2021-03-21T07:44:03Z</time>
      </trkpt>
      <trkpt lat="43.186406" lon="-2.177077">
        <ele>813.456</ele>
        <time>2021-03-21T07:44:12Z</time>
      </trkpt>
      <trkpt lat="43.186290" lon="-2.177093">
        <ele>816.324</ele>
        <time>2021-03-21T07:44:20Z</time>
      </trkpt>
      <trkpt lat="43.186190" lon="-2.177099">
        <ele>819.234</ele>
        <time>2021-03-21T07:44:25Z</time>
      </trkpt>
      <trkpt lat="43.186086" lon="-2.177097">
        <ele>822.774</ele>
        <time>2021-03-21T07:44:32Z</time>
      </trkpt>
      <trkpt lat="43.186001" lon="-2.177111">
        <ele>826.014</ele>
        <time>2021-03-21T07:44:36Z</time>
      </trkpt>
      <trkpt lat="43.185915" lon="-2.177153">
        <ele>828.354</ele>
        <time>2021-03-21T07:44:46Z</time>
      </trkpt>
      <trkpt lat="43.185898" lon="-2.177177">
        <ele>828.109</ele>
        <time>2021-03-21T07:44:47Z</time>
      </trkpt>
      <trkpt lat="43.185878" lon="-2.177197">
        <ele>828.208</ele>
        <time>2021-03-21T07:44:49Z</time>
      </trkpt>
      <trkpt lat="43.185854" lon="-2.177213">
        <ele>828.557</ele>
        <time>2021-03-21T07:44:51Z</time>
      </trkpt>
      <trkpt lat="43.185831" lon="-2.177222">
        <ele>829.140</ele>
        <time>2021-03-21T07:44:53Z</time>
      </trkpt>
      <trkpt lat="43.185805" lon="-2.177230">
        <ele>830.283</ele>
        <time>2021-03-21T07:44:55Z</time>
      </trkpt>
      <trkpt lat="43.185778" lon="-2.177235">
        <ele>831.424</ele>
        <time>2021-03-21T07:44:58Z</time>
      </trkpt>
      <trkpt lat="43.185755" lon="-2.177236">
        <ele>832.591</ele>
        <time>2021-03-21T07:44:59Z</time>
      </trkpt>
      <trkpt lat="43.185729" lon="-2.177246">
        <ele>833.589</ele>
        <time>2021-03-21T07:45:01Z</time>
      </trkpt>
      <trkpt lat="43.185716" lon="-2.177249">
        <ele>834.059</ele>
        <time>2021-03-21T07:45:02Z</time>
      </trkpt>
      <trkpt lat="43.185698" lon="-2.177255">
        <ele>834.769</ele>
        <time>2021-03-21T07:45:03Z</time>
      </trkpt>
      <trkpt lat="43.185675" lon="-2.177264">
        <ele>835.575</ele>
        <time>2021-03-21T07:45:05Z</time>
      </trkpt>
      <trkpt lat="43.185658" lon="-2.177279">
        <ele>835.928</ele>
        <time>2021-03-21T07:45:08Z</time>
      </trkpt>
      <trkpt lat="43.185637" lon="-2.177301">
        <ele>836.120</ele>
        <time>2021-03-21T07:45:10Z</time>
      </trkpt>
      <trkpt lat="43.185618" lon="-2.177324">
        <ele>836.308</ele>
        <time>2021-03-21T07:45:12Z</time>
      </trkpt>
      <trkpt lat="43.185596" lon="-2.177339">
        <ele>836.873</ele>
        <time>2021-03-21T07:45:14Z</time>
      </trkpt>
      <trkpt lat="43.185577" lon="-2.177358">
        <ele>837.166</ele>
        <time>2021-03-21T07:45:16Z</time>
      </trkpt>
      <trkpt lat="43.185563" lon="-2.177384">
        <ele>836.819</ele>
        <time>2021-03-21T07:45:18Z</time>
      </trkpt>
      <trkpt lat="43.185543" lon="-2.177397">
        <ele>837.270</ele>
        <time>2021-03-21T07:45:21Z</time>
      </trkpt>
      <trkpt lat="43.185525" lon="-2.177417">
        <ele>837.357</ele>
        <time>2021-03-21T07:45:22Z</time>
      </trkpt>
      <trkpt lat="43.185489" lon="-2.177448">
        <ele>837.735</ele>
        <time>2021-03-21T07:45:26Z</time>
      </trkpt>
      <trkpt lat="43.185466" lon="-2.177466">
        <ele>838.175</ele>
        <time>2021-03-21T07:45:27Z</time>
      </trkpt>
      <trkpt lat="43.185442" lon="-2.177480">
        <ele>838.695</ele>
        <time>2021-03-21T07:45:29Z</time>
      </trkpt>
      <trkpt lat="43.185415" lon="-2.177482">
        <ele>839.771</ele>
        <time>2021-03-21T07:45:31Z</time>
      </trkpt>
      <trkpt lat="43.185392" lon="-2.177492">
        <ele>840.441</ele>
        <time>2021-03-21T07:45:34Z</time>
      </trkpt>
      <trkpt lat="43.185367" lon="-2.177497">
        <ele>841.315</ele>
        <time>2021-03-21T07:45:35Z</time>
      </trkpt>
      <trkpt lat="43.185345" lon="-2.177512">
        <ele>841.708</ele>
        <time>2021-03-21T07:45:37Z</time>
      </trkpt>
      <trkpt lat="43.185325" lon="-2.177523">
        <ele>842.383</ele>
        <time>2021-03-21T07:45:39Z</time>
      </trkpt>
      <trkpt lat="43.185298" lon="-2.177537">
        <ele>843.056</ele>
        <time>2021-03-21T07:45:41Z</time>
      </trkpt>
      <trkpt lat="43.185281" lon="-2.177557">
        <ele>843.229</ele>
        <time>2021-03-21T07:45:43Z</time>
      </trkpt>
      <trkpt lat="43.185259" lon="-2.177566">
        <ele>844.040</ele>
        <time>2021-03-21T07:45:45Z</time>
      </trkpt>
      <trkpt lat="43.185233" lon="-2.177578">
        <ele>844.847</ele>
        <time>2021-03-21T07:45:47Z</time>
      </trkpt>
      <trkpt lat="43.185209" lon="-2.177593">
        <ele>845.575</ele>
        <time>2021-03-21T07:45:49Z</time>
      </trkpt>
      <trkpt lat="43.185189" lon="-2.177620">
        <ele>845.645</ele>
        <time>2021-03-21T07:45:51Z</time>
      </trkpt>
      <trkpt lat="43.185165" lon="-2.177644">
        <ele>845.935</ele>
        <time>2021-03-21T07:45:53Z</time>
      </trkpt>
      <trkpt lat="43.185144" lon="-2.177665">
        <ele>846.297</ele>
        <time>2021-03-21T07:45:55Z</time>
      </trkpt>
      <trkpt lat="43.185122" lon="-2.177696">
        <ele>846.223</ele>
        <time>2021-03-21T07:45:57Z</time>
      </trkpt>
      <trkpt lat="43.185110" lon="-2.177717">
        <ele>846.125</ele>
        <time>2021-03-21T07:45:59Z</time>
      </trkpt>
      <trkpt lat="43.185086" lon="-2.177749">
        <ele>846.208</ele>
        <time>2021-03-21T07:46:00Z</time>
      </trkpt>
      <trkpt lat="43.185061" lon="-2.177777">
        <ele>846.425</ele>
        <time>2021-03-21T07:46:02Z</time>
      </trkpt>
      <trkpt lat="43.185041" lon="-2.177812">
        <ele>846.418</ele>
        <time>2021-03-21T07:46:04Z</time>
      </trkpt>
      <trkpt lat="43.185020" lon="-2.177841">
        <ele>846.721</ele>
        <time>2021-03-21T07:46:06Z</time>
      </trkpt>
      <trkpt lat="43.185000" lon="-2.177868">
        <ele>847.182</ele>
        <time>2021-03-21T07:46:08Z</time>
      </trkpt>
      <trkpt lat="43.184978" lon="-2.177891">
        <ele>847.459</ele>
        <time>2021-03-21T07:46:10Z</time>
      </trkpt>
      <trkpt lat="43.184946" lon="-2.177941">
        <ele>847.437</ele>
        <time>2021-03-21T07:46:13Z</time>
      </trkpt>
      <trkpt lat="43.184924" lon="-2.177972">
        <ele>847.417</ele>
        <time>2021-03-21T07:46:15Z</time>
      </trkpt>
      <trkpt lat="43.184914" lon="-2.177987">
        <ele>847.427</ele>
        <time>2021-03-21T07:46:17Z</time>
      </trkpt>
      <trkpt lat="43.184888" lon="-2.178015">
        <ele>847.641</ele>
        <time>2021-03-21T07:46:19Z</time>
      </trkpt>
      <trkpt lat="43.184862" lon="-2.178033">
        <ele>848.081</ele>
        <time>2021-03-21T07:46:20Z</time>
      </trkpt>
      <trkpt lat="43.184833" lon="-2.178047">
        <ele>848.609</ele>
        <time>2021-03-21T07:46:22Z</time>
      </trkpt>
      <trkpt lat="43.184808" lon="-2.178067">
        <ele>848.908</ele>
        <time>2021-03-21T07:46:24Z</time>
      </trkpt>
      <trkpt lat="43.184782" lon="-2.178083">
        <ele>849.460</ele>
        <time>2021-03-21T07:46:26Z</time>
      </trkpt>
      <trkpt lat="43.184758" lon="-2.178096">
        <ele>849.973</ele>
        <time>2021-03-21T07:46:28Z</time>
      </trkpt>
      <trkpt lat="43.184735" lon="-2.178106">
        <ele>850.546</ele>
        <time>2021-03-21T07:46:30Z</time>
      </trkpt>
      <trkpt lat="43.184704" lon="-2.178119">
        <ele>851.577</ele>
        <time>2021-03-21T07:46:32Z</time>
      </trkpt>
      <trkpt lat="43.184678" lon="-2.178135">
        <ele>852.394</ele>
        <time>2021-03-21T07:46:34Z</time>
      </trkpt>
      <trkpt lat="43.184651" lon="-2.178152">
        <ele>853.122</ele>
        <time>2021-03-21T07:46:37Z</time>
      </trkpt>
      <trkpt lat="43.184624" lon="-2.178169">
        <ele>853.972</ele>
        <time>2021-03-21T07:46:38Z</time>
      </trkpt>
      <trkpt lat="43.184599" lon="-2.178189">
        <ele>854.592</ele>
        <time>2021-03-21T07:46:40Z</time>
      </trkpt>
      <trkpt lat="43.184573" lon="-2.178211">
        <ele>855.022</ele>
        <time>2021-03-21T07:46:42Z</time>
      </trkpt>
      <trkpt lat="43.184547" lon="-2.178229">
        <ele>855.762</ele>
        <time>2021-03-21T07:46:45Z</time>
      </trkpt>
      <trkpt lat="43.184519" lon="-2.178243">
        <ele>856.508</ele>
        <time>2021-03-21T07:46:46Z</time>
      </trkpt>
      <trkpt lat="43.184495" lon="-2.178260">
        <ele>857.008</ele>
        <time>2021-03-21T07:46:49Z</time>
      </trkpt>
      <trkpt lat="43.184453" lon="-2.178287">
        <ele>858.048</ele>
        <time>2021-03-21T07:46:51Z</time>
      </trkpt>
      <trkpt lat="43.184430" lon="-2.178308">
        <ele>858.351</ele>
        <time>2021-03-21T07:46:53Z</time>
      </trkpt>
      <trkpt lat="43.184408" lon="-2.178331">
        <ele>858.574</ele>
        <time>2021-03-21T07:46:55Z</time>
      </trkpt>
      <trkpt lat="43.184389" lon="-2.178346">
        <ele>858.815</ele>
        <time>2021-03-21T07:46:57Z</time>
      </trkpt>
      <trkpt lat="43.184368" lon="-2.178366">
        <ele>859.152</ele>
        <time>2021-03-21T07:46:59Z</time>
      </trkpt>
      <trkpt lat="43.184347" lon="-2.178383">
        <ele>859.540</ele>
        <time>2021-03-21T07:47:01Z</time>
      </trkpt>
      <trkpt lat="43.184331" lon="-2.178398">
        <ele>859.770</ele>
        <time>2021-03-21T07:47:03Z</time>
      </trkpt>
      <trkpt lat="43.184310" lon="-2.178414">
        <ele>860.120</ele>
        <time>2021-03-21T07:47:05Z</time>
      </trkpt>
      <trkpt lat="43.184288" lon="-2.178429">
        <ele>860.655</ele>
        <time>2021-03-21T07:47:07Z</time>
      </trkpt>
      <trkpt lat="43.184266" lon="-2.178439">
        <ele>861.307</ele>
        <time>2021-03-21T07:47:09Z</time>
      </trkpt>
      <trkpt lat="43.184244" lon="-2.178454">
        <ele>861.817</ele>
        <time>2021-03-21T07:47:11Z</time>
      </trkpt>
      <trkpt lat="43.184220" lon="-2.178464">
        <ele>862.508</ele>
        <time>2021-03-21T07:47:13Z</time>
      </trkpt>
      <trkpt lat="43.184196" lon="-2.178474">
        <ele>863.271</ele>
        <time>2021-03-21T07:47:15Z</time>
      </trkpt>
      <trkpt lat="43.184169" lon="-2.178486">
        <ele>864.164</ele>
        <time>2021-03-21T07:47:18Z</time>
      </trkpt>
      <trkpt lat="43.184140" lon="-2.178498">
        <ele>864.977</ele>
        <time>2021-03-21T07:47:19Z</time>
      </trkpt>
      <trkpt lat="43.184119" lon="-2.178520">
        <ele>865.218</ele>
        <time>2021-03-21T07:47:21Z</time>
      </trkpt>
      <trkpt lat="43.184098" lon="-2.178541">
        <ele>865.595</ele>
        <time>2021-03-21T07:47:23Z</time>
      </trkpt>
      <trkpt lat="43.184076" lon="-2.178558">
        <ele>865.953</ele>
        <time>2021-03-21T07:47:25Z</time>
      </trkpt>
      <trkpt lat="43.184056" lon="-2.178573">
        <ele>866.373</ele>
        <time>2021-03-21T07:47:27Z</time>
      </trkpt>
      <trkpt lat="43.184034" lon="-2.178583">
        <ele>867.023</ele>
        <time>2021-03-21T07:47:29Z</time>
      </trkpt>
      <trkpt lat="43.184010" lon="-2.178592">
        <ele>867.723</ele>
        <time>2021-03-21T07:47:31Z</time>
      </trkpt>
      <trkpt lat="43.183988" lon="-2.178600">
        <ele>868.483</ele>
        <time>2021-03-21T07:47:33Z</time>
      </trkpt>
      <trkpt lat="43.183967" lon="-2.178607">
        <ele>869.011</ele>
        <time>2021-03-21T07:47:35Z</time>
      </trkpt>
      <trkpt lat="43.183942" lon="-2.178618">
        <ele>869.708</ele>
        <time>2021-03-21T07:47:37Z</time>
      </trkpt>
      <trkpt lat="43.183931" lon="-2.178618">
        <ele>870.168</ele>
        <time>2021-03-21T07:47:39Z</time>
      </trkpt>
      <trkpt lat="43.183907" lon="-2.178623">
        <ele>870.961</ele>
        <time>2021-03-21T07:47:40Z</time>
      </trkpt>
      <trkpt lat="43.183882" lon="-2.178631">
        <ele>871.784</ele>
        <time>2021-03-21T07:47:42Z</time>
      </trkpt>
      <trkpt lat="43.183863" lon="-2.178643">
        <ele>872.035</ele>
        <time>2021-03-21T07:47:45Z</time>
      </trkpt>
      <trkpt lat="43.183844" lon="-2.178650">
        <ele>872.512</ele>
        <time>2021-03-21T07:47:46Z</time>
      </trkpt>
      <trkpt lat="43.183824" lon="-2.178663">
        <ele>872.820</ele>
        <time>2021-03-21T07:47:48Z</time>
      </trkpt>
      <trkpt lat="43.183804" lon="-2.178670">
        <ele>873.360</ele>
        <time>2021-03-21T07:47:50Z</time>
      </trkpt>
      <trkpt lat="43.183783" lon="-2.178677">
        <ele>873.860</ele>
        <time>2021-03-21T07:47:53Z</time>
      </trkpt>
      <trkpt lat="43.183758" lon="-2.178687">
        <ele>874.457</ele>
        <time>2021-03-21T07:47:54Z</time>
      </trkpt>
      <trkpt lat="43.183733" lon="-2.178696">
        <ele>875.000</ele>
        <time>2021-03-21T07:47:56Z</time>
      </trkpt>
      <trkpt lat="43.183712" lon="-2.178703">
        <ele>875.520</ele>
        <time>2021-03-21T07:47:59Z</time>
      </trkpt>
      <trkpt lat="43.183693" lon="-2.178707">
        <ele>876.008</ele>
        <time>2021-03-21T07:48:01Z</time>
      </trkpt>
      <trkpt lat="43.183672" lon="-2.178712">
        <ele>876.641</ele>
        <time>2021-03-21T07:48:02Z</time>
      </trkpt>
      <trkpt lat="43.183654" lon="-2.178727">
        <ele>876.834</ele>
        <time>2021-03-21T07:48:05Z</time>
      </trkpt>
      <trkpt lat="43.183633" lon="-2.178736">
        <ele>877.297</ele>
        <time>2021-03-21T07:48:08Z</time>
      </trkpt>
      <trkpt lat="43.183611" lon="-2.178741">
        <ele>877.838</ele>
        <time>2021-03-21T07:48:10Z</time>
      </trkpt>
      <trkpt lat="43.183587" lon="-2.178744">
        <ele>878.495</ele>
        <time>2021-03-21T07:48:12Z</time>
      </trkpt>
      <trkpt lat="43.183566" lon="-2.178748">
        <ele>878.943</ele>
        <time>2021-03-21T07:48:13Z</time>
      </trkpt>
      <trkpt lat="43.183542" lon="-2.178755">
        <ele>879.333</ele>
        <time>2021-03-21T07:48:15Z</time>
      </trkpt>
      <trkpt lat="43.183515" lon="-2.178765">
        <ele>879.863</ele>
        <time>2021-03-21T07:48:18Z</time>
      </trkpt>
      <trkpt lat="43.183491" lon="-2.178778">
        <ele>880.197</ele>
        <time>2021-03-21T07:48:19Z</time>
      </trkpt>
      <trkpt lat="43.183463" lon="-2.178792">
        <ele>880.423</ele>
        <time>2021-03-21T07:48:21Z</time>
      </trkpt>
      <trkpt lat="43.183435" lon="-2.178801">
        <ele>880.925</ele>
        <time>2021-03-21T07:48:23Z</time>
      </trkpt>
      <trkpt lat="43.183410" lon="-2.178809">
        <ele>881.408</ele>
        <time>2021-03-21T07:48:26Z</time>
      </trkpt>
      <trkpt lat="43.183383" lon="-2.178818">
        <ele>881.945</ele>
        <time>2021-03-21T07:48:27Z</time>
      </trkpt>
      <trkpt lat="43.183354" lon="-2.178829">
        <ele>882.338</ele>
        <time>2021-03-21T07:48:29Z</time>
      </trkpt>
      <trkpt lat="43.183332" lon="-2.178838">
        <ele>882.731</ele>
        <time>2021-03-21T07:48:31Z</time>
      </trkpt>
      <trkpt lat="43.183303" lon="-2.178846">
        <ele>883.262</ele>
        <time>2021-03-21T07:48:34Z</time>
      </trkpt>
      <trkpt lat="43.183277" lon="-2.178857">
        <ele>883.559</ele>
        <time>2021-03-21T07:48:35Z</time>
      </trkpt>
      <trkpt lat="43.183246" lon="-2.178855">
        <ele>884.357</ele>
        <time>2021-03-21T07:48:37Z</time>
      </trkpt>
      <trkpt lat="43.183216" lon="-2.178861">
        <ele>884.977</ele>
        <time>2021-03-21T07:48:39Z</time>
      </trkpt>
      <trkpt lat="43.183186" lon="-2.178870">
        <ele>885.337</ele>
        <time>2021-03-21T07:48:42Z</time>
      </trkpt>
      <trkpt lat="43.183159" lon="-2.178887">
        <ele>885.523</ele>
        <time>2021-03-21T07:48:43Z</time>
      </trkpt>
      <trkpt lat="43.183136" lon="-2.178907">
        <ele>885.483</ele>
        <time>2021-03-21T07:48:45Z</time>
      </trkpt>
      <trkpt lat="43.183121" lon="-2.178928">
        <ele>885.111</ele>
        <time>2021-03-21T07:48:47Z</time>
      </trkpt>
      <trkpt lat="43.183095" lon="-2.178945">
        <ele>885.208</ele>
        <time>2021-03-21T07:48:50Z</time>
      </trkpt>
      <trkpt lat="43.183072" lon="-2.178959">
        <ele>885.368</ele>
        <time>2021-03-21T07:48:51Z</time>
      </trkpt>
      <trkpt lat="43.183049" lon="-2.178979">
        <ele>885.291</ele>
        <time>2021-03-21T07:48:53Z</time>
      </trkpt>
      <trkpt lat="43.183024" lon="-2.179001">
        <ele>885.024</ele>
        <time>2021-03-21T07:48:55Z</time>
      </trkpt>
      <trkpt lat="43.182997" lon="-2.179018">
        <ele>885.135</ele>
        <time>2021-03-21T07:48:58Z</time>
      </trkpt>
      <trkpt lat="43.182972" lon="-2.179036">
        <ele>885.082</ele>
        <time>2021-03-21T07:48:59Z</time>
      </trkpt>
      <trkpt lat="43.182943" lon="-2.179044">
        <ele>885.410</ele>
        <time>2021-03-21T07:49:01Z</time>
      </trkpt>
      <trkpt lat="43.182917" lon="-2.179061">
        <ele>885.460</ele>
        <time>2021-03-21T07:49:04Z</time>
      </trkpt>
      <trkpt lat="43.182894" lon="-2.179073">
        <ele>885.530</ele>
        <time>2021-03-21T07:49:05Z</time>
      </trkpt>
      <trkpt lat="43.182868" lon="-2.179085">
        <ele>885.792</ele>
        <time>2021-03-21T07:49:07Z</time>
      </trkpt>
      <trkpt lat="43.182842" lon="-2.179098">
        <ele>885.873</ele>
        <time>2021-03-21T07:49:09Z</time>
      </trkpt>
      <trkpt lat="43.182813" lon="-2.179108">
        <ele>886.120</ele>
        <time>2021-03-21T07:49:12Z</time>
      </trkpt>
      <trkpt lat="43.182783" lon="-2.179118">
        <ele>886.508</ele>
        <time>2021-03-21T07:49:13Z</time>
      </trkpt>
      <trkpt lat="43.182753" lon="-2.179134">
        <ele>886.385</ele>
        <time>2021-03-21T07:49:15Z</time>
      </trkpt>
      <trkpt lat="43.182719" lon="-2.179147">
        <ele>886.398</ele>
        <time>2021-03-21T07:49:17Z</time>
      </trkpt>
      <trkpt lat="43.182688" lon="-2.179158">
        <ele>886.271</ele>
        <time>2021-03-21T07:49:19Z</time>
      </trkpt>
      <trkpt lat="43.182655" lon="-2.179169">
        <ele>886.252</ele>
        <time>2021-03-21T07:49:21Z</time>
      </trkpt>
      <trkpt lat="43.182622" lon="-2.179187">
        <ele>886.079</ele>
        <time>2021-03-21T07:49:23Z</time>
      </trkpt>
      <trkpt lat="43.182600" lon="-2.179199">
        <ele>885.977</ele>
        <time>2021-03-21T07:49:24Z</time>
      </trkpt>
      <trkpt lat="43.182550" lon="-2.179219">
        <ele>885.957</ele>
        <time>2021-03-21T07:49:26Z</time>
      </trkpt>
      <trkpt lat="43.182496" lon="-2.179244">
        <ele>885.867</ele>
        <time>2021-03-21T07:49:28Z</time>
      </trkpt>
      <trkpt lat="43.182470" lon="-2.179255">
        <ele>885.662</ele>
        <time>2021-03-21T07:49:29Z</time>
      </trkpt>
      <trkpt lat="43.182423" lon="-2.179279">
        <ele>885.383</ele>
        <time>2021-03-21T07:49:31Z</time>
      </trkpt>
      <trkpt lat="43.182399" lon="-2.179292">
        <ele>885.111</ele>
        <time>2021-03-21T07:49:32Z</time>
      </trkpt>
      <trkpt lat="43.182373" lon="-2.179302">
        <ele>885.008</ele>
        <time>2021-03-21T07:49:33Z</time>
      </trkpt>
      <trkpt lat="43.182347" lon="-2.179304">
        <ele>885.162</ele>
        <time>2021-03-21T07:49:34Z</time>
      </trkpt>
      <trkpt lat="43.182322" lon="-2.179299">
        <ele>885.435</ele>
        <time>2021-03-21T07:49:35Z</time>
      </trkpt>
      <trkpt lat="43.182269" lon="-2.179290">
        <ele>886.078</ele>
        <time>2021-03-21T07:49:37Z</time>
      </trkpt>
      <trkpt lat="43.182241" lon="-2.179294">
        <ele>886.189</ele>
        <time>2021-03-21T07:49:38Z</time>
      </trkpt>
      <trkpt lat="43.182216" lon="-2.179304">
        <ele>886.076</ele>
        <time>2021-03-21T07:49:39Z</time>
      </trkpt>
      <trkpt lat="43.182189" lon="-2.179314">
        <ele>885.914</ele>
        <time>2021-03-21T07:49:40Z</time>
      </trkpt>
      <trkpt lat="43.182161" lon="-2.179316">
        <ele>885.984</ele>
        <time>2021-03-21T07:49:42Z</time>
      </trkpt>
      <trkpt lat="43.182111" lon="-2.179317">
        <ele>886.074</ele>
        <time>2021-03-21T07:49:43Z</time>
      </trkpt>
      <trkpt lat="43.182056" lon="-2.179315">
        <ele>886.184</ele>
        <time>2021-03-21T07:49:45Z</time>
      </trkpt>
      <trkpt lat="43.182029" lon="-2.179306">
        <ele>886.307</ele>
        <time>2021-03-21T07:49:46Z</time>
      </trkpt>
      <trkpt lat="43.182003" lon="-2.179301">
        <ele>886.517</ele>
        <time>2021-03-21T07:49:47Z</time>
      </trkpt>
      <trkpt lat="43.181979" lon="-2.179293">
        <ele>886.708</ele>
        <time>2021-03-21T07:49:48Z</time>
      </trkpt>
      <trkpt lat="43.181952" lon="-2.179281">
        <ele>886.994</ele>
        <time>2021-03-21T07:49:49Z</time>
      </trkpt>
      <trkpt lat="43.181925" lon="-2.179269">
        <ele>886.967</ele>
        <time>2021-03-21T07:49:50Z</time>
      </trkpt>
      <trkpt lat="43.181902" lon="-2.179257">
        <ele>886.940</ele>
        <time>2021-03-21T07:49:51Z</time>
      </trkpt>
      <trkpt lat="43.181877" lon="-2.179246">
        <ele>886.831</ele>
        <time>2021-03-21T07:49:52Z</time>
      </trkpt>
      <trkpt lat="43.181852" lon="-2.179233">
        <ele>886.868</ele>
        <time>2021-03-21T07:49:53Z</time>
      </trkpt>
      <trkpt lat="43.181830" lon="-2.179219">
        <ele>886.886</ele>
        <time>2021-03-21T07:49:54Z</time>
      </trkpt>
      <trkpt lat="43.181808" lon="-2.179204">
        <ele>886.946</ele>
        <time>2021-03-21T07:49:55Z</time>
      </trkpt>
      <trkpt lat="43.181789" lon="-2.179189">
        <ele>886.976</ele>
        <time>2021-03-21T07:49:56Z</time>
      </trkpt>
      <trkpt lat="43.181773" lon="-2.179174">
        <ele>887.049</ele>
        <time>2021-03-21T07:49:57Z</time>
      </trkpt>
      <trkpt lat="43.181757" lon="-2.179138">
        <ele>887.502</ele>
        <time>2021-03-21T07:49:59Z</time>
      </trkpt>
      <trkpt lat="43.181755" lon="-2.179105">
        <ele>888.022</ele>
        <time>2021-03-21T07:50:01Z</time>
      </trkpt>
      <trkpt lat="43.181756" lon="-2.179075">
        <ele>888.508</ele>
        <time>2021-03-21T07:50:03Z</time>
      </trkpt>
      <trkpt lat="43.181765" lon="-2.179053">
        <ele>889.090</ele>
        <time>2021-03-21T07:50:05Z</time>
      </trkpt>
      <trkpt lat="43.181780" lon="-2.179034">
        <ele>889.553</ele>
        <time>2021-03-21T07:50:07Z</time>
      </trkpt>
      <trkpt lat="43.181785" lon="-2.179021">
        <ele>889.886</ele>
        <time>2021-03-21T07:50:08Z</time>
      </trkpt>
      <trkpt lat="43.181796" lon="-2.179002">
        <ele>890.357</ele>
        <time>2021-03-21T07:50:10Z</time>
      </trkpt>
      <trkpt lat="43.181810" lon="-2.178978">
        <ele>891.024</ele>
        <time>2021-03-21T07:50:12Z</time>
      </trkpt>
      <trkpt lat="43.181822" lon="-2.178959">
        <ele>891.562</ele>
        <time>2021-03-21T07:50:14Z</time>
      </trkpt>
      <trkpt lat="43.181834" lon="-2.178936">
        <ele>892.152</ele>
        <time>2021-03-21T07:50:16Z</time>
      </trkpt>
      <trkpt lat="43.181845" lon="-2.178912">
        <ele>892.882</ele>
        <time>2021-03-21T07:50:19Z</time>
      </trkpt>
      <trkpt lat="43.181857" lon="-2.178885">
        <ele>893.548</ele>
        <time>2021-03-21T07:50:20Z</time>
      </trkpt>
      <trkpt lat="43.181868" lon="-2.178856">
        <ele>894.461</ele>
        <time>2021-03-21T07:50:22Z</time>
      </trkpt>
      <trkpt lat="43.181877" lon="-2.178832">
        <ele>895.217</ele>
        <time>2021-03-21T07:50:25Z</time>
      </trkpt>
      <trkpt lat="43.181882" lon="-2.178810">
        <ele>895.808</ele>
        <time>2021-03-21T07:50:26Z</time>
      </trkpt>
      <trkpt lat="43.181892" lon="-2.178779">
        <ele>896.850</ele>
        <time>2021-03-21T07:50:29Z</time>
      </trkpt>
      <trkpt lat="43.181898" lon="-2.178758">
        <ele>897.413</ele>
        <time>2021-03-21T07:50:31Z</time>
      </trkpt>
      <trkpt lat="43.181903" lon="-2.178735">
        <ele>898.076</ele>
        <time>2021-03-21T07:50:33Z</time>
      </trkpt>
      <trkpt lat="43.181912" lon="-2.178707">
        <ele>898.947</ele>
        <time>2021-03-21T07:50:36Z</time>
      </trkpt>
      <trkpt lat="43.181919" lon="-2.178683">
        <ele>899.754</ele>
        <time>2021-03-21T07:50:38Z</time>
      </trkpt>
      <trkpt lat="43.181929" lon="-2.178659">
        <ele>900.512</ele>
        <time>2021-03-21T07:50:40Z</time>
      </trkpt>
      <trkpt lat="43.181940" lon="-2.178627">
        <ele>901.512</ele>
        <time>2021-03-21T07:50:43Z</time>
      </trkpt>
      <trkpt lat="43.181947" lon="-2.178602">
        <ele>902.282</ele>
        <time>2021-03-21T07:50:45Z</time>
      </trkpt>
      <trkpt lat="43.181956" lon="-2.178580">
        <ele>902.886</ele>
        <time>2021-03-21T07:50:47Z</time>
      </trkpt>
      <trkpt lat="43.181963" lon="-2.178557">
        <ele>903.360</ele>
        <time>2021-03-21T07:50:50Z</time>
      </trkpt>
      <trkpt lat="43.181970" lon="-2.178534">
        <ele>903.926</ele>
        <time>2021-03-21T07:50:52Z</time>
      </trkpt>
      <trkpt lat="43.181983" lon="-2.178500">
        <ele>904.708</ele>
        <time>2021-03-21T07:50:54Z</time>
      </trkpt>
      <trkpt lat="43.181992" lon="-2.178478">
        <ele>905.334</ele>
        <time>2021-03-21T07:50:56Z</time>
      </trkpt>
      <trkpt lat="43.182000" lon="-2.178456">
        <ele>905.987</ele>
        <time>2021-03-21T07:50:59Z</time>
      </trkpt>
      <trkpt lat="43.182007" lon="-2.178431">
        <ele>906.510</ele>
        <time>2021-03-21T07:51:01Z</time>
      </trkpt>
      <trkpt lat="43.182015" lon="-2.178403">
        <ele>907.291</ele>
        <time>2021-03-21T07:51:02Z</time>
      </trkpt>
      <trkpt lat="43.182025" lon="-2.178383">
        <ele>907.738</ele>
        <time>2021-03-21T07:51:04Z</time>
      </trkpt>
      <trkpt lat="43.182040" lon="-2.178358">
        <ele>908.566</ele>
        <time>2021-03-21T07:51:06Z</time>
      </trkpt>
      <trkpt lat="43.182051" lon="-2.178338">
        <ele>909.076</ele>
        <time>2021-03-21T07:51:09Z</time>
      </trkpt>
      <trkpt lat="43.182061" lon="-2.178311">
        <ele>909.856</ele>
        <time>2021-03-21T07:51:11Z</time>
      </trkpt>
      <trkpt lat="43.182068" lon="-2.178289">
        <ele>910.495</ele>
        <time>2021-03-21T07:51:14Z</time>
      </trkpt>
      <trkpt lat="43.182073" lon="-2.178261">
        <ele>911.149</ele>
        <time>2021-03-21T07:51:15Z</time>
      </trkpt>
      <trkpt lat="43.182079" lon="-2.178227">
        <ele>911.923</ele>
        <time>2021-03-21T07:51:18Z</time>
      </trkpt>
      <trkpt lat="43.182084" lon="-2.178197">
        <ele>912.708</ele>
        <time>2021-03-21T07:51:20Z</time>
      </trkpt>
      <trkpt lat="43.182088" lon="-2.178175">
        <ele>913.385</ele>
        <time>2021-03-21T07:51:22Z</time>
      </trkpt>
      <trkpt lat="43.182093" lon="-2.178148">
        <ele>914.048</ele>
        <time>2021-03-21T07:51:25Z</time>
      </trkpt>
      <trkpt lat="43.182096" lon="-2.178124">
        <ele>914.651</ele>
        <time>2021-03-21T07:51:27Z</time>
      </trkpt>
      <trkpt lat="43.182097" lon="-2.178093">
        <ele>915.382</ele>
        <time>2021-03-21T07:51:28Z</time>
      </trkpt>
      <trkpt lat="43.182109" lon="-2.178068">
        <ele>916.169</ele>
        <time>2021-03-21T07:51:30Z</time>
      </trkpt>
      <trkpt lat="43.182113" lon="-2.178042">
        <ele>916.717</ele>
        <time>2021-03-21T07:51:32Z</time>
      </trkpt>
      <trkpt lat="43.182120" lon="-2.178020">
        <ele>917.277</ele>
        <time>2021-03-21T07:51:34Z</time>
      </trkpt>
      <trkpt lat="43.182124" lon="-2.177993">
        <ele>917.967</ele>
        <time>2021-03-21T07:51:36Z</time>
      </trkpt>
      <trkpt lat="43.182138" lon="-2.177963">
        <ele>918.743</ele>
        <time>2021-03-21T07:51:39Z</time>
      </trkpt>
      <trkpt lat="43.182147" lon="-2.177938">
        <ele>919.364</ele>
        <time>2021-03-21T07:51:41Z</time>
      </trkpt>
      <trkpt lat="43.182154" lon="-2.177916">
        <ele>919.910</ele>
        <time>2021-03-21T07:51:43Z</time>
      </trkpt>
      <trkpt lat="43.182162" lon="-2.177881">
        <ele>920.808</ele>
        <time>2021-03-21T07:51:46Z</time>
      </trkpt>
      <trkpt lat="43.182169" lon="-2.177853">
        <ele>921.590</ele>
        <time>2021-03-21T07:51:48Z</time>
      </trkpt>
      <trkpt lat="43.182174" lon="-2.177829">
        <ele>922.183</ele>
        <time>2021-03-21T07:51:50Z</time>
      </trkpt>
      <trkpt lat="43.182178" lon="-2.177803">
        <ele>922.776</ele>
        <time>2021-03-21T07:51:52Z</time>
      </trkpt>
      <trkpt lat="43.182182" lon="-2.177774">
        <ele>923.317</ele>
        <time>2021-03-21T07:51:54Z</time>
      </trkpt>
      <trkpt lat="43.182183" lon="-2.177741">
        <ele>924.044</ele>
        <time>2021-03-21T07:51:56Z</time>
      </trkpt>
      <trkpt lat="43.182180" lon="-2.177707">
        <ele>924.532</ele>
        <time>2021-03-21T07:51:58Z</time>
      </trkpt>
      <trkpt lat="43.182176" lon="-2.177676">
        <ele>925.072</ele>
        <time>2021-03-21T07:52:00Z</time>
      </trkpt>
      <trkpt lat="43.182174" lon="-2.177648">
        <ele>925.522</ele>
        <time>2021-03-21T07:52:03Z</time>
      </trkpt>
      <trkpt lat="43.182180" lon="-2.177619">
        <ele>926.175</ele>
        <time>2021-03-21T07:52:05Z</time>
      </trkpt>
      <trkpt lat="43.182188" lon="-2.177590">
        <ele>926.828</ele>
        <time>2021-03-21T07:52:06Z</time>
      </trkpt>
      <trkpt lat="43.182197" lon="-2.177563">
        <ele>927.420</ele>
        <time>2021-03-21T07:52:08Z</time>
      </trkpt>
      <trkpt lat="43.182202" lon="-2.177536">
        <ele>928.008</ele>
        <time>2021-03-21T07:52:10Z</time>
      </trkpt>
      <trkpt lat="43.182212" lon="-2.177509">
        <ele>928.773</ele>
        <time>2021-03-21T07:52:12Z</time>
      </trkpt>
      <trkpt lat="43.182216" lon="-2.177478">
        <ele>929.316</ele>
        <time>2021-03-21T07:52:14Z</time>
      </trkpt>
      <trkpt lat="43.182222" lon="-2.177452">
        <ele>929.969</ele>
        <time>2021-03-21T07:52:16Z</time>
      </trkpt>
      <trkpt lat="43.182228" lon="-2.177422">
        <ele>930.510</ele>
        <time>2021-03-21T07:52:18Z</time>
      </trkpt>
      <trkpt lat="43.182233" lon="-2.177392">
        <ele>931.047</ele>
        <time>2021-03-21T07:52:20Z</time>
      </trkpt>
      <trkpt lat="43.182239" lon="-2.177365">
        <ele>931.695</ele>
        <time>2021-03-21T07:52:22Z</time>
      </trkpt>
      <trkpt lat="43.182248" lon="-2.177337">
        <ele>932.225</ele>
        <time>2021-03-21T07:52:24Z</time>
      </trkpt>
      <trkpt lat="43.182254" lon="-2.177310">
        <ele>932.775</ele>
        <time>2021-03-21T07:52:26Z</time>
      </trkpt>
      <trkpt lat="43.182260" lon="-2.177284">
        <ele>933.347</ele>
        <time>2021-03-21T07:52:29Z</time>
      </trkpt>
      <trkpt lat="43.182268" lon="-2.177255">
        <ele>933.929</ele>
        <time>2021-03-21T07:52:30Z</time>
      </trkpt>
      <trkpt lat="43.182277" lon="-2.177227">
        <ele>934.521</ele>
        <time>2021-03-21T07:52:32Z</time>
      </trkpt>
      <trkpt lat="43.182285" lon="-2.177201">
        <ele>935.108</ele>
        <time>2021-03-21T07:52:34Z</time>
      </trkpt>
      <trkpt lat="43.182298" lon="-2.177172">
        <ele>935.740</ele>
        <time>2021-03-21T07:52:36Z</time>
      </trkpt>
      <trkpt lat="43.182307" lon="-2.177145">
        <ele>936.333</ele>
        <time>2021-03-21T07:52:38Z</time>
      </trkpt>
      <trkpt lat="43.182313" lon="-2.177117">
        <ele>936.946</ele>
        <time>2021-03-21T07:52:41Z</time>
      </trkpt>
      <trkpt lat="43.182325" lon="-2.177081">
        <ele>937.797</ele>
        <time>2021-03-21T07:52:43Z</time>
      </trkpt>
      <trkpt lat="43.182328" lon="-2.177052">
        <ele>938.214</ele>
        <time>2021-03-21T07:52:46Z</time>
      </trkpt>
      <trkpt lat="43.182331" lon="-2.177024">
        <ele>938.762</ele>
        <time>2021-03-21T07:52:47Z</time>
      </trkpt>
      <trkpt lat="43.182335" lon="-2.176995">
        <ele>939.362</ele>
        <time>2021-03-21T07:52:49Z</time>
      </trkpt>
      <trkpt lat="43.182340" lon="-2.176965">
        <ele>939.932</ele>
        <time>2021-03-21T07:52:52Z</time>
      </trkpt>
      <trkpt lat="43.182347" lon="-2.176937">
        <ele>940.568</ele>
        <time>2021-03-21T07:52:53Z</time>
      </trkpt>
      <trkpt lat="43.182355" lon="-2.176905">
        <ele>941.142</ele>
        <time>2021-03-21T07:52:55Z</time>
      </trkpt>
      <trkpt lat="43.182358" lon="-2.176877">
        <ele>941.726</ele>
        <time>2021-03-21T07:52:57Z</time>
      </trkpt>
      <trkpt lat="43.182360" lon="-2.176848">
        <ele>942.208</ele>
        <time>2021-03-21T07:52:59Z</time>
      </trkpt>
      <trkpt lat="43.182361" lon="-2.176821">
        <ele>942.732</ele>
        <time>2021-03-21T07:53:01Z</time>
      </trkpt>
      <trkpt lat="43.182362" lon="-2.176786">
        <ele>943.415</ele>
        <time>2021-03-21T07:53:07Z</time>
      </trkpt>
      <trkpt lat="43.182364" lon="-2.176751">
        <ele>944.038</ele>
        <time>2021-03-21T07:53:09Z</time>
      </trkpt>
      <trkpt lat="43.182365" lon="-2.176718">
        <ele>944.659</ele>
        <time>2021-03-21T07:53:11Z</time>
      </trkpt>
      <trkpt lat="43.182370" lon="-2.176682">
        <ele>945.376</ele>
        <time>2021-03-21T07:53:13Z</time>
      </trkpt>
      <trkpt lat="43.182374" lon="-2.176650">
        <ele>946.014</ele>
        <time>2021-03-21T07:53:15Z</time>
      </trkpt>
      <trkpt lat="43.182378" lon="-2.176614">
        <ele>946.734</ele>
        <time>2021-03-21T07:53:17Z</time>
      </trkpt>
      <trkpt lat="43.182383" lon="-2.176584">
        <ele>947.444</ele>
        <time>2021-03-21T07:53:19Z</time>
      </trkpt>
      <trkpt lat="43.182385" lon="-2.176553">
        <ele>948.058</ele>
        <time>2021-03-21T07:53:21Z</time>
      </trkpt>
      <trkpt lat="43.182385" lon="-2.176525">
        <ele>948.652</ele>
        <time>2021-03-21T07:53:23Z</time>
      </trkpt>
      <trkpt lat="43.182390" lon="-2.176492">
        <ele>949.317</ele>
        <time>2021-03-21T07:53:25Z</time>
      </trkpt>
      <trkpt lat="43.182392" lon="-2.176463">
        <ele>949.908</ele>
        <time>2021-03-21T07:53:27Z</time>
      </trkpt>
      <trkpt lat="43.182392" lon="-2.176413">
        <ele>951.011</ele>
        <time>2021-03-21T07:53:30Z</time>
      </trkpt>
      <trkpt lat="43.182396" lon="-2.176383">
        <ele>951.674</ele>
        <time>2021-03-21T07:53:33Z</time>
      </trkpt>
      <trkpt lat="43.182400" lon="-2.176348">
        <ele>952.287</ele>
        <time>2021-03-21T07:53:34Z</time>
      </trkpt>
      <trkpt lat="43.182402" lon="-2.176319">
        <ele>952.778</ele>
        <time>2021-03-21T07:53:36Z</time>
      </trkpt>
      <trkpt lat="43.182405" lon="-2.176289">
        <ele>953.295</ele>
        <time>2021-03-21T07:53:38Z</time>
      </trkpt>
      <trkpt lat="43.182404" lon="-2.176258">
        <ele>953.743</ele>
        <time>2021-03-21T07:53:40Z</time>
      </trkpt>
      <trkpt lat="43.182401" lon="-2.176224">
        <ele>954.213</ele>
        <time>2021-03-21T07:53:42Z</time>
      </trkpt>
      <trkpt lat="43.182403" lon="-2.176193">
        <ele>954.733</ele>
        <time>2021-03-21T07:53:44Z</time>
      </trkpt>
      <trkpt lat="43.182407" lon="-2.176159">
        <ele>955.266</ele>
        <time>2021-03-21T07:53:46Z</time>
      </trkpt>
      <trkpt lat="43.182406" lon="-2.176123">
        <ele>955.829</ele>
        <time>2021-03-21T07:53:48Z</time>
      </trkpt>
      <trkpt lat="43.182405" lon="-2.176105">
        <ele>956.121</ele>
        <time>2021-03-21T07:53:50Z</time>
      </trkpt>
      <trkpt lat="43.182404" lon="-2.176066">
        <ele>956.608</ele>
        <time>2021-03-21T07:53:52Z</time>
      </trkpt>
      <trkpt lat="43.182402" lon="-2.176026">
        <ele>957.192</ele>
        <time>2021-03-21T07:53:53Z</time>
      </trkpt>
      <trkpt lat="43.182397" lon="-2.175989">
        <ele>957.525</ele>
        <time>2021-03-21T07:53:55Z</time>
      </trkpt>
      <trkpt lat="43.182389" lon="-2.175955">
        <ele>957.988</ele>
        <time>2021-03-21T07:53:57Z</time>
      </trkpt>
      <trkpt lat="43.182379" lon="-2.175924">
        <ele>958.389</ele>
        <time>2021-03-21T07:54:00Z</time>
      </trkpt>
      <trkpt lat="43.182377" lon="-2.175885">
        <ele>958.826</ele>
        <time>2021-03-21T07:54:01Z</time>
      </trkpt>
      <trkpt lat="43.182369" lon="-2.175852">
        <ele>959.384</ele>
        <time>2021-03-21T07:54:03Z</time>
      </trkpt>
      <trkpt lat="43.182361" lon="-2.175818">
        <ele>959.614</ele>
        <time>2021-03-21T07:54:05Z</time>
      </trkpt>
      <trkpt lat="43.182354" lon="-2.175782">
        <ele>959.844</ele>
        <time>2021-03-21T07:54:08Z</time>
      </trkpt>
      <trkpt lat="43.182342" lon="-2.175749">
        <ele>959.981</ele>
        <time>2021-03-21T07:54:09Z</time>
      </trkpt>
      <trkpt lat="43.182329" lon="-2.175717">
        <ele>960.261</ele>
        <time>2021-03-21T07:54:11Z</time>
      </trkpt>
      <trkpt lat="43.182320" lon="-2.175697">
        <ele>960.317</ele>
        <time>2021-03-21T07:54:12Z</time>
      </trkpt>
      <trkpt lat="43.182310" lon="-2.175675">
        <ele>960.508</ele>
        <time>2021-03-21T07:54:13Z</time>
      </trkpt>
      <trkpt lat="43.182298" lon="-2.175650">
        <ele>960.784</ele>
        <time>2021-03-21T07:54:14Z</time>
      </trkpt>
      <trkpt lat="43.182286" lon="-2.175625">
        <ele>961.057</ele>
        <time>2021-03-21T07:54:15Z</time>
      </trkpt>
      <trkpt lat="43.182275" lon="-2.175601">
        <ele>961.280</ele>
        <time>2021-03-21T07:54:16Z</time>
      </trkpt>
      <trkpt lat="43.182262" lon="-2.175573">
        <ele>961.621</ele>
        <time>2021-03-21T07:54:17Z</time>
      </trkpt>
      <trkpt lat="43.182251" lon="-2.175545">
        <ele>961.828</ele>
        <time>2021-03-21T07:54:18Z</time>
      </trkpt>
      <trkpt lat="43.182239" lon="-2.175518">
        <ele>962.086</ele>
        <time>2021-03-21T07:54:19Z</time>
      </trkpt>
      <trkpt lat="43.182227" lon="-2.175488">
        <ele>962.276</ele>
        <time>2021-03-21T07:54:20Z</time>
      </trkpt>
      <trkpt lat="43.182216" lon="-2.175461">
        <ele>962.326</ele>
        <time>2021-03-21T07:54:21Z</time>
      </trkpt>
      <trkpt lat="43.182205" lon="-2.175435">
        <ele>962.216</ele>
        <time>2021-03-21T07:54:22Z</time>
      </trkpt>
      <trkpt lat="43.182191" lon="-2.175407">
        <ele>962.276</ele>
        <time>2021-03-21T07:54:23Z</time>
      </trkpt>
      <trkpt lat="43.182178" lon="-2.175380">
        <ele>962.113</ele>
        <time>2021-03-21T07:54:24Z</time>
      </trkpt>
      <trkpt lat="43.182166" lon="-2.175352">
        <ele>962.208</ele>
        <time>2021-03-21T07:54:25Z</time>
      </trkpt>
      <trkpt lat="43.182154" lon="-2.175319">
        <ele>962.347</ele>
        <time>2021-03-21T07:54:26Z</time>
      </trkpt>
      <trkpt lat="43.182141" lon="-2.175289">
        <ele>962.370</ele>
        <time>2021-03-21T07:54:27Z</time>
      </trkpt>
      <trkpt lat="43.182116" lon="-2.175230">
        <ele>962.183</ele>
        <time>2021-03-21T07:54:29Z</time>
      </trkpt>
      <trkpt lat="43.182102" lon="-2.175201">
        <ele>962.064</ele>
        <time>2021-03-21T07:54:30Z</time>
      </trkpt>
      <trkpt lat="43.182090" lon="-2.175168">
        <ele>962.051</ele>
        <time>2021-03-21T07:54:31Z</time>
      </trkpt>
      <trkpt lat="43.182076" lon="-2.175136">
        <ele>962.039</ele>
        <time>2021-03-21T07:54:32Z</time>
      </trkpt>
      <trkpt lat="43.182063" lon="-2.175103">
        <ele>962.139</ele>
        <time>2021-03-21T07:54:33Z</time>
      </trkpt>
      <trkpt lat="43.182048" lon="-2.175073">
        <ele>962.319</ele>
        <time>2021-03-21T07:54:34Z</time>
      </trkpt>
      <trkpt lat="43.182034" lon="-2.175043">
        <ele>962.536</ele>
        <time>2021-03-21T07:54:35Z</time>
      </trkpt>
      <trkpt lat="43.182020" lon="-2.175013">
        <ele>962.817</ele>
        <time>2021-03-21T07:54:36Z</time>
      </trkpt>
      <trkpt lat="43.182009" lon="-2.174983">
        <ele>963.018</ele>
        <time>2021-03-21T07:54:37Z</time>
      </trkpt>
      <trkpt lat="43.181995" lon="-2.174952">
        <ele>963.208</ele>
        <time>2021-03-21T07:54:38Z</time>
      </trkpt>
      <trkpt lat="43.181982" lon="-2.174920">
        <ele>963.519</ele>
        <time>2021-03-21T07:54:39Z</time>
      </trkpt>
      <trkpt lat="43.181957" lon="-2.174856">
        <ele>964.252</ele>
        <time>2021-03-21T07:54:41Z</time>
      </trkpt>
      <trkpt lat="43.181943" lon="-2.174827">
        <ele>964.685</ele>
        <time>2021-03-21T07:54:42Z</time>
      </trkpt>
      <trkpt lat="43.181921" lon="-2.174766">
        <ele>964.456</ele>
        <time>2021-03-21T07:54:44Z</time>
      </trkpt>
      <trkpt lat="43.181894" lon="-2.174707">
        <ele>964.093</ele>
        <time>2021-03-21T07:54:46Z</time>
      </trkpt>
      <trkpt lat="43.181881" lon="-2.174679">
        <ele>963.611</ele>
        <time>2021-03-21T07:54:47Z</time>
      </trkpt>
      <trkpt lat="43.181869" lon="-2.174649">
        <ele>963.391</ele>
        <time>2021-03-21T07:54:48Z</time>
      </trkpt>
      <trkpt lat="43.181854" lon="-2.174620">
        <ele>963.041</ele>
        <time>2021-03-21T07:54:49Z</time>
      </trkpt>
      <trkpt lat="43.181840" lon="-2.174592">
        <ele>962.895</ele>
        <time>2021-03-21T07:54:50Z</time>
      </trkpt>
      <trkpt lat="43.181824" lon="-2.174561">
        <ele>962.649</ele>
        <time>2021-03-21T07:54:51Z</time>
      </trkpt>
      <trkpt lat="43.181810" lon="-2.174528">
        <ele>962.523</ele>
        <time>2021-03-21T07:54:52Z</time>
      </trkpt>
      <trkpt lat="43.181800" lon="-2.174498">
        <ele>962.508</ele>
        <time>2021-03-21T07:54:53Z</time>
      </trkpt>
      <trkpt lat="43.181788" lon="-2.174467">
        <ele>962.585</ele>
        <time>2021-03-21T07:54:54Z</time>
      </trkpt>
      <trkpt lat="43.181778" lon="-2.174435">
        <ele>962.598</ele>
        <time>2021-03-21T07:54:55Z</time>
      </trkpt>
      <trkpt lat="43.181768" lon="-2.174404">
        <ele>962.421</ele>
        <time>2021-03-21T07:54:56Z</time>
      </trkpt>
      <trkpt lat="43.181759" lon="-2.174371">
        <ele>962.382</ele>
        <time>2021-03-21T07:54:57Z</time>
      </trkpt>
      <trkpt lat="43.181752" lon="-2.174338">
        <ele>962.329</ele>
        <time>2021-03-21T07:54:58Z</time>
      </trkpt>
      <trkpt lat="43.181747" lon="-2.174311">
        <ele>962.267</ele>
        <time>2021-03-21T07:54:59Z</time>
      </trkpt>
      <trkpt lat="43.181740" lon="-2.174288">
        <ele>962.327</ele>
        <time>2021-03-21T07:55:00Z</time>
      </trkpt>
      <trkpt lat="43.181737" lon="-2.174255">
        <ele>962.247</ele>
        <time>2021-03-21T07:55:02Z</time>
      </trkpt>
      <trkpt lat="43.181728" lon="-2.174225">
        <ele>962.326</ele>
        <time>2021-03-21T07:55:05Z</time>
      </trkpt>
      <trkpt lat="43.181718" lon="-2.174195">
        <ele>962.647</ele>
        <time>2021-03-21T07:55:06Z</time>
      </trkpt>
      <trkpt lat="43.181711" lon="-2.174163">
        <ele>962.711</ele>
        <time>2021-03-21T07:55:08Z</time>
      </trkpt>
      <trkpt lat="43.181702" lon="-2.174127">
        <ele>962.908</ele>
        <time>2021-03-21T07:55:10Z</time>
      </trkpt>
      <trkpt lat="43.181694" lon="-2.174104">
        <ele>963.178</ele>
        <time>2021-03-21T07:55:11Z</time>
      </trkpt>
      <trkpt lat="43.181677" lon="-2.174050">
        <ele>963.671</ele>
        <time>2021-03-21T07:55:13Z</time>
      </trkpt>
      <trkpt lat="43.181668" lon="-2.174019">
        <ele>963.984</ele>
        <time>2021-03-21T07:55:14Z</time>
      </trkpt>
      <trkpt lat="43.181657" lon="-2.173987">
        <ele>963.935</ele>
        <time>2021-03-21T07:55:15Z</time>
      </trkpt>
      <trkpt lat="43.181649" lon="-2.173958">
        <ele>963.882</ele>
        <time>2021-03-21T07:55:16Z</time>
      </trkpt>
      <trkpt lat="43.181626" lon="-2.173901">
        <ele>963.720</ele>
        <time>2021-03-21T07:55:18Z</time>
      </trkpt>
      <trkpt lat="43.181616" lon="-2.173874">
        <ele>963.580</ele>
        <time>2021-03-21T07:55:19Z</time>
      </trkpt>
      <trkpt lat="43.181596" lon="-2.173814">
        <ele>962.810</ele>
        <time>2021-03-21T07:55:21Z</time>
      </trkpt>
      <trkpt lat="43.181586" lon="-2.173785">
        <ele>962.682</ele>
        <time>2021-03-21T07:55:22Z</time>
      </trkpt>
      <trkpt lat="43.181576" lon="-2.173756">
        <ele>962.443</ele>
        <time>2021-03-21T07:55:23Z</time>
      </trkpt>
      <trkpt lat="43.181562" lon="-2.173723">
        <ele>962.217</ele>
        <time>2021-03-21T07:55:24Z</time>
      </trkpt>
      <trkpt lat="43.181551" lon="-2.173693">
        <ele>962.108</ele>
        <time>2021-03-21T07:55:25Z</time>
      </trkpt>
      <trkpt lat="43.181540" lon="-2.173662">
        <ele>962.194</ele>
        <time>2021-03-21T07:55:26Z</time>
      </trkpt>
      <trkpt lat="43.181527" lon="-2.173629">
        <ele>962.187</ele>
        <time>2021-03-21T07:55:27Z</time>
      </trkpt>
      <trkpt lat="43.181513" lon="-2.173599">
        <ele>962.190</ele>
        <time>2021-03-21T07:55:28Z</time>
      </trkpt>
      <trkpt lat="43.181502" lon="-2.173569">
        <ele>962.221</ele>
        <time>2021-03-21T07:55:29Z</time>
      </trkpt>
      <trkpt lat="43.181489" lon="-2.173536">
        <ele>962.238</ele>
        <time>2021-03-21T07:55:30Z</time>
      </trkpt>
      <trkpt lat="43.181478" lon="-2.173502">
        <ele>962.416</ele>
        <time>2021-03-21T07:55:31Z</time>
      </trkpt>
      <trkpt lat="43.181460" lon="-2.173435">
        <ele>962.626</ele>
        <time>2021-03-21T07:55:33Z</time>
      </trkpt>
      <trkpt lat="43.181446" lon="-2.173400">
        <ele>963.076</ele>
        <time>2021-03-21T07:55:34Z</time>
      </trkpt>
      <trkpt lat="43.181425" lon="-2.173330">
        <ele>963.799</ele>
        <time>2021-03-21T07:55:36Z</time>
      </trkpt>
      <trkpt lat="43.181412" lon="-2.173297">
        <ele>964.007</ele>
        <time>2021-03-21T07:55:37Z</time>
      </trkpt>
      <trkpt lat="43.181400" lon="-2.173266">
        <ele>964.327</ele>
        <time>2021-03-21T07:55:38Z</time>
      </trkpt>
      <trkpt lat="43.181388" lon="-2.173232">
        <ele>964.608</ele>
        <time>2021-03-21T07:55:39Z</time>
      </trkpt>
      <trkpt lat="43.181368" lon="-2.173160">
        <ele>964.185</ele>
        <time>2021-03-21T07:55:41Z</time>
      </trkpt>
      <trkpt lat="43.181348" lon="-2.173093">
        <ele>963.698</ele>
        <time>2021-03-21T07:55:43Z</time>
      </trkpt>
      <trkpt lat="43.181335" lon="-2.173061">
        <ele>963.431</ele>
        <time>2021-03-21T07:55:44Z</time>
      </trkpt>
      <trkpt lat="43.181323" lon="-2.173028">
        <ele>963.112</ele>
        <time>2021-03-21T07:55:45Z</time>
      </trkpt>
      <trkpt lat="43.181312" lon="-2.172998">
        <ele>962.879</ele>
        <time>2021-03-21T07:55:46Z</time>
      </trkpt>
      <trkpt lat="43.181304" lon="-2.172968">
        <ele>962.657</ele>
        <time>2021-03-21T07:55:47Z</time>
      </trkpt>
      <trkpt lat="43.181297" lon="-2.172935">
        <ele>962.447</ele>
        <time>2021-03-21T07:55:48Z</time>
      </trkpt>
      <trkpt lat="43.181284" lon="-2.172899">
        <ele>962.287</ele>
        <time>2021-03-21T07:55:49Z</time>
      </trkpt>
      <trkpt lat="43.181273" lon="-2.172865">
        <ele>962.167</ele>
        <time>2021-03-21T07:55:50Z</time>
      </trkpt>
      <trkpt lat="43.181263" lon="-2.172830">
        <ele>962.081</ele>
        <time>2021-03-21T07:55:51Z</time>
      </trkpt>
      <trkpt lat="43.181249" lon="-2.172793">
        <ele>962.019</ele>
        <time>2021-03-21T07:55:52Z</time>
      </trkpt>
      <trkpt lat="43.181237" lon="-2.172758">
        <ele>962.008</ele>
        <time>2021-03-21T07:55:53Z</time>
      </trkpt>
      <trkpt lat="43.181230" lon="-2.172724">
        <ele>961.842</ele>
        <time>2021-03-21T07:55:54Z</time>
      </trkpt>
      <trkpt lat="43.181219" lon="-2.172688">
        <ele>961.835</ele>
        <time>2021-03-21T07:55:55Z</time>
      </trkpt>
      <trkpt lat="43.181207" lon="-2.172652">
        <ele>961.868</ele>
        <time>2021-03-21T07:55:56Z</time>
      </trkpt>
      <trkpt lat="43.181189" lon="-2.172577">
        <ele>961.959</ele>
        <time>2021-03-21T07:55:58Z</time>
      </trkpt>
      <trkpt lat="43.181172" lon="-2.172508">
        <ele>962.346</ele>
        <time>2021-03-21T07:56:00Z</time>
      </trkpt>
      <trkpt lat="43.181166" lon="-2.172472">
        <ele>962.254</ele>
        <time>2021-03-21T07:56:01Z</time>
      </trkpt>
      <trkpt lat="43.181161" lon="-2.172436">
        <ele>962.054</ele>
        <time>2021-03-21T07:56:02Z</time>
      </trkpt>
      <trkpt lat="43.181155" lon="-2.172402">
        <ele>961.954</ele>
        <time>2021-03-21T07:56:03Z</time>
      </trkpt>
      <trkpt lat="43.181153" lon="-2.172363">
        <ele>961.753</ele>
        <time>2021-03-21T07:56:04Z</time>
      </trkpt>
      <trkpt lat="43.181151" lon="-2.172322">
        <ele>961.404</ele>
        <time>2021-03-21T07:56:05Z</time>
      </trkpt>
      <trkpt lat="43.181149" lon="-2.172283">
        <ele>961.114</ele>
        <time>2021-03-21T07:56:06Z</time>
      </trkpt>
      <trkpt lat="43.181145" lon="-2.172244">
        <ele>961.008</ele>
        <time>2021-03-21T07:56:07Z</time>
      </trkpt>
      <trkpt lat="43.181135" lon="-2.172170">
        <ele>960.631</ele>
        <time>2021-03-21T07:56:09Z</time>
      </trkpt>
      <trkpt lat="43.181130" lon="-2.172136">
        <ele>960.414</ele>
        <time>2021-03-21T07:56:10Z</time>
      </trkpt>
      <trkpt lat="43.181124" lon="-2.172061">
        <ele>959.847</ele>
        <time>2021-03-21T07:56:12Z</time>
      </trkpt>
      <trkpt lat="43.181117" lon="-2.171988">
        <ele>959.258</ele>
        <time>2021-03-21T07:56:14Z</time>
      </trkpt>
      <trkpt lat="43.181117" lon="-2.171948">
        <ele>958.885</ele>
        <time>2021-03-21T07:56:16Z</time>
      </trkpt>
      <trkpt lat="43.181111" lon="-2.171876">
        <ele>958.343</ele>
        <time>2021-03-21T07:56:17Z</time>
      </trkpt>
      <trkpt lat="43.181109" lon="-2.171837">
        <ele>957.853</ele>
        <time>2021-03-21T07:56:18Z</time>
      </trkpt>
      <trkpt lat="43.181108" lon="-2.171799">
        <ele>957.343</ele>
        <time>2021-03-21T07:56:19Z</time>
      </trkpt>
      <trkpt lat="43.181107" lon="-2.171761">
        <ele>956.991</ele>
        <time>2021-03-21T07:56:20Z</time>
      </trkpt>
      <trkpt lat="43.181104" lon="-2.171722">
        <ele>956.481</ele>
        <time>2021-03-21T07:56:21Z</time>
      </trkpt>
      <trkpt lat="43.181104" lon="-2.171681">
        <ele>955.919</ele>
        <time>2021-03-21T07:56:22Z</time>
      </trkpt>
      <trkpt lat="43.181105" lon="-2.171641">
        <ele>955.408</ele>
        <time>2021-03-21T07:56:23Z</time>
      </trkpt>
      <trkpt lat="43.181104" lon="-2.171596">
        <ele>954.895</ele>
        <time>2021-03-21T07:56:24Z</time>
      </trkpt>
      <trkpt lat="43.181103" lon="-2.171551">
        <ele>954.198</ele>
        <time>2021-03-21T07:56:25Z</time>
      </trkpt>
      <trkpt lat="43.181102" lon="-2.171508">
        <ele>953.411</ele>
        <time>2021-03-21T07:56:26Z</time>
      </trkpt>
      <trkpt lat="43.181100" lon="-2.171465">
        <ele>952.822</ele>
        <time>2021-03-21T07:56:27Z</time>
      </trkpt>
      <trkpt lat="43.181100" lon="-2.171376">
        <ele>951.529</ele>
        <time>2021-03-21T07:56:29Z</time>
      </trkpt>
      <trkpt lat="43.181096" lon="-2.171290">
        <ele>950.577</ele>
        <time>2021-03-21T07:56:31Z</time>
      </trkpt>
      <trkpt lat="43.181095" lon="-2.171248">
        <ele>950.097</ele>
        <time>2021-03-21T07:56:32Z</time>
      </trkpt>
      <trkpt lat="43.181096" lon="-2.171206">
        <ele>949.677</ele>
        <time>2021-03-21T07:56:33Z</time>
      </trkpt>
      <trkpt lat="43.181098" lon="-2.171162">
        <ele>949.277</ele>
        <time>2021-03-21T07:56:34Z</time>
      </trkpt>
      <trkpt lat="43.181098" lon="-2.171120">
        <ele>948.861</ele>
        <time>2021-03-21T07:56:35Z</time>
      </trkpt>
      <trkpt lat="43.181099" lon="-2.171078">
        <ele>948.227</ele>
        <time>2021-03-21T07:56:36Z</time>
      </trkpt>
      <trkpt lat="43.181100" lon="-2.171033">
        <ele>947.608</ele>
        <time>2021-03-21T07:56:37Z</time>
      </trkpt>
      <trkpt lat="43.181097" lon="-2.170992">
        <ele>947.033</ele>
        <time>2021-03-21T07:56:38Z</time>
      </trkpt>
      <trkpt lat="43.181093" lon="-2.170951">
        <ele>946.336</ele>
        <time>2021-03-21T07:56:39Z</time>
      </trkpt>
      <trkpt lat="43.181093" lon="-2.170907">
        <ele>945.719</ele>
        <time>2021-03-21T07:56:40Z</time>
      </trkpt>
      <trkpt lat="43.181094" lon="-2.170863">
        <ele>945.160</ele>
        <time>2021-03-21T07:56:41Z</time>
      </trkpt>
      <trkpt lat="43.181093" lon="-2.170821">
        <ele>944.487</ele>
        <time>2021-03-21T07:56:42Z</time>
      </trkpt>
      <trkpt lat="43.181090" lon="-2.170776">
        <ele>943.825</ele>
        <time>2021-03-21T07:56:43Z</time>
      </trkpt>
      <trkpt lat="43.181090" lon="-2.170732">
        <ele>943.165</ele>
        <time>2021-03-21T07:56:44Z</time>
      </trkpt>
      <trkpt lat="43.181089" lon="-2.170687">
        <ele>942.575</ele>
        <time>2021-03-21T07:56:45Z</time>
      </trkpt>
      <trkpt lat="43.181091" lon="-2.170640">
        <ele>941.973</ele>
        <time>2021-03-21T07:56:46Z</time>
      </trkpt>
      <trkpt lat="43.181094" lon="-2.170595">
        <ele>941.385</ele>
        <time>2021-03-21T07:56:47Z</time>
      </trkpt>
      <trkpt lat="43.181093" lon="-2.170548">
        <ele>940.713</ele>
        <time>2021-03-21T07:56:48Z</time>
      </trkpt>
      <trkpt lat="43.181093" lon="-2.170500">
        <ele>940.208</ele>
        <time>2021-03-21T07:56:49Z</time>
      </trkpt>
      <trkpt lat="43.181093" lon="-2.170452">
        <ele>939.663</ele>
        <time>2021-03-21T07:56:50Z</time>
      </trkpt>
      <trkpt lat="43.181093" lon="-2.170404">
        <ele>939.116</ele>
        <time>2021-03-21T07:56:51Z</time>
      </trkpt>
      <trkpt lat="43.181097" lon="-2.170359">
        <ele>938.759</ele>
        <time>2021-03-21T07:56:52Z</time>
      </trkpt>
      <trkpt lat="43.181088" lon="-2.170233">
        <ele>937.630</ele>
        <time>2021-03-21T07:56:55Z</time>
      </trkpt>
      <trkpt lat="43.181084" lon="-2.170108">
        <ele>937.267</ele>
        <time>2021-03-21T07:56:58Z</time>
      </trkpt>
      <trkpt lat="43.181079" lon="-2.169977">
        <ele>936.975</ele>
        <time>2021-03-21T07:57:01Z</time>
      </trkpt>
      <trkpt lat="43.181061" lon="-2.169822">
        <ele>937.155</ele>
        <time>2021-03-21T07:57:05Z</time>
      </trkpt>
      <trkpt lat="43.181017" lon="-2.169683">
        <ele>937.615</ele>
        <time>2021-03-21T07:57:10Z</time>
      </trkpt>
      <trkpt lat="43.180976" lon="-2.169625">
        <ele>938.345</ele>
        <time>2021-03-21T07:57:11Z</time>
      </trkpt>
      <trkpt lat="43.180959" lon="-2.169603">
        <ele>938.747</ele>
        <time>2021-03-21T07:57:12Z</time>
      </trkpt>
      <trkpt lat="43.180931" lon="-2.169569">
        <ele>939.411</ele>
        <time>2021-03-21T07:57:14Z</time>
      </trkpt>
      <trkpt lat="43.180911" lon="-2.169536">
        <ele>940.108</ele>
        <time>2021-03-21T07:57:16Z</time>
      </trkpt>
      <trkpt lat="43.180888" lon="-2.169505">
        <ele>940.920</ele>
        <time>2021-03-21T07:57:18Z</time>
      </trkpt>
      <trkpt lat="43.180868" lon="-2.169474">
        <ele>941.873</ele>
        <time>2021-03-21T07:57:20Z</time>
      </trkpt>
      <trkpt lat="43.180851" lon="-2.169440">
        <ele>942.726</ele>
        <time>2021-03-21T07:57:23Z</time>
      </trkpt>
      <trkpt lat="43.180836" lon="-2.169410">
        <ele>943.347</ele>
        <time>2021-03-21T07:57:24Z</time>
      </trkpt>
      <trkpt lat="43.180822" lon="-2.169384">
        <ele>943.694</ele>
        <time>2021-03-21T07:57:26Z</time>
      </trkpt>
      <trkpt lat="43.180814" lon="-2.169358">
        <ele>943.912</ele>
        <time>2021-03-21T07:57:28Z</time>
      </trkpt>
      <trkpt lat="43.180807" lon="-2.169321">
        <ele>944.382</ele>
        <time>2021-03-21T07:57:30Z</time>
      </trkpt>
      <trkpt lat="43.180803" lon="-2.169286">
        <ele>944.752</ele>
        <time>2021-03-21T07:57:32Z</time>
      </trkpt>
      <trkpt lat="43.180797" lon="-2.169252">
        <ele>945.126</ele>
        <time>2021-03-21T07:57:34Z</time>
      </trkpt>
      <trkpt lat="43.180791" lon="-2.169220">
        <ele>945.547</ele>
        <time>2021-03-21T07:57:36Z</time>
      </trkpt>
      <trkpt lat="43.180785" lon="-2.169186">
        <ele>945.911</ele>
        <time>2021-03-21T07:57:38Z</time>
      </trkpt>
      <trkpt lat="43.180778" lon="-2.169157">
        <ele>946.308</ele>
        <time>2021-03-21T07:57:40Z</time>
      </trkpt>
      <trkpt lat="43.180770" lon="-2.169128">
        <ele>946.638</ele>
        <time>2021-03-21T07:57:42Z</time>
      </trkpt>
      <trkpt lat="43.180761" lon="-2.169098">
        <ele>946.931</ele>
        <time>2021-03-21T07:57:45Z</time>
      </trkpt>
      <trkpt lat="43.180754" lon="-2.169069">
        <ele>947.334</ele>
        <time>2021-03-21T07:57:46Z</time>
      </trkpt>
      <trkpt lat="43.180751" lon="-2.169038">
        <ele>947.695</ele>
        <time>2021-03-21T07:57:48Z</time>
      </trkpt>
      <trkpt lat="43.180750" lon="-2.169003">
        <ele>948.082</ele>
        <time>2021-03-21T07:57:50Z</time>
      </trkpt>
      <trkpt lat="43.180749" lon="-2.168964">
        <ele>948.490</ele>
        <time>2021-03-21T07:57:52Z</time>
      </trkpt>
      <trkpt lat="43.180744" lon="-2.168932">
        <ele>948.810</ele>
        <time>2021-03-21T07:57:54Z</time>
      </trkpt>
      <trkpt lat="43.180741" lon="-2.168898">
        <ele>949.230</ele>
        <time>2021-03-21T07:57:56Z</time>
      </trkpt>
      <trkpt lat="43.180737" lon="-2.168862">
        <ele>949.689</ele>
        <time>2021-03-21T07:57:59Z</time>
      </trkpt>
      <trkpt lat="43.180731" lon="-2.168828">
        <ele>950.006</ele>
        <time>2021-03-21T07:58:00Z</time>
      </trkpt>
      <trkpt lat="43.180726" lon="-2.168794">
        <ele>950.426</ele>
        <time>2021-03-21T07:58:02Z</time>
      </trkpt>
      <trkpt lat="43.180722" lon="-2.168762">
        <ele>950.708</ele>
        <time>2021-03-21T07:58:04Z</time>
      </trkpt>
      <trkpt lat="43.180718" lon="-2.168728">
        <ele>951.194</ele>
        <time>2021-03-21T07:58:06Z</time>
      </trkpt>
      <trkpt lat="43.180713" lon="-2.168688">
        <ele>951.587</ele>
        <time>2021-03-21T07:58:08Z</time>
      </trkpt>
      <trkpt lat="43.180708" lon="-2.168648">
        <ele>951.980</ele>
        <time>2021-03-21T07:58:10Z</time>
      </trkpt>
      <trkpt lat="43.180701" lon="-2.168609">
        <ele>952.431</ele>
        <time>2021-03-21T07:58:12Z</time>
      </trkpt>
      <trkpt lat="43.180697" lon="-2.168568">
        <ele>952.568</ele>
        <time>2021-03-21T07:58:14Z</time>
      </trkpt>
      <trkpt lat="43.180694" lon="-2.168527">
        <ele>952.726</ele>
        <time>2021-03-21T07:58:16Z</time>
      </trkpt>
      <trkpt lat="43.180692" lon="-2.168485">
        <ele>952.826</ele>
        <time>2021-03-21T07:58:18Z</time>
      </trkpt>
      <trkpt lat="43.180694" lon="-2.168443">
        <ele>952.836</ele>
        <time>2021-03-21T07:58:21Z</time>
      </trkpt>
      <trkpt lat="43.180693" lon="-2.168401">
        <ele>952.984</ele>
        <time>2021-03-21T07:58:22Z</time>
      </trkpt>
      <trkpt lat="43.180690" lon="-2.168359">
        <ele>953.007</ele>
        <time>2021-03-21T07:58:24Z</time>
      </trkpt>
      <trkpt lat="43.180687" lon="-2.168315">
        <ele>953.117</ele>
        <time>2021-03-21T07:58:26Z</time>
      </trkpt>
      <trkpt lat="43.180684" lon="-2.168274">
        <ele>953.108</ele>
        <time>2021-03-21T07:58:29Z</time>
      </trkpt>
      <trkpt lat="43.180682" lon="-2.168231">
        <ele>953.294</ele>
        <time>2021-03-21T07:58:31Z</time>
      </trkpt>
      <trkpt lat="43.180681" lon="-2.168188">
        <ele>953.217</ele>
        <time>2021-03-21T07:58:32Z</time>
      </trkpt>
      <trkpt lat="43.180679" lon="-2.168144">
        <ele>953.250</ele>
        <time>2021-03-21T07:58:34Z</time>
      </trkpt>
      <trkpt lat="43.180677" lon="-2.168101">
        <ele>953.351</ele>
        <time>2021-03-21T07:58:37Z</time>
      </trkpt>
      <trkpt lat="43.180676" lon="-2.168058">
        <ele>953.368</ele>
        <time>2021-03-21T07:58:38Z</time>
      </trkpt>
      <trkpt lat="43.180672" lon="-2.168015">
        <ele>953.876</ele>
        <time>2021-03-21T07:58:40Z</time>
      </trkpt>
      <trkpt lat="43.180668" lon="-2.167972">
        <ele>954.556</ele>
        <time>2021-03-21T07:58:42Z</time>
      </trkpt>
      <trkpt lat="43.180663" lon="-2.167931">
        <ele>955.176</ele>
        <time>2021-03-21T07:58:45Z</time>
      </trkpt>
      <trkpt lat="43.180658" lon="-2.167896">
        <ele>955.624</ele>
        <time>2021-03-21T07:58:46Z</time>
      </trkpt>
      <trkpt lat="43.180657" lon="-2.167863">
        <ele>956.104</ele>
        <time>2021-03-21T07:58:48Z</time>
      </trkpt>
      <trkpt lat="43.180661" lon="-2.167824">
        <ele>956.514</ele>
        <time>2021-03-21T07:58:51Z</time>
      </trkpt>
      <trkpt lat="43.180658" lon="-2.167762">
        <ele>957.408</ele>
        <time>2021-03-21T07:58:53Z</time>
      </trkpt>
      <trkpt lat="43.180653" lon="-2.167726">
        <ele>958.298</ele>
        <time>2021-03-21T07:58:55Z</time>
      </trkpt>
      <trkpt lat="43.180647" lon="-2.167697">
        <ele>958.881</ele>
        <time>2021-03-21T07:58:57Z</time>
      </trkpt>
      <trkpt lat="43.180643" lon="-2.167663">
        <ele>959.584</ele>
        <time>2021-03-21T07:58:59Z</time>
      </trkpt>
      <trkpt lat="43.180636" lon="-2.167628">
        <ele>960.245</ele>
        <time>2021-03-21T07:59:01Z</time>
      </trkpt>
      <trkpt lat="43.180627" lon="-2.167596">
        <ele>961.022</ele>
        <time>2021-03-21T07:59:03Z</time>
      </trkpt>
      <trkpt lat="43.180620" lon="-2.167565">
        <ele>961.760</ele>
        <time>2021-03-21T07:59:05Z</time>
      </trkpt>
      <trkpt lat="43.180615" lon="-2.167532">
        <ele>962.430</ele>
        <time>2021-03-21T07:59:07Z</time>
      </trkpt>
      <trkpt lat="43.180612" lon="-2.167498">
        <ele>963.030</ele>
        <time>2021-03-21T07:59:09Z</time>
      </trkpt>
      <trkpt lat="43.180613" lon="-2.167464">
        <ele>963.646</ele>
        <time>2021-03-21T07:59:11Z</time>
      </trkpt>
      <trkpt lat="43.180608" lon="-2.167432">
        <ele>964.388</ele>
        <time>2021-03-21T07:59:13Z</time>
      </trkpt>
      <trkpt lat="43.180597" lon="-2.167399">
        <ele>965.116</ele>
        <time>2021-03-21T07:59:15Z</time>
      </trkpt>
      <trkpt lat="43.180593" lon="-2.167366">
        <ele>965.708</ele>
        <time>2021-03-21T07:59:17Z</time>
      </trkpt>
      <trkpt lat="43.180586" lon="-2.167337">
        <ele>966.480</ele>
        <time>2021-03-21T07:59:19Z</time>
      </trkpt>
      <trkpt lat="43.180583" lon="-2.167305">
        <ele>967.093</ele>
        <time>2021-03-21T07:59:21Z</time>
      </trkpt>
      <trkpt lat="43.180586" lon="-2.167275">
        <ele>967.596</ele>
        <time>2021-03-21T07:59:23Z</time>
      </trkpt>
      <trkpt lat="43.180590" lon="-2.167249">
        <ele>967.967</ele>
        <time>2021-03-21T07:59:25Z</time>
      </trkpt>
      <trkpt lat="43.180595" lon="-2.167217">
        <ele>968.474</ele>
        <time>2021-03-21T07:59:27Z</time>
      </trkpt>
      <trkpt lat="43.180601" lon="-2.167196">
        <ele>968.892</ele>
        <time>2021-03-21T07:59:29Z</time>
      </trkpt>
      <trkpt lat="43.180612" lon="-2.167170">
        <ele>969.352</ele>
        <time>2021-03-21T07:59:32Z</time>
      </trkpt>
      <trkpt lat="43.180625" lon="-2.167142">
        <ele>969.822</ele>
        <time>2021-03-21T07:59:34Z</time>
      </trkpt>
      <trkpt lat="43.180639" lon="-2.167112">
        <ele>970.387</ele>
        <time>2021-03-21T07:59:35Z</time>
      </trkpt>
      <trkpt lat="43.180647" lon="-2.167088">
        <ele>970.742</ele>
        <time>2021-03-21T07:59:37Z</time>
      </trkpt>
      <trkpt lat="43.180647" lon="-2.167056">
        <ele>971.526</ele>
        <time>2021-03-21T07:59:40Z</time>
      </trkpt>
      <trkpt lat="43.180654" lon="-2.167026">
        <ele>972.208</ele>
        <time>2021-03-21T07:59:41Z</time>
      </trkpt>
      <trkpt lat="43.180667" lon="-2.167002">
        <ele>972.524</ele>
        <time>2021-03-21T07:59:43Z</time>
      </trkpt>
      <trkpt lat="43.180679" lon="-2.166982">
        <ele>972.857</ele>
        <time>2021-03-21T07:59:45Z</time>
      </trkpt>
      <trkpt lat="43.180689" lon="-2.166960">
        <ele>973.260</ele>
        <time>2021-03-21T07:59:47Z</time>
      </trkpt>
      <trkpt lat="43.180705" lon="-2.166914">
        <ele>974.051</ele>
        <time>2021-03-21T07:59:50Z</time>
      </trkpt>
      <trkpt lat="43.180715" lon="-2.166886">
        <ele>974.558</ele>
        <time>2021-03-21T07:59:53Z</time>
      </trkpt>
      <trkpt lat="43.180722" lon="-2.166857">
        <ele>975.086</ele>
        <time>2021-03-21T07:59:54Z</time>
      </trkpt>
      <trkpt lat="43.180724" lon="-2.166829">
        <ele>975.646</ele>
        <time>2021-03-21T07:59:56Z</time>
      </trkpt>
      <trkpt lat="43.180725" lon="-2.166806">
        <ele>976.256</ele>
        <time>2021-03-21T07:59:59Z</time>
      </trkpt>
      <trkpt lat="43.180717" lon="-2.166781">
        <ele>976.821</ele>
        <time>2021-03-21T08:00:00Z</time>
      </trkpt>
      <trkpt lat="43.180722" lon="-2.166761">
        <ele>977.241</ele>
        <time>2021-03-21T08:00:02Z</time>
      </trkpt>
      <trkpt lat="43.180727" lon="-2.166731">
        <ele>977.905</ele>
        <time>2021-03-21T08:00:05Z</time>
      </trkpt>
      <trkpt lat="43.180718" lon="-2.166704">
        <ele>978.608</ele>
        <time>2021-03-21T08:00:08Z</time>
      </trkpt>
      <trkpt lat="43.180708" lon="-2.166680">
        <ele>979.258</ele>
        <time>2021-03-21T08:00:10Z</time>
      </trkpt>
      <trkpt lat="43.180701" lon="-2.166667">
        <ele>979.561</ele>
        <time>2021-03-21T08:00:12Z</time>
      </trkpt>
      <trkpt lat="43.180683" lon="-2.166643">
        <ele>980.034</ele>
        <time>2021-03-21T08:00:13Z</time>
      </trkpt>
      <trkpt lat="43.180671" lon="-2.166612">
        <ele>980.645</ele>
        <time>2021-03-21T08:00:15Z</time>
      </trkpt>
      <trkpt lat="43.180663" lon="-2.166583">
        <ele>981.112</ele>
        <time>2021-03-21T08:00:17Z</time>
      </trkpt>
      <trkpt lat="43.180658" lon="-2.166559">
        <ele>981.550</ele>
        <time>2021-03-21T08:00:20Z</time>
      </trkpt>
      <trkpt lat="43.180640" lon="-2.166523">
        <ele>982.010</ele>
        <time>2021-03-21T08:00:21Z</time>
      </trkpt>
      <trkpt lat="43.180628" lon="-2.166495">
        <ele>982.450</ele>
        <time>2021-03-21T08:00:23Z</time>
      </trkpt>
      <trkpt lat="43.180616" lon="-2.166468">
        <ele>982.793</ele>
        <time>2021-03-21T08:00:25Z</time>
      </trkpt>
      <trkpt lat="43.180607" lon="-2.166418">
        <ele>983.365</ele>
        <time>2021-03-21T08:00:28Z</time>
      </trkpt>
      <trkpt lat="43.180597" lon="-2.166390">
        <ele>983.621</ele>
        <time>2021-03-21T08:00:30Z</time>
      </trkpt>
      <trkpt lat="43.180595" lon="-2.166360">
        <ele>983.908</ele>
        <time>2021-03-21T08:00:33Z</time>
      </trkpt>
      <trkpt lat="43.180598" lon="-2.166332">
        <ele>984.385</ele>
        <time>2021-03-21T08:00:34Z</time>
      </trkpt>
      <trkpt lat="43.180602" lon="-2.166292">
        <ele>984.888</ele>
        <time>2021-03-21T08:00:36Z</time>
      </trkpt>
      <trkpt lat="43.180609" lon="-2.166262">
        <ele>985.361</ele>
        <time>2021-03-21T08:00:38Z</time>
      </trkpt>
      <trkpt lat="43.180624" lon="-2.166233">
        <ele>985.932</ele>
        <time>2021-03-21T08:00:41Z</time>
      </trkpt>
      <trkpt lat="43.180642" lon="-2.166199">
        <ele>986.719</ele>
        <time>2021-03-21T08:00:42Z</time>
      </trkpt>
      <trkpt lat="43.180660" lon="-2.166169">
        <ele>987.567</ele>
        <time>2021-03-21T08:00:44Z</time>
      </trkpt>
      <trkpt lat="43.180674" lon="-2.166145">
        <ele>988.137</ele>
        <time>2021-03-21T08:00:48Z</time>
      </trkpt>
      <trkpt lat="43.180694" lon="-2.166131">
        <ele>988.797</ele>
        <time>2021-03-21T08:00:50Z</time>
      </trkpt>
      <trkpt lat="43.180713" lon="-2.166112">
        <ele>989.467</ele>
        <time>2021-03-21T08:00:51Z</time>
      </trkpt>
      <trkpt lat="43.180725" lon="-2.166091">
        <ele>989.981</ele>
        <time>2021-03-21T08:00:54Z</time>
      </trkpt>
      <trkpt lat="43.180733" lon="-2.166068">
        <ele>990.419</ele>
        <time>2021-03-21T08:00:56Z</time>
      </trkpt>
      <trkpt lat="43.180746" lon="-2.166037">
        <ele>991.108</ele>
        <time>2021-03-21T08:00:59Z</time>
      </trkpt>
      <trkpt lat="43.180758" lon="-2.166021">
        <ele>991.692</ele>
        <time>2021-03-21T08:01:00Z</time>
      </trkpt>
      <trkpt lat="43.180775" lon="-2.166005">
        <ele>992.285</ele>
        <time>2021-03-21T08:01:04Z</time>
      </trkpt>
      <trkpt lat="43.180790" lon="-2.165987">
        <ele>992.818</ele>
        <time>2021-03-21T08:01:06Z</time>
      </trkpt>
      <trkpt lat="43.180810" lon="-2.165971">
        <ele>993.539</ele>
        <time>2021-03-21T08:01:08Z</time>
      </trkpt>
      <trkpt lat="43.180822" lon="-2.165942">
        <ele>994.226</ele>
        <time>2021-03-21T08:01:11Z</time>
      </trkpt>
      <trkpt lat="43.180835" lon="-2.165922">
        <ele>994.734</ele>
        <time>2021-03-21T08:01:12Z</time>
      </trkpt>
      <trkpt lat="43.180847" lon="-2.165897">
        <ele>994.814</ele>
        <time>2021-03-21T08:01:14Z</time>
      </trkpt>
      <trkpt lat="43.180861" lon="-2.165874">
        <ele>994.854</ele>
        <time>2021-03-21T08:01:17Z</time>
      </trkpt>
      <trkpt lat="43.180882" lon="-2.165859">
        <ele>994.752</ele>
        <time>2021-03-21T08:01:18Z</time>
      </trkpt>
      <trkpt lat="43.180889" lon="-2.165825">
        <ele>995.153</ele>
        <time>2021-03-21T08:01:21Z</time>
      </trkpt>
      <trkpt lat="43.180902" lon="-2.165803">
        <ele>995.008</ele>
        <time>2021-03-21T08:01:22Z</time>
      </trkpt>
      <trkpt lat="43.180915" lon="-2.165787">
        <ele>994.908</ele>
        <time>2021-03-21T08:01:25Z</time>
      </trkpt>
      <trkpt lat="43.180926" lon="-2.165769">
        <ele>994.941</ele>
        <time>2021-03-21T08:01:26Z</time>
      </trkpt>
      <trkpt lat="43.180934" lon="-2.165744">
        <ele>995.024</ele>
        <time>2021-03-21T08:01:28Z</time>
      </trkpt>
      <trkpt lat="43.180943" lon="-2.165723">
        <ele>995.087</ele>
        <time>2021-03-21T08:01:30Z</time>
      </trkpt>
      <trkpt lat="43.180957" lon="-2.165701">
        <ele>995.188</ele>
        <time>2021-03-21T08:01:33Z</time>
      </trkpt>
      <trkpt lat="43.180977" lon="-2.165685">
        <ele>995.185</ele>
        <time>2021-03-21T08:01:36Z</time>
      </trkpt>
      <trkpt lat="43.181001" lon="-2.165697">
        <ele>994.793</ele>
        <time>2021-03-21T08:01:40Z</time>
      </trkpt>
      <trkpt lat="43.181018" lon="-2.165700">
        <ele>994.413</ele>
        <time>2021-03-21T08:01:43Z</time>
      </trkpt>
      <trkpt lat="43.181014" lon="-2.165673">
        <ele>994.853</ele>
        <time>2021-03-21T08:01:52Z</time>
      </trkpt>
      <trkpt lat="43.181006" lon="-2.165650">
        <ele>995.215</ele>
        <time>2021-03-21T08:01:54Z</time>
      </trkpt>
      <trkpt lat="43.181012" lon="-2.165620">
        <ele>995.565</ele>
        <time>2021-03-21T08:01:57Z</time>
      </trkpt>
      <trkpt lat="43.181021" lon="-2.165599">
        <ele>995.711</ele>
        <time>2021-03-21T08:01:59Z</time>
      </trkpt>
      <trkpt lat="43.181032" lon="-2.165577">
        <ele>996.008</ele>
        <time>2021-03-21T08:02:02Z</time>
      </trkpt>
      <trkpt lat="43.181026" lon="-2.165548">
        <ele>996.377</ele>
        <time>2021-03-21T08:02:14Z</time>
      </trkpt>
      <trkpt lat="43.181008" lon="-2.165541">
        <ele>996.460</ele>
        <time>2021-03-21T08:02:19Z</time>
      </trkpt>
      <trkpt lat="43.180990" lon="-2.165542">
        <ele>996.473</ele>
        <time>2021-03-21T08:02:21Z</time>
      </trkpt>
      <trkpt lat="43.180973" lon="-2.165528">
        <ele>996.594</ele>
        <time>2021-03-21T08:02:22Z</time>
      </trkpt>
      <trkpt lat="43.180957" lon="-2.165513">
        <ele>996.561</ele>
        <time>2021-03-21T08:02:24Z</time>
      </trkpt>
      <trkpt lat="43.180950" lon="-2.165485">
        <ele>996.519</ele>
        <time>2021-03-21T08:02:28Z</time>
      </trkpt>
      <trkpt lat="43.180939" lon="-2.165465">
        <ele>996.589</ele>
        <time>2021-03-21T08:02:32Z</time>
      </trkpt>
      <trkpt lat="43.180918" lon="-2.165448">
        <ele>996.529</ele>
        <time>2021-03-21T08:02:35Z</time>
      </trkpt>
      <trkpt lat="43.180902" lon="-2.165410">
        <ele>996.547</ele>
        <time>2021-03-21T08:02:38Z</time>
      </trkpt>
      <trkpt lat="43.180876" lon="-2.165394">
        <ele>996.429</ele>
        <time>2021-03-21T08:02:40Z</time>
      </trkpt>
      <trkpt lat="43.180848" lon="-2.165370">
        <ele>996.421</ele>
        <time>2021-03-21T08:02:41Z</time>
      </trkpt>
      <trkpt lat="43.180826" lon="-2.165351">
        <ele>996.108</ele>
        <time>2021-03-21T08:02:43Z</time>
      </trkpt>
      <trkpt lat="43.180805" lon="-2.165346">
        <ele>995.780</ele>
        <time>2021-03-21T08:02:46Z</time>
      </trkpt>
      <trkpt lat="43.180783" lon="-2.165335">
        <ele>995.363</ele>
        <time>2021-03-21T08:02:48Z</time>
      </trkpt>
      <trkpt lat="43.180756" lon="-2.165317">
        <ele>994.736</ele>
        <time>2021-03-21T08:02:50Z</time>
      </trkpt>
      <trkpt lat="43.180726" lon="-2.165301">
        <ele>994.167</ele>
        <time>2021-03-21T08:02:51Z</time>
      </trkpt>
      <trkpt lat="43.180717" lon="-2.165275">
        <ele>993.914</ele>
        <time>2021-03-21T08:02:52Z</time>
      </trkpt>
      <trkpt lat="43.180704" lon="-2.165253">
        <ele>993.522</ele>
        <time>2021-03-21T08:02:54Z</time>
      </trkpt>
      <trkpt lat="43.180674" lon="-2.165221">
        <ele>992.992</ele>
        <time>2021-03-21T08:02:55Z</time>
      </trkpt>
      <trkpt lat="43.180646" lon="-2.165192">
        <ele>992.462</ele>
        <time>2021-03-21T08:02:57Z</time>
      </trkpt>
      <trkpt lat="43.180630" lon="-2.165181">
        <ele>992.262</ele>
        <time>2021-03-21T08:02:59Z</time>
      </trkpt>
      <trkpt lat="43.180602" lon="-2.165157">
        <ele>991.983</ele>
        <time>2021-03-21T08:03:01Z</time>
      </trkpt>
      <trkpt lat="43.180575" lon="-2.165139">
        <ele>991.711</ele>
        <time>2021-03-21T08:03:03Z</time>
      </trkpt>
      <trkpt lat="43.180549" lon="-2.165123">
        <ele>991.408</ele>
        <time>2021-03-21T08:03:04Z</time>
      </trkpt>
      <trkpt lat="43.180529" lon="-2.165104">
        <ele>990.852</ele>
        <time>2021-03-21T08:03:06Z</time>
      </trkpt>
      <trkpt lat="43.180520" lon="-2.165080">
        <ele>990.565</ele>
        <time>2021-03-21T08:03:09Z</time>
      </trkpt>
      <trkpt lat="43.180503" lon="-2.165070">
        <ele>990.058</ele>
        <time>2021-03-21T08:03:11Z</time>
      </trkpt>
      <trkpt lat="43.180486" lon="-2.165058">
        <ele>989.479</ele>
        <time>2021-03-21T08:03:13Z</time>
      </trkpt>
      <trkpt lat="43.180476" lon="-2.165048">
        <ele>989.146</ele>
        <time>2021-03-21T08:03:15Z</time>
      </trkpt>
      <trkpt lat="43.180462" lon="-2.165026">
        <ele>988.674</ele>
        <time>2021-03-21T08:03:17Z</time>
      </trkpt>
      <trkpt lat="43.180449" lon="-2.165006">
        <ele>988.254</ele>
        <time>2021-03-21T08:03:21Z</time>
      </trkpt>
      <trkpt lat="43.180431" lon="-2.164983">
        <ele>987.354</ele>
        <time>2021-03-21T08:03:27Z</time>
      </trkpt>
      <trkpt lat="43.180410" lon="-2.164971">
        <ele>986.344</ele>
        <time>2021-03-21T08:03:29Z</time>
      </trkpt>
      <trkpt lat="43.180392" lon="-2.164965">
        <ele>985.605</ele>
        <time>2021-03-21T08:03:32Z</time>
      </trkpt>
      <trkpt lat="43.180370" lon="-2.164952">
        <ele>984.615</ele>
        <time>2021-03-21T08:03:36Z</time>
      </trkpt>
      <trkpt lat="43.180345" lon="-2.164954">
        <ele>983.808</ele>
        <time>2021-03-21T08:03:38Z</time>
      </trkpt>
      <trkpt lat="43.180323" lon="-2.164953">
        <ele>983.010</ele>
        <time>2021-03-21T08:03:42Z</time>
      </trkpt>
      <trkpt lat="43.180321" lon="-2.164931">
        <ele>982.623</ele>
        <time>2021-03-21T08:03:44Z</time>
      </trkpt>
      <trkpt lat="43.180312" lon="-2.164904">
        <ele>981.916</ele>
        <time>2021-03-21T08:03:47Z</time>
      </trkpt>
      <trkpt lat="43.180302" lon="-2.164875">
        <ele>981.177</ele>
        <time>2021-03-21T08:03:48Z</time>
      </trkpt>
      <trkpt lat="43.180297" lon="-2.164839">
        <ele>980.494</ele>
        <time>2021-03-21T08:03:50Z</time>
      </trkpt>
      <trkpt lat="43.180281" lon="-2.164816">
        <ele>979.582</ele>
        <time>2021-03-21T08:03:52Z</time>
      </trkpt>
      <trkpt lat="43.180266" lon="-2.164805">
        <ele>978.892</ele>
        <time>2021-03-21T08:03:55Z</time>
      </trkpt>
      <trkpt lat="43.180246" lon="-2.164791">
        <ele>977.882</ele>
        <time>2021-03-21T08:03:57Z</time>
      </trkpt>
      <trkpt lat="43.180231" lon="-2.164770">
        <ele>977.143</ele>
        <time>2021-03-21T08:03:59Z</time>
      </trkpt>
      <trkpt lat="43.180223" lon="-2.164759">
        <ele>976.664</ele>
        <time>2021-03-21T08:04:00Z</time>
      </trkpt>
      <trkpt lat="43.180199" lon="-2.164738">
        <ele>975.610</ele>
        <time>2021-03-21T08:04:02Z</time>
      </trkpt>
      <trkpt lat="43.180169" lon="-2.164747">
        <ele>974.708</ele>
        <time>2021-03-21T08:04:04Z</time>
      </trkpt>
      <trkpt lat="43.180149" lon="-2.164750">
        <ele>974.060</ele>
        <time>2021-03-21T08:04:05Z</time>
      </trkpt>
      <trkpt lat="43.180125" lon="-2.164740">
        <ele>973.283</ele>
        <time>2021-03-21T08:04:06Z</time>
      </trkpt>
      <trkpt lat="43.180107" lon="-2.164730">
        <ele>972.526</ele>
        <time>2021-03-21T08:04:07Z</time>
      </trkpt>
      <trkpt lat="43.180088" lon="-2.164705">
        <ele>971.797</ele>
        <time>2021-03-21T08:04:08Z</time>
      </trkpt>
      <trkpt lat="43.180069" lon="-2.164676">
        <ele>970.974</ele>
        <time>2021-03-21T08:04:09Z</time>
      </trkpt>
      <trkpt lat="43.180054" lon="-2.164647">
        <ele>970.242</ele>
        <time>2021-03-21T08:04:10Z</time>
      </trkpt>
      <trkpt lat="43.180038" lon="-2.164620">
        <ele>969.452</ele>
        <time>2021-03-21T08:04:11Z</time>
      </trkpt>
      <trkpt lat="43.180023" lon="-2.164596">
        <ele>968.872</ele>
        <time>2021-03-21T08:04:12Z</time>
      </trkpt>
      <trkpt lat="43.180006" lon="-2.164575">
        <ele>968.146</ele>
        <time>2021-03-21T08:04:13Z</time>
      </trkpt>
      <trkpt lat="43.179988" lon="-2.164547">
        <ele>967.488</ele>
        <time>2021-03-21T08:04:14Z</time>
      </trkpt>
      <trkpt lat="43.179973" lon="-2.164520">
        <ele>966.916</ele>
        <time>2021-03-21T08:04:15Z</time>
      </trkpt>
      <trkpt lat="43.179959" lon="-2.164496">
        <ele>966.408</ele>
        <time>2021-03-21T08:04:16Z</time>
      </trkpt>
      <trkpt lat="43.179938" lon="-2.164477">
        <ele>965.810</ele>
        <time>2021-03-21T08:04:17Z</time>
      </trkpt>
      <trkpt lat="43.179914" lon="-2.164462">
        <ele>965.243</ele>
        <time>2021-03-21T08:04:18Z</time>
      </trkpt>
      <trkpt lat="43.179895" lon="-2.164452">
        <ele>964.896</ele>
        <time>2021-03-21T08:04:20Z</time>
      </trkpt>
      <trkpt lat="43.179871" lon="-2.164439">
        <ele>964.257</ele>
        <time>2021-03-21T08:04:21Z</time>
      </trkpt>
      <trkpt lat="43.179830" lon="-2.164398">
        <ele>963.354</ele>
        <time>2021-03-21T08:04:22Z</time>
      </trkpt>
      <trkpt lat="43.179779" lon="-2.164355">
        <ele>962.242</ele>
        <time>2021-03-21T08:04:24Z</time>
      </trkpt>
      <trkpt lat="43.179733" lon="-2.164318">
        <ele>961.292</ele>
        <time>2021-03-21T08:04:26Z</time>
      </trkpt>
      <trkpt lat="43.179707" lon="-2.164296">
        <ele>960.662</ele>
        <time>2021-03-21T08:04:27Z</time>
      </trkpt>
      <trkpt lat="43.179659" lon="-2.164255">
        <ele>959.253</ele>
        <time>2021-03-21T08:04:29Z</time>
      </trkpt>
      <trkpt lat="43.179636" lon="-2.164233">
        <ele>958.504</ele>
        <time>2021-03-21T08:04:30Z</time>
      </trkpt>
      <trkpt lat="43.179612" lon="-2.164209">
        <ele>957.814</ele>
        <time>2021-03-21T08:04:31Z</time>
      </trkpt>
      <trkpt lat="43.179589" lon="-2.164186">
        <ele>957.208</ele>
        <time>2021-03-21T08:04:32Z</time>
      </trkpt>
      <trkpt lat="43.179564" lon="-2.164165">
        <ele>956.461</ele>
        <time>2021-03-21T08:04:33Z</time>
      </trkpt>
      <trkpt lat="43.179511" lon="-2.164141">
        <ele>954.814</ele>
        <time>2021-03-21T08:04:35Z</time>
      </trkpt>
      <trkpt lat="43.179463" lon="-2.164136">
        <ele>953.497</ele>
        <time>2021-03-21T08:04:37Z</time>
      </trkpt>
      <trkpt lat="43.179444" lon="-2.164140">
        <ele>952.988</ele>
        <time>2021-03-21T08:04:38Z</time>
      </trkpt>
      <trkpt lat="43.179408" lon="-2.164130">
        <ele>951.775</ele>
        <time>2021-03-21T08:04:40Z</time>
      </trkpt>
      <trkpt lat="43.179392" lon="-2.164108">
        <ele>951.043</ele>
        <time>2021-03-21T08:04:41Z</time>
      </trkpt>
      <trkpt lat="43.179381" lon="-2.164091">
        <ele>950.643</ele>
        <time>2021-03-21T08:04:42Z</time>
      </trkpt>
      <trkpt lat="43.179365" lon="-2.164057">
        <ele>949.923</ele>
        <time>2021-03-21T08:04:44Z</time>
      </trkpt>
      <trkpt lat="43.179348" lon="-2.164022">
        <ele>949.293</ele>
        <time>2021-03-21T08:04:46Z</time>
      </trkpt>
      <trkpt lat="43.179327" lon="-2.163988">
        <ele>948.365</ele>
        <time>2021-03-21T08:04:48Z</time>
      </trkpt>
      <trkpt lat="43.179309" lon="-2.163953">
        <ele>947.521</ele>
        <time>2021-03-21T08:04:50Z</time>
      </trkpt>
      <trkpt lat="43.179294" lon="-2.163930">
        <ele>946.808</ele>
        <time>2021-03-21T08:04:51Z</time>
      </trkpt>
      <trkpt lat="43.179275" lon="-2.163903">
        <ele>946.035</ele>
        <time>2021-03-21T08:04:52Z</time>
      </trkpt>
      <trkpt lat="43.179247" lon="-2.163858">
        <ele>944.658</ele>
        <time>2021-03-21T08:04:54Z</time>
      </trkpt>
      <trkpt lat="43.179234" lon="-2.163841">
        <ele>944.061</ele>
        <time>2021-03-21T08:04:55Z</time>
      </trkpt>
      <trkpt lat="43.179212" lon="-2.163821">
        <ele>943.192</ele>
        <time>2021-03-21T08:04:56Z</time>
      </trkpt>
      <trkpt lat="43.179196" lon="-2.163801">
        <ele>942.489</ele>
        <time>2021-03-21T08:04:57Z</time>
      </trkpt>
      <trkpt lat="43.179166" lon="-2.163757">
        <ele>941.047</ele>
        <time>2021-03-21T08:04:59Z</time>
      </trkpt>
      <trkpt lat="43.179154" lon="-2.163732">
        <ele>940.537</ele>
        <time>2021-03-21T08:05:00Z</time>
      </trkpt>
      <trkpt lat="43.179133" lon="-2.163714">
        <ele>939.767</ele>
        <time>2021-03-21T08:05:01Z</time>
      </trkpt>
      <trkpt lat="43.179111" lon="-2.163701">
        <ele>938.939</ele>
        <time>2021-03-21T08:05:02Z</time>
      </trkpt>
      <trkpt lat="43.179086" lon="-2.163686">
        <ele>938.101</ele>
        <time>2021-03-21T08:05:03Z</time>
      </trkpt>
      <trkpt lat="43.179058" lon="-2.163672">
        <ele>937.121</ele>
        <time>2021-03-21T08:05:04Z</time>
      </trkpt>
      <trkpt lat="43.179032" lon="-2.163659">
        <ele>936.308</ele>
        <time>2021-03-21T08:05:05Z</time>
      </trkpt>
      <trkpt lat="43.179005" lon="-2.163643">
        <ele>935.449</ele>
        <time>2021-03-21T08:05:06Z</time>
      </trkpt>
      <trkpt lat="43.178978" lon="-2.163625">
        <ele>934.632</ele>
        <time>2021-03-21T08:05:07Z</time>
      </trkpt>
      <trkpt lat="43.178951" lon="-2.163601">
        <ele>933.745</ele>
        <time>2021-03-21T08:05:08Z</time>
      </trkpt>
      <trkpt lat="43.178927" lon="-2.163574">
        <ele>932.916</ele>
        <time>2021-03-21T08:05:09Z</time>
      </trkpt>
      <trkpt lat="43.178905" lon="-2.163547">
        <ele>932.283</ele>
        <time>2021-03-21T08:05:10Z</time>
      </trkpt>
      <trkpt lat="43.178884" lon="-2.163520">
        <ele>931.611</ele>
        <time>2021-03-21T08:05:12Z</time>
      </trkpt>
      <trkpt lat="43.178865" lon="-2.163496">
        <ele>931.051</ele>
        <time>2021-03-21T08:05:13Z</time>
      </trkpt>
      <trkpt lat="43.178821" lon="-2.163437">
        <ele>929.831</ele>
        <time>2021-03-21T08:05:14Z</time>
      </trkpt>
      <trkpt lat="43.178797" lon="-2.163416">
        <ele>929.217</ele>
        <time>2021-03-21T08:05:15Z</time>
      </trkpt>
      <trkpt lat="43.178742" lon="-2.163385">
        <ele>927.987</ele>
        <time>2021-03-21T08:05:17Z</time>
      </trkpt>
      <trkpt lat="43.178713" lon="-2.163365">
        <ele>927.215</ele>
        <time>2021-03-21T08:05:18Z</time>
      </trkpt>
      <trkpt lat="43.178688" lon="-2.163337">
        <ele>926.708</ele>
        <time>2021-03-21T08:05:19Z</time>
      </trkpt>
      <trkpt lat="43.178668" lon="-2.163307">
        <ele>926.127</ele>
        <time>2021-03-21T08:05:20Z</time>
      </trkpt>
      <trkpt lat="43.178645" lon="-2.163246">
        <ele>925.480</ele>
        <time>2021-03-21T08:05:22Z</time>
      </trkpt>
      <trkpt lat="43.178635" lon="-2.163214">
        <ele>925.173</ele>
        <time>2021-03-21T08:05:23Z</time>
      </trkpt>
      <trkpt lat="43.178615" lon="-2.163185">
        <ele>924.564</ele>
        <time>2021-03-21T08:05:24Z</time>
      </trkpt>
      <trkpt lat="43.178589" lon="-2.163166">
        <ele>923.791</ele>
        <time>2021-03-21T08:05:25Z</time>
      </trkpt>
      <trkpt lat="43.178539" lon="-2.163130">
        <ele>921.919</ele>
        <time>2021-03-21T08:05:27Z</time>
      </trkpt>
      <trkpt lat="43.178518" lon="-2.163108">
        <ele>921.289</ele>
        <time>2021-03-21T08:05:29Z</time>
      </trkpt>
      <trkpt lat="43.178478" lon="-2.163077">
        <ele>919.899</ele>
        <time>2021-03-21T08:05:30Z</time>
      </trkpt>
      <trkpt lat="43.178459" lon="-2.163063">
        <ele>919.115</ele>
        <time>2021-03-21T08:05:32Z</time>
      </trkpt>
      <trkpt lat="43.178411" lon="-2.163016">
        <ele>917.365</ele>
        <time>2021-03-21T08:05:33Z</time>
      </trkpt>
      <trkpt lat="43.178384" lon="-2.162985">
        <ele>916.311</ele>
        <time>2021-03-21T08:05:34Z</time>
      </trkpt>
      <trkpt lat="43.178341" lon="-2.162929">
        <ele>914.808</ele>
        <time>2021-03-21T08:05:36Z</time>
      </trkpt>
      <trkpt lat="43.178323" lon="-2.162906">
        <ele>914.147</ele>
        <time>2021-03-21T08:05:38Z</time>
      </trkpt>
      <trkpt lat="43.178304" lon="-2.162883">
        <ele>913.570</ele>
        <time>2021-03-21T08:05:39Z</time>
      </trkpt>
      <trkpt lat="43.178284" lon="-2.162858">
        <ele>912.873</ele>
        <time>2021-03-21T08:05:40Z</time>
      </trkpt>
      <trkpt lat="43.178273" lon="-2.162832">
        <ele>912.484</ele>
        <time>2021-03-21T08:05:41Z</time>
      </trkpt>
      <trkpt lat="43.178249" lon="-2.162766">
        <ele>911.571</ele>
        <time>2021-03-21T08:05:42Z</time>
      </trkpt>
      <trkpt lat="43.178232" lon="-2.162731">
        <ele>910.899</ele>
        <time>2021-03-21T08:05:43Z</time>
      </trkpt>
      <trkpt lat="43.178210" lon="-2.162695">
        <ele>910.039</ele>
        <time>2021-03-21T08:05:44Z</time>
      </trkpt>
      <trkpt lat="43.178190" lon="-2.162668">
        <ele>909.359</ele>
        <time>2021-03-21T08:05:45Z</time>
      </trkpt>
      <trkpt lat="43.178173" lon="-2.162639">
        <ele>908.741</ele>
        <time>2021-03-21T08:05:46Z</time>
      </trkpt>
      <trkpt lat="43.178156" lon="-2.162618">
        <ele>908.181</ele>
        <time>2021-03-21T08:05:48Z</time>
      </trkpt>
      <trkpt lat="43.178098" lon="-2.162573">
        <ele>906.409</ele>
        <time>2021-03-21T08:05:49Z</time>
      </trkpt>
      <trkpt lat="43.178080" lon="-2.162541">
        <ele>905.808</ele>
        <time>2021-03-21T08:05:50Z</time>
      </trkpt>
      <trkpt lat="43.178064" lon="-2.162503">
        <ele>905.270</ele>
        <time>2021-03-21T08:05:51Z</time>
      </trkpt>
      <trkpt lat="43.178050" lon="-2.162466">
        <ele>904.693</ele>
        <time>2021-03-21T08:05:52Z</time>
      </trkpt>
      <trkpt lat="43.177987" lon="-2.162394">
        <ele>902.536</ele>
        <time>2021-03-21T08:05:55Z</time>
      </trkpt>
      <trkpt lat="43.177929" lon="-2.162298">
        <ele>900.447</ele>
        <time>2021-03-21T08:06:01Z</time>
      </trkpt>
      <trkpt lat="43.177835" lon="-2.162335">
        <ele>898.344</ele>
        <time>2021-03-21T08:06:04Z</time>
      </trkpt>
      <trkpt lat="43.177793" lon="-2.162298">
        <ele>896.962</ele>
        <time>2021-03-21T08:06:07Z</time>
      </trkpt>
      <trkpt lat="43.177789" lon="-2.162275">
        <ele>896.792</ele>
        <time>2021-03-21T08:06:10Z</time>
      </trkpt>
      <trkpt lat="43.177778" lon="-2.162249">
        <ele>896.292</ele>
        <time>2021-03-21T08:06:11Z</time>
      </trkpt>
      <trkpt lat="43.177752" lon="-2.162207">
        <ele>895.192</ele>
        <time>2021-03-21T08:06:13Z</time>
      </trkpt>
      <trkpt lat="43.177711" lon="-2.162158">
        <ele>893.473</ele>
        <time>2021-03-21T08:06:15Z</time>
      </trkpt>
      <trkpt lat="43.177645" lon="-2.162141">
        <ele>891.620</ele>
        <time>2021-03-21T08:06:17Z</time>
      </trkpt>
      <trkpt lat="43.177612" lon="-2.162139">
        <ele>890.708</ele>
        <time>2021-03-21T08:06:18Z</time>
      </trkpt>
      <trkpt lat="43.177576" lon="-2.162128">
        <ele>889.895</ele>
        <time>2021-03-21T08:06:19Z</time>
      </trkpt>
      <trkpt lat="43.177541" lon="-2.162131">
        <ele>889.048</ele>
        <time>2021-03-21T08:06:20Z</time>
      </trkpt>
      <trkpt lat="43.177503" lon="-2.162125">
        <ele>888.121</ele>
        <time>2021-03-21T08:06:22Z</time>
      </trkpt>
      <trkpt lat="43.177431" lon="-2.162120">
        <ele>886.712</ele>
        <time>2021-03-21T08:06:23Z</time>
      </trkpt>
      <trkpt lat="43.177398" lon="-2.162120">
        <ele>886.089</ele>
        <time>2021-03-21T08:06:24Z</time>
      </trkpt>
      <trkpt lat="43.177377" lon="-2.162101">
        <ele>885.657</ele>
        <time>2021-03-21T08:06:25Z</time>
      </trkpt>
      <trkpt lat="43.177353" lon="-2.162085">
        <ele>885.137</ele>
        <time>2021-03-21T08:06:26Z</time>
      </trkpt>
      <trkpt lat="43.177324" lon="-2.162071">
        <ele>884.527</ele>
        <time>2021-03-21T08:06:27Z</time>
      </trkpt>
      <trkpt lat="43.177266" lon="-2.162049">
        <ele>883.352</ele>
        <time>2021-03-21T08:06:29Z</time>
      </trkpt>
      <trkpt lat="43.177232" lon="-2.162044">
        <ele>882.653</ele>
        <time>2021-03-21T08:06:30Z</time>
      </trkpt>
      <trkpt lat="43.177207" lon="-2.162036">
        <ele>881.908</ele>
        <time>2021-03-21T08:06:31Z</time>
      </trkpt>
      <trkpt lat="43.177186" lon="-2.162026">
        <ele>881.208</ele>
        <time>2021-03-21T08:06:32Z</time>
      </trkpt>
      <trkpt lat="43.177166" lon="-2.162004">
        <ele>880.441</ele>
        <time>2021-03-21T08:06:33Z</time>
      </trkpt>
      <trkpt lat="43.177078" lon="-2.161939">
        <ele>877.394</ele>
        <time>2021-03-21T08:06:37Z</time>
      </trkpt>
      <trkpt lat="43.177055" lon="-2.161921">
        <ele>876.397</ele>
        <time>2021-03-21T08:06:38Z</time>
      </trkpt>
      <trkpt lat="43.177017" lon="-2.161920">
        <ele>875.158</ele>
        <time>2021-03-21T08:06:39Z</time>
      </trkpt>
      <trkpt lat="43.176991" lon="-2.161928">
        <ele>874.335</ele>
        <time>2021-03-21T08:06:40Z</time>
      </trkpt>
      <trkpt lat="43.176937" lon="-2.161938">
        <ele>872.783</ele>
        <time>2021-03-21T08:06:42Z</time>
      </trkpt>
      <trkpt lat="43.176906" lon="-2.161940">
        <ele>871.893</ele>
        <time>2021-03-21T08:06:43Z</time>
      </trkpt>
      <trkpt lat="43.176852" lon="-2.161928">
        <ele>870.213</ele>
        <time>2021-03-21T08:06:45Z</time>
      </trkpt>
      <trkpt lat="43.176831" lon="-2.161912">
        <ele>869.484</ele>
        <time>2021-03-21T08:06:47Z</time>
      </trkpt>
      <trkpt lat="43.176811" lon="-2.161900">
        <ele>868.807</ele>
        <time>2021-03-21T08:06:48Z</time>
      </trkpt>
      <trkpt lat="43.176761" lon="-2.161895">
        <ele>867.317</ele>
        <time>2021-03-21T08:06:49Z</time>
      </trkpt>
      <trkpt lat="43.176737" lon="-2.161894">
        <ele>866.608</ele>
        <time>2021-03-21T08:06:50Z</time>
      </trkpt>
      <trkpt lat="43.176715" lon="-2.161888">
        <ele>866.044</ele>
        <time>2021-03-21T08:06:51Z</time>
      </trkpt>
      <trkpt lat="43.176695" lon="-2.161885">
        <ele>865.447</ele>
        <time>2021-03-21T08:06:52Z</time>
      </trkpt>
      <trkpt lat="43.176645" lon="-2.161897">
        <ele>864.140</ele>
        <time>2021-03-21T08:06:54Z</time>
      </trkpt>
      <trkpt lat="43.176590" lon="-2.161926">
        <ele>863.041</ele>
        <time>2021-03-21T08:06:56Z</time>
      </trkpt>
      <trkpt lat="43.176574" lon="-2.161927">
        <ele>862.658</ele>
        <time>2021-03-21T08:06:57Z</time>
      </trkpt>
      <trkpt lat="43.176542" lon="-2.161887">
        <ele>861.576</ele>
        <time>2021-03-21T08:06:59Z</time>
      </trkpt>
      <trkpt lat="43.176529" lon="-2.161857">
        <ele>861.196</ele>
        <time>2021-03-21T08:07:00Z</time>
      </trkpt>
      <trkpt lat="43.176512" lon="-2.161824">
        <ele>860.526</ele>
        <time>2021-03-21T08:07:01Z</time>
      </trkpt>
      <trkpt lat="43.176498" lon="-2.161793">
        <ele>860.019</ele>
        <time>2021-03-21T08:07:02Z</time>
      </trkpt>
      <trkpt lat="43.176482" lon="-2.161766">
        <ele>859.509</ele>
        <time>2021-03-21T08:07:03Z</time>
      </trkpt>
      <trkpt lat="43.176459" lon="-2.161741">
        <ele>858.919</ele>
        <time>2021-03-21T08:07:04Z</time>
      </trkpt>
      <trkpt lat="43.176435" lon="-2.161720">
        <ele>858.208</ele>
        <time>2021-03-21T08:07:06Z</time>
      </trkpt>
      <trkpt lat="43.176387" lon="-2.161676">
        <ele>857.087</ele>
        <time>2021-03-21T08:07:07Z</time>
      </trkpt>
      <trkpt lat="43.176369" lon="-2.161649">
        <ele>856.590</ele>
        <time>2021-03-21T08:07:08Z</time>
      </trkpt>
      <trkpt lat="43.176350" lon="-2.161627">
        <ele>856.183</ele>
        <time>2021-03-21T08:07:09Z</time>
      </trkpt>
      <trkpt lat="43.176333" lon="-2.161608">
        <ele>855.754</ele>
        <time>2021-03-21T08:07:11Z</time>
      </trkpt>
      <trkpt lat="43.176287" lon="-2.161556">
        <ele>854.751</ele>
        <time>2021-03-21T08:07:12Z</time>
      </trkpt>
      <trkpt lat="43.176260" lon="-2.161535">
        <ele>854.239</ele>
        <time>2021-03-21T08:07:14Z</time>
      </trkpt>
      <trkpt lat="43.176234" lon="-2.161517">
        <ele>853.779</ele>
        <time>2021-03-21T08:07:15Z</time>
      </trkpt>
      <trkpt lat="43.176206" lon="-2.161499">
        <ele>853.379</ele>
        <time>2021-03-21T08:07:16Z</time>
      </trkpt>
      <trkpt lat="43.176156" lon="-2.161465">
        <ele>852.662</ele>
        <time>2021-03-21T08:07:17Z</time>
      </trkpt>
      <trkpt lat="43.176138" lon="-2.161456">
        <ele>852.383</ele>
        <time>2021-03-21T08:07:18Z</time>
      </trkpt>
      <trkpt lat="43.176113" lon="-2.161423">
        <ele>852.011</ele>
        <time>2021-03-21T08:07:20Z</time>
      </trkpt>
      <trkpt lat="43.176106" lon="-2.161397">
        <ele>852.008</ele>
        <time>2021-03-21T08:07:22Z</time>
      </trkpt>
      <trkpt lat="43.176038" lon="-2.161243">
        <ele>851.972</ele>
        <time>2021-03-21T08:07:26Z</time>
      </trkpt>
      <trkpt lat="43.175985" lon="-2.161132">
        <ele>852.335</ele>
        <time>2021-03-21T08:07:31Z</time>
      </trkpt>
      <trkpt lat="43.175958" lon="-2.161046">
        <ele>852.788</ele>
        <time>2021-03-21T08:07:33Z</time>
      </trkpt>
      <trkpt lat="43.175935" lon="-2.160993">
        <ele>853.039</ele>
        <time>2021-03-21T08:07:36Z</time>
      </trkpt>
      <trkpt lat="43.175897" lon="-2.160942">
        <ele>853.626</ele>
        <time>2021-03-21T08:07:37Z</time>
      </trkpt>
      <trkpt lat="43.175880" lon="-2.160894">
        <ele>854.054</ele>
        <time>2021-03-21T08:07:39Z</time>
      </trkpt>
      <trkpt lat="43.175872" lon="-2.160868">
        <ele>854.274</ele>
        <time>2021-03-21T08:07:41Z</time>
      </trkpt>
      <trkpt lat="43.175863" lon="-2.160843">
        <ele>854.464</ele>
        <time>2021-03-21T08:07:42Z</time>
      </trkpt>
      <trkpt lat="43.175850" lon="-2.160817">
        <ele>854.648</ele>
        <time>2021-03-21T08:07:43Z</time>
      </trkpt>
      <trkpt lat="43.175841" lon="-2.160792">
        <ele>854.761</ele>
        <time>2021-03-21T08:07:44Z</time>
      </trkpt>
      <trkpt lat="43.175822" lon="-2.160737">
        <ele>854.917</ele>
        <time>2021-03-21T08:07:45Z</time>
      </trkpt>
      <trkpt lat="43.175797" lon="-2.160688">
        <ele>855.108</ele>
        <time>2021-03-21T08:07:47Z</time>
      </trkpt>
      <trkpt lat="43.175784" lon="-2.160661">
        <ele>855.370</ele>
        <time>2021-03-21T08:07:48Z</time>
      </trkpt>
      <trkpt lat="43.175761" lon="-2.160602">
        <ele>855.553</ele>
        <time>2021-03-21T08:07:50Z</time>
      </trkpt>
      <trkpt lat="43.175732" lon="-2.160543">
        <ele>855.786</ele>
        <time>2021-03-21T08:07:52Z</time>
      </trkpt>
      <trkpt lat="43.175718" lon="-2.160515">
        <ele>855.617</ele>
        <time>2021-03-21T08:07:54Z</time>
      </trkpt>
      <trkpt lat="43.175687" lon="-2.160450">
        <ele>855.314</ele>
        <time>2021-03-21T08:07:55Z</time>
      </trkpt>
      <trkpt lat="43.175655" lon="-2.160410">
        <ele>855.592</ele>
        <time>2021-03-21T08:07:58Z</time>
      </trkpt>
      <trkpt lat="43.175627" lon="-2.160384">
        <ele>855.792</ele>
        <time>2021-03-21T08:08:00Z</time>
      </trkpt>
      <trkpt lat="43.175610" lon="-2.160364">
        <ele>855.852</ele>
        <time>2021-03-21T08:08:01Z</time>
      </trkpt>
      <trkpt lat="43.175577" lon="-2.160329">
        <ele>856.123</ele>
        <time>2021-03-21T08:08:02Z</time>
      </trkpt>
      <trkpt lat="43.175506" lon="-2.160239">
        <ele>855.983</ele>
        <time>2021-03-21T08:08:06Z</time>
      </trkpt>
      <trkpt lat="43.175433" lon="-2.160139">
        <ele>855.411</ele>
        <time>2021-03-21T08:08:10Z</time>
      </trkpt>
      <trkpt lat="43.175402" lon="-2.160078">
        <ele>854.908</ele>
        <time>2021-03-21T08:08:12Z</time>
      </trkpt>
      <trkpt lat="43.175355" lon="-2.159971">
        <ele>854.138</ele>
        <time>2021-03-21T08:08:16Z</time>
      </trkpt>
      <trkpt lat="43.175335" lon="-2.159946">
        <ele>853.951</ele>
        <time>2021-03-21T08:08:18Z</time>
      </trkpt>
      <trkpt lat="43.175286" lon="-2.159904">
        <ele>853.924</ele>
        <time>2021-03-21T08:08:19Z</time>
      </trkpt>
      <trkpt lat="43.175234" lon="-2.159869">
        <ele>853.055</ele>
        <time>2021-03-21T08:08:21Z</time>
      </trkpt>
      <trkpt lat="43.175207" lon="-2.159856">
        <ele>852.632</ele>
        <time>2021-03-21T08:08:23Z</time>
      </trkpt>
      <trkpt lat="43.175182" lon="-2.159847">
        <ele>852.260</ele>
        <time>2021-03-21T08:08:24Z</time>
      </trkpt>
      <trkpt lat="43.175161" lon="-2.159840">
        <ele>851.890</ele>
        <time>2021-03-21T08:08:25Z</time>
      </trkpt>
      <trkpt lat="43.175135" lon="-2.159833">
        <ele>851.420</ele>
        <time>2021-03-21T08:08:26Z</time>
      </trkpt>
      <trkpt lat="43.175113" lon="-2.159827">
        <ele>851.146</ele>
        <time>2021-03-21T08:08:27Z</time>
      </trkpt>
      <trkpt lat="43.175091" lon="-2.159825">
        <ele>850.888</ele>
        <time>2021-03-21T08:08:28Z</time>
      </trkpt>
      <trkpt lat="43.175062" lon="-2.159813">
        <ele>850.416</ele>
        <time>2021-03-21T08:08:29Z</time>
      </trkpt>
      <trkpt lat="43.175033" lon="-2.159797">
        <ele>849.908</ele>
        <time>2021-03-21T08:08:32Z</time>
      </trkpt>
      <trkpt lat="43.174984" lon="-2.159777">
        <ele>849.280</ele>
        <time>2021-03-21T08:08:34Z</time>
      </trkpt>
      <trkpt lat="43.174966" lon="-2.159769">
        <ele>848.923</ele>
        <time>2021-03-21T08:08:36Z</time>
      </trkpt>
      <trkpt lat="43.174950" lon="-2.159762">
        <ele>848.796</ele>
        <time>2021-03-21T08:08:37Z</time>
      </trkpt>
      <trkpt lat="43.174904" lon="-2.159731">
        <ele>848.027</ele>
        <time>2021-03-21T08:08:39Z</time>
      </trkpt>
      <trkpt lat="43.174860" lon="-2.159707">
        <ele>847.474</ele>
        <time>2021-03-21T08:08:43Z</time>
      </trkpt>
      <trkpt lat="43.174837" lon="-2.159691">
        <ele>847.172</ele>
        <time>2021-03-21T08:08:45Z</time>
      </trkpt>
      <trkpt lat="43.174822" lon="-2.159674">
        <ele>847.072</ele>
        <time>2021-03-21T08:08:47Z</time>
      </trkpt>
      <trkpt lat="43.174800" lon="-2.159650">
        <ele>846.722</ele>
        <time>2021-03-21T08:08:49Z</time>
      </trkpt>
      <trkpt lat="43.174784" lon="-2.159628">
        <ele>846.548</ele>
        <time>2021-03-21T08:08:50Z</time>
      </trkpt>
      <trkpt lat="43.174771" lon="-2.159603">
        <ele>846.461</ele>
        <time>2021-03-21T08:08:53Z</time>
      </trkpt>
      <trkpt lat="43.174750" lon="-2.159578">
        <ele>846.217</ele>
        <time>2021-03-21T08:08:54Z</time>
      </trkpt>
      <trkpt lat="43.174734" lon="-2.159562">
        <ele>846.108</ele>
        <time>2021-03-21T08:08:56Z</time>
      </trkpt>
      <trkpt lat="43.174718" lon="-2.159547">
        <ele>846.030</ele>
        <time>2021-03-21T08:08:59Z</time>
      </trkpt>
      <trkpt lat="43.174699" lon="-2.159525">
        <ele>846.053</ele>
        <time>2021-03-21T08:09:01Z</time>
      </trkpt>
      <trkpt lat="43.174673" lon="-2.159505">
        <ele>846.066</ele>
        <time>2021-03-21T08:09:03Z</time>
      </trkpt>
      <trkpt lat="43.174655" lon="-2.159490">
        <ele>846.137</ele>
        <time>2021-03-21T08:09:06Z</time>
      </trkpt>
      <trkpt lat="43.174632" lon="-2.159469">
        <ele>846.224</ele>
        <time>2021-03-21T08:09:08Z</time>
      </trkpt>
      <trkpt lat="43.174616" lon="-2.159452">
        <ele>846.392</ele>
        <time>2021-03-21T08:09:10Z</time>
      </trkpt>
      <trkpt lat="43.174597" lon="-2.159442">
        <ele>846.532</ele>
        <time>2021-03-21T08:09:11Z</time>
      </trkpt>
      <trkpt lat="43.174574" lon="-2.159441">
        <ele>846.662</ele>
        <time>2021-03-21T08:09:14Z</time>
      </trkpt>
      <trkpt lat="43.174551" lon="-2.159444">
        <ele>846.699</ele>
        <time>2021-03-21T08:09:16Z</time>
      </trkpt>
      <trkpt lat="43.174530" lon="-2.159440">
        <ele>846.807</ele>
        <time>2021-03-21T08:09:18Z</time>
      </trkpt>
      <trkpt lat="43.174503" lon="-2.159445">
        <ele>846.827</ele>
        <time>2021-03-21T08:09:19Z</time>
      </trkpt>
      <trkpt lat="43.174487" lon="-2.159447">
        <ele>846.808</ele>
        <time>2021-03-21T08:09:20Z</time>
      </trkpt>
      <trkpt lat="43.174455" lon="-2.159452">
        <ele>846.985</ele>
        <time>2021-03-21T08:09:22Z</time>
      </trkpt>
      <trkpt lat="43.174430" lon="-2.159458">
        <ele>847.168</ele>
        <time>2021-03-21T08:09:25Z</time>
      </trkpt>
      <trkpt lat="43.174407" lon="-2.159453">
        <ele>847.511</ele>
        <time>2021-03-21T08:09:26Z</time>
      </trkpt>
      <trkpt lat="43.174383" lon="-2.159451">
        <ele>848.072</ele>
        <time>2021-03-21T08:09:28Z</time>
      </trkpt>
      <trkpt lat="43.174358" lon="-2.159453">
        <ele>848.449</ele>
        <time>2021-03-21T08:09:30Z</time>
      </trkpt>
      <trkpt lat="43.174335" lon="-2.159455">
        <ele>848.847</ele>
        <time>2021-03-21T08:09:33Z</time>
      </trkpt>
      <trkpt lat="43.174313" lon="-2.159455">
        <ele>849.247</ele>
        <time>2021-03-21T08:09:34Z</time>
      </trkpt>
      <trkpt lat="43.174287" lon="-2.159457">
        <ele>849.657</ele>
        <time>2021-03-21T08:09:36Z</time>
      </trkpt>
      <trkpt lat="43.174247" lon="-2.159457">
        <ele>850.387</ele>
        <time>2021-03-21T08:09:40Z</time>
      </trkpt>
      <trkpt lat="43.174223" lon="-2.159463">
        <ele>850.642</ele>
        <time>2021-03-21T08:09:42Z</time>
      </trkpt>
      <trkpt lat="43.174195" lon="-2.159470">
        <ele>850.926</ele>
        <time>2021-03-21T08:09:43Z</time>
      </trkpt>
      <trkpt lat="43.174167" lon="-2.159477">
        <ele>851.208</ele>
        <time>2021-03-21T08:09:45Z</time>
      </trkpt>
      <trkpt lat="43.174143" lon="-2.159479">
        <ele>851.954</ele>
        <time>2021-03-21T08:09:47Z</time>
      </trkpt>
      <trkpt lat="43.174118" lon="-2.159484">
        <ele>852.527</ele>
        <time>2021-03-21T08:09:50Z</time>
      </trkpt>
      <trkpt lat="43.174092" lon="-2.159493">
        <ele>853.110</ele>
        <time>2021-03-21T08:09:52Z</time>
      </trkpt>
      <trkpt lat="43.174071" lon="-2.159499">
        <ele>853.511</ele>
        <time>2021-03-21T08:09:54Z</time>
      </trkpt>
      <trkpt lat="43.174042" lon="-2.159493">
        <ele>854.688</ele>
        <time>2021-03-21T08:09:56Z</time>
      </trkpt>
      <trkpt lat="43.174023" lon="-2.159491">
        <ele>855.296</ele>
        <time>2021-03-21T08:09:58Z</time>
      </trkpt>
      <trkpt lat="43.173996" lon="-2.159491">
        <ele>856.026</ele>
        <time>2021-03-21T08:10:01Z</time>
      </trkpt>
      <trkpt lat="43.173973" lon="-2.159492">
        <ele>856.766</ele>
        <time>2021-03-21T08:10:03Z</time>
      </trkpt>
      <trkpt lat="43.173949" lon="-2.159496">
        <ele>857.388</ele>
        <time>2021-03-21T08:10:04Z</time>
      </trkpt>
      <trkpt lat="43.173927" lon="-2.159509">
        <ele>857.524</ele>
        <time>2021-03-21T08:10:07Z</time>
      </trkpt>
      <trkpt lat="43.173907" lon="-2.159517">
        <ele>857.926</ele>
        <time>2021-03-21T08:10:09Z</time>
      </trkpt>
      <trkpt lat="43.173885" lon="-2.159521">
        <ele>858.308</ele>
        <time>2021-03-21T08:10:11Z</time>
      </trkpt>
      <trkpt lat="43.173863" lon="-2.159523">
        <ele>858.754</ele>
        <time>2021-03-21T08:10:13Z</time>
      </trkpt>
      <trkpt lat="43.173845" lon="-2.159533">
        <ele>858.727</ele>
        <time>2021-03-21T08:10:17Z</time>
      </trkpt>
      <trkpt lat="43.173822" lon="-2.159549">
        <ele>858.640</ele>
        <time>2021-03-21T08:10:20Z</time>
      </trkpt>
      <trkpt lat="43.173801" lon="-2.159563">
        <ele>858.611</ele>
        <time>2021-03-21T08:10:22Z</time>
      </trkpt>
      <trkpt lat="43.173776" lon="-2.159573">
        <ele>858.828</ele>
        <time>2021-03-21T08:10:24Z</time>
      </trkpt>
      <trkpt lat="43.173756" lon="-2.159579">
        <ele>859.016</ele>
        <time>2021-03-21T08:10:25Z</time>
      </trkpt>
      <trkpt lat="43.173729" lon="-2.159587">
        <ele>859.356</ele>
        <time>2021-03-21T08:10:28Z</time>
      </trkpt>
      <trkpt lat="43.173703" lon="-2.159589">
        <ele>859.866</ele>
        <time>2021-03-21T08:10:30Z</time>
      </trkpt>
      <trkpt lat="43.173673" lon="-2.159585">
        <ele>860.644</ele>
        <time>2021-03-21T08:10:31Z</time>
      </trkpt>
      <trkpt lat="43.173641" lon="-2.159573">
        <ele>861.705</ele>
        <time>2021-03-21T08:10:34Z</time>
      </trkpt>
      <trkpt lat="43.173615" lon="-2.159562">
        <ele>862.515</ele>
        <time>2021-03-21T08:10:35Z</time>
      </trkpt>
      <trkpt lat="43.173564" lon="-2.159552">
        <ele>862.808</ele>
        <time>2021-03-21T08:10:38Z</time>
      </trkpt>
      <trkpt lat="43.173534" lon="-2.159545">
        <ele>862.940</ele>
        <time>2021-03-21T08:10:41Z</time>
      </trkpt>
      <trkpt lat="43.173501" lon="-2.159537">
        <ele>863.123</ele>
        <time>2021-03-21T08:10:43Z</time>
      </trkpt>
      <trkpt lat="43.173471" lon="-2.159527">
        <ele>863.346</ele>
        <time>2021-03-21T08:10:44Z</time>
      </trkpt>
      <trkpt lat="43.173442" lon="-2.159523">
        <ele>863.317</ele>
        <time>2021-03-21T08:10:46Z</time>
      </trkpt>
      <trkpt lat="43.173412" lon="-2.159515">
        <ele>863.434</ele>
        <time>2021-03-21T08:10:49Z</time>
      </trkpt>
      <trkpt lat="43.173382" lon="-2.159502">
        <ele>863.712</ele>
        <time>2021-03-21T08:10:50Z</time>
      </trkpt>
      <trkpt lat="43.173365" lon="-2.159494">
        <ele>863.882</ele>
        <time>2021-03-21T08:10:52Z</time>
      </trkpt>
      <trkpt lat="43.173334" lon="-2.159477">
        <ele>864.252</ele>
        <time>2021-03-21T08:10:53Z</time>
      </trkpt>
      <trkpt lat="43.173310" lon="-2.159455">
        <ele>864.669</ele>
        <time>2021-03-21T08:10:56Z</time>
      </trkpt>
      <trkpt lat="43.173285" lon="-2.159434">
        <ele>864.904</ele>
        <time>2021-03-21T08:10:58Z</time>
      </trkpt>
      <trkpt lat="43.173263" lon="-2.159417">
        <ele>865.324</ele>
        <time>2021-03-21T08:11:00Z</time>
      </trkpt>
      <trkpt lat="43.173244" lon="-2.159394">
        <ele>865.808</ele>
        <time>2021-03-21T08:11:02Z</time>
      </trkpt>
      <trkpt lat="43.173224" lon="-2.159364">
        <ele>866.432</ele>
        <time>2021-03-21T08:11:03Z</time>
      </trkpt>
      <trkpt lat="43.173202" lon="-2.159340">
        <ele>866.945</ele>
        <time>2021-03-21T08:11:06Z</time>
      </trkpt>
      <trkpt lat="43.173175" lon="-2.159319">
        <ele>867.278</ele>
        <time>2021-03-21T08:11:08Z</time>
      </trkpt>
      <trkpt lat="43.173151" lon="-2.159294">
        <ele>867.799</ele>
        <time>2021-03-21T08:11:09Z</time>
      </trkpt>
      <trkpt lat="43.173130" lon="-2.159271">
        <ele>868.126</ele>
        <time>2021-03-21T08:11:11Z</time>
      </trkpt>
      <trkpt lat="43.173097" lon="-2.159236">
        <ele>868.764</ele>
        <time>2021-03-21T08:11:14Z</time>
      </trkpt>
      <trkpt lat="43.173074" lon="-2.159212">
        <ele>869.014</ele>
        <time>2021-03-21T08:11:16Z</time>
      </trkpt>
      <trkpt lat="43.173048" lon="-2.159190">
        <ele>869.334</ele>
        <time>2021-03-21T08:11:19Z</time>
      </trkpt>
      <trkpt lat="43.173024" lon="-2.159165">
        <ele>869.528</ele>
        <time>2021-03-21T08:11:20Z</time>
      </trkpt>
      <trkpt lat="43.173001" lon="-2.159140">
        <ele>869.989</ele>
        <time>2021-03-21T08:11:22Z</time>
      </trkpt>
      <trkpt lat="43.172979" lon="-2.159114">
        <ele>870.317</ele>
        <time>2021-03-21T08:11:24Z</time>
      </trkpt>
      <trkpt lat="43.172955" lon="-2.159088">
        <ele>870.708</ele>
        <time>2021-03-21T08:11:26Z</time>
      </trkpt>
      <trkpt lat="43.172934" lon="-2.159063">
        <ele>871.258</ele>
        <time>2021-03-21T08:11:29Z</time>
      </trkpt>
      <trkpt lat="43.172907" lon="-2.159041">
        <ele>871.441</ele>
        <time>2021-03-21T08:11:30Z</time>
      </trkpt>
      <trkpt lat="43.172885" lon="-2.159025">
        <ele>871.584</ele>
        <time>2021-03-21T08:11:33Z</time>
      </trkpt>
      <trkpt lat="43.172858" lon="-2.159012">
        <ele>871.585</ele>
        <time>2021-03-21T08:11:35Z</time>
      </trkpt>
      <trkpt lat="43.172835" lon="-2.158992">
        <ele>871.762</ele>
        <time>2021-03-21T08:11:37Z</time>
      </trkpt>
      <trkpt lat="43.172825" lon="-2.158962">
        <ele>872.560</ele>
        <time>2021-03-21T08:11:39Z</time>
      </trkpt>
      <trkpt lat="43.172809" lon="-2.158935">
        <ele>873.140</ele>
        <time>2021-03-21T08:11:40Z</time>
      </trkpt>
      <trkpt lat="43.172794" lon="-2.158909">
        <ele>873.610</ele>
        <time>2021-03-21T08:11:43Z</time>
      </trkpt>
      <trkpt lat="43.172781" lon="-2.158888">
        <ele>874.119</ele>
        <time>2021-03-21T08:11:45Z</time>
      </trkpt>
      <trkpt lat="43.172757" lon="-2.158857">
        <ele>874.109</ele>
        <time>2021-03-21T08:11:47Z</time>
      </trkpt>
      <trkpt lat="43.172736" lon="-2.158828">
        <ele>874.219</ele>
        <time>2021-03-21T08:11:48Z</time>
      </trkpt>
      <trkpt lat="43.172716" lon="-2.158798">
        <ele>874.308</ele>
        <time>2021-03-21T08:11:51Z</time>
      </trkpt>
      <trkpt lat="43.172696" lon="-2.158767">
        <ele>874.447</ele>
        <time>2021-03-21T08:11:52Z</time>
      </trkpt>
      <trkpt lat="43.172677" lon="-2.158732">
        <ele>874.740</ele>
        <time>2021-03-21T08:11:54Z</time>
      </trkpt>
      <trkpt lat="43.172659" lon="-2.158698">
        <ele>875.093</ele>
        <time>2021-03-21T08:11:57Z</time>
      </trkpt>
      <trkpt lat="43.172638" lon="-2.158668">
        <ele>875.074</ele>
        <time>2021-03-21T08:11:58Z</time>
      </trkpt>
      <trkpt lat="43.172616" lon="-2.158635">
        <ele>875.291</ele>
        <time>2021-03-21T08:12:00Z</time>
      </trkpt>
      <trkpt lat="43.172593" lon="-2.158604">
        <ele>875.339</ele>
        <time>2021-03-21T08:12:03Z</time>
      </trkpt>
      <trkpt lat="43.172575" lon="-2.158573">
        <ele>875.879</ele>
        <time>2021-03-21T08:12:04Z</time>
      </trkpt>
      <trkpt lat="43.172559" lon="-2.158536">
        <ele>876.799</ele>
        <time>2021-03-21T08:12:06Z</time>
      </trkpt>
      <trkpt lat="43.172525" lon="-2.158508">
        <ele>876.853</ele>
        <time>2021-03-21T08:12:08Z</time>
      </trkpt>
      <trkpt lat="43.172503" lon="-2.158491">
        <ele>876.804</ele>
        <time>2021-03-21T08:12:09Z</time>
      </trkpt>
      <trkpt lat="43.172487" lon="-2.158472">
        <ele>877.114</ele>
        <time>2021-03-21T08:12:11Z</time>
      </trkpt>
      <trkpt lat="43.172476" lon="-2.158454">
        <ele>877.408</ele>
        <time>2021-03-21T08:12:12Z</time>
      </trkpt>
      <trkpt lat="43.172438" lon="-2.158413">
        <ele>877.871</ele>
        <time>2021-03-21T08:12:14Z</time>
      </trkpt>
      <trkpt lat="43.172416" lon="-2.158389">
        <ele>878.144</ele>
        <time>2021-03-21T08:12:16Z</time>
      </trkpt>
      <trkpt lat="43.172392" lon="-2.158369">
        <ele>878.167</ele>
        <time>2021-03-21T08:12:19Z</time>
      </trkpt>
      <trkpt lat="43.172370" lon="-2.158343">
        <ele>878.448</ele>
        <time>2021-03-21T08:12:20Z</time>
      </trkpt>
      <trkpt lat="43.172351" lon="-2.158315">
        <ele>879.165</ele>
        <time>2021-03-21T08:12:22Z</time>
      </trkpt>
      <trkpt lat="43.172345" lon="-2.158284">
        <ele>880.433</ele>
        <time>2021-03-21T08:12:24Z</time>
      </trkpt>
      <trkpt lat="43.172337" lon="-2.158256">
        <ele>881.583</ele>
        <time>2021-03-21T08:12:27Z</time>
      </trkpt>
      <trkpt lat="43.172320" lon="-2.158224">
        <ele>882.413</ele>
        <time>2021-03-21T08:12:28Z</time>
      </trkpt>
      <trkpt lat="43.172305" lon="-2.158200">
        <ele>883.122</ele>
        <time>2021-03-21T08:12:30Z</time>
      </trkpt>
      <trkpt lat="43.172287" lon="-2.158178">
        <ele>883.562</ele>
        <time>2021-03-21T08:12:32Z</time>
      </trkpt>
      <trkpt lat="43.172268" lon="-2.158153">
        <ele>884.008</ele>
        <time>2021-03-21T08:12:34Z</time>
      </trkpt>
      <trkpt lat="43.172249" lon="-2.158132">
        <ele>884.408</ele>
        <time>2021-03-21T08:12:36Z</time>
      </trkpt>
      <trkpt lat="43.172232" lon="-2.158112">
        <ele>884.718</ele>
        <time>2021-03-21T08:12:38Z</time>
      </trkpt>
      <trkpt lat="43.172216" lon="-2.158089">
        <ele>885.211</ele>
        <time>2021-03-21T08:12:41Z</time>
      </trkpt>
      <trkpt lat="43.172195" lon="-2.158065">
        <ele>885.554</ele>
        <time>2021-03-21T08:12:42Z</time>
      </trkpt>
      <trkpt lat="43.172176" lon="-2.158042">
        <ele>886.095</ele>
        <time>2021-03-21T08:12:44Z</time>
      </trkpt>
      <trkpt lat="43.172154" lon="-2.158014">
        <ele>886.772</ele>
        <time>2021-03-21T08:12:47Z</time>
      </trkpt>
      <trkpt lat="43.172134" lon="-2.157993">
        <ele>887.250</ele>
        <time>2021-03-21T08:12:48Z</time>
      </trkpt>
      <trkpt lat="43.172111" lon="-2.157975">
        <ele>887.420</ele>
        <time>2021-03-21T08:12:50Z</time>
      </trkpt>
      <trkpt lat="43.172090" lon="-2.157952">
        <ele>887.960</ele>
        <time>2021-03-21T08:12:53Z</time>
      </trkpt>
      <trkpt lat="43.172068" lon="-2.157927">
        <ele>888.658</ele>
        <time>2021-03-21T08:12:54Z</time>
      </trkpt>
      <trkpt lat="43.172046" lon="-2.157901">
        <ele>889.352</ele>
        <time>2021-03-21T08:12:56Z</time>
      </trkpt>
      <trkpt lat="43.172023" lon="-2.157878">
        <ele>889.817</ele>
        <time>2021-03-21T08:12:59Z</time>
      </trkpt>
      <trkpt lat="43.171999" lon="-2.157857">
        <ele>890.208</ele>
        <time>2021-03-21T08:13:00Z</time>
      </trkpt>
      <trkpt lat="43.171976" lon="-2.157824">
        <ele>891.321</ele>
        <time>2021-03-21T08:13:02Z</time>
      </trkpt>
      <trkpt lat="43.171958" lon="-2.157790">
        <ele>892.774</ele>
        <time>2021-03-21T08:13:04Z</time>
      </trkpt>
      <trkpt lat="43.171930" lon="-2.157773">
        <ele>892.687</ele>
        <time>2021-03-21T08:13:06Z</time>
      </trkpt>
      <trkpt lat="43.171905" lon="-2.157759">
        <ele>892.448</ele>
        <time>2021-03-21T08:13:08Z</time>
      </trkpt>
      <trkpt lat="43.171891" lon="-2.157738">
        <ele>893.145</ele>
        <time>2021-03-21T08:13:10Z</time>
      </trkpt>
      <trkpt lat="43.171870" lon="-2.157720">
        <ele>893.483</ele>
        <time>2021-03-21T08:13:13Z</time>
      </trkpt>
      <trkpt lat="43.171848" lon="-2.157721">
        <ele>892.343</ele>
        <time>2021-03-21T08:13:15Z</time>
      </trkpt>
      <trkpt lat="43.171826" lon="-2.157704">
        <ele>892.553</ele>
        <time>2021-03-21T08:13:18Z</time>
      </trkpt>
      <trkpt lat="43.171803" lon="-2.157687">
        <ele>892.658</ele>
        <time>2021-03-21T08:13:21Z</time>
      </trkpt>
      <trkpt lat="43.171786" lon="-2.157670">
        <ele>893.052</ele>
        <time>2021-03-21T08:13:23Z</time>
      </trkpt>
      <trkpt lat="43.171774" lon="-2.157647">
        <ele>894.117</ele>
        <time>2021-03-21T08:13:24Z</time>
      </trkpt>
      <trkpt lat="43.171756" lon="-2.157617">
        <ele>895.408</ele>
        <time>2021-03-21T08:13:27Z</time>
      </trkpt>
      <trkpt lat="43.171737" lon="-2.157584">
        <ele>896.971</ele>
        <time>2021-03-21T08:13:29Z</time>
      </trkpt>
      <trkpt lat="43.171718" lon="-2.157553">
        <ele>898.384</ele>
        <time>2021-03-21T08:13:30Z</time>
      </trkpt>
      <trkpt lat="43.171694" lon="-2.157532">
        <ele>898.867</ele>
        <time>2021-03-21T08:13:32Z</time>
      </trkpt>
      <trkpt lat="43.171663" lon="-2.157514">
        <ele>898.898</ele>
        <time>2021-03-21T08:13:34Z</time>
      </trkpt>
      <trkpt lat="43.171635" lon="-2.157507">
        <ele>898.215</ele>
        <time>2021-03-21T08:13:36Z</time>
      </trkpt>
      <trkpt lat="43.171611" lon="-2.157500">
        <ele>897.813</ele>
        <time>2021-03-21T08:13:38Z</time>
      </trkpt>
      <trkpt lat="43.171584" lon="-2.157494">
        <ele>897.123</ele>
        <time>2021-03-21T08:13:41Z</time>
      </trkpt>
      <trkpt lat="43.171560" lon="-2.157479">
        <ele>897.043</ele>
        <time>2021-03-21T08:13:42Z</time>
      </trkpt>
      <trkpt lat="43.171540" lon="-2.157461">
        <ele>897.285</ele>
        <time>2021-03-21T08:13:44Z</time>
      </trkpt>
      <trkpt lat="43.171514" lon="-2.157444">
        <ele>897.289</ele>
        <time>2021-03-21T08:13:46Z</time>
      </trkpt>
      <trkpt lat="43.171497" lon="-2.157437">
        <ele>896.917</ele>
        <time>2021-03-21T08:13:47Z</time>
      </trkpt>
      <trkpt lat="43.171468" lon="-2.157420">
        <ele>896.608</ele>
        <time>2021-03-21T08:13:50Z</time>
      </trkpt>
      <trkpt lat="43.171440" lon="-2.157399">
        <ele>896.644</ele>
        <time>2021-03-21T08:13:52Z</time>
      </trkpt>
      <trkpt lat="43.171414" lon="-2.157380">
        <ele>896.657</ele>
        <time>2021-03-21T08:13:53Z</time>
      </trkpt>
      <trkpt lat="43.171399" lon="-2.157368">
        <ele>896.670</ele>
        <time>2021-03-21T08:13:55Z</time>
      </trkpt>
      <trkpt lat="43.171374" lon="-2.157340">
        <ele>897.151</ele>
        <time>2021-03-21T08:13:56Z</time>
      </trkpt>
      <trkpt lat="43.171357" lon="-2.157313">
        <ele>897.998</ele>
        <time>2021-03-21T08:13:59Z</time>
      </trkpt>
      <trkpt lat="43.171348" lon="-2.157283">
        <ele>899.296</ele>
        <time>2021-03-21T08:14:00Z</time>
      </trkpt>
      <trkpt lat="43.171344" lon="-2.157247">
        <ele>901.086</ele>
        <time>2021-03-21T08:14:02Z</time>
      </trkpt>
      <trkpt lat="43.171318" lon="-2.157205">
        <ele>902.716</ele>
        <time>2021-03-21T08:14:05Z</time>
      </trkpt>
      <trkpt lat="43.171296" lon="-2.157176">
        <ele>904.124</ele>
        <time>2021-03-21T08:14:07Z</time>
      </trkpt>
      <trkpt lat="43.171284" lon="-2.157149">
        <ele>905.604</ele>
        <time>2021-03-21T08:14:10Z</time>
      </trkpt>
      <trkpt lat="43.171267" lon="-2.157118">
        <ele>907.214</ele>
        <time>2021-03-21T08:14:11Z</time>
      </trkpt>
      <trkpt lat="43.171251" lon="-2.157088">
        <ele>908.708</ele>
        <time>2021-03-21T08:14:13Z</time>
      </trkpt>
      <trkpt lat="43.171234" lon="-2.157064">
        <ele>909.778</ele>
        <time>2021-03-21T08:14:15Z</time>
      </trkpt>
      <trkpt lat="43.171215" lon="-2.157041">
        <ele>910.551</ele>
        <time>2021-03-21T08:14:18Z</time>
      </trkpt>
      <trkpt lat="43.171192" lon="-2.157030">
        <ele>910.224</ele>
        <time>2021-03-21T08:14:19Z</time>
      </trkpt>
      <trkpt lat="43.171171" lon="-2.157018">
        <ele>910.015</ele>
        <time>2021-03-21T08:14:21Z</time>
      </trkpt>
      <trkpt lat="43.171150" lon="-2.157001">
        <ele>910.272</ele>
        <time>2021-03-21T08:14:23Z</time>
      </trkpt>
      <trkpt lat="43.171128" lon="-2.156985">
        <ele>910.230</ele>
        <time>2021-03-21T08:14:25Z</time>
      </trkpt>
      <trkpt lat="43.171110" lon="-2.156966">
        <ele>910.620</ele>
        <time>2021-03-21T08:14:27Z</time>
      </trkpt>
      <trkpt lat="43.171090" lon="-2.156947">
        <ele>911.150</ele>
        <time>2021-03-21T08:14:30Z</time>
      </trkpt>
      <trkpt lat="43.171071" lon="-2.156924">
        <ele>912.457</ele>
        <time>2021-03-21T08:14:32Z</time>
      </trkpt>
      <trkpt lat="43.171050" lon="-2.156900">
        <ele>913.700</ele>
        <time>2021-03-21T08:14:33Z</time>
      </trkpt>
      <trkpt lat="43.171031" lon="-2.156874">
        <ele>915.220</ele>
        <time>2021-03-21T08:14:35Z</time>
      </trkpt>
      <trkpt lat="43.171020" lon="-2.156850">
        <ele>916.808</ele>
        <time>2021-03-21T08:14:37Z</time>
      </trkpt>
      <trkpt lat="43.171007" lon="-2.156821">
        <ele>918.731</ele>
        <time>2021-03-21T08:14:39Z</time>
      </trkpt>
      <trkpt lat="43.170992" lon="-2.156804">
        <ele>919.584</ele>
        <time>2021-03-21T08:14:41Z</time>
      </trkpt>
      <trkpt lat="43.170972" lon="-2.156783">
        <ele>920.477</ele>
        <time>2021-03-21T08:14:43Z</time>
      </trkpt>
      <trkpt lat="43.170958" lon="-2.156761">
        <ele>921.518</ele>
        <time>2021-03-21T08:14:46Z</time>
      </trkpt>
      <trkpt lat="43.170936" lon="-2.156741">
        <ele>922.235</ele>
        <time>2021-03-21T08:14:48Z</time>
      </trkpt>
      <trkpt lat="43.170912" lon="-2.156720">
        <ele>922.793</ele>
        <time>2021-03-21T08:14:49Z</time>
      </trkpt>
      <trkpt lat="43.170889" lon="-2.156712">
        <ele>922.273</ele>
        <time>2021-03-21T08:14:51Z</time>
      </trkpt>
      <trkpt lat="43.170864" lon="-2.156702">
        <ele>921.893</ele>
        <time>2021-03-21T08:14:53Z</time>
      </trkpt>
      <trkpt lat="43.170833" lon="-2.156674">
        <ele>922.497</ele>
        <time>2021-03-21T08:14:56Z</time>
      </trkpt>
      <trkpt lat="43.170814" lon="-2.156645">
        <ele>924.523</ele>
        <time>2021-03-21T08:14:58Z</time>
      </trkpt>
      <trkpt lat="43.170791" lon="-2.156628">
        <ele>925.325</ele>
        <time>2021-03-21T08:15:01Z</time>
      </trkpt>
      <trkpt lat="43.170709" lon="-2.156566">
        <ele>927.608</ele>
        <time>2021-03-21T08:15:08Z</time>
      </trkpt>
      <trkpt lat="43.170687" lon="-2.156545">
        <ele>928.485</ele>
        <time>2021-03-21T08:15:10Z</time>
      </trkpt>
      <trkpt lat="43.170662" lon="-2.156535">
        <ele>927.928</ele>
        <time>2021-03-21T08:15:12Z</time>
      </trkpt>
      <trkpt lat="43.170645" lon="-2.156521">
        <ele>928.211</ele>
        <time>2021-03-21T08:15:15Z</time>
      </trkpt>
      <trkpt lat="43.170626" lon="-2.156500">
        <ele>928.922</ele>
        <time>2021-03-21T08:15:18Z</time>
      </trkpt>
      <trkpt lat="43.170601" lon="-2.156479">
        <ele>929.129</ele>
        <time>2021-03-21T08:15:21Z</time>
      </trkpt>
      <trkpt lat="43.170583" lon="-2.156466">
        <ele>929.117</ele>
        <time>2021-03-21T08:15:23Z</time>
      </trkpt>
      <trkpt lat="43.170566" lon="-2.156453">
        <ele>929.017</ele>
        <time>2021-03-21T08:15:24Z</time>
      </trkpt>
      <trkpt lat="43.170549" lon="-2.156444">
        <ele>929.067</ele>
        <time>2021-03-21T08:15:26Z</time>
      </trkpt>
      <trkpt lat="43.170521" lon="-2.156440">
        <ele>928.968</ele>
        <time>2021-03-21T08:15:28Z</time>
      </trkpt>
      <trkpt lat="43.170497" lon="-2.156432">
        <ele>929.242</ele>
        <time>2021-03-21T08:15:30Z</time>
      </trkpt>
      <trkpt lat="43.170478" lon="-2.156428">
        <ele>929.226</ele>
        <time>2021-03-21T08:15:32Z</time>
      </trkpt>
      <trkpt lat="43.170459" lon="-2.156420">
        <ele>929.508</ele>
        <time>2021-03-21T08:15:34Z</time>
      </trkpt>
      <trkpt lat="43.170436" lon="-2.156417">
        <ele>929.492</ele>
        <time>2021-03-21T08:15:36Z</time>
      </trkpt>
      <trkpt lat="43.170415" lon="-2.156405">
        <ele>929.985</ele>
        <time>2021-03-21T08:15:40Z</time>
      </trkpt>
      <trkpt lat="43.170399" lon="-2.156382">
        <ele>931.148</ele>
        <time>2021-03-21T08:15:41Z</time>
      </trkpt>
      <trkpt lat="43.170385" lon="-2.156364">
        <ele>931.939</ele>
        <time>2021-03-21T08:15:43Z</time>
      </trkpt>
      <trkpt lat="43.170361" lon="-2.156351">
        <ele>932.216</ele>
        <time>2021-03-21T08:15:46Z</time>
      </trkpt>
      <trkpt lat="43.170347" lon="-2.156345">
        <ele>932.384</ele>
        <time>2021-03-21T08:15:47Z</time>
      </trkpt>
      <trkpt lat="43.170325" lon="-2.156338">
        <ele>932.394</ele>
        <time>2021-03-21T08:15:52Z</time>
      </trkpt>
      <trkpt lat="43.170307" lon="-2.156333">
        <ele>932.364</ele>
        <time>2021-03-21T08:15:53Z</time>
      </trkpt>
      <trkpt lat="43.170284" lon="-2.156334">
        <ele>931.916</ele>
        <time>2021-03-21T08:15:57Z</time>
      </trkpt>
      <trkpt lat="43.170255" lon="-2.156332">
        <ele>931.376</ele>
        <time>2021-03-21T08:15:59Z</time>
      </trkpt>
      <trkpt lat="43.170228" lon="-2.156321">
        <ele>931.213</ele>
        <time>2021-03-21T08:16:03Z</time>
      </trkpt>
      <trkpt lat="43.170206" lon="-2.156318">
        <ele>930.808</ele>
        <time>2021-03-21T08:16:05Z</time>
      </trkpt>
      <trkpt lat="43.170187" lon="-2.156317">
        <ele>930.397</ele>
        <time>2021-03-21T08:16:06Z</time>
      </trkpt>
      <trkpt lat="43.170165" lon="-2.156305">
        <ele>930.550</ele>
        <time>2021-03-21T08:16:08Z</time>
      </trkpt>
      <trkpt lat="43.170150" lon="-2.156288">
        <ele>931.113</ele>
        <time>2021-03-21T08:16:10Z</time>
      </trkpt>
      <trkpt lat="43.170136" lon="-2.156272">
        <ele>931.734</ele>
        <time>2021-03-21T08:16:12Z</time>
      </trkpt>
      <trkpt lat="43.170120" lon="-2.156260">
        <ele>932.021</ele>
        <time>2021-03-21T08:16:14Z</time>
      </trkpt>
      <trkpt lat="43.170106" lon="-2.156243">
        <ele>932.749</ele>
        <time>2021-03-21T08:16:18Z</time>
      </trkpt>
      <trkpt lat="43.170100" lon="-2.156218">
        <ele>934.119</ele>
        <time>2021-03-21T08:16:21Z</time>
      </trkpt>
      <trkpt lat="43.170090" lon="-2.156195">
        <ele>935.359</ele>
        <time>2021-03-21T08:16:26Z</time>
      </trkpt>
      <trkpt lat="43.170078" lon="-2.156181">
        <ele>935.992</ele>
        <time>2021-03-21T08:16:28Z</time>
      </trkpt>
      <trkpt lat="43.170061" lon="-2.156173">
        <ele>936.173</ele>
        <time>2021-03-21T08:16:32Z</time>
      </trkpt>
      <trkpt lat="43.170051" lon="-2.156152">
        <ele>937.220</ele>
        <time>2021-03-21T08:16:34Z</time>
      </trkpt>
      <trkpt lat="43.170044" lon="-2.156120">
        <ele>939.108</ele>
        <time>2021-03-21T08:16:37Z</time>
      </trkpt>
      <trkpt lat="43.170034" lon="-2.156097">
        <ele>940.345</ele>
        <time>2021-03-21T08:16:39Z</time>
      </trkpt>
      <trkpt lat="43.170024" lon="-2.156067">
        <ele>941.798</ele>
        <time>2021-03-21T08:16:42Z</time>
      </trkpt>
      <trkpt lat="43.170022" lon="-2.156049">
        <ele>942.731</ele>
        <time>2021-03-21T08:16:44Z</time>
      </trkpt>
      <trkpt lat="43.170012" lon="-2.156029">
        <ele>943.672</ele>
        <time>2021-03-21T08:16:46Z</time>
      </trkpt>
      <trkpt lat="43.170004" lon="-2.156007">
        <ele>944.729</ele>
        <time>2021-03-21T08:16:48Z</time>
      </trkpt>
      <trkpt lat="43.170001" lon="-2.155979">
        <ele>946.137</ele>
        <time>2021-03-21T08:16:50Z</time>
      </trkpt>
      <trkpt lat="43.169997" lon="-2.155956">
        <ele>947.297</ele>
        <time>2021-03-21T08:16:53Z</time>
      </trkpt>
      <trkpt lat="43.169995" lon="-2.155929">
        <ele>948.647</ele>
        <time>2021-03-21T08:16:56Z</time>
      </trkpt>
      <trkpt lat="43.169980" lon="-2.155908">
        <ele>948.914</ele>
        <time>2021-03-21T08:16:58Z</time>
      </trkpt>
      <trkpt lat="43.169963" lon="-2.155894">
        <ele>948.754</ele>
        <time>2021-03-21T08:17:01Z</time>
      </trkpt>
      <trkpt lat="43.169951" lon="-2.155882">
        <ele>948.709</ele>
        <time>2021-03-21T08:17:04Z</time>
      </trkpt>
      <trkpt lat="43.169938" lon="-2.155867">
        <ele>948.908</ele>
        <time>2021-03-21T08:17:06Z</time>
      </trkpt>
      <trkpt lat="43.169935" lon="-2.155838">
        <ele>950.587</ele>
        <time>2021-03-21T08:17:12Z</time>
      </trkpt>
      <trkpt lat="43.169937" lon="-2.155821">
        <ele>951.240</ele>
        <time>2021-03-21T08:17:15Z</time>
      </trkpt>
      <trkpt lat="43.169933" lon="-2.155801">
        <ele>951.763</ele>
        <time>2021-03-21T08:17:17Z</time>
      </trkpt>
      <trkpt lat="43.169926" lon="-2.155779">
        <ele>952.194</ele>
        <time>2021-03-21T08:17:20Z</time>
      </trkpt>
      <trkpt lat="43.169912" lon="-2.155750">
        <ele>952.531</ele>
        <time>2021-03-21T08:17:25Z</time>
      </trkpt>
      <trkpt lat="43.169908" lon="-2.155732">
        <ele>952.949</ele>
        <time>2021-03-21T08:17:26Z</time>
      </trkpt>
      <trkpt lat="43.169908" lon="-2.155708">
        <ele>953.779</ele>
        <time>2021-03-21T08:17:29Z</time>
      </trkpt>
      <trkpt lat="43.169899" lon="-2.155680">
        <ele>954.369</ele>
        <time>2021-03-21T08:17:33Z</time>
      </trkpt>
      <trkpt lat="43.169909" lon="-2.155651">
        <ele>955.844</ele>
        <time>2021-03-21T08:17:35Z</time>
      </trkpt>
      <trkpt lat="43.169920" lon="-2.155626">
        <ele>957.105</ele>
        <time>2021-03-21T08:17:37Z</time>
      </trkpt>
      <trkpt lat="43.169930" lon="-2.155595">
        <ele>958.615</ele>
        <time>2021-03-21T08:17:40Z</time>
      </trkpt>
      <trkpt lat="43.169931" lon="-2.155566">
        <ele>959.708</ele>
        <time>2021-03-21T08:17:42Z</time>
      </trkpt>
      <trkpt lat="43.169929" lon="-2.155539">
        <ele>960.350</ele>
        <time>2021-03-21T08:17:44Z</time>
      </trkpt>
      <trkpt lat="43.169926" lon="-2.155511">
        <ele>960.813</ele>
        <time>2021-03-21T08:17:47Z</time>
      </trkpt>
      <trkpt lat="43.169926" lon="-2.155485">
        <ele>961.336</ele>
        <time>2021-03-21T08:17:49Z</time>
      </trkpt>
      <trkpt lat="43.169919" lon="-2.155457">
        <ele>961.697</ele>
        <time>2021-03-21T08:17:50Z</time>
      </trkpt>
      <trkpt lat="43.169908" lon="-2.155418">
        <ele>962.094</ele>
        <time>2021-03-21T08:17:54Z</time>
      </trkpt>
      <trkpt lat="43.169900" lon="-2.155389">
        <ele>962.372</ele>
        <time>2021-03-21T08:17:56Z</time>
      </trkpt>
      <trkpt lat="43.169909" lon="-2.155357">
        <ele>963.432</ele>
        <time>2021-03-21T08:17:58Z</time>
      </trkpt>
      <trkpt lat="43.169919" lon="-2.155332">
        <ele>964.382</ele>
        <time>2021-03-21T08:18:01Z</time>
      </trkpt>
      <trkpt lat="43.169921" lon="-2.155298">
        <ele>965.118</ele>
        <time>2021-03-21T08:18:03Z</time>
      </trkpt>
      <trkpt lat="43.169922" lon="-2.155271">
        <ele>965.898</ele>
        <time>2021-03-21T08:18:04Z</time>
      </trkpt>
      <trkpt lat="43.169919" lon="-2.155245">
        <ele>966.217</ele>
        <time>2021-03-21T08:18:07Z</time>
      </trkpt>
      <trkpt lat="43.169917" lon="-2.155214">
        <ele>966.808</ele>
        <time>2021-03-21T08:18:09Z</time>
      </trkpt>
      <trkpt lat="43.169918" lon="-2.155183">
        <ele>967.587</ele>
        <time>2021-03-21T08:18:10Z</time>
      </trkpt>
      <trkpt lat="43.169912" lon="-2.155154">
        <ele>967.910</ele>
        <time>2021-03-21T08:18:13Z</time>
      </trkpt>
      <trkpt lat="43.169910" lon="-2.155123">
        <ele>968.553</ele>
        <time>2021-03-21T08:18:15Z</time>
      </trkpt>
      <trkpt lat="43.169907" lon="-2.155093">
        <ele>969.034</ele>
        <time>2021-03-21T08:18:17Z</time>
      </trkpt>
      <trkpt lat="43.169903" lon="-2.155065">
        <ele>969.451</ele>
        <time>2021-03-21T08:18:19Z</time>
      </trkpt>
      <trkpt lat="43.169905" lon="-2.155030">
        <ele>970.279</ele>
        <time>2021-03-21T08:18:20Z</time>
      </trkpt>
      <trkpt lat="43.169904" lon="-2.155011">
        <ele>970.619</ele>
        <time>2021-03-21T08:18:21Z</time>
      </trkpt>
      <trkpt lat="43.169896" lon="-2.154984">
        <ele>971.089</ele>
        <time>2021-03-21T08:18:23Z</time>
      </trkpt>
      <trkpt lat="43.169893" lon="-2.154957">
        <ele>971.887</ele>
        <time>2021-03-21T08:18:25Z</time>
      </trkpt>
      <trkpt lat="43.169888" lon="-2.154929">
        <ele>972.542</ele>
        <time>2021-03-21T08:18:27Z</time>
      </trkpt>
      <trkpt lat="43.169883" lon="-2.154903">
        <ele>973.126</ele>
        <time>2021-03-21T08:18:30Z</time>
      </trkpt>
      <trkpt lat="43.169880" lon="-2.154872">
        <ele>974.008</ele>
        <time>2021-03-21T08:18:32Z</time>
      </trkpt>
      <trkpt lat="43.169876" lon="-2.154835">
        <ele>975.134</ele>
        <time>2021-03-21T08:18:35Z</time>
      </trkpt>
      <trkpt lat="43.169878" lon="-2.154811">
        <ele>975.987</ele>
        <time>2021-03-21T08:18:39Z</time>
      </trkpt>
      <trkpt lat="43.169891" lon="-2.154795">
        <ele>977.160</ele>
        <time>2021-03-21T08:18:41Z</time>
      </trkpt>
      <trkpt lat="43.169900" lon="-2.154761">
        <ele>978.751</ele>
        <time>2021-03-21T08:18:43Z</time>
      </trkpt>
      <trkpt lat="43.169890" lon="-2.154729">
        <ele>979.268</ele>
        <time>2021-03-21T08:18:47Z</time>
      </trkpt>
      <trkpt lat="43.169863" lon="-2.154695">
        <ele>979.226</ele>
        <time>2021-03-21T08:18:50Z</time>
      </trkpt>
      <trkpt lat="43.169843" lon="-2.154676">
        <ele>979.056</ele>
        <time>2021-03-21T08:18:52Z</time>
      </trkpt>
      <trkpt lat="43.169834" lon="-2.154649">
        <ele>979.746</ele>
        <time>2021-03-21T08:18:55Z</time>
      </trkpt>
      <trkpt lat="43.169817" lon="-2.154623">
        <ele>979.971</ele>
        <time>2021-03-21T08:18:56Z</time>
      </trkpt>
      <trkpt lat="43.169808" lon="-2.154599">
        <ele>980.541</ele>
        <time>2021-03-21T08:18:59Z</time>
      </trkpt>
      <trkpt lat="43.169808" lon="-2.154574">
        <ele>981.615</ele>
        <time>2021-03-21T08:19:00Z</time>
      </trkpt>
      <trkpt lat="43.169804" lon="-2.154547">
        <ele>982.508</ele>
        <time>2021-03-21T08:19:03Z</time>
      </trkpt>
      <trkpt lat="43.169798" lon="-2.154522">
        <ele>983.373</ele>
        <time>2021-03-21T08:19:05Z</time>
      </trkpt>
      <trkpt lat="43.169786" lon="-2.154500">
        <ele>983.686</ele>
        <time>2021-03-21T08:19:06Z</time>
      </trkpt>
      <trkpt lat="43.169781" lon="-2.154475">
        <ele>984.569</ele>
        <time>2021-03-21T08:19:08Z</time>
      </trkpt>
      <trkpt lat="43.169777" lon="-2.154447">
        <ele>985.580</ele>
        <time>2021-03-21T08:19:11Z</time>
      </trkpt>
      <trkpt lat="43.169784" lon="-2.154426">
        <ele>986.687</ele>
        <time>2021-03-21T08:19:14Z</time>
      </trkpt>
      <trkpt lat="43.169778" lon="-2.154406">
        <ele>987.155</ele>
        <time>2021-03-21T08:19:15Z</time>
      </trkpt>
      <trkpt lat="43.169774" lon="-2.154378">
        <ele>988.145</ele>
        <time>2021-03-21T08:19:19Z</time>
      </trkpt>
      <trkpt lat="43.169760" lon="-2.154363">
        <ele>988.015</ele>
        <time>2021-03-21T08:19:20Z</time>
      </trkpt>
      <trkpt lat="43.169740" lon="-2.154349">
        <ele>987.698</ele>
        <time>2021-03-21T08:19:22Z</time>
      </trkpt>
      <trkpt lat="43.169734" lon="-2.154324">
        <ele>988.315</ele>
        <time>2021-03-21T08:19:25Z</time>
      </trkpt>
      <trkpt lat="43.169721" lon="-2.154308">
        <ele>988.326</ele>
        <time>2021-03-21T08:19:26Z</time>
      </trkpt>
      <trkpt lat="43.169698" lon="-2.154291">
        <ele>987.508</ele>
        <time>2021-03-21T08:19:28Z</time>
      </trkpt>
      <trkpt lat="43.169685" lon="-2.154263">
        <ele>987.895</ele>
        <time>2021-03-21T08:19:30Z</time>
      </trkpt>
      <trkpt lat="43.169681" lon="-2.154231">
        <ele>988.888</ele>
        <time>2021-03-21T08:19:33Z</time>
      </trkpt>
      <trkpt lat="43.169674" lon="-2.154197">
        <ele>989.711</ele>
        <time>2021-03-21T08:19:36Z</time>
      </trkpt>
      <trkpt lat="43.169676" lon="-2.154162">
        <ele>991.282</ele>
        <time>2021-03-21T08:19:38Z</time>
      </trkpt>
      <trkpt lat="43.169672" lon="-2.154129">
        <ele>992.019</ele>
        <time>2021-03-21T08:19:39Z</time>
      </trkpt>
      <trkpt lat="43.169668" lon="-2.154101">
        <ele>992.737</ele>
        <time>2021-03-21T08:19:41Z</time>
      </trkpt>
      <trkpt lat="43.169663" lon="-2.154071">
        <ele>993.467</ele>
        <time>2021-03-21T08:19:43Z</time>
      </trkpt>
      <trkpt lat="43.169658" lon="-2.154041">
        <ele>994.197</ele>
        <time>2021-03-21T08:19:46Z</time>
      </trkpt>
      <trkpt lat="43.169655" lon="-2.154005">
        <ele>995.265</ele>
        <time>2021-03-21T08:19:49Z</time>
      </trkpt>
      <trkpt lat="43.169651" lon="-2.153978">
        <ele>995.868</ele>
        <time>2021-03-21T08:19:51Z</time>
      </trkpt>
      <trkpt lat="43.169644" lon="-2.153956">
        <ele>996.214</ele>
        <time>2021-03-21T08:19:52Z</time>
      </trkpt>
      <trkpt lat="43.169637" lon="-2.153929">
        <ele>996.708</ele>
        <time>2021-03-21T08:19:55Z</time>
      </trkpt>
      <trkpt lat="43.169626" lon="-2.153904">
        <ele>996.982</ele>
        <time>2021-03-21T08:19:57Z</time>
      </trkpt>
      <trkpt lat="43.169616" lon="-2.153873">
        <ele>997.545</ele>
        <time>2021-03-21T08:20:00Z</time>
      </trkpt>
      <trkpt lat="43.169603" lon="-2.153844">
        <ele>997.998</ele>
        <time>2021-03-21T08:20:01Z</time>
      </trkpt>
      <trkpt lat="43.169598" lon="-2.153822">
        <ele>998.469</ele>
        <time>2021-03-21T08:20:03Z</time>
      </trkpt>
      <trkpt lat="43.169591" lon="-2.153785">
        <ele>999.536</ele>
        <time>2021-03-21T08:20:06Z</time>
      </trkpt>
      <trkpt lat="43.169575" lon="-2.153762">
        <ele>999.614</ele>
        <time>2021-03-21T08:20:08Z</time>
      </trkpt>
      <trkpt lat="43.169567" lon="-2.153748">
        <ele>999.844</ele>
        <time>2021-03-21T08:20:10Z</time>
      </trkpt>
      <trkpt lat="43.169551" lon="-2.153717">
        <ele>1000.294</ele>
        <time>2021-03-21T08:20:12Z</time>
      </trkpt>
      <trkpt lat="43.169540" lon="-2.153688">
        <ele>1000.965</ele>
        <time>2021-03-21T08:20:13Z</time>
      </trkpt>
      <trkpt lat="43.169531" lon="-2.153664">
        <ele>1001.568</ele>
        <time>2021-03-21T08:20:15Z</time>
      </trkpt>
      <trkpt lat="43.169519" lon="-2.153638">
        <ele>1002.114</ele>
        <time>2021-03-21T08:20:18Z</time>
      </trkpt>
      <trkpt lat="43.169505" lon="-2.153618">
        <ele>1002.308</ele>
        <time>2021-03-21T08:20:20Z</time>
      </trkpt>
      <trkpt lat="43.169491" lon="-2.153597">
        <ele>1002.622</ele>
        <time>2021-03-21T08:20:22Z</time>
      </trkpt>
      <trkpt lat="43.169482" lon="-2.153573">
        <ele>1003.265</ele>
        <time>2021-03-21T08:20:24Z</time>
      </trkpt>
      <trkpt lat="43.169476" lon="-2.153552">
        <ele>1003.998</ele>
        <time>2021-03-21T08:20:27Z</time>
      </trkpt>
      <trkpt lat="43.169464" lon="-2.153523">
        <ele>1004.689</ele>
        <time>2021-03-21T08:20:30Z</time>
      </trkpt>
      <trkpt lat="43.169450" lon="-2.153492">
        <ele>1005.476</ele>
        <time>2021-03-21T08:20:33Z</time>
      </trkpt>
      <trkpt lat="43.169451" lon="-2.153468">
        <ele>1006.494</ele>
        <time>2021-03-21T08:20:35Z</time>
      </trkpt>
      <trkpt lat="43.169449" lon="-2.153440">
        <ele>1007.644</ele>
        <time>2021-03-21T08:20:36Z</time>
      </trkpt>
      <trkpt lat="43.169436" lon="-2.153418">
        <ele>1007.974</ele>
        <time>2021-03-21T08:20:39Z</time>
      </trkpt>
      <trkpt lat="43.169413" lon="-2.153398">
        <ele>1007.412</ele>
        <time>2021-03-21T08:20:43Z</time>
      </trkpt>
      <trkpt lat="43.169399" lon="-2.153380">
        <ele>1007.432</ele>
        <time>2021-03-21T08:20:44Z</time>
      </trkpt>
      <trkpt lat="43.169386" lon="-2.153362">
        <ele>1007.405</ele>
        <time>2021-03-21T08:20:46Z</time>
      </trkpt>
      <trkpt lat="43.169375" lon="-2.153336">
        <ele>1007.908</ele>
        <time>2021-03-21T08:20:49Z</time>
      </trkpt>
      <trkpt lat="43.169374" lon="-2.153303">
        <ele>1008.637</ele>
        <time>2021-03-21T08:20:52Z</time>
      </trkpt>
      <trkpt lat="43.169373" lon="-2.153276">
        <ele>1009.210</ele>
        <time>2021-03-21T08:20:54Z</time>
      </trkpt>
      <trkpt lat="43.169371" lon="-2.153243">
        <ele>1009.863</ele>
        <time>2021-03-21T08:20:57Z</time>
      </trkpt>
      <trkpt lat="43.169369" lon="-2.153211">
        <ele>1010.414</ele>
        <time>2021-03-21T08:20:59Z</time>
      </trkpt>
      <trkpt lat="43.169363" lon="-2.153185">
        <ele>1010.781</ele>
        <time>2021-03-21T08:21:01Z</time>
      </trkpt>
      <trkpt lat="43.169354" lon="-2.153166">
        <ele>1010.629</ele>
        <time>2021-03-21T08:21:02Z</time>
      </trkpt>
      <trkpt lat="43.169370" lon="-2.153146">
        <ele>1011.919</ele>
        <time>2021-03-21T08:21:04Z</time>
      </trkpt>
      <trkpt lat="43.169379" lon="-2.153116">
        <ele>1013.119</ele>
        <time>2021-03-21T08:21:06Z</time>
      </trkpt>
      <trkpt lat="43.169380" lon="-2.153091">
        <ele>1013.786</ele>
        <time>2021-03-21T08:21:08Z</time>
      </trkpt>
      <trkpt lat="43.169373" lon="-2.153064">
        <ele>1014.060</ele>
        <time>2021-03-21T08:21:11Z</time>
      </trkpt>
      <trkpt lat="43.169372" lon="-2.153036">
        <ele>1014.626</ele>
        <time>2021-03-21T08:21:12Z</time>
      </trkpt>
      <trkpt lat="43.169370" lon="-2.153005">
        <ele>1015.408</ele>
        <time>2021-03-21T08:21:14Z</time>
      </trkpt>
      <trkpt lat="43.169364" lon="-2.152972">
        <ele>1016.074</ele>
        <time>2021-03-21T08:21:16Z</time>
      </trkpt>
      <trkpt lat="43.169360" lon="-2.152941">
        <ele>1016.757</ele>
        <time>2021-03-21T08:21:19Z</time>
      </trkpt>
      <trkpt lat="43.169358" lon="-2.152913">
        <ele>1017.410</ele>
        <time>2021-03-21T08:21:21Z</time>
      </trkpt>
      <trkpt lat="43.169355" lon="-2.152886">
        <ele>1018.061</ele>
        <time>2021-03-21T08:21:22Z</time>
      </trkpt>
      <trkpt lat="43.169349" lon="-2.152862">
        <ele>1018.438</ele>
        <time>2021-03-21T08:21:24Z</time>
      </trkpt>
      <trkpt lat="43.169341" lon="-2.152842">
        <ele>1018.776</ele>
        <time>2021-03-21T08:21:27Z</time>
      </trkpt>
      <trkpt lat="43.169341" lon="-2.152809">
        <ele>1019.656</ele>
        <time>2021-03-21T08:21:30Z</time>
      </trkpt>
      <trkpt lat="43.169341" lon="-2.152789">
        <ele>1020.266</ele>
        <time>2021-03-21T08:21:32Z</time>
      </trkpt>
      <trkpt lat="43.169341" lon="-2.152754">
        <ele>1021.296</ele>
        <time>2021-03-21T08:21:35Z</time>
      </trkpt>
      <trkpt lat="43.169342" lon="-2.152736">
        <ele>1021.731</ele>
        <time>2021-03-21T08:21:38Z</time>
      </trkpt>
      <trkpt lat="43.169337" lon="-2.152714">
        <ele>1022.124</ele>
        <time>2021-03-21T08:21:40Z</time>
      </trkpt>
      <trkpt lat="43.169341" lon="-2.152688">
        <ele>1023.008</ele>
        <time>2021-03-21T08:21:43Z</time>
      </trkpt>
      <trkpt lat="43.169359" lon="-2.152691">
        <ele>1023.755</ele>
        <time>2021-03-21T08:21:46Z</time>
      </trkpt>
      <trkpt lat="43.169380" lon="-2.152671">
        <ele>1025.128</ele>
        <time>2021-03-21T08:21:49Z</time>
      </trkpt>
      <trkpt lat="43.169379" lon="-2.152640">
        <ele>1025.921</ele>
        <time>2021-03-21T08:21:51Z</time>
      </trkpt>
      <trkpt lat="43.169376" lon="-2.152615">
        <ele>1026.492</ele>
        <time>2021-03-21T08:21:54Z</time>
      </trkpt>
      <trkpt lat="43.169367" lon="-2.152588">
        <ele>1026.819</ele>
        <time>2021-03-21T08:21:56Z</time>
      </trkpt>
      <trkpt lat="43.169356" lon="-2.152565">
        <ele>1027.097</ele>
        <time>2021-03-21T08:21:58Z</time>
      </trkpt>
      <trkpt lat="43.169360" lon="-2.152534">
        <ele>1028.067</ele>
        <time>2021-03-21T08:22:02Z</time>
      </trkpt>
      <trkpt lat="43.169367" lon="-2.152508">
        <ele>1029.027</ele>
        <time>2021-03-21T08:22:03Z</time>
      </trkpt>
      <trkpt lat="43.169373" lon="-2.152477">
        <ele>1029.935</ele>
        <time>2021-03-21T08:22:06Z</time>
      </trkpt>
      <trkpt lat="43.169387" lon="-2.152458">
        <ele>1030.886</ele>
        <time>2021-03-21T08:22:08Z</time>
      </trkpt>
      <trkpt lat="43.169392" lon="-2.152433">
        <ele>1031.614</ele>
        <time>2021-03-21T08:22:11Z</time>
      </trkpt>
      <trkpt lat="43.169399" lon="-2.152396">
        <ele>1032.608</ele>
        <time>2021-03-21T08:22:14Z</time>
      </trkpt>
      <trkpt lat="43.169403" lon="-2.152370">
        <ele>1033.399</ele>
        <time>2021-03-21T08:22:15Z</time>
      </trkpt>
      <trkpt lat="43.169410" lon="-2.152338">
        <ele>1034.382</ele>
        <time>2021-03-21T08:22:19Z</time>
      </trkpt>
      <trkpt lat="43.169421" lon="-2.152315">
        <ele>1035.225</ele>
        <time>2021-03-21T08:22:21Z</time>
      </trkpt>
      <trkpt lat="43.169439" lon="-2.152287">
        <ele>1036.466</ele>
        <time>2021-03-21T08:22:23Z</time>
      </trkpt>
      <trkpt lat="43.169455" lon="-2.152258">
        <ele>1037.743</ele>
        <time>2021-03-21T08:22:27Z</time>
      </trkpt>
      <trkpt lat="43.169460" lon="-2.152235">
        <ele>1038.351</ele>
        <time>2021-03-21T08:22:28Z</time>
      </trkpt>
      <trkpt lat="43.169469" lon="-2.152211">
        <ele>1039.151</ele>
        <time>2021-03-21T08:22:30Z</time>
      </trkpt>
      <trkpt lat="43.169488" lon="-2.152194">
        <ele>1039.931</ele>
        <time>2021-03-21T08:22:33Z</time>
      </trkpt>
      <trkpt lat="43.169513" lon="-2.152202">
        <ele>1040.857</ele>
        <time>2021-03-21T08:22:36Z</time>
      </trkpt>
      <trkpt lat="43.169535" lon="-2.152209">
        <ele>1041.600</ele>
        <time>2021-03-21T08:22:38Z</time>
      </trkpt>
      <trkpt lat="43.169554" lon="-2.152205">
        <ele>1042.420</ele>
        <time>2021-03-21T08:22:41Z</time>
      </trkpt>
      <trkpt lat="43.169576" lon="-2.152208">
        <ele>1043.208</ele>
        <time>2021-03-21T08:22:43Z</time>
      </trkpt>
      <trkpt lat="43.169593" lon="-2.152214">
        <ele>1043.961</ele>
        <time>2021-03-21T08:22:47Z</time>
      </trkpt>
      <trkpt lat="43.169610" lon="-2.152223">
        <ele>1044.564</ele>
        <time>2021-03-21T08:22:49Z</time>
      </trkpt>
      <trkpt lat="43.169636" lon="-2.152232">
        <ele>1045.437</ele>
        <time>2021-03-21T08:22:53Z</time>
      </trkpt>
      <trkpt lat="43.169665" lon="-2.152225">
        <ele>1046.788</ele>
        <time>2021-03-21T08:22:57Z</time>
      </trkpt>
      <trkpt lat="43.169680" lon="-2.152245">
        <ele>1047.015</ele>
        <time>2021-03-21T08:23:00Z</time>
      </trkpt>
      <trkpt lat="43.169693" lon="-2.152265">
        <ele>1047.353</ele>
        <time>2021-03-21T08:23:02Z</time>
      </trkpt>
      <trkpt lat="43.169703" lon="-2.152291">
        <ele>1047.433</ele>
        <time>2021-03-21T08:23:05Z</time>
      </trkpt>
      <trkpt lat="43.169714" lon="-2.152323">
        <ele>1047.673</ele>
        <time>2021-03-21T08:23:06Z</time>
      </trkpt>
      <trkpt lat="43.169730" lon="-2.152354">
        <ele>1047.963</ele>
        <time>2021-03-21T08:23:08Z</time>
      </trkpt>
      <trkpt lat="43.169747" lon="-2.152385">
        <ele>1048.444</ele>
        <time>2021-03-21T08:23:10Z</time>
      </trkpt>
      <trkpt lat="43.169766" lon="-2.152407">
        <ele>1049.018</ele>
        <time>2021-03-21T08:23:13Z</time>
      </trkpt>
      <trkpt lat="43.169788" lon="-2.152441">
        <ele>1049.708</ele>
        <time>2021-03-21T08:23:15Z</time>
      </trkpt>
      <trkpt lat="43.169803" lon="-2.152459">
        <ele>1050.252</ele>
        <time>2021-03-21T08:23:18Z</time>
      </trkpt>
      <trkpt lat="43.169818" lon="-2.152481">
        <ele>1050.725</ele>
        <time>2021-03-21T08:23:21Z</time>
      </trkpt>
      <trkpt lat="43.169830" lon="-2.152508">
        <ele>1050.948</ele>
        <time>2021-03-21T08:23:23Z</time>
      </trkpt>
      <trkpt lat="43.169843" lon="-2.152524">
        <ele>1051.489</ele>
        <time>2021-03-21T08:23:26Z</time>
      </trkpt>
      <trkpt lat="43.169853" lon="-2.152545">
        <ele>1051.626</ele>
        <time>2021-03-21T08:23:27Z</time>
      </trkpt>
      <trkpt lat="43.169866" lon="-2.152563">
        <ele>1052.154</ele>
        <time>2021-03-21T08:23:29Z</time>
      </trkpt>
      <trkpt lat="43.169886" lon="-2.152586">
        <ele>1052.914</ele>
        <time>2021-03-21T08:23:31Z</time>
      </trkpt>
      <trkpt lat="43.169903" lon="-2.152611">
        <ele>1053.614</ele>
        <time>2021-03-21T08:23:34Z</time>
      </trkpt>
      <trkpt lat="43.169918" lon="-2.152639">
        <ele>1054.335</ele>
        <time>2021-03-21T08:23:35Z</time>
      </trkpt>
      <trkpt lat="43.169928" lon="-2.152665">
        <ele>1054.786</ele>
        <time>2021-03-21T08:23:37Z</time>
      </trkpt>
      <trkpt lat="43.169938" lon="-2.152684">
        <ele>1055.214</ele>
        <time>2021-03-21T08:23:40Z</time>
      </trkpt>
      <trkpt lat="43.169950" lon="-2.152704">
        <ele>1055.908</ele>
        <time>2021-03-21T08:23:41Z</time>
      </trkpt>
      <trkpt lat="43.169963" lon="-2.152727">
        <ele>1056.649</ele>
        <time>2021-03-21T08:23:44Z</time>
      </trkpt>
      <trkpt lat="43.169976" lon="-2.152741">
        <ele>1057.422</ele>
        <time>2021-03-21T08:23:46Z</time>
      </trkpt>
      <trkpt lat="43.169995" lon="-2.152755">
        <ele>1058.755</ele>
        <time>2021-03-21T08:23:49Z</time>
      </trkpt>
      <trkpt lat="43.170004" lon="-2.152774">
        <ele>1059.276</ele>
        <time>2021-03-21T08:23:52Z</time>
      </trkpt>
      <trkpt lat="43.170010" lon="-2.152800">
        <ele>1059.093</ele>
        <time>2021-03-21T08:23:55Z</time>
      </trkpt>
      <trkpt lat="43.170020" lon="-2.152815">
        <ele>1059.231</ele>
        <time>2021-03-21T08:23:57Z</time>
      </trkpt>
      <trkpt lat="43.170043" lon="-2.152832">
        <ele>1060.041</ele>
        <time>2021-03-21T08:24:00Z</time>
      </trkpt>
      <trkpt lat="43.170061" lon="-2.152858">
        <ele>1060.491</ele>
        <time>2021-03-21T08:24:03Z</time>
      </trkpt>
      <trkpt lat="43.170074" lon="-2.152879">
        <ele>1060.713</ele>
        <time>2021-03-21T08:24:06Z</time>
      </trkpt>
      <trkpt lat="43.170086" lon="-2.152901">
        <ele>1060.943</ele>
        <time>2021-03-21T08:24:08Z</time>
      </trkpt>
      <trkpt lat="43.170099" lon="-2.152922">
        <ele>1061.207</ele>
        <time>2021-03-21T08:24:11Z</time>
      </trkpt>
      <trkpt lat="43.170118" lon="-2.152950">
        <ele>1061.808</ele>
        <time>2021-03-21T08:24:13Z</time>
      </trkpt>
      <trkpt lat="43.170130" lon="-2.152975">
        <ele>1062.157</ele>
        <time>2021-03-21T08:24:16Z</time>
      </trkpt>
      <trkpt lat="43.170150" lon="-2.152984">
        <ele>1063.080</ele>
        <time>2021-03-21T08:24:20Z</time>
      </trkpt>
      <trkpt lat="43.170169" lon="-2.152972">
        <ele>1064.173</ele>
        <time>2021-03-21T08:24:23Z</time>
      </trkpt>
      <trkpt lat="43.170192" lon="-2.152959">
        <ele>1065.464</ele>
        <time>2021-03-21T08:24:26Z</time>
      </trkpt>
      <trkpt lat="43.170214" lon="-2.152946">
        <ele>1066.671</ele>
        <time>2021-03-21T08:24:28Z</time>
      </trkpt>
      <trkpt lat="43.170224" lon="-2.152917">
        <ele>1067.419</ele>
        <time>2021-03-21T08:24:32Z</time>
      </trkpt>
      <trkpt lat="43.170220" lon="-2.152885">
        <ele>1067.549</ele>
        <time>2021-03-21T08:24:34Z</time>
      </trkpt>
      <trkpt lat="43.170220" lon="-2.152860">
        <ele>1067.729</ele>
        <time>2021-03-21T08:24:37Z</time>
      </trkpt>
      <trkpt lat="43.170234" lon="-2.152846">
        <ele>1068.566</ele>
        <time>2021-03-21T08:24:42Z</time>
      </trkpt>
      <trkpt lat="43.170233" lon="-2.152821">
        <ele>1068.729</ele>
        <time>2021-03-21T08:24:46Z</time>
      </trkpt>
      <trkpt lat="43.170235" lon="-2.152797">
        <ele>1069.021</ele>
        <time>2021-03-21T08:24:48Z</time>
      </trkpt>
      <trkpt lat="43.170228" lon="-2.152771">
        <ele>1068.708</ele>
        <time>2021-03-21T08:24:52Z</time>
      </trkpt>
      <trkpt lat="43.170236" lon="-2.152741">
        <ele>1068.442</ele>
        <time>2021-03-21T08:24:54Z</time>
      </trkpt>
      <trkpt lat="43.170248" lon="-2.152722">
        <ele>1068.565</ele>
        <time>2021-03-21T08:24:57Z</time>
      </trkpt>
      <trkpt lat="43.170264" lon="-2.152709">
        <ele>1068.898</ele>
        <time>2021-03-21T08:25:02Z</time>
      </trkpt>
      <trkpt lat="43.170270" lon="-2.152679">
        <ele>1068.229</ele>
        <time>2021-03-21T08:25:19Z</time>
      </trkpt>
      <trkpt lat="43.170258" lon="-2.152660">
        <ele>1067.426</ele>
        <time>2021-03-21T08:25:46Z</time>
      </trkpt>
      <trkpt lat="43.170257" lon="-2.152661">
        <ele>1067.454</ele>
        <time>2021-03-21T08:25:51Z</time>
      </trkpt>
      <trkpt lat="43.170256" lon="-2.152664">
        <ele>1067.474</ele>
        <time>2021-03-21T08:26:03Z</time>
      </trkpt>
      <trkpt lat="43.170254" lon="-2.152707">
        <ele>1068.384</ele>
        <time>2021-03-21T08:26:07Z</time>
      </trkpt>
      <trkpt lat="43.170249" lon="-2.152679">
        <ele>1067.557</ele>
        <time>2021-03-21T08:26:17Z</time>
      </trkpt>
      <trkpt lat="43.170264" lon="-2.152688">
        <ele>1068.300</ele>
        <time>2021-03-21T08:26:20Z</time>
      </trkpt>
      <trkpt lat="43.170267" lon="-2.152717">
        <ele>1069.120</ele>
        <time>2021-03-21T08:26:25Z</time>
      </trkpt>
      <trkpt lat="43.170249" lon="-2.152714">
        <ele>1068.308</ele>
        <time>2021-03-21T08:26:45Z</time>
      </trkpt>
      <trkpt lat="43.170227" lon="-2.152731">
        <ele>1067.831</ele>
        <time>2021-03-21T08:26:55Z</time>
      </trkpt>
      <trkpt lat="43.170211" lon="-2.152745">
        <ele>1067.534</ele>
        <time>2021-03-21T08:26:58Z</time>
      </trkpt>
      <trkpt lat="43.170219" lon="-2.152720">
        <ele>1067.317</ele>
        <time>2021-03-21T08:27:03Z</time>
      </trkpt>
      <trkpt lat="43.170222" lon="-2.152686">
        <ele>1066.758</ele>
        <time>2021-03-21T08:27:04Z</time>
      </trkpt>
      <trkpt lat="43.170214" lon="-2.152656">
        <ele>1065.975</ele>
        <time>2021-03-21T08:27:06Z</time>
      </trkpt>
      <trkpt lat="43.170215" lon="-2.152639">
        <ele>1065.683</ele>
        <time>2021-03-21T08:27:09Z</time>
      </trkpt>
      <trkpt lat="43.170216" lon="-2.152608">
        <ele>1065.023</ele>
        <time>2021-03-21T08:27:12Z</time>
      </trkpt>
      <trkpt lat="43.170202" lon="-2.152580">
        <ele>1064.123</ele>
        <time>2021-03-21T08:27:17Z</time>
      </trkpt>
      <trkpt lat="43.170212" lon="-2.152544">
        <ele>1063.779</ele>
        <time>2021-03-21T08:27:19Z</time>
      </trkpt>
      <trkpt lat="43.170211" lon="-2.152509">
        <ele>1063.005</ele>
        <time>2021-03-21T08:27:21Z</time>
      </trkpt>
      <trkpt lat="43.170223" lon="-2.152481">
        <ele>1062.625</ele>
        <time>2021-03-21T08:27:26Z</time>
      </trkpt>
      <trkpt lat="43.170215" lon="-2.152460">
        <ele>1062.008</ele>
        <time>2021-03-21T08:27:27Z</time>
      </trkpt>
      <trkpt lat="43.170198" lon="-2.152444">
        <ele>1061.543</ele>
        <time>2021-03-21T08:27:29Z</time>
      </trkpt>
      <trkpt lat="43.170180" lon="-2.152441">
        <ele>1061.396</ele>
        <time>2021-03-21T08:27:31Z</time>
      </trkpt>
      <trkpt lat="43.170168" lon="-2.152440">
        <ele>1061.239</ele>
        <time>2021-03-21T08:27:34Z</time>
      </trkpt>
      <trkpt lat="43.170145" lon="-2.152435">
        <ele>1060.920</ele>
        <time>2021-03-21T08:27:37Z</time>
      </trkpt>
      <trkpt lat="43.170122" lon="-2.152432">
        <ele>1060.697</ele>
        <time>2021-03-21T08:27:39Z</time>
      </trkpt>
      <trkpt lat="43.170102" lon="-2.152429">
        <ele>1060.425</ele>
        <time>2021-03-21T08:27:42Z</time>
      </trkpt>
      <trkpt lat="43.170083" lon="-2.152411">
        <ele>1060.265</ele>
        <time>2021-03-21T08:27:43Z</time>
      </trkpt>
      <trkpt lat="43.170072" lon="-2.152408">
        <ele>1060.135</ele>
        <time>2021-03-21T08:27:44Z</time>
      </trkpt>
      <trkpt lat="43.170043" lon="-2.152407">
        <ele>1059.997</ele>
        <time>2021-03-21T08:27:47Z</time>
      </trkpt>
      <trkpt lat="43.170008" lon="-2.152413">
        <ele>1059.723</ele>
        <time>2021-03-21T08:27:48Z</time>
      </trkpt>
      <trkpt lat="43.169976" lon="-2.152409">
        <ele>1058.625</ele>
        <time>2021-03-21T08:27:50Z</time>
      </trkpt>
      <trkpt lat="43.169955" lon="-2.152401">
        <ele>1057.708</ele>
        <time>2021-03-21T08:27:52Z</time>
      </trkpt>
      <trkpt lat="43.169928" lon="-2.152390">
        <ele>1056.555</ele>
        <time>2021-03-21T08:27:53Z</time>
      </trkpt>
      <trkpt lat="43.169901" lon="-2.152389">
        <ele>1055.348</ele>
        <time>2021-03-21T08:27:54Z</time>
      </trkpt>
      <trkpt lat="43.169874" lon="-2.152391">
        <ele>1054.191</ele>
        <time>2021-03-21T08:27:55Z</time>
      </trkpt>
      <trkpt lat="43.169852" lon="-2.152391">
        <ele>1053.122</ele>
        <time>2021-03-21T08:27:56Z</time>
      </trkpt>
      <trkpt lat="43.169835" lon="-2.152393">
        <ele>1052.349</ele>
        <time>2021-03-21T08:27:57Z</time>
      </trkpt>
      <trkpt lat="43.169811" lon="-2.152384">
        <ele>1051.347</ele>
        <time>2021-03-21T08:27:59Z</time>
      </trkpt>
      <trkpt lat="43.169784" lon="-2.152361">
        <ele>1050.317</ele>
        <time>2021-03-21T08:28:01Z</time>
      </trkpt>
      <trkpt lat="43.169768" lon="-2.152373">
        <ele>1049.477</ele>
        <time>2021-03-21T08:28:03Z</time>
      </trkpt>
      <trkpt lat="43.169747" lon="-2.152381">
        <ele>1048.423</ele>
        <time>2021-03-21T08:28:07Z</time>
      </trkpt>
      <trkpt lat="43.169719" lon="-2.152349">
        <ele>1047.583</ele>
        <time>2021-03-21T08:28:08Z</time>
      </trkpt>
      <trkpt lat="43.169697" lon="-2.152314">
        <ele>1046.911</ele>
        <time>2021-03-21T08:28:11Z</time>
      </trkpt>
      <trkpt lat="43.169682" lon="-2.152287">
        <ele>1046.608</ele>
        <time>2021-03-21T08:28:13Z</time>
      </trkpt>
      <trkpt lat="43.169678" lon="-2.152261">
        <ele>1046.898</ele>
        <time>2021-03-21T08:28:15Z</time>
      </trkpt>
      <trkpt lat="43.169668" lon="-2.152227">
        <ele>1046.811</ele>
        <time>2021-03-21T08:28:16Z</time>
      </trkpt>
      <trkpt lat="43.169658" lon="-2.152212">
        <ele>1046.454</ele>
        <time>2021-03-21T08:28:20Z</time>
      </trkpt>
      <trkpt lat="43.169635" lon="-2.152205">
        <ele>1045.445</ele>
        <time>2021-03-21T08:28:22Z</time>
      </trkpt>
      <trkpt lat="43.169619" lon="-2.152190">
        <ele>1044.832</ele>
        <time>2021-03-21T08:28:25Z</time>
      </trkpt>
      <trkpt lat="43.169602" lon="-2.152170">
        <ele>1044.150</ele>
        <time>2021-03-21T08:28:27Z</time>
      </trkpt>
      <trkpt lat="43.169584" lon="-2.152161">
        <ele>1043.430</ele>
        <time>2021-03-21T08:28:28Z</time>
      </trkpt>
      <trkpt lat="43.169569" lon="-2.152149">
        <ele>1042.950</ele>
        <time>2021-03-21T08:28:30Z</time>
      </trkpt>
      <trkpt lat="43.169553" lon="-2.152139">
        <ele>1042.445</ele>
        <time>2021-03-21T08:28:33Z</time>
      </trkpt>
      <trkpt lat="43.169533" lon="-2.152129">
        <ele>1041.847</ele>
        <time>2021-03-21T08:28:35Z</time>
      </trkpt>
      <trkpt lat="43.169510" lon="-2.152122">
        <ele>1041.111</ele>
        <time>2021-03-21T08:28:37Z</time>
      </trkpt>
      <trkpt lat="43.169486" lon="-2.152109">
        <ele>1040.408</ele>
        <time>2021-03-21T08:28:38Z</time>
      </trkpt>
      <trkpt lat="43.169467" lon="-2.152094">
        <ele>1040.050</ele>
        <time>2021-03-21T08:28:40Z</time>
      </trkpt>
      <trkpt lat="43.169454" lon="-2.152075">
        <ele>1039.813</ele>
        <time>2021-03-21T08:28:42Z</time>
      </trkpt>
      <trkpt lat="43.169439" lon="-2.152049">
        <ele>1039.756</ele>
        <time>2021-03-21T08:28:44Z</time>
      </trkpt>
      <trkpt lat="43.169433" lon="-2.152023">
        <ele>1039.727</ele>
        <time>2021-03-21T08:28:47Z</time>
      </trkpt>
      <trkpt lat="43.169434" lon="-2.151996">
        <ele>1040.024</ele>
        <time>2021-03-21T08:28:49Z</time>
      </trkpt>
      <trkpt lat="43.169438" lon="-2.151964">
        <ele>1040.582</ele>
        <time>2021-03-21T08:28:51Z</time>
      </trkpt>
      <trkpt lat="43.169444" lon="-2.151933">
        <ele>1041.142</ele>
        <time>2021-03-21T08:28:52Z</time>
      </trkpt>
      <trkpt lat="43.169447" lon="-2.151894">
        <ele>1041.672</ele>
        <time>2021-03-21T08:28:55Z</time>
      </trkpt>
      <trkpt lat="43.169448" lon="-2.151855">
        <ele>1042.014</ele>
        <time>2021-03-21T08:28:57Z</time>
      </trkpt>
      <trkpt lat="43.169451" lon="-2.151811">
        <ele>1042.654</ele>
        <time>2021-03-21T08:28:59Z</time>
      </trkpt>
      <trkpt lat="43.169448" lon="-2.151771">
        <ele>1042.909</ele>
        <time>2021-03-21T08:29:01Z</time>
      </trkpt>
      <trkpt lat="43.169434" lon="-2.151737">
        <ele>1042.908</ele>
        <time>2021-03-21T08:29:03Z</time>
      </trkpt>
      <trkpt lat="43.169431" lon="-2.151703">
        <ele>1043.257</ele>
        <time>2021-03-21T08:29:04Z</time>
      </trkpt>
      <trkpt lat="43.169426" lon="-2.151671">
        <ele>1043.410</ele>
        <time>2021-03-21T08:29:06Z</time>
      </trkpt>
      <trkpt lat="43.169420" lon="-2.151642">
        <ele>1043.713</ele>
        <time>2021-03-21T08:29:08Z</time>
      </trkpt>
      <trkpt lat="43.169402" lon="-2.151610">
        <ele>1043.884</ele>
        <time>2021-03-21T08:29:11Z</time>
      </trkpt>
      <trkpt lat="43.169385" lon="-2.151584">
        <ele>1043.861</ele>
        <time>2021-03-21T08:29:13Z</time>
      </trkpt>
      <trkpt lat="43.169377" lon="-2.151551">
        <ele>1044.349</ele>
        <time>2021-03-21T08:29:15Z</time>
      </trkpt>
      <trkpt lat="43.169370" lon="-2.151521">
        <ele>1044.849</ele>
        <time>2021-03-21T08:29:17Z</time>
      </trkpt>
      <trkpt lat="43.169349" lon="-2.151498">
        <ele>1044.859</ele>
        <time>2021-03-21T08:29:19Z</time>
      </trkpt>
      <trkpt lat="43.169338" lon="-2.151470">
        <ele>1045.291</ele>
        <time>2021-03-21T08:29:21Z</time>
      </trkpt>
      <trkpt lat="43.169329" lon="-2.151439">
        <ele>1045.781</ele>
        <time>2021-03-21T08:29:22Z</time>
      </trkpt>
      <trkpt lat="43.169322" lon="-2.151413">
        <ele>1046.219</ele>
        <time>2021-03-21T08:29:25Z</time>
      </trkpt>
      <trkpt lat="43.169320" lon="-2.151387">
        <ele>1046.808</ele>
        <time>2021-03-21T08:29:27Z</time>
      </trkpt>
      <trkpt lat="43.169320" lon="-2.151356">
        <ele>1046.895</ele>
        <time>2021-03-21T08:29:29Z</time>
      </trkpt>
      <trkpt lat="43.169315" lon="-2.151325">
        <ele>1046.798</ele>
        <time>2021-03-21T08:29:30Z</time>
      </trkpt>
      <trkpt lat="43.169315" lon="-2.151308">
        <ele>1046.741</ele>
        <time>2021-03-21T08:29:32Z</time>
      </trkpt>
      <trkpt lat="43.169313" lon="-2.151272">
        <ele>1046.622</ele>
        <time>2021-03-21T08:29:33Z</time>
      </trkpt>
      <trkpt lat="43.169303" lon="-2.151214">
        <ele>1046.589</ele>
        <time>2021-03-21T08:29:36Z</time>
      </trkpt>
      <trkpt lat="43.169290" lon="-2.151178">
        <ele>1046.277</ele>
        <time>2021-03-21T08:29:38Z</time>
      </trkpt>
      <trkpt lat="43.169276" lon="-2.151141">
        <ele>1046.017</ele>
        <time>2021-03-21T08:29:41Z</time>
      </trkpt>
      <trkpt lat="43.169262" lon="-2.151105">
        <ele>1045.657</ele>
        <time>2021-03-21T08:29:42Z</time>
      </trkpt>
      <trkpt lat="43.169248" lon="-2.151070">
        <ele>1045.083</ele>
        <time>2021-03-21T08:29:44Z</time>
      </trkpt>
      <trkpt lat="43.169238" lon="-2.151035">
        <ele>1044.525</ele>
        <time>2021-03-21T08:29:47Z</time>
      </trkpt>
      <trkpt lat="43.169224" lon="-2.151000">
        <ele>1044.117</ele>
        <time>2021-03-21T08:29:49Z</time>
      </trkpt>
      <trkpt lat="43.169205" lon="-2.150967">
        <ele>1043.908</ele>
        <time>2021-03-21T08:29:50Z</time>
      </trkpt>
      <trkpt lat="43.169185" lon="-2.150938">
        <ele>1043.954</ele>
        <time>2021-03-21T08:29:53Z</time>
      </trkpt>
      <trkpt lat="43.169168" lon="-2.150909">
        <ele>1044.017</ele>
        <time>2021-03-21T08:29:55Z</time>
      </trkpt>
      <trkpt lat="43.169156" lon="-2.150879">
        <ele>1043.650</ele>
        <time>2021-03-21T08:29:56Z</time>
      </trkpt>
      <trkpt lat="43.169140" lon="-2.150854">
        <ele>1043.151</ele>
        <time>2021-03-21T08:29:58Z</time>
      </trkpt>
      <trkpt lat="43.169129" lon="-2.150842">
        <ele>1042.818</ele>
        <time>2021-03-21T08:29:59Z</time>
      </trkpt>
      <trkpt lat="43.169102" lon="-2.150821">
        <ele>1041.836</ele>
        <time>2021-03-21T08:30:02Z</time>
      </trkpt>
      <trkpt lat="43.169083" lon="-2.150813">
        <ele>1041.116</ele>
        <time>2021-03-21T08:30:03Z</time>
      </trkpt>
      <trkpt lat="43.169043" lon="-2.150786">
        <ele>1039.956</ele>
        <time>2021-03-21T08:30:04Z</time>
      </trkpt>
      <trkpt lat="43.169026" lon="-2.150768">
        <ele>1039.541</ele>
        <time>2021-03-21T08:30:05Z</time>
      </trkpt>
      <trkpt lat="43.169018" lon="-2.150729">
        <ele>1039.381</ele>
        <time>2021-03-21T08:30:07Z</time>
      </trkpt>
      <trkpt lat="43.169004" lon="-2.150689">
        <ele>1039.209</ele>
        <time>2021-03-21T08:30:09Z</time>
      </trkpt>
      <trkpt lat="43.168993" lon="-2.150664">
        <ele>1039.108</ele>
        <time>2021-03-21T08:30:11Z</time>
      </trkpt>
      <trkpt lat="43.168979" lon="-2.150639">
        <ele>1039.150</ele>
        <time>2021-03-21T08:30:12Z</time>
      </trkpt>
      <trkpt lat="43.168971" lon="-2.150614">
        <ele>1039.363</ele>
        <time>2021-03-21T08:30:14Z</time>
      </trkpt>
      <trkpt lat="43.168965" lon="-2.150571">
        <ele>1039.646</ele>
        <time>2021-03-21T08:30:17Z</time>
      </trkpt>
      <trkpt lat="43.168949" lon="-2.150537">
        <ele>1039.617</ele>
        <time>2021-03-21T08:30:19Z</time>
      </trkpt>
      <trkpt lat="43.168933" lon="-2.150512">
        <ele>1039.594</ele>
        <time>2021-03-21T08:30:21Z</time>
      </trkpt>
      <trkpt lat="43.168922" lon="-2.150494">
        <ele>1039.412</ele>
        <time>2021-03-21T08:30:24Z</time>
      </trkpt>
      <trkpt lat="43.168917" lon="-2.150466">
        <ele>1039.332</ele>
        <time>2021-03-21T08:30:27Z</time>
      </trkpt>
      <trkpt lat="43.168911" lon="-2.150433">
        <ele>1039.252</ele>
        <time>2021-03-21T08:30:29Z</time>
      </trkpt>
      <trkpt lat="43.168903" lon="-2.150404">
        <ele>1039.289</ele>
        <time>2021-03-21T08:30:30Z</time>
      </trkpt>
      <trkpt lat="43.168892" lon="-2.150378">
        <ele>1039.306</ele>
        <time>2021-03-21T08:30:33Z</time>
      </trkpt>
      <trkpt lat="43.168882" lon="-2.150344">
        <ele>1039.126</ele>
        <time>2021-03-21T08:30:35Z</time>
      </trkpt>
      <trkpt lat="43.168862" lon="-2.150301">
        <ele>1038.508</ele>
        <time>2021-03-21T08:30:37Z</time>
      </trkpt>
      <trkpt lat="43.168851" lon="-2.150279">
        <ele>1038.224</ele>
        <time>2021-03-21T08:30:38Z</time>
      </trkpt>
      <trkpt lat="43.168842" lon="-2.150258">
        <ele>1037.347</ele>
        <time>2021-03-21T08:30:39Z</time>
      </trkpt>
      <trkpt lat="43.168822" lon="-2.150215">
        <ele>1035.770</ele>
        <time>2021-03-21T08:30:40Z</time>
      </trkpt>
      <trkpt lat="43.168808" lon="-2.150193">
        <ele>1035.071</ele>
        <time>2021-03-21T08:30:42Z</time>
      </trkpt>
      <trkpt lat="43.168795" lon="-2.150173">
        <ele>1034.458</ele>
        <time>2021-03-21T08:30:43Z</time>
      </trkpt>
      <trkpt lat="43.168765" lon="-2.150119">
        <ele>1033.136</ele>
        <time>2021-03-21T08:30:45Z</time>
      </trkpt>
      <trkpt lat="43.168748" lon="-2.150088">
        <ele>1032.636</ele>
        <time>2021-03-21T08:30:47Z</time>
      </trkpt>
      <trkpt lat="43.168733" lon="-2.150049">
        <ele>1032.126</ele>
        <time>2021-03-21T08:30:50Z</time>
      </trkpt>
      <trkpt lat="43.168700" lon="-2.149995">
        <ele>1032.032</ele>
        <time>2021-03-21T08:30:52Z</time>
      </trkpt>
      <trkpt lat="43.168684" lon="-2.149949">
        <ele>1031.692</ele>
        <time>2021-03-21T08:30:54Z</time>
      </trkpt>
      <trkpt lat="43.168674" lon="-2.149928">
        <ele>1031.611</ele>
        <time>2021-03-21T08:30:56Z</time>
      </trkpt>
      <trkpt lat="43.168654" lon="-2.149889">
        <ele>1031.708</ele>
        <time>2021-03-21T08:30:57Z</time>
      </trkpt>
      <trkpt lat="43.168646" lon="-2.149868">
        <ele>1031.849</ele>
        <time>2021-03-21T08:30:58Z</time>
      </trkpt>
      <trkpt lat="43.168629" lon="-2.149832">
        <ele>1032.182</ele>
        <time>2021-03-21T08:31:00Z</time>
      </trkpt>
      <trkpt lat="43.168616" lon="-2.149810">
        <ele>1032.475</ele>
        <time>2021-03-21T08:31:02Z</time>
      </trkpt>
      <trkpt lat="43.168584" lon="-2.149775">
        <ele>1031.146</ele>
        <time>2021-03-21T08:31:03Z</time>
      </trkpt>
      <trkpt lat="43.168559" lon="-2.149721">
        <ele>1029.753</ele>
        <time>2021-03-21T08:31:05Z</time>
      </trkpt>
      <trkpt lat="43.168541" lon="-2.149694">
        <ele>1028.911</ele>
        <time>2021-03-21T08:31:07Z</time>
      </trkpt>
      <trkpt lat="43.168506" lon="-2.149643">
        <ele>1027.651</ele>
        <time>2021-03-21T08:31:08Z</time>
      </trkpt>
      <trkpt lat="43.168487" lon="-2.149613">
        <ele>1027.191</ele>
        <time>2021-03-21T08:31:09Z</time>
      </trkpt>
      <trkpt lat="43.168459" lon="-2.149554">
        <ele>1026.555</ele>
        <time>2021-03-21T08:31:11Z</time>
      </trkpt>
      <trkpt lat="43.168430" lon="-2.149502">
        <ele>1026.207</ele>
        <time>2021-03-21T08:31:13Z</time>
      </trkpt>
      <trkpt lat="43.168416" lon="-2.149475">
        <ele>1026.217</ele>
        <time>2021-03-21T08:31:15Z</time>
      </trkpt>
      <trkpt lat="43.168399" lon="-2.149424">
        <ele>1026.308</ele>
        <time>2021-03-21T08:31:16Z</time>
      </trkpt>
      <trkpt lat="43.168395" lon="-2.149400">
        <ele>1026.411</ele>
        <time>2021-03-21T08:31:18Z</time>
      </trkpt>
      <trkpt lat="43.168394" lon="-2.149372">
        <ele>1026.594</ele>
        <time>2021-03-21T08:31:19Z</time>
      </trkpt>
      <trkpt lat="43.168393" lon="-2.149345">
        <ele>1026.787</ele>
        <time>2021-03-21T08:31:20Z</time>
      </trkpt>
      <trkpt lat="43.168385" lon="-2.149295">
        <ele>1026.928</ele>
        <time>2021-03-21T08:31:21Z</time>
      </trkpt>
      <trkpt lat="43.168380" lon="-2.149266">
        <ele>1027.155</ele>
        <time>2021-03-21T08:31:22Z</time>
      </trkpt>
      <trkpt lat="43.168372" lon="-2.149234">
        <ele>1027.393</ele>
        <time>2021-03-21T08:31:23Z</time>
      </trkpt>
      <trkpt lat="43.168364" lon="-2.149204">
        <ele>1027.673</ele>
        <time>2021-03-21T08:31:25Z</time>
      </trkpt>
      <trkpt lat="43.168360" lon="-2.149176">
        <ele>1027.833</ele>
        <time>2021-03-21T08:31:26Z</time>
      </trkpt>
      <trkpt lat="43.168331" lon="-2.149117">
        <ele>1028.436</ele>
        <time>2021-03-21T08:31:28Z</time>
      </trkpt>
      <trkpt lat="43.168312" lon="-2.149075">
        <ele>1027.917</ele>
        <time>2021-03-21T08:31:30Z</time>
      </trkpt>
      <trkpt lat="43.168287" lon="-2.149018">
        <ele>1027.518</ele>
        <time>2021-03-21T08:31:32Z</time>
      </trkpt>
      <trkpt lat="43.168268" lon="-2.148991">
        <ele>1027.008</ele>
        <time>2021-03-21T08:31:34Z</time>
      </trkpt>
      <trkpt lat="43.168227" lon="-2.148942">
        <ele>1025.979</ele>
        <time>2021-03-21T08:31:35Z</time>
      </trkpt>
      <trkpt lat="43.168212" lon="-2.148913">
        <ele>1025.842</ele>
        <time>2021-03-21T08:31:36Z</time>
      </trkpt>
      <trkpt lat="43.168185" lon="-2.148870">
        <ele>1025.495</ele>
        <time>2021-03-21T08:31:38Z</time>
      </trkpt>
      <trkpt lat="43.168176" lon="-2.148834">
        <ele>1025.586</ele>
        <time>2021-03-21T08:31:40Z</time>
      </trkpt>
      <trkpt lat="43.168168" lon="-2.148801">
        <ele>1025.783</ele>
        <time>2021-03-21T08:31:43Z</time>
      </trkpt>
      <trkpt lat="43.168165" lon="-2.148766">
        <ele>1026.121</ele>
        <time>2021-03-21T08:31:44Z</time>
      </trkpt>
      <trkpt lat="43.168161" lon="-2.148738">
        <ele>1026.541</ele>
        <time>2021-03-21T08:31:46Z</time>
      </trkpt>
      <trkpt lat="43.168148" lon="-2.148709">
        <ele>1026.791</ele>
        <time>2021-03-21T08:31:49Z</time>
      </trkpt>
      <trkpt lat="43.168128" lon="-2.148665">
        <ele>1027.298</ele>
        <time>2021-03-21T08:31:50Z</time>
      </trkpt>
      <trkpt lat="43.168114" lon="-2.148612">
        <ele>1028.215</ele>
        <time>2021-03-21T08:31:52Z</time>
      </trkpt>
      <trkpt lat="43.168107" lon="-2.148573">
        <ele>1028.426</ele>
        <time>2021-03-21T08:31:55Z</time>
      </trkpt>
      <trkpt lat="43.168102" lon="-2.148531">
        <ele>1028.608</ele>
        <time>2021-03-21T08:31:57Z</time>
      </trkpt>
      <trkpt lat="43.168095" lon="-2.148499">
        <ele>1028.835</ele>
        <time>2021-03-21T08:31:58Z</time>
      </trkpt>
      <trkpt lat="43.168078" lon="-2.148470">
        <ele>1029.288</ele>
        <time>2021-03-21T08:31:59Z</time>
      </trkpt>
      <trkpt lat="43.168040" lon="-2.148416">
        <ele>1029.751</ele>
        <time>2021-03-21T08:32:00Z</time>
      </trkpt>
      <trkpt lat="43.168021" lon="-2.148384">
        <ele>1029.662</ele>
        <time>2021-03-21T08:32:02Z</time>
      </trkpt>
      <trkpt lat="43.168003" lon="-2.148357">
        <ele>1029.579</ele>
        <time>2021-03-21T08:32:03Z</time>
      </trkpt>
      <trkpt lat="43.167984" lon="-2.148306">
        <ele>1029.667</ele>
        <time>2021-03-21T08:32:04Z</time>
      </trkpt>
      <trkpt lat="43.167962" lon="-2.148271">
        <ele>1029.557</ele>
        <time>2021-03-21T08:32:06Z</time>
      </trkpt>
      <trkpt lat="43.167940" lon="-2.148260">
        <ele>1029.357</ele>
        <time>2021-03-21T08:32:08Z</time>
      </trkpt>
      <trkpt lat="43.167911" lon="-2.148259">
        <ele>1029.015</ele>
        <time>2021-03-21T08:32:10Z</time>
      </trkpt>
      <trkpt lat="43.167886" lon="-2.148249">
        <ele>1028.965</ele>
        <time>2021-03-21T08:32:13Z</time>
      </trkpt>
      <trkpt lat="43.167869" lon="-2.148222">
        <ele>1029.311</ele>
        <time>2021-03-21T08:32:15Z</time>
      </trkpt>
      <trkpt lat="43.167852" lon="-2.148209">
        <ele>1029.408</ele>
        <time>2021-03-21T08:32:18Z</time>
      </trkpt>
      <trkpt lat="43.167826" lon="-2.148182">
        <ele>1030.057</ele>
        <time>2021-03-21T08:32:20Z</time>
      </trkpt>
      <trkpt lat="43.167800" lon="-2.148149">
        <ele>1030.990</ele>
        <time>2021-03-21T08:32:21Z</time>
      </trkpt>
      <trkpt lat="43.167788" lon="-2.148128">
        <ele>1031.643</ele>
        <time>2021-03-21T08:32:22Z</time>
      </trkpt>
      <trkpt lat="43.167778" lon="-2.148107">
        <ele>1032.374</ele>
        <time>2021-03-21T08:32:24Z</time>
      </trkpt>
      <trkpt lat="43.167756" lon="-2.148067">
        <ele>1033.061</ele>
        <time>2021-03-21T08:32:26Z</time>
      </trkpt>
      <trkpt lat="43.167744" lon="-2.148047">
        <ele>1033.239</ele>
        <time>2021-03-21T08:32:28Z</time>
      </trkpt>
      <trkpt lat="43.167720" lon="-2.148021">
        <ele>1033.089</ele>
        <time>2021-03-21T08:32:30Z</time>
      </trkpt>
      <trkpt lat="43.167693" lon="-2.147992">
        <ele>1032.959</ele>
        <time>2021-03-21T08:32:32Z</time>
      </trkpt>
      <trkpt lat="43.167666" lon="-2.147986">
        <ele>1032.443</ele>
        <time>2021-03-21T08:32:33Z</time>
      </trkpt>
      <trkpt lat="43.167621" lon="-2.147989">
        <ele>1031.364</ele>
        <time>2021-03-21T08:32:35Z</time>
      </trkpt>
      <trkpt lat="43.167602" lon="-2.147990">
        <ele>1030.810</ele>
        <time>2021-03-21T08:32:36Z</time>
      </trkpt>
      <trkpt lat="43.167570" lon="-2.147988">
        <ele>1030.108</ele>
        <time>2021-03-21T08:32:38Z</time>
      </trkpt>
      <trkpt lat="43.167542" lon="-2.147983">
        <ele>1029.630</ele>
        <time>2021-03-21T08:32:40Z</time>
      </trkpt>
      <trkpt lat="43.167522" lon="-2.147976">
        <ele>1029.483</ele>
        <time>2021-03-21T08:32:41Z</time>
      </trkpt>
      <trkpt lat="43.167497" lon="-2.147965">
        <ele>1029.226</ele>
        <time>2021-03-21T08:32:43Z</time>
      </trkpt>
      <trkpt lat="43.167473" lon="-2.147952">
        <ele>1029.147</ele>
        <time>2021-03-21T08:32:44Z</time>
      </trkpt>
      <trkpt lat="43.167451" lon="-2.147944">
        <ele>1028.944</ele>
        <time>2021-03-21T08:32:45Z</time>
      </trkpt>
      <trkpt lat="43.167423" lon="-2.147934">
        <ele>1028.692</ele>
        <time>2021-03-21T08:32:46Z</time>
      </trkpt>
      <trkpt lat="43.167396" lon="-2.147924">
        <ele>1028.332</ele>
        <time>2021-03-21T08:32:47Z</time>
      </trkpt>
      <trkpt lat="43.167353" lon="-2.147904">
        <ele>1028.062</ele>
        <time>2021-03-21T08:32:48Z</time>
      </trkpt>
      <trkpt lat="43.167333" lon="-2.147887">
        <ele>1028.178</ele>
        <time>2021-03-21T08:32:50Z</time>
      </trkpt>
      <trkpt lat="43.167290" lon="-2.147862">
        <ele>1027.933</ele>
        <time>2021-03-21T08:32:51Z</time>
      </trkpt>
      <trkpt lat="43.167267" lon="-2.147850">
        <ele>1027.726</ele>
        <time>2021-03-21T08:32:53Z</time>
      </trkpt>
      <trkpt lat="43.167243" lon="-2.147838">
        <ele>1027.608</ele>
        <time>2021-03-21T08:32:54Z</time>
      </trkpt>
      <trkpt lat="43.167194" lon="-2.147821">
        <ele>1027.163</ele>
        <time>2021-03-21T08:32:55Z</time>
      </trkpt>
      <trkpt lat="43.167171" lon="-2.147806">
        <ele>1027.226</ele>
        <time>2021-03-21T08:32:57Z</time>
      </trkpt>
      <trkpt lat="43.167126" lon="-2.147780">
        <ele>1027.279</ele>
        <time>2021-03-21T08:32:58Z</time>
      </trkpt>
      <trkpt lat="43.167105" lon="-2.147771">
        <ele>1027.170</ele>
        <time>2021-03-21T08:33:00Z</time>
      </trkpt>
      <trkpt lat="43.167054" lon="-2.147754">
        <ele>1026.737</ele>
        <time>2021-03-21T08:33:01Z</time>
      </trkpt>
      <trkpt lat="43.167027" lon="-2.147741">
        <ele>1026.675</ele>
        <time>2021-03-21T08:33:03Z</time>
      </trkpt>
      <trkpt lat="43.166973" lon="-2.147714">
        <ele>1026.415</ele>
        <time>2021-03-21T08:33:04Z</time>
      </trkpt>
      <trkpt lat="43.166949" lon="-2.147700">
        <ele>1026.375</ele>
        <time>2021-03-21T08:33:05Z</time>
      </trkpt>
      <trkpt lat="43.166897" lon="-2.147682">
        <ele>1026.064</ele>
        <time>2021-03-21T08:33:07Z</time>
      </trkpt>
      <trkpt lat="43.166872" lon="-2.147669">
        <ele>1026.006</ele>
        <time>2021-03-21T08:33:09Z</time>
      </trkpt>
      <trkpt lat="43.166824" lon="-2.147641">
        <ele>1026.016</ele>
        <time>2021-03-21T08:33:10Z</time>
      </trkpt>
      <trkpt lat="43.166795" lon="-2.147629">
        <ele>1025.808</ele>
        <time>2021-03-21T08:33:12Z</time>
      </trkpt>
      <trkpt lat="43.166768" lon="-2.147620">
        <ele>1025.692</ele>
        <time>2021-03-21T08:33:13Z</time>
      </trkpt>
      <trkpt lat="43.166723" lon="-2.147599">
        <ele>1025.435</ele>
        <time>2021-03-21T08:33:14Z</time>
      </trkpt>
      <trkpt lat="43.166702" lon="-2.147591">
        <ele>1025.318</ele>
        <time>2021-03-21T08:33:15Z</time>
      </trkpt>
      <trkpt lat="43.166681" lon="-2.147585">
        <ele>1025.189</ele>
        <time>2021-03-21T08:33:16Z</time>
      </trkpt>
      <trkpt lat="43.166626" lon="-2.147569">
        <ele>1024.596</ele>
        <time>2021-03-21T08:33:18Z</time>
      </trkpt>
      <trkpt lat="43.166597" lon="-2.147561">
        <ele>1024.284</ele>
        <time>2021-03-21T08:33:19Z</time>
      </trkpt>
      <trkpt lat="43.166546" lon="-2.147531">
        <ele>1024.044</ele>
        <time>2021-03-21T08:33:21Z</time>
      </trkpt>
      <trkpt lat="43.166495" lon="-2.147504">
        <ele>1023.894</ele>
        <time>2021-03-21T08:33:23Z</time>
      </trkpt>
      <trkpt lat="43.166469" lon="-2.147485">
        <ele>1023.863</ele>
        <time>2021-03-21T08:33:24Z</time>
      </trkpt>
      <trkpt lat="43.166443" lon="-2.147473">
        <ele>1023.744</ele>
        <time>2021-03-21T08:33:25Z</time>
      </trkpt>
      <trkpt lat="43.166412" lon="-2.147465">
        <ele>1023.318</ele>
        <time>2021-03-21T08:33:26Z</time>
      </trkpt>
      <trkpt lat="43.166381" lon="-2.147452">
        <ele>1023.008</ele>
        <time>2021-03-21T08:33:28Z</time>
      </trkpt>
      <trkpt lat="43.166331" lon="-2.147418">
        <ele>1022.832</ele>
        <time>2021-03-21T08:33:29Z</time>
      </trkpt>
      <trkpt lat="43.166307" lon="-2.147402">
        <ele>1022.635</ele>
        <time>2021-03-21T08:33:31Z</time>
      </trkpt>
      <trkpt lat="43.166284" lon="-2.147385">
        <ele>1022.528</ele>
        <time>2021-03-21T08:33:32Z</time>
      </trkpt>
      <trkpt lat="43.166259" lon="-2.147368">
        <ele>1022.319</ele>
        <time>2021-03-21T08:33:33Z</time>
      </trkpt>
      <trkpt lat="43.166217" lon="-2.147340">
        <ele>1022.086</ele>
        <time>2021-03-21T08:33:34Z</time>
      </trkpt>
      <trkpt lat="43.166189" lon="-2.147333">
        <ele>1021.564</ele>
        <time>2021-03-21T08:33:37Z</time>
      </trkpt>
      <trkpt lat="43.166157" lon="-2.147329">
        <ele>1020.894</ele>
        <time>2021-03-21T08:33:39Z</time>
      </trkpt>
      <trkpt lat="43.166132" lon="-2.147313">
        <ele>1020.564</ele>
        <time>2021-03-21T08:33:40Z</time>
      </trkpt>
      <trkpt lat="43.166084" lon="-2.147270">
        <ele>1020.283</ele>
        <time>2021-03-21T08:33:41Z</time>
      </trkpt>
      <trkpt lat="43.166036" lon="-2.147229">
        <ele>1019.725</ele>
        <time>2021-03-21T08:33:43Z</time>
      </trkpt>
      <trkpt lat="43.166009" lon="-2.147214">
        <ele>1019.217</ele>
        <time>2021-03-21T08:33:44Z</time>
      </trkpt>
      <trkpt lat="43.165983" lon="-2.147199">
        <ele>1018.808</ele>
        <time>2021-03-21T08:33:45Z</time>
      </trkpt>
      <trkpt lat="43.165954" lon="-2.147180">
        <ele>1018.394</ele>
        <time>2021-03-21T08:33:46Z</time>
      </trkpt>
      <trkpt lat="43.165925" lon="-2.147159">
        <ele>1017.957</ele>
        <time>2021-03-21T08:33:48Z</time>
      </trkpt>
      <trkpt lat="43.165873" lon="-2.147106">
        <ele>1017.320</ele>
        <time>2021-03-21T08:33:49Z</time>
      </trkpt>
      <trkpt lat="43.165851" lon="-2.147075">
        <ele>1017.231</ele>
        <time>2021-03-21T08:33:51Z</time>
      </trkpt>
      <trkpt lat="43.165832" lon="-2.147041">
        <ele>1017.278</ele>
        <time>2021-03-21T08:33:52Z</time>
      </trkpt>
      <trkpt lat="43.165817" lon="-2.147003">
        <ele>1017.556</ele>
        <time>2021-03-21T08:33:53Z</time>
      </trkpt>
      <trkpt lat="43.165787" lon="-2.146938">
        <ele>1017.886</ele>
        <time>2021-03-21T08:33:54Z</time>
      </trkpt>
      <trkpt lat="43.165768" lon="-2.146913">
        <ele>1017.886</ele>
        <time>2021-03-21T08:33:55Z</time>
      </trkpt>
      <trkpt lat="43.165708" lon="-2.146870">
        <ele>1017.191</ele>
        <time>2021-03-21T08:33:57Z</time>
      </trkpt>
      <trkpt lat="43.165673" lon="-2.146847">
        <ele>1016.781</ele>
        <time>2021-03-21T08:33:59Z</time>
      </trkpt>
      <trkpt lat="43.165600" lon="-2.146812">
        <ele>1015.519</ele>
        <time>2021-03-21T08:34:00Z</time>
      </trkpt>
      <trkpt lat="43.165524" lon="-2.146799">
        <ele>1014.208</ele>
        <time>2021-03-21T08:34:02Z</time>
      </trkpt>
      <trkpt lat="43.165487" lon="-2.146800">
        <ele>1013.775</ele>
        <time>2021-03-21T08:34:04Z</time>
      </trkpt>
      <trkpt lat="43.165415" lon="-2.146801">
        <ele>1012.688</ele>
        <time>2021-03-21T08:34:05Z</time>
      </trkpt>
      <trkpt lat="43.165352" lon="-2.146787">
        <ele>1012.071</ele>
        <time>2021-03-21T08:34:07Z</time>
      </trkpt>
      <trkpt lat="43.165302" lon="-2.146769">
        <ele>1011.842</ele>
        <time>2021-03-21T08:34:09Z</time>
      </trkpt>
      <trkpt lat="43.165279" lon="-2.146764">
        <ele>1011.679</ele>
        <time>2021-03-21T08:34:11Z</time>
      </trkpt>
      <trkpt lat="43.165230" lon="-2.146755">
        <ele>1010.547</ele>
        <time>2021-03-21T08:34:12Z</time>
      </trkpt>
      <trkpt lat="43.165202" lon="-2.146746">
        <ele>1009.927</ele>
        <time>2021-03-21T08:34:14Z</time>
      </trkpt>
      <trkpt lat="43.165147" lon="-2.146726">
        <ele>1008.887</ele>
        <time>2021-03-21T08:34:15Z</time>
      </trkpt>
      <trkpt lat="43.165124" lon="-2.146709">
        <ele>1008.674</ele>
        <time>2021-03-21T08:34:17Z</time>
      </trkpt>
      <trkpt lat="43.165099" lon="-2.146692">
        <ele>1008.356</ele>
        <time>2021-03-21T08:34:18Z</time>
      </trkpt>
      <trkpt lat="43.165070" lon="-2.146678">
        <ele>1007.821</ele>
        <time>2021-03-21T08:34:19Z</time>
      </trkpt>
      <trkpt lat="43.165042" lon="-2.146662">
        <ele>1007.308</ele>
        <time>2021-03-21T08:34:20Z</time>
      </trkpt>
      <trkpt lat="43.165017" lon="-2.146643">
        <ele>1007.053</ele>
        <time>2021-03-21T08:34:21Z</time>
      </trkpt>
      <trkpt lat="43.164991" lon="-2.146624">
        <ele>1006.746</ele>
        <time>2021-03-21T08:34:22Z</time>
      </trkpt>
      <trkpt lat="43.164941" lon="-2.146595">
        <ele>1006.199</ele>
        <time>2021-03-21T08:34:23Z</time>
      </trkpt>
      <trkpt lat="43.164916" lon="-2.146579">
        <ele>1005.810</ele>
        <time>2021-03-21T08:34:25Z</time>
      </trkpt>
      <trkpt lat="43.164869" lon="-2.146548">
        <ele>1005.367</ele>
        <time>2021-03-21T08:34:26Z</time>
      </trkpt>
      <trkpt lat="43.164847" lon="-2.146535">
        <ele>1005.055</ele>
        <time>2021-03-21T08:34:28Z</time>
      </trkpt>
      <trkpt lat="43.164826" lon="-2.146521">
        <ele>1004.865</ele>
        <time>2021-03-21T08:34:29Z</time>
      </trkpt>
      <trkpt lat="43.164781" lon="-2.146491">
        <ele>1004.345</ele>
        <time>2021-03-21T08:34:30Z</time>
      </trkpt>
      <trkpt lat="43.164755" lon="-2.146467">
        <ele>1004.131</ele>
        <time>2021-03-21T08:34:32Z</time>
      </trkpt>
      <trkpt lat="43.164704" lon="-2.146419">
        <ele>1003.961</ele>
        <time>2021-03-21T08:34:33Z</time>
      </trkpt>
      <trkpt lat="43.164675" lon="-2.146401">
        <ele>1003.507</ele>
        <time>2021-03-21T08:34:34Z</time>
      </trkpt>
      <trkpt lat="43.164628" lon="-2.146360">
        <ele>1003.108</ele>
        <time>2021-03-21T08:34:36Z</time>
      </trkpt>
      <trkpt lat="43.164606" lon="-2.146342">
        <ele>1002.859</ele>
        <time>2021-03-21T08:34:38Z</time>
      </trkpt>
      <trkpt lat="43.164562" lon="-2.146310">
        <ele>1002.282</ele>
        <time>2021-03-21T08:34:39Z</time>
      </trkpt>
      <trkpt lat="43.164533" lon="-2.146288">
        <ele>1001.855</ele>
        <time>2021-03-21T08:34:40Z</time>
      </trkpt>
      <trkpt lat="43.164505" lon="-2.146265">
        <ele>1001.426</ele>
        <time>2021-03-21T08:34:42Z</time>
      </trkpt>
      <trkpt lat="43.164479" lon="-2.146240">
        <ele>1001.193</ele>
        <time>2021-03-21T08:34:43Z</time>
      </trkpt>
      <trkpt lat="43.164458" lon="-2.146218">
        <ele>1000.841</ele>
        <time>2021-03-21T08:34:44Z</time>
      </trkpt>
      <trkpt lat="43.164410" lon="-2.146164">
        <ele>1000.221</ele>
        <time>2021-03-21T08:34:45Z</time>
      </trkpt>
      <trkpt lat="43.164382" lon="-2.146140">
        <ele>999.751</ele>
        <time>2021-03-21T08:34:46Z</time>
      </trkpt>
      <trkpt lat="43.164331" lon="-2.146088">
        <ele>999.135</ele>
        <time>2021-03-21T08:34:48Z</time>
      </trkpt>
      <trkpt lat="43.164305" lon="-2.146065">
        <ele>998.786</ele>
        <time>2021-03-21T08:34:50Z</time>
      </trkpt>
      <trkpt lat="43.164284" lon="-2.146041">
        <ele>998.514</ele>
        <time>2021-03-21T08:34:51Z</time>
      </trkpt>
      <trkpt lat="43.164262" lon="-2.146012">
        <ele>998.308</ele>
        <time>2021-03-21T08:34:52Z</time>
      </trkpt>
      <trkpt lat="43.164218" lon="-2.145954">
        <ele>997.899</ele>
        <time>2021-03-21T08:34:53Z</time>
      </trkpt>
      <trkpt lat="43.164196" lon="-2.145922">
        <ele>997.642</ele>
        <time>2021-03-21T08:34:55Z</time>
      </trkpt>
      <trkpt lat="43.164147" lon="-2.145857">
        <ele>996.985</ele>
        <time>2021-03-21T08:34:56Z</time>
      </trkpt>
      <trkpt lat="43.164124" lon="-2.145825">
        <ele>996.626</ele>
        <time>2021-03-21T08:34:58Z</time>
      </trkpt>
      <trkpt lat="43.164086" lon="-2.145761">
        <ele>996.073</ele>
        <time>2021-03-21T08:34:59Z</time>
      </trkpt>
      <trkpt lat="43.164064" lon="-2.145728">
        <ele>995.641</ele>
        <time>2021-03-21T08:35:01Z</time>
      </trkpt>
      <trkpt lat="43.164041" lon="-2.145696">
        <ele>995.291</ele>
        <time>2021-03-21T08:35:02Z</time>
      </trkpt>
      <trkpt lat="43.164013" lon="-2.145664">
        <ele>994.621</ele>
        <time>2021-03-21T08:35:03Z</time>
      </trkpt>
      <trkpt lat="43.163964" lon="-2.145605">
        <ele>993.856</ele>
        <time>2021-03-21T08:35:04Z</time>
      </trkpt>
      <trkpt lat="43.163919" lon="-2.145544">
        <ele>993.159</ele>
        <time>2021-03-21T08:35:06Z</time>
      </trkpt>
      <trkpt lat="43.163875" lon="-2.145492">
        <ele>991.914</ele>
        <time>2021-03-21T08:35:08Z</time>
      </trkpt>
      <trkpt lat="43.163856" lon="-2.145466">
        <ele>991.208</ele>
        <time>2021-03-21T08:35:10Z</time>
      </trkpt>
      <trkpt lat="43.163810" lon="-2.145415">
        <ele>989.611</ele>
        <time>2021-03-21T08:35:11Z</time>
      </trkpt>
      <trkpt lat="43.163785" lon="-2.145394">
        <ele>988.784</ele>
        <time>2021-03-21T08:35:13Z</time>
      </trkpt>
      <trkpt lat="43.163767" lon="-2.145378">
        <ele>988.087</ele>
        <time>2021-03-21T08:35:14Z</time>
      </trkpt>
      <trkpt lat="43.163752" lon="-2.145362">
        <ele>987.598</ele>
        <time>2021-03-21T08:35:15Z</time>
      </trkpt>
      <trkpt lat="43.163715" lon="-2.145328">
        <ele>986.135</ele>
        <time>2021-03-21T08:35:16Z</time>
      </trkpt>
      <trkpt lat="43.163678" lon="-2.145286">
        <ele>984.863</ele>
        <time>2021-03-21T08:35:18Z</time>
      </trkpt>
      <trkpt lat="43.163661" lon="-2.145257">
        <ele>984.253</ele>
        <time>2021-03-21T08:35:19Z</time>
      </trkpt>
      <trkpt lat="43.163641" lon="-2.145231">
        <ele>983.553</ele>
        <time>2021-03-21T08:35:20Z</time>
      </trkpt>
      <trkpt lat="43.163620" lon="-2.145209">
        <ele>982.611</ele>
        <time>2021-03-21T08:35:21Z</time>
      </trkpt>
      <trkpt lat="43.163600" lon="-2.145192">
        <ele>981.821</ele>
        <time>2021-03-21T08:35:23Z</time>
      </trkpt>
      <trkpt lat="43.163564" lon="-2.145152">
        <ele>980.303</ele>
        <time>2021-03-21T08:35:24Z</time>
      </trkpt>
      <trkpt lat="43.163547" lon="-2.145127">
        <ele>979.708</ele>
        <time>2021-03-21T08:35:26Z</time>
      </trkpt>
      <trkpt lat="43.163526" lon="-2.145101">
        <ele>979.057</ele>
        <time>2021-03-21T08:35:27Z</time>
      </trkpt>
      <trkpt lat="43.163512" lon="-2.145065">
        <ele>978.850</ele>
        <time>2021-03-21T08:35:28Z</time>
      </trkpt>
      <trkpt lat="43.163487" lon="-2.145025">
        <ele>978.273</ele>
        <time>2021-03-21T08:35:29Z</time>
      </trkpt>
      <trkpt lat="43.163444" lon="-2.144943">
        <ele>977.514</ele>
        <time>2021-03-21T08:35:30Z</time>
      </trkpt>
      <trkpt lat="43.163422" lon="-2.144906">
        <ele>977.061</ele>
        <time>2021-03-21T08:35:32Z</time>
      </trkpt>
      <trkpt lat="43.163377" lon="-2.144836">
        <ele>975.889</ele>
        <time>2021-03-21T08:35:33Z</time>
      </trkpt>
      <trkpt lat="43.163352" lon="-2.144799">
        <ele>975.229</ele>
        <time>2021-03-21T08:35:35Z</time>
      </trkpt>
      <trkpt lat="43.163329" lon="-2.144764">
        <ele>974.669</ele>
        <time>2021-03-21T08:35:36Z</time>
      </trkpt>
      <trkpt lat="43.163285" lon="-2.144697">
        <ele>973.635</ele>
        <time>2021-03-21T08:35:37Z</time>
      </trkpt>
      <trkpt lat="43.163244" lon="-2.144622">
        <ele>972.886</ele>
        <time>2021-03-21T08:35:39Z</time>
      </trkpt>
      <trkpt lat="43.163196" lon="-2.144551">
        <ele>971.814</ele>
        <time>2021-03-21T08:35:41Z</time>
      </trkpt>
      <trkpt lat="43.163168" lon="-2.144518">
        <ele>971.108</ele>
        <time>2021-03-21T08:35:43Z</time>
      </trkpt>
      <trkpt lat="43.163119" lon="-2.144446">
        <ele>970.089</ele>
        <time>2021-03-21T08:35:44Z</time>
      </trkpt>
      <trkpt lat="43.163099" lon="-2.144404">
        <ele>969.662</ele>
        <time>2021-03-21T08:35:46Z</time>
      </trkpt>
      <trkpt lat="43.163080" lon="-2.144362">
        <ele>969.165</ele>
        <time>2021-03-21T08:35:47Z</time>
      </trkpt>
      <trkpt lat="43.163043" lon="-2.144282">
        <ele>968.176</ele>
        <time>2021-03-21T08:35:48Z</time>
      </trkpt>
      <trkpt lat="43.163000" lon="-2.144207">
        <ele>967.013</ele>
        <time>2021-03-21T08:35:50Z</time>
      </trkpt>
      <trkpt lat="43.162981" lon="-2.144166">
        <ele>966.681</ele>
        <time>2021-03-21T08:35:52Z</time>
      </trkpt>
      <trkpt lat="43.162945" lon="-2.144086">
        <ele>966.121</ele>
        <time>2021-03-21T08:35:53Z</time>
      </trkpt>
      <trkpt lat="43.162924" lon="-2.144049">
        <ele>965.811</ele>
        <time>2021-03-21T08:35:55Z</time>
      </trkpt>
      <trkpt lat="43.162867" lon="-2.143978">
        <ele>964.749</ele>
        <time>2021-03-21T08:35:57Z</time>
      </trkpt>
      <trkpt lat="43.162841" lon="-2.143944">
        <ele>964.302</ele>
        <time>2021-03-21T08:35:58Z</time>
      </trkpt>
      <trkpt lat="43.162792" lon="-2.143881">
        <ele>963.522</ele>
        <time>2021-03-21T08:35:59Z</time>
      </trkpt>
      <trkpt lat="43.162772" lon="-2.143849">
        <ele>963.308</ele>
        <time>2021-03-21T08:36:01Z</time>
      </trkpt>
      <trkpt lat="43.162753" lon="-2.143815">
        <ele>963.290</ele>
        <time>2021-03-21T08:36:02Z</time>
      </trkpt>
      <trkpt lat="43.162732" lon="-2.143778">
        <ele>963.153</ele>
        <time>2021-03-21T08:36:03Z</time>
      </trkpt>
      <trkpt lat="43.162690" lon="-2.143708">
        <ele>962.966</ele>
        <time>2021-03-21T08:36:04Z</time>
      </trkpt>
      <trkpt lat="43.162670" lon="-2.143676">
        <ele>962.927</ele>
        <time>2021-03-21T08:36:06Z</time>
      </trkpt>
      <trkpt lat="43.162652" lon="-2.143645">
        <ele>962.914</ele>
        <time>2021-03-21T08:36:07Z</time>
      </trkpt>
      <trkpt lat="43.162624" lon="-2.143592">
        <ele>962.992</ele>
        <time>2021-03-21T08:36:08Z</time>
      </trkpt>
      <trkpt lat="43.162591" lon="-2.143536">
        <ele>962.992</ele>
        <time>2021-03-21T08:36:10Z</time>
      </trkpt>
      <trkpt lat="43.162576" lon="-2.143506">
        <ele>962.982</ele>
        <time>2021-03-21T08:36:12Z</time>
      </trkpt>
      <trkpt lat="43.162543" lon="-2.143444">
        <ele>962.834</ele>
        <time>2021-03-21T08:36:13Z</time>
      </trkpt>
      <trkpt lat="43.162513" lon="-2.143383">
        <ele>962.855</ele>
        <time>2021-03-21T08:36:15Z</time>
      </trkpt>
      <trkpt lat="43.162486" lon="-2.143313">
        <ele>962.710</ele>
        <time>2021-03-21T08:36:17Z</time>
      </trkpt>
      <trkpt lat="43.162471" lon="-2.143277">
        <ele>962.608</ele>
        <time>2021-03-21T08:36:18Z</time>
      </trkpt>
      <trkpt lat="43.162446" lon="-2.143213">
        <ele>962.399</ele>
        <time>2021-03-21T08:36:20Z</time>
      </trkpt>
      <trkpt lat="43.162408" lon="-2.143152">
        <ele>961.782</ele>
        <time>2021-03-21T08:36:22Z</time>
      </trkpt>
      <trkpt lat="43.162381" lon="-2.143126">
        <ele>961.185</ele>
        <time>2021-03-21T08:36:24Z</time>
      </trkpt>
      <trkpt lat="43.162340" lon="-2.143075">
        <ele>960.376</ele>
        <time>2021-03-21T08:36:25Z</time>
      </trkpt>
      <trkpt lat="43.162315" lon="-2.143047">
        <ele>959.793</ele>
        <time>2021-03-21T08:36:26Z</time>
      </trkpt>
      <trkpt lat="43.162288" lon="-2.143024">
        <ele>959.031</ele>
        <time>2021-03-21T08:36:27Z</time>
      </trkpt>
      <trkpt lat="43.162261" lon="-2.142999">
        <ele>958.331</ele>
        <time>2021-03-21T08:36:29Z</time>
      </trkpt>
      <trkpt lat="43.162236" lon="-2.142978">
        <ele>957.791</ele>
        <time>2021-03-21T08:36:30Z</time>
      </trkpt>
      <trkpt lat="43.162211" lon="-2.142958">
        <ele>957.013</ele>
        <time>2021-03-21T08:36:31Z</time>
      </trkpt>
      <trkpt lat="43.162188" lon="-2.142938">
        <ele>956.543</ele>
        <time>2021-03-21T08:36:32Z</time>
      </trkpt>
      <trkpt lat="43.162169" lon="-2.142918">
        <ele>956.107</ele>
        <time>2021-03-21T08:36:33Z</time>
      </trkpt>
      <trkpt lat="43.162149" lon="-2.142901">
        <ele>955.608</ele>
        <time>2021-03-21T08:36:34Z</time>
      </trkpt>
      <trkpt lat="43.162128" lon="-2.142886">
        <ele>955.167</ele>
        <time>2021-03-21T08:36:35Z</time>
      </trkpt>
      <trkpt lat="43.162111" lon="-2.142873">
        <ele>954.740</ele>
        <time>2021-03-21T08:36:36Z</time>
      </trkpt>
      <trkpt lat="43.162095" lon="-2.142862">
        <ele>954.453</ele>
        <time>2021-03-21T08:36:37Z</time>
      </trkpt>
      <trkpt lat="43.162067" lon="-2.142842">
        <ele>953.794</ele>
        <time>2021-03-21T08:36:38Z</time>
      </trkpt>
      <trkpt lat="43.162031" lon="-2.142824">
        <ele>952.981</ele>
        <time>2021-03-21T08:36:40Z</time>
      </trkpt>
      <trkpt lat="43.161992" lon="-2.142811">
        <ele>952.099</ele>
        <time>2021-03-21T08:36:42Z</time>
      </trkpt>
      <trkpt lat="43.161973" lon="-2.142803">
        <ele>951.559</ele>
        <time>2021-03-21T08:36:44Z</time>
      </trkpt>
      <trkpt lat="43.161935" lon="-2.142786">
        <ele>950.799</ele>
        <time>2021-03-21T08:36:45Z</time>
      </trkpt>
      <trkpt lat="43.161917" lon="-2.142780">
        <ele>950.372</ele>
        <time>2021-03-21T08:36:46Z</time>
      </trkpt>
      <trkpt lat="43.161878" lon="-2.142767">
        <ele>949.313</ele>
        <time>2021-03-21T08:36:48Z</time>
      </trkpt>
      <trkpt lat="43.161857" lon="-2.142759">
        <ele>948.814</ele>
        <time>2021-03-21T08:36:50Z</time>
      </trkpt>
      <trkpt lat="43.161806" lon="-2.142744">
        <ele>947.508</ele>
        <time>2021-03-21T08:36:51Z</time>
      </trkpt>
      <trkpt lat="43.161754" lon="-2.142730">
        <ele>946.163</ele>
        <time>2021-03-21T08:36:53Z</time>
      </trkpt>
      <trkpt lat="43.161715" lon="-2.142736">
        <ele>945.276</ele>
        <time>2021-03-21T08:36:55Z</time>
      </trkpt>
      <trkpt lat="43.161693" lon="-2.142744">
        <ele>944.719</ele>
        <time>2021-03-21T08:36:57Z</time>
      </trkpt>
      <trkpt lat="43.161675" lon="-2.142752">
        <ele>944.280</ele>
        <time>2021-03-21T08:36:58Z</time>
      </trkpt>
      <trkpt lat="43.161642" lon="-2.142772">
        <ele>943.467</ele>
        <time>2021-03-21T08:37:00Z</time>
      </trkpt>
      <trkpt lat="43.161619" lon="-2.142803">
        <ele>942.515</ele>
        <time>2021-03-21T08:37:02Z</time>
      </trkpt>
      <trkpt lat="43.161607" lon="-2.142826">
        <ele>941.875</ele>
        <time>2021-03-21T08:37:03Z</time>
      </trkpt>
      <trkpt lat="43.161566" lon="-2.142859">
        <ele>940.475</ele>
        <time>2021-03-21T08:37:06Z</time>
      </trkpt>
      <trkpt lat="43.161537" lon="-2.142882">
        <ele>939.436</ele>
        <time>2021-03-21T08:37:08Z</time>
      </trkpt>
      <trkpt lat="43.161521" lon="-2.142894">
        <ele>938.917</ele>
        <time>2021-03-21T08:37:10Z</time>
      </trkpt>
      <trkpt lat="43.161510" lon="-2.142911">
        <ele>938.418</ele>
        <time>2021-03-21T08:37:11Z</time>
      </trkpt>
      <trkpt lat="43.161495" lon="-2.142958">
        <ele>937.508</ele>
        <time>2021-03-21T08:37:12Z</time>
      </trkpt>
      <trkpt lat="43.161484" lon="-2.142987">
        <ele>936.989</ele>
        <time>2021-03-21T08:37:13Z</time>
      </trkpt>
      <trkpt lat="43.161484" lon="-2.143019">
        <ele>936.532</ele>
        <time>2021-03-21T08:37:15Z</time>
      </trkpt>
      <trkpt lat="43.161486" lon="-2.143045">
        <ele>936.265</ele>
        <time>2021-03-21T08:37:16Z</time>
      </trkpt>
      <trkpt lat="43.161487" lon="-2.143080">
        <ele>935.876</ele>
        <time>2021-03-21T08:37:17Z</time>
      </trkpt>
      <trkpt lat="43.161500" lon="-2.143118">
        <ele>935.563</ele>
        <time>2021-03-21T08:37:20Z</time>
      </trkpt>
      <trkpt lat="43.161497" lon="-2.143151">
        <ele>935.061</ele>
        <time>2021-03-21T08:37:21Z</time>
      </trkpt>
      <trkpt lat="43.161484" lon="-2.143173">
        <ele>934.451</ele>
        <time>2021-03-21T08:37:23Z</time>
      </trkpt>
      <trkpt lat="43.161457" lon="-2.143189">
        <ele>933.521</ele>
        <time>2021-03-21T08:37:25Z</time>
      </trkpt>
      <trkpt lat="43.161444" lon="-2.143215">
        <ele>932.941</ele>
        <time>2021-03-21T08:37:26Z</time>
      </trkpt>
      <trkpt lat="43.161425" lon="-2.143245">
        <ele>932.181</ele>
        <time>2021-03-21T08:37:28Z</time>
      </trkpt>
      <trkpt lat="43.161409" lon="-2.143284">
        <ele>931.109</ele>
        <time>2021-03-21T08:37:30Z</time>
      </trkpt>
      <trkpt lat="43.161394" lon="-2.143312">
        <ele>930.408</ele>
        <time>2021-03-21T08:37:33Z</time>
      </trkpt>
      <trkpt lat="43.161386" lon="-2.143326">
        <ele>930.020</ele>
        <time>2021-03-21T08:37:34Z</time>
      </trkpt>
      <trkpt lat="43.161364" lon="-2.143338">
        <ele>929.363</ele>
        <time>2021-03-21T08:37:35Z</time>
      </trkpt>
      <trkpt lat="43.161344" lon="-2.143344">
        <ele>928.796</ele>
        <time>2021-03-21T08:37:37Z</time>
      </trkpt>
      <trkpt lat="43.161324" lon="-2.143364">
        <ele>927.847</ele>
        <time>2021-03-21T08:37:39Z</time>
      </trkpt>
      <trkpt lat="43.161322" lon="-2.143397">
        <ele>927.144</ele>
        <time>2021-03-21T08:37:41Z</time>
      </trkpt>
      <trkpt lat="43.161340" lon="-2.143474">
        <ele>926.172</ele>
        <time>2021-03-21T08:37:42Z</time>
      </trkpt>
      <trkpt lat="43.161359" lon="-2.143515">
        <ele>925.922</ele>
        <time>2021-03-21T08:37:43Z</time>
      </trkpt>
      <trkpt lat="43.161372" lon="-2.143569">
        <ele>925.322</ele>
        <time>2021-03-21T08:37:45Z</time>
      </trkpt>
      <trkpt lat="43.161381" lon="-2.143602">
        <ele>924.946</ele>
        <time>2021-03-21T08:37:47Z</time>
      </trkpt>
      <trkpt lat="43.161388" lon="-2.143632">
        <ele>924.588</ele>
        <time>2021-03-21T08:37:48Z</time>
      </trkpt>
      <trkpt lat="43.161413" lon="-2.143693">
        <ele>923.916</ele>
        <time>2021-03-21T08:37:50Z</time>
      </trkpt>
      <trkpt lat="43.161430" lon="-2.143723">
        <ele>923.708</ele>
        <time>2021-03-21T08:37:52Z</time>
      </trkpt>
      <trkpt lat="43.161445" lon="-2.143745">
        <ele>923.720</ele>
        <time>2021-03-21T08:37:55Z</time>
      </trkpt>
      <trkpt lat="43.161449" lon="-2.143774">
        <ele>923.283</ele>
        <time>2021-03-21T08:37:57Z</time>
      </trkpt>
      <trkpt lat="43.161451" lon="-2.143801">
        <ele>922.896</ele>
        <time>2021-03-21T08:37:59Z</time>
      </trkpt>
      <trkpt lat="43.161459" lon="-2.143830">
        <ele>922.437</ele>
        <time>2021-03-21T08:38:00Z</time>
      </trkpt>
      <trkpt lat="43.161473" lon="-2.143867">
        <ele>922.124</ele>
        <time>2021-03-21T08:38:03Z</time>
      </trkpt>
      <trkpt lat="43.161459" lon="-2.143901">
        <ele>921.132</ele>
        <time>2021-03-21T08:38:05Z</time>
      </trkpt>
      <trkpt lat="43.161430" lon="-2.143930">
        <ele>919.652</ele>
        <time>2021-03-21T08:38:07Z</time>
      </trkpt>
      <trkpt lat="43.161410" lon="-2.143941">
        <ele>918.762</ele>
        <time>2021-03-21T08:38:08Z</time>
      </trkpt>
      <trkpt lat="43.161375" lon="-2.143953">
        <ele>917.282</ele>
        <time>2021-03-21T08:38:09Z</time>
      </trkpt>
      <trkpt lat="43.161358" lon="-2.143947">
        <ele>916.943</ele>
        <time>2021-03-21T08:38:11Z</time>
      </trkpt>
      <trkpt lat="43.161337" lon="-2.143947">
        <ele>916.417</ele>
        <time>2021-03-21T08:38:13Z</time>
      </trkpt>
      <trkpt lat="43.161313" lon="-2.143948">
        <ele>915.708</ele>
        <time>2021-03-21T08:38:14Z</time>
      </trkpt>
      <trkpt lat="43.161294" lon="-2.143950">
        <ele>915.124</ele>
        <time>2021-03-21T08:38:15Z</time>
      </trkpt>
      <trkpt lat="43.161275" lon="-2.143951">
        <ele>914.657</ele>
        <time>2021-03-21T08:38:16Z</time>
      </trkpt>
      <trkpt lat="43.161228" lon="-2.143956">
        <ele>913.250</ele>
        <time>2021-03-21T08:38:17Z</time>
      </trkpt>
      <trkpt lat="43.161201" lon="-2.143959">
        <ele>912.441</ele>
        <time>2021-03-21T08:38:19Z</time>
      </trkpt>
      <trkpt lat="43.161161" lon="-2.143964">
        <ele>911.288</ele>
        <time>2021-03-21T08:38:20Z</time>
      </trkpt>
      <trkpt lat="43.161127" lon="-2.143964">
        <ele>910.326</ele>
        <time>2021-03-21T08:38:23Z</time>
      </trkpt>
      <trkpt lat="43.161100" lon="-2.143959">
        <ele>909.796</ele>
        <time>2021-03-21T08:38:24Z</time>
      </trkpt>
      <trkpt lat="43.161051" lon="-2.143950">
        <ele>908.786</ele>
        <time>2021-03-21T08:38:25Z</time>
      </trkpt>
      <trkpt lat="43.161029" lon="-2.143941">
        <ele>908.362</ele>
        <time>2021-03-21T08:38:27Z</time>
      </trkpt>
      <trkpt lat="43.160975" lon="-2.143922">
        <ele>907.383</ele>
        <time>2021-03-21T08:38:29Z</time>
      </trkpt>
      <trkpt lat="43.160951" lon="-2.143907">
        <ele>907.011</ele>
        <time>2021-03-21T08:38:30Z</time>
      </trkpt>
      <trkpt lat="43.160927" lon="-2.143894">
        <ele>906.608</ele>
        <time>2021-03-21T08:38:31Z</time>
      </trkpt>
      <trkpt lat="43.160910" lon="-2.143889">
        <ele>906.222</ele>
        <time>2021-03-21T08:38:32Z</time>
      </trkpt>
      <trkpt lat="43.160873" lon="-2.143879">
        <ele>905.325</ele>
        <time>2021-03-21T08:38:36Z</time>
      </trkpt>
      <trkpt lat="43.160853" lon="-2.143870">
        <ele>904.968</ele>
        <time>2021-03-21T08:38:38Z</time>
      </trkpt>
      <trkpt lat="43.160826" lon="-2.143849">
        <ele>904.549</ele>
        <time>2021-03-21T08:38:40Z</time>
      </trkpt>
      <trkpt lat="43.160777" lon="-2.143807">
        <ele>903.686</ele>
        <time>2021-03-21T08:38:42Z</time>
      </trkpt>
      <trkpt lat="43.160763" lon="-2.143791">
        <ele>903.464</ele>
        <time>2021-03-21T08:38:43Z</time>
      </trkpt>
      <trkpt lat="43.160748" lon="-2.143761">
        <ele>903.414</ele>
        <time>2021-03-21T08:38:46Z</time>
      </trkpt>
      <trkpt lat="43.160724" lon="-2.143724">
        <ele>903.234</ele>
        <time>2021-03-21T08:38:47Z</time>
      </trkpt>
      <trkpt lat="43.160709" lon="-2.143698">
        <ele>903.115</ele>
        <time>2021-03-21T08:38:49Z</time>
      </trkpt>
      <trkpt lat="43.160623" lon="-2.143595">
        <ele>901.665</ele>
        <time>2021-03-21T08:38:52Z</time>
      </trkpt>
      <trkpt lat="43.160548" lon="-2.143522">
        <ele>900.011</ele>
        <time>2021-03-21T08:38:56Z</time>
      </trkpt>
      <trkpt lat="43.160461" lon="-2.143448">
        <ele>898.308</ele>
        <time>2021-03-21T08:38:59Z</time>
      </trkpt>
      <trkpt lat="43.160362" lon="-2.143393">
        <ele>896.377</ele>
        <time>2021-03-21T08:39:02Z</time>
      </trkpt>
      <trkpt lat="43.160282" lon="-2.143332">
        <ele>895.160</ele>
        <time>2021-03-21T08:39:05Z</time>
      </trkpt>
      <trkpt lat="43.160248" lon="-2.143296">
        <ele>894.423</ele>
        <time>2021-03-21T08:39:06Z</time>
      </trkpt>
      <trkpt lat="43.160222" lon="-2.143274">
        <ele>893.784</ele>
        <time>2021-03-21T08:39:08Z</time>
      </trkpt>
      <trkpt lat="43.160199" lon="-2.143259">
        <ele>893.071</ele>
        <time>2021-03-21T08:39:09Z</time>
      </trkpt>
      <trkpt lat="43.160173" lon="-2.143236">
        <ele>892.349</ele>
        <time>2021-03-21T08:39:10Z</time>
      </trkpt>
      <trkpt lat="43.160131" lon="-2.143197">
        <ele>891.339</ele>
        <time>2021-03-21T08:39:11Z</time>
      </trkpt>
      <trkpt lat="43.160107" lon="-2.143179">
        <ele>890.729</ele>
        <time>2021-03-21T08:39:13Z</time>
      </trkpt>
      <trkpt lat="43.160084" lon="-2.143158">
        <ele>890.247</ele>
        <time>2021-03-21T08:39:14Z</time>
      </trkpt>
      <trkpt lat="43.160037" lon="-2.143115">
        <ele>889.129</ele>
        <time>2021-03-21T08:39:15Z</time>
      </trkpt>
      <trkpt lat="43.160011" lon="-2.143086">
        <ele>888.721</ele>
        <time>2021-03-21T08:39:17Z</time>
      </trkpt>
      <trkpt lat="43.159984" lon="-2.143049">
        <ele>888.308</ele>
        <time>2021-03-21T08:39:18Z</time>
      </trkpt>
      <trkpt lat="43.159963" lon="-2.143016">
        <ele>888.060</ele>
        <time>2021-03-21T08:39:19Z</time>
      </trkpt>
      <trkpt lat="43.159924" lon="-2.142950">
        <ele>887.673</ele>
        <time>2021-03-21T08:39:20Z</time>
      </trkpt>
      <trkpt lat="43.159907" lon="-2.142914">
        <ele>887.516</ele>
        <time>2021-03-21T08:39:22Z</time>
      </trkpt>
      <trkpt lat="43.159886" lon="-2.142880">
        <ele>887.317</ele>
        <time>2021-03-21T08:39:23Z</time>
      </trkpt>
      <trkpt lat="43.159861" lon="-2.142848">
        <ele>886.734</ele>
        <time>2021-03-21T08:39:24Z</time>
      </trkpt>
      <trkpt lat="43.159805" lon="-2.142745">
        <ele>886.232</ele>
        <time>2021-03-21T08:39:27Z</time>
      </trkpt>
      <trkpt lat="43.159729" lon="-2.142640">
        <ele>884.832</ele>
        <time>2021-03-21T08:39:30Z</time>
      </trkpt>
      <trkpt lat="43.159658" lon="-2.142551">
        <ele>883.252</ele>
        <time>2021-03-21T08:39:33Z</time>
      </trkpt>
      <trkpt lat="43.159580" lon="-2.142477">
        <ele>880.929</ele>
        <time>2021-03-21T08:39:36Z</time>
      </trkpt>
      <trkpt lat="43.159505" lon="-2.142409">
        <ele>878.800</ele>
        <time>2021-03-21T08:39:39Z</time>
      </trkpt>
      <trkpt lat="43.159428" lon="-2.142318">
        <ele>877.420</ele>
        <time>2021-03-21T08:39:42Z</time>
      </trkpt>
      <trkpt lat="43.159355" lon="-2.142222">
        <ele>876.208</ele>
        <time>2021-03-21T08:39:45Z</time>
      </trkpt>
      <trkpt lat="43.159298" lon="-2.142127">
        <ele>875.818</ele>
        <time>2021-03-21T08:39:47Z</time>
      </trkpt>
      <trkpt lat="43.159228" lon="-2.142039">
        <ele>874.691</ele>
        <time>2021-03-21T08:39:51Z</time>
      </trkpt>
      <trkpt lat="43.159137" lon="-2.141938">
        <ele>872.684</ele>
        <time>2021-03-21T08:39:54Z</time>
      </trkpt>
      <trkpt lat="43.159049" lon="-2.141880">
        <ele>870.085</ele>
        <time>2021-03-21T08:39:58Z</time>
      </trkpt>
      <trkpt lat="43.158968" lon="-2.141804">
        <ele>868.342</ele>
        <time>2021-03-21T08:40:01Z</time>
      </trkpt>
      <trkpt lat="43.158874" lon="-2.141740">
        <ele>865.670</ele>
        <time>2021-03-21T08:40:03Z</time>
      </trkpt>
      <trkpt lat="43.158784" lon="-2.141643">
        <ele>864.250</ele>
        <time>2021-03-21T08:40:08Z</time>
      </trkpt>
      <trkpt lat="43.158718" lon="-2.141521">
        <ele>864.750</ele>
        <time>2021-03-21T08:40:10Z</time>
      </trkpt>
      <trkpt lat="43.158655" lon="-2.141421">
        <ele>864.589</ele>
        <time>2021-03-21T08:40:13Z</time>
      </trkpt>
      <trkpt lat="43.158604" lon="-2.141313">
        <ele>865.006</ele>
        <time>2021-03-21T08:40:17Z</time>
      </trkpt>
      <trkpt lat="43.158543" lon="-2.141211">
        <ele>864.626</ele>
        <time>2021-03-21T08:40:20Z</time>
      </trkpt>
      <trkpt lat="43.158483" lon="-2.141095">
        <ele>864.708</ele>
        <time>2021-03-21T08:40:24Z</time>
      </trkpt>
      <trkpt lat="43.158397" lon="-2.140991">
        <ele>862.584</ele>
        <time>2021-03-21T08:40:27Z</time>
      </trkpt>
      <trkpt lat="43.158333" lon="-2.140870">
        <ele>861.977</ele>
        <time>2021-03-21T08:40:30Z</time>
      </trkpt>
      <trkpt lat="43.158273" lon="-2.140777">
        <ele>861.660</ele>
        <time>2021-03-21T08:40:33Z</time>
      </trkpt>
      <trkpt lat="43.158212" lon="-2.140672">
        <ele>861.741</ele>
        <time>2021-03-21T08:40:37Z</time>
      </trkpt>
      <trkpt lat="43.158156" lon="-2.140570">
        <ele>862.098</ele>
        <time>2021-03-21T08:40:39Z</time>
      </trkpt>
      <trkpt lat="43.158098" lon="-2.140471">
        <ele>862.046</ele>
        <time>2021-03-21T08:40:43Z</time>
      </trkpt>
      <trkpt lat="43.158025" lon="-2.140381">
        <ele>861.176</ele>
        <time>2021-03-21T08:40:46Z</time>
      </trkpt>
      <trkpt lat="43.157933" lon="-2.140297">
        <ele>859.236</ele>
        <time>2021-03-21T08:40:49Z</time>
      </trkpt>
      <trkpt lat="43.157831" lon="-2.140207">
        <ele>857.261</ele>
        <time>2021-03-21T08:40:54Z</time>
      </trkpt>
      <trkpt lat="43.157748" lon="-2.140111">
        <ele>856.921</ele>
        <time>2021-03-21T08:40:57Z</time>
      </trkpt>
      <trkpt lat="43.157674" lon="-2.139988">
        <ele>858.613</ele>
        <time>2021-03-21T08:41:02Z</time>
      </trkpt>
      <trkpt lat="43.157638" lon="-2.139928">
        <ele>859.208</ele>
        <time>2021-03-21T08:41:04Z</time>
      </trkpt>
      <trkpt lat="43.157607" lon="-2.139874">
        <ele>859.642</ele>
        <time>2021-03-21T08:41:05Z</time>
      </trkpt>
      <trkpt lat="43.157560" lon="-2.139832">
        <ele>858.895</ele>
        <time>2021-03-21T08:41:07Z</time>
      </trkpt>
      <trkpt lat="43.157528" lon="-2.139826">
        <ele>857.618</ele>
        <time>2021-03-21T08:41:08Z</time>
      </trkpt>
      <trkpt lat="43.157472" lon="-2.139838">
        <ele>854.929</ele>
        <time>2021-03-21T08:41:10Z</time>
      </trkpt>
      <trkpt lat="43.157447" lon="-2.139888">
        <ele>852.646</ele>
        <time>2021-03-21T08:41:12Z</time>
      </trkpt>
      <trkpt lat="43.157452" lon="-2.139927">
        <ele>851.844</ele>
        <time>2021-03-21T08:41:13Z</time>
      </trkpt>
      <trkpt lat="43.157464" lon="-2.139961">
        <ele>851.474</ele>
        <time>2021-03-21T08:41:15Z</time>
      </trkpt>
      <trkpt lat="43.157502" lon="-2.140019">
        <ele>851.414</ele>
        <time>2021-03-21T08:41:16Z</time>
      </trkpt>
      <trkpt lat="43.157522" lon="-2.140048">
        <ele>851.176</ele>
        <time>2021-03-21T08:41:18Z</time>
      </trkpt>
      <trkpt lat="43.157561" lon="-2.140097">
        <ele>850.790</ele>
        <time>2021-03-21T08:41:19Z</time>
      </trkpt>
      <trkpt lat="43.157603" lon="-2.140148">
        <ele>850.419</ele>
        <time>2021-03-21T08:41:21Z</time>
      </trkpt>
      <trkpt lat="43.157625" lon="-2.140173">
        <ele>850.308</ele>
        <time>2021-03-21T08:41:23Z</time>
      </trkpt>
      <trkpt lat="43.157669" lon="-2.140222">
        <ele>850.143</ele>
        <time>2021-03-21T08:41:24Z</time>
      </trkpt>
      <trkpt lat="43.157688" lon="-2.140250">
        <ele>849.896</ele>
        <time>2021-03-21T08:41:25Z</time>
      </trkpt>
      <trkpt lat="43.157724" lon="-2.140302">
        <ele>849.269</ele>
        <time>2021-03-21T08:41:27Z</time>
      </trkpt>
      <trkpt lat="43.157738" lon="-2.140328">
        <ele>848.820</ele>
        <time>2021-03-21T08:41:29Z</time>
      </trkpt>
      <trkpt lat="43.157773" lon="-2.140384">
        <ele>848.017</ele>
        <time>2021-03-21T08:41:30Z</time>
      </trkpt>
      <trkpt lat="43.157790" lon="-2.140406">
        <ele>848.075</ele>
        <time>2021-03-21T08:41:32Z</time>
      </trkpt>
      <trkpt lat="43.157805" lon="-2.140434">
        <ele>847.855</ele>
        <time>2021-03-21T08:41:33Z</time>
      </trkpt>
      <trkpt lat="43.157819" lon="-2.140464">
        <ele>847.535</ele>
        <time>2021-03-21T08:41:34Z</time>
      </trkpt>
      <trkpt lat="43.157850" lon="-2.140532">
        <ele>846.728</ele>
        <time>2021-03-21T08:41:35Z</time>
      </trkpt>
      <trkpt lat="43.157864" lon="-2.140559">
        <ele>846.589</ele>
        <time>2021-03-21T08:41:37Z</time>
      </trkpt>
      <trkpt lat="43.157877" lon="-2.140592">
        <ele>846.217</ele>
        <time>2021-03-21T08:41:38Z</time>
      </trkpt>
      <trkpt lat="43.157902" lon="-2.140664">
        <ele>845.208</ele>
        <time>2021-03-21T08:41:39Z</time>
      </trkpt>
      <trkpt lat="43.157932" lon="-2.140731">
        <ele>844.688</ele>
        <time>2021-03-21T08:41:41Z</time>
      </trkpt>
      <trkpt lat="43.157958" lon="-2.140803">
        <ele>843.741</ele>
        <time>2021-03-21T08:41:43Z</time>
      </trkpt>
      <trkpt lat="43.157972" lon="-2.140836">
        <ele>843.414</ele>
        <time>2021-03-21T08:41:44Z</time>
      </trkpt>
      <trkpt lat="43.158001" lon="-2.140895">
        <ele>843.185</ele>
        <time>2021-03-21T08:41:46Z</time>
      </trkpt>
      <trkpt lat="43.158016" lon="-2.140923">
        <ele>843.012</ele>
        <time>2021-03-21T08:41:48Z</time>
      </trkpt>
      <trkpt lat="43.158048" lon="-2.140988">
        <ele>842.610</ele>
        <time>2021-03-21T08:41:49Z</time>
      </trkpt>
      <trkpt lat="43.158077" lon="-2.141052">
        <ele>842.140</ele>
        <time>2021-03-21T08:41:51Z</time>
      </trkpt>
      <trkpt lat="43.158090" lon="-2.141091">
        <ele>841.620</ele>
        <time>2021-03-21T08:41:53Z</time>
      </trkpt>
      <trkpt lat="43.158112" lon="-2.141163">
        <ele>840.784</ele>
        <time>2021-03-21T08:41:54Z</time>
      </trkpt>
      <trkpt lat="43.158125" lon="-2.141202">
        <ele>840.307</ele>
        <time>2021-03-21T08:41:56Z</time>
      </trkpt>
      <trkpt lat="43.158150" lon="-2.141280">
        <ele>839.417</ele>
        <time>2021-03-21T08:41:57Z</time>
      </trkpt>
      <trkpt lat="43.158164" lon="-2.141316">
        <ele>839.108</ele>
        <time>2021-03-21T08:41:58Z</time>
      </trkpt>
      <trkpt lat="43.158194" lon="-2.141386">
        <ele>838.644</ele>
        <time>2021-03-21T08:42:00Z</time>
      </trkpt>
      <trkpt lat="43.158219" lon="-2.141465">
        <ele>837.547</ele>
        <time>2021-03-21T08:42:02Z</time>
      </trkpt>
      <trkpt lat="43.158232" lon="-2.141505">
        <ele>837.040</ele>
        <time>2021-03-21T08:42:04Z</time>
      </trkpt>
      <trkpt lat="43.158257" lon="-2.141586">
        <ele>836.011</ele>
        <time>2021-03-21T08:42:05Z</time>
      </trkpt>
      <trkpt lat="43.158271" lon="-2.141622">
        <ele>835.798</ele>
        <time>2021-03-21T08:42:07Z</time>
      </trkpt>
      <trkpt lat="43.158296" lon="-2.141690">
        <ele>835.266</ele>
        <time>2021-03-21T08:42:08Z</time>
      </trkpt>
      <trkpt lat="43.158322" lon="-2.141760">
        <ele>834.666</ele>
        <time>2021-03-21T08:42:10Z</time>
      </trkpt>
      <trkpt lat="43.158334" lon="-2.141790">
        <ele>834.536</ele>
        <time>2021-03-21T08:42:12Z</time>
      </trkpt>
      <trkpt lat="43.158361" lon="-2.141853">
        <ele>834.164</ele>
        <time>2021-03-21T08:42:13Z</time>
      </trkpt>
      <trkpt lat="43.158372" lon="-2.141885">
        <ele>833.706</ele>
        <time>2021-03-21T08:42:15Z</time>
      </trkpt>
      <trkpt lat="43.158394" lon="-2.141958">
        <ele>832.616</ele>
        <time>2021-03-21T08:42:17Z</time>
      </trkpt>
      <trkpt lat="43.158419" lon="-2.142025">
        <ele>831.808</ele>
        <time>2021-03-21T08:42:18Z</time>
      </trkpt>
      <trkpt lat="43.158430" lon="-2.142065">
        <ele>831.112</ele>
        <time>2021-03-21T08:42:19Z</time>
      </trkpt>
      <trkpt lat="43.158443" lon="-2.142098">
        <ele>830.895</ele>
        <time>2021-03-21T08:42:21Z</time>
      </trkpt>
      <trkpt lat="43.158454" lon="-2.142133">
        <ele>830.398</ele>
        <time>2021-03-21T08:42:22Z</time>
      </trkpt>
      <trkpt lat="43.158469" lon="-2.142166">
        <ele>830.019</ele>
        <time>2021-03-21T08:42:23Z</time>
      </trkpt>
      <trkpt lat="43.158487" lon="-2.142197">
        <ele>830.116</ele>
        <time>2021-03-21T08:42:24Z</time>
      </trkpt>
      <trkpt lat="43.158505" lon="-2.142227">
        <ele>830.154</ele>
        <time>2021-03-21T08:42:25Z</time>
      </trkpt>
      <trkpt lat="43.158520" lon="-2.142258">
        <ele>830.074</ele>
        <time>2021-03-21T08:42:26Z</time>
      </trkpt>
      <trkpt lat="43.158537" lon="-2.142286">
        <ele>830.174</ele>
        <time>2021-03-21T08:42:27Z</time>
      </trkpt>
      <trkpt lat="43.158567" lon="-2.142342">
        <ele>830.164</ele>
        <time>2021-03-21T08:42:28Z</time>
      </trkpt>
      <trkpt lat="43.158582" lon="-2.142368">
        <ele>830.206</ele>
        <time>2021-03-21T08:42:30Z</time>
      </trkpt>
      <trkpt lat="43.158610" lon="-2.142440">
        <ele>829.716</ele>
        <time>2021-03-21T08:42:31Z</time>
      </trkpt>
      <trkpt lat="43.158626" lon="-2.142476">
        <ele>829.508</ele>
        <time>2021-03-21T08:42:33Z</time>
      </trkpt>
      <trkpt lat="43.158637" lon="-2.142513">
        <ele>829.062</ele>
        <time>2021-03-21T08:42:34Z</time>
      </trkpt>
      <trkpt lat="43.158664" lon="-2.142582">
        <ele>828.465</ele>
        <time>2021-03-21T08:42:36Z</time>
      </trkpt>
      <trkpt lat="43.158678" lon="-2.142616">
        <ele>828.218</ele>
        <time>2021-03-21T08:42:37Z</time>
      </trkpt>
      <trkpt lat="43.158704" lon="-2.142695">
        <ele>827.279</ele>
        <time>2021-03-21T08:42:38Z</time>
      </trkpt>
      <trkpt lat="43.158721" lon="-2.142729">
        <ele>827.066</ele>
        <time>2021-03-21T08:42:40Z</time>
      </trkpt>
      <trkpt lat="43.158745" lon="-2.142806">
        <ele>826.064</ele>
        <time>2021-03-21T08:42:41Z</time>
      </trkpt>
      <trkpt lat="43.158760" lon="-2.142841">
        <ele>825.924</ele>
        <time>2021-03-21T08:42:43Z</time>
      </trkpt>
      <trkpt lat="43.158772" lon="-2.142883">
        <ele>825.514</ele>
        <time>2021-03-21T08:42:44Z</time>
      </trkpt>
      <trkpt lat="43.158792" lon="-2.142954">
        <ele>824.776</ele>
        <time>2021-03-21T08:42:45Z</time>
      </trkpt>
      <trkpt lat="43.158805" lon="-2.142987">
        <ele>824.590</ele>
        <time>2021-03-21T08:42:47Z</time>
      </trkpt>
      <trkpt lat="43.158815" lon="-2.143024">
        <ele>824.119</ele>
        <time>2021-03-21T08:42:48Z</time>
      </trkpt>
      <trkpt lat="43.158826" lon="-2.143058">
        <ele>823.808</ele>
        <time>2021-03-21T08:42:49Z</time>
      </trkpt>
      <trkpt lat="43.158849" lon="-2.143121">
        <ele>823.143</ele>
        <time>2021-03-21T08:42:50Z</time>
      </trkpt>
      <trkpt lat="43.158865" lon="-2.143195">
        <ele>821.856</ele>
        <time>2021-03-21T08:42:52Z</time>
      </trkpt>
      <trkpt lat="43.158874" lon="-2.143228">
        <ele>821.389</ele>
        <time>2021-03-21T08:42:54Z</time>
      </trkpt>
      <trkpt lat="43.158895" lon="-2.143306">
        <ele>820.270</ele>
        <time>2021-03-21T08:42:55Z</time>
      </trkpt>
      <trkpt lat="43.158913" lon="-2.143382">
        <ele>819.477</ele>
        <time>2021-03-21T08:42:57Z</time>
      </trkpt>
      <trkpt lat="43.158927" lon="-2.143457">
        <ele>818.745</ele>
        <time>2021-03-21T08:42:59Z</time>
      </trkpt>
      <trkpt lat="43.158928" lon="-2.143502">
        <ele>817.875</ele>
        <time>2021-03-21T08:43:00Z</time>
      </trkpt>
      <trkpt lat="43.158929" lon="-2.143548">
        <ele>816.955</ele>
        <time>2021-03-21T08:43:02Z</time>
      </trkpt>
      <trkpt lat="43.158932" lon="-2.143637">
        <ele>815.511</ele>
        <time>2021-03-21T08:43:03Z</time>
      </trkpt>
      <trkpt lat="43.158932" lon="-2.143730">
        <ele>814.421</ele>
        <time>2021-03-21T08:43:05Z</time>
      </trkpt>
      <trkpt lat="43.158935" lon="-2.143805">
        <ele>813.703</ele>
        <time>2021-03-21T08:43:07Z</time>
      </trkpt>
      <trkpt lat="43.158939" lon="-2.143878">
        <ele>813.008</ele>
        <time>2021-03-21T08:43:09Z</time>
      </trkpt>
      <trkpt lat="43.158940" lon="-2.143955">
        <ele>811.847</ele>
        <time>2021-03-21T08:43:11Z</time>
      </trkpt>
      <trkpt lat="43.158943" lon="-2.143992">
        <ele>811.370</ele>
        <time>2021-03-21T08:43:13Z</time>
      </trkpt>
      <trkpt lat="43.158949" lon="-2.144027">
        <ele>811.073</ele>
        <time>2021-03-21T08:43:14Z</time>
      </trkpt>
      <trkpt lat="43.158953" lon="-2.144062">
        <ele>810.674</ele>
        <time>2021-03-21T08:43:15Z</time>
      </trkpt>
      <trkpt lat="43.158967" lon="-2.144141">
        <ele>810.051</ele>
        <time>2021-03-21T08:43:16Z</time>
      </trkpt>
      <trkpt lat="43.158976" lon="-2.144180">
        <ele>809.729</ele>
        <time>2021-03-21T08:43:18Z</time>
      </trkpt>
      <trkpt lat="43.158997" lon="-2.144261">
        <ele>809.359</ele>
        <time>2021-03-21T08:43:19Z</time>
      </trkpt>
      <trkpt lat="43.159014" lon="-2.144341">
        <ele>808.529</ele>
        <time>2021-03-21T08:43:21Z</time>
      </trkpt>
      <trkpt lat="43.159022" lon="-2.144382">
        <ele>808.073</ele>
        <time>2021-03-21T08:43:23Z</time>
      </trkpt>
      <trkpt lat="43.159042" lon="-2.144463">
        <ele>807.485</ele>
        <time>2021-03-21T08:43:24Z</time>
      </trkpt>
      <trkpt lat="43.159051" lon="-2.144499">
        <ele>807.213</ele>
        <time>2021-03-21T08:43:25Z</time>
      </trkpt>
      <trkpt lat="43.159068" lon="-2.144571">
        <ele>806.608</ele>
        <time>2021-03-21T08:43:27Z</time>
      </trkpt>
      <trkpt lat="43.159078" lon="-2.144612">
        <ele>806.373</ele>
        <time>2021-03-21T08:43:29Z</time>
      </trkpt>
      <trkpt lat="43.159101" lon="-2.144690">
        <ele>805.826</ele>
        <time>2021-03-21T08:43:30Z</time>
      </trkpt>
      <trkpt lat="43.159115" lon="-2.144771">
        <ele>804.899</ele>
        <time>2021-03-21T08:43:32Z</time>
      </trkpt>
      <trkpt lat="43.159122" lon="-2.144813">
        <ele>804.390</ele>
        <time>2021-03-21T08:43:34Z</time>
      </trkpt>
      <trkpt lat="43.159131" lon="-2.144854">
        <ele>804.037</ele>
        <time>2021-03-21T08:43:35Z</time>
      </trkpt>
      <trkpt lat="43.159141" lon="-2.144895">
        <ele>803.735</ele>
        <time>2021-03-21T08:43:36Z</time>
      </trkpt>
      <trkpt lat="43.159147" lon="-2.144936">
        <ele>803.225</ele>
        <time>2021-03-21T08:43:37Z</time>
      </trkpt>
      <trkpt lat="43.159151" lon="-2.144977">
        <ele>802.615</ele>
        <time>2021-03-21T08:43:38Z</time>
      </trkpt>
      <trkpt lat="43.159155" lon="-2.145019">
        <ele>802.235</ele>
        <time>2021-03-21T08:43:39Z</time>
      </trkpt>
      <trkpt lat="43.159156" lon="-2.145062">
        <ele>801.886</ele>
        <time>2021-03-21T08:43:40Z</time>
      </trkpt>
      <trkpt lat="43.159157" lon="-2.145109">
        <ele>801.314</ele>
        <time>2021-03-21T08:43:41Z</time>
      </trkpt>
      <trkpt lat="43.159158" lon="-2.145155">
        <ele>800.808</ele>
        <time>2021-03-21T08:43:42Z</time>
      </trkpt>
      <trkpt lat="43.159159" lon="-2.145201">
        <ele>800.499</ele>
        <time>2021-03-21T08:43:43Z</time>
      </trkpt>
      <trkpt lat="43.159161" lon="-2.145245">
        <ele>800.092</ele>
        <time>2021-03-21T08:43:44Z</time>
      </trkpt>
      <trkpt lat="43.159165" lon="-2.145336">
        <ele>799.355</ele>
        <time>2021-03-21T08:43:45Z</time>
      </trkpt>
      <trkpt lat="43.159168" lon="-2.145379">
        <ele>799.086</ele>
        <time>2021-03-21T08:43:47Z</time>
      </trkpt>
      <trkpt lat="43.159178" lon="-2.145466">
        <ele>798.673</ele>
        <time>2021-03-21T08:43:48Z</time>
      </trkpt>
      <trkpt lat="43.159185" lon="-2.145511">
        <ele>798.491</ele>
        <time>2021-03-21T08:43:50Z</time>
      </trkpt>
      <trkpt lat="43.159195" lon="-2.145599">
        <ele>797.661</ele>
        <time>2021-03-21T08:43:51Z</time>
      </trkpt>
      <trkpt lat="43.159201" lon="-2.145642">
        <ele>797.291</ele>
        <time>2021-03-21T08:43:52Z</time>
      </trkpt>
      <trkpt lat="43.159217" lon="-2.145723">
        <ele>796.539</ele>
        <time>2021-03-21T08:43:54Z</time>
      </trkpt>
      <trkpt lat="43.159229" lon="-2.145763">
        <ele>796.401</ele>
        <time>2021-03-21T08:43:56Z</time>
      </trkpt>
      <trkpt lat="43.159254" lon="-2.145844">
        <ele>796.221</ele>
        <time>2021-03-21T08:43:57Z</time>
      </trkpt>
      <trkpt lat="43.159267" lon="-2.145889">
        <ele>795.908</ele>
        <time>2021-03-21T08:43:59Z</time>
      </trkpt>
      <trkpt lat="43.159282" lon="-2.145927">
        <ele>795.899</ele>
        <time>2021-03-21T08:44:00Z</time>
      </trkpt>
      <trkpt lat="43.159299" lon="-2.145963">
        <ele>795.922</ele>
        <time>2021-03-21T08:44:01Z</time>
      </trkpt>
      <trkpt lat="43.159328" lon="-2.146041">
        <ele>795.525</ele>
        <time>2021-03-21T08:44:02Z</time>
      </trkpt>
      <trkpt lat="43.159340" lon="-2.146076">
        <ele>795.356</ele>
        <time>2021-03-21T08:44:04Z</time>
      </trkpt>
      <trkpt lat="43.159363" lon="-2.146149">
        <ele>794.673</ele>
        <time>2021-03-21T08:44:05Z</time>
      </trkpt>
      <trkpt lat="43.159375" lon="-2.146187">
        <ele>794.341</ele>
        <time>2021-03-21T08:44:06Z</time>
      </trkpt>
      <trkpt lat="43.159388" lon="-2.146230">
        <ele>793.841</ele>
        <time>2021-03-21T08:44:08Z</time>
      </trkpt>
      <trkpt lat="43.159400" lon="-2.146272">
        <ele>793.361</ele>
        <time>2021-03-21T08:44:09Z</time>
      </trkpt>
      <trkpt lat="43.159422" lon="-2.146366">
        <ele>791.853</ele>
        <time>2021-03-21T08:44:10Z</time>
      </trkpt>
      <trkpt lat="43.159436" lon="-2.146411">
        <ele>791.204</ele>
        <time>2021-03-21T08:44:11Z</time>
      </trkpt>
      <trkpt lat="43.159458" lon="-2.146503">
        <ele>790.114</ele>
        <time>2021-03-21T08:44:13Z</time>
      </trkpt>
      <trkpt lat="43.159465" lon="-2.146549">
        <ele>789.408</ele>
        <time>2021-03-21T08:44:15Z</time>
      </trkpt>
      <trkpt lat="43.159490" lon="-2.146641">
        <ele>788.291</ele>
        <time>2021-03-21T08:44:16Z</time>
      </trkpt>
      <trkpt lat="43.159504" lon="-2.146684">
        <ele>787.834</ele>
        <time>2021-03-21T08:44:17Z</time>
      </trkpt>
      <trkpt lat="43.159518" lon="-2.146729">
        <ele>787.337</ele>
        <time>2021-03-21T08:44:19Z</time>
      </trkpt>
      <trkpt lat="43.159531" lon="-2.146782">
        <ele>786.698</ele>
        <time>2021-03-21T08:44:20Z</time>
      </trkpt>
      <trkpt lat="43.159544" lon="-2.146841">
        <ele>785.895</ele>
        <time>2021-03-21T08:44:21Z</time>
      </trkpt>
      <trkpt lat="43.159557" lon="-2.146891">
        <ele>785.253</ele>
        <time>2021-03-21T08:44:22Z</time>
      </trkpt>
      <trkpt lat="43.159570" lon="-2.146936">
        <ele>784.773</ele>
        <time>2021-03-21T08:44:23Z</time>
      </trkpt>
      <trkpt lat="43.159591" lon="-2.147026">
        <ele>783.573</ele>
        <time>2021-03-21T08:44:24Z</time>
      </trkpt>
      <trkpt lat="43.159604" lon="-2.147068">
        <ele>783.186</ele>
        <time>2021-03-21T08:44:26Z</time>
      </trkpt>
      <trkpt lat="43.159627" lon="-2.147152">
        <ele>782.160</ele>
        <time>2021-03-21T08:44:27Z</time>
      </trkpt>
      <trkpt lat="43.159641" lon="-2.147194">
        <ele>781.726</ele>
        <time>2021-03-21T08:44:29Z</time>
      </trkpt>
      <trkpt lat="43.159655" lon="-2.147239">
        <ele>781.208</ele>
        <time>2021-03-21T08:44:30Z</time>
      </trkpt>
      <trkpt lat="43.159682" lon="-2.147327">
        <ele>780.394</ele>
        <time>2021-03-21T08:44:31Z</time>
      </trkpt>
      <trkpt lat="43.159698" lon="-2.147365">
        <ele>780.097</ele>
        <time>2021-03-21T08:44:33Z</time>
      </trkpt>
      <trkpt lat="43.159725" lon="-2.147442">
        <ele>779.340</ele>
        <time>2021-03-21T08:44:34Z</time>
      </trkpt>
      <trkpt lat="43.159739" lon="-2.147471">
        <ele>779.161</ele>
        <time>2021-03-21T08:44:36Z</time>
      </trkpt>
      <trkpt lat="43.159750" lon="-2.147494">
        <ele>778.968</ele>
        <time>2021-03-21T08:44:37Z</time>
      </trkpt>
      <trkpt lat="43.159758" lon="-2.147521">
        <ele>778.526</ele>
        <time>2021-03-21T08:44:38Z</time>
      </trkpt>
      <trkpt lat="43.159781" lon="-2.147583">
        <ele>777.746</ele>
        <time>2021-03-21T08:44:39Z</time>
      </trkpt>
      <trkpt lat="43.159796" lon="-2.147614">
        <ele>777.426</ele>
        <time>2021-03-21T08:44:41Z</time>
      </trkpt>
      <trkpt lat="43.159813" lon="-2.147647">
        <ele>777.153</ele>
        <time>2021-03-21T08:44:42Z</time>
      </trkpt>
      <trkpt lat="43.159828" lon="-2.147685">
        <ele>776.604</ele>
        <time>2021-03-21T08:44:43Z</time>
      </trkpt>
      <trkpt lat="43.159844" lon="-2.147723">
        <ele>776.214</ele>
        <time>2021-03-21T08:44:44Z</time>
      </trkpt>
      <trkpt lat="43.159864" lon="-2.147760">
        <ele>776.008</ele>
        <time>2021-03-21T08:44:45Z</time>
      </trkpt>
      <trkpt lat="43.159885" lon="-2.147801">
        <ele>775.731</ele>
        <time>2021-03-21T08:44:46Z</time>
      </trkpt>
      <trkpt lat="43.159907" lon="-2.147848">
        <ele>775.374</ele>
        <time>2021-03-21T08:44:47Z</time>
      </trkpt>
      <trkpt lat="43.159949" lon="-2.147929">
        <ele>774.667</ele>
        <time>2021-03-21T08:44:48Z</time>
      </trkpt>
      <trkpt lat="43.159969" lon="-2.147967">
        <ele>774.338</ele>
        <time>2021-03-21T08:44:49Z</time>
      </trkpt>
      <trkpt lat="43.160006" lon="-2.148047">
        <ele>773.425</ele>
        <time>2021-03-21T08:44:51Z</time>
      </trkpt>
      <trkpt lat="43.160025" lon="-2.148082">
        <ele>773.093</ele>
        <time>2021-03-21T08:44:53Z</time>
      </trkpt>
      <trkpt lat="43.160044" lon="-2.148118">
        <ele>772.783</ele>
        <time>2021-03-21T08:44:54Z</time>
      </trkpt>
      <trkpt lat="43.160065" lon="-2.148154">
        <ele>772.433</ele>
        <time>2021-03-21T08:44:55Z</time>
      </trkpt>
      <trkpt lat="43.160104" lon="-2.148230">
        <ele>771.632</ele>
        <time>2021-03-21T08:44:56Z</time>
      </trkpt>
      <trkpt lat="43.160124" lon="-2.148266">
        <ele>771.292</ele>
        <time>2021-03-21T08:44:58Z</time>
      </trkpt>
      <trkpt lat="43.160163" lon="-2.148343">
        <ele>770.411</ele>
        <time>2021-03-21T08:44:59Z</time>
      </trkpt>
      <trkpt lat="43.160183" lon="-2.148374">
        <ele>770.408</ele>
        <time>2021-03-21T08:45:01Z</time>
      </trkpt>
      <trkpt lat="43.160224" lon="-2.148437">
        <ele>770.699</ele>
        <time>2021-03-21T08:45:02Z</time>
      </trkpt>
      <trkpt lat="43.160248" lon="-2.148468">
        <ele>770.862</ele>
        <time>2021-03-21T08:45:04Z</time>
      </trkpt>
      <trkpt lat="43.160268" lon="-2.148501">
        <ele>770.965</ele>
        <time>2021-03-21T08:45:05Z</time>
      </trkpt>
      <trkpt lat="43.160283" lon="-2.148529">
        <ele>771.166</ele>
        <time>2021-03-21T08:45:06Z</time>
      </trkpt>
      <trkpt lat="43.160279" lon="-2.148594">
        <ele>770.283</ele>
        <time>2021-03-21T08:45:07Z</time>
      </trkpt>
      <trkpt lat="43.160271" lon="-2.148621">
        <ele>769.921</ele>
        <time>2021-03-21T08:45:08Z</time>
      </trkpt>
      <trkpt lat="43.160254" lon="-2.148674">
        <ele>769.931</ele>
        <time>2021-03-21T08:45:10Z</time>
      </trkpt>
      <trkpt lat="43.160244" lon="-2.148697">
        <ele>769.811</ele>
        <time>2021-03-21T08:45:13Z</time>
      </trkpt>
      <trkpt lat="43.160224" lon="-2.148700">
        <ele>769.262</ele>
        <time>2021-03-21T08:45:23Z</time>
      </trkpt>
      <trkpt lat="43.160196" lon="-2.148689">
        <ele>768.283</ele>
        <time>2021-03-21T08:45:24Z</time>
      </trkpt>
      <trkpt lat="43.160172" lon="-2.148678">
        <ele>767.411</ele>
        <time>2021-03-21T08:45:26Z</time>
      </trkpt>
      <trkpt lat="43.160155" lon="-2.148663">
        <ele>766.808</ele>
        <time>2021-03-21T08:45:29Z</time>
      </trkpt>
      <trkpt lat="43.160129" lon="-2.148659">
        <ele>766.032</ele>
        <time>2021-03-21T08:45:32Z</time>
      </trkpt>
      <trkpt lat="43.160096" lon="-2.148667">
        <ele>765.085</ele>
        <time>2021-03-21T08:45:34Z</time>
      </trkpt>
      <trkpt lat="43.160078" lon="-2.148674">
        <ele>764.448</ele>
        <time>2021-03-21T08:45:36Z</time>
      </trkpt>
      <trkpt lat="43.160058" lon="-2.148681">
        <ele>763.869</ele>
        <time>2021-03-21T08:45:37Z</time>
      </trkpt>
      <trkpt lat="43.160039" lon="-2.148677">
        <ele>763.266</ele>
        <time>2021-03-21T08:45:42Z</time>
      </trkpt>
      <trkpt lat="43.160022" lon="-2.148683">
        <ele>762.754</ele>
        <time>2021-03-21T08:45:47Z</time>
      </trkpt>
      <trkpt lat="43.160005" lon="-2.148691">
        <ele>762.224</ele>
        <time>2021-03-21T08:45:50Z</time>
      </trkpt>
      <trkpt lat="43.159988" lon="-2.148698">
        <ele>761.674</ele>
        <time>2021-03-21T08:45:52Z</time>
      </trkpt>
      <trkpt lat="43.159951" lon="-2.148710">
        <ele>760.524</ele>
        <time>2021-03-21T08:45:54Z</time>
      </trkpt>
      <trkpt lat="43.159909" lon="-2.148728">
        <ele>759.204</ele>
        <time>2021-03-21T08:45:55Z</time>
      </trkpt>
      <trkpt lat="43.159885" lon="-2.148739">
        <ele>758.314</ele>
        <time>2021-03-21T08:45:57Z</time>
      </trkpt>
      <trkpt lat="43.159846" lon="-2.148766">
        <ele>756.908</ele>
        <time>2021-03-21T08:45:58Z</time>
      </trkpt>
      <trkpt lat="43.159829" lon="-2.148778">
        <ele>756.218</ele>
        <time>2021-03-21T08:46:00Z</time>
      </trkpt>
      <trkpt lat="43.159823" lon="-2.148799">
        <ele>755.841</ele>
        <time>2021-03-21T08:46:03Z</time>
      </trkpt>
      <trkpt lat="43.159816" lon="-2.148810">
        <ele>755.584</ele>
        <time>2021-03-21T08:46:09Z</time>
      </trkpt>
      <trkpt lat="43.159823" lon="-2.148838">
        <ele>755.545</ele>
        <time>2021-03-21T08:46:42Z</time>
      </trkpt>
      <trkpt lat="43.159806" lon="-2.148853">
        <ele>754.762</ele>
        <time>2021-03-21T08:46:46Z</time>
      </trkpt>
      <trkpt lat="43.159762" lon="-2.148873">
        <ele>752.810</ele>
        <time>2021-03-21T08:46:47Z</time>
      </trkpt>
      <trkpt lat="43.159739" lon="-2.148887">
        <ele>751.790</ele>
        <time>2021-03-21T08:46:49Z</time>
      </trkpt>
      <trkpt lat="43.159716" lon="-2.148894">
        <ele>750.930</ele>
        <time>2021-03-21T08:46:50Z</time>
      </trkpt>
      <trkpt lat="43.159676" lon="-2.148913">
        <ele>749.829</ele>
        <time>2021-03-21T08:46:51Z</time>
      </trkpt>
      <trkpt lat="43.159639" lon="-2.148908">
        <ele>748.500</ele>
        <time>2021-03-21T08:46:53Z</time>
      </trkpt>
      <trkpt lat="43.159587" lon="-2.148913">
        <ele>746.920</ele>
        <time>2021-03-21T08:46:55Z</time>
      </trkpt>
      <trkpt lat="43.159554" lon="-2.148927">
        <ele>745.908</ele>
        <time>2021-03-21T08:46:57Z</time>
      </trkpt>
      <trkpt lat="43.159527" lon="-2.148944">
        <ele>745.248</ele>
        <time>2021-03-21T08:46:58Z</time>
      </trkpt>
      <trkpt lat="43.159508" lon="-2.148956">
        <ele>744.771</ele>
        <time>2021-03-21T08:46:59Z</time>
      </trkpt>
      <trkpt lat="43.159461" lon="-2.148973">
        <ele>743.234</ele>
        <time>2021-03-21T08:47:00Z</time>
      </trkpt>
      <trkpt lat="43.159436" lon="-2.148987">
        <ele>742.495</ele>
        <time>2021-03-21T08:47:01Z</time>
      </trkpt>
      <trkpt lat="43.159412" lon="-2.149003">
        <ele>741.572</ele>
        <time>2021-03-21T08:47:03Z</time>
      </trkpt>
      <trkpt lat="43.159389" lon="-2.149013">
        <ele>740.560</ele>
        <time>2021-03-21T08:47:04Z</time>
      </trkpt>
      <trkpt lat="43.159345" lon="-2.149030">
        <ele>738.710</ele>
        <time>2021-03-21T08:47:05Z</time>
      </trkpt>
      <trkpt lat="43.159318" lon="-2.149024">
        <ele>737.510</ele>
        <time>2021-03-21T08:47:08Z</time>
      </trkpt>
      <trkpt lat="43.159301" lon="-2.149034">
        <ele>736.878</ele>
        <time>2021-03-21T08:47:09Z</time>
      </trkpt>
      <trkpt lat="43.159261" lon="-2.149057">
        <ele>735.033</ele>
        <time>2021-03-21T08:47:10Z</time>
      </trkpt>
      <trkpt lat="43.159242" lon="-2.149064">
        <ele>734.126</ele>
        <time>2021-03-21T08:47:12Z</time>
      </trkpt>
      <trkpt lat="43.159199" lon="-2.149071">
        <ele>732.208</ele>
        <time>2021-03-21T08:47:13Z</time>
      </trkpt>
      <trkpt lat="43.159184" lon="-2.149060">
        <ele>731.523</ele>
        <time>2021-03-21T08:47:15Z</time>
      </trkpt>
      <trkpt lat="43.159156" lon="-2.149000">
        <ele>730.686</ele>
        <time>2021-03-21T08:47:17Z</time>
      </trkpt>
      <trkpt lat="43.159136" lon="-2.148972">
        <ele>729.889</ele>
        <time>2021-03-21T08:47:20Z</time>
      </trkpt>
      <trkpt lat="43.159122" lon="-2.148952">
        <ele>729.290</ele>
        <time>2021-03-21T08:47:21Z</time>
      </trkpt>
      <trkpt lat="43.159100" lon="-2.148924">
        <ele>728.317</ele>
        <time>2021-03-21T08:47:22Z</time>
      </trkpt>
      <trkpt lat="43.159090" lon="-2.148914">
        <ele>727.975</ele>
        <time>2021-03-21T08:47:24Z</time>
      </trkpt>
      <trkpt lat="43.159084" lon="-2.148937">
        <ele>727.445</ele>
        <time>2021-03-21T08:47:37Z</time>
      </trkpt>
      <trkpt lat="43.159077" lon="-2.148958">
        <ele>726.875</ele>
        <time>2021-03-21T08:47:59Z</time>
      </trkpt>
      <trkpt lat="43.159097" lon="-2.148946">
        <ele>728.026</ele>
        <time>2021-03-21T08:48:11Z</time>
      </trkpt>
      <trkpt lat="43.159077" lon="-2.148974">
        <ele>726.747</ele>
        <time>2021-03-21T08:49:24Z</time>
      </trkpt>
      <trkpt lat="43.159070" lon="-2.149002">
        <ele>726.011</ele>
        <time>2021-03-21T08:49:25Z</time>
      </trkpt>
      <trkpt lat="43.159070" lon="-2.149029">
        <ele>725.808</ele>
        <time>2021-03-21T08:49:27Z</time>
      </trkpt>
      <trkpt lat="43.159079" lon="-2.149060">
        <ele>726.068</ele>
        <time>2021-03-21T08:49:30Z</time>
      </trkpt>
      <trkpt lat="43.159065" lon="-2.149092">
        <ele>724.991</ele>
        <time>2021-03-21T08:49:35Z</time>
      </trkpt>
      <trkpt lat="43.159064" lon="-2.149124">
        <ele>724.584</ele>
        <time>2021-03-21T08:49:38Z</time>
      </trkpt>
      <trkpt lat="43.159066" lon="-2.149159">
        <ele>724.385</ele>
        <time>2021-03-21T08:49:39Z</time>
      </trkpt>
      <trkpt lat="43.159060" lon="-2.149191">
        <ele>723.992</ele>
        <time>2021-03-21T08:49:41Z</time>
      </trkpt>
      <trkpt lat="43.159052" lon="-2.149221">
        <ele>723.680</ele>
        <time>2021-03-21T08:49:44Z</time>
      </trkpt>
      <trkpt lat="43.159043" lon="-2.149241">
        <ele>723.130</ele>
        <time>2021-03-21T08:49:46Z</time>
      </trkpt>
      <trkpt lat="43.159033" lon="-2.149272">
        <ele>722.790</ele>
        <time>2021-03-21T08:49:48Z</time>
      </trkpt>
      <trkpt lat="43.159023" lon="-2.149305">
        <ele>722.248</ele>
        <time>2021-03-21T08:49:50Z</time>
      </trkpt>
      <trkpt lat="43.158981" lon="-2.149383">
        <ele>720.161</ele>
        <time>2021-03-21T08:49:53Z</time>
      </trkpt>
      <trkpt lat="43.158959" lon="-2.149419">
        <ele>718.917</ele>
        <time>2021-03-21T08:49:55Z</time>
      </trkpt>
      <trkpt lat="43.158938" lon="-2.149456">
        <ele>718.008</ele>
        <time>2021-03-21T08:49:56Z</time>
      </trkpt>
      <trkpt lat="43.158917" lon="-2.149495">
        <ele>717.530</ele>
        <time>2021-03-21T08:49:57Z</time>
      </trkpt>
      <trkpt lat="43.158898" lon="-2.149540">
        <ele>717.293</ele>
        <time>2021-03-21T08:49:58Z</time>
      </trkpt>
      <trkpt lat="43.158882" lon="-2.149582">
        <ele>717.176</ele>
        <time>2021-03-21T08:49:59Z</time>
      </trkpt>
      <trkpt lat="43.158841" lon="-2.149658">
        <ele>716.267</ele>
        <time>2021-03-21T08:50:00Z</time>
      </trkpt>
      <trkpt lat="43.158817" lon="-2.149692">
        <ele>715.594</ele>
        <time>2021-03-21T08:50:01Z</time>
      </trkpt>
      <trkpt lat="43.158795" lon="-2.149731">
        <ele>715.072</ele>
        <time>2021-03-21T08:50:03Z</time>
      </trkpt>
      <trkpt lat="43.158777" lon="-2.149769">
        <ele>714.412</ele>
        <time>2021-03-21T08:50:04Z</time>
      </trkpt>
      <trkpt lat="43.158759" lon="-2.149811">
        <ele>713.872</ele>
        <time>2021-03-21T08:50:05Z</time>
      </trkpt>
      <trkpt lat="43.158740" lon="-2.149852">
        <ele>713.128</ele>
        <time>2021-03-21T08:50:06Z</time>
      </trkpt>
      <trkpt lat="43.158721" lon="-2.149892">
        <ele>712.589</ele>
        <time>2021-03-21T08:50:07Z</time>
      </trkpt>
      <trkpt lat="43.158702" lon="-2.149929">
        <ele>711.917</ele>
        <time>2021-03-21T08:50:08Z</time>
      </trkpt>
      <trkpt lat="43.158665" lon="-2.149999">
        <ele>710.708</ele>
        <time>2021-03-21T08:50:09Z</time>
      </trkpt>
      <trkpt lat="43.158646" lon="-2.150030">
        <ele>709.998</ele>
        <time>2021-03-21T08:50:11Z</time>
      </trkpt>
      <trkpt lat="43.158629" lon="-2.150062">
        <ele>709.271</ele>
        <time>2021-03-21T08:50:12Z</time>
      </trkpt>
      <trkpt lat="43.158599" lon="-2.150123">
        <ele>707.854</ele>
        <time>2021-03-21T08:50:13Z</time>
      </trkpt>
      <trkpt lat="43.158585" lon="-2.150154">
        <ele>707.215</ele>
        <time>2021-03-21T08:50:15Z</time>
      </trkpt>
      <trkpt lat="43.158578" lon="-2.150185">
        <ele>706.992</ele>
        <time>2021-03-21T08:50:16Z</time>
      </trkpt>
      <trkpt lat="43.158568" lon="-2.150208">
        <ele>706.510</ele>
        <time>2021-03-21T08:50:17Z</time>
      </trkpt>
      <trkpt lat="43.158542" lon="-2.150236">
        <ele>705.330</ele>
        <time>2021-03-21T08:50:19Z</time>
      </trkpt>
      <trkpt lat="43.158518" lon="-2.150242">
        <ele>704.110</ele>
        <time>2021-03-21T08:50:20Z</time>
      </trkpt>
      <trkpt lat="43.158498" lon="-2.150235">
        <ele>703.064</ele>
        <time>2021-03-21T08:50:23Z</time>
      </trkpt>
      <trkpt lat="43.158484" lon="-2.150237">
        <ele>702.306</ele>
        <time>2021-03-21T08:50:28Z</time>
      </trkpt>
      <trkpt lat="43.158481" lon="-2.150262">
        <ele>702.316</ele>
        <time>2021-03-21T08:50:34Z</time>
      </trkpt>
      <trkpt lat="43.158457" lon="-2.150298">
        <ele>701.608</ele>
        <time>2021-03-21T08:50:35Z</time>
      </trkpt>
      <trkpt lat="43.158436" lon="-2.150319">
        <ele>700.932</ele>
        <time>2021-03-21T08:50:37Z</time>
      </trkpt>
      <trkpt lat="43.158419" lon="-2.150336">
        <ele>700.435</ele>
        <time>2021-03-21T08:50:38Z</time>
      </trkpt>
      <trkpt lat="43.158398" lon="-2.150357">
        <ele>699.898</ele>
        <time>2021-03-21T08:50:39Z</time>
      </trkpt>
      <trkpt lat="43.158337" lon="-2.150408">
        <ele>698.019</ele>
        <time>2021-03-21T08:50:40Z</time>
      </trkpt>
      <trkpt lat="43.158304" lon="-2.150433">
        <ele>697.186</ele>
        <time>2021-03-21T08:50:42Z</time>
      </trkpt>
      <trkpt lat="43.158231" lon="-2.150479">
        <ele>695.294</ele>
        <time>2021-03-21T08:50:43Z</time>
      </trkpt>
      <trkpt lat="43.158195" lon="-2.150501">
        <ele>694.224</ele>
        <time>2021-03-21T08:50:45Z</time>
      </trkpt>
      <trkpt lat="43.158138" lon="-2.150537">
        <ele>692.884</ele>
        <time>2021-03-21T08:50:46Z</time>
      </trkpt>
      <trkpt lat="43.158114" lon="-2.150547">
        <ele>692.136</ele>
        <time>2021-03-21T08:50:48Z</time>
      </trkpt>
      <trkpt lat="43.158071" lon="-2.150560">
        <ele>690.717</ele>
        <time>2021-03-21T08:50:50Z</time>
      </trkpt>
      <trkpt lat="43.158050" lon="-2.150573">
        <ele>690.018</ele>
        <time>2021-03-21T08:50:51Z</time>
      </trkpt>
      <trkpt lat="43.158031" lon="-2.150582">
        <ele>689.008</ele>
        <time>2021-03-21T08:50:52Z</time>
      </trkpt>
      <trkpt lat="43.157987" lon="-2.150605">
        <ele>686.829</ele>
        <time>2021-03-21T08:50:53Z</time>
      </trkpt>
      <trkpt lat="43.157961" lon="-2.150620">
        <ele>685.452</ele>
        <time>2021-03-21T08:50:55Z</time>
      </trkpt>
      <trkpt lat="43.157934" lon="-2.150634">
        <ele>683.945</ele>
        <time>2021-03-21T08:50:56Z</time>
      </trkpt>
      <trkpt lat="43.157876" lon="-2.150681">
        <ele>680.736</ele>
        <time>2021-03-21T08:50:57Z</time>
      </trkpt>
      <trkpt lat="43.157854" lon="-2.150705">
        <ele>679.573</ele>
        <time>2021-03-21T08:50:59Z</time>
      </trkpt>
      <trkpt lat="43.157826" lon="-2.150737">
        <ele>677.911</ele>
        <time>2021-03-21T08:51:00Z</time>
      </trkpt>
      <trkpt lat="43.157800" lon="-2.150762">
        <ele>676.311</ele>
        <time>2021-03-21T08:51:01Z</time>
      </trkpt>
      <trkpt lat="43.157779" lon="-2.150790">
        <ele>674.931</ele>
        <time>2021-03-21T08:51:02Z</time>
      </trkpt>
      <trkpt lat="43.157763" lon="-2.150818">
        <ele>673.963</ele>
        <time>2021-03-21T08:51:03Z</time>
      </trkpt>
      <trkpt lat="43.157746" lon="-2.150847">
        <ele>673.044</ele>
        <time>2021-03-21T08:51:04Z</time>
      </trkpt>
      <trkpt lat="43.157720" lon="-2.150897">
        <ele>672.318</ele>
        <time>2021-03-21T08:51:05Z</time>
      </trkpt>
      <trkpt lat="43.157703" lon="-2.150925">
        <ele>671.808</ele>
        <time>2021-03-21T08:51:07Z</time>
      </trkpt>
      <trkpt lat="43.157685" lon="-2.150951">
        <ele>671.142</ele>
        <time>2021-03-21T08:51:08Z</time>
      </trkpt>
      <trkpt lat="43.157651" lon="-2.151016">
        <ele>670.475</ele>
        <time>2021-03-21T08:51:09Z</time>
      </trkpt>
      <trkpt lat="43.157615" lon="-2.151088">
        <ele>669.958</ele>
        <time>2021-03-21T08:51:11Z</time>
      </trkpt>
      <trkpt lat="43.157583" lon="-2.151157">
        <ele>668.639</ele>
        <time>2021-03-21T08:51:13Z</time>
      </trkpt>
      <trkpt lat="43.157568" lon="-2.151177">
        <ele>667.826</ele>
        <time>2021-03-21T08:51:15Z</time>
      </trkpt>
      <trkpt lat="43.157554" lon="-2.151195">
        <ele>667.134</ele>
        <time>2021-03-21T08:51:16Z</time>
      </trkpt>
      <trkpt lat="43.157542" lon="-2.151213">
        <ele>666.554</ele>
        <time>2021-03-21T08:51:18Z</time>
      </trkpt>
      <trkpt lat="43.157523" lon="-2.151211">
        <ele>665.464</ele>
        <time>2021-03-21T08:51:20Z</time>
      </trkpt>
      <trkpt lat="43.157506" lon="-2.151201">
        <ele>664.379</ele>
        <time>2021-03-21T08:51:22Z</time>
      </trkpt>
      <trkpt lat="43.157482" lon="-2.151187">
        <ele>662.805</ele>
        <time>2021-03-21T08:51:23Z</time>
      </trkpt>
      <trkpt lat="43.157459" lon="-2.151172">
        <ele>661.325</ele>
        <time>2021-03-21T08:51:24Z</time>
      </trkpt>
      <trkpt lat="43.157411" lon="-2.151176">
        <ele>658.608</ele>
        <time>2021-03-21T08:51:25Z</time>
      </trkpt>
      <trkpt lat="43.157325" lon="-2.151262">
        <ele>655.623</ele>
        <time>2021-03-21T08:51:30Z</time>
      </trkpt>
      <trkpt lat="43.157307" lon="-2.151285">
        <ele>655.286</ele>
        <time>2021-03-21T08:51:31Z</time>
      </trkpt>
      <trkpt lat="43.157290" lon="-2.151299">
        <ele>654.779</ele>
        <time>2021-03-21T08:51:32Z</time>
      </trkpt>
      <trkpt lat="43.157249" lon="-2.151325">
        <ele>653.430</ele>
        <time>2021-03-21T08:51:33Z</time>
      </trkpt>
      <trkpt lat="43.157235" lon="-2.151343">
        <ele>653.357</ele>
        <time>2021-03-21T08:51:35Z</time>
      </trkpt>
      <trkpt lat="43.157137" lon="-2.151342">
        <ele>649.445</ele>
        <time>2021-03-21T08:51:39Z</time>
      </trkpt>
      <trkpt lat="43.157090" lon="-2.151348">
        <ele>647.755</ele>
        <time>2021-03-21T08:51:41Z</time>
      </trkpt>
      <trkpt lat="43.157065" lon="-2.151353">
        <ele>646.925</ele>
        <time>2021-03-21T08:51:43Z</time>
      </trkpt>
      <trkpt lat="43.157023" lon="-2.151380">
        <ele>645.962</ele>
        <time>2021-03-21T08:51:44Z</time>
      </trkpt>
      <trkpt lat="43.157007" lon="-2.151424">
        <ele>645.483</ele>
        <time>2021-03-21T08:51:46Z</time>
      </trkpt>
      <trkpt lat="43.156993" lon="-2.151493">
        <ele>644.711</ele>
        <time>2021-03-21T08:51:48Z</time>
      </trkpt>
      <trkpt lat="43.156993" lon="-2.151524">
        <ele>644.608</ele>
        <time>2021-03-21T08:51:50Z</time>
      </trkpt>
      <trkpt lat="43.156991" lon="-2.151575">
        <ele>644.482</ele>
        <time>2021-03-21T08:51:51Z</time>
      </trkpt>
      <trkpt lat="43.156977" lon="-2.151624">
        <ele>643.965</ele>
        <time>2021-03-21T08:51:54Z</time>
      </trkpt>
      <trkpt lat="43.156967" lon="-2.151651">
        <ele>643.628</ele>
        <time>2021-03-21T08:51:55Z</time>
      </trkpt>
      <trkpt lat="43.156937" lon="-2.151709">
        <ele>642.519</ele>
        <time>2021-03-21T08:51:56Z</time>
      </trkpt>
      <trkpt lat="43.156924" lon="-2.151732">
        <ele>642.226</ele>
        <time>2021-03-21T08:51:58Z</time>
      </trkpt>
      <trkpt lat="43.156906" lon="-2.151745">
        <ele>642.084</ele>
        <time>2021-03-21T08:51:59Z</time>
      </trkpt>
      <trkpt lat="43.156912" lon="-2.151729">
        <ele>642.274</ele>
        <time>2021-03-21T08:52:02Z</time>
      </trkpt>
      <trkpt lat="43.156897" lon="-2.151700">
        <ele>642.474</ele>
        <time>2021-03-21T08:52:04Z</time>
      </trkpt>
      <trkpt lat="43.156833" lon="-2.151585">
        <ele>641.532</ele>
        <time>2021-03-21T08:52:09Z</time>
      </trkpt>
      <trkpt lat="43.156743" lon="-2.151513">
        <ele>639.192</ele>
        <time>2021-03-21T08:52:13Z</time>
      </trkpt>
      <trkpt lat="43.156650" lon="-2.151462">
        <ele>636.611</ele>
        <time>2021-03-21T08:52:16Z</time>
      </trkpt>
      <trkpt lat="43.156579" lon="-2.151424">
        <ele>635.608</ele>
        <time>2021-03-21T08:52:18Z</time>
      </trkpt>
      <trkpt lat="43.156520" lon="-2.151382">
        <ele>634.299</ele>
        <time>2021-03-21T08:52:20Z</time>
      </trkpt>
      <trkpt lat="43.156492" lon="-2.151365">
        <ele>633.552</ele>
        <time>2021-03-21T08:52:21Z</time>
      </trkpt>
      <trkpt lat="43.156402" lon="-2.151329">
        <ele>631.765</ele>
        <time>2021-03-21T08:52:23Z</time>
      </trkpt>
      <trkpt lat="43.156328" lon="-2.151290">
        <ele>630.186</ele>
        <time>2021-03-21T08:52:24Z</time>
      </trkpt>
      <trkpt lat="43.156291" lon="-2.151275">
        <ele>629.673</ele>
        <time>2021-03-21T08:52:26Z</time>
      </trkpt>
      <trkpt lat="43.156189" lon="-2.151229">
        <ele>627.691</ele>
        <time>2021-03-21T08:52:28Z</time>
      </trkpt>
      <trkpt lat="43.156153" lon="-2.151217">
        <ele>627.041</ele>
        <time>2021-03-21T08:52:30Z</time>
      </trkpt>
      <trkpt lat="43.156088" lon="-2.151198">
        <ele>626.191</ele>
        <time>2021-03-21T08:52:31Z</time>
      </trkpt>
      <trkpt lat="43.156052" lon="-2.151188">
        <ele>625.747</ele>
        <time>2021-03-21T08:52:33Z</time>
      </trkpt>
      <trkpt lat="43.156020" lon="-2.151184">
        <ele>625.529</ele>
        <time>2021-03-21T08:52:34Z</time>
      </trkpt>
      <trkpt lat="43.155990" lon="-2.151180">
        <ele>625.321</ele>
        <time>2021-03-21T08:52:35Z</time>
      </trkpt>
      <trkpt lat="43.155928" lon="-2.151180">
        <ele>625.408</ele>
        <time>2021-03-21T08:52:36Z</time>
      </trkpt>
      <trkpt lat="43.155895" lon="-2.151190">
        <ele>625.960</ele>
        <time>2021-03-21T08:52:38Z</time>
      </trkpt>
      <trkpt lat="43.155865" lon="-2.151201">
        <ele>626.533</ele>
        <time>2021-03-21T08:52:39Z</time>
      </trkpt>
      <trkpt lat="43.155835" lon="-2.151206">
        <ele>626.816</ele>
        <time>2021-03-21T08:52:40Z</time>
      </trkpt>
      <trkpt lat="43.155807" lon="-2.151209">
        <ele>626.377</ele>
        <time>2021-03-21T08:52:41Z</time>
      </trkpt>
      <trkpt lat="43.155754" lon="-2.151223">
        <ele>625.524</ele>
        <time>2021-03-21T08:52:42Z</time>
      </trkpt>
      <trkpt lat="43.155730" lon="-2.151236">
        <ele>625.492</ele>
        <time>2021-03-21T08:52:43Z</time>
      </trkpt>
      <trkpt lat="43.155708" lon="-2.151251">
        <ele>625.492</ele>
        <time>2021-03-21T08:52:44Z</time>
      </trkpt>
      <trkpt lat="43.155684" lon="-2.151272">
        <ele>625.612</ele>
        <time>2021-03-21T08:52:45Z</time>
      </trkpt>
      <trkpt lat="43.155655" lon="-2.151291">
        <ele>625.449</ele>
        <time>2021-03-21T08:52:47Z</time>
      </trkpt>
      <trkpt lat="43.155604" lon="-2.151337">
        <ele>625.202</ele>
        <time>2021-03-21T08:52:48Z</time>
      </trkpt>
      <trkpt lat="43.155576" lon="-2.151369">
        <ele>625.222</ele>
        <time>2021-03-21T08:52:49Z</time>
      </trkpt>
      <trkpt lat="43.155513" lon="-2.151417">
        <ele>624.708</ele>
        <time>2021-03-21T08:52:51Z</time>
      </trkpt>
      <trkpt lat="43.155447" lon="-2.151451">
        <ele>624.240</ele>
        <time>2021-03-21T08:52:53Z</time>
      </trkpt>
      <trkpt lat="43.155386" lon="-2.151479">
        <ele>623.833</ele>
        <time>2021-03-21T08:52:55Z</time>
      </trkpt>
      <trkpt lat="43.155357" lon="-2.151491">
        <ele>623.656</ele>
        <time>2021-03-21T08:52:56Z</time>
      </trkpt>
      <trkpt lat="43.155329" lon="-2.151503">
        <ele>623.587</ele>
        <time>2021-03-21T08:52:57Z</time>
      </trkpt>
      <trkpt lat="43.155267" lon="-2.151521">
        <ele>623.044</ele>
        <time>2021-03-21T08:52:59Z</time>
      </trkpt>
      <trkpt lat="43.155241" lon="-2.151526">
        <ele>623.082</ele>
        <time>2021-03-21T08:53:01Z</time>
      </trkpt>
      <trkpt lat="43.155211" lon="-2.151529">
        <ele>622.792</ele>
        <time>2021-03-21T08:53:02Z</time>
      </trkpt>
      <trkpt lat="43.155163" lon="-2.151533">
        <ele>622.322</ele>
        <time>2021-03-21T08:53:03Z</time>
      </trkpt>
      <trkpt lat="43.155145" lon="-2.151537">
        <ele>622.287</ele>
        <time>2021-03-21T08:53:05Z</time>
      </trkpt>
      <trkpt lat="43.155126" lon="-2.151542">
        <ele>622.242</ele>
        <time>2021-03-21T08:53:06Z</time>
      </trkpt>
      <trkpt lat="43.155087" lon="-2.151570">
        <ele>622.826</ele>
        <time>2021-03-21T08:53:07Z</time>
      </trkpt>
      <trkpt lat="43.155062" lon="-2.151586">
        <ele>623.008</ele>
        <time>2021-03-21T08:53:09Z</time>
      </trkpt>
      <trkpt lat="43.155039" lon="-2.151603">
        <ele>623.334</ele>
        <time>2021-03-21T08:53:10Z</time>
      </trkpt>
      <trkpt lat="43.154998" lon="-2.151642">
        <ele>624.067</ele>
        <time>2021-03-21T08:53:11Z</time>
      </trkpt>
      <trkpt lat="43.154978" lon="-2.151664">
        <ele>623.860</ele>
        <time>2021-03-21T08:53:13Z</time>
      </trkpt>
      <trkpt lat="43.154938" lon="-2.151706">
        <ele>622.621</ele>
        <time>2021-03-21T08:53:14Z</time>
      </trkpt>
      <trkpt lat="43.154913" lon="-2.151728">
        <ele>621.758</ele>
        <time>2021-03-21T08:53:15Z</time>
      </trkpt>
      <trkpt lat="43.154889" lon="-2.151755">
        <ele>621.076</ele>
        <time>2021-03-21T08:53:16Z</time>
      </trkpt>
      <trkpt lat="43.154874" lon="-2.151776">
        <ele>620.666</ele>
        <time>2021-03-21T08:53:18Z</time>
      </trkpt>
      <trkpt lat="43.154856" lon="-2.151801">
        <ele>620.216</ele>
        <time>2021-03-21T08:53:19Z</time>
      </trkpt>
      <trkpt lat="43.154825" lon="-2.151862">
        <ele>619.749</ele>
        <time>2021-03-21T08:53:20Z</time>
      </trkpt>
      <trkpt lat="43.154812" lon="-2.151902">
        <ele>619.802</ele>
        <time>2021-03-21T08:53:21Z</time>
      </trkpt>
      <trkpt lat="43.154791" lon="-2.151983">
        <ele>619.522</ele>
        <time>2021-03-21T08:53:23Z</time>
      </trkpt>
      <trkpt lat="43.154782" lon="-2.152025">
        <ele>619.208</ele>
        <time>2021-03-21T08:53:25Z</time>
      </trkpt>
      <trkpt lat="43.154775" lon="-2.152073">
        <ele>618.970</ele>
        <time>2021-03-21T08:53:26Z</time>
      </trkpt>
      <trkpt lat="43.154764" lon="-2.152148">
        <ele>618.673</ele>
        <time>2021-03-21T08:53:27Z</time>
      </trkpt>
      <trkpt lat="43.154761" lon="-2.152186">
        <ele>618.686</ele>
        <time>2021-03-21T08:53:29Z</time>
      </trkpt>
      <trkpt lat="43.154755" lon="-2.152225">
        <ele>618.457</ele>
        <time>2021-03-21T08:53:30Z</time>
      </trkpt>
      <trkpt lat="43.154750" lon="-2.152265">
        <ele>618.084</ele>
        <time>2021-03-21T08:53:31Z</time>
      </trkpt>
      <trkpt lat="43.154748" lon="-2.152307">
        <ele>617.862</ele>
        <time>2021-03-21T08:53:32Z</time>
      </trkpt>
      <trkpt lat="43.154746" lon="-2.152355">
        <ele>617.562</ele>
        <time>2021-03-21T08:53:33Z</time>
      </trkpt>
      <trkpt lat="43.154747" lon="-2.152435">
        <ele>617.232</ele>
        <time>2021-03-21T08:53:34Z</time>
      </trkpt>
      <trkpt lat="43.154749" lon="-2.152474">
        <ele>617.127</ele>
        <time>2021-03-21T08:53:36Z</time>
      </trkpt>
      <trkpt lat="43.154759" lon="-2.152547">
        <ele>617.168</ele>
        <time>2021-03-21T08:53:37Z</time>
      </trkpt>
      <trkpt lat="43.154758" lon="-2.152590">
        <ele>616.814</ele>
        <time>2021-03-21T08:53:39Z</time>
      </trkpt>
      <trkpt lat="43.154758" lon="-2.152632">
        <ele>616.608</ele>
        <time>2021-03-21T08:53:40Z</time>
      </trkpt>
      <trkpt lat="43.154761" lon="-2.152719">
        <ele>616.318</ele>
        <time>2021-03-21T08:53:41Z</time>
      </trkpt>
      <trkpt lat="43.154788" lon="-2.152872">
        <ele>615.861</ele>
        <time>2021-03-21T08:53:44Z</time>
      </trkpt>
      <trkpt lat="43.154808" lon="-2.152964">
        <ele>615.444</ele>
        <time>2021-03-21T08:53:46Z</time>
      </trkpt>
      <trkpt lat="43.154813" lon="-2.152998">
        <ele>615.225</ele>
        <time>2021-03-21T08:53:48Z</time>
      </trkpt>
      <trkpt lat="43.154816" lon="-2.153062">
        <ele>614.652</ele>
        <time>2021-03-21T08:53:49Z</time>
      </trkpt>
      <trkpt lat="43.154829" lon="-2.153134">
        <ele>614.290</ele>
        <time>2021-03-21T08:53:51Z</time>
      </trkpt>
      <trkpt lat="43.154827" lon="-2.153166">
        <ele>613.980</ele>
        <time>2021-03-21T08:53:53Z</time>
      </trkpt>
      <trkpt lat="43.154803" lon="-2.153218">
        <ele>613.130</ele>
        <time>2021-03-21T08:53:54Z</time>
      </trkpt>
      <trkpt lat="43.154786" lon="-2.153241">
        <ele>612.753</ele>
        <time>2021-03-21T08:53:56Z</time>
      </trkpt>
      <trkpt lat="43.154756" lon="-2.153294">
        <ele>611.804</ele>
        <time>2021-03-21T08:53:57Z</time>
      </trkpt>
      <trkpt lat="43.154724" lon="-2.153341">
        <ele>610.914</ele>
        <time>2021-03-21T08:53:59Z</time>
      </trkpt>
      <trkpt lat="43.154689" lon="-2.153382">
        <ele>610.108</ele>
        <time>2021-03-21T08:54:01Z</time>
      </trkpt>
      <trkpt lat="43.154665" lon="-2.153398">
        <ele>609.771</ele>
        <time>2021-03-21T08:54:03Z</time>
      </trkpt>
      <trkpt lat="43.154616" lon="-2.153420">
        <ele>609.064</ele>
        <time>2021-03-21T08:54:04Z</time>
      </trkpt>
      <trkpt lat="43.154593" lon="-2.153439">
        <ele>608.547</ele>
        <time>2021-03-21T08:54:06Z</time>
      </trkpt>
      <trkpt lat="43.154545" lon="-2.153477">
        <ele>607.758</ele>
        <time>2021-03-21T08:54:07Z</time>
      </trkpt>
      <trkpt lat="43.154522" lon="-2.153494">
        <ele>607.255</ele>
        <time>2021-03-21T08:54:08Z</time>
      </trkpt>
      <trkpt lat="43.154470" lon="-2.153524">
        <ele>606.413</ele>
        <time>2021-03-21T08:54:10Z</time>
      </trkpt>
      <trkpt lat="43.154445" lon="-2.153540">
        <ele>606.083</ele>
        <time>2021-03-21T08:54:12Z</time>
      </trkpt>
      <trkpt lat="43.154421" lon="-2.153556">
        <ele>605.643</ele>
        <time>2021-03-21T08:54:13Z</time>
      </trkpt>
      <trkpt lat="43.154377" lon="-2.153594">
        <ele>604.721</ele>
        <time>2021-03-21T08:54:14Z</time>
      </trkpt>
      <trkpt lat="43.154360" lon="-2.153611">
        <ele>604.441</ele>
        <time>2021-03-21T08:54:16Z</time>
      </trkpt>
      <trkpt lat="43.154338" lon="-2.153627">
        <ele>604.005</ele>
        <time>2021-03-21T08:54:17Z</time>
      </trkpt>
      <trkpt lat="43.154320" lon="-2.153641">
        <ele>603.608</ele>
        <time>2021-03-21T08:54:18Z</time>
      </trkpt>
      <trkpt lat="43.154262" lon="-2.153670">
        <ele>602.798</ele>
        <time>2021-03-21T08:54:19Z</time>
      </trkpt>
      <trkpt lat="43.154205" lon="-2.153698">
        <ele>601.841</ele>
        <time>2021-03-21T08:54:21Z</time>
      </trkpt>
      <trkpt lat="43.154184" lon="-2.153718">
        <ele>601.284</ele>
        <time>2021-03-21T08:54:23Z</time>
      </trkpt>
      <trkpt lat="43.154165" lon="-2.153738">
        <ele>600.795</ele>
        <time>2021-03-21T08:54:24Z</time>
      </trkpt>
      <trkpt lat="43.154122" lon="-2.153773">
        <ele>599.522</ele>
        <time>2021-03-21T08:54:25Z</time>
      </trkpt>
      <trkpt lat="43.154100" lon="-2.153782">
        <ele>599.090</ele>
        <time>2021-03-21T08:54:27Z</time>
      </trkpt>
      <trkpt lat="43.154082" lon="-2.153787">
        <ele>598.780</ele>
        <time>2021-03-21T08:54:28Z</time>
      </trkpt>
      <trkpt lat="43.154041" lon="-2.153820">
        <ele>597.750</ele>
        <time>2021-03-21T08:54:29Z</time>
      </trkpt>
      <trkpt lat="43.154022" lon="-2.153840">
        <ele>597.142</ele>
        <time>2021-03-21T08:54:31Z</time>
      </trkpt>
      <trkpt lat="43.154000" lon="-2.153855">
        <ele>596.722</ele>
        <time>2021-03-21T08:54:32Z</time>
      </trkpt>
      <trkpt lat="43.153978" lon="-2.153868">
        <ele>596.214</ele>
        <time>2021-03-21T08:54:33Z</time>
      </trkpt>
      <trkpt lat="43.153958" lon="-2.153885">
        <ele>595.808</ele>
        <time>2021-03-21T08:54:34Z</time>
      </trkpt>
      <trkpt lat="43.153942" lon="-2.153898">
        <ele>595.450</ele>
        <time>2021-03-21T08:54:35Z</time>
      </trkpt>
      <trkpt lat="43.153920" lon="-2.153907">
        <ele>595.133</ele>
        <time>2021-03-21T08:54:36Z</time>
      </trkpt>
      <trkpt lat="43.153895" lon="-2.153915">
        <ele>594.716</ele>
        <time>2021-03-21T08:54:37Z</time>
      </trkpt>
      <trkpt lat="43.153868" lon="-2.153923">
        <ele>594.317</ele>
        <time>2021-03-21T08:54:38Z</time>
      </trkpt>
      <trkpt lat="43.153799" lon="-2.153972">
        <ele>593.054</ele>
        <time>2021-03-21T08:54:40Z</time>
      </trkpt>
      <trkpt lat="43.153704" lon="-2.154044">
        <ele>591.552</ele>
        <time>2021-03-21T08:54:43Z</time>
      </trkpt>
      <trkpt lat="43.153636" lon="-2.154086">
        <ele>590.722</ele>
        <time>2021-03-21T08:54:44Z</time>
      </trkpt>
      <trkpt lat="43.153568" lon="-2.154132">
        <ele>589.682</ele>
        <time>2021-03-21T08:54:46Z</time>
      </trkpt>
      <trkpt lat="43.153537" lon="-2.154152">
        <ele>589.088</ele>
        <time>2021-03-21T08:54:48Z</time>
      </trkpt>
      <trkpt lat="43.153499" lon="-2.154194">
        <ele>588.124</ele>
        <time>2021-03-21T08:54:49Z</time>
      </trkpt>
      <trkpt lat="43.153497" lon="-2.154245">
        <ele>587.526</ele>
        <time>2021-03-21T08:54:51Z</time>
      </trkpt>
      <trkpt lat="43.153506" lon="-2.154292">
        <ele>587.008</ele>
        <time>2021-03-21T08:54:52Z</time>
      </trkpt>
      <trkpt lat="43.153511" lon="-2.154333">
        <ele>586.654</ele>
        <time>2021-03-21T08:54:53Z</time>
      </trkpt>
      <trkpt lat="43.153488" lon="-2.154394">
        <ele>585.727</ele>
        <time>2021-03-21T08:54:54Z</time>
      </trkpt>
      <trkpt lat="43.153442" lon="-2.154435">
        <ele>584.970</ele>
        <time>2021-03-21T08:54:56Z</time>
      </trkpt>
      <trkpt lat="43.153413" lon="-2.154452">
        <ele>584.531</ele>
        <time>2021-03-21T08:54:57Z</time>
      </trkpt>
      <trkpt lat="43.153382" lon="-2.154473">
        <ele>584.078</ele>
        <time>2021-03-21T08:54:59Z</time>
      </trkpt>
      <trkpt lat="43.153356" lon="-2.154507">
        <ele>583.516</ele>
        <time>2021-03-21T08:55:00Z</time>
      </trkpt>
      <trkpt lat="43.153332" lon="-2.154541">
        <ele>582.916</ele>
        <time>2021-03-21T08:55:01Z</time>
      </trkpt>
      <trkpt lat="43.153305" lon="-2.154567">
        <ele>582.336</ele>
        <time>2021-03-21T08:55:02Z</time>
      </trkpt>
      <trkpt lat="43.153277" lon="-2.154584">
        <ele>581.895</ele>
        <time>2021-03-21T08:55:03Z</time>
      </trkpt>
      <trkpt lat="43.153245" lon="-2.154590">
        <ele>581.349</ele>
        <time>2021-03-21T08:55:04Z</time>
      </trkpt>
      <trkpt lat="43.153179" lon="-2.154607">
        <ele>580.323</ele>
        <time>2021-03-21T08:55:05Z</time>
      </trkpt>
      <trkpt lat="43.153117" lon="-2.154618">
        <ele>579.508</ele>
        <time>2021-03-21T08:55:07Z</time>
      </trkpt>
      <trkpt lat="43.153088" lon="-2.154629">
        <ele>579.125</ele>
        <time>2021-03-21T08:55:09Z</time>
      </trkpt>
      <trkpt lat="43.153038" lon="-2.154647">
        <ele>578.628</ele>
        <time>2021-03-21T08:55:10Z</time>
      </trkpt>
      <trkpt lat="43.153014" lon="-2.154653">
        <ele>578.711</ele>
        <time>2021-03-21T08:55:12Z</time>
      </trkpt>
      <trkpt lat="43.152990" lon="-2.154665">
        <ele>578.882</ele>
        <time>2021-03-21T08:55:13Z</time>
      </trkpt>
      <trkpt lat="43.152964" lon="-2.154682">
        <ele>578.939</ele>
        <time>2021-03-21T08:55:14Z</time>
      </trkpt>
      <trkpt lat="43.152928" lon="-2.154739">
        <ele>578.787</ele>
        <time>2021-03-21T08:55:15Z</time>
      </trkpt>
      <trkpt lat="43.152922" lon="-2.154828">
        <ele>577.647</ele>
        <time>2021-03-21T08:55:17Z</time>
      </trkpt>
      <trkpt lat="43.152924" lon="-2.154875">
        <ele>577.027</ele>
        <time>2021-03-21T08:55:19Z</time>
      </trkpt>
      <trkpt lat="43.152931" lon="-2.154963">
        <ele>575.897</ele>
        <time>2021-03-21T08:55:20Z</time>
      </trkpt>
      <trkpt lat="43.152931" lon="-2.155003">
        <ele>575.323</ele>
        <time>2021-03-21T08:55:22Z</time>
      </trkpt>
      <trkpt lat="43.152931" lon="-2.155038">
        <ele>574.825</ele>
        <time>2021-03-21T08:55:23Z</time>
      </trkpt>
      <trkpt lat="43.152931" lon="-2.155072">
        <ele>574.408</ele>
        <time>2021-03-21T08:55:24Z</time>
      </trkpt>
      <trkpt lat="43.152936" lon="-2.155156">
        <ele>573.275</ele>
        <time>2021-03-21T08:55:25Z</time>
      </trkpt>
      <trkpt lat="43.152943" lon="-2.155202">
        <ele>572.598</ele>
        <time>2021-03-21T08:55:27Z</time>
      </trkpt>
      <trkpt lat="43.152966" lon="-2.155288">
        <ele>570.831</ele>
        <time>2021-03-21T08:55:28Z</time>
      </trkpt>
      <trkpt lat="43.152969" lon="-2.155341">
        <ele>570.182</ele>
        <time>2021-03-21T08:55:30Z</time>
      </trkpt>
      <trkpt lat="43.152975" lon="-2.155432">
        <ele>568.919</ele>
        <time>2021-03-21T08:55:31Z</time>
      </trkpt>
      <trkpt lat="43.152981" lon="-2.155468">
        <ele>568.417</ele>
        <time>2021-03-21T08:55:33Z</time>
      </trkpt>
      <trkpt lat="43.152992" lon="-2.155583">
        <ele>567.177</ele>
        <time>2021-03-21T08:55:35Z</time>
      </trkpt>
      <trkpt lat="43.152974" lon="-2.155625">
        <ele>567.267</ele>
        <time>2021-03-21T08:55:37Z</time>
      </trkpt>
      <trkpt lat="43.152922" lon="-2.155630">
        <ele>567.988</ele>
        <time>2021-03-21T08:55:39Z</time>
      </trkpt>
      <trkpt lat="43.152890" lon="-2.155643">
        <ele>568.224</ele>
        <time>2021-03-21T08:55:41Z</time>
      </trkpt>
      <trkpt lat="43.152839" lon="-2.155676">
        <ele>568.526</ele>
        <time>2021-03-21T08:55:42Z</time>
      </trkpt>
      <trkpt lat="43.152810" lon="-2.155700">
        <ele>568.608</ele>
        <time>2021-03-21T08:55:44Z</time>
      </trkpt>
      <trkpt lat="43.152780" lon="-2.155719">
        <ele>568.664</ele>
        <time>2021-03-21T08:55:45Z</time>
      </trkpt>
      <trkpt lat="43.152752" lon="-2.155742">
        <ele>568.727</ele>
        <time>2021-03-21T08:55:46Z</time>
      </trkpt>
      <trkpt lat="43.152700" lon="-2.155800">
        <ele>568.650</ele>
        <time>2021-03-21T08:55:47Z</time>
      </trkpt>
      <trkpt lat="43.152677" lon="-2.155830">
        <ele>568.531</ele>
        <time>2021-03-21T08:55:49Z</time>
      </trkpt>
      <trkpt lat="43.152653" lon="-2.155862">
        <ele>568.548</ele>
        <time>2021-03-21T08:55:50Z</time>
      </trkpt>
      <trkpt lat="43.152632" lon="-2.155889">
        <ele>568.566</ele>
        <time>2021-03-21T08:55:51Z</time>
      </trkpt>
      <trkpt lat="43.152608" lon="-2.155920">
        <ele>568.546</ele>
        <time>2021-03-21T08:55:52Z</time>
      </trkpt>
      <trkpt lat="43.152565" lon="-2.155981">
        <ele>568.566</ele>
        <time>2021-03-21T08:55:53Z</time>
      </trkpt>
      <trkpt lat="43.152547" lon="-2.156011">
        <ele>568.414</ele>
        <time>2021-03-21T08:55:54Z</time>
      </trkpt>
      <trkpt lat="43.152529" lon="-2.156041">
        <ele>568.354</ele>
        <time>2021-03-21T08:55:55Z</time>
      </trkpt>
      <trkpt lat="43.152515" lon="-2.156076">
        <ele>568.209</ele>
        <time>2021-03-21T08:55:57Z</time>
      </trkpt>
      <trkpt lat="43.152500" lon="-2.156113">
        <ele>568.008</ele>
        <time>2021-03-21T08:55:58Z</time>
      </trkpt>
      <trkpt lat="43.152467" lon="-2.156185">
        <ele>567.987</ele>
        <time>2021-03-21T08:55:59Z</time>
      </trkpt>
      <trkpt lat="43.152436" lon="-2.156258">
        <ele>567.970</ele>
        <time>2021-03-21T08:56:01Z</time>
      </trkpt>
      <trkpt lat="43.152412" lon="-2.156331">
        <ele>567.823</ele>
        <time>2021-03-21T08:56:03Z</time>
      </trkpt>
      <trkpt lat="43.152398" lon="-2.156368">
        <ele>567.864</ele>
        <time>2021-03-21T08:56:05Z</time>
      </trkpt>
      <trkpt lat="43.152380" lon="-2.156444">
        <ele>567.581</ele>
        <time>2021-03-21T08:56:06Z</time>
      </trkpt>
      <trkpt lat="43.152373" lon="-2.156483">
        <ele>567.359</ele>
        <time>2021-03-21T08:56:08Z</time>
      </trkpt>
      <trkpt lat="43.152365" lon="-2.156522">
        <ele>567.229</ele>
        <time>2021-03-21T08:56:09Z</time>
      </trkpt>
      <trkpt lat="43.152361" lon="-2.156562">
        <ele>566.979</ele>
        <time>2021-03-21T08:56:10Z</time>
      </trkpt>
      <trkpt lat="43.152351" lon="-2.156605">
        <ele>566.876</ele>
        <time>2021-03-21T08:56:11Z</time>
      </trkpt>
      <trkpt lat="43.152343" lon="-2.156647">
        <ele>566.790</ele>
        <time>2021-03-21T08:56:12Z</time>
      </trkpt>
      <trkpt lat="43.152330" lon="-2.156740">
        <ele>566.519</ele>
        <time>2021-03-21T08:56:13Z</time>
      </trkpt>
      <trkpt lat="43.152315" lon="-2.156817">
        <ele>566.608</ele>
        <time>2021-03-21T08:56:15Z</time>
      </trkpt>
      <trkpt lat="43.152306" lon="-2.156895">
        <ele>566.513</ele>
        <time>2021-03-21T08:56:17Z</time>
      </trkpt>
      <trkpt lat="43.152301" lon="-2.156968">
        <ele>566.396</ele>
        <time>2021-03-21T08:56:19Z</time>
      </trkpt>
      <trkpt lat="43.152296" lon="-2.157003">
        <ele>566.229</ele>
        <time>2021-03-21T08:56:21Z</time>
      </trkpt>
      <trkpt lat="43.152289" lon="-2.157041">
        <ele>566.280</ele>
        <time>2021-03-21T08:56:22Z</time>
      </trkpt>
      <trkpt lat="43.152283" lon="-2.157075">
        <ele>566.297</ele>
        <time>2021-03-21T08:56:23Z</time>
      </trkpt>
      <trkpt lat="43.152265" lon="-2.157154">
        <ele>566.255</ele>
        <time>2021-03-21T08:56:24Z</time>
      </trkpt>
      <trkpt lat="43.152258" lon="-2.157187">
        <ele>566.235</ele>
        <time>2021-03-21T08:56:26Z</time>
      </trkpt>
      <trkpt lat="43.152246" lon="-2.157261">
        <ele>566.555</ele>
        <time>2021-03-21T08:56:27Z</time>
      </trkpt>
      <trkpt lat="43.152243" lon="-2.157292">
        <ele>566.768</ele>
        <time>2021-03-21T08:56:29Z</time>
      </trkpt>
      <trkpt lat="43.152240" lon="-2.157334">
        <ele>566.942</ele>
        <time>2021-03-21T08:56:30Z</time>
      </trkpt>
      <trkpt lat="43.152233" lon="-2.157407">
        <ele>567.426</ele>
        <time>2021-03-21T08:56:31Z</time>
      </trkpt>
      <trkpt lat="43.152236" lon="-2.157472">
        <ele>567.508</ele>
        <time>2021-03-21T08:56:33Z</time>
      </trkpt>
      <trkpt lat="43.152240" lon="-2.157507">
        <ele>567.792</ele>
        <time>2021-03-21T08:56:36Z</time>
      </trkpt>
      <trkpt lat="43.152251" lon="-2.157553">
        <ele>568.665</ele>
        <time>2021-03-21T08:56:38Z</time>
      </trkpt>
      <trkpt lat="43.152263" lon="-2.157593">
        <ele>569.378</ele>
        <time>2021-03-21T08:56:39Z</time>
      </trkpt>
      <trkpt lat="43.152273" lon="-2.157625">
        <ele>569.869</ele>
        <time>2021-03-21T08:56:42Z</time>
      </trkpt>
      <trkpt lat="43.152285" lon="-2.157650">
        <ele>570.136</ele>
        <time>2021-03-21T08:56:43Z</time>
      </trkpt>
      <trkpt lat="43.152306" lon="-2.157679">
        <ele>570.234</ele>
        <time>2021-03-21T08:56:45Z</time>
      </trkpt>
      <trkpt lat="43.152307" lon="-2.157716">
        <ele>571.134</ele>
        <time>2021-03-21T08:56:47Z</time>
      </trkpt>
      <trkpt lat="43.152321" lon="-2.157737">
        <ele>571.284</ele>
        <time>2021-03-21T08:56:50Z</time>
      </trkpt>
      <trkpt lat="43.152336" lon="-2.157771">
        <ele>571.622</ele>
        <time>2021-03-21T08:56:52Z</time>
      </trkpt>
      <trkpt lat="43.152351" lon="-2.157802">
        <ele>571.962</ele>
        <time>2021-03-21T08:56:53Z</time>
      </trkpt>
      <trkpt lat="43.152382" lon="-2.157844">
        <ele>571.908</ele>
        <time>2021-03-21T08:56:57Z</time>
      </trkpt>
      <trkpt lat="43.152397" lon="-2.157867">
        <ele>572.008</ele>
        <time>2021-03-21T08:56:59Z</time>
      </trkpt>
      <trkpt lat="43.152412" lon="-2.157892">
        <ele>572.178</ele>
        <time>2021-03-21T08:57:02Z</time>
      </trkpt>
      <trkpt lat="43.152465" lon="-2.157992">
        <ele>572.761</ele>
        <time>2021-03-21T08:57:06Z</time>
      </trkpt>
      <trkpt lat="43.152521" lon="-2.158112">
        <ele>573.654</ele>
        <time>2021-03-21T08:57:12Z</time>
      </trkpt>
      <trkpt lat="43.152564" lon="-2.158238">
        <ele>575.145</ele>
        <time>2021-03-21T08:57:17Z</time>
      </trkpt>
      <trkpt lat="43.152609" lon="-2.158355">
        <ele>576.612</ele>
        <time>2021-03-21T08:57:23Z</time>
      </trkpt>
      <trkpt lat="43.152659" lon="-2.158511">
        <ele>580.180</ele>
        <time>2021-03-21T08:57:28Z</time>
      </trkpt>
      <trkpt lat="43.152729" lon="-2.158599">
        <ele>580.480</ele>
        <time>2021-03-21T08:57:35Z</time>
      </trkpt>
      <trkpt lat="43.152803" lon="-2.158681">
        <ele>580.690</ele>
        <time>2021-03-21T08:57:41Z</time>
      </trkpt>
      <trkpt lat="43.152886" lon="-2.158749">
        <ele>580.247</ele>
        <time>2021-03-21T08:57:48Z</time>
      </trkpt>
      <trkpt lat="43.152913" lon="-2.158733">
        <ele>579.029</ele>
        <time>2021-03-21T08:57:50Z</time>
      </trkpt>
      <trkpt lat="43.152965" lon="-2.158810">
        <ele>579.021</ele>
        <time>2021-03-21T08:57:55Z</time>
      </trkpt>
      <trkpt lat="43.152978" lon="-2.158839">
        <ele>579.108</ele>
        <time>2021-03-21T08:57:57Z</time>
      </trkpt>
      <trkpt lat="43.153046" lon="-2.158927">
        <ele>577.570</ele>
        <time>2021-03-21T08:57:59Z</time>
      </trkpt>
      <trkpt lat="43.153090" lon="-2.158992">
        <ele>576.413</ele>
        <time>2021-03-21T08:58:01Z</time>
      </trkpt>
      <trkpt lat="43.153125" lon="-2.159061">
        <ele>575.826</ele>
        <time>2021-03-21T08:58:03Z</time>
      </trkpt>
      <trkpt lat="43.153139" lon="-2.159098">
        <ele>575.687</ele>
        <time>2021-03-21T08:58:05Z</time>
      </trkpt>
      <trkpt lat="43.153154" lon="-2.159135">
        <ele>575.424</ele>
        <time>2021-03-21T08:58:06Z</time>
      </trkpt>
      <trkpt lat="43.153173" lon="-2.159179">
        <ele>575.042</ele>
        <time>2021-03-21T08:58:07Z</time>
      </trkpt>
      <trkpt lat="43.153187" lon="-2.159218">
        <ele>574.662</ele>
        <time>2021-03-21T08:58:08Z</time>
      </trkpt>
      <trkpt lat="43.153201" lon="-2.159250">
        <ele>574.272</ele>
        <time>2021-03-21T08:58:09Z</time>
      </trkpt>
      <trkpt lat="43.153211" lon="-2.159287">
        <ele>573.912</ele>
        <time>2021-03-21T08:58:10Z</time>
      </trkpt>
      <trkpt lat="43.153224" lon="-2.159360">
        <ele>573.532</ele>
        <time>2021-03-21T08:58:11Z</time>
      </trkpt>
      <trkpt lat="43.153229" lon="-2.159393">
        <ele>573.305</ele>
        <time>2021-03-21T08:58:13Z</time>
      </trkpt>
      <trkpt lat="43.153237" lon="-2.159433">
        <ele>573.108</ele>
        <time>2021-03-21T08:58:14Z</time>
      </trkpt>
      <trkpt lat="43.153241" lon="-2.159468">
        <ele>572.727</ele>
        <time>2021-03-21T08:58:15Z</time>
      </trkpt>
      <trkpt lat="43.153237" lon="-2.159505">
        <ele>572.460</ele>
        <time>2021-03-21T08:58:16Z</time>
      </trkpt>
      <trkpt lat="43.153231" lon="-2.159588">
        <ele>571.593</ele>
        <time>2021-03-21T08:58:17Z</time>
      </trkpt>
      <trkpt lat="43.153210" lon="-2.159680">
        <ele>570.794</ele>
        <time>2021-03-21T08:58:19Z</time>
      </trkpt>
      <trkpt lat="43.153191" lon="-2.159717">
        <ele>570.661</ele>
        <time>2021-03-21T08:58:21Z</time>
      </trkpt>
      <trkpt lat="43.153157" lon="-2.159794">
        <ele>569.649</ele>
        <time>2021-03-21T08:58:22Z</time>
      </trkpt>
      <trkpt lat="43.153140" lon="-2.159828">
        <ele>569.259</ele>
        <time>2021-03-21T08:58:23Z</time>
      </trkpt>
      <trkpt lat="43.153093" lon="-2.159883">
        <ele>568.969</ele>
        <time>2021-03-21T08:58:25Z</time>
      </trkpt>
      <trkpt lat="43.153071" lon="-2.159913">
        <ele>568.697</ele>
        <time>2021-03-21T08:58:26Z</time>
      </trkpt>
      <trkpt lat="43.153044" lon="-2.159942">
        <ele>568.423</ele>
        <time>2021-03-21T08:58:27Z</time>
      </trkpt>
      <trkpt lat="43.153014" lon="-2.159974">
        <ele>568.025</ele>
        <time>2021-03-21T08:58:29Z</time>
      </trkpt>
      <trkpt lat="43.152984" lon="-2.159999">
        <ele>567.808</ele>
        <time>2021-03-21T08:58:30Z</time>
      </trkpt>
      <trkpt lat="43.152918" lon="-2.160047">
        <ele>567.485</ele>
        <time>2021-03-21T08:58:31Z</time>
      </trkpt>
      <trkpt lat="43.152850" lon="-2.160088">
        <ele>567.268</ele>
        <time>2021-03-21T08:58:33Z</time>
      </trkpt>
      <trkpt lat="43.152777" lon="-2.160111">
        <ele>567.661</ele>
        <time>2021-03-21T08:58:35Z</time>
      </trkpt>
      <trkpt lat="43.152714" lon="-2.160141">
        <ele>567.322</ele>
        <time>2021-03-21T08:58:37Z</time>
      </trkpt>
      <trkpt lat="43.152684" lon="-2.160155">
        <ele>567.159</ele>
        <time>2021-03-21T08:58:39Z</time>
      </trkpt>
      <trkpt lat="43.152658" lon="-2.160159">
        <ele>567.217</ele>
        <time>2021-03-21T08:58:40Z</time>
      </trkpt>
      <trkpt lat="43.152605" lon="-2.160191">
        <ele>566.787</ele>
        <time>2021-03-21T08:58:41Z</time>
      </trkpt>
      <trkpt lat="43.152579" lon="-2.160209">
        <ele>566.497</ele>
        <time>2021-03-21T08:58:43Z</time>
      </trkpt>
      <trkpt lat="43.152548" lon="-2.160223">
        <ele>566.274</ele>
        <time>2021-03-21T08:58:44Z</time>
      </trkpt>
      <trkpt lat="43.152491" lon="-2.160253">
        <ele>565.756</ele>
        <time>2021-03-21T08:58:45Z</time>
      </trkpt>
      <trkpt lat="43.152459" lon="-2.160267">
        <ele>565.721</ele>
        <time>2021-03-21T08:58:47Z</time>
      </trkpt>
      <trkpt lat="43.152431" lon="-2.160281">
        <ele>565.708</ele>
        <time>2021-03-21T08:58:48Z</time>
      </trkpt>
      <trkpt lat="43.152374" lon="-2.160303">
        <ele>565.853</ele>
        <time>2021-03-21T08:58:49Z</time>
      </trkpt>
      <trkpt lat="43.152347" lon="-2.160316">
        <ele>565.886</ele>
        <time>2021-03-21T08:58:51Z</time>
      </trkpt>
      <trkpt lat="43.152320" lon="-2.160335">
        <ele>565.669</ele>
        <time>2021-03-21T08:58:52Z</time>
      </trkpt>
      <trkpt lat="43.152294" lon="-2.160351">
        <ele>565.630</ele>
        <time>2021-03-21T08:58:53Z</time>
      </trkpt>
      <trkpt lat="43.152271" lon="-2.160367">
        <ele>565.517</ele>
        <time>2021-03-21T08:58:54Z</time>
      </trkpt>
      <trkpt lat="43.152242" lon="-2.160379">
        <ele>565.625</ele>
        <time>2021-03-21T08:58:55Z</time>
      </trkpt>
      <trkpt lat="43.152216" lon="-2.160392">
        <ele>565.615</ele>
        <time>2021-03-21T08:58:56Z</time>
      </trkpt>
      <trkpt lat="43.152188" lon="-2.160409">
        <ele>565.825</ele>
        <time>2021-03-21T08:58:57Z</time>
      </trkpt>
      <trkpt lat="43.152144" lon="-2.160462">
        <ele>565.543</ele>
        <time>2021-03-21T08:58:58Z</time>
      </trkpt>
      <trkpt lat="43.152123" lon="-2.160495">
        <ele>565.364</ele>
        <time>2021-03-21T08:59:00Z</time>
      </trkpt>
      <trkpt lat="43.152077" lon="-2.160547">
        <ele>565.310</ele>
        <time>2021-03-21T08:59:01Z</time>
      </trkpt>
      <trkpt lat="43.152040" lon="-2.160607">
        <ele>565.308</ele>
        <time>2021-03-21T08:59:03Z</time>
      </trkpt>
      <trkpt lat="43.152007" lon="-2.160680">
        <ele>565.280</ele>
        <time>2021-03-21T08:59:05Z</time>
      </trkpt>
      <trkpt lat="43.151992" lon="-2.160713">
        <ele>565.283</ele>
        <time>2021-03-21T08:59:07Z</time>
      </trkpt>
      <trkpt lat="43.151979" lon="-2.160748">
        <ele>565.166</ele>
        <time>2021-03-21T08:59:08Z</time>
      </trkpt>
      <trkpt lat="43.151967" lon="-2.160784">
        <ele>565.097</ele>
        <time>2021-03-21T08:59:09Z</time>
      </trkpt>
      <trkpt lat="43.151946" lon="-2.160854">
        <ele>564.874</ele>
        <time>2021-03-21T08:59:10Z</time>
      </trkpt>
      <trkpt lat="43.151932" lon="-2.160883">
        <ele>564.932</ele>
        <time>2021-03-21T08:59:12Z</time>
      </trkpt>
      <trkpt lat="43.151917" lon="-2.160911">
        <ele>564.932</ele>
        <time>2021-03-21T08:59:13Z</time>
      </trkpt>
      <trkpt lat="43.151905" lon="-2.160943">
        <ele>564.982</ele>
        <time>2021-03-21T08:59:14Z</time>
      </trkpt>
      <trkpt lat="43.151875" lon="-2.161016">
        <ele>564.955</ele>
        <time>2021-03-21T08:59:15Z</time>
      </trkpt>
      <trkpt lat="43.151861" lon="-2.161049">
        <ele>564.907</ele>
        <time>2021-03-21T08:59:17Z</time>
      </trkpt>
      <trkpt lat="43.151846" lon="-2.161079">
        <ele>565.017</ele>
        <time>2021-03-21T08:59:18Z</time>
      </trkpt>
      <trkpt lat="43.151834" lon="-2.161111">
        <ele>565.008</ele>
        <time>2021-03-21T08:59:19Z</time>
      </trkpt>
      <trkpt lat="43.151806" lon="-2.161170">
        <ele>565.241</ele>
        <time>2021-03-21T08:59:20Z</time>
      </trkpt>
      <trkpt lat="43.151771" lon="-2.161234">
        <ele>565.444</ele>
        <time>2021-03-21T08:59:22Z</time>
      </trkpt>
      <trkpt lat="43.151754" lon="-2.161264">
        <ele>565.527</ele>
        <time>2021-03-21T08:59:23Z</time>
      </trkpt>
      <trkpt lat="43.151734" lon="-2.161288">
        <ele>565.788</ele>
        <time>2021-03-21T08:59:25Z</time>
      </trkpt>
      <trkpt lat="43.151715" lon="-2.161311">
        <ele>565.885</ele>
        <time>2021-03-21T08:59:26Z</time>
      </trkpt>
      <trkpt lat="43.151694" lon="-2.161331">
        <ele>566.023</ele>
        <time>2021-03-21T08:59:27Z</time>
      </trkpt>
      <trkpt lat="43.151674" lon="-2.161354">
        <ele>566.113</ele>
        <time>2021-03-21T08:59:28Z</time>
      </trkpt>
      <trkpt lat="43.151633" lon="-2.161397">
        <ele>566.143</ele>
        <time>2021-03-21T08:59:29Z</time>
      </trkpt>
      <trkpt lat="43.151616" lon="-2.161426">
        <ele>565.914</ele>
        <time>2021-03-21T08:59:31Z</time>
      </trkpt>
      <trkpt lat="43.151597" lon="-2.161457">
        <ele>565.654</ele>
        <time>2021-03-21T08:59:32Z</time>
      </trkpt>
      <trkpt lat="43.151578" lon="-2.161488">
        <ele>565.409</ele>
        <time>2021-03-21T08:59:33Z</time>
      </trkpt>
      <trkpt lat="43.151549" lon="-2.161560">
        <ele>564.908</ele>
        <time>2021-03-21T08:59:34Z</time>
      </trkpt>
      <trkpt lat="43.151540" lon="-2.161600">
        <ele>564.697</ele>
        <time>2021-03-21T08:59:36Z</time>
      </trkpt>
      <trkpt lat="43.151526" lon="-2.161687">
        <ele>563.830</ele>
        <time>2021-03-21T08:59:37Z</time>
      </trkpt>
      <trkpt lat="43.151516" lon="-2.161728">
        <ele>563.673</ele>
        <time>2021-03-21T08:59:39Z</time>
      </trkpt>
      <trkpt lat="43.151509" lon="-2.161769">
        <ele>563.434</ele>
        <time>2021-03-21T08:59:40Z</time>
      </trkpt>
      <trkpt lat="43.151490" lon="-2.161850">
        <ele>563.091</ele>
        <time>2021-03-21T08:59:41Z</time>
      </trkpt>
      <trkpt lat="43.151479" lon="-2.161890">
        <ele>562.829</ele>
        <time>2021-03-21T08:59:42Z</time>
      </trkpt>
      <trkpt lat="43.151467" lon="-2.161926">
        <ele>562.749</ele>
        <time>2021-03-21T08:59:44Z</time>
      </trkpt>
      <trkpt lat="43.151450" lon="-2.161964">
        <ele>562.549</ele>
        <time>2021-03-21T08:59:45Z</time>
      </trkpt>
      <trkpt lat="43.151432" lon="-2.161997">
        <ele>562.145</ele>
        <time>2021-03-21T08:59:46Z</time>
      </trkpt>
      <trkpt lat="43.151415" lon="-2.162026">
        <ele>561.847</ele>
        <time>2021-03-21T08:59:47Z</time>
      </trkpt>
      <trkpt lat="43.151396" lon="-2.162061">
        <ele>561.411</ele>
        <time>2021-03-21T08:59:48Z</time>
      </trkpt>
      <trkpt lat="43.151380" lon="-2.162094">
        <ele>560.708</ele>
        <time>2021-03-21T08:59:49Z</time>
      </trkpt>
      <trkpt lat="43.151365" lon="-2.162127">
        <ele>559.860</ele>
        <time>2021-03-21T08:59:50Z</time>
      </trkpt>
      <trkpt lat="43.151355" lon="-2.162166">
        <ele>558.923</ele>
        <time>2021-03-21T08:59:51Z</time>
      </trkpt>
      <trkpt lat="43.151348" lon="-2.162206">
        <ele>557.976</ele>
        <time>2021-03-21T08:59:52Z</time>
      </trkpt>
      <trkpt lat="43.151343" lon="-2.162246">
        <ele>557.887</ele>
        <time>2021-03-21T08:59:53Z</time>
      </trkpt>
      <trkpt lat="43.151338" lon="-2.162285">
        <ele>558.354</ele>
        <time>2021-03-21T08:59:54Z</time>
      </trkpt>
      <trkpt lat="43.151333" lon="-2.162323">
        <ele>558.792</ele>
        <time>2021-03-21T08:59:55Z</time>
      </trkpt>
      <trkpt lat="43.151326" lon="-2.162366">
        <ele>559.232</ele>
        <time>2021-03-21T08:59:56Z</time>
      </trkpt>
      <trkpt lat="43.151322" lon="-2.162403">
        <ele>559.732</ele>
        <time>2021-03-21T08:59:57Z</time>
      </trkpt>
      <trkpt lat="43.151317" lon="-2.162436">
        <ele>560.138</ele>
        <time>2021-03-21T08:59:58Z</time>
      </trkpt>
      <trkpt lat="43.151301" lon="-2.162454">
        <ele>560.370</ele>
        <time>2021-03-21T08:59:59Z</time>
      </trkpt>
      <trkpt lat="43.151258" lon="-2.162451">
        <ele>560.217</ele>
        <time>2021-03-21T09:00:01Z</time>
      </trkpt>
      <trkpt lat="43.151234" lon="-2.162447">
        <ele>560.108</ele>
        <time>2021-03-21T09:00:02Z</time>
      </trkpt>
      <trkpt lat="43.151180" lon="-2.162445">
        <ele>560.079</ele>
        <time>2021-03-21T09:00:03Z</time>
      </trkpt>
      <trkpt lat="43.151155" lon="-2.162445">
        <ele>559.982</ele>
        <time>2021-03-21T09:00:05Z</time>
      </trkpt>
      <trkpt lat="43.151128" lon="-2.162447">
        <ele>559.935</ele>
        <time>2021-03-21T09:00:06Z</time>
      </trkpt>
      <trkpt lat="43.151101" lon="-2.162452">
        <ele>559.866</ele>
        <time>2021-03-21T09:00:07Z</time>
      </trkpt>
      <trkpt lat="43.151074" lon="-2.162454">
        <ele>559.513</ele>
        <time>2021-03-21T09:00:08Z</time>
      </trkpt>
      <trkpt lat="43.151045" lon="-2.162460">
        <ele>559.231</ele>
        <time>2021-03-21T09:00:09Z</time>
      </trkpt>
      <trkpt lat="43.151016" lon="-2.162465">
        <ele>558.921</ele>
        <time>2021-03-21T09:00:10Z</time>
      </trkpt>
      <trkpt lat="43.150991" lon="-2.162472">
        <ele>558.771</ele>
        <time>2021-03-21T09:00:11Z</time>
      </trkpt>
      <trkpt lat="43.150965" lon="-2.162491">
        <ele>558.788</ele>
        <time>2021-03-21T09:00:12Z</time>
      </trkpt>
      <trkpt lat="43.150944" lon="-2.162519">
        <ele>558.924</ele>
        <time>2021-03-21T09:00:13Z</time>
      </trkpt>
      <trkpt lat="43.150932" lon="-2.162548">
        <ele>559.226</ele>
        <time>2021-03-21T09:00:14Z</time>
      </trkpt>
      <trkpt lat="43.150922" lon="-2.162592">
        <ele>559.808</ele>
        <time>2021-03-21T09:00:15Z</time>
      </trkpt>
      <trkpt lat="43.150918" lon="-2.162625">
        <ele>560.324</ele>
        <time>2021-03-21T09:00:17Z</time>
      </trkpt>
      <trkpt lat="43.150920" lon="-2.162657">
        <ele>560.917</ele>
        <time>2021-03-21T09:00:20Z</time>
      </trkpt>
      <trkpt lat="43.150922" lon="-2.162695">
        <ele>561.650</ele>
        <time>2021-03-21T09:00:22Z</time>
      </trkpt>
      <trkpt lat="43.150919" lon="-2.162734">
        <ele>562.221</ele>
        <time>2021-03-21T09:00:23Z</time>
      </trkpt>
      <trkpt lat="43.150914" lon="-2.162776">
        <ele>562.858</ele>
        <time>2021-03-21T09:00:25Z</time>
      </trkpt>
      <trkpt lat="43.150905" lon="-2.162810">
        <ele>563.426</ele>
        <time>2021-03-21T09:00:27Z</time>
      </trkpt>
      <trkpt lat="43.150894" lon="-2.162844">
        <ele>563.916</ele>
        <time>2021-03-21T09:00:30Z</time>
      </trkpt>
      <trkpt lat="43.150880" lon="-2.162877">
        <ele>564.416</ele>
        <time>2021-03-21T09:00:32Z</time>
      </trkpt>
      <trkpt lat="43.150868" lon="-2.162911">
        <ele>564.876</ele>
        <time>2021-03-21T09:00:33Z</time>
      </trkpt>
      <trkpt lat="43.150854" lon="-2.162947">
        <ele>565.390</ele>
        <time>2021-03-21T09:00:35Z</time>
      </trkpt>
      <trkpt lat="43.150838" lon="-2.162984">
        <ele>565.819</ele>
        <time>2021-03-21T09:00:38Z</time>
      </trkpt>
      <trkpt lat="43.150820" lon="-2.163018">
        <ele>565.908</ele>
        <time>2021-03-21T09:00:40Z</time>
      </trkpt>
      <trkpt lat="43.150804" lon="-2.163053">
        <ele>566.133</ele>
        <time>2021-03-21T09:00:41Z</time>
      </trkpt>
      <trkpt lat="43.150795" lon="-2.163086">
        <ele>566.646</ele>
        <time>2021-03-21T09:00:44Z</time>
      </trkpt>
      <trkpt lat="43.150778" lon="-2.163121">
        <ele>567.069</ele>
        <time>2021-03-21T09:00:46Z</time>
      </trkpt>
      <trkpt lat="43.150764" lon="-2.163156">
        <ele>567.410</ele>
        <time>2021-03-21T09:00:48Z</time>
      </trkpt>
      <trkpt lat="43.150749" lon="-2.163193">
        <ele>568.027</ele>
        <time>2021-03-21T09:00:49Z</time>
      </trkpt>
      <trkpt lat="43.150736" lon="-2.163222">
        <ele>568.445</ele>
        <time>2021-03-21T09:00:51Z</time>
      </trkpt>
      <trkpt lat="43.150722" lon="-2.163252">
        <ele>568.965</ele>
        <time>2021-03-21T09:00:54Z</time>
      </trkpt>
      <trkpt lat="43.150706" lon="-2.163282">
        <ele>569.335</ele>
        <time>2021-03-21T09:00:56Z</time>
      </trkpt>
      <trkpt lat="43.150692" lon="-2.163310">
        <ele>569.892</ele>
        <time>2021-03-21T09:00:58Z</time>
      </trkpt>
      <trkpt lat="43.150678" lon="-2.163333">
        <ele>570.273</ele>
        <time>2021-03-21T09:00:59Z</time>
      </trkpt>
      <trkpt lat="43.150663" lon="-2.163365">
        <ele>570.920</ele>
        <time>2021-03-21T09:01:02Z</time>
      </trkpt>
      <trkpt lat="43.150648" lon="-2.163396">
        <ele>571.608</ele>
        <time>2021-03-21T09:01:04Z</time>
      </trkpt>
      <trkpt lat="43.150632" lon="-2.163421">
        <ele>572.135</ele>
        <time>2021-03-21T09:01:06Z</time>
      </trkpt>
      <trkpt lat="43.150615" lon="-2.163451">
        <ele>572.888</ele>
        <time>2021-03-21T09:01:08Z</time>
      </trkpt>
      <trkpt lat="43.150597" lon="-2.163478">
        <ele>573.421</ele>
        <time>2021-03-21T09:01:10Z</time>
      </trkpt>
      <trkpt lat="43.150578" lon="-2.163505">
        <ele>573.922</ele>
        <time>2021-03-21T09:01:11Z</time>
      </trkpt>
      <trkpt lat="43.150563" lon="-2.163535">
        <ele>574.659</ele>
        <time>2021-03-21T09:01:14Z</time>
      </trkpt>
      <trkpt lat="43.150546" lon="-2.163564">
        <ele>575.167</ele>
        <time>2021-03-21T09:01:16Z</time>
      </trkpt>
      <trkpt lat="43.150527" lon="-2.163593">
        <ele>575.357</ele>
        <time>2021-03-21T09:01:18Z</time>
      </trkpt>
      <trkpt lat="43.150511" lon="-2.163623">
        <ele>575.587</ele>
        <time>2021-03-21T09:01:19Z</time>
      </trkpt>
      <trkpt lat="43.150495" lon="-2.163658">
        <ele>575.551</ele>
        <time>2021-03-21T09:01:22Z</time>
      </trkpt>
      <trkpt lat="43.150481" lon="-2.163693">
        <ele>575.701</ele>
        <time>2021-03-21T09:01:24Z</time>
      </trkpt>
      <trkpt lat="43.150470" lon="-2.163726">
        <ele>575.911</ele>
        <time>2021-03-21T09:01:26Z</time>
      </trkpt>
      <trkpt lat="43.150456" lon="-2.163760">
        <ele>576.108</ele>
        <time>2021-03-21T09:01:27Z</time>
      </trkpt>
      <trkpt lat="43.150443" lon="-2.163797">
        <ele>576.411</ele>
        <time>2021-03-21T09:01:30Z</time>
      </trkpt>
      <trkpt lat="43.150432" lon="-2.163832">
        <ele>576.834</ele>
        <time>2021-03-21T09:01:32Z</time>
      </trkpt>
      <trkpt lat="43.150425" lon="-2.163868">
        <ele>577.357</ele>
        <time>2021-03-21T09:01:34Z</time>
      </trkpt>
      <trkpt lat="43.150421" lon="-2.163913">
        <ele>578.158</ele>
        <time>2021-03-21T09:01:36Z</time>
      </trkpt>
      <trkpt lat="43.150416" lon="-2.163952">
        <ele>578.715</ele>
        <time>2021-03-21T09:01:38Z</time>
      </trkpt>
      <trkpt lat="43.150409" lon="-2.163985">
        <ele>579.253</ele>
        <time>2021-03-21T09:01:39Z</time>
      </trkpt>
      <trkpt lat="43.150399" lon="-2.164018">
        <ele>579.693</ele>
        <time>2021-03-21T09:01:41Z</time>
      </trkpt>
      <trkpt lat="43.150391" lon="-2.164058">
        <ele>580.223</ele>
        <time>2021-03-21T09:01:44Z</time>
      </trkpt>
      <trkpt lat="43.150378" lon="-2.164093">
        <ele>580.648</ele>
        <time>2021-03-21T09:01:46Z</time>
      </trkpt>
      <trkpt lat="43.150366" lon="-2.164127">
        <ele>581.061</ele>
        <time>2021-03-21T09:01:48Z</time>
      </trkpt>
      <trkpt lat="43.150351" lon="-2.164158">
        <ele>581.417</ele>
        <time>2021-03-21T09:01:49Z</time>
      </trkpt>
      <trkpt lat="43.150338" lon="-2.164193">
        <ele>581.608</ele>
        <time>2021-03-21T09:01:52Z</time>
      </trkpt>
      <trkpt lat="43.150325" lon="-2.164251">
        <ele>582.140</ele>
        <time>2021-03-21T09:01:54Z</time>
      </trkpt>
      <trkpt lat="43.150311" lon="-2.164283">
        <ele>582.323</ele>
        <time>2021-03-21T09:01:56Z</time>
      </trkpt>
      <trkpt lat="43.150301" lon="-2.164315">
        <ele>582.516</ele>
        <time>2021-03-21T09:01:59Z</time>
      </trkpt>
      <trkpt lat="43.150296" lon="-2.164350">
        <ele>582.977</ele>
        <time>2021-03-21T09:02:01Z</time>
      </trkpt>
      <trkpt lat="43.150284" lon="-2.164383">
        <ele>583.214</ele>
        <time>2021-03-21T09:02:03Z</time>
      </trkpt>
      <trkpt lat="43.150269" lon="-2.164417">
        <ele>583.592</ele>
        <time>2021-03-21T09:02:04Z</time>
      </trkpt>
      <trkpt lat="43.150261" lon="-2.164436">
        <ele>583.862</ele>
        <time>2021-03-21T09:02:06Z</time>
      </trkpt>
      <trkpt lat="43.150241" lon="-2.164471">
        <ele>584.032</ele>
        <time>2021-03-21T09:02:08Z</time>
      </trkpt>
      <trkpt lat="43.150217" lon="-2.164500">
        <ele>584.037</ele>
        <time>2021-03-21T09:02:10Z</time>
      </trkpt>
      <trkpt lat="43.150194" lon="-2.164527">
        <ele>584.249</ele>
        <time>2021-03-21T09:02:12Z</time>
      </trkpt>
      <trkpt lat="43.150168" lon="-2.164552">
        <ele>584.313</ele>
        <time>2021-03-21T09:02:14Z</time>
      </trkpt>
      <trkpt lat="43.150137" lon="-2.164569">
        <ele>584.308</ele>
        <time>2021-03-21T09:02:15Z</time>
      </trkpt>
      <trkpt lat="43.150081" lon="-2.164573">
        <ele>584.299</ele>
        <time>2021-03-21T09:02:18Z</time>
      </trkpt>
      <trkpt lat="43.150060" lon="-2.164572">
        <ele>584.192</ele>
        <time>2021-03-21T09:02:20Z</time>
      </trkpt>
      <trkpt lat="43.150035" lon="-2.164575">
        <ele>584.035</ele>
        <time>2021-03-21T09:02:21Z</time>
      </trkpt>
      <trkpt lat="43.150011" lon="-2.164578">
        <ele>584.036</ele>
        <time>2021-03-21T09:02:22Z</time>
      </trkpt>
      <trkpt lat="43.149966" lon="-2.164586">
        <ele>584.373</ele>
        <time>2021-03-21T09:02:23Z</time>
      </trkpt>
      <trkpt lat="43.149945" lon="-2.164588">
        <ele>584.541</ele>
        <time>2021-03-21T09:02:24Z</time>
      </trkpt>
      <trkpt lat="43.149925" lon="-2.164591">
        <ele>584.791</ele>
        <time>2021-03-21T09:02:26Z</time>
      </trkpt>
      <trkpt lat="43.149906" lon="-2.164594">
        <ele>584.961</ele>
        <time>2021-03-21T09:02:27Z</time>
      </trkpt>
      <trkpt lat="43.149877" lon="-2.164593">
        <ele>585.112</ele>
        <time>2021-03-21T09:02:28Z</time>
      </trkpt>
      <trkpt lat="43.149852" lon="-2.164591">
        <ele>585.232</ele>
        <time>2021-03-21T09:02:31Z</time>
      </trkpt>
      <trkpt lat="43.149824" lon="-2.164593">
        <ele>585.505</ele>
        <time>2021-03-21T09:02:33Z</time>
      </trkpt>
      <trkpt lat="43.149794" lon="-2.164596">
        <ele>585.708</ele>
        <time>2021-03-21T09:02:35Z</time>
      </trkpt>
      <trkpt lat="43.149763" lon="-2.164604">
        <ele>586.157</ele>
        <time>2021-03-21T09:02:37Z</time>
      </trkpt>
      <trkpt lat="43.149734" lon="-2.164613">
        <ele>586.550</ele>
        <time>2021-03-21T09:02:39Z</time>
      </trkpt>
      <trkpt lat="43.149717" lon="-2.164622">
        <ele>586.943</ele>
        <time>2021-03-21T09:02:40Z</time>
      </trkpt>
      <trkpt lat="43.149694" lon="-2.164645">
        <ele>587.634</ele>
        <time>2021-03-21T09:02:42Z</time>
      </trkpt>
      <trkpt lat="43.149678" lon="-2.164660">
        <ele>588.141</ele>
        <time>2021-03-21T09:02:43Z</time>
      </trkpt>
      <trkpt lat="43.149665" lon="-2.164676">
        <ele>588.619</ele>
        <time>2021-03-21T09:02:46Z</time>
      </trkpt>
      <trkpt lat="43.149657" lon="-2.164698">
        <ele>589.199</ele>
        <time>2021-03-21T09:02:48Z</time>
      </trkpt>
      <trkpt lat="43.149655" lon="-2.164727">
        <ele>589.869</ele>
        <time>2021-03-21T09:02:50Z</time>
      </trkpt>
      <trkpt lat="43.149640" lon="-2.164756">
        <ele>590.362</ele>
        <time>2021-03-21T09:02:51Z</time>
      </trkpt>
      <trkpt lat="43.149624" lon="-2.164786">
        <ele>590.883</ele>
        <time>2021-03-21T09:02:54Z</time>
      </trkpt>
      <trkpt lat="43.149621" lon="-2.164810">
        <ele>591.211</ele>
        <time>2021-03-21T09:02:55Z</time>
      </trkpt>
      <trkpt lat="43.149617" lon="-2.164852">
        <ele>591.708</ele>
        <time>2021-03-21T09:02:56Z</time>
      </trkpt>
      <trkpt lat="43.149615" lon="-2.164896">
        <ele>592.382</ele>
        <time>2021-03-21T09:02:59Z</time>
      </trkpt>
      <trkpt lat="43.149611" lon="-2.164931">
        <ele>592.855</ele>
        <time>2021-03-21T09:03:01Z</time>
      </trkpt>
      <trkpt lat="43.149606" lon="-2.164963">
        <ele>593.268</ele>
        <time>2021-03-21T09:03:03Z</time>
      </trkpt>
      <trkpt lat="43.149607" lon="-2.165002">
        <ele>593.719</ele>
        <time>2021-03-21T09:03:04Z</time>
      </trkpt>
      <trkpt lat="43.149605" lon="-2.165051">
        <ele>593.776</ele>
        <time>2021-03-21T09:03:07Z</time>
      </trkpt>
      <trkpt lat="43.149599" lon="-2.165073">
        <ele>593.854</ele>
        <time>2021-03-21T09:03:08Z</time>
      </trkpt>
      <trkpt lat="43.149578" lon="-2.165127">
        <ele>594.154</ele>
        <time>2021-03-21T09:03:10Z</time>
      </trkpt>
      <trkpt lat="43.149558" lon="-2.165160">
        <ele>594.434</ele>
        <time>2021-03-21T09:03:13Z</time>
      </trkpt>
      <trkpt lat="43.149540" lon="-2.165196">
        <ele>594.699</ele>
        <time>2021-03-21T09:03:15Z</time>
      </trkpt>
      <trkpt lat="43.149521" lon="-2.165231">
        <ele>594.907</ele>
        <time>2021-03-21T09:03:17Z</time>
      </trkpt>
      <trkpt lat="43.149505" lon="-2.165271">
        <ele>595.127</ele>
        <time>2021-03-21T09:03:18Z</time>
      </trkpt>
      <trkpt lat="43.149497" lon="-2.165294">
        <ele>595.208</ele>
        <time>2021-03-21T09:03:20Z</time>
      </trkpt>
      <trkpt lat="43.149481" lon="-2.165346">
        <ele>595.235</ele>
        <time>2021-03-21T09:03:21Z</time>
      </trkpt>
      <trkpt lat="43.149478" lon="-2.165375">
        <ele>595.168</ele>
        <time>2021-03-21T09:03:23Z</time>
      </trkpt>
      <trkpt lat="43.149471" lon="-2.165412">
        <ele>595.151</ele>
        <time>2021-03-21T09:03:24Z</time>
      </trkpt>
      <trkpt lat="43.149458" lon="-2.165446">
        <ele>595.242</ele>
        <time>2021-03-21T09:03:25Z</time>
      </trkpt>
      <trkpt lat="43.149434" lon="-2.165509">
        <ele>595.549</ele>
        <time>2021-03-21T09:03:26Z</time>
      </trkpt>
      <trkpt lat="43.149423" lon="-2.165541">
        <ele>595.797</ele>
        <time>2021-03-21T09:03:27Z</time>
      </trkpt>
      <trkpt lat="43.149416" lon="-2.165567">
        <ele>595.867</ele>
        <time>2021-03-21T09:03:29Z</time>
      </trkpt>
      <trkpt lat="43.149403" lon="-2.165600">
        <ele>596.167</ele>
        <time>2021-03-21T09:03:30Z</time>
      </trkpt>
      <trkpt lat="43.149388" lon="-2.165629">
        <ele>596.418</ele>
        <time>2021-03-21T09:03:31Z</time>
      </trkpt>
      <trkpt lat="43.149374" lon="-2.165655">
        <ele>596.898</ele>
        <time>2021-03-21T09:03:32Z</time>
      </trkpt>
      <trkpt lat="43.149361" lon="-2.165701">
        <ele>597.017</ele>
        <time>2021-03-21T09:03:33Z</time>
      </trkpt>
      <trkpt lat="43.149355" lon="-2.165724">
        <ele>597.208</ele>
        <time>2021-03-21T09:03:35Z</time>
      </trkpt>
      <trkpt lat="43.149352" lon="-2.165750">
        <ele>597.217</ele>
        <time>2021-03-21T09:03:36Z</time>
      </trkpt>
      <trkpt lat="43.149339" lon="-2.165792">
        <ele>597.540</ele>
        <time>2021-03-21T09:03:38Z</time>
      </trkpt>
      <trkpt lat="43.149330" lon="-2.165815">
        <ele>597.733</ele>
        <time>2021-03-21T09:03:39Z</time>
      </trkpt>
      <trkpt lat="43.149320" lon="-2.165842">
        <ele>598.064</ele>
        <time>2021-03-21T09:03:40Z</time>
      </trkpt>
      <trkpt lat="43.149295" lon="-2.165880">
        <ele>598.691</ele>
        <time>2021-03-21T09:03:41Z</time>
      </trkpt>
      <trkpt lat="43.149270" lon="-2.165910">
        <ele>599.249</ele>
        <time>2021-03-21T09:03:44Z</time>
      </trkpt>
      <trkpt lat="43.149247" lon="-2.165935">
        <ele>599.879</ele>
        <time>2021-03-21T09:03:46Z</time>
      </trkpt>
      <trkpt lat="43.149227" lon="-2.165964">
        <ele>600.289</ele>
        <time>2021-03-21T09:03:48Z</time>
      </trkpt>
      <trkpt lat="43.149217" lon="-2.165985">
        <ele>600.489</ele>
        <time>2021-03-21T09:03:49Z</time>
      </trkpt>
      <trkpt lat="43.149196" lon="-2.166018">
        <ele>600.806</ele>
        <time>2021-03-21T09:03:50Z</time>
      </trkpt>
      <trkpt lat="43.149186" lon="-2.166038">
        <ele>601.026</ele>
        <time>2021-03-21T09:03:52Z</time>
      </trkpt>
      <trkpt lat="43.149165" lon="-2.166071">
        <ele>601.308</ele>
        <time>2021-03-21T09:03:53Z</time>
      </trkpt>
      <trkpt lat="43.149151" lon="-2.166106">
        <ele>601.574</ele>
        <time>2021-03-21T09:03:56Z</time>
      </trkpt>
      <trkpt lat="43.149127" lon="-2.166135">
        <ele>602.217</ele>
        <time>2021-03-21T09:03:58Z</time>
      </trkpt>
      <trkpt lat="43.149102" lon="-2.166158">
        <ele>603.050</ele>
        <time>2021-03-21T09:04:00Z</time>
      </trkpt>
      <trkpt lat="43.149088" lon="-2.166179">
        <ele>603.411</ele>
        <time>2021-03-21T09:04:02Z</time>
      </trkpt>
      <trkpt lat="43.149076" lon="-2.166206">
        <ele>603.728</ele>
        <time>2021-03-21T09:04:04Z</time>
      </trkpt>
      <trkpt lat="43.149058" lon="-2.166221">
        <ele>604.366</ele>
        <time>2021-03-21T09:04:05Z</time>
      </trkpt>
      <trkpt lat="43.149043" lon="-2.166246">
        <ele>604.796</ele>
        <time>2021-03-21T09:04:07Z</time>
      </trkpt>
      <trkpt lat="43.149034" lon="-2.166277">
        <ele>605.056</ele>
        <time>2021-03-21T09:04:09Z</time>
      </trkpt>
      <trkpt lat="43.149024" lon="-2.166318">
        <ele>605.382</ele>
        <time>2021-03-21T09:04:12Z</time>
      </trkpt>
      <trkpt lat="43.149020" lon="-2.166351">
        <ele>605.343</ele>
        <time>2021-03-21T09:04:13Z</time>
      </trkpt>
      <trkpt lat="43.149012" lon="-2.166382">
        <ele>605.617</ele>
        <time>2021-03-21T09:04:15Z</time>
      </trkpt>
      <trkpt lat="43.149000" lon="-2.166413">
        <ele>605.908</ele>
        <time>2021-03-21T09:04:18Z</time>
      </trkpt>
      <trkpt lat="43.148990" lon="-2.166440">
        <ele>606.164</ele>
        <time>2021-03-21T09:04:20Z</time>
      </trkpt>
      <trkpt lat="43.148982" lon="-2.166470">
        <ele>606.277</ele>
        <time>2021-03-21T09:04:23Z</time>
      </trkpt>
      <trkpt lat="43.148979" lon="-2.166504">
        <ele>606.110</ele>
        <time>2021-03-21T09:04:25Z</time>
      </trkpt>
      <trkpt lat="43.148974" lon="-2.166529">
        <ele>606.141</ele>
        <time>2021-03-21T09:04:27Z</time>
      </trkpt>
      <trkpt lat="43.148964" lon="-2.166563">
        <ele>606.228</ele>
        <time>2021-03-21T09:04:29Z</time>
      </trkpt>
      <trkpt lat="43.148949" lon="-2.166606">
        <ele>606.496</ele>
        <time>2021-03-21T09:04:31Z</time>
      </trkpt>
      <trkpt lat="43.148932" lon="-2.166642">
        <ele>606.866</ele>
        <time>2021-03-21T09:04:33Z</time>
      </trkpt>
      <trkpt lat="43.148923" lon="-2.166661">
        <ele>606.956</ele>
        <time>2021-03-21T09:04:34Z</time>
      </trkpt>
      <trkpt lat="43.148909" lon="-2.166702">
        <ele>607.191</ele>
        <time>2021-03-21T09:04:36Z</time>
      </trkpt>
      <trkpt lat="43.148891" lon="-2.166739">
        <ele>607.481</ele>
        <time>2021-03-21T09:04:38Z</time>
      </trkpt>
      <trkpt lat="43.148875" lon="-2.166779">
        <ele>607.819</ele>
        <time>2021-03-21T09:04:39Z</time>
      </trkpt>
      <trkpt lat="43.148865" lon="-2.166812">
        <ele>607.908</ele>
        <time>2021-03-21T09:04:42Z</time>
      </trkpt>
      <trkpt lat="43.148858" lon="-2.166851">
        <ele>607.915</ele>
        <time>2021-03-21T09:04:44Z</time>
      </trkpt>
      <trkpt lat="43.148848" lon="-2.166890">
        <ele>607.928</ele>
        <time>2021-03-21T09:04:46Z</time>
      </trkpt>
      <trkpt lat="43.148836" lon="-2.166912">
        <ele>608.281</ele>
        <time>2021-03-21T09:04:47Z</time>
      </trkpt>
      <trkpt lat="43.148818" lon="-2.166952">
        <ele>608.482</ele>
        <time>2021-03-21T09:04:49Z</time>
      </trkpt>
      <trkpt lat="43.148812" lon="-2.166973">
        <ele>608.399</ele>
        <time>2021-03-21T09:04:50Z</time>
      </trkpt>
      <trkpt lat="43.148805" lon="-2.167007">
        <ele>608.027</ele>
        <time>2021-03-21T09:04:52Z</time>
      </trkpt>
      <trkpt lat="43.148797" lon="-2.167037">
        <ele>607.887</ele>
        <time>2021-03-21T09:04:54Z</time>
      </trkpt>
      <trkpt lat="43.148773" lon="-2.167065">
        <ele>608.287</ele>
        <time>2021-03-21T09:04:55Z</time>
      </trkpt>
      <trkpt lat="43.148753" lon="-2.167094">
        <ele>608.511</ele>
        <time>2021-03-21T09:04:58Z</time>
      </trkpt>
      <trkpt lat="43.148738" lon="-2.167117">
        <ele>608.721</ele>
        <time>2021-03-21T09:05:00Z</time>
      </trkpt>
      <trkpt lat="43.148721" lon="-2.167143">
        <ele>608.903</ele>
        <time>2021-03-21T09:05:02Z</time>
      </trkpt>
      <trkpt lat="43.148706" lon="-2.167175">
        <ele>609.008</ele>
        <time>2021-03-21T09:05:04Z</time>
      </trkpt>
      <trkpt lat="43.148691" lon="-2.167215">
        <ele>608.957</ele>
        <time>2021-03-21T09:05:05Z</time>
      </trkpt>
      <trkpt lat="43.148683" lon="-2.167241">
        <ele>609.150</ele>
        <time>2021-03-21T09:05:07Z</time>
      </trkpt>
      <trkpt lat="43.148670" lon="-2.167261">
        <ele>609.523</ele>
        <time>2021-03-21T09:05:08Z</time>
      </trkpt>
      <trkpt lat="43.148653" lon="-2.167296">
        <ele>610.064</ele>
        <time>2021-03-21T09:05:10Z</time>
      </trkpt>
      <trkpt lat="43.148641" lon="-2.167329">
        <ele>610.321</ele>
        <time>2021-03-21T09:05:12Z</time>
      </trkpt>
      <trkpt lat="43.148630" lon="-2.167363">
        <ele>610.749</ele>
        <time>2021-03-21T09:05:14Z</time>
      </trkpt>
      <trkpt lat="43.148618" lon="-2.167408">
        <ele>611.049</ele>
        <time>2021-03-21T09:05:15Z</time>
      </trkpt>
      <trkpt lat="43.148606" lon="-2.167456">
        <ele>611.429</ele>
        <time>2021-03-21T09:05:18Z</time>
      </trkpt>
      <trkpt lat="43.148603" lon="-2.167487">
        <ele>611.424</ele>
        <time>2021-03-21T09:05:19Z</time>
      </trkpt>
      <trkpt lat="43.148594" lon="-2.167523">
        <ele>611.804</ele>
        <time>2021-03-21T09:05:20Z</time>
      </trkpt>
      <trkpt lat="43.148586" lon="-2.167551">
        <ele>612.214</ele>
        <time>2021-03-21T09:05:21Z</time>
      </trkpt>
      <trkpt lat="43.148582" lon="-2.167577">
        <ele>612.408</ele>
        <time>2021-03-21T09:05:22Z</time>
      </trkpt>
      <trkpt lat="43.148579" lon="-2.167614">
        <ele>612.588</ele>
        <time>2021-03-21T09:05:24Z</time>
      </trkpt>
      <trkpt lat="43.148538" lon="-2.167676">
        <ele>614.441</ele>
        <time>2021-03-21T09:05:28Z</time>
      </trkpt>
      <trkpt lat="43.148528" lon="-2.167699">
        <ele>614.964</ele>
        <time>2021-03-21T09:05:31Z</time>
      </trkpt>
      <trkpt lat="43.148522" lon="-2.167731">
        <ele>615.245</ele>
        <time>2021-03-21T09:05:32Z</time>
      </trkpt>
      <trkpt lat="43.148526" lon="-2.167768">
        <ele>615.022</ele>
        <time>2021-03-21T09:05:35Z</time>
      </trkpt>
      <trkpt lat="43.148526" lon="-2.167811">
        <ele>615.190</ele>
        <time>2021-03-21T09:05:36Z</time>
      </trkpt>
      <trkpt lat="43.148529" lon="-2.167849">
        <ele>615.230</ele>
        <time>2021-03-21T09:05:39Z</time>
      </trkpt>
      <trkpt lat="43.148531" lon="-2.167882">
        <ele>615.360</ele>
        <time>2021-03-21T09:05:41Z</time>
      </trkpt>
      <trkpt lat="43.148520" lon="-2.167913">
        <ele>615.971</ele>
        <time>2021-03-21T09:05:42Z</time>
      </trkpt>
      <trkpt lat="43.148511" lon="-2.167954">
        <ele>616.541</ele>
        <time>2021-03-21T09:05:44Z</time>
      </trkpt>
      <trkpt lat="43.148500" lon="-2.167978">
        <ele>617.115</ele>
        <time>2021-03-21T09:05:46Z</time>
      </trkpt>
      <trkpt lat="43.148493" lon="-2.168006">
        <ele>617.508</ele>
        <time>2021-03-21T09:05:47Z</time>
      </trkpt>
      <trkpt lat="43.148481" lon="-2.168040">
        <ele>618.173</ele>
        <time>2021-03-21T09:05:50Z</time>
      </trkpt>
      <trkpt lat="43.148487" lon="-2.168074">
        <ele>618.036</ele>
        <time>2021-03-21T09:05:51Z</time>
      </trkpt>
      <trkpt lat="43.148496" lon="-2.168105">
        <ele>617.859</ele>
        <time>2021-03-21T09:05:54Z</time>
      </trkpt>
      <trkpt lat="43.148504" lon="-2.168135">
        <ele>617.640</ele>
        <time>2021-03-21T09:05:56Z</time>
      </trkpt>
      <trkpt lat="43.148495" lon="-2.168167">
        <ele>618.227</ele>
        <time>2021-03-21T09:05:57Z</time>
      </trkpt>
      <trkpt lat="43.148496" lon="-2.168216">
        <ele>618.465</ele>
        <time>2021-03-21T09:05:59Z</time>
      </trkpt>
      <trkpt lat="43.148499" lon="-2.168263">
        <ele>618.535</ele>
        <time>2021-03-21T09:06:02Z</time>
      </trkpt>
      <trkpt lat="43.148493" lon="-2.168318">
        <ele>619.065</ele>
        <time>2021-03-21T09:06:03Z</time>
      </trkpt>
      <trkpt lat="43.148491" lon="-2.168349">
        <ele>619.256</ele>
        <time>2021-03-21T09:06:05Z</time>
      </trkpt>
      <trkpt lat="43.148490" lon="-2.168380">
        <ele>619.159</ele>
        <time>2021-03-21T09:06:06Z</time>
      </trkpt>
      <trkpt lat="43.148494" lon="-2.168412">
        <ele>618.914</ele>
        <time>2021-03-21T09:06:07Z</time>
      </trkpt>
      <trkpt lat="43.148501" lon="-2.168449">
        <ele>618.508</ele>
        <time>2021-03-21T09:06:08Z</time>
      </trkpt>
      <trkpt lat="43.148505" lon="-2.168484">
        <ele>618.261</ele>
        <time>2021-03-21T09:06:09Z</time>
      </trkpt>
      <trkpt lat="43.148507" lon="-2.168515">
        <ele>618.134</ele>
        <time>2021-03-21T09:06:10Z</time>
      </trkpt>
      <trkpt lat="43.148506" lon="-2.168542">
        <ele>618.197</ele>
        <time>2021-03-21T09:06:11Z</time>
      </trkpt>
      <trkpt lat="43.148509" lon="-2.168571">
        <ele>617.978</ele>
        <time>2021-03-21T09:06:12Z</time>
      </trkpt>
      <trkpt lat="43.148505" lon="-2.168603">
        <ele>618.045</ele>
        <time>2021-03-21T09:06:13Z</time>
      </trkpt>
      <trkpt lat="43.148499" lon="-2.168634">
        <ele>618.393</ele>
        <time>2021-03-21T09:06:14Z</time>
      </trkpt>
      <trkpt lat="43.148491" lon="-2.168662">
        <ele>618.683</ele>
        <time>2021-03-21T09:06:15Z</time>
      </trkpt>
      <trkpt lat="43.148484" lon="-2.168693">
        <ele>619.093</ele>
        <time>2021-03-21T09:06:16Z</time>
      </trkpt>
      <trkpt lat="43.148479" lon="-2.168728">
        <ele>619.227</ele>
        <time>2021-03-21T09:06:17Z</time>
      </trkpt>
      <trkpt lat="43.148478" lon="-2.168757">
        <ele>619.368</ele>
        <time>2021-03-21T09:06:18Z</time>
      </trkpt>
      <trkpt lat="43.148474" lon="-2.168786">
        <ele>619.414</ele>
        <time>2021-03-21T09:06:19Z</time>
      </trkpt>
      <trkpt lat="43.148475" lon="-2.168818">
        <ele>619.408</ele>
        <time>2021-03-21T09:06:20Z</time>
      </trkpt>
      <trkpt lat="43.148474" lon="-2.168848">
        <ele>619.438</ele>
        <time>2021-03-21T09:06:21Z</time>
      </trkpt>
      <trkpt lat="43.148471" lon="-2.168901">
        <ele>619.621</ele>
        <time>2021-03-21T09:06:22Z</time>
      </trkpt>
      <trkpt lat="43.148466" lon="-2.168964">
        <ele>619.994</ele>
        <time>2021-03-21T09:06:24Z</time>
      </trkpt>
      <trkpt lat="43.148464" lon="-2.168989">
        <ele>620.065</ele>
        <time>2021-03-21T09:06:26Z</time>
      </trkpt>
      <trkpt lat="43.148445" lon="-2.169031">
        <ele>620.962</ele>
        <time>2021-03-21T09:06:27Z</time>
      </trkpt>
      <trkpt lat="43.148434" lon="-2.169058">
        <ele>621.470</ele>
        <time>2021-03-21T09:06:29Z</time>
      </trkpt>
      <trkpt lat="43.148419" lon="-2.169101">
        <ele>622.170</ele>
        <time>2021-03-21T09:06:30Z</time>
      </trkpt>
      <trkpt lat="43.148410" lon="-2.169142">
        <ele>622.690</ele>
        <time>2021-03-21T09:06:33Z</time>
      </trkpt>
      <trkpt lat="43.148405" lon="-2.169177">
        <ele>623.019</ele>
        <time>2021-03-21T09:06:35Z</time>
      </trkpt>
      <trkpt lat="43.148400" lon="-2.169210">
        <ele>623.609</ele>
        <time>2021-03-21T09:06:36Z</time>
      </trkpt>
      <trkpt lat="43.148402" lon="-2.169245">
        <ele>623.819</ele>
        <time>2021-03-21T09:06:39Z</time>
      </trkpt>
      <trkpt lat="43.148404" lon="-2.169271">
        <ele>624.008</ele>
        <time>2021-03-21T09:06:40Z</time>
      </trkpt>
      <trkpt lat="43.148413" lon="-2.169314">
        <ele>624.027</ele>
        <time>2021-03-21T09:06:42Z</time>
      </trkpt>
      <trkpt lat="43.148414" lon="-2.169346">
        <ele>624.340</ele>
        <time>2021-03-21T09:06:44Z</time>
      </trkpt>
      <trkpt lat="43.148423" lon="-2.169384">
        <ele>624.293</ele>
        <time>2021-03-21T09:06:45Z</time>
      </trkpt>
      <trkpt lat="43.148425" lon="-2.169409">
        <ele>624.444</ele>
        <time>2021-03-21T09:06:47Z</time>
      </trkpt>
      <trkpt lat="43.148425" lon="-2.169444">
        <ele>624.731</ele>
        <time>2021-03-21T09:06:48Z</time>
      </trkpt>
      <trkpt lat="43.148418" lon="-2.169481">
        <ele>625.619</ele>
        <time>2021-03-21T09:06:50Z</time>
      </trkpt>
      <trkpt lat="43.148411" lon="-2.169516">
        <ele>626.579</ele>
        <time>2021-03-21T09:06:53Z</time>
      </trkpt>
      <trkpt lat="43.148410" lon="-2.169559">
        <ele>627.299</ele>
        <time>2021-03-21T09:06:54Z</time>
      </trkpt>
      <trkpt lat="43.148413" lon="-2.169591">
        <ele>627.537</ele>
        <time>2021-03-21T09:06:56Z</time>
      </trkpt>
      <trkpt lat="43.148415" lon="-2.169623">
        <ele>627.949</ele>
        <time>2021-03-21T09:06:59Z</time>
      </trkpt>
      <trkpt lat="43.148413" lon="-2.169651">
        <ele>628.513</ele>
        <time>2021-03-21T09:07:01Z</time>
      </trkpt>
      <trkpt lat="43.148411" lon="-2.169687">
        <ele>629.108</ele>
        <time>2021-03-21T09:07:04Z</time>
      </trkpt>
      <trkpt lat="43.148409" lon="-2.169727">
        <ele>629.899</ele>
        <time>2021-03-21T09:07:06Z</time>
      </trkpt>
      <trkpt lat="43.148403" lon="-2.169758">
        <ele>630.362</ele>
        <time>2021-03-21T09:07:07Z</time>
      </trkpt>
      <trkpt lat="43.148403" lon="-2.169783">
        <ele>630.535</ele>
        <time>2021-03-21T09:07:10Z</time>
      </trkpt>
      <trkpt lat="43.148388" lon="-2.169800">
        <ele>631.276</ele>
        <time>2021-03-21T09:07:12Z</time>
      </trkpt>
      <trkpt lat="43.148372" lon="-2.169797">
        <ele>631.873</ele>
        <time>2021-03-21T09:07:18Z</time>
      </trkpt>
      <trkpt lat="43.148353" lon="-2.169796">
        <ele>632.521</ele>
        <time>2021-03-21T09:07:21Z</time>
      </trkpt>
      <trkpt lat="43.148334" lon="-2.169794">
        <ele>633.291</ele>
        <time>2021-03-21T09:07:23Z</time>
      </trkpt>
      <trkpt lat="43.148313" lon="-2.169786">
        <ele>633.671</ele>
        <time>2021-03-21T09:07:25Z</time>
      </trkpt>
      <trkpt lat="43.148291" lon="-2.169783">
        <ele>634.095</ele>
        <time>2021-03-21T09:07:26Z</time>
      </trkpt>
      <trkpt lat="43.148265" lon="-2.169791">
        <ele>634.449</ele>
        <time>2021-03-21T09:07:28Z</time>
      </trkpt>
      <trkpt lat="43.148249" lon="-2.169802">
        <ele>634.723</ele>
        <time>2021-03-21T09:07:30Z</time>
      </trkpt>
      <trkpt lat="43.148218" lon="-2.169825">
        <ele>635.108</ele>
        <time>2021-03-21T09:07:31Z</time>
      </trkpt>
      <trkpt lat="43.148190" lon="-2.169852">
        <ele>635.435</ele>
        <time>2021-03-21T09:07:34Z</time>
      </trkpt>
      <trkpt lat="43.148174" lon="-2.169866">
        <ele>635.588</ele>
        <time>2021-03-21T09:07:35Z</time>
      </trkpt>
      <trkpt lat="43.148143" lon="-2.169888">
        <ele>635.771</ele>
        <time>2021-03-21T09:07:36Z</time>
      </trkpt>
      <trkpt lat="43.148127" lon="-2.169902">
        <ele>635.712</ele>
        <time>2021-03-21T09:07:37Z</time>
      </trkpt>
      <trkpt lat="43.148099" lon="-2.169923">
        <ele>635.729</ele>
        <time>2021-03-21T09:07:40Z</time>
      </trkpt>
      <trkpt lat="43.148081" lon="-2.169932">
        <ele>635.897</ele>
        <time>2021-03-21T09:07:41Z</time>
      </trkpt>
      <trkpt lat="43.148048" lon="-2.169943">
        <ele>635.857</ele>
        <time>2021-03-21T09:07:42Z</time>
      </trkpt>
      <trkpt lat="43.148018" lon="-2.169955">
        <ele>635.577</ele>
        <time>2021-03-21T09:07:45Z</time>
      </trkpt>
      <trkpt lat="43.147991" lon="-2.169960">
        <ele>635.315</ele>
        <time>2021-03-21T09:07:47Z</time>
      </trkpt>
      <trkpt lat="43.147960" lon="-2.169956">
        <ele>635.365</ele>
        <time>2021-03-21T09:07:49Z</time>
      </trkpt>
      <trkpt lat="43.147929" lon="-2.169961">
        <ele>635.111</ele>
        <time>2021-03-21T09:07:50Z</time>
      </trkpt>
      <trkpt lat="43.147900" lon="-2.169958">
        <ele>635.008</ele>
        <time>2021-03-21T09:07:53Z</time>
      </trkpt>
      <trkpt lat="43.147853" lon="-2.169953">
        <ele>634.977</ele>
        <time>2021-03-21T09:07:55Z</time>
      </trkpt>
      <trkpt lat="43.147817" lon="-2.169944">
        <ele>634.930</ele>
        <time>2021-03-21T09:07:57Z</time>
      </trkpt>
      <trkpt lat="43.147797" lon="-2.169933">
        <ele>635.023</ele>
        <time>2021-03-21T09:07:59Z</time>
      </trkpt>
      <trkpt lat="43.147776" lon="-2.169921">
        <ele>635.134</ele>
        <time>2021-03-21T09:08:00Z</time>
      </trkpt>
      <trkpt lat="43.147753" lon="-2.169910">
        <ele>635.291</ele>
        <time>2021-03-21T09:08:01Z</time>
      </trkpt>
      <trkpt lat="43.147703" lon="-2.169897">
        <ele>635.299</ele>
        <time>2021-03-21T09:08:02Z</time>
      </trkpt>
      <trkpt lat="43.147679" lon="-2.169893">
        <ele>635.189</ele>
        <time>2021-03-21T09:08:04Z</time>
      </trkpt>
      <trkpt lat="43.147656" lon="-2.169887">
        <ele>635.169</ele>
        <time>2021-03-21T09:08:05Z</time>
      </trkpt>
      <trkpt lat="43.147631" lon="-2.169884">
        <ele>635.083</ele>
        <time>2021-03-21T09:08:06Z</time>
      </trkpt>
      <trkpt lat="43.147603" lon="-2.169888">
        <ele>634.925</ele>
        <time>2021-03-21T09:08:07Z</time>
      </trkpt>
      <trkpt lat="43.147571" lon="-2.169902">
        <ele>634.617</ele>
        <time>2021-03-21T09:08:08Z</time>
      </trkpt>
      <trkpt lat="43.147546" lon="-2.169930">
        <ele>634.408</ele>
        <time>2021-03-21T09:08:09Z</time>
      </trkpt>
      <trkpt lat="43.147535" lon="-2.169973">
        <ele>634.144</ele>
        <time>2021-03-21T09:08:10Z</time>
      </trkpt>
      <trkpt lat="43.147534" lon="-2.170024">
        <ele>633.887</ele>
        <time>2021-03-21T09:08:11Z</time>
      </trkpt>
      <trkpt lat="43.147534" lon="-2.170069">
        <ele>633.540</ele>
        <time>2021-03-21T09:08:12Z</time>
      </trkpt>
      <trkpt lat="43.147538" lon="-2.170114">
        <ele>633.271</ele>
        <time>2021-03-21T09:08:13Z</time>
      </trkpt>
      <trkpt lat="43.147542" lon="-2.170157">
        <ele>632.918</ele>
        <time>2021-03-21T09:08:14Z</time>
      </trkpt>
      <trkpt lat="43.147543" lon="-2.170198">
        <ele>632.616</ele>
        <time>2021-03-21T09:08:15Z</time>
      </trkpt>
      <trkpt lat="43.147545" lon="-2.170243">
        <ele>632.226</ele>
        <time>2021-03-21T09:08:16Z</time>
      </trkpt>
      <trkpt lat="43.147547" lon="-2.170287">
        <ele>632.026</ele>
        <time>2021-03-21T09:08:17Z</time>
      </trkpt>
      <trkpt lat="43.147548" lon="-2.170331">
        <ele>631.945</ele>
        <time>2021-03-21T09:08:18Z</time>
      </trkpt>
      <trkpt lat="43.147548" lon="-2.170376">
        <ele>631.947</ele>
        <time>2021-03-21T09:08:19Z</time>
      </trkpt>
      <trkpt lat="43.147548" lon="-2.170422">
        <ele>631.811</ele>
        <time>2021-03-21T09:08:20Z</time>
      </trkpt>
      <trkpt lat="43.147547" lon="-2.170511">
        <ele>631.708</ele>
        <time>2021-03-21T09:08:21Z</time>
      </trkpt>
      <trkpt lat="43.147547" lon="-2.170555">
        <ele>631.720</ele>
        <time>2021-03-21T09:08:23Z</time>
      </trkpt>
      <trkpt lat="43.147545" lon="-2.170597">
        <ele>631.833</ele>
        <time>2021-03-21T09:08:24Z</time>
      </trkpt>
      <trkpt lat="43.147544" lon="-2.170641">
        <ele>631.816</ele>
        <time>2021-03-21T09:08:25Z</time>
      </trkpt>
      <trkpt lat="43.147541" lon="-2.170729">
        <ele>632.197</ele>
        <time>2021-03-21T09:08:26Z</time>
      </trkpt>
      <trkpt lat="43.147539" lon="-2.170774">
        <ele>632.244</ele>
        <time>2021-03-21T09:08:28Z</time>
      </trkpt>
      <trkpt lat="43.147536" lon="-2.170859">
        <ele>632.472</ele>
        <time>2021-03-21T09:08:29Z</time>
      </trkpt>
      <trkpt lat="43.147531" lon="-2.170902">
        <ele>632.432</ele>
        <time>2021-03-21T09:08:31Z</time>
      </trkpt>
      <trkpt lat="43.147526" lon="-2.170943">
        <ele>632.592</ele>
        <time>2021-03-21T09:08:32Z</time>
      </trkpt>
      <trkpt lat="43.147521" lon="-2.171015">
        <ele>632.636</ele>
        <time>2021-03-21T09:08:33Z</time>
      </trkpt>
      <trkpt lat="43.147518" lon="-2.171048">
        <ele>632.717</ele>
        <time>2021-03-21T09:08:34Z</time>
      </trkpt>
      <trkpt lat="43.147513" lon="-2.171079">
        <ele>632.818</ele>
        <time>2021-03-21T09:08:36Z</time>
      </trkpt>
      <trkpt lat="43.147505" lon="-2.171148">
        <ele>632.908</ele>
        <time>2021-03-21T09:08:37Z</time>
      </trkpt>
      <trkpt lat="43.147501" lon="-2.171183">
        <ele>633.039</ele>
        <time>2021-03-21T09:08:38Z</time>
      </trkpt>
      <trkpt lat="43.147497" lon="-2.171219">
        <ele>633.182</ele>
        <time>2021-03-21T09:08:40Z</time>
      </trkpt>
      <trkpt lat="43.147495" lon="-2.171251">
        <ele>633.195</ele>
        <time>2021-03-21T09:08:41Z</time>
      </trkpt>
      <trkpt lat="43.147495" lon="-2.171285">
        <ele>633.176</ele>
        <time>2021-03-21T09:08:42Z</time>
      </trkpt>
      <trkpt lat="43.147495" lon="-2.171320">
        <ele>633.143</ele>
        <time>2021-03-21T09:08:43Z</time>
      </trkpt>
      <trkpt lat="43.147492" lon="-2.171353">
        <ele>633.251</ele>
        <time>2021-03-21T09:08:44Z</time>
      </trkpt>
      <trkpt lat="43.147486" lon="-2.171426">
        <ele>633.321</ele>
        <time>2021-03-21T09:08:45Z</time>
      </trkpt>
      <trkpt lat="43.147482" lon="-2.171464">
        <ele>633.461</ele>
        <time>2021-03-21T09:08:46Z</time>
      </trkpt>
      <trkpt lat="43.147482" lon="-2.171501">
        <ele>633.434</ele>
        <time>2021-03-21T09:08:48Z</time>
      </trkpt>
      <trkpt lat="43.147480" lon="-2.171539">
        <ele>633.455</ele>
        <time>2021-03-21T09:08:49Z</time>
      </trkpt>
      <trkpt lat="43.147477" lon="-2.171576">
        <ele>633.410</ele>
        <time>2021-03-21T09:08:50Z</time>
      </trkpt>
      <trkpt lat="43.147473" lon="-2.171614">
        <ele>633.508</ele>
        <time>2021-03-21T09:08:51Z</time>
      </trkpt>
      <trkpt lat="43.147467" lon="-2.171691">
        <ele>633.649</ele>
        <time>2021-03-21T09:08:52Z</time>
      </trkpt>
      <trkpt lat="43.147467" lon="-2.171727">
        <ele>633.612</ele>
        <time>2021-03-21T09:08:53Z</time>
      </trkpt>
      <trkpt lat="43.147466" lon="-2.171760">
        <ele>633.665</ele>
        <time>2021-03-21T09:08:55Z</time>
      </trkpt>
      <trkpt lat="43.147464" lon="-2.171797">
        <ele>633.686</ele>
        <time>2021-03-21T09:08:56Z</time>
      </trkpt>
      <trkpt lat="43.147458" lon="-2.171869">
        <ele>633.883</ele>
        <time>2021-03-21T09:08:57Z</time>
      </trkpt>
      <trkpt lat="43.147455" lon="-2.171907">
        <ele>633.841</ele>
        <time>2021-03-21T09:08:59Z</time>
      </trkpt>
      <trkpt lat="43.147451" lon="-2.171941">
        <ele>633.991</ele>
        <time>2021-03-21T09:09:00Z</time>
      </trkpt>
      <trkpt lat="43.147448" lon="-2.171977">
        <ele>633.891</ele>
        <time>2021-03-21T09:09:01Z</time>
      </trkpt>
      <trkpt lat="43.147444" lon="-2.172014">
        <ele>633.894</ele>
        <time>2021-03-21T09:09:02Z</time>
      </trkpt>
      <trkpt lat="43.147442" lon="-2.172052">
        <ele>633.657</ele>
        <time>2021-03-21T09:09:03Z</time>
      </trkpt>
      <trkpt lat="43.147440" lon="-2.172088">
        <ele>633.522</ele>
        <time>2021-03-21T09:09:04Z</time>
      </trkpt>
      <trkpt lat="43.147434" lon="-2.172166">
        <ele>633.208</ele>
        <time>2021-03-21T09:09:05Z</time>
      </trkpt>
      <trkpt lat="43.147432" lon="-2.172208">
        <ele>633.175</ele>
        <time>2021-03-21T09:09:07Z</time>
      </trkpt>
      <trkpt lat="43.147429" lon="-2.172254">
        <ele>632.978</ele>
        <time>2021-03-21T09:09:08Z</time>
      </trkpt>
      <trkpt lat="43.147426" lon="-2.172300">
        <ele>632.951</ele>
        <time>2021-03-21T09:09:09Z</time>
      </trkpt>
      <trkpt lat="43.147424" lon="-2.172343">
        <ele>632.862</ele>
        <time>2021-03-21T09:09:10Z</time>
      </trkpt>
      <trkpt lat="43.147422" lon="-2.172387">
        <ele>632.739</ele>
        <time>2021-03-21T09:09:11Z</time>
      </trkpt>
      <trkpt lat="43.147423" lon="-2.172429">
        <ele>632.617</ele>
        <time>2021-03-21T09:09:12Z</time>
      </trkpt>
      <trkpt lat="43.147422" lon="-2.172463">
        <ele>632.587</ele>
        <time>2021-03-21T09:09:13Z</time>
      </trkpt>
      <trkpt lat="43.147421" lon="-2.172499">
        <ele>632.477</ele>
        <time>2021-03-21T09:09:14Z</time>
      </trkpt>
      <trkpt lat="43.147418" lon="-2.172532">
        <ele>632.685</ele>
        <time>2021-03-21T09:09:15Z</time>
      </trkpt>
      <trkpt lat="43.147415" lon="-2.172565">
        <ele>632.789</ele>
        <time>2021-03-21T09:09:16Z</time>
      </trkpt>
      <trkpt lat="43.147413" lon="-2.172602">
        <ele>632.917</ele>
        <time>2021-03-21T09:09:17Z</time>
      </trkpt>
      <trkpt lat="43.147413" lon="-2.172637">
        <ele>633.008</ele>
        <time>2021-03-21T09:09:18Z</time>
      </trkpt>
      <trkpt lat="43.147410" lon="-2.172672">
        <ele>633.214</ele>
        <time>2021-03-21T09:09:19Z</time>
      </trkpt>
      <trkpt lat="43.147407" lon="-2.172709">
        <ele>633.347</ele>
        <time>2021-03-21T09:09:20Z</time>
      </trkpt>
      <trkpt lat="43.147403" lon="-2.172745">
        <ele>633.520</ele>
        <time>2021-03-21T09:09:21Z</time>
      </trkpt>
      <trkpt lat="43.147401" lon="-2.172779">
        <ele>633.781</ele>
        <time>2021-03-21T09:09:22Z</time>
      </trkpt>
      <trkpt lat="43.147401" lon="-2.172816">
        <ele>634.148</ele>
        <time>2021-03-21T09:09:23Z</time>
      </trkpt>
      <trkpt lat="43.147402" lon="-2.172851">
        <ele>634.576</ele>
        <time>2021-03-21T09:09:24Z</time>
      </trkpt>
      <trkpt lat="43.147403" lon="-2.172888">
        <ele>635.036</ele>
        <time>2021-03-21T09:09:25Z</time>
      </trkpt>
      <trkpt lat="43.147411" lon="-2.172951">
        <ele>635.756</ele>
        <time>2021-03-21T09:09:26Z</time>
      </trkpt>
      <trkpt lat="43.147416" lon="-2.172984">
        <ele>636.194</ele>
        <time>2021-03-21T09:09:28Z</time>
      </trkpt>
      <trkpt lat="43.147427" lon="-2.173044">
        <ele>636.757</ele>
        <time>2021-03-21T09:09:29Z</time>
      </trkpt>
      <trkpt lat="43.147434" lon="-2.173073">
        <ele>636.822</ele>
        <time>2021-03-21T09:09:30Z</time>
      </trkpt>
      <trkpt lat="43.147446" lon="-2.173130">
        <ele>637.108</ele>
        <time>2021-03-21T09:09:32Z</time>
      </trkpt>
      <trkpt lat="43.147456" lon="-2.173161">
        <ele>637.215</ele>
        <time>2021-03-21T09:09:33Z</time>
      </trkpt>
      <trkpt lat="43.147463" lon="-2.173192">
        <ele>637.388</ele>
        <time>2021-03-21T09:09:35Z</time>
      </trkpt>
      <trkpt lat="43.147470" lon="-2.173221">
        <ele>637.531</ele>
        <time>2021-03-21T09:09:36Z</time>
      </trkpt>
      <trkpt lat="43.147474" lon="-2.173253">
        <ele>637.692</ele>
        <time>2021-03-21T09:09:37Z</time>
      </trkpt>
      <trkpt lat="43.147478" lon="-2.173330">
        <ele>638.119</ele>
        <time>2021-03-21T09:09:38Z</time>
      </trkpt>
      <trkpt lat="43.147479" lon="-2.173367">
        <ele>637.797</ele>
        <time>2021-03-21T09:09:40Z</time>
      </trkpt>
      <trkpt lat="43.147473" lon="-2.173453">
        <ele>636.677</ele>
        <time>2021-03-21T09:09:41Z</time>
      </trkpt>
      <trkpt lat="43.147467" lon="-2.173494">
        <ele>636.127</ele>
        <time>2021-03-21T09:09:43Z</time>
      </trkpt>
      <trkpt lat="43.147458" lon="-2.173537">
        <ele>635.688</ele>
        <time>2021-03-21T09:09:44Z</time>
      </trkpt>
      <trkpt lat="43.147450" lon="-2.173584">
        <ele>635.124</ele>
        <time>2021-03-21T09:09:45Z</time>
      </trkpt>
      <trkpt lat="43.147437" lon="-2.173680">
        <ele>633.926</ele>
        <time>2021-03-21T09:09:46Z</time>
      </trkpt>
      <trkpt lat="43.147431" lon="-2.173729">
        <ele>633.308</ele>
        <time>2021-03-21T09:09:47Z</time>
      </trkpt>
      <trkpt lat="43.147418" lon="-2.173823">
        <ele>632.124</ele>
        <time>2021-03-21T09:09:50Z</time>
      </trkpt>
      <trkpt lat="43.147410" lon="-2.173867">
        <ele>631.637</ele>
        <time>2021-03-21T09:09:51Z</time>
      </trkpt>
      <trkpt lat="43.147402" lon="-2.173911">
        <ele>631.250</ele>
        <time>2021-03-21T09:09:52Z</time>
      </trkpt>
      <trkpt lat="43.147385" lon="-2.173997">
        <ele>630.661</ele>
        <time>2021-03-21T09:09:53Z</time>
      </trkpt>
      <trkpt lat="43.147376" lon="-2.174040">
        <ele>630.488</ele>
        <time>2021-03-21T09:09:55Z</time>
      </trkpt>
      <trkpt lat="43.147361" lon="-2.174127">
        <ele>629.916</ele>
        <time>2021-03-21T09:09:56Z</time>
      </trkpt>
      <trkpt lat="43.147353" lon="-2.174170">
        <ele>629.646</ele>
        <time>2021-03-21T09:09:58Z</time>
      </trkpt>
      <trkpt lat="43.147346" lon="-2.174217">
        <ele>629.286</ele>
        <time>2021-03-21T09:09:59Z</time>
      </trkpt>
      <trkpt lat="43.147340" lon="-2.174260">
        <ele>628.962</ele>
        <time>2021-03-21T09:10:00Z</time>
      </trkpt>
      <trkpt lat="43.147326" lon="-2.174345">
        <ele>628.283</ele>
        <time>2021-03-21T09:10:01Z</time>
      </trkpt>
      <trkpt lat="43.147320" lon="-2.174387">
        <ele>627.911</ele>
        <time>2021-03-21T09:10:03Z</time>
      </trkpt>
      <trkpt lat="43.147306" lon="-2.174474">
        <ele>627.208</ele>
        <time>2021-03-21T09:10:04Z</time>
      </trkpt>
      <trkpt lat="43.147299" lon="-2.174521">
        <ele>626.882</ele>
        <time>2021-03-21T09:10:05Z</time>
      </trkpt>
      <trkpt lat="43.147291" lon="-2.174569">
        <ele>626.425</ele>
        <time>2021-03-21T09:10:07Z</time>
      </trkpt>
      <trkpt lat="43.147283" lon="-2.174618">
        <ele>626.028</ele>
        <time>2021-03-21T09:10:08Z</time>
      </trkpt>
      <trkpt lat="43.147275" lon="-2.174664">
        <ele>625.729</ele>
        <time>2021-03-21T09:10:09Z</time>
      </trkpt>
      <trkpt lat="43.147268" lon="-2.174709">
        <ele>625.366</ele>
        <time>2021-03-21T09:10:10Z</time>
      </trkpt>
      <trkpt lat="43.147262" lon="-2.174751">
        <ele>625.214</ele>
        <time>2021-03-21T09:10:11Z</time>
      </trkpt>
      <trkpt lat="43.147256" lon="-2.174790">
        <ele>625.144</ele>
        <time>2021-03-21T09:10:12Z</time>
      </trkpt>
      <trkpt lat="43.147251" lon="-2.174829">
        <ele>625.114</ele>
        <time>2021-03-21T09:10:13Z</time>
      </trkpt>
      <trkpt lat="43.147246" lon="-2.174867">
        <ele>625.089</ele>
        <time>2021-03-21T09:10:14Z</time>
      </trkpt>
      <trkpt lat="43.147241" lon="-2.174907">
        <ele>625.006</ele>
        <time>2021-03-21T09:10:15Z</time>
      </trkpt>
      <trkpt lat="43.147234" lon="-2.174947">
        <ele>624.926</ele>
        <time>2021-03-21T09:10:16Z</time>
      </trkpt>
      <trkpt lat="43.147228" lon="-2.174985">
        <ele>624.908</ele>
        <time>2021-03-21T09:10:17Z</time>
      </trkpt>
      <trkpt lat="43.147222" lon="-2.175024">
        <ele>625.144</ele>
        <time>2021-03-21T09:10:18Z</time>
      </trkpt>
      <trkpt lat="43.147217" lon="-2.175059">
        <ele>625.437</ele>
        <time>2021-03-21T09:10:19Z</time>
      </trkpt>
      <trkpt lat="43.147213" lon="-2.175093">
        <ele>625.640</ele>
        <time>2021-03-21T09:10:20Z</time>
      </trkpt>
      <trkpt lat="43.147209" lon="-2.175129">
        <ele>625.991</ele>
        <time>2021-03-21T09:10:21Z</time>
      </trkpt>
      <trkpt lat="43.147207" lon="-2.175161">
        <ele>626.058</ele>
        <time>2021-03-21T09:10:22Z</time>
      </trkpt>
      <trkpt lat="43.147203" lon="-2.175191">
        <ele>626.326</ele>
        <time>2021-03-21T09:10:23Z</time>
      </trkpt>
      <trkpt lat="43.147193" lon="-2.175248">
        <ele>626.756</ele>
        <time>2021-03-21T09:10:24Z</time>
      </trkpt>
      <trkpt lat="43.147187" lon="-2.175274">
        <ele>627.036</ele>
        <time>2021-03-21T09:10:26Z</time>
      </trkpt>
      <trkpt lat="43.147175" lon="-2.175352">
        <ele>627.862</ele>
        <time>2021-03-21T09:10:28Z</time>
      </trkpt>
      <trkpt lat="43.147171" lon="-2.175383">
        <ele>628.183</ele>
        <time>2021-03-21T09:10:29Z</time>
      </trkpt>
      <trkpt lat="43.147167" lon="-2.175411">
        <ele>628.411</ele>
        <time>2021-03-21T09:10:31Z</time>
      </trkpt>
      <trkpt lat="43.147162" lon="-2.175439">
        <ele>628.608</ele>
        <time>2021-03-21T09:10:32Z</time>
      </trkpt>
      <trkpt lat="43.147150" lon="-2.175497">
        <ele>629.272</ele>
        <time>2021-03-21T09:10:33Z</time>
      </trkpt>
      <trkpt lat="43.147144" lon="-2.175526">
        <ele>629.515</ele>
        <time>2021-03-21T09:10:35Z</time>
      </trkpt>
      <trkpt lat="43.147135" lon="-2.175586">
        <ele>629.828</ele>
        <time>2021-03-21T09:10:36Z</time>
      </trkpt>
      <trkpt lat="43.147128" lon="-2.175615">
        <ele>629.859</ele>
        <time>2021-03-21T09:10:38Z</time>
      </trkpt>
      <trkpt lat="43.147122" lon="-2.175649">
        <ele>629.866</ele>
        <time>2021-03-21T09:10:39Z</time>
      </trkpt>
      <trkpt lat="43.147117" lon="-2.175680">
        <ele>629.814</ele>
        <time>2021-03-21T09:10:40Z</time>
      </trkpt>
      <trkpt lat="43.147104" lon="-2.175745">
        <ele>629.944</ele>
        <time>2021-03-21T09:10:41Z</time>
      </trkpt>
      <trkpt lat="43.147096" lon="-2.175774">
        <ele>629.984</ele>
        <time>2021-03-21T09:10:43Z</time>
      </trkpt>
      <trkpt lat="43.147089" lon="-2.175806">
        <ele>630.014</ele>
        <time>2021-03-21T09:10:44Z</time>
      </trkpt>
      <trkpt lat="43.147082" lon="-2.175837">
        <ele>630.054</ele>
        <time>2021-03-21T09:10:45Z</time>
      </trkpt>
      <trkpt lat="43.147075" lon="-2.175868">
        <ele>630.109</ele>
        <time>2021-03-21T09:10:46Z</time>
      </trkpt>
      <trkpt lat="43.147067" lon="-2.175901">
        <ele>630.108</ele>
        <time>2021-03-21T09:10:47Z</time>
      </trkpt>
      <trkpt lat="43.147051" lon="-2.175967">
        <ele>630.277</ele>
        <time>2021-03-21T09:10:48Z</time>
      </trkpt>
      <trkpt lat="43.147043" lon="-2.176005">
        <ele>630.320</ele>
        <time>2021-03-21T09:10:50Z</time>
      </trkpt>
      <trkpt lat="43.147036" lon="-2.176043">
        <ele>630.343</ele>
        <time>2021-03-21T09:10:51Z</time>
      </trkpt>
      <trkpt lat="43.147028" lon="-2.176078">
        <ele>630.334</ele>
        <time>2021-03-21T09:10:52Z</time>
      </trkpt>
      <trkpt lat="43.147018" lon="-2.176112">
        <ele>630.491</ele>
        <time>2021-03-21T09:10:53Z</time>
      </trkpt>
      <trkpt lat="43.147010" lon="-2.176149">
        <ele>630.069</ele>
        <time>2021-03-21T09:10:54Z</time>
      </trkpt>
      <trkpt lat="43.146999" lon="-2.176185">
        <ele>629.639</ele>
        <time>2021-03-21T09:10:55Z</time>
      </trkpt>
      <trkpt lat="43.146988" lon="-2.176226">
        <ele>629.119</ele>
        <time>2021-03-21T09:10:56Z</time>
      </trkpt>
      <trkpt lat="43.146978" lon="-2.176267">
        <ele>628.675</ele>
        <time>2021-03-21T09:10:57Z</time>
      </trkpt>
      <trkpt lat="43.146966" lon="-2.176303">
        <ele>628.228</ele>
        <time>2021-03-21T09:10:58Z</time>
      </trkpt>
      <trkpt lat="43.146936" lon="-2.176378">
        <ele>627.320</ele>
        <time>2021-03-21T09:10:59Z</time>
      </trkpt>
      <trkpt lat="43.146922" lon="-2.176415">
        <ele>626.808</ele>
        <time>2021-03-21T09:11:01Z</time>
      </trkpt>
      <trkpt lat="43.146887" lon="-2.176488">
        <ele>625.863</ele>
        <time>2021-03-21T09:11:02Z</time>
      </trkpt>
      <trkpt lat="43.146870" lon="-2.176524">
        <ele>625.416</ele>
        <time>2021-03-21T09:11:04Z</time>
      </trkpt>
      <trkpt lat="43.146825" lon="-2.176594">
        <ele>624.649</ele>
        <time>2021-03-21T09:11:06Z</time>
      </trkpt>
      <trkpt lat="43.146802" lon="-2.176623">
        <ele>624.310</ele>
        <time>2021-03-21T09:11:07Z</time>
      </trkpt>
      <trkpt lat="43.146781" lon="-2.176656">
        <ele>624.097</ele>
        <time>2021-03-21T09:11:08Z</time>
      </trkpt>
      <trkpt lat="43.146759" lon="-2.176688">
        <ele>623.765</ele>
        <time>2021-03-21T09:11:09Z</time>
      </trkpt>
      <trkpt lat="43.146736" lon="-2.176717">
        <ele>623.675</ele>
        <time>2021-03-21T09:11:10Z</time>
      </trkpt>
      <trkpt lat="43.146713" lon="-2.176746">
        <ele>623.545</ele>
        <time>2021-03-21T09:11:11Z</time>
      </trkpt>
      <trkpt lat="43.146691" lon="-2.176773">
        <ele>623.516</ele>
        <time>2021-03-21T09:11:12Z</time>
      </trkpt>
      <trkpt lat="43.146665" lon="-2.176799">
        <ele>623.676</ele>
        <time>2021-03-21T09:11:13Z</time>
      </trkpt>
      <trkpt lat="43.146642" lon="-2.176826">
        <ele>623.513</ele>
        <time>2021-03-21T09:11:14Z</time>
      </trkpt>
      <trkpt lat="43.146618" lon="-2.176854">
        <ele>623.508</ele>
        <time>2021-03-21T09:11:15Z</time>
      </trkpt>
      <trkpt lat="43.146595" lon="-2.176884">
        <ele>623.467</ele>
        <time>2021-03-21T09:11:16Z</time>
      </trkpt>
      <trkpt lat="43.146548" lon="-2.176935">
        <ele>623.480</ele>
        <time>2021-03-21T09:11:17Z</time>
      </trkpt>
      <trkpt lat="43.146526" lon="-2.176961">
        <ele>623.233</ele>
        <time>2021-03-21T09:11:19Z</time>
      </trkpt>
      <trkpt lat="43.146507" lon="-2.176985">
        <ele>623.094</ele>
        <time>2021-03-21T09:11:20Z</time>
      </trkpt>
      <trkpt lat="43.146485" lon="-2.177009">
        <ele>622.911</ele>
        <time>2021-03-21T09:11:21Z</time>
      </trkpt>
      <trkpt lat="43.146440" lon="-2.177061">
        <ele>622.659</ele>
        <time>2021-03-21T09:11:22Z</time>
      </trkpt>
      <trkpt lat="43.146420" lon="-2.177088">
        <ele>622.579</ele>
        <time>2021-03-21T09:11:24Z</time>
      </trkpt>
      <trkpt lat="43.146402" lon="-2.177117">
        <ele>622.359</ele>
        <time>2021-03-21T09:11:25Z</time>
      </trkpt>
      <trkpt lat="43.146369" lon="-2.177181">
        <ele>621.952</ele>
        <time>2021-03-21T09:11:26Z</time>
      </trkpt>
      <trkpt lat="43.146352" lon="-2.177215">
        <ele>621.653</ele>
        <time>2021-03-21T09:11:28Z</time>
      </trkpt>
      <trkpt lat="43.146338" lon="-2.177250">
        <ele>621.508</ele>
        <time>2021-03-21T09:11:29Z</time>
      </trkpt>
      <trkpt lat="43.146326" lon="-2.177290">
        <ele>621.208</ele>
        <time>2021-03-21T09:11:30Z</time>
      </trkpt>
      <trkpt lat="43.146307" lon="-2.177379">
        <ele>620.761</ele>
        <time>2021-03-21T09:11:31Z</time>
      </trkpt>
      <trkpt lat="43.146292" lon="-2.177460">
        <ele>620.164</ele>
        <time>2021-03-21T09:11:33Z</time>
      </trkpt>
      <trkpt lat="43.146286" lon="-2.177499">
        <ele>619.977</ele>
        <time>2021-03-21T09:11:35Z</time>
      </trkpt>
      <trkpt lat="43.146278" lon="-2.177539">
        <ele>619.798</ele>
        <time>2021-03-21T09:11:36Z</time>
      </trkpt>
      <trkpt lat="43.146270" lon="-2.177583">
        <ele>619.465</ele>
        <time>2021-03-21T09:11:37Z</time>
      </trkpt>
      <trkpt lat="43.146254" lon="-2.177659">
        <ele>619.093</ele>
        <time>2021-03-21T09:11:38Z</time>
      </trkpt>
      <trkpt lat="43.146245" lon="-2.177700">
        <ele>618.813</ele>
        <time>2021-03-21T09:11:39Z</time>
      </trkpt>
      <trkpt lat="43.146236" lon="-2.177741">
        <ele>618.523</ele>
        <time>2021-03-21T09:11:41Z</time>
      </trkpt>
      <trkpt lat="43.146226" lon="-2.177783">
        <ele>618.385</ele>
        <time>2021-03-21T09:11:42Z</time>
      </trkpt>
      <trkpt lat="43.146217" lon="-2.177821">
        <ele>618.289</ele>
        <time>2021-03-21T09:11:43Z</time>
      </trkpt>
      <trkpt lat="43.146208" lon="-2.177859">
        <ele>618.017</ele>
        <time>2021-03-21T09:11:44Z</time>
      </trkpt>
      <trkpt lat="43.146189" lon="-2.177939">
        <ele>617.708</ele>
        <time>2021-03-21T09:11:45Z</time>
      </trkpt>
      <trkpt lat="43.146182" lon="-2.177978">
        <ele>617.574</ele>
        <time>2021-03-21T09:11:47Z</time>
      </trkpt>
      <trkpt lat="43.146172" lon="-2.178061">
        <ele>617.167</ele>
        <time>2021-03-21T09:11:48Z</time>
      </trkpt>
      <trkpt lat="43.146172" lon="-2.178103">
        <ele>617.030</ele>
        <time>2021-03-21T09:11:50Z</time>
      </trkpt>
      <trkpt lat="43.146177" lon="-2.178184">
        <ele>616.811</ele>
        <time>2021-03-21T09:11:51Z</time>
      </trkpt>
      <trkpt lat="43.146183" lon="-2.178225">
        <ele>616.728</ele>
        <time>2021-03-21T09:11:53Z</time>
      </trkpt>
      <trkpt lat="43.146196" lon="-2.178298">
        <ele>616.486</ele>
        <time>2021-03-21T09:11:54Z</time>
      </trkpt>
      <trkpt lat="43.146211" lon="-2.178334">
        <ele>616.396</ele>
        <time>2021-03-21T09:11:56Z</time>
      </trkpt>
      <trkpt lat="43.146244" lon="-2.178400">
        <ele>616.516</ele>
        <time>2021-03-21T09:11:57Z</time>
      </trkpt>
      <trkpt lat="43.146262" lon="-2.178430">
        <ele>616.665</ele>
        <time>2021-03-21T09:11:58Z</time>
      </trkpt>
      <trkpt lat="43.146278" lon="-2.178456">
        <ele>616.868</ele>
        <time>2021-03-21T09:12:00Z</time>
      </trkpt>
      <trkpt lat="43.146309" lon="-2.178515">
        <ele>617.214</ele>
        <time>2021-03-21T09:12:01Z</time>
      </trkpt>
      <trkpt lat="43.146322" lon="-2.178541">
        <ele>617.408</ele>
        <time>2021-03-21T09:12:02Z</time>
      </trkpt>
      <trkpt lat="43.146331" lon="-2.178567">
        <ele>617.612</ele>
        <time>2021-03-21T09:12:04Z</time>
      </trkpt>
      <trkpt lat="43.146337" lon="-2.178607">
        <ele>618.035</ele>
        <time>2021-03-21T09:12:06Z</time>
      </trkpt>
      <trkpt lat="43.146340" lon="-2.178640">
        <ele>618.678</ele>
        <time>2021-03-21T09:12:07Z</time>
      </trkpt>
      <trkpt lat="43.146331" lon="-2.178668">
        <ele>619.179</ele>
        <time>2021-03-21T09:12:09Z</time>
      </trkpt>
      <trkpt lat="43.146320" lon="-2.178691">
        <ele>619.536</ele>
        <time>2021-03-21T09:12:11Z</time>
      </trkpt>
      <trkpt lat="43.146306" lon="-2.178724">
        <ele>620.134</ele>
        <time>2021-03-21T09:12:14Z</time>
      </trkpt>
      <trkpt lat="43.146299" lon="-2.178749">
        <ele>620.574</ele>
        <time>2021-03-21T09:12:16Z</time>
      </trkpt>
      <trkpt lat="43.146282" lon="-2.178780">
        <ele>620.984</ele>
        <time>2021-03-21T09:12:18Z</time>
      </trkpt>
      <trkpt lat="43.146258" lon="-2.178811">
        <ele>621.337</ele>
        <time>2021-03-21T09:12:19Z</time>
      </trkpt>
      <trkpt lat="43.146242" lon="-2.178838">
        <ele>621.649</ele>
        <time>2021-03-21T09:12:21Z</time>
      </trkpt>
      <trkpt lat="43.146228" lon="-2.178868">
        <ele>621.913</ele>
        <time>2021-03-21T09:12:23Z</time>
      </trkpt>
      <trkpt lat="43.146210" lon="-2.178895">
        <ele>622.308</ele>
        <time>2021-03-21T09:12:26Z</time>
      </trkpt>
      <trkpt lat="43.146191" lon="-2.178916">
        <ele>622.899</ele>
        <time>2021-03-21T09:12:28Z</time>
      </trkpt>
      <trkpt lat="43.146168" lon="-2.178933">
        <ele>623.122</ele>
        <time>2021-03-21T09:12:30Z</time>
      </trkpt>
      <trkpt lat="43.146152" lon="-2.178956">
        <ele>623.835</ele>
        <time>2021-03-21T09:12:32Z</time>
      </trkpt>
      <trkpt lat="43.146127" lon="-2.178983">
        <ele>624.576</ele>
        <time>2021-03-21T09:12:34Z</time>
      </trkpt>
      <trkpt lat="43.146104" lon="-2.179002">
        <ele>625.073</ele>
        <time>2021-03-21T09:12:35Z</time>
      </trkpt>
      <trkpt lat="43.146078" lon="-2.179024">
        <ele>625.551</ele>
        <time>2021-03-21T09:12:37Z</time>
      </trkpt>
      <trkpt lat="43.146046" lon="-2.179051">
        <ele>626.091</ele>
        <time>2021-03-21T09:12:40Z</time>
      </trkpt>
      <trkpt lat="43.146022" lon="-2.179070">
        <ele>626.391</ele>
        <time>2021-03-21T09:12:42Z</time>
      </trkpt>
      <trkpt lat="43.146009" lon="-2.179081">
        <ele>626.449</ele>
        <time>2021-03-21T09:12:44Z</time>
      </trkpt>
      <trkpt lat="43.145987" lon="-2.179095">
        <ele>626.502</ele>
        <time>2021-03-21T09:12:45Z</time>
      </trkpt>
      <trkpt lat="43.145960" lon="-2.179117">
        <ele>626.822</ele>
        <time>2021-03-21T09:12:47Z</time>
      </trkpt>
      <trkpt lat="43.145938" lon="-2.179146">
        <ele>627.308</ele>
        <time>2021-03-21T09:12:49Z</time>
      </trkpt>
      <trkpt lat="43.145916" lon="-2.179171">
        <ele>627.610</ele>
        <time>2021-03-21T09:12:51Z</time>
      </trkpt>
      <trkpt lat="43.145893" lon="-2.179200">
        <ele>628.153</ele>
        <time>2021-03-21T09:12:54Z</time>
      </trkpt>
      <trkpt lat="43.145875" lon="-2.179226">
        <ele>628.566</ele>
        <time>2021-03-21T09:12:55Z</time>
      </trkpt>
      <trkpt lat="43.145860" lon="-2.179256">
        <ele>629.127</ele>
        <time>2021-03-21T09:12:58Z</time>
      </trkpt>
      <trkpt lat="43.145848" lon="-2.179285">
        <ele>629.774</ele>
        <time>2021-03-21T09:13:00Z</time>
      </trkpt>
      <trkpt lat="43.145832" lon="-2.179318">
        <ele>630.452</ele>
        <time>2021-03-21T09:13:02Z</time>
      </trkpt>
      <trkpt lat="43.145818" lon="-2.179353">
        <ele>631.312</ele>
        <time>2021-03-21T09:13:04Z</time>
      </trkpt>
      <trkpt lat="43.145802" lon="-2.179383">
        <ele>632.112</ele>
        <time>2021-03-21T09:13:06Z</time>
      </trkpt>
      <trkpt lat="43.145784" lon="-2.179415">
        <ele>633.081</ele>
        <time>2021-03-21T09:13:07Z</time>
      </trkpt>
      <trkpt lat="43.145769" lon="-2.179445">
        <ele>633.861</ele>
        <time>2021-03-21T09:13:10Z</time>
      </trkpt>
      <trkpt lat="43.145752" lon="-2.179474">
        <ele>634.217</ele>
        <time>2021-03-21T09:13:12Z</time>
      </trkpt>
      <trkpt lat="43.145730" lon="-2.179497">
        <ele>634.508</ele>
        <time>2021-03-21T09:13:14Z</time>
      </trkpt>
      <trkpt lat="43.145709" lon="-2.179523">
        <ele>634.894</ele>
        <time>2021-03-21T09:13:16Z</time>
      </trkpt>
      <trkpt lat="43.145678" lon="-2.179560">
        <ele>635.357</ele>
        <time>2021-03-21T09:13:18Z</time>
      </trkpt>
      <trkpt lat="43.145654" lon="-2.179580">
        <ele>635.590</ele>
        <time>2021-03-21T09:13:20Z</time>
      </trkpt>
      <trkpt lat="43.145629" lon="-2.179606">
        <ele>635.761</ele>
        <time>2021-03-21T09:13:22Z</time>
      </trkpt>
      <trkpt lat="43.145608" lon="-2.179633">
        <ele>636.038</ele>
        <time>2021-03-21T09:13:25Z</time>
      </trkpt>
      <trkpt lat="43.145590" lon="-2.179662">
        <ele>636.456</ele>
        <time>2021-03-21T09:13:26Z</time>
      </trkpt>
      <trkpt lat="43.145573" lon="-2.179692">
        <ele>636.726</ele>
        <time>2021-03-21T09:13:29Z</time>
      </trkpt>
      <trkpt lat="43.145556" lon="-2.179725">
        <ele>637.016</ele>
        <time>2021-03-21T09:13:31Z</time>
      </trkpt>
      <trkpt lat="43.145541" lon="-2.179755">
        <ele>637.513</ele>
        <time>2021-03-21T09:13:33Z</time>
      </trkpt>
      <trkpt lat="43.145525" lon="-2.179789">
        <ele>637.943</ele>
        <time>2021-03-21T09:13:34Z</time>
      </trkpt>
      <trkpt lat="43.145500" lon="-2.179841">
        <ele>638.507</ele>
        <time>2021-03-21T09:13:37Z</time>
      </trkpt>
      <trkpt lat="43.145485" lon="-2.179875">
        <ele>638.908</ele>
        <time>2021-03-21T09:13:39Z</time>
      </trkpt>
      <trkpt lat="43.145470" lon="-2.179911">
        <ele>639.337</ele>
        <time>2021-03-21T09:13:42Z</time>
      </trkpt>
      <trkpt lat="43.145456" lon="-2.179949">
        <ele>639.720</ele>
        <time>2021-03-21T09:13:44Z</time>
      </trkpt>
      <trkpt lat="43.145440" lon="-2.179985">
        <ele>640.063</ele>
        <time>2021-03-21T09:13:45Z</time>
      </trkpt>
      <trkpt lat="43.145428" lon="-2.180028">
        <ele>640.444</ele>
        <time>2021-03-21T09:13:47Z</time>
      </trkpt>
      <trkpt lat="43.145415" lon="-2.180068">
        <ele>640.821</ele>
        <time>2021-03-21T09:13:50Z</time>
      </trkpt>
      <trkpt lat="43.145404" lon="-2.180103">
        <ele>641.299</ele>
        <time>2021-03-21T09:13:52Z</time>
      </trkpt>
      <trkpt lat="43.145393" lon="-2.180138">
        <ele>641.569</ele>
        <time>2021-03-21T09:13:53Z</time>
      </trkpt>
      <trkpt lat="43.145385" lon="-2.180159">
        <ele>641.779</ele>
        <time>2021-03-21T09:13:55Z</time>
      </trkpt>
      <trkpt lat="43.145371" lon="-2.180202">
        <ele>642.111</ele>
        <time>2021-03-21T09:13:57Z</time>
      </trkpt>
      <trkpt lat="43.145360" lon="-2.180241">
        <ele>642.521</ele>
        <time>2021-03-21T09:13:58Z</time>
      </trkpt>
      <trkpt lat="43.145345" lon="-2.180279">
        <ele>642.703</ele>
        <time>2021-03-21T09:14:01Z</time>
      </trkpt>
      <trkpt lat="43.145337" lon="-2.180318">
        <ele>643.108</ele>
        <time>2021-03-21T09:14:03Z</time>
      </trkpt>
      <trkpt lat="43.145329" lon="-2.180359">
        <ele>643.577</ele>
        <time>2021-03-21T09:14:05Z</time>
      </trkpt>
      <trkpt lat="43.145325" lon="-2.180402">
        <ele>643.930</ele>
        <time>2021-03-21T09:14:06Z</time>
      </trkpt>
      <trkpt lat="43.145316" lon="-2.180444">
        <ele>644.383</ele>
        <time>2021-03-21T09:14:09Z</time>
      </trkpt>
      <trkpt lat="43.145309" lon="-2.180484">
        <ele>644.674</ele>
        <time>2021-03-21T09:14:11Z</time>
      </trkpt>
      <trkpt lat="43.145301" lon="-2.180523">
        <ele>645.041</ele>
        <time>2021-03-21T09:14:12Z</time>
      </trkpt>
      <trkpt lat="43.145291" lon="-2.180563">
        <ele>645.219</ele>
        <time>2021-03-21T09:14:14Z</time>
      </trkpt>
      <trkpt lat="43.145287" lon="-2.180605">
        <ele>645.319</ele>
        <time>2021-03-21T09:14:17Z</time>
      </trkpt>
      <trkpt lat="43.145282" lon="-2.180642">
        <ele>645.489</ele>
        <time>2021-03-21T09:14:18Z</time>
      </trkpt>
      <trkpt lat="43.145274" lon="-2.180677">
        <ele>645.467</ele>
        <time>2021-03-21T09:14:20Z</time>
      </trkpt>
      <trkpt lat="43.145271" lon="-2.180715">
        <ele>645.581</ele>
        <time>2021-03-21T09:14:22Z</time>
      </trkpt>
      <trkpt lat="43.145269" lon="-2.180751">
        <ele>645.619</ele>
        <time>2021-03-21T09:14:25Z</time>
      </trkpt>
      <trkpt lat="43.145265" lon="-2.180786">
        <ele>645.708</ele>
        <time>2021-03-21T09:14:27Z</time>
      </trkpt>
      <trkpt lat="43.145263" lon="-2.180821">
        <ele>645.832</ele>
        <time>2021-03-21T09:14:28Z</time>
      </trkpt>
      <trkpt lat="43.145263" lon="-2.180860">
        <ele>645.815</ele>
        <time>2021-03-21T09:14:31Z</time>
      </trkpt>
      <trkpt lat="43.145266" lon="-2.180905">
        <ele>645.958</ele>
        <time>2021-03-21T09:14:32Z</time>
      </trkpt>
      <trkpt lat="43.145272" lon="-2.180952">
        <ele>645.999</ele>
        <time>2021-03-21T09:14:34Z</time>
      </trkpt>
      <trkpt lat="43.145277" lon="-2.181001">
        <ele>646.056</ele>
        <time>2021-03-21T09:14:37Z</time>
      </trkpt>
      <trkpt lat="43.145271" lon="-2.181048">
        <ele>645.914</ele>
        <time>2021-03-21T09:14:39Z</time>
      </trkpt>
      <trkpt lat="43.145264" lon="-2.181089">
        <ele>645.964</ele>
        <time>2021-03-21T09:14:40Z</time>
      </trkpt>
      <trkpt lat="43.145260" lon="-2.181116">
        <ele>645.954</ele>
        <time>2021-03-21T09:14:42Z</time>
      </trkpt>
      <trkpt lat="43.145257" lon="-2.181141">
        <ele>646.044</ele>
        <time>2021-03-21T09:14:43Z</time>
      </trkpt>
      <trkpt lat="43.145246" lon="-2.181187">
        <ele>646.105</ele>
        <time>2021-03-21T09:14:44Z</time>
      </trkpt>
      <trkpt lat="43.145233" lon="-2.181225">
        <ele>646.215</ele>
        <time>2021-03-21T09:14:47Z</time>
      </trkpt>
      <trkpt lat="43.145214" lon="-2.181260">
        <ele>646.308</ele>
        <time>2021-03-21T09:14:48Z</time>
      </trkpt>
      <trkpt lat="43.145200" lon="-2.181296">
        <ele>646.510</ele>
        <time>2021-03-21T09:14:50Z</time>
      </trkpt>
      <trkpt lat="43.145184" lon="-2.181335">
        <ele>646.713</ele>
        <time>2021-03-21T09:14:53Z</time>
      </trkpt>
      <trkpt lat="43.145170" lon="-2.181370">
        <ele>646.946</ele>
        <time>2021-03-21T09:14:54Z</time>
      </trkpt>
      <trkpt lat="43.145156" lon="-2.181400">
        <ele>647.297</ele>
        <time>2021-03-21T09:14:56Z</time>
      </trkpt>
      <trkpt lat="43.145144" lon="-2.181435">
        <ele>647.894</ele>
        <time>2021-03-21T09:14:59Z</time>
      </trkpt>
      <trkpt lat="43.145131" lon="-2.181470">
        <ele>648.472</ele>
        <time>2021-03-21T09:15:00Z</time>
      </trkpt>
      <trkpt lat="43.145118" lon="-2.181502">
        <ele>649.072</ele>
        <time>2021-03-21T09:15:03Z</time>
      </trkpt>
      <trkpt lat="43.145102" lon="-2.181541">
        <ele>649.662</ele>
        <time>2021-03-21T09:15:05Z</time>
      </trkpt>
      <trkpt lat="43.145092" lon="-2.181579">
        <ele>650.299</ele>
        <time>2021-03-21T09:15:06Z</time>
      </trkpt>
      <trkpt lat="43.145079" lon="-2.181618">
        <ele>650.807</ele>
        <time>2021-03-21T09:15:08Z</time>
      </trkpt>
      <trkpt lat="43.145064" lon="-2.181649">
        <ele>651.227</ele>
        <time>2021-03-21T09:15:10Z</time>
      </trkpt>
      <trkpt lat="43.145048" lon="-2.181680">
        <ele>651.608</ele>
        <time>2021-03-21T09:15:12Z</time>
      </trkpt>
      <trkpt lat="43.145035" lon="-2.181717">
        <ele>652.165</ele>
        <time>2021-03-21T09:15:14Z</time>
      </trkpt>
      <trkpt lat="43.145021" lon="-2.181761">
        <ele>652.798</ele>
        <time>2021-03-21T09:15:17Z</time>
      </trkpt>
      <trkpt lat="43.145009" lon="-2.181798">
        <ele>653.061</ele>
        <time>2021-03-21T09:15:18Z</time>
      </trkpt>
      <trkpt lat="43.145001" lon="-2.181835">
        <ele>653.462</ele>
        <time>2021-03-21T09:15:20Z</time>
      </trkpt>
      <trkpt lat="43.144993" lon="-2.181873">
        <ele>653.839</ele>
        <time>2021-03-21T09:15:22Z</time>
      </trkpt>
      <trkpt lat="43.144988" lon="-2.181907">
        <ele>654.187</ele>
        <time>2021-03-21T09:15:24Z</time>
      </trkpt>
      <trkpt lat="43.144981" lon="-2.181939">
        <ele>654.387</ele>
        <time>2021-03-21T09:15:26Z</time>
      </trkpt>
      <trkpt lat="43.144975" lon="-2.181976">
        <ele>654.717</ele>
        <time>2021-03-21T09:15:28Z</time>
      </trkpt>
      <trkpt lat="43.144963" lon="-2.182032">
        <ele>655.317</ele>
        <time>2021-03-21T09:15:31Z</time>
      </trkpt>
      <trkpt lat="43.144953" lon="-2.182067">
        <ele>655.587</ele>
        <time>2021-03-21T09:15:34Z</time>
      </trkpt>
      <trkpt lat="43.144946" lon="-2.182106">
        <ele>655.915</ele>
        <time>2021-03-21T09:15:35Z</time>
      </trkpt>
      <trkpt lat="43.144935" lon="-2.182139">
        <ele>656.108</ele>
        <time>2021-03-21T09:15:38Z</time>
      </trkpt>
      <trkpt lat="43.144914" lon="-2.182211">
        <ele>656.427</ele>
        <time>2021-03-21T09:15:40Z</time>
      </trkpt>
      <trkpt lat="43.144906" lon="-2.182241">
        <ele>656.570</ele>
        <time>2021-03-21T09:15:42Z</time>
      </trkpt>
      <trkpt lat="43.144897" lon="-2.182270">
        <ele>656.463</ele>
        <time>2021-03-21T09:15:43Z</time>
      </trkpt>
      <trkpt lat="43.144888" lon="-2.182300">
        <ele>656.484</ele>
        <time>2021-03-21T09:15:44Z</time>
      </trkpt>
      <trkpt lat="43.144858" lon="-2.182366">
        <ele>655.931</ele>
        <time>2021-03-21T09:15:45Z</time>
      </trkpt>
      <trkpt lat="43.144839" lon="-2.182395">
        <ele>655.539</ele>
        <time>2021-03-21T09:15:46Z</time>
      </trkpt>
      <trkpt lat="43.144823" lon="-2.182424">
        <ele>655.259</ele>
        <time>2021-03-21T09:15:48Z</time>
      </trkpt>
      <trkpt lat="43.144809" lon="-2.182455">
        <ele>655.099</ele>
        <time>2021-03-21T09:15:49Z</time>
      </trkpt>
      <trkpt lat="43.144767" lon="-2.182544">
        <ele>654.065</ele>
        <time>2021-03-21T09:15:51Z</time>
      </trkpt>
      <trkpt lat="43.144736" lon="-2.182598">
        <ele>653.268</ele>
        <time>2021-03-21T09:15:53Z</time>
      </trkpt>
      <trkpt lat="43.144716" lon="-2.182626">
        <ele>652.814</ele>
        <time>2021-03-21T09:15:55Z</time>
      </trkpt>
      <trkpt lat="43.144671" lon="-2.182674">
        <ele>652.708</ele>
        <time>2021-03-21T09:15:56Z</time>
      </trkpt>
      <trkpt lat="43.144646" lon="-2.182702">
        <ele>652.822</ele>
        <time>2021-03-21T09:15:58Z</time>
      </trkpt>
      <trkpt lat="43.144623" lon="-2.182728">
        <ele>652.885</ele>
        <time>2021-03-21T09:15:59Z</time>
      </trkpt>
      <trkpt lat="43.144578" lon="-2.182779">
        <ele>653.098</ele>
        <time>2021-03-21T09:16:00Z</time>
      </trkpt>
      <trkpt lat="43.144556" lon="-2.182801">
        <ele>653.189</ele>
        <time>2021-03-21T09:16:01Z</time>
      </trkpt>
      <trkpt lat="43.144538" lon="-2.182827">
        <ele>653.366</ele>
        <time>2021-03-21T09:16:03Z</time>
      </trkpt>
      <trkpt lat="43.144500" lon="-2.182876">
        <ele>653.774</ele>
        <time>2021-03-21T09:16:04Z</time>
      </trkpt>
      <trkpt lat="43.144482" lon="-2.182899">
        <ele>654.054</ele>
        <time>2021-03-21T09:16:05Z</time>
      </trkpt>
      <trkpt lat="43.144444" lon="-2.182946">
        <ele>654.474</ele>
        <time>2021-03-21T09:16:07Z</time>
      </trkpt>
      <trkpt lat="43.144411" lon="-2.182986">
        <ele>654.719</ele>
        <time>2021-03-21T09:16:09Z</time>
      </trkpt>
      <trkpt lat="43.144381" lon="-2.183028">
        <ele>654.909</ele>
        <time>2021-03-21T09:16:11Z</time>
      </trkpt>
      <trkpt lat="43.144367" lon="-2.183055">
        <ele>655.219</ele>
        <time>2021-03-21T09:16:13Z</time>
      </trkpt>
      <trkpt lat="43.144352" lon="-2.183078">
        <ele>655.408</ele>
        <time>2021-03-21T09:16:14Z</time>
      </trkpt>
      <trkpt lat="43.144324" lon="-2.183125">
        <ele>655.727</ele>
        <time>2021-03-21T09:16:15Z</time>
      </trkpt>
      <trkpt lat="43.144314" lon="-2.183155">
        <ele>656.080</ele>
        <time>2021-03-21T09:16:16Z</time>
      </trkpt>
      <trkpt lat="43.144305" lon="-2.183176">
        <ele>656.283</ele>
        <time>2021-03-21T09:16:18Z</time>
      </trkpt>
      <trkpt lat="43.144287" lon="-2.183210">
        <ele>656.464</ele>
        <time>2021-03-21T09:16:20Z</time>
      </trkpt>
      <trkpt lat="43.144270" lon="-2.183242">
        <ele>656.651</ele>
        <time>2021-03-21T09:16:22Z</time>
      </trkpt>
      <trkpt lat="43.144261" lon="-2.183263">
        <ele>656.889</ele>
        <time>2021-03-21T09:16:24Z</time>
      </trkpt>
      <trkpt lat="43.144250" lon="-2.183301">
        <ele>657.149</ele>
        <time>2021-03-21T09:16:26Z</time>
      </trkpt>
      <trkpt lat="43.144235" lon="-2.183340">
        <ele>657.329</ele>
        <time>2021-03-21T09:16:29Z</time>
      </trkpt>
      <trkpt lat="43.144216" lon="-2.183371">
        <ele>657.585</ele>
        <time>2021-03-21T09:16:31Z</time>
      </trkpt>
      <trkpt lat="43.144202" lon="-2.183414">
        <ele>657.989</ele>
        <time>2021-03-21T09:16:32Z</time>
      </trkpt>
      <trkpt lat="43.144188" lon="-2.183455">
        <ele>658.217</ele>
        <time>2021-03-21T09:16:35Z</time>
      </trkpt>
      <trkpt lat="43.144172" lon="-2.183492">
        <ele>658.408</ele>
        <time>2021-03-21T09:16:36Z</time>
      </trkpt>
      <trkpt lat="43.144165" lon="-2.183534">
        <ele>658.964</ele>
        <time>2021-03-21T09:16:39Z</time>
      </trkpt>
      <trkpt lat="43.144166" lon="-2.183578">
        <ele>659.587</ele>
        <time>2021-03-21T09:16:41Z</time>
      </trkpt>
      <trkpt lat="43.144176" lon="-2.183618">
        <ele>660.360</ele>
        <time>2021-03-21T09:16:43Z</time>
      </trkpt>
      <trkpt lat="43.144184" lon="-2.183665">
        <ele>660.791</ele>
        <time>2021-03-21T09:16:44Z</time>
      </trkpt>
      <trkpt lat="43.144190" lon="-2.183691">
        <ele>660.948</ele>
        <time>2021-03-21T09:16:46Z</time>
      </trkpt>
      <trkpt lat="43.144194" lon="-2.183743">
        <ele>661.366</ele>
        <time>2021-03-21T09:16:48Z</time>
      </trkpt>
      <trkpt lat="43.144198" lon="-2.183792">
        <ele>661.626</ele>
        <time>2021-03-21T09:16:50Z</time>
      </trkpt>
      <trkpt lat="43.144201" lon="-2.183835">
        <ele>661.926</ele>
        <time>2021-03-21T09:16:52Z</time>
      </trkpt>
      <trkpt lat="43.144205" lon="-2.183882">
        <ele>662.234</ele>
        <time>2021-03-21T09:16:53Z</time>
      </trkpt>
      <trkpt lat="43.144205" lon="-2.183933">
        <ele>662.655</ele>
        <time>2021-03-21T09:16:55Z</time>
      </trkpt>
      <trkpt lat="43.144201" lon="-2.183977">
        <ele>662.710</ele>
        <time>2021-03-21T09:16:58Z</time>
      </trkpt>
      <trkpt lat="43.144193" lon="-2.184023">
        <ele>662.808</ele>
        <time>2021-03-21T09:17:00Z</time>
      </trkpt>
      <trkpt lat="43.144180" lon="-2.184070">
        <ele>662.739</ele>
        <time>2021-03-21T09:17:01Z</time>
      </trkpt>
      <trkpt lat="43.144158" lon="-2.184106">
        <ele>662.782</ele>
        <time>2021-03-21T09:17:03Z</time>
      </trkpt>
      <trkpt lat="43.144134" lon="-2.184138">
        <ele>663.285</ele>
        <time>2021-03-21T09:17:06Z</time>
      </trkpt>
      <trkpt lat="43.144108" lon="-2.184164">
        <ele>663.856</ele>
        <time>2021-03-21T09:17:08Z</time>
      </trkpt>
      <trkpt lat="43.144082" lon="-2.184178">
        <ele>664.463</ele>
        <time>2021-03-21T09:17:09Z</time>
      </trkpt>
      <trkpt lat="43.144058" lon="-2.184183">
        <ele>664.981</ele>
        <time>2021-03-21T09:17:12Z</time>
      </trkpt>
      <trkpt lat="43.144031" lon="-2.184182">
        <ele>665.331</ele>
        <time>2021-03-21T09:17:13Z</time>
      </trkpt>
      <trkpt lat="43.144004" lon="-2.184179">
        <ele>665.681</ele>
        <time>2021-03-21T09:17:15Z</time>
      </trkpt>
      <trkpt lat="43.143979" lon="-2.184170">
        <ele>665.884</ele>
        <time>2021-03-21T09:17:17Z</time>
      </trkpt>
      <trkpt lat="43.143951" lon="-2.184166">
        <ele>666.107</ele>
        <time>2021-03-21T09:17:20Z</time>
      </trkpt>
      <trkpt lat="43.143923" lon="-2.184167">
        <ele>666.517</ele>
        <time>2021-03-21T09:17:21Z</time>
      </trkpt>
      <trkpt lat="43.143894" lon="-2.184165">
        <ele>666.908</ele>
        <time>2021-03-21T09:17:23Z</time>
      </trkpt>
      <trkpt lat="43.143867" lon="-2.184159">
        <ele>667.384</ele>
        <time>2021-03-21T09:17:25Z</time>
      </trkpt>
      <trkpt lat="43.143839" lon="-2.184150">
        <ele>667.617</ele>
        <time>2021-03-21T09:17:27Z</time>
      </trkpt>
      <trkpt lat="43.143809" lon="-2.184150">
        <ele>668.180</ele>
        <time>2021-03-21T09:17:30Z</time>
      </trkpt>
      <trkpt lat="43.143783" lon="-2.184145">
        <ele>668.581</ele>
        <time>2021-03-21T09:17:32Z</time>
      </trkpt>
      <trkpt lat="43.143755" lon="-2.184149">
        <ele>669.198</ele>
        <time>2021-03-21T09:17:34Z</time>
      </trkpt>
      <trkpt lat="43.143729" lon="-2.184151">
        <ele>669.686</ele>
        <time>2021-03-21T09:17:35Z</time>
      </trkpt>
      <trkpt lat="43.143703" lon="-2.184156">
        <ele>670.236</ele>
        <time>2021-03-21T09:17:38Z</time>
      </trkpt>
      <trkpt lat="43.143675" lon="-2.184164">
        <ele>670.816</ele>
        <time>2021-03-21T09:17:40Z</time>
      </trkpt>
      <trkpt lat="43.143647" lon="-2.184173">
        <ele>671.527</ele>
        <time>2021-03-21T09:17:42Z</time>
      </trkpt>
      <trkpt lat="43.143618" lon="-2.184179">
        <ele>672.168</ele>
        <time>2021-03-21T09:17:43Z</time>
      </trkpt>
      <trkpt lat="43.143589" lon="-2.184191">
        <ele>672.414</ele>
        <time>2021-03-21T09:17:46Z</time>
      </trkpt>
      <trkpt lat="43.143560" lon="-2.184208">
        <ele>672.508</ele>
        <time>2021-03-21T09:17:48Z</time>
      </trkpt>
      <trkpt lat="43.143535" lon="-2.184232">
        <ele>672.828</ele>
        <time>2021-03-21T09:17:50Z</time>
      </trkpt>
      <trkpt lat="43.143511" lon="-2.184260">
        <ele>673.241</ele>
        <time>2021-03-21T09:17:52Z</time>
      </trkpt>
      <trkpt lat="43.143490" lon="-2.184295">
        <ele>673.744</ele>
        <time>2021-03-21T09:17:53Z</time>
      </trkpt>
      <trkpt lat="43.143474" lon="-2.184333">
        <ele>674.265</ele>
        <time>2021-03-21T09:17:56Z</time>
      </trkpt>
      <trkpt lat="43.143457" lon="-2.184370">
        <ele>674.782</ele>
        <time>2021-03-21T09:17:58Z</time>
      </trkpt>
      <trkpt lat="43.143433" lon="-2.184405">
        <ele>675.110</ele>
        <time>2021-03-21T09:18:00Z</time>
      </trkpt>
      <trkpt lat="43.143406" lon="-2.184448">
        <ele>675.620</ele>
        <time>2021-03-21T09:18:01Z</time>
      </trkpt>
      <trkpt lat="43.143376" lon="-2.184507">
        <ele>676.010</ele>
        <time>2021-03-21T09:18:03Z</time>
      </trkpt>
      <trkpt lat="43.143360" lon="-2.184534">
        <ele>676.241</ele>
        <time>2021-03-21T09:18:05Z</time>
      </trkpt>
      <trkpt lat="43.143326" lon="-2.184587">
        <ele>676.581</ele>
        <time>2021-03-21T09:18:06Z</time>
      </trkpt>
      <trkpt lat="43.143288" lon="-2.184631">
        <ele>676.609</ele>
        <time>2021-03-21T09:18:08Z</time>
      </trkpt>
      <trkpt lat="43.143248" lon="-2.184673">
        <ele>676.708</ele>
        <time>2021-03-21T09:18:10Z</time>
      </trkpt>
      <trkpt lat="43.143227" lon="-2.184695">
        <ele>676.910</ele>
        <time>2021-03-21T09:18:11Z</time>
      </trkpt>
      <trkpt lat="43.143182" lon="-2.184726">
        <ele>677.023</ele>
        <time>2021-03-21T09:18:13Z</time>
      </trkpt>
      <trkpt lat="43.143133" lon="-2.184752">
        <ele>677.126</ele>
        <time>2021-03-21T09:18:15Z</time>
      </trkpt>
      <trkpt lat="43.143087" lon="-2.184773">
        <ele>677.317</ele>
        <time>2021-03-21T09:18:17Z</time>
      </trkpt>
      <trkpt lat="43.143061" lon="-2.184783">
        <ele>677.344</ele>
        <time>2021-03-21T09:18:19Z</time>
      </trkpt>
      <trkpt lat="43.143013" lon="-2.184797">
        <ele>677.752</ele>
        <time>2021-03-21T09:18:20Z</time>
      </trkpt>
      <trkpt lat="43.142971" lon="-2.184812">
        <ele>678.012</ele>
        <time>2021-03-21T09:18:22Z</time>
      </trkpt>
      <trkpt lat="43.142931" lon="-2.184832">
        <ele>678.552</ele>
        <time>2021-03-21T09:18:24Z</time>
      </trkpt>
      <trkpt lat="43.142913" lon="-2.184843">
        <ele>678.768</ele>
        <time>2021-03-21T09:18:25Z</time>
      </trkpt>
      <trkpt lat="43.142895" lon="-2.184855">
        <ele>678.942</ele>
        <time>2021-03-21T09:18:27Z</time>
      </trkpt>
      <trkpt lat="43.142879" lon="-2.184872">
        <ele>679.226</ele>
        <time>2021-03-21T09:18:28Z</time>
      </trkpt>
      <trkpt lat="43.142845" lon="-2.184909">
        <ele>679.808</ele>
        <time>2021-03-21T09:18:29Z</time>
      </trkpt>
      <trkpt lat="43.142830" lon="-2.184928">
        <ele>680.162</ele>
        <time>2021-03-21T09:18:30Z</time>
      </trkpt>
      <trkpt lat="43.142813" lon="-2.184947">
        <ele>680.335</ele>
        <time>2021-03-21T09:18:32Z</time>
      </trkpt>
      <trkpt lat="43.142781" lon="-2.184984">
        <ele>680.838</ele>
        <time>2021-03-21T09:18:33Z</time>
      </trkpt>
      <trkpt lat="43.142766" lon="-2.185003">
        <ele>680.949</ele>
        <time>2021-03-21T09:18:35Z</time>
      </trkpt>
      <trkpt lat="43.142750" lon="-2.185022">
        <ele>681.276</ele>
        <time>2021-03-21T09:18:36Z</time>
      </trkpt>
      <trkpt lat="43.142733" lon="-2.185040">
        <ele>681.324</ele>
        <time>2021-03-21T09:18:37Z</time>
      </trkpt>
      <trkpt lat="43.142698" lon="-2.185076">
        <ele>681.614</ele>
        <time>2021-03-21T09:18:38Z</time>
      </trkpt>
      <trkpt lat="43.142679" lon="-2.185095">
        <ele>681.724</ele>
        <time>2021-03-21T09:18:39Z</time>
      </trkpt>
      <trkpt lat="43.142642" lon="-2.185128">
        <ele>681.884</ele>
        <time>2021-03-21T09:18:41Z</time>
      </trkpt>
      <trkpt lat="43.142605" lon="-2.185166">
        <ele>682.007</ele>
        <time>2021-03-21T09:18:43Z</time>
      </trkpt>
      <trkpt lat="43.142586" lon="-2.185179">
        <ele>681.917</ele>
        <time>2021-03-21T09:18:44Z</time>
      </trkpt>
      <trkpt lat="43.142546" lon="-2.185210">
        <ele>681.808</ele>
        <time>2021-03-21T09:18:46Z</time>
      </trkpt>
      <trkpt lat="43.142510" lon="-2.185243">
        <ele>681.794</ele>
        <time>2021-03-21T09:18:48Z</time>
      </trkpt>
      <trkpt lat="43.142497" lon="-2.185260">
        <ele>681.747</ele>
        <time>2021-03-21T09:18:50Z</time>
      </trkpt>
      <trkpt lat="43.142472" lon="-2.185286">
        <ele>682.220</ele>
        <time>2021-03-21T09:18:51Z</time>
      </trkpt>
      <trkpt lat="43.142445" lon="-2.185310">
        <ele>682.711</ele>
        <time>2021-03-21T09:18:54Z</time>
      </trkpt>
      <trkpt lat="43.142415" lon="-2.185329">
        <ele>683.168</ele>
        <time>2021-03-21T09:18:56Z</time>
      </trkpt>
      <trkpt lat="43.142385" lon="-2.185350">
        <ele>683.576</ele>
        <time>2021-03-21T09:18:58Z</time>
      </trkpt>
      <trkpt lat="43.142358" lon="-2.185374">
        <ele>683.936</ele>
        <time>2021-03-21T09:18:59Z</time>
      </trkpt>
      <trkpt lat="43.142332" lon="-2.185398">
        <ele>684.226</ele>
        <time>2021-03-21T09:19:02Z</time>
      </trkpt>
      <trkpt lat="43.142307" lon="-2.185423">
        <ele>684.662</ele>
        <time>2021-03-21T09:19:03Z</time>
      </trkpt>
      <trkpt lat="43.142282" lon="-2.185448">
        <ele>684.883</ele>
        <time>2021-03-21T09:19:05Z</time>
      </trkpt>
      <trkpt lat="43.142258" lon="-2.185474">
        <ele>685.111</ele>
        <time>2021-03-21T09:19:08Z</time>
      </trkpt>
      <trkpt lat="43.142235" lon="-2.185502">
        <ele>685.308</ele>
        <time>2021-03-21T09:19:10Z</time>
      </trkpt>
      <trkpt lat="43.142213" lon="-2.185534">
        <ele>685.672</ele>
        <time>2021-03-21T09:19:12Z</time>
      </trkpt>
      <trkpt lat="43.142193" lon="-2.185568">
        <ele>686.065</ele>
        <time>2021-03-21T09:19:13Z</time>
      </trkpt>
      <trkpt lat="43.142171" lon="-2.185601">
        <ele>686.548</ele>
        <time>2021-03-21T09:19:16Z</time>
      </trkpt>
      <trkpt lat="43.142152" lon="-2.185635">
        <ele>687.099</ele>
        <time>2021-03-21T09:19:18Z</time>
      </trkpt>
      <trkpt lat="43.142130" lon="-2.185667">
        <ele>687.436</ele>
        <time>2021-03-21T09:19:19Z</time>
      </trkpt>
      <trkpt lat="43.142107" lon="-2.185698">
        <ele>687.754</ele>
        <time>2021-03-21T09:19:21Z</time>
      </trkpt>
      <trkpt lat="43.142084" lon="-2.185728">
        <ele>687.954</ele>
        <time>2021-03-21T09:19:24Z</time>
      </trkpt>
      <trkpt lat="43.142062" lon="-2.185761">
        <ele>688.264</ele>
        <time>2021-03-21T09:19:25Z</time>
      </trkpt>
      <trkpt lat="43.142040" lon="-2.185793">
        <ele>688.362</ele>
        <time>2021-03-21T09:19:27Z</time>
      </trkpt>
      <trkpt lat="43.142016" lon="-2.185822">
        <ele>688.483</ele>
        <time>2021-03-21T09:19:29Z</time>
      </trkpt>
      <trkpt lat="43.141993" lon="-2.185852">
        <ele>688.411</ele>
        <time>2021-03-21T09:19:32Z</time>
      </trkpt>
      <trkpt lat="43.141969" lon="-2.185878">
        <ele>688.308</ele>
        <time>2021-03-21T09:19:33Z</time>
      </trkpt>
      <trkpt lat="43.141945" lon="-2.185904">
        <ele>688.332</ele>
        <time>2021-03-21T09:19:35Z</time>
      </trkpt>
      <trkpt lat="43.141921" lon="-2.185929">
        <ele>688.775</ele>
        <time>2021-03-21T09:19:38Z</time>
      </trkpt>
      <trkpt lat="43.141895" lon="-2.185953">
        <ele>689.138</ele>
        <time>2021-03-21T09:19:39Z</time>
      </trkpt>
      <trkpt lat="43.141869" lon="-2.185978">
        <ele>689.529</ele>
        <time>2021-03-21T09:19:41Z</time>
      </trkpt>
      <trkpt lat="43.141845" lon="-2.186005">
        <ele>689.846</ele>
        <time>2021-03-21T09:19:43Z</time>
      </trkpt>
      <trkpt lat="43.141821" lon="-2.186032">
        <ele>690.164</ele>
        <time>2021-03-21T09:19:46Z</time>
      </trkpt>
      <trkpt lat="43.141798" lon="-2.186059">
        <ele>690.344</ele>
        <time>2021-03-21T09:19:48Z</time>
      </trkpt>
      <trkpt lat="43.141775" lon="-2.186089">
        <ele>690.554</ele>
        <time>2021-03-21T09:19:50Z</time>
      </trkpt>
      <trkpt lat="43.141755" lon="-2.186122">
        <ele>690.846</ele>
        <time>2021-03-21T09:19:52Z</time>
      </trkpt>
      <trkpt lat="43.141733" lon="-2.186155">
        <ele>691.188</ele>
        <time>2021-03-21T09:19:54Z</time>
      </trkpt>
      <trkpt lat="43.141712" lon="-2.186192">
        <ele>691.516</ele>
        <time>2021-03-21T09:19:56Z</time>
      </trkpt>
      <trkpt lat="43.141695" lon="-2.186228">
        <ele>691.908</ele>
        <time>2021-03-21T09:19:57Z</time>
      </trkpt>
      <trkpt lat="43.141681" lon="-2.186264">
        <ele>692.310</ele>
        <time>2021-03-21T09:19:59Z</time>
      </trkpt>
      <trkpt lat="43.141663" lon="-2.186298">
        <ele>692.613</ele>
        <time>2021-03-21T09:20:02Z</time>
      </trkpt>
      <trkpt lat="43.141644" lon="-2.186332">
        <ele>692.686</ele>
        <time>2021-03-21T09:20:04Z</time>
      </trkpt>
      <trkpt lat="43.141625" lon="-2.186367">
        <ele>692.727</ele>
        <time>2021-03-21T09:20:06Z</time>
      </trkpt>
      <trkpt lat="43.141604" lon="-2.186400">
        <ele>692.654</ele>
        <time>2021-03-21T09:20:08Z</time>
      </trkpt>
      <trkpt lat="43.141587" lon="-2.186435">
        <ele>692.812</ele>
        <time>2021-03-21T09:20:10Z</time>
      </trkpt>
      <trkpt lat="43.141572" lon="-2.186473">
        <ele>693.192</ele>
        <time>2021-03-21T09:20:11Z</time>
      </trkpt>
      <trkpt lat="43.141559" lon="-2.186510">
        <ele>693.532</ele>
        <time>2021-03-21T09:20:13Z</time>
      </trkpt>
      <trkpt lat="43.141535" lon="-2.186563">
        <ele>694.133</ele>
        <time>2021-03-21T09:20:16Z</time>
      </trkpt>
      <trkpt lat="43.141521" lon="-2.186594">
        <ele>694.423</ele>
        <time>2021-03-21T09:20:18Z</time>
      </trkpt>
      <trkpt lat="43.141506" lon="-2.186624">
        <ele>694.815</ele>
        <time>2021-03-21T09:20:21Z</time>
      </trkpt>
      <trkpt lat="43.141490" lon="-2.186656">
        <ele>695.208</ele>
        <time>2021-03-21T09:20:22Z</time>
      </trkpt>
      <trkpt lat="43.141478" lon="-2.186689">
        <ele>695.729</ele>
        <time>2021-03-21T09:20:24Z</time>
      </trkpt>
      <trkpt lat="43.141462" lon="-2.186721">
        <ele>696.252</ele>
        <time>2021-03-21T09:20:26Z</time>
      </trkpt>
      <trkpt lat="43.141446" lon="-2.186751">
        <ele>696.645</ele>
        <time>2021-03-21T09:20:29Z</time>
      </trkpt>
      <trkpt lat="43.141427" lon="-2.186785">
        <ele>697.086</ele>
        <time>2021-03-21T09:20:31Z</time>
      </trkpt>
      <trkpt lat="43.141406" lon="-2.186810">
        <ele>697.353</ele>
        <time>2021-03-21T09:20:33Z</time>
      </trkpt>
      <trkpt lat="43.141373" lon="-2.186846">
        <ele>697.691</ele>
        <time>2021-03-21T09:20:35Z</time>
      </trkpt>
      <trkpt lat="43.141346" lon="-2.186876">
        <ele>697.821</ele>
        <time>2021-03-21T09:20:37Z</time>
      </trkpt>
      <trkpt lat="43.141325" lon="-2.186900">
        <ele>698.031</ele>
        <time>2021-03-21T09:20:39Z</time>
      </trkpt>
      <trkpt lat="43.141302" lon="-2.186924">
        <ele>698.393</ele>
        <time>2021-03-21T09:20:41Z</time>
      </trkpt>
      <trkpt lat="43.141276" lon="-2.186949">
        <ele>698.565</ele>
        <time>2021-03-21T09:20:44Z</time>
      </trkpt>
      <trkpt lat="43.141254" lon="-2.186973">
        <ele>698.821</ele>
        <time>2021-03-21T09:20:46Z</time>
      </trkpt>
      <trkpt lat="43.141235" lon="-2.186996">
        <ele>699.108</ele>
        <time>2021-03-21T09:20:48Z</time>
      </trkpt>
      <trkpt lat="43.141215" lon="-2.187022">
        <ele>699.585</ele>
        <time>2021-03-21T09:20:49Z</time>
      </trkpt>
      <trkpt lat="43.141193" lon="-2.187050">
        <ele>699.868</ele>
        <time>2021-03-21T09:20:52Z</time>
      </trkpt>
      <trkpt lat="43.141176" lon="-2.187083">
        <ele>700.481</ele>
        <time>2021-03-21T09:20:54Z</time>
      </trkpt>
      <trkpt lat="43.141163" lon="-2.187111">
        <ele>700.982</ele>
        <time>2021-03-21T09:20:56Z</time>
      </trkpt>
      <trkpt lat="43.141143" lon="-2.187142">
        <ele>701.459</ele>
        <time>2021-03-21T09:20:57Z</time>
      </trkpt>
      <trkpt lat="43.141120" lon="-2.187171">
        <ele>701.827</ele>
        <time>2021-03-21T09:20:59Z</time>
      </trkpt>
      <trkpt lat="43.141100" lon="-2.187204">
        <ele>702.217</ele>
        <time>2021-03-21T09:21:01Z</time>
      </trkpt>
      <trkpt lat="43.141080" lon="-2.187239">
        <ele>702.457</ele>
        <time>2021-03-21T09:21:04Z</time>
      </trkpt>
      <trkpt lat="43.141063" lon="-2.187271">
        <ele>702.469</ele>
        <time>2021-03-21T09:21:06Z</time>
      </trkpt>
      <trkpt lat="43.141045" lon="-2.187303">
        <ele>702.504</ele>
        <time>2021-03-21T09:21:08Z</time>
      </trkpt>
      <trkpt lat="43.141029" lon="-2.187336">
        <ele>702.624</ele>
        <time>2021-03-21T09:21:09Z</time>
      </trkpt>
      <trkpt lat="43.141018" lon="-2.187371">
        <ele>703.008</ele>
        <time>2021-03-21T09:21:12Z</time>
      </trkpt>
      <trkpt lat="43.141003" lon="-2.187406">
        <ele>703.392</ele>
        <time>2021-03-21T09:21:13Z</time>
      </trkpt>
      <trkpt lat="43.140990" lon="-2.187442">
        <ele>703.735</ele>
        <time>2021-03-21T09:21:15Z</time>
      </trkpt>
      <trkpt lat="43.140974" lon="-2.187479">
        <ele>704.148</ele>
        <time>2021-03-21T09:21:17Z</time>
      </trkpt>
      <trkpt lat="43.140959" lon="-2.187508">
        <ele>704.599</ele>
        <time>2021-03-21T09:21:19Z</time>
      </trkpt>
      <trkpt lat="43.140943" lon="-2.187532">
        <ele>704.746</ele>
        <time>2021-03-21T09:21:22Z</time>
      </trkpt>
      <trkpt lat="43.140924" lon="-2.187551">
        <ele>704.924</ele>
        <time>2021-03-21T09:21:23Z</time>
      </trkpt>
      <trkpt lat="43.140904" lon="-2.187575">
        <ele>705.174</ele>
        <time>2021-03-21T09:21:25Z</time>
      </trkpt>
      <trkpt lat="43.140891" lon="-2.187590">
        <ele>705.224</ele>
        <time>2021-03-21T09:21:27Z</time>
      </trkpt>
      <trkpt lat="43.140875" lon="-2.187613">
        <ele>705.574</ele>
        <time>2021-03-21T09:21:28Z</time>
      </trkpt>
      <trkpt lat="43.140853" lon="-2.187640">
        <ele>705.856</ele>
        <time>2021-03-21T09:21:30Z</time>
      </trkpt>
      <trkpt lat="43.140830" lon="-2.187668">
        <ele>706.121</ele>
        <time>2021-03-21T09:21:33Z</time>
      </trkpt>
      <trkpt lat="43.140810" lon="-2.187698">
        <ele>706.308</ele>
        <time>2021-03-21T09:21:34Z</time>
      </trkpt>
      <trkpt lat="43.140797" lon="-2.187719">
        <ele>706.523</ele>
        <time>2021-03-21T09:21:35Z</time>
      </trkpt>
      <trkpt lat="43.140786" lon="-2.187738">
        <ele>706.646</ele>
        <time>2021-03-21T09:21:36Z</time>
      </trkpt>
      <trkpt lat="43.140763" lon="-2.187766">
        <ele>706.739</ele>
        <time>2021-03-21T09:21:38Z</time>
      </trkpt>
      <trkpt lat="43.140746" lon="-2.187804">
        <ele>707.330</ele>
        <time>2021-03-21T09:21:41Z</time>
      </trkpt>
      <trkpt lat="43.140725" lon="-2.187835">
        <ele>707.697</ele>
        <time>2021-03-21T09:21:43Z</time>
      </trkpt>
      <trkpt lat="43.140701" lon="-2.187867">
        <ele>707.945</ele>
        <time>2021-03-21T09:21:44Z</time>
      </trkpt>
      <trkpt lat="43.140685" lon="-2.187901">
        <ele>708.535</ele>
        <time>2021-03-21T09:21:46Z</time>
      </trkpt>
      <trkpt lat="43.140669" lon="-2.187925">
        <ele>708.875</ele>
        <time>2021-03-21T09:21:48Z</time>
      </trkpt>
      <trkpt lat="43.140629" lon="-2.187964">
        <ele>709.081</ele>
        <time>2021-03-21T09:21:51Z</time>
      </trkpt>
      <trkpt lat="43.140600" lon="-2.187981">
        <ele>708.761</ele>
        <time>2021-03-21T09:21:53Z</time>
      </trkpt>
      <trkpt lat="43.140571" lon="-2.187999">
        <ele>708.617</ele>
        <time>2021-03-21T09:21:56Z</time>
      </trkpt>
      <trkpt lat="43.140542" lon="-2.188007">
        <ele>708.608</ele>
        <time>2021-03-21T09:21:57Z</time>
      </trkpt>
      <trkpt lat="43.140510" lon="-2.188011">
        <ele>709.024</ele>
        <time>2021-03-21T09:21:59Z</time>
      </trkpt>
      <trkpt lat="43.140482" lon="-2.188015">
        <ele>709.427</ele>
        <time>2021-03-21T09:22:01Z</time>
      </trkpt>
      <trkpt lat="43.140455" lon="-2.188022">
        <ele>709.980</ele>
        <time>2021-03-21T09:22:04Z</time>
      </trkpt>
      <trkpt lat="43.140430" lon="-2.188031">
        <ele>710.581</ele>
        <time>2021-03-21T09:22:06Z</time>
      </trkpt>
      <trkpt lat="43.140403" lon="-2.188039">
        <ele>711.078</ele>
        <time>2021-03-21T09:22:08Z</time>
      </trkpt>
      <trkpt lat="43.140361" lon="-2.188048">
        <ele>711.896</ele>
        <time>2021-03-21T09:22:10Z</time>
      </trkpt>
      <trkpt lat="43.140334" lon="-2.188060">
        <ele>712.546</ele>
        <time>2021-03-21T09:22:12Z</time>
      </trkpt>
      <trkpt lat="43.140304" lon="-2.188077">
        <ele>713.356</ele>
        <time>2021-03-21T09:22:15Z</time>
      </trkpt>
      <trkpt lat="43.140275" lon="-2.188090">
        <ele>714.054</ele>
        <time>2021-03-21T09:22:16Z</time>
      </trkpt>
      <trkpt lat="43.140250" lon="-2.188104">
        <ele>714.556</ele>
        <time>2021-03-21T09:22:18Z</time>
      </trkpt>
      <trkpt lat="43.140226" lon="-2.188122">
        <ele>715.111</ele>
        <time>2021-03-21T09:22:20Z</time>
      </trkpt>
      <trkpt lat="43.140202" lon="-2.188133">
        <ele>715.408</ele>
        <time>2021-03-21T09:22:22Z</time>
      </trkpt>
      <trkpt lat="43.140175" lon="-2.188141">
        <ele>715.731</ele>
        <time>2021-03-21T09:22:25Z</time>
      </trkpt>
      <trkpt lat="43.140148" lon="-2.188152">
        <ele>716.124</ele>
        <time>2021-03-21T09:22:27Z</time>
      </trkpt>
      <trkpt lat="43.140104" lon="-2.188180">
        <ele>716.947</ele>
        <time>2021-03-21T09:22:29Z</time>
      </trkpt>
      <trkpt lat="43.140081" lon="-2.188202">
        <ele>717.668</ele>
        <time>2021-03-21T09:22:31Z</time>
      </trkpt>
      <trkpt lat="43.140053" lon="-2.188216">
        <ele>718.045</ele>
        <time>2021-03-21T09:22:34Z</time>
      </trkpt>
      <trkpt lat="43.140027" lon="-2.188226">
        <ele>718.363</ele>
        <time>2021-03-21T09:22:35Z</time>
      </trkpt>
      <trkpt lat="43.139999" lon="-2.188237">
        <ele>718.663</ele>
        <time>2021-03-21T09:22:37Z</time>
      </trkpt>
      <trkpt lat="43.139977" lon="-2.188252">
        <ele>718.923</ele>
        <time>2021-03-21T09:22:39Z</time>
      </trkpt>
      <trkpt lat="43.139947" lon="-2.188273">
        <ele>719.316</ele>
        <time>2021-03-21T09:22:42Z</time>
      </trkpt>
      <trkpt lat="43.139915" lon="-2.188289">
        <ele>719.676</ele>
        <time>2021-03-21T09:22:44Z</time>
      </trkpt>
      <trkpt lat="43.139884" lon="-2.188306">
        <ele>719.913</ele>
        <time>2021-03-21T09:22:46Z</time>
      </trkpt>
      <trkpt lat="43.139855" lon="-2.188323">
        <ele>720.208</ele>
        <time>2021-03-21T09:22:48Z</time>
      </trkpt>
      <trkpt lat="43.139828" lon="-2.188340">
        <ele>720.597</ele>
        <time>2021-03-21T09:22:50Z</time>
      </trkpt>
      <trkpt lat="43.139799" lon="-2.188363">
        <ele>720.950</ele>
        <time>2021-03-21T09:22:52Z</time>
      </trkpt>
      <trkpt lat="43.139770" lon="-2.188381">
        <ele>721.253</ele>
        <time>2021-03-21T09:22:54Z</time>
      </trkpt>
      <trkpt lat="43.139740" lon="-2.188396">
        <ele>721.414</ele>
        <time>2021-03-21T09:22:55Z</time>
      </trkpt>
      <trkpt lat="43.139710" lon="-2.188412">
        <ele>721.721</ele>
        <time>2021-03-21T09:22:58Z</time>
      </trkpt>
      <trkpt lat="43.139682" lon="-2.188428">
        <ele>721.939</ele>
        <time>2021-03-21T09:23:00Z</time>
      </trkpt>
      <trkpt lat="43.139655" lon="-2.188445">
        <ele>722.229</ele>
        <time>2021-03-21T09:23:01Z</time>
      </trkpt>
      <trkpt lat="43.139630" lon="-2.188461">
        <ele>722.489</ele>
        <time>2021-03-21T09:23:03Z</time>
      </trkpt>
      <trkpt lat="43.139602" lon="-2.188476">
        <ele>722.697</ele>
        <time>2021-03-21T09:23:05Z</time>
      </trkpt>
      <trkpt lat="43.139573" lon="-2.188495">
        <ele>723.023</ele>
        <time>2021-03-21T09:23:07Z</time>
      </trkpt>
      <trkpt lat="43.139544" lon="-2.188513">
        <ele>723.225</ele>
        <time>2021-03-21T09:23:09Z</time>
      </trkpt>
      <trkpt lat="43.139517" lon="-2.188524">
        <ele>723.408</ele>
        <time>2021-03-21T09:23:12Z</time>
      </trkpt>
      <trkpt lat="43.139489" lon="-2.188539">
        <ele>723.655</ele>
        <time>2021-03-21T09:23:13Z</time>
      </trkpt>
      <trkpt lat="43.139465" lon="-2.188558">
        <ele>723.928</ele>
        <time>2021-03-21T09:23:15Z</time>
      </trkpt>
      <trkpt lat="43.139440" lon="-2.188572">
        <ele>724.231</ele>
        <time>2021-03-21T09:23:17Z</time>
      </trkpt>
      <trkpt lat="43.139418" lon="-2.188587">
        <ele>724.672</ele>
        <time>2021-03-21T09:23:20Z</time>
      </trkpt>
      <trkpt lat="43.139388" lon="-2.188599">
        <ele>724.939</ele>
        <time>2021-03-21T09:23:22Z</time>
      </trkpt>
      <trkpt lat="43.139353" lon="-2.188606">
        <ele>725.257</ele>
        <time>2021-03-21T09:23:24Z</time>
      </trkpt>
      <trkpt lat="43.139323" lon="-2.188613">
        <ele>725.587</ele>
        <time>2021-03-21T09:23:25Z</time>
      </trkpt>
      <trkpt lat="43.139294" lon="-2.188624">
        <ele>725.937</ele>
        <time>2021-03-21T09:23:27Z</time>
      </trkpt>
      <trkpt lat="43.139267" lon="-2.188633">
        <ele>726.271</ele>
        <time>2021-03-21T09:23:29Z</time>
      </trkpt>
      <trkpt lat="43.139235" lon="-2.188640">
        <ele>726.541</ele>
        <time>2021-03-21T09:23:31Z</time>
      </trkpt>
      <trkpt lat="43.139207" lon="-2.188645">
        <ele>726.715</ele>
        <time>2021-03-21T09:23:34Z</time>
      </trkpt>
      <trkpt lat="43.139184" lon="-2.188649">
        <ele>726.908</ele>
        <time>2021-03-21T09:23:36Z</time>
      </trkpt>
      <trkpt lat="43.139159" lon="-2.188646">
        <ele>727.093</ele>
        <time>2021-03-21T09:23:38Z</time>
      </trkpt>
      <trkpt lat="43.139132" lon="-2.188643">
        <ele>727.346</ele>
        <time>2021-03-21T09:23:39Z</time>
      </trkpt>
      <trkpt lat="43.139102" lon="-2.188640">
        <ele>727.739</ele>
        <time>2021-03-21T09:23:42Z</time>
      </trkpt>
      <trkpt lat="43.139072" lon="-2.188635">
        <ele>728.010</ele>
        <time>2021-03-21T09:23:44Z</time>
      </trkpt>
      <trkpt lat="43.139046" lon="-2.188633">
        <ele>728.417</ele>
        <time>2021-03-21T09:23:45Z</time>
      </trkpt>
      <trkpt lat="43.139021" lon="-2.188629">
        <ele>728.695</ele>
        <time>2021-03-21T09:23:47Z</time>
      </trkpt>
      <trkpt lat="43.138998" lon="-2.188622">
        <ele>728.845</ele>
        <time>2021-03-21T09:23:50Z</time>
      </trkpt>
      <trkpt lat="43.138969" lon="-2.188613">
        <ele>728.995</ele>
        <time>2021-03-21T09:23:52Z</time>
      </trkpt>
      <trkpt lat="43.138939" lon="-2.188608">
        <ele>729.233</ele>
        <time>2021-03-21T09:23:54Z</time>
      </trkpt>
      <trkpt lat="43.138910" lon="-2.188605">
        <ele>729.523</ele>
        <time>2021-03-21T09:23:55Z</time>
      </trkpt>
      <trkpt lat="43.138880" lon="-2.188608">
        <ele>730.015</ele>
        <time>2021-03-21T09:23:58Z</time>
      </trkpt>
      <trkpt lat="43.138855" lon="-2.188616">
        <ele>730.508</ele>
        <time>2021-03-21T09:24:00Z</time>
      </trkpt>
      <trkpt lat="43.138827" lon="-2.188628">
        <ele>731.239</ele>
        <time>2021-03-21T09:24:02Z</time>
      </trkpt>
      <trkpt lat="43.138796" lon="-2.188640">
        <ele>731.852</ele>
        <time>2021-03-21T09:24:04Z</time>
      </trkpt>
      <trkpt lat="43.138768" lon="-2.188650">
        <ele>732.315</ele>
        <time>2021-03-21T09:24:06Z</time>
      </trkpt>
      <trkpt lat="43.138738" lon="-2.188665">
        <ele>733.076</ele>
        <time>2021-03-21T09:24:08Z</time>
      </trkpt>
      <trkpt lat="43.138721" lon="-2.188673">
        <ele>733.343</ele>
        <time>2021-03-21T09:24:09Z</time>
      </trkpt>
      <trkpt lat="43.138692" lon="-2.188683">
        <ele>733.711</ele>
        <time>2021-03-21T09:24:11Z</time>
      </trkpt>
      <trkpt lat="43.138660" lon="-2.188698">
        <ele>734.341</ele>
        <time>2021-03-21T09:24:13Z</time>
      </trkpt>
      <trkpt lat="43.138643" lon="-2.188705">
        <ele>734.511</ele>
        <time>2021-03-21T09:24:14Z</time>
      </trkpt>
      <trkpt lat="43.138613" lon="-2.188718">
        <ele>734.977</ele>
        <time>2021-03-21T09:24:16Z</time>
      </trkpt>
      <trkpt lat="43.138583" lon="-2.188731">
        <ele>735.261</ele>
        <time>2021-03-21T09:24:17Z</time>
      </trkpt>
      <trkpt lat="43.138550" lon="-2.188743">
        <ele>735.527</ele>
        <time>2021-03-21T09:24:19Z</time>
      </trkpt>
      <trkpt lat="43.138520" lon="-2.188753">
        <ele>735.708</ele>
        <time>2021-03-21T09:24:22Z</time>
      </trkpt>
      <trkpt lat="43.138487" lon="-2.188764">
        <ele>736.083</ele>
        <time>2021-03-21T09:24:23Z</time>
      </trkpt>
      <trkpt lat="43.138459" lon="-2.188771">
        <ele>736.296</ele>
        <time>2021-03-21T09:24:25Z</time>
      </trkpt>
      <trkpt lat="43.138430" lon="-2.188780">
        <ele>736.479</ele>
        <time>2021-03-21T09:24:28Z</time>
      </trkpt>
      <trkpt lat="43.138398" lon="-2.188786">
        <ele>736.630</ele>
        <time>2021-03-21T09:24:29Z</time>
      </trkpt>
      <trkpt lat="43.138363" lon="-2.188790">
        <ele>736.827</ele>
        <time>2021-03-21T09:24:31Z</time>
      </trkpt>
      <trkpt lat="43.138316" lon="-2.188791">
        <ele>736.925</ele>
        <time>2021-03-21T09:24:33Z</time>
      </trkpt>
      <trkpt lat="43.138293" lon="-2.188790">
        <ele>737.075</ele>
        <time>2021-03-21T09:24:35Z</time>
      </trkpt>
      <trkpt lat="43.138243" lon="-2.188789">
        <ele>737.125</ele>
        <time>2021-03-21T09:24:36Z</time>
      </trkpt>
      <trkpt lat="43.138218" lon="-2.188790">
        <ele>737.272</ele>
        <time>2021-03-21T09:24:38Z</time>
      </trkpt>
      <trkpt lat="43.138191" lon="-2.188790">
        <ele>737.213</ele>
        <time>2021-03-21T09:24:39Z</time>
      </trkpt>
      <trkpt lat="43.138164" lon="-2.188789">
        <ele>737.314</ele>
        <time>2021-03-21T09:24:40Z</time>
      </trkpt>
      <trkpt lat="43.138139" lon="-2.188782">
        <ele>737.208</ele>
        <time>2021-03-21T09:24:41Z</time>
      </trkpt>
      <trkpt lat="43.138084" lon="-2.188769">
        <ele>737.253</ele>
        <time>2021-03-21T09:24:42Z</time>
      </trkpt>
      <trkpt lat="43.138031" lon="-2.188750">
        <ele>737.246</ele>
        <time>2021-03-21T09:24:44Z</time>
      </trkpt>
      <trkpt lat="43.138004" lon="-2.188738">
        <ele>737.339</ele>
        <time>2021-03-21T09:24:46Z</time>
      </trkpt>
      <trkpt lat="43.137947" lon="-2.188710">
        <ele>737.560</ele>
        <time>2021-03-21T09:24:47Z</time>
      </trkpt>
      <trkpt lat="43.137921" lon="-2.188697">
        <ele>737.597</ele>
        <time>2021-03-21T09:24:49Z</time>
      </trkpt>
      <trkpt lat="43.137896" lon="-2.188686">
        <ele>737.615</ele>
        <time>2021-03-21T09:24:50Z</time>
      </trkpt>
      <trkpt lat="43.137871" lon="-2.188673">
        <ele>737.745</ele>
        <time>2021-03-21T09:24:51Z</time>
      </trkpt>
      <trkpt lat="43.137848" lon="-2.188661">
        <ele>737.865</ele>
        <time>2021-03-21T09:24:52Z</time>
      </trkpt>
      <trkpt lat="43.137804" lon="-2.188626">
        <ele>737.979</ele>
        <time>2021-03-21T09:24:53Z</time>
      </trkpt>
      <trkpt lat="43.137768" lon="-2.188583">
        <ele>737.805</ele>
        <time>2021-03-21T09:24:55Z</time>
      </trkpt>
      <trkpt lat="43.137748" lon="-2.188559">
        <ele>737.725</ele>
        <time>2021-03-21T09:24:57Z</time>
      </trkpt>
      <trkpt lat="43.137728" lon="-2.188536">
        <ele>737.708</ele>
        <time>2021-03-21T09:24:58Z</time>
      </trkpt>
      <trkpt lat="43.137706" lon="-2.188516">
        <ele>737.733</ele>
        <time>2021-03-21T09:24:59Z</time>
      </trkpt>
      <trkpt lat="43.137682" lon="-2.188495">
        <ele>737.856</ele>
        <time>2021-03-21T09:25:00Z</time>
      </trkpt>
      <trkpt lat="43.137636" lon="-2.188458">
        <ele>737.829</ele>
        <time>2021-03-21T09:25:01Z</time>
      </trkpt>
      <trkpt lat="43.137588" lon="-2.188423">
        <ele>737.890</ele>
        <time>2021-03-21T09:25:03Z</time>
      </trkpt>
      <trkpt lat="43.137562" lon="-2.188413">
        <ele>737.937</ele>
        <time>2021-03-21T09:25:04Z</time>
      </trkpt>
      <trkpt lat="43.137536" lon="-2.188403">
        <ele>738.135</ele>
        <time>2021-03-21T09:25:06Z</time>
      </trkpt>
      <trkpt lat="43.137486" lon="-2.188387">
        <ele>738.255</ele>
        <time>2021-03-21T09:25:07Z</time>
      </trkpt>
      <trkpt lat="43.137460" lon="-2.188377">
        <ele>738.155</ele>
        <time>2021-03-21T09:25:09Z</time>
      </trkpt>
      <trkpt lat="43.137434" lon="-2.188368">
        <ele>738.026</ele>
        <time>2021-03-21T09:25:10Z</time>
      </trkpt>
      <trkpt lat="43.137408" lon="-2.188357">
        <ele>737.847</ele>
        <time>2021-03-21T09:25:11Z</time>
      </trkpt>
      <trkpt lat="43.137351" lon="-2.188338">
        <ele>737.611</ele>
        <time>2021-03-21T09:25:12Z</time>
      </trkpt>
      <trkpt lat="43.137294" lon="-2.188320">
        <ele>737.308</ele>
        <time>2021-03-21T09:25:14Z</time>
      </trkpt>
      <trkpt lat="43.137264" lon="-2.188316">
        <ele>737.438</ele>
        <time>2021-03-21T09:25:16Z</time>
      </trkpt>
      <trkpt lat="43.137235" lon="-2.188313">
        <ele>737.421</ele>
        <time>2021-03-21T09:25:17Z</time>
      </trkpt>
      <trkpt lat="43.137176" lon="-2.188310">
        <ele>737.074</ele>
        <time>2021-03-21T09:25:18Z</time>
      </trkpt>
      <trkpt lat="43.137117" lon="-2.188324">
        <ele>736.775</ele>
        <time>2021-03-21T09:25:20Z</time>
      </trkpt>
      <trkpt lat="43.137063" lon="-2.188346">
        <ele>736.592</ele>
        <time>2021-03-21T09:25:22Z</time>
      </trkpt>
      <trkpt lat="43.137037" lon="-2.188361">
        <ele>736.410</ele>
        <time>2021-03-21T09:25:24Z</time>
      </trkpt>
      <trkpt lat="43.136984" lon="-2.188394">
        <ele>736.130</ele>
        <time>2021-03-21T09:25:25Z</time>
      </trkpt>
      <trkpt lat="43.136958" lon="-2.188416">
        <ele>736.190</ele>
        <time>2021-03-21T09:25:26Z</time>
      </trkpt>
      <trkpt lat="43.136908" lon="-2.188464">
        <ele>735.985</ele>
        <time>2021-03-21T09:25:28Z</time>
      </trkpt>
      <trkpt lat="43.136883" lon="-2.188488">
        <ele>735.889</ele>
        <time>2021-03-21T09:25:29Z</time>
      </trkpt>
      <trkpt lat="43.136835" lon="-2.188534">
        <ele>735.417</ele>
        <time>2021-03-21T09:25:31Z</time>
      </trkpt>
      <trkpt lat="43.136811" lon="-2.188559">
        <ele>735.208</ele>
        <time>2021-03-21T09:25:33Z</time>
      </trkpt>
      <trkpt lat="43.136766" lon="-2.188613">
        <ele>734.814</ele>
        <time>2021-03-21T09:25:34Z</time>
      </trkpt>
      <trkpt lat="43.136742" lon="-2.188639">
        <ele>734.537</ele>
        <time>2021-03-21T09:25:36Z</time>
      </trkpt>
      <trkpt lat="43.136719" lon="-2.188668">
        <ele>734.260</ele>
        <time>2021-03-21T09:25:37Z</time>
      </trkpt>
      <trkpt lat="43.136696" lon="-2.188694">
        <ele>733.931</ele>
        <time>2021-03-21T09:25:38Z</time>
      </trkpt>
      <trkpt lat="43.136673" lon="-2.188722">
        <ele>733.598</ele>
        <time>2021-03-21T09:25:39Z</time>
      </trkpt>
      <trkpt lat="43.136650" lon="-2.188746">
        <ele>733.446</ele>
        <time>2021-03-21T09:25:40Z</time>
      </trkpt>
      <trkpt lat="43.136597" lon="-2.188777">
        <ele>733.256</ele>
        <time>2021-03-21T09:25:41Z</time>
      </trkpt>
      <trkpt lat="43.136567" lon="-2.188785">
        <ele>733.016</ele>
        <time>2021-03-21T09:25:43Z</time>
      </trkpt>
      <trkpt lat="43.136512" lon="-2.188789">
        <ele>732.753</ele>
        <time>2021-03-21T09:25:44Z</time>
      </trkpt>
      <trkpt lat="43.136484" lon="-2.188788">
        <ele>732.604</ele>
        <time>2021-03-21T09:25:46Z</time>
      </trkpt>
      <trkpt lat="43.136442" lon="-2.188765">
        <ele>732.314</ele>
        <time>2021-03-21T09:25:47Z</time>
      </trkpt>
      <trkpt lat="43.136427" lon="-2.188740">
        <ele>732.208</ele>
        <time>2021-03-21T09:25:49Z</time>
      </trkpt>
      <trkpt lat="43.136418" lon="-2.188707">
        <ele>732.171</ele>
        <time>2021-03-21T09:25:50Z</time>
      </trkpt>
      <trkpt lat="43.136407" lon="-2.188630">
        <ele>732.164</ele>
        <time>2021-03-21T09:25:51Z</time>
      </trkpt>
      <trkpt lat="43.136403" lon="-2.188595">
        <ele>732.017</ele>
        <time>2021-03-21T09:25:53Z</time>
      </trkpt>
      <trkpt lat="43.136396" lon="-2.188559">
        <ele>732.098</ele>
        <time>2021-03-21T09:25:54Z</time>
      </trkpt>
      <trkpt lat="43.136381" lon="-2.188494">
        <ele>732.115</ele>
        <time>2021-03-21T09:25:55Z</time>
      </trkpt>
      <trkpt lat="43.136376" lon="-2.188455">
        <ele>732.253</ele>
        <time>2021-03-21T09:25:57Z</time>
      </trkpt>
      <trkpt lat="43.136359" lon="-2.188382">
        <ele>732.493</ele>
        <time>2021-03-21T09:25:59Z</time>
      </trkpt>
      <trkpt lat="43.136350" lon="-2.188349">
        <ele>732.643</ele>
        <time>2021-03-21T09:26:00Z</time>
      </trkpt>
      <trkpt lat="43.136344" lon="-2.188318">
        <ele>732.724</ele>
        <time>2021-03-21T09:26:01Z</time>
      </trkpt>
      <trkpt lat="43.136335" lon="-2.188284">
        <ele>732.804</ele>
        <time>2021-03-21T09:26:02Z</time>
      </trkpt>
      <trkpt lat="43.136325" lon="-2.188214">
        <ele>733.114</ele>
        <time>2021-03-21T09:26:03Z</time>
      </trkpt>
      <trkpt lat="43.136323" lon="-2.188179">
        <ele>733.208</ele>
        <time>2021-03-21T09:26:04Z</time>
      </trkpt>
      <trkpt lat="43.136322" lon="-2.188109">
        <ele>733.458</ele>
        <time>2021-03-21T09:26:06Z</time>
      </trkpt>
      <trkpt lat="43.136314" lon="-2.188039">
        <ele>733.581</ele>
        <time>2021-03-21T09:26:08Z</time>
      </trkpt>
      <trkpt lat="43.136308" lon="-2.188005">
        <ele>733.524</ele>
        <time>2021-03-21T09:26:10Z</time>
      </trkpt>
      <trkpt lat="43.136304" lon="-2.187970">
        <ele>733.395</ele>
        <time>2021-03-21T09:26:11Z</time>
      </trkpt>
      <trkpt lat="43.136298" lon="-2.187934">
        <ele>733.242</ele>
        <time>2021-03-21T09:26:12Z</time>
      </trkpt>
      <trkpt lat="43.136288" lon="-2.187900">
        <ele>733.270</ele>
        <time>2021-03-21T09:26:13Z</time>
      </trkpt>
      <trkpt lat="43.136266" lon="-2.187838">
        <ele>733.210</ele>
        <time>2021-03-21T09:26:14Z</time>
      </trkpt>
      <trkpt lat="43.136255" lon="-2.187771">
        <ele>732.940</ele>
        <time>2021-03-21T09:26:16Z</time>
      </trkpt>
      <trkpt lat="43.136251" lon="-2.187736">
        <ele>732.881</ele>
        <time>2021-03-21T09:26:17Z</time>
      </trkpt>
      <trkpt lat="43.136228" lon="-2.187673">
        <ele>732.761</ele>
        <time>2021-03-21T09:26:19Z</time>
      </trkpt>
      <trkpt lat="43.136209" lon="-2.187647">
        <ele>732.817</ele>
        <time>2021-03-21T09:26:20Z</time>
      </trkpt>
      <trkpt lat="43.136188" lon="-2.187623">
        <ele>732.908</ele>
        <time>2021-03-21T09:26:22Z</time>
      </trkpt>
      <trkpt lat="43.136166" lon="-2.187604">
        <ele>733.174</ele>
        <time>2021-03-21T09:26:23Z</time>
      </trkpt>
      <trkpt lat="43.136119" lon="-2.187572">
        <ele>733.467</ele>
        <time>2021-03-21T09:26:24Z</time>
      </trkpt>
      <trkpt lat="43.136076" lon="-2.187540">
        <ele>733.430</ele>
        <time>2021-03-21T09:26:26Z</time>
      </trkpt>
      <trkpt lat="43.136028" lon="-2.187517">
        <ele>733.411</ele>
        <time>2021-03-21T09:26:28Z</time>
      </trkpt>
      <trkpt lat="43.136000" lon="-2.187509">
        <ele>733.598</ele>
        <time>2021-03-21T09:26:29Z</time>
      </trkpt>
      <trkpt lat="43.135945" lon="-2.187500">
        <ele>733.616</ele>
        <time>2021-03-21T09:26:31Z</time>
      </trkpt>
      <trkpt lat="43.135918" lon="-2.187496">
        <ele>733.636</ele>
        <time>2021-03-21T09:26:33Z</time>
      </trkpt>
      <trkpt lat="43.135893" lon="-2.187490">
        <ele>733.726</ele>
        <time>2021-03-21T09:26:34Z</time>
      </trkpt>
      <trkpt lat="43.135871" lon="-2.187484">
        <ele>733.768</ele>
        <time>2021-03-21T09:26:35Z</time>
      </trkpt>
      <trkpt lat="43.135845" lon="-2.187479">
        <ele>733.742</ele>
        <time>2021-03-21T09:26:36Z</time>
      </trkpt>
      <trkpt lat="43.135821" lon="-2.187477">
        <ele>733.726</ele>
        <time>2021-03-21T09:26:37Z</time>
      </trkpt>
      <trkpt lat="43.135797" lon="-2.187479">
        <ele>733.608</ele>
        <time>2021-03-21T09:26:38Z</time>
      </trkpt>
      <trkpt lat="43.135748" lon="-2.187492">
        <ele>733.682</ele>
        <time>2021-03-21T09:26:39Z</time>
      </trkpt>
      <trkpt lat="43.135724" lon="-2.187495">
        <ele>733.635</ele>
        <time>2021-03-21T09:26:41Z</time>
      </trkpt>
      <trkpt lat="43.135682" lon="-2.187489">
        <ele>733.358</ele>
        <time>2021-03-21T09:26:42Z</time>
      </trkpt>
      <trkpt lat="43.135664" lon="-2.187483">
        <ele>733.239</ele>
        <time>2021-03-21T09:26:43Z</time>
      </trkpt>
      <trkpt lat="43.135632" lon="-2.187473">
        <ele>733.096</ele>
        <time>2021-03-21T09:26:45Z</time>
      </trkpt>
      <trkpt lat="43.135604" lon="-2.187457">
        <ele>732.794</ele>
        <time>2021-03-21T09:26:47Z</time>
      </trkpt>
      <trkpt lat="43.135581" lon="-2.187457">
        <ele>732.664</ele>
        <time>2021-03-21T09:26:50Z</time>
      </trkpt>
      <trkpt lat="43.135555" lon="-2.187467">
        <ele>732.754</ele>
        <time>2021-03-21T09:26:52Z</time>
      </trkpt>
      <trkpt lat="43.135531" lon="-2.187489">
        <ele>733.579</ele>
        <time>2021-03-21T09:26:54Z</time>
      </trkpt>
      <trkpt lat="43.135506" lon="-2.187495">
        <ele>734.205</ele>
        <time>2021-03-21T09:26:55Z</time>
      </trkpt>
      <trkpt lat="43.135480" lon="-2.187488">
        <ele>734.825</ele>
        <time>2021-03-21T09:26:57Z</time>
      </trkpt>
      <trkpt lat="43.135457" lon="-2.187478">
        <ele>735.308</ele>
        <time>2021-03-21T09:27:00Z</time>
      </trkpt>
      <trkpt lat="43.135434" lon="-2.187471">
        <ele>735.853</ele>
        <time>2021-03-21T09:27:02Z</time>
      </trkpt>
      <trkpt lat="43.135410" lon="-2.187464">
        <ele>736.366</ele>
        <time>2021-03-21T09:27:03Z</time>
      </trkpt>
      <trkpt lat="43.135393" lon="-2.187447">
        <ele>736.699</ele>
        <time>2021-03-21T09:27:06Z</time>
      </trkpt>
      <trkpt lat="43.135377" lon="-2.187429">
        <ele>736.940</ele>
        <time>2021-03-21T09:27:08Z</time>
      </trkpt>
      <trkpt lat="43.135357" lon="-2.187408">
        <ele>737.237</ele>
        <time>2021-03-21T09:27:10Z</time>
      </trkpt>
      <trkpt lat="43.135339" lon="-2.187387">
        <ele>737.615</ele>
        <time>2021-03-21T09:27:12Z</time>
      </trkpt>
      <trkpt lat="43.135319" lon="-2.187361">
        <ele>737.915</ele>
        <time>2021-03-21T09:27:14Z</time>
      </trkpt>
      <trkpt lat="43.135296" lon="-2.187336">
        <ele>738.375</ele>
        <time>2021-03-21T09:27:16Z</time>
      </trkpt>
      <trkpt lat="43.135277" lon="-2.187309">
        <ele>738.712</ele>
        <time>2021-03-21T09:27:17Z</time>
      </trkpt>
      <trkpt lat="43.135259" lon="-2.187291">
        <ele>739.232</ele>
        <time>2021-03-21T09:27:19Z</time>
      </trkpt>
      <trkpt lat="43.135241" lon="-2.187269">
        <ele>739.605</ele>
        <time>2021-03-21T09:27:22Z</time>
      </trkpt>
      <trkpt lat="43.135223" lon="-2.187245">
        <ele>740.108</ele>
        <time>2021-03-21T09:27:24Z</time>
      </trkpt>
      <trkpt lat="43.135205" lon="-2.187224">
        <ele>740.667</ele>
        <time>2021-03-21T09:27:26Z</time>
      </trkpt>
      <trkpt lat="43.135188" lon="-2.187204">
        <ele>741.150</ele>
        <time>2021-03-21T09:27:27Z</time>
      </trkpt>
      <trkpt lat="43.135171" lon="-2.187181">
        <ele>741.583</ele>
        <time>2021-03-21T09:27:30Z</time>
      </trkpt>
      <trkpt lat="43.135157" lon="-2.187155">
        <ele>741.714</ele>
        <time>2021-03-21T09:27:32Z</time>
      </trkpt>
      <trkpt lat="43.135136" lon="-2.187130">
        <ele>742.341</ele>
        <time>2021-03-21T09:27:33Z</time>
      </trkpt>
      <trkpt lat="43.135120" lon="-2.187103">
        <ele>742.679</ele>
        <time>2021-03-21T09:27:35Z</time>
      </trkpt>
      <trkpt lat="43.135105" lon="-2.187076">
        <ele>743.049</ele>
        <time>2021-03-21T09:27:38Z</time>
      </trkpt>
      <trkpt lat="43.135091" lon="-2.187044">
        <ele>743.219</ele>
        <time>2021-03-21T09:27:39Z</time>
      </trkpt>
      <trkpt lat="43.135078" lon="-2.187012">
        <ele>743.554</ele>
        <time>2021-03-21T09:27:42Z</time>
      </trkpt>
      <trkpt lat="43.135063" lon="-2.186984">
        <ele>743.856</ele>
        <time>2021-03-21T09:27:43Z</time>
      </trkpt>
      <trkpt lat="43.135052" lon="-2.186957">
        <ele>744.011</ele>
        <time>2021-03-21T09:27:46Z</time>
      </trkpt>
      <trkpt lat="43.135044" lon="-2.186931">
        <ele>744.208</ele>
        <time>2021-03-21T09:27:48Z</time>
      </trkpt>
      <trkpt lat="43.135032" lon="-2.186897">
        <ele>744.571</ele>
        <time>2021-03-21T09:27:50Z</time>
      </trkpt>
      <trkpt lat="43.135017" lon="-2.186865">
        <ele>745.054</ele>
        <time>2021-03-21T09:27:51Z</time>
      </trkpt>
      <trkpt lat="43.135004" lon="-2.186835">
        <ele>745.417</ele>
        <time>2021-03-21T09:27:54Z</time>
      </trkpt>
      <trkpt lat="43.134991" lon="-2.186805">
        <ele>746.098</ele>
        <time>2021-03-21T09:27:56Z</time>
      </trkpt>
      <trkpt lat="43.134977" lon="-2.186773">
        <ele>746.665</ele>
        <time>2021-03-21T09:27:57Z</time>
      </trkpt>
      <trkpt lat="43.134966" lon="-2.186740">
        <ele>747.043</ele>
        <time>2021-03-21T09:28:00Z</time>
      </trkpt>
      <trkpt lat="43.134959" lon="-2.186708">
        <ele>747.213</ele>
        <time>2021-03-21T09:28:02Z</time>
      </trkpt>
      <trkpt lat="43.134950" lon="-2.186680">
        <ele>747.623</ele>
        <time>2021-03-21T09:28:04Z</time>
      </trkpt>
      <trkpt lat="43.134943" lon="-2.186651">
        <ele>747.727</ele>
        <time>2021-03-21T09:28:05Z</time>
      </trkpt>
      <trkpt lat="43.134934" lon="-2.186618">
        <ele>747.968</ele>
        <time>2021-03-21T09:28:08Z</time>
      </trkpt>
      <trkpt lat="43.134918" lon="-2.186584">
        <ele>748.514</ele>
        <time>2021-03-21T09:28:10Z</time>
      </trkpt>
      <trkpt lat="43.134904" lon="-2.186558">
        <ele>748.908</ele>
        <time>2021-03-21T09:28:11Z</time>
      </trkpt>
      <trkpt lat="43.134888" lon="-2.186526">
        <ele>749.458</ele>
        <time>2021-03-21T09:28:14Z</time>
      </trkpt>
      <trkpt lat="43.134876" lon="-2.186497">
        <ele>749.811</ele>
        <time>2021-03-21T09:28:16Z</time>
      </trkpt>
      <trkpt lat="43.134858" lon="-2.186468">
        <ele>750.484</ele>
        <time>2021-03-21T09:28:18Z</time>
      </trkpt>
      <trkpt lat="43.134851" lon="-2.186439">
        <ele>750.495</ele>
        <time>2021-03-21T09:28:20Z</time>
      </trkpt>
      <trkpt lat="43.134837" lon="-2.186410">
        <ele>750.892</ele>
        <time>2021-03-21T09:28:21Z</time>
      </trkpt>
      <trkpt lat="43.134823" lon="-2.186379">
        <ele>751.190</ele>
        <time>2021-03-21T09:28:24Z</time>
      </trkpt>
      <trkpt lat="43.134807" lon="-2.186345">
        <ele>751.190</ele>
        <time>2021-03-21T09:28:25Z</time>
      </trkpt>
      <trkpt lat="43.134790" lon="-2.186315">
        <ele>751.310</ele>
        <time>2021-03-21T09:28:27Z</time>
      </trkpt>
      <trkpt lat="43.134778" lon="-2.186293">
        <ele>751.417</ele>
        <time>2021-03-21T09:28:30Z</time>
      </trkpt>
      <trkpt lat="43.134758" lon="-2.186260">
        <ele>751.687</ele>
        <time>2021-03-21T09:28:31Z</time>
      </trkpt>
      <trkpt lat="43.134739" lon="-2.186232">
        <ele>751.915</ele>
        <time>2021-03-21T09:28:33Z</time>
      </trkpt>
      <trkpt lat="43.134717" lon="-2.186207">
        <ele>752.308</ele>
        <time>2021-03-21T09:28:35Z</time>
      </trkpt>
      <trkpt lat="43.134694" lon="-2.186191">
        <ele>753.047</ele>
        <time>2021-03-21T09:28:38Z</time>
      </trkpt>
      <trkpt lat="43.134679" lon="-2.186175">
        <ele>753.330</ele>
        <time>2021-03-21T09:28:39Z</time>
      </trkpt>
      <trkpt lat="43.134666" lon="-2.186159">
        <ele>753.593</ele>
        <time>2021-03-21T09:28:41Z</time>
      </trkpt>
      <trkpt lat="43.134642" lon="-2.186130">
        <ele>753.994</ele>
        <time>2021-03-21T09:28:43Z</time>
      </trkpt>
      <trkpt lat="43.134618" lon="-2.186101">
        <ele>754.231</ele>
        <time>2021-03-21T09:28:45Z</time>
      </trkpt>
      <trkpt lat="43.134595" lon="-2.186077">
        <ele>754.479</ele>
        <time>2021-03-21T09:28:46Z</time>
      </trkpt>
      <trkpt lat="43.134560" lon="-2.186029">
        <ele>754.399</ele>
        <time>2021-03-21T09:28:50Z</time>
      </trkpt>
      <trkpt lat="43.134541" lon="-2.186006">
        <ele>754.419</ele>
        <time>2021-03-21T09:28:51Z</time>
      </trkpt>
      <trkpt lat="43.134523" lon="-2.185988">
        <ele>754.683</ele>
        <time>2021-03-21T09:28:52Z</time>
      </trkpt>
      <trkpt lat="43.134505" lon="-2.185967">
        <ele>754.725</ele>
        <time>2021-03-21T09:28:53Z</time>
      </trkpt>
      <trkpt lat="43.134459" lon="-2.185922">
        <ele>755.217</ele>
        <time>2021-03-21T09:28:54Z</time>
      </trkpt>
      <trkpt lat="43.134438" lon="-2.185898">
        <ele>755.308</ele>
        <time>2021-03-21T09:28:56Z</time>
      </trkpt>
      <trkpt lat="43.134391" lon="-2.185857">
        <ele>755.534</ele>
        <time>2021-03-21T09:28:57Z</time>
      </trkpt>
      <trkpt lat="43.134371" lon="-2.185837">
        <ele>755.557</ele>
        <time>2021-03-21T09:28:59Z</time>
      </trkpt>
      <trkpt lat="43.134349" lon="-2.185818">
        <ele>755.690</ele>
        <time>2021-03-21T09:29:00Z</time>
      </trkpt>
      <trkpt lat="43.134305" lon="-2.185781">
        <ele>755.861</ele>
        <time>2021-03-21T09:29:01Z</time>
      </trkpt>
      <trkpt lat="43.134290" lon="-2.185760">
        <ele>755.798</ele>
        <time>2021-03-21T09:29:03Z</time>
      </trkpt>
      <trkpt lat="43.134273" lon="-2.185739">
        <ele>755.666</ele>
        <time>2021-03-21T09:29:04Z</time>
      </trkpt>
      <trkpt lat="43.134255" lon="-2.185718">
        <ele>755.626</ele>
        <time>2021-03-21T09:29:05Z</time>
      </trkpt>
      <trkpt lat="43.134208" lon="-2.185668">
        <ele>755.776</ele>
        <time>2021-03-21T09:29:06Z</time>
      </trkpt>
      <trkpt lat="43.134160" lon="-2.185609">
        <ele>755.792</ele>
        <time>2021-03-21T09:29:08Z</time>
      </trkpt>
      <trkpt lat="43.134110" lon="-2.185544">
        <ele>755.173</ele>
        <time>2021-03-21T09:29:10Z</time>
      </trkpt>
      <trkpt lat="43.134086" lon="-2.185514">
        <ele>754.920</ele>
        <time>2021-03-21T09:29:11Z</time>
      </trkpt>
      <trkpt lat="43.134037" lon="-2.185461">
        <ele>754.708</ele>
        <time>2021-03-21T09:29:13Z</time>
      </trkpt>
      <trkpt lat="43.133993" lon="-2.185410">
        <ele>754.465</ele>
        <time>2021-03-21T09:29:15Z</time>
      </trkpt>
      <trkpt lat="43.133971" lon="-2.185385">
        <ele>754.238</ele>
        <time>2021-03-21T09:29:17Z</time>
      </trkpt>
      <trkpt lat="43.133946" lon="-2.185361">
        <ele>754.121</ele>
        <time>2021-03-21T09:29:18Z</time>
      </trkpt>
      <trkpt lat="43.133894" lon="-2.185316">
        <ele>754.022</ele>
        <time>2021-03-21T09:29:19Z</time>
      </trkpt>
      <trkpt lat="43.133865" lon="-2.185293">
        <ele>753.789</ele>
        <time>2021-03-21T09:29:20Z</time>
      </trkpt>
      <trkpt lat="43.133836" lon="-2.185276">
        <ele>753.547</ele>
        <time>2021-03-21T09:29:21Z</time>
      </trkpt>
      <trkpt lat="43.133810" lon="-2.185262">
        <ele>753.417</ele>
        <time>2021-03-21T09:29:22Z</time>
      </trkpt>
      <trkpt lat="43.133762" lon="-2.185236">
        <ele>753.257</ele>
        <time>2021-03-21T09:29:24Z</time>
      </trkpt>
      <trkpt lat="43.133740" lon="-2.185221">
        <ele>753.147</ele>
        <time>2021-03-21T09:29:25Z</time>
      </trkpt>
      <trkpt lat="43.133691" lon="-2.185201">
        <ele>753.029</ele>
        <time>2021-03-21T09:29:27Z</time>
      </trkpt>
      <trkpt lat="43.133635" lon="-2.185176">
        <ele>752.821</ele>
        <time>2021-03-21T09:29:29Z</time>
      </trkpt>
      <trkpt lat="43.133604" lon="-2.185165">
        <ele>752.808</ele>
        <time>2021-03-21T09:29:31Z</time>
      </trkpt>
      <trkpt lat="43.133544" lon="-2.185140">
        <ele>752.470</ele>
        <time>2021-03-21T09:29:32Z</time>
      </trkpt>
      <trkpt lat="43.133514" lon="-2.185128">
        <ele>752.383</ele>
        <time>2021-03-21T09:29:34Z</time>
      </trkpt>
      <trkpt lat="43.133455" lon="-2.185101">
        <ele>752.026</ele>
        <time>2021-03-21T09:29:35Z</time>
      </trkpt>
      <trkpt lat="43.133426" lon="-2.185086">
        <ele>751.927</ele>
        <time>2021-03-21T09:29:37Z</time>
      </trkpt>
      <trkpt lat="43.133372" lon="-2.185054">
        <ele>751.614</ele>
        <time>2021-03-21T09:29:38Z</time>
      </trkpt>
      <trkpt lat="43.133346" lon="-2.185035">
        <ele>751.562</ele>
        <time>2021-03-21T09:29:39Z</time>
      </trkpt>
      <trkpt lat="43.133321" lon="-2.185017">
        <ele>751.532</ele>
        <time>2021-03-21T09:29:41Z</time>
      </trkpt>
      <trkpt lat="43.133297" lon="-2.184998">
        <ele>751.672</ele>
        <time>2021-03-21T09:29:42Z</time>
      </trkpt>
      <trkpt lat="43.133246" lon="-2.184955">
        <ele>751.469</ele>
        <time>2021-03-21T09:29:43Z</time>
      </trkpt>
      <trkpt lat="43.133223" lon="-2.184934">
        <ele>751.204</ele>
        <time>2021-03-21T09:29:45Z</time>
      </trkpt>
      <trkpt lat="43.133175" lon="-2.184896">
        <ele>751.024</ele>
        <time>2021-03-21T09:29:46Z</time>
      </trkpt>
      <trkpt lat="43.133155" lon="-2.184879">
        <ele>750.908</ele>
        <time>2021-03-21T09:29:47Z</time>
      </trkpt>
      <trkpt lat="43.133111" lon="-2.184846">
        <ele>750.722</ele>
        <time>2021-03-21T09:29:49Z</time>
      </trkpt>
      <trkpt lat="43.133087" lon="-2.184829">
        <ele>750.675</ele>
        <time>2021-03-21T09:29:51Z</time>
      </trkpt>
      <trkpt lat="43.133062" lon="-2.184807">
        <ele>750.378</ele>
        <time>2021-03-21T09:29:52Z</time>
      </trkpt>
      <trkpt lat="43.133014" lon="-2.184765">
        <ele>750.569</ele>
        <time>2021-03-21T09:29:53Z</time>
      </trkpt>
      <trkpt lat="43.132990" lon="-2.184742">
        <ele>750.646</ele>
        <time>2021-03-21T09:29:55Z</time>
      </trkpt>
      <trkpt lat="43.132969" lon="-2.184719">
        <ele>750.794</ele>
        <time>2021-03-21T09:29:56Z</time>
      </trkpt>
      <trkpt lat="43.132953" lon="-2.184703">
        <ele>750.974</ele>
        <time>2021-03-21T09:29:57Z</time>
      </trkpt>
      <trkpt lat="43.132936" lon="-2.184683">
        <ele>751.114</ele>
        <time>2021-03-21T09:29:58Z</time>
      </trkpt>
      <trkpt lat="43.132921" lon="-2.184659">
        <ele>751.151</ele>
        <time>2021-03-21T09:29:59Z</time>
      </trkpt>
      <trkpt lat="43.132904" lon="-2.184635">
        <ele>751.201</ele>
        <time>2021-03-21T09:30:00Z</time>
      </trkpt>
      <trkpt lat="43.132874" lon="-2.184601">
        <ele>751.511</ele>
        <time>2021-03-21T09:30:01Z</time>
      </trkpt>
      <trkpt lat="43.132847" lon="-2.184568">
        <ele>751.808</ele>
        <time>2021-03-21T09:30:04Z</time>
      </trkpt>
      <trkpt lat="43.132831" lon="-2.184552">
        <ele>752.191</ele>
        <time>2021-03-21T09:30:05Z</time>
      </trkpt>
      <trkpt lat="43.132819" lon="-2.184535">
        <ele>752.284</ele>
        <time>2021-03-21T09:30:06Z</time>
      </trkpt>
      <trkpt lat="43.132793" lon="-2.184492">
        <ele>752.327</ele>
        <time>2021-03-21T09:30:07Z</time>
      </trkpt>
      <trkpt lat="43.132776" lon="-2.184472">
        <ele>752.538</ele>
        <time>2021-03-21T09:30:08Z</time>
      </trkpt>
      <trkpt lat="43.132739" lon="-2.184434">
        <ele>752.695</ele>
        <time>2021-03-21T09:30:10Z</time>
      </trkpt>
      <trkpt lat="43.132721" lon="-2.184417">
        <ele>752.583</ele>
        <time>2021-03-21T09:30:11Z</time>
      </trkpt>
      <trkpt lat="43.132705" lon="-2.184398">
        <ele>752.493</ele>
        <time>2021-03-21T09:30:12Z</time>
      </trkpt>
      <trkpt lat="43.132690" lon="-2.184378">
        <ele>752.273</ele>
        <time>2021-03-21T09:30:14Z</time>
      </trkpt>
      <trkpt lat="43.132668" lon="-2.184359">
        <ele>752.297</ele>
        <time>2021-03-21T09:30:15Z</time>
      </trkpt>
      <trkpt lat="43.132626" lon="-2.184326">
        <ele>752.323</ele>
        <time>2021-03-21T09:30:16Z</time>
      </trkpt>
      <trkpt lat="43.132580" lon="-2.184298">
        <ele>752.625</ele>
        <time>2021-03-21T09:30:18Z</time>
      </trkpt>
      <trkpt lat="43.132537" lon="-2.184271">
        <ele>752.808</ele>
        <time>2021-03-21T09:30:20Z</time>
      </trkpt>
      <trkpt lat="43.132510" lon="-2.184259">
        <ele>753.195</ele>
        <time>2021-03-21T09:30:21Z</time>
      </trkpt>
      <trkpt lat="43.132485" lon="-2.184255">
        <ele>753.228</ele>
        <time>2021-03-21T09:30:23Z</time>
      </trkpt>
      <trkpt lat="43.132463" lon="-2.184249">
        <ele>753.111</ele>
        <time>2021-03-21T09:30:24Z</time>
      </trkpt>
      <trkpt lat="43.132441" lon="-2.184239">
        <ele>752.882</ele>
        <time>2021-03-21T09:30:25Z</time>
      </trkpt>
      <trkpt lat="43.132403" lon="-2.184218">
        <ele>752.289</ele>
        <time>2021-03-21T09:30:26Z</time>
      </trkpt>
      <trkpt lat="43.132371" lon="-2.184209">
        <ele>751.997</ele>
        <time>2021-03-21T09:30:29Z</time>
      </trkpt>
      <trkpt lat="43.132309" lon="-2.184188">
        <ele>751.177</ele>
        <time>2021-03-21T09:30:31Z</time>
      </trkpt>
      <trkpt lat="43.132280" lon="-2.184179">
        <ele>750.797</ele>
        <time>2021-03-21T09:30:33Z</time>
      </trkpt>
      <trkpt lat="43.132211" lon="-2.184161">
        <ele>749.896</ele>
        <time>2021-03-21T09:30:34Z</time>
      </trkpt>
      <trkpt lat="43.132153" lon="-2.184145">
        <ele>749.331</ele>
        <time>2021-03-21T09:30:36Z</time>
      </trkpt>
      <trkpt lat="43.132125" lon="-2.184133">
        <ele>748.924</ele>
        <time>2021-03-21T09:30:38Z</time>
      </trkpt>
      <trkpt lat="43.132099" lon="-2.184120">
        <ele>748.508</ele>
        <time>2021-03-21T09:30:39Z</time>
      </trkpt>
      <trkpt lat="43.132071" lon="-2.184104">
        <ele>748.045</ele>
        <time>2021-03-21T09:30:40Z</time>
      </trkpt>
      <trkpt lat="43.132013" lon="-2.184064">
        <ele>746.948</ele>
        <time>2021-03-21T09:30:41Z</time>
      </trkpt>
      <trkpt lat="43.131968" lon="-2.184025">
        <ele>745.811</ele>
        <time>2021-03-21T09:30:43Z</time>
      </trkpt>
      <trkpt lat="43.131920" lon="-2.183977">
        <ele>745.212</ele>
        <time>2021-03-21T09:30:46Z</time>
      </trkpt>
      <trkpt lat="43.131899" lon="-2.183947">
        <ele>744.929</ele>
        <time>2021-03-21T09:30:47Z</time>
      </trkpt>
      <trkpt lat="43.131877" lon="-2.183920">
        <ele>744.837</ele>
        <time>2021-03-21T09:30:48Z</time>
      </trkpt>
      <trkpt lat="43.131860" lon="-2.183891">
        <ele>744.567</ele>
        <time>2021-03-21T09:30:49Z</time>
      </trkpt>
      <trkpt lat="43.131821" lon="-2.183840">
        <ele>744.627</ele>
        <time>2021-03-21T09:30:50Z</time>
      </trkpt>
      <trkpt lat="43.131803" lon="-2.183821">
        <ele>744.775</ele>
        <time>2021-03-21T09:30:52Z</time>
      </trkpt>
      <trkpt lat="43.131788" lon="-2.183798">
        <ele>744.728</ele>
        <time>2021-03-21T09:30:53Z</time>
      </trkpt>
      <trkpt lat="43.131777" lon="-2.183774">
        <ele>744.520</ele>
        <time>2021-03-21T09:30:54Z</time>
      </trkpt>
      <trkpt lat="43.131761" lon="-2.183748">
        <ele>744.408</ele>
        <time>2021-03-21T09:30:55Z</time>
      </trkpt>
      <trkpt lat="43.131720" lon="-2.183702">
        <ele>744.683</ele>
        <time>2021-03-21T09:30:56Z</time>
      </trkpt>
      <trkpt lat="43.131701" lon="-2.183676">
        <ele>744.536</ele>
        <time>2021-03-21T09:30:57Z</time>
      </trkpt>
      <trkpt lat="43.131687" lon="-2.183650">
        <ele>744.319</ele>
        <time>2021-03-21T09:30:59Z</time>
      </trkpt>
      <trkpt lat="43.131666" lon="-2.183609">
        <ele>744.050</ele>
        <time>2021-03-21T09:31:01Z</time>
      </trkpt>
      <trkpt lat="43.131653" lon="-2.183590">
        <ele>744.447</ele>
        <time>2021-03-21T09:31:02Z</time>
      </trkpt>
      <trkpt lat="43.131629" lon="-2.183550">
        <ele>744.915</ele>
        <time>2021-03-21T09:31:04Z</time>
      </trkpt>
      <trkpt lat="43.131609" lon="-2.183509">
        <ele>745.385</ele>
        <time>2021-03-21T09:31:06Z</time>
      </trkpt>
      <trkpt lat="43.131591" lon="-2.183476">
        <ele>745.745</ele>
        <time>2021-03-21T09:31:07Z</time>
      </trkpt>
      <trkpt lat="43.131576" lon="-2.183456">
        <ele>746.082</ele>
        <time>2021-03-21T09:31:09Z</time>
      </trkpt>
      <trkpt lat="43.131546" lon="-2.183408">
        <ele>746.543</ele>
        <time>2021-03-21T09:31:10Z</time>
      </trkpt>
      <trkpt lat="43.131519" lon="-2.183362">
        <ele>746.917</ele>
        <time>2021-03-21T09:31:12Z</time>
      </trkpt>
      <trkpt lat="43.131504" lon="-2.183339">
        <ele>747.108</ele>
        <time>2021-03-21T09:31:14Z</time>
      </trkpt>
      <trkpt lat="43.131491" lon="-2.183317">
        <ele>747.334</ele>
        <time>2021-03-21T09:31:15Z</time>
      </trkpt>
      <trkpt lat="43.131456" lon="-2.183282">
        <ele>747.717</ele>
        <time>2021-03-21T09:31:16Z</time>
      </trkpt>
      <trkpt lat="43.131440" lon="-2.183261">
        <ele>747.930</ele>
        <time>2021-03-21T09:31:17Z</time>
      </trkpt>
      <trkpt lat="43.131402" lon="-2.183218">
        <ele>748.131</ele>
        <time>2021-03-21T09:31:19Z</time>
      </trkpt>
      <trkpt lat="43.131356" lon="-2.183188">
        <ele>747.998</ele>
        <time>2021-03-21T09:31:21Z</time>
      </trkpt>
      <trkpt lat="43.131298" lon="-2.183163">
        <ele>747.556</ele>
        <time>2021-03-21T09:31:23Z</time>
      </trkpt>
      <trkpt lat="43.131269" lon="-2.183154">
        <ele>747.336</ele>
        <time>2021-03-21T09:31:24Z</time>
      </trkpt>
      <trkpt lat="43.131242" lon="-2.183149">
        <ele>747.216</ele>
        <time>2021-03-21T09:31:26Z</time>
      </trkpt>
      <trkpt lat="43.131219" lon="-2.183147">
        <ele>747.155</ele>
        <time>2021-03-21T09:31:27Z</time>
      </trkpt>
      <trkpt lat="43.131169" lon="-2.183146">
        <ele>747.007</ele>
        <time>2021-03-21T09:31:28Z</time>
      </trkpt>
      <trkpt lat="43.131141" lon="-2.183149">
        <ele>747.117</ele>
        <time>2021-03-21T09:31:30Z</time>
      </trkpt>
      <trkpt lat="43.131075" lon="-2.183161">
        <ele>746.908</ele>
        <time>2021-03-21T09:31:31Z</time>
      </trkpt>
      <trkpt lat="43.131045" lon="-2.183165">
        <ele>746.621</ele>
        <time>2021-03-21T09:31:33Z</time>
      </trkpt>
      <trkpt lat="43.131021" lon="-2.183165">
        <ele>746.344</ele>
        <time>2021-03-21T09:31:34Z</time>
      </trkpt>
      <trkpt lat="43.130993" lon="-2.183167">
        <ele>746.047</ele>
        <time>2021-03-21T09:31:35Z</time>
      </trkpt>
      <trkpt lat="43.130958" lon="-2.183177">
        <ele>745.968</ele>
        <time>2021-03-21T09:31:36Z</time>
      </trkpt>
      <trkpt lat="43.130898" lon="-2.183184">
        <ele>745.465</ele>
        <time>2021-03-21T09:31:37Z</time>
      </trkpt>
      <trkpt lat="43.130863" lon="-2.183186">
        <ele>745.153</ele>
        <time>2021-03-21T09:31:39Z</time>
      </trkpt>
      <trkpt lat="43.130771" lon="-2.183210">
        <ele>744.823</ele>
        <time>2021-03-21T09:31:41Z</time>
      </trkpt>
      <trkpt lat="43.130737" lon="-2.183219">
        <ele>744.743</ele>
        <time>2021-03-21T09:31:42Z</time>
      </trkpt>
      <trkpt lat="43.130704" lon="-2.183224">
        <ele>744.628</ele>
        <time>2021-03-21T09:31:43Z</time>
      </trkpt>
      <trkpt lat="43.130675" lon="-2.183226">
        <ele>744.389</ele>
        <time>2021-03-21T09:31:45Z</time>
      </trkpt>
      <trkpt lat="43.130646" lon="-2.183234">
        <ele>744.317</ele>
        <time>2021-03-21T09:31:46Z</time>
      </trkpt>
      <trkpt lat="43.130587" lon="-2.183250">
        <ele>744.308</ele>
        <time>2021-03-21T09:31:47Z</time>
      </trkpt>
      <trkpt lat="43.130559" lon="-2.183265">
        <ele>744.698</ele>
        <time>2021-03-21T09:31:49Z</time>
      </trkpt>
      <trkpt lat="43.130530" lon="-2.183274">
        <ele>744.621</ele>
        <time>2021-03-21T09:31:50Z</time>
      </trkpt>
      <trkpt lat="43.130475" lon="-2.183300">
        <ele>744.784</ele>
        <time>2021-03-21T09:31:51Z</time>
      </trkpt>
      <trkpt lat="43.130455" lon="-2.183315">
        <ele>745.025</ele>
        <time>2021-03-21T09:31:53Z</time>
      </trkpt>
      <trkpt lat="43.130415" lon="-2.183329">
        <ele>744.882</ele>
        <time>2021-03-21T09:31:54Z</time>
      </trkpt>
      <trkpt lat="43.130380" lon="-2.183326">
        <ele>744.330</ele>
        <time>2021-03-21T09:31:57Z</time>
      </trkpt>
      <trkpt lat="43.130359" lon="-2.183320">
        <ele>743.880</ele>
        <time>2021-03-21T09:31:58Z</time>
      </trkpt>
      <trkpt lat="43.130306" lon="-2.183321">
        <ele>743.120</ele>
        <time>2021-03-21T09:31:59Z</time>
      </trkpt>
      <trkpt lat="43.130264" lon="-2.183347">
        <ele>742.926</ele>
        <time>2021-03-21T09:32:01Z</time>
      </trkpt>
      <trkpt lat="43.130236" lon="-2.183361">
        <ele>742.747</ele>
        <time>2021-03-21T09:32:02Z</time>
      </trkpt>
      <trkpt lat="43.130189" lon="-2.183393">
        <ele>742.211</ele>
        <time>2021-03-21T09:32:04Z</time>
      </trkpt>
      <trkpt lat="43.130146" lon="-2.183421">
        <ele>741.808</ele>
        <time>2021-03-21T09:32:06Z</time>
      </trkpt>
      <trkpt lat="43.130129" lon="-2.183440">
        <ele>741.688</ele>
        <time>2021-03-21T09:32:08Z</time>
      </trkpt>
      <trkpt lat="43.130083" lon="-2.183474">
        <ele>741.031</ele>
        <time>2021-03-21T09:32:09Z</time>
      </trkpt>
      <trkpt lat="43.130058" lon="-2.183488">
        <ele>740.634</ele>
        <time>2021-03-21T09:32:10Z</time>
      </trkpt>
      <trkpt lat="43.130034" lon="-2.183499">
        <ele>740.235</ele>
        <time>2021-03-21T09:32:11Z</time>
      </trkpt>
      <trkpt lat="43.130009" lon="-2.183510">
        <ele>739.852</ele>
        <time>2021-03-21T09:32:13Z</time>
      </trkpt>
      <trkpt lat="43.129986" lon="-2.183521">
        <ele>739.410</ele>
        <time>2021-03-21T09:32:14Z</time>
      </trkpt>
      <trkpt lat="43.129942" lon="-2.183537">
        <ele>738.780</ele>
        <time>2021-03-21T09:32:15Z</time>
      </trkpt>
      <trkpt lat="43.129922" lon="-2.183545">
        <ele>738.460</ele>
        <time>2021-03-21T09:32:17Z</time>
      </trkpt>
      <trkpt lat="43.129902" lon="-2.183554">
        <ele>738.246</ele>
        <time>2021-03-21T09:32:18Z</time>
      </trkpt>
      <trkpt lat="43.129853" lon="-2.183572">
        <ele>737.588</ele>
        <time>2021-03-21T09:32:19Z</time>
      </trkpt>
      <trkpt lat="43.129803" lon="-2.183582">
        <ele>736.816</ele>
        <time>2021-03-21T09:32:21Z</time>
      </trkpt>
      <trkpt lat="43.129780" lon="-2.183591">
        <ele>736.608</ele>
        <time>2021-03-21T09:32:23Z</time>
      </trkpt>
      <trkpt lat="43.129756" lon="-2.183600">
        <ele>736.380</ele>
        <time>2021-03-21T09:32:24Z</time>
      </trkpt>
      <trkpt lat="43.129728" lon="-2.183606">
        <ele>736.083</ele>
        <time>2021-03-21T09:32:25Z</time>
      </trkpt>
      <trkpt lat="43.129667" lon="-2.183623">
        <ele>735.176</ele>
        <time>2021-03-21T09:32:26Z</time>
      </trkpt>
      <trkpt lat="43.129640" lon="-2.183631">
        <ele>734.687</ele>
        <time>2021-03-21T09:32:28Z</time>
      </trkpt>
      <trkpt lat="43.129610" lon="-2.183634">
        <ele>734.244</ele>
        <time>2021-03-21T09:32:29Z</time>
      </trkpt>
      <trkpt lat="43.129552" lon="-2.183654">
        <ele>733.492</ele>
        <time>2021-03-21T09:32:30Z</time>
      </trkpt>
      <trkpt lat="43.129531" lon="-2.183659">
        <ele>733.142</ele>
        <time>2021-03-21T09:32:32Z</time>
      </trkpt>
      <trkpt lat="43.129508" lon="-2.183664">
        <ele>732.932</ele>
        <time>2021-03-21T09:32:33Z</time>
      </trkpt>
      <trkpt lat="43.129461" lon="-2.183669">
        <ele>732.482</ele>
        <time>2021-03-21T09:32:34Z</time>
      </trkpt>
      <trkpt lat="43.129437" lon="-2.183669">
        <ele>732.143</ele>
        <time>2021-03-21T09:32:35Z</time>
      </trkpt>
      <trkpt lat="43.129370" lon="-2.183673">
        <ele>731.417</ele>
        <time>2021-03-21T09:32:37Z</time>
      </trkpt>
      <trkpt lat="43.129335" lon="-2.183678">
        <ele>731.108</ele>
        <time>2021-03-21T09:32:38Z</time>
      </trkpt>
      <trkpt lat="43.129286" lon="-2.183681">
        <ele>730.724</ele>
        <time>2021-03-21T09:32:40Z</time>
      </trkpt>
      <trkpt lat="43.129251" lon="-2.183679">
        <ele>730.397</ele>
        <time>2021-03-21T09:32:42Z</time>
      </trkpt>
      <trkpt lat="43.129233" lon="-2.183677">
        <ele>730.160</ele>
        <time>2021-03-21T09:32:43Z</time>
      </trkpt>
      <trkpt lat="43.129188" lon="-2.183674">
        <ele>729.671</ele>
        <time>2021-03-21T09:32:45Z</time>
      </trkpt>
      <trkpt lat="43.129170" lon="-2.183675">
        <ele>729.458</ele>
        <time>2021-03-21T09:32:46Z</time>
      </trkpt>
      <trkpt lat="43.129136" lon="-2.183681">
        <ele>728.786</ele>
        <time>2021-03-21T09:32:48Z</time>
      </trkpt>
      <trkpt lat="43.129103" lon="-2.183691">
        <ele>728.126</ele>
        <time>2021-03-21T09:32:50Z</time>
      </trkpt>
      <trkpt lat="43.129082" lon="-2.183703">
        <ele>727.856</ele>
        <time>2021-03-21T09:32:52Z</time>
      </trkpt>
      <trkpt lat="43.129062" lon="-2.183712">
        <ele>727.669</ele>
        <time>2021-03-21T09:32:56Z</time>
      </trkpt>
      <trkpt lat="43.129037" lon="-2.183732">
        <ele>727.504</ele>
        <time>2021-03-21T09:33:01Z</time>
      </trkpt>
      <trkpt lat="43.129016" lon="-2.183744">
        <ele>727.324</ele>
        <time>2021-03-21T09:33:02Z</time>
      </trkpt>
      <trkpt lat="43.128998" lon="-2.183753">
        <ele>727.108</ele>
        <time>2021-03-21T09:33:04Z</time>
      </trkpt>
      <trkpt lat="43.128977" lon="-2.183767">
        <ele>727.162</ele>
        <time>2021-03-21T09:33:05Z</time>
      </trkpt>
      <trkpt lat="43.128939" lon="-2.183801">
        <ele>727.235</ele>
        <time>2021-03-21T09:33:06Z</time>
      </trkpt>
      <trkpt lat="43.128923" lon="-2.183818">
        <ele>727.448</ele>
        <time>2021-03-21T09:33:08Z</time>
      </trkpt>
      <trkpt lat="43.128907" lon="-2.183830">
        <ele>727.569</ele>
        <time>2021-03-21T09:33:09Z</time>
      </trkpt>
      <trkpt lat="43.128878" lon="-2.183850">
        <ele>727.466</ele>
        <time>2021-03-21T09:33:11Z</time>
      </trkpt>
      <trkpt lat="43.128854" lon="-2.183873">
        <ele>727.484</ele>
        <time>2021-03-21T09:33:12Z</time>
      </trkpt>
      <trkpt lat="43.128837" lon="-2.183888">
        <ele>727.374</ele>
        <time>2021-03-21T09:33:15Z</time>
      </trkpt>
      <trkpt lat="43.128813" lon="-2.183913">
        <ele>727.284</ele>
        <time>2021-03-21T09:33:18Z</time>
      </trkpt>
      <trkpt lat="43.128787" lon="-2.183935">
        <ele>727.067</ele>
        <time>2021-03-21T09:33:19Z</time>
      </trkpt>
      <trkpt lat="43.128765" lon="-2.183960">
        <ele>727.081</ele>
        <time>2021-03-21T09:33:22Z</time>
      </trkpt>
      <trkpt lat="43.128742" lon="-2.183999">
        <ele>727.419</ele>
        <time>2021-03-21T09:33:24Z</time>
      </trkpt>
      <trkpt lat="43.128716" lon="-2.184029">
        <ele>727.408</ele>
        <time>2021-03-21T09:33:26Z</time>
      </trkpt>
      <trkpt lat="43.128693" lon="-2.184055">
        <ele>727.452</ele>
        <time>2021-03-21T09:33:27Z</time>
      </trkpt>
      <trkpt lat="43.128647" lon="-2.184082">
        <ele>726.745</ele>
        <time>2021-03-21T09:33:30Z</time>
      </trkpt>
      <trkpt lat="43.128628" lon="-2.184089">
        <ele>726.378</ele>
        <time>2021-03-21T09:33:32Z</time>
      </trkpt>
      <trkpt lat="43.128608" lon="-2.184094">
        <ele>725.889</ele>
        <time>2021-03-21T09:33:33Z</time>
      </trkpt>
      <trkpt lat="43.128558" lon="-2.184107">
        <ele>724.936</ele>
        <time>2021-03-21T09:33:34Z</time>
      </trkpt>
      <trkpt lat="43.128534" lon="-2.184114">
        <ele>724.584</ele>
        <time>2021-03-21T09:33:35Z</time>
      </trkpt>
      <trkpt lat="43.128513" lon="-2.184126">
        <ele>724.414</ele>
        <time>2021-03-21T09:33:37Z</time>
      </trkpt>
      <trkpt lat="43.128498" lon="-2.184141">
        <ele>724.434</ele>
        <time>2021-03-21T09:33:38Z</time>
      </trkpt>
      <trkpt lat="43.128465" lon="-2.184164">
        <ele>724.218</ele>
        <time>2021-03-21T09:33:39Z</time>
      </trkpt>
      <trkpt lat="43.128447" lon="-2.184172">
        <ele>724.198</ele>
        <time>2021-03-21T09:33:41Z</time>
      </trkpt>
      <trkpt lat="43.128427" lon="-2.184183">
        <ele>723.917</ele>
        <time>2021-03-21T09:33:42Z</time>
      </trkpt>
      <trkpt lat="43.128385" lon="-2.184208">
        <ele>723.708</ele>
        <time>2021-03-21T09:33:43Z</time>
      </trkpt>
      <trkpt lat="43.128363" lon="-2.184221">
        <ele>723.537</ele>
        <time>2021-03-21T09:33:44Z</time>
      </trkpt>
      <trkpt lat="43.128340" lon="-2.184230">
        <ele>723.270</ele>
        <time>2021-03-21T09:33:45Z</time>
      </trkpt>
      <trkpt lat="43.128303" lon="-2.184236">
        <ele>723.133</ele>
        <time>2021-03-21T09:33:47Z</time>
      </trkpt>
      <trkpt lat="43.128278" lon="-2.184239">
        <ele>723.154</ele>
        <time>2021-03-21T09:33:49Z</time>
      </trkpt>
      <trkpt lat="43.128230" lon="-2.184243">
        <ele>723.031</ele>
        <time>2021-03-21T09:33:50Z</time>
      </trkpt>
      <trkpt lat="43.128182" lon="-2.184243">
        <ele>722.799</ele>
        <time>2021-03-21T09:33:52Z</time>
      </trkpt>
      <trkpt lat="43.128163" lon="-2.184235">
        <ele>722.569</ele>
        <time>2021-03-21T09:33:53Z</time>
      </trkpt>
      <trkpt lat="43.128143" lon="-2.184220">
        <ele>722.159</ele>
        <time>2021-03-21T09:33:54Z</time>
      </trkpt>
      <trkpt lat="43.128119" lon="-2.184205">
        <ele>721.767</ele>
        <time>2021-03-21T09:33:55Z</time>
      </trkpt>
      <trkpt lat="43.128096" lon="-2.184194">
        <ele>721.581</ele>
        <time>2021-03-21T09:33:56Z</time>
      </trkpt>
      <trkpt lat="43.128060" lon="-2.184168">
        <ele>721.019</ele>
        <time>2021-03-21T09:33:58Z</time>
      </trkpt>
      <trkpt lat="43.128043" lon="-2.184159">
        <ele>720.908</ele>
        <time>2021-03-21T09:34:00Z</time>
      </trkpt>
      <trkpt lat="43.128012" lon="-2.184125">
        <ele>720.612</ele>
        <time>2021-03-21T09:34:01Z</time>
      </trkpt>
      <trkpt lat="43.127970" lon="-2.184082">
        <ele>720.495</ele>
        <time>2021-03-21T09:34:03Z</time>
      </trkpt>
      <trkpt lat="43.127940" lon="-2.184067">
        <ele>720.648</ele>
        <time>2021-03-21T09:34:05Z</time>
      </trkpt>
      <trkpt lat="43.127912" lon="-2.184056">
        <ele>720.889</ele>
        <time>2021-03-21T09:34:06Z</time>
      </trkpt>
      <trkpt lat="43.127861" lon="-2.184037">
        <ele>721.476</ele>
        <time>2021-03-21T09:34:07Z</time>
      </trkpt>
      <trkpt lat="43.127806" lon="-2.184030">
        <ele>722.194</ele>
        <time>2021-03-21T09:34:09Z</time>
      </trkpt>
      <trkpt lat="43.127780" lon="-2.184031">
        <ele>722.494</ele>
        <time>2021-03-21T09:34:11Z</time>
      </trkpt>
      <trkpt lat="43.127753" lon="-2.184033">
        <ele>722.484</ele>
        <time>2021-03-21T09:34:12Z</time>
      </trkpt>
      <trkpt lat="43.127726" lon="-2.184038">
        <ele>722.421</ele>
        <time>2021-03-21T09:34:13Z</time>
      </trkpt>
      <trkpt lat="43.127697" lon="-2.184049">
        <ele>722.341</ele>
        <time>2021-03-21T09:34:14Z</time>
      </trkpt>
      <trkpt lat="43.127672" lon="-2.184064">
        <ele>722.205</ele>
        <time>2021-03-21T09:34:15Z</time>
      </trkpt>
      <trkpt lat="43.127650" lon="-2.184080">
        <ele>722.108</ele>
        <time>2021-03-21T09:34:16Z</time>
      </trkpt>
      <trkpt lat="43.127608" lon="-2.184098">
        <ele>722.158</ele>
        <time>2021-03-21T09:34:17Z</time>
      </trkpt>
      <trkpt lat="43.127584" lon="-2.184098">
        <ele>722.161</ele>
        <time>2021-03-21T09:34:18Z</time>
      </trkpt>
      <trkpt lat="43.127536" lon="-2.184129">
        <ele>722.014</ele>
        <time>2021-03-21T09:34:20Z</time>
      </trkpt>
      <trkpt lat="43.127491" lon="-2.184163">
        <ele>722.075</ele>
        <time>2021-03-21T09:34:22Z</time>
      </trkpt>
      <trkpt lat="43.127466" lon="-2.184174">
        <ele>721.922</ele>
        <time>2021-03-21T09:34:24Z</time>
      </trkpt>
      <trkpt lat="43.127422" lon="-2.184189">
        <ele>721.850</ele>
        <time>2021-03-21T09:34:25Z</time>
      </trkpt>
      <trkpt lat="43.127397" lon="-2.184196">
        <ele>721.730</ele>
        <time>2021-03-21T09:34:27Z</time>
      </trkpt>
      <trkpt lat="43.127370" lon="-2.184208">
        <ele>721.510</ele>
        <time>2021-03-21T09:34:28Z</time>
      </trkpt>
      <trkpt lat="43.127345" lon="-2.184217">
        <ele>721.464</ele>
        <time>2021-03-21T09:34:29Z</time>
      </trkpt>
      <trkpt lat="43.127294" lon="-2.184219">
        <ele>721.206</ele>
        <time>2021-03-21T09:34:30Z</time>
      </trkpt>
      <trkpt lat="43.127267" lon="-2.184210">
        <ele>721.116</ele>
        <time>2021-03-21T09:34:32Z</time>
      </trkpt>
      <trkpt lat="43.127243" lon="-2.184195">
        <ele>721.008</ele>
        <time>2021-03-21T09:34:33Z</time>
      </trkpt>
      <trkpt lat="43.127220" lon="-2.184169">
        <ele>720.952</ele>
        <time>2021-03-21T09:34:34Z</time>
      </trkpt>
      <trkpt lat="43.127199" lon="-2.184141">
        <ele>720.545</ele>
        <time>2021-03-21T09:34:35Z</time>
      </trkpt>
      <trkpt lat="43.127164" lon="-2.184082">
        <ele>720.098</ele>
        <time>2021-03-21T09:34:36Z</time>
      </trkpt>
      <trkpt lat="43.127143" lon="-2.184049">
        <ele>719.829</ele>
        <time>2021-03-21T09:34:37Z</time>
      </trkpt>
      <trkpt lat="43.127110" lon="-2.183994">
        <ele>719.656</ele>
        <time>2021-03-21T09:34:39Z</time>
      </trkpt>
      <trkpt lat="43.127074" lon="-2.183938">
        <ele>719.634</ele>
        <time>2021-03-21T09:34:41Z</time>
      </trkpt>
      <trkpt lat="43.127055" lon="-2.183911">
        <ele>719.614</ele>
        <time>2021-03-21T09:34:43Z</time>
      </trkpt>
      <trkpt lat="43.127018" lon="-2.183856">
        <ele>719.964</ele>
        <time>2021-03-21T09:34:44Z</time>
      </trkpt>
      <trkpt lat="43.126997" lon="-2.183828">
        <ele>720.174</ele>
        <time>2021-03-21T09:34:45Z</time>
      </trkpt>
      <trkpt lat="43.126975" lon="-2.183802">
        <ele>720.256</ele>
        <time>2021-03-21T09:34:46Z</time>
      </trkpt>
      <trkpt lat="43.126952" lon="-2.183776">
        <ele>720.321</ele>
        <time>2021-03-21T09:34:47Z</time>
      </trkpt>
      <trkpt lat="43.126931" lon="-2.183750">
        <ele>720.208</ele>
        <time>2021-03-21T09:34:49Z</time>
      </trkpt>
      <trkpt lat="43.126910" lon="-2.183727">
        <ele>719.983</ele>
        <time>2021-03-21T09:34:50Z</time>
      </trkpt>
      <trkpt lat="43.126890" lon="-2.183704">
        <ele>719.636</ele>
        <time>2021-03-21T09:34:51Z</time>
      </trkpt>
      <trkpt lat="43.126869" lon="-2.183678">
        <ele>719.499</ele>
        <time>2021-03-21T09:34:52Z</time>
      </trkpt>
      <trkpt lat="43.126850" lon="-2.183652">
        <ele>719.220</ele>
        <time>2021-03-21T09:34:53Z</time>
      </trkpt>
      <trkpt lat="43.126814" lon="-2.183594">
        <ele>718.857</ele>
        <time>2021-03-21T09:34:54Z</time>
      </trkpt>
      <trkpt lat="43.126795" lon="-2.183563">
        <ele>718.495</ele>
        <time>2021-03-21T09:34:55Z</time>
      </trkpt>
      <trkpt lat="43.126781" lon="-2.183532">
        <ele>718.125</ele>
        <time>2021-03-21T09:34:57Z</time>
      </trkpt>
      <trkpt lat="43.126762" lon="-2.183458">
        <ele>717.845</ele>
        <time>2021-03-21T09:34:58Z</time>
      </trkpt>
      <trkpt lat="43.126753" lon="-2.183420">
        <ele>717.623</ele>
        <time>2021-03-21T09:35:00Z</time>
      </trkpt>
      <trkpt lat="43.126745" lon="-2.183380">
        <ele>717.483</ele>
        <time>2021-03-21T09:35:01Z</time>
      </trkpt>
      <trkpt lat="43.126739" lon="-2.183339">
        <ele>717.311</ele>
        <time>2021-03-21T09:35:02Z</time>
      </trkpt>
      <trkpt lat="43.126724" lon="-2.183261">
        <ele>716.408</ele>
        <time>2021-03-21T09:35:03Z</time>
      </trkpt>
      <trkpt lat="43.126715" lon="-2.183224">
        <ele>715.898</ele>
        <time>2021-03-21T09:35:04Z</time>
      </trkpt>
      <trkpt lat="43.126708" lon="-2.183185">
        <ele>715.411</ele>
        <time>2021-03-21T09:35:06Z</time>
      </trkpt>
      <trkpt lat="43.126703" lon="-2.183147">
        <ele>714.924</ele>
        <time>2021-03-21T09:35:07Z</time>
      </trkpt>
      <trkpt lat="43.126699" lon="-2.183103">
        <ele>714.595</ele>
        <time>2021-03-21T09:35:08Z</time>
      </trkpt>
      <trkpt lat="43.126689" lon="-2.183026">
        <ele>713.712</ele>
        <time>2021-03-21T09:35:09Z</time>
      </trkpt>
      <trkpt lat="43.126684" lon="-2.182948">
        <ele>713.260</ele>
        <time>2021-03-21T09:35:11Z</time>
      </trkpt>
      <trkpt lat="43.126680" lon="-2.182909">
        <ele>712.950</ele>
        <time>2021-03-21T09:35:13Z</time>
      </trkpt>
      <trkpt lat="43.126676" lon="-2.182873">
        <ele>712.630</ele>
        <time>2021-03-21T09:35:14Z</time>
      </trkpt>
      <trkpt lat="43.126669" lon="-2.182839">
        <ele>712.326</ele>
        <time>2021-03-21T09:35:15Z</time>
      </trkpt>
      <trkpt lat="43.126664" lon="-2.182808">
        <ele>712.047</ele>
        <time>2021-03-21T09:35:16Z</time>
      </trkpt>
      <trkpt lat="43.126665" lon="-2.182784">
        <ele>712.011</ele>
        <time>2021-03-21T09:35:17Z</time>
      </trkpt>
      <trkpt lat="43.126673" lon="-2.182758">
        <ele>711.908</ele>
        <time>2021-03-21T09:35:19Z</time>
      </trkpt>
      <trkpt lat="43.126683" lon="-2.182722">
        <ele>711.758</ele>
        <time>2021-03-21T09:35:21Z</time>
      </trkpt>
      <trkpt lat="43.126696" lon="-2.182700">
        <ele>711.791</ele>
        <time>2021-03-21T09:35:23Z</time>
      </trkpt>
      <trkpt lat="43.126712" lon="-2.182686">
        <ele>711.884</ele>
        <time>2021-03-21T09:35:25Z</time>
      </trkpt>
      <trkpt lat="43.126694" lon="-2.182671">
        <ele>711.325</ele>
        <time>2021-03-21T09:35:30Z</time>
      </trkpt>
      <trkpt lat="43.126675" lon="-2.182676">
        <ele>711.092</ele>
        <time>2021-03-21T09:36:00Z</time>
      </trkpt>
      <trkpt lat="43.126658" lon="-2.182671">
        <ele>710.750</ele>
        <time>2021-03-21T09:37:19Z</time>
      </trkpt>
      <trkpt lat="43.126663" lon="-2.182694">
        <ele>711.030</ele>
        <time>2021-03-21T09:37:28Z</time>
      </trkpt>
      <trkpt lat="43.126670" lon="-2.182669">
        <ele>710.970</ele>
        <time>2021-03-21T09:37:46Z</time>
      </trkpt>
      <trkpt lat="43.126671" lon="-2.182693">
        <ele>711.248</ele>
        <time>2021-03-21T09:38:23Z</time>
      </trkpt>
      <trkpt lat="43.126654" lon="-2.182716">
        <ele>711.161</ele>
        <time>2021-03-21T09:38:28Z</time>
      </trkpt>
      <trkpt lat="43.126647" lon="-2.182738">
        <ele>711.217</ele>
        <time>2021-03-21T09:38:30Z</time>
      </trkpt>
      <trkpt lat="43.126649" lon="-2.182753">
        <ele>711.408</ele>
        <time>2021-03-21T09:38:35Z</time>
      </trkpt>
      <trkpt lat="43.126632" lon="-2.182773">
        <ele>711.220</ele>
        <time>2021-03-21T09:38:38Z</time>
      </trkpt>
      <trkpt lat="43.126613" lon="-2.182763">
        <ele>710.763</ele>
        <time>2021-03-21T09:38:50Z</time>
      </trkpt>
      <trkpt lat="43.126598" lon="-2.182741">
        <ele>710.386</ele>
        <time>2021-03-21T09:38:52Z</time>
      </trkpt>
      <trkpt lat="43.126587" lon="-2.182706">
        <ele>709.847</ele>
        <time>2021-03-21T09:38:54Z</time>
      </trkpt>
      <trkpt lat="43.126565" lon="-2.182675">
        <ele>709.214</ele>
        <time>2021-03-21T09:38:55Z</time>
      </trkpt>
      <trkpt lat="43.126549" lon="-2.182655">
        <ele>708.962</ele>
        <time>2021-03-21T09:38:57Z</time>
      </trkpt>
      <trkpt lat="43.126526" lon="-2.182635">
        <ele>708.552</ele>
        <time>2021-03-21T09:38:58Z</time>
      </trkpt>
      <trkpt lat="43.126499" lon="-2.182619">
        <ele>708.072</ele>
        <time>2021-03-21T09:38:59Z</time>
      </trkpt>
      <trkpt lat="43.126469" lon="-2.182613">
        <ele>707.631</ele>
        <time>2021-03-21T09:39:00Z</time>
      </trkpt>
      <trkpt lat="43.126442" lon="-2.182613">
        <ele>707.361</ele>
        <time>2021-03-21T09:39:01Z</time>
      </trkpt>
      <trkpt lat="43.126415" lon="-2.182614">
        <ele>706.907</ele>
        <time>2021-03-21T09:39:02Z</time>
      </trkpt>
      <trkpt lat="43.126394" lon="-2.182626">
        <ele>706.608</ele>
        <time>2021-03-21T09:39:03Z</time>
      </trkpt>
      <trkpt lat="43.126381" lon="-2.182646">
        <ele>706.559</ele>
        <time>2021-03-21T09:39:04Z</time>
      </trkpt>
      <trkpt lat="43.126366" lon="-2.182665">
        <ele>706.672</ele>
        <time>2021-03-21T09:39:05Z</time>
      </trkpt>
      <trkpt lat="43.126347" lon="-2.182672">
        <ele>706.735</ele>
        <time>2021-03-21T09:39:06Z</time>
      </trkpt>
      <trkpt lat="43.126323" lon="-2.182671">
        <ele>706.916</ele>
        <time>2021-03-21T09:39:07Z</time>
      </trkpt>
      <trkpt lat="43.126296" lon="-2.182671">
        <ele>707.173</ele>
        <time>2021-03-21T09:39:08Z</time>
      </trkpt>
      <trkpt lat="43.126267" lon="-2.182675">
        <ele>707.231</ele>
        <time>2021-03-21T09:39:09Z</time>
      </trkpt>
      <trkpt lat="43.126239" lon="-2.182683">
        <ele>707.481</ele>
        <time>2021-03-21T09:39:10Z</time>
      </trkpt>
      <trkpt lat="43.126213" lon="-2.182688">
        <ele>707.661</ele>
        <time>2021-03-21T09:39:11Z</time>
      </trkpt>
      <trkpt lat="43.126187" lon="-2.182697">
        <ele>707.751</ele>
        <time>2021-03-21T09:39:12Z</time>
      </trkpt>
      <trkpt lat="43.126162" lon="-2.182712">
        <ele>707.901</ele>
        <time>2021-03-21T09:39:13Z</time>
      </trkpt>
      <trkpt lat="43.126139" lon="-2.182730">
        <ele>708.011</ele>
        <time>2021-03-21T09:39:14Z</time>
      </trkpt>
      <trkpt lat="43.126117" lon="-2.182752">
        <ele>708.008</ele>
        <time>2021-03-21T09:39:15Z</time>
      </trkpt>
      <trkpt lat="43.126098" lon="-2.182771">
        <ele>708.321</ele>
        <time>2021-03-21T09:39:16Z</time>
      </trkpt>
      <trkpt lat="43.126065" lon="-2.182780">
        <ele>708.834</ele>
        <time>2021-03-21T09:39:18Z</time>
      </trkpt>
      <trkpt lat="43.126051" lon="-2.182803">
        <ele>708.927</ele>
        <time>2021-03-21T09:39:20Z</time>
      </trkpt>
      <trkpt lat="43.126036" lon="-2.182829">
        <ele>708.978</ele>
        <time>2021-03-21T09:39:25Z</time>
      </trkpt>
      <trkpt lat="43.126008" lon="-2.182849">
        <ele>709.225</ele>
        <time>2021-03-21T09:39:27Z</time>
      </trkpt>
      <trkpt lat="43.125987" lon="-2.182865">
        <ele>709.533</ele>
        <time>2021-03-21T09:39:29Z</time>
      </trkpt>
      <trkpt lat="43.125964" lon="-2.182880">
        <ele>709.783</ele>
        <time>2021-03-21T09:39:31Z</time>
      </trkpt>
      <trkpt lat="43.125936" lon="-2.182893">
        <ele>710.153</ele>
        <time>2021-03-21T09:39:33Z</time>
      </trkpt>
      <trkpt lat="43.125908" lon="-2.182909">
        <ele>710.494</ele>
        <time>2021-03-21T09:39:35Z</time>
      </trkpt>
      <trkpt lat="43.125881" lon="-2.182924">
        <ele>710.757</ele>
        <time>2021-03-21T09:39:37Z</time>
      </trkpt>
      <trkpt lat="43.125862" lon="-2.182931">
        <ele>710.922</ele>
        <time>2021-03-21T09:39:38Z</time>
      </trkpt>
      <trkpt lat="43.125842" lon="-2.182941">
        <ele>711.108</ele>
        <time>2021-03-21T09:39:39Z</time>
      </trkpt>
      <trkpt lat="43.125819" lon="-2.182952">
        <ele>711.375</ele>
        <time>2021-03-21T09:39:40Z</time>
      </trkpt>
      <trkpt lat="43.125793" lon="-2.182969">
        <ele>711.448</ele>
        <time>2021-03-21T09:39:41Z</time>
      </trkpt>
      <trkpt lat="43.125766" lon="-2.182985">
        <ele>711.681</ele>
        <time>2021-03-21T09:39:42Z</time>
      </trkpt>
      <trkpt lat="43.125742" lon="-2.183000">
        <ele>711.792</ele>
        <time>2021-03-21T09:39:43Z</time>
      </trkpt>
      <trkpt lat="43.125717" lon="-2.183014">
        <ele>711.849</ele>
        <time>2021-03-21T09:39:44Z</time>
      </trkpt>
      <trkpt lat="43.125693" lon="-2.183029">
        <ele>711.917</ele>
        <time>2021-03-21T09:39:45Z</time>
      </trkpt>
      <trkpt lat="43.125666" lon="-2.183044">
        <ele>712.097</ele>
        <time>2021-03-21T09:39:46Z</time>
      </trkpt>
      <trkpt lat="43.125641" lon="-2.183061">
        <ele>712.097</ele>
        <time>2021-03-21T09:39:47Z</time>
      </trkpt>
      <trkpt lat="43.125616" lon="-2.183078">
        <ele>711.943</ele>
        <time>2021-03-21T09:39:48Z</time>
      </trkpt>
      <trkpt lat="43.125591" lon="-2.183096">
        <ele>711.864</ele>
        <time>2021-03-21T09:39:49Z</time>
      </trkpt>
      <trkpt lat="43.125566" lon="-2.183113">
        <ele>711.710</ele>
        <time>2021-03-21T09:39:50Z</time>
      </trkpt>
      <trkpt lat="43.125540" lon="-2.183130">
        <ele>711.608</ele>
        <time>2021-03-21T09:39:51Z</time>
      </trkpt>
      <trkpt lat="43.125513" lon="-2.183145">
        <ele>711.710</ele>
        <time>2021-03-21T09:39:52Z</time>
      </trkpt>
      <trkpt lat="43.125487" lon="-2.183161">
        <ele>711.783</ele>
        <time>2021-03-21T09:39:53Z</time>
      </trkpt>
      <trkpt lat="43.125462" lon="-2.183175">
        <ele>711.956</ele>
        <time>2021-03-21T09:39:54Z</time>
      </trkpt>
      <trkpt lat="43.125437" lon="-2.183189">
        <ele>712.017</ele>
        <time>2021-03-21T09:39:55Z</time>
      </trkpt>
      <trkpt lat="43.125409" lon="-2.183202">
        <ele>712.344</ele>
        <time>2021-03-21T09:39:56Z</time>
      </trkpt>
      <trkpt lat="43.125382" lon="-2.183213">
        <ele>712.562</ele>
        <time>2021-03-21T09:39:57Z</time>
      </trkpt>
      <trkpt lat="43.125353" lon="-2.183224">
        <ele>712.972</ele>
        <time>2021-03-21T09:39:58Z</time>
      </trkpt>
      <trkpt lat="43.125325" lon="-2.183234">
        <ele>713.212</ele>
        <time>2021-03-21T09:39:59Z</time>
      </trkpt>
      <trkpt lat="43.125299" lon="-2.183242">
        <ele>713.617</ele>
        <time>2021-03-21T09:40:00Z</time>
      </trkpt>
      <trkpt lat="43.125270" lon="-2.183250">
        <ele>713.987</ele>
        <time>2021-03-21T09:40:01Z</time>
      </trkpt>
      <trkpt lat="43.125243" lon="-2.183255">
        <ele>713.915</ele>
        <time>2021-03-21T09:40:02Z</time>
      </trkpt>
      <trkpt lat="43.125217" lon="-2.183258">
        <ele>714.008</ele>
        <time>2021-03-21T09:40:03Z</time>
      </trkpt>
      <trkpt lat="43.125191" lon="-2.183261">
        <ele>714.027</ele>
        <time>2021-03-21T09:40:04Z</time>
      </trkpt>
      <trkpt lat="43.125167" lon="-2.183264">
        <ele>714.030</ele>
        <time>2021-03-21T09:40:05Z</time>
      </trkpt>
      <trkpt lat="43.125140" lon="-2.183269">
        <ele>714.193</ele>
        <time>2021-03-21T09:40:06Z</time>
      </trkpt>
      <trkpt lat="43.125110" lon="-2.183274">
        <ele>714.174</ele>
        <time>2021-03-21T09:40:07Z</time>
      </trkpt>
      <trkpt lat="43.125082" lon="-2.183278">
        <ele>714.251</ele>
        <time>2021-03-21T09:40:08Z</time>
      </trkpt>
      <trkpt lat="43.125055" lon="-2.183283">
        <ele>714.239</ele>
        <time>2021-03-21T09:40:09Z</time>
      </trkpt>
      <trkpt lat="43.125026" lon="-2.183285">
        <ele>714.349</ele>
        <time>2021-03-21T09:40:10Z</time>
      </trkpt>
      <trkpt lat="43.124999" lon="-2.183285">
        <ele>714.369</ele>
        <time>2021-03-21T09:40:11Z</time>
      </trkpt>
      <trkpt lat="43.124971" lon="-2.183285">
        <ele>714.347</ele>
        <time>2021-03-21T09:40:12Z</time>
      </trkpt>
      <trkpt lat="43.124941" lon="-2.183287">
        <ele>714.329</ele>
        <time>2021-03-21T09:40:13Z</time>
      </trkpt>
      <trkpt lat="43.124913" lon="-2.183291">
        <ele>714.321</ele>
        <time>2021-03-21T09:40:14Z</time>
      </trkpt>
      <trkpt lat="43.124888" lon="-2.183298">
        <ele>714.208</ele>
        <time>2021-03-21T09:40:15Z</time>
      </trkpt>
      <trkpt lat="43.124861" lon="-2.183305">
        <ele>714.210</ele>
        <time>2021-03-21T09:40:16Z</time>
      </trkpt>
      <trkpt lat="43.124809" lon="-2.183317">
        <ele>714.143</ele>
        <time>2021-03-21T09:40:17Z</time>
      </trkpt>
      <trkpt lat="43.124780" lon="-2.183322">
        <ele>714.066</ele>
        <time>2021-03-21T09:40:19Z</time>
      </trkpt>
      <trkpt lat="43.124751" lon="-2.183323">
        <ele>714.077</ele>
        <time>2021-03-21T09:40:20Z</time>
      </trkpt>
      <trkpt lat="43.124721" lon="-2.183318">
        <ele>714.084</ele>
        <time>2021-03-21T09:40:21Z</time>
      </trkpt>
      <trkpt lat="43.124691" lon="-2.183304">
        <ele>713.812</ele>
        <time>2021-03-21T09:40:22Z</time>
      </trkpt>
      <trkpt lat="43.124666" lon="-2.183285">
        <ele>713.672</ele>
        <time>2021-03-21T09:40:23Z</time>
      </trkpt>
      <trkpt lat="43.124642" lon="-2.183261">
        <ele>713.522</ele>
        <time>2021-03-21T09:40:24Z</time>
      </trkpt>
      <trkpt lat="43.124620" lon="-2.183232">
        <ele>713.469</ele>
        <time>2021-03-21T09:40:25Z</time>
      </trkpt>
      <trkpt lat="43.124600" lon="-2.183202">
        <ele>713.404</ele>
        <time>2021-03-21T09:40:26Z</time>
      </trkpt>
      <trkpt lat="43.124579" lon="-2.183169">
        <ele>713.424</ele>
        <time>2021-03-21T09:40:27Z</time>
      </trkpt>
      <trkpt lat="43.124557" lon="-2.183136">
        <ele>713.308</ele>
        <time>2021-03-21T09:40:28Z</time>
      </trkpt>
      <trkpt lat="43.124535" lon="-2.183107">
        <ele>713.342</ele>
        <time>2021-03-21T09:40:29Z</time>
      </trkpt>
      <trkpt lat="43.124513" lon="-2.183078">
        <ele>713.485</ele>
        <time>2021-03-21T09:40:30Z</time>
      </trkpt>
      <trkpt lat="43.124492" lon="-2.183053">
        <ele>713.428</ele>
        <time>2021-03-21T09:40:31Z</time>
      </trkpt>
      <trkpt lat="43.124471" lon="-2.183026">
        <ele>713.679</ele>
        <time>2021-03-21T09:40:32Z</time>
      </trkpt>
      <trkpt lat="43.124451" lon="-2.183000">
        <ele>713.886</ele>
        <time>2021-03-21T09:40:33Z</time>
      </trkpt>
      <trkpt lat="43.124433" lon="-2.182974">
        <ele>714.174</ele>
        <time>2021-03-21T09:40:34Z</time>
      </trkpt>
      <trkpt lat="43.124414" lon="-2.182951">
        <ele>714.474</ele>
        <time>2021-03-21T09:40:35Z</time>
      </trkpt>
      <trkpt lat="43.124394" lon="-2.182927">
        <ele>714.764</ele>
        <time>2021-03-21T09:40:36Z</time>
      </trkpt>
      <trkpt lat="43.124374" lon="-2.182908">
        <ele>714.976</ele>
        <time>2021-03-21T09:40:37Z</time>
      </trkpt>
      <trkpt lat="43.124351" lon="-2.182892">
        <ele>715.090</ele>
        <time>2021-03-21T09:40:38Z</time>
      </trkpt>
      <trkpt lat="43.124326" lon="-2.182880">
        <ele>715.019</ele>
        <time>2021-03-21T09:40:39Z</time>
      </trkpt>
      <trkpt lat="43.124302" lon="-2.182873">
        <ele>715.008</ele>
        <time>2021-03-21T09:40:40Z</time>
      </trkpt>
      <trkpt lat="43.124276" lon="-2.182869">
        <ele>714.923</ele>
        <time>2021-03-21T09:40:41Z</time>
      </trkpt>
      <trkpt lat="43.124250" lon="-2.182869">
        <ele>714.726</ele>
        <time>2021-03-21T09:40:42Z</time>
      </trkpt>
      <trkpt lat="43.124225" lon="-2.182872">
        <ele>714.699</ele>
        <time>2021-03-21T09:40:43Z</time>
      </trkpt>
      <trkpt lat="43.124199" lon="-2.182877">
        <ele>714.440</ele>
        <time>2021-03-21T09:40:44Z</time>
      </trkpt>
      <trkpt lat="43.124170" lon="-2.182884">
        <ele>714.237</ele>
        <time>2021-03-21T09:40:45Z</time>
      </trkpt>
      <trkpt lat="43.124143" lon="-2.182897">
        <ele>714.065</ele>
        <time>2021-03-21T09:40:46Z</time>
      </trkpt>
      <trkpt lat="43.124114" lon="-2.182908">
        <ele>713.935</ele>
        <time>2021-03-21T09:40:47Z</time>
      </trkpt>
      <trkpt lat="43.124084" lon="-2.182918">
        <ele>713.755</ele>
        <time>2021-03-21T09:40:48Z</time>
      </trkpt>
      <trkpt lat="43.124057" lon="-2.182928">
        <ele>713.613</ele>
        <time>2021-03-21T09:40:49Z</time>
      </trkpt>
      <trkpt lat="43.124031" lon="-2.182937">
        <ele>713.443</ele>
        <time>2021-03-21T09:40:50Z</time>
      </trkpt>
      <trkpt lat="43.123980" lon="-2.182965">
        <ele>713.207</ele>
        <time>2021-03-21T09:40:51Z</time>
      </trkpt>
      <trkpt lat="43.123955" lon="-2.182978">
        <ele>713.108</ele>
        <time>2021-03-21T09:40:53Z</time>
      </trkpt>
      <trkpt lat="43.123931" lon="-2.182991">
        <ele>713.127</ele>
        <time>2021-03-21T09:40:54Z</time>
      </trkpt>
      <trkpt lat="43.123907" lon="-2.183006">
        <ele>713.090</ele>
        <time>2021-03-21T09:40:55Z</time>
      </trkpt>
      <trkpt lat="43.123883" lon="-2.183020">
        <ele>713.083</ele>
        <time>2021-03-21T09:40:56Z</time>
      </trkpt>
      <trkpt lat="43.123830" lon="-2.183046">
        <ele>712.824</ele>
        <time>2021-03-21T09:40:57Z</time>
      </trkpt>
      <trkpt lat="43.123806" lon="-2.183059">
        <ele>712.721</ele>
        <time>2021-03-21T09:40:59Z</time>
      </trkpt>
      <trkpt lat="43.123784" lon="-2.183077">
        <ele>712.719</ele>
        <time>2021-03-21T09:41:00Z</time>
      </trkpt>
      <trkpt lat="43.123763" lon="-2.183097">
        <ele>712.629</ele>
        <time>2021-03-21T09:41:01Z</time>
      </trkpt>
      <trkpt lat="43.123742" lon="-2.183120">
        <ele>712.629</ele>
        <time>2021-03-21T09:41:02Z</time>
      </trkpt>
      <trkpt lat="43.123718" lon="-2.183139">
        <ele>712.612</ele>
        <time>2021-03-21T09:41:03Z</time>
      </trkpt>
      <trkpt lat="43.123693" lon="-2.183158">
        <ele>712.632</ele>
        <time>2021-03-21T09:41:04Z</time>
      </trkpt>
      <trkpt lat="43.123668" lon="-2.183177">
        <ele>712.605</ele>
        <time>2021-03-21T09:41:05Z</time>
      </trkpt>
      <trkpt lat="43.123643" lon="-2.183195">
        <ele>712.608</ele>
        <time>2021-03-21T09:41:06Z</time>
      </trkpt>
      <trkpt lat="43.123619" lon="-2.183210">
        <ele>712.637</ele>
        <time>2021-03-21T09:41:07Z</time>
      </trkpt>
      <trkpt lat="43.123598" lon="-2.183227">
        <ele>712.650</ele>
        <time>2021-03-21T09:41:08Z</time>
      </trkpt>
      <trkpt lat="43.123576" lon="-2.183241">
        <ele>712.783</ele>
        <time>2021-03-21T09:41:09Z</time>
      </trkpt>
      <trkpt lat="43.123552" lon="-2.183252">
        <ele>712.794</ele>
        <time>2021-03-21T09:41:10Z</time>
      </trkpt>
      <trkpt lat="43.123525" lon="-2.183262">
        <ele>712.761</ele>
        <time>2021-03-21T09:41:11Z</time>
      </trkpt>
      <trkpt lat="43.123498" lon="-2.183273">
        <ele>712.859</ele>
        <time>2021-03-21T09:41:12Z</time>
      </trkpt>
      <trkpt lat="43.123473" lon="-2.183285">
        <ele>712.849</ele>
        <time>2021-03-21T09:41:13Z</time>
      </trkpt>
      <trkpt lat="43.123451" lon="-2.183299">
        <ele>712.959</ele>
        <time>2021-03-21T09:41:14Z</time>
      </trkpt>
      <trkpt lat="43.123429" lon="-2.183312">
        <ele>712.924</ele>
        <time>2021-03-21T09:41:15Z</time>
      </trkpt>
      <trkpt lat="43.123408" lon="-2.183330">
        <ele>713.004</ele>
        <time>2021-03-21T09:41:16Z</time>
      </trkpt>
      <trkpt lat="43.123386" lon="-2.183348">
        <ele>713.014</ele>
        <time>2021-03-21T09:41:17Z</time>
      </trkpt>
      <trkpt lat="43.123362" lon="-2.183360">
        <ele>713.108</ele>
        <time>2021-03-21T09:41:18Z</time>
      </trkpt>
      <trkpt lat="43.123337" lon="-2.183366">
        <ele>713.198</ele>
        <time>2021-03-21T09:41:19Z</time>
      </trkpt>
      <trkpt lat="43.123315" lon="-2.183367">
        <ele>712.951</ele>
        <time>2021-03-21T09:41:20Z</time>
      </trkpt>
      <trkpt lat="43.123292" lon="-2.183365">
        <ele>712.774</ele>
        <time>2021-03-21T09:41:21Z</time>
      </trkpt>
      <trkpt lat="43.123270" lon="-2.183361">
        <ele>712.425</ele>
        <time>2021-03-21T09:41:22Z</time>
      </trkpt>
      <trkpt lat="43.123249" lon="-2.183353">
        <ele>712.242</ele>
        <time>2021-03-21T09:41:23Z</time>
      </trkpt>
      <trkpt lat="43.123225" lon="-2.183345">
        <ele>711.980</ele>
        <time>2021-03-21T09:41:24Z</time>
      </trkpt>
      <trkpt lat="43.123199" lon="-2.183337">
        <ele>711.670</ele>
        <time>2021-03-21T09:41:25Z</time>
      </trkpt>
      <trkpt lat="43.123171" lon="-2.183331">
        <ele>711.280</ele>
        <time>2021-03-21T09:41:26Z</time>
      </trkpt>
      <trkpt lat="43.123146" lon="-2.183326">
        <ele>711.075</ele>
        <time>2021-03-21T09:41:27Z</time>
      </trkpt>
      <trkpt lat="43.123126" lon="-2.183321">
        <ele>710.828</ele>
        <time>2021-03-21T09:41:28Z</time>
      </trkpt>
      <trkpt lat="43.123086" lon="-2.183316">
        <ele>710.320</ele>
        <time>2021-03-21T09:41:30Z</time>
      </trkpt>
      <trkpt lat="43.123066" lon="-2.183314">
        <ele>710.108</ele>
        <time>2021-03-21T09:41:31Z</time>
      </trkpt>
      <trkpt lat="43.123033" lon="-2.183307">
        <ele>709.693</ele>
        <time>2021-03-21T09:41:33Z</time>
      </trkpt>
      <trkpt lat="43.123008" lon="-2.183295">
        <ele>709.126</ele>
        <time>2021-03-21T09:41:35Z</time>
      </trkpt>
      <trkpt lat="43.122986" lon="-2.183284">
        <ele>708.719</ele>
        <time>2021-03-21T09:41:37Z</time>
      </trkpt>
      <trkpt lat="43.122966" lon="-2.183265">
        <ele>708.480</ele>
        <time>2021-03-21T09:41:39Z</time>
      </trkpt>
      <trkpt lat="43.122948" lon="-2.183247">
        <ele>708.167</ele>
        <time>2021-03-21T09:41:41Z</time>
      </trkpt>
      <trkpt lat="43.122926" lon="-2.183229">
        <ele>707.765</ele>
        <time>2021-03-21T09:41:43Z</time>
      </trkpt>
      <trkpt lat="43.122905" lon="-2.183210">
        <ele>707.335</ele>
        <time>2021-03-21T09:41:45Z</time>
      </trkpt>
      <trkpt lat="43.122881" lon="-2.183188">
        <ele>706.915</ele>
        <time>2021-03-21T09:41:47Z</time>
      </trkpt>
      <trkpt lat="43.122858" lon="-2.183165">
        <ele>706.453</ele>
        <time>2021-03-21T09:41:49Z</time>
      </trkpt>
      <trkpt lat="43.122837" lon="-2.183141">
        <ele>706.104</ele>
        <time>2021-03-21T09:41:51Z</time>
      </trkpt>
      <trkpt lat="43.122813" lon="-2.183113">
        <ele>705.614</ele>
        <time>2021-03-21T09:41:53Z</time>
      </trkpt>
      <trkpt lat="43.122791" lon="-2.183090">
        <ele>705.208</ele>
        <time>2021-03-21T09:41:55Z</time>
      </trkpt>
      <trkpt lat="43.122765" lon="-2.183069">
        <ele>705.081</ele>
        <time>2021-03-21T09:41:57Z</time>
      </trkpt>
      <trkpt lat="43.122740" lon="-2.183051">
        <ele>704.924</ele>
        <time>2021-03-21T09:41:59Z</time>
      </trkpt>
      <trkpt lat="43.122712" lon="-2.183039">
        <ele>704.837</ele>
        <time>2021-03-21T09:42:01Z</time>
      </trkpt>
      <trkpt lat="43.122683" lon="-2.183036">
        <ele>704.768</ele>
        <time>2021-03-21T09:42:03Z</time>
      </trkpt>
      <trkpt lat="43.122654" lon="-2.183040">
        <ele>704.665</ele>
        <time>2021-03-21T09:42:05Z</time>
      </trkpt>
      <trkpt lat="43.122629" lon="-2.183058">
        <ele>704.523</ele>
        <time>2021-03-21T09:42:07Z</time>
      </trkpt>
      <trkpt lat="43.122605" lon="-2.183081">
        <ele>704.313</ele>
        <time>2021-03-21T09:42:09Z</time>
      </trkpt>
      <trkpt lat="43.122583" lon="-2.183109">
        <ele>704.223</ele>
        <time>2021-03-21T09:42:11Z</time>
      </trkpt>
      <trkpt lat="43.122564" lon="-2.183139">
        <ele>704.041</ele>
        <time>2021-03-21T09:42:13Z</time>
      </trkpt>
      <trkpt lat="43.122549" lon="-2.183174">
        <ele>703.881</ele>
        <time>2021-03-21T09:42:15Z</time>
      </trkpt>
      <trkpt lat="43.122538" lon="-2.183213">
        <ele>703.609</ele>
        <time>2021-03-21T09:42:17Z</time>
      </trkpt>
      <trkpt lat="43.122527" lon="-2.183252">
        <ele>703.508</ele>
        <time>2021-03-21T09:42:19Z</time>
      </trkpt>
      <trkpt lat="43.122514" lon="-2.183291">
        <ele>703.250</ele>
        <time>2021-03-21T09:42:21Z</time>
      </trkpt>
      <trkpt lat="43.122503" lon="-2.183332">
        <ele>703.013</ele>
        <time>2021-03-21T09:42:23Z</time>
      </trkpt>
      <trkpt lat="43.122498" lon="-2.183373">
        <ele>702.866</ele>
        <time>2021-03-21T09:42:25Z</time>
      </trkpt>
      <trkpt lat="43.122497" lon="-2.183416">
        <ele>702.597</ele>
        <time>2021-03-21T09:42:27Z</time>
      </trkpt>
      <trkpt lat="43.122496" lon="-2.183457">
        <ele>702.244</ele>
        <time>2021-03-21T09:42:29Z</time>
      </trkpt>
      <trkpt lat="43.122491" lon="-2.183498">
        <ele>702.032</ele>
        <time>2021-03-21T09:42:31Z</time>
      </trkpt>
      <trkpt lat="43.122483" lon="-2.183540">
        <ele>701.912</ele>
        <time>2021-03-21T09:42:33Z</time>
      </trkpt>
      <trkpt lat="43.122471" lon="-2.183576">
        <ele>702.082</ele>
        <time>2021-03-21T09:42:35Z</time>
      </trkpt>
      <trkpt lat="43.122461" lon="-2.183613">
        <ele>702.078</ele>
        <time>2021-03-21T09:42:37Z</time>
      </trkpt>
      <trkpt lat="43.122444" lon="-2.183650">
        <ele>702.133</ele>
        <time>2021-03-21T09:42:39Z</time>
      </trkpt>
      <trkpt lat="43.122432" lon="-2.183670">
        <ele>702.226</ele>
        <time>2021-03-21T09:42:40Z</time>
      </trkpt>
      <trkpt lat="43.122419" lon="-2.183702">
        <ele>702.308</ele>
        <time>2021-03-21T09:42:42Z</time>
      </trkpt>
      <trkpt lat="43.122408" lon="-2.183735">
        <ele>702.373</ele>
        <time>2021-03-21T09:42:44Z</time>
      </trkpt>
      <trkpt lat="43.122394" lon="-2.183773">
        <ele>702.356</ele>
        <time>2021-03-21T09:42:46Z</time>
      </trkpt>
      <trkpt lat="43.122383" lon="-2.183808">
        <ele>702.289</ele>
        <time>2021-03-21T09:42:48Z</time>
      </trkpt>
      <trkpt lat="43.122370" lon="-2.183848">
        <ele>702.280</ele>
        <time>2021-03-21T09:42:50Z</time>
      </trkpt>
      <trkpt lat="43.122354" lon="-2.183886">
        <ele>702.237</ele>
        <time>2021-03-21T09:42:52Z</time>
      </trkpt>
      <trkpt lat="43.122342" lon="-2.183917">
        <ele>702.045</ele>
        <time>2021-03-21T09:42:54Z</time>
      </trkpt>
      <trkpt lat="43.122327" lon="-2.183949">
        <ele>701.875</ele>
        <time>2021-03-21T09:42:56Z</time>
      </trkpt>
      <trkpt lat="43.122312" lon="-2.183982">
        <ele>701.565</ele>
        <time>2021-03-21T09:42:58Z</time>
      </trkpt>
      <trkpt lat="43.122289" lon="-2.184017">
        <ele>701.294</ele>
        <time>2021-03-21T09:43:00Z</time>
      </trkpt>
      <trkpt lat="43.122266" lon="-2.184050">
        <ele>700.957</ele>
        <time>2021-03-21T09:43:02Z</time>
      </trkpt>
      <trkpt lat="43.122245" lon="-2.184082">
        <ele>700.622</ele>
        <time>2021-03-21T09:43:04Z</time>
      </trkpt>
      <trkpt lat="43.122225" lon="-2.184111">
        <ele>700.208</ele>
        <time>2021-03-21T09:43:06Z</time>
      </trkpt>
      <trkpt lat="43.122202" lon="-2.184137">
        <ele>700.265</ele>
        <time>2021-03-21T09:43:08Z</time>
      </trkpt>
      <trkpt lat="43.122170" lon="-2.184163">
        <ele>700.488</ele>
        <time>2021-03-21T09:43:10Z</time>
      </trkpt>
      <trkpt lat="43.122153" lon="-2.184177">
        <ele>700.511</ele>
        <time>2021-03-21T09:43:11Z</time>
      </trkpt>
      <trkpt lat="43.122132" lon="-2.184196">
        <ele>700.632</ele>
        <time>2021-03-21T09:43:12Z</time>
      </trkpt>
      <trkpt lat="43.122110" lon="-2.184214">
        <ele>700.719</ele>
        <time>2021-03-21T09:43:13Z</time>
      </trkpt>
      <trkpt lat="43.122086" lon="-2.184235">
        <ele>700.747</ele>
        <time>2021-03-21T09:43:14Z</time>
      </trkpt>
      <trkpt lat="43.122063" lon="-2.184255">
        <ele>700.797</ele>
        <time>2021-03-21T09:43:15Z</time>
      </trkpt>
      <trkpt lat="43.122038" lon="-2.184275">
        <ele>700.837</ele>
        <time>2021-03-21T09:43:16Z</time>
      </trkpt>
      <trkpt lat="43.122010" lon="-2.184295">
        <ele>700.942</ele>
        <time>2021-03-21T09:43:17Z</time>
      </trkpt>
      <trkpt lat="43.121984" lon="-2.184313">
        <ele>700.922</ele>
        <time>2021-03-21T09:43:18Z</time>
      </trkpt>
      <trkpt lat="43.121956" lon="-2.184330">
        <ele>701.114</ele>
        <time>2021-03-21T09:43:19Z</time>
      </trkpt>
      <trkpt lat="43.121932" lon="-2.184347">
        <ele>701.008</ele>
        <time>2021-03-21T09:43:20Z</time>
      </trkpt>
      <trkpt lat="43.121907" lon="-2.184362">
        <ele>701.010</ele>
        <time>2021-03-21T09:43:21Z</time>
      </trkpt>
      <trkpt lat="43.121880" lon="-2.184374">
        <ele>701.233</ele>
        <time>2021-03-21T09:43:22Z</time>
      </trkpt>
      <trkpt lat="43.121852" lon="-2.184391">
        <ele>701.236</ele>
        <time>2021-03-21T09:43:23Z</time>
      </trkpt>
      <trkpt lat="43.121828" lon="-2.184406">
        <ele>701.237</ele>
        <time>2021-03-21T09:43:24Z</time>
      </trkpt>
      <trkpt lat="43.121803" lon="-2.184423">
        <ele>701.284</ele>
        <time>2021-03-21T09:43:25Z</time>
      </trkpt>
      <trkpt lat="43.121773" lon="-2.184444">
        <ele>701.182</ele>
        <time>2021-03-21T09:43:26Z</time>
      </trkpt>
      <trkpt lat="43.121745" lon="-2.184465">
        <ele>701.112</ele>
        <time>2021-03-21T09:43:27Z</time>
      </trkpt>
      <trkpt lat="43.121720" lon="-2.184485">
        <ele>701.242</ele>
        <time>2021-03-21T09:43:28Z</time>
      </trkpt>
      <trkpt lat="43.121694" lon="-2.184505">
        <ele>701.256</ele>
        <time>2021-03-21T09:43:29Z</time>
      </trkpt>
      <trkpt lat="43.121669" lon="-2.184521">
        <ele>701.359</ele>
        <time>2021-03-21T09:43:30Z</time>
      </trkpt>
      <trkpt lat="43.121645" lon="-2.184534">
        <ele>701.414</ele>
        <time>2021-03-21T09:43:31Z</time>
      </trkpt>
      <trkpt lat="43.121626" lon="-2.184547">
        <ele>701.408</ele>
        <time>2021-03-21T09:43:32Z</time>
      </trkpt>
      <trkpt lat="43.121605" lon="-2.184565">
        <ele>701.321</ele>
        <time>2021-03-21T09:43:33Z</time>
      </trkpt>
      <trkpt lat="43.121582" lon="-2.184588">
        <ele>701.134</ele>
        <time>2021-03-21T09:43:34Z</time>
      </trkpt>
      <trkpt lat="43.121555" lon="-2.184609">
        <ele>701.067</ele>
        <time>2021-03-21T09:43:35Z</time>
      </trkpt>
      <trkpt lat="43.121531" lon="-2.184632">
        <ele>700.758</ele>
        <time>2021-03-21T09:43:36Z</time>
      </trkpt>
      <trkpt lat="43.121503" lon="-2.184657">
        <ele>700.575</ele>
        <time>2021-03-21T09:43:37Z</time>
      </trkpt>
      <trkpt lat="43.121478" lon="-2.184680">
        <ele>700.273</ele>
        <time>2021-03-21T09:43:38Z</time>
      </trkpt>
      <trkpt lat="43.121452" lon="-2.184699">
        <ele>699.923</ele>
        <time>2021-03-21T09:43:39Z</time>
      </trkpt>
      <trkpt lat="43.121425" lon="-2.184716">
        <ele>699.873</ele>
        <time>2021-03-21T09:43:40Z</time>
      </trkpt>
      <trkpt lat="43.121399" lon="-2.184731">
        <ele>699.787</ele>
        <time>2021-03-21T09:43:41Z</time>
      </trkpt>
      <trkpt lat="43.121368" lon="-2.184751">
        <ele>699.642</ele>
        <time>2021-03-21T09:43:42Z</time>
      </trkpt>
      <trkpt lat="43.121342" lon="-2.184774">
        <ele>699.426</ele>
        <time>2021-03-21T09:43:43Z</time>
      </trkpt>
      <trkpt lat="43.121316" lon="-2.184795">
        <ele>699.108</ele>
        <time>2021-03-21T09:43:44Z</time>
      </trkpt>
      <trkpt lat="43.121289" lon="-2.184816">
        <ele>698.954</ele>
        <time>2021-03-21T09:43:45Z</time>
      </trkpt>
      <trkpt lat="43.121263" lon="-2.184831">
        <ele>698.897</ele>
        <time>2021-03-21T09:43:46Z</time>
      </trkpt>
      <trkpt lat="43.121234" lon="-2.184847">
        <ele>698.790</ele>
        <time>2021-03-21T09:43:47Z</time>
      </trkpt>
      <trkpt lat="43.121206" lon="-2.184862">
        <ele>698.661</ele>
        <time>2021-03-21T09:43:48Z</time>
      </trkpt>
      <trkpt lat="43.121176" lon="-2.184878">
        <ele>698.578</ele>
        <time>2021-03-21T09:43:49Z</time>
      </trkpt>
      <trkpt lat="43.121142" lon="-2.184897">
        <ele>698.376</ele>
        <time>2021-03-21T09:43:50Z</time>
      </trkpt>
      <trkpt lat="43.121113" lon="-2.184912">
        <ele>698.256</ele>
        <time>2021-03-21T09:43:51Z</time>
      </trkpt>
      <trkpt lat="43.121083" lon="-2.184926">
        <ele>698.196</ele>
        <time>2021-03-21T09:43:52Z</time>
      </trkpt>
      <trkpt lat="43.121058" lon="-2.184942">
        <ele>697.957</ele>
        <time>2021-03-21T09:43:53Z</time>
      </trkpt>
      <trkpt lat="43.121029" lon="-2.184957">
        <ele>697.700</ele>
        <time>2021-03-21T09:43:54Z</time>
      </trkpt>
      <trkpt lat="43.120998" lon="-2.184971">
        <ele>697.620</ele>
        <time>2021-03-21T09:43:55Z</time>
      </trkpt>
      <trkpt lat="43.120970" lon="-2.184985">
        <ele>697.408</ele>
        <time>2021-03-21T09:43:56Z</time>
      </trkpt>
      <trkpt lat="43.120940" lon="-2.184997">
        <ele>697.381</ele>
        <time>2021-03-21T09:43:57Z</time>
      </trkpt>
      <trkpt lat="43.120912" lon="-2.185012">
        <ele>697.164</ele>
        <time>2021-03-21T09:43:58Z</time>
      </trkpt>
      <trkpt lat="43.120885" lon="-2.185028">
        <ele>696.967</ele>
        <time>2021-03-21T09:43:59Z</time>
      </trkpt>
      <trkpt lat="43.120854" lon="-2.185042">
        <ele>696.828</ele>
        <time>2021-03-21T09:44:00Z</time>
      </trkpt>
      <trkpt lat="43.120821" lon="-2.185054">
        <ele>696.725</ele>
        <time>2021-03-21T09:44:01Z</time>
      </trkpt>
      <trkpt lat="43.120789" lon="-2.185066">
        <ele>696.743</ele>
        <time>2021-03-21T09:44:02Z</time>
      </trkpt>
      <trkpt lat="43.120757" lon="-2.185080">
        <ele>696.573</ele>
        <time>2021-03-21T09:44:03Z</time>
      </trkpt>
      <trkpt lat="43.120727" lon="-2.185098">
        <ele>696.343</ele>
        <time>2021-03-21T09:44:04Z</time>
      </trkpt>
      <trkpt lat="43.120695" lon="-2.185114">
        <ele>696.198</ele>
        <time>2021-03-21T09:44:05Z</time>
      </trkpt>
      <trkpt lat="43.120665" lon="-2.185130">
        <ele>695.915</ele>
        <time>2021-03-21T09:44:06Z</time>
      </trkpt>
      <trkpt lat="43.120634" lon="-2.185145">
        <ele>695.826</ele>
        <time>2021-03-21T09:44:07Z</time>
      </trkpt>
      <trkpt lat="43.120603" lon="-2.185162">
        <ele>695.608</ele>
        <time>2021-03-21T09:44:08Z</time>
      </trkpt>
      <trkpt lat="43.120571" lon="-2.185181">
        <ele>695.385</ele>
        <time>2021-03-21T09:44:09Z</time>
      </trkpt>
      <trkpt lat="43.120541" lon="-2.185197">
        <ele>695.188</ele>
        <time>2021-03-21T09:44:10Z</time>
      </trkpt>
      <trkpt lat="43.120509" lon="-2.185211">
        <ele>695.031</ele>
        <time>2021-03-21T09:44:11Z</time>
      </trkpt>
      <trkpt lat="43.120476" lon="-2.185226">
        <ele>694.842</ele>
        <time>2021-03-21T09:44:12Z</time>
      </trkpt>
      <trkpt lat="43.120445" lon="-2.185241">
        <ele>694.729</ele>
        <time>2021-03-21T09:44:13Z</time>
      </trkpt>
      <trkpt lat="43.120413" lon="-2.185255">
        <ele>694.637</ele>
        <time>2021-03-21T09:44:14Z</time>
      </trkpt>
      <trkpt lat="43.120382" lon="-2.185272">
        <ele>694.477</ele>
        <time>2021-03-21T09:44:15Z</time>
      </trkpt>
      <trkpt lat="43.120352" lon="-2.185290">
        <ele>694.247</ele>
        <time>2021-03-21T09:44:16Z</time>
      </trkpt>
      <trkpt lat="43.120322" lon="-2.185306">
        <ele>694.299</ele>
        <time>2021-03-21T09:44:17Z</time>
      </trkpt>
      <trkpt lat="43.120294" lon="-2.185321">
        <ele>694.107</ele>
        <time>2021-03-21T09:44:18Z</time>
      </trkpt>
      <trkpt lat="43.120268" lon="-2.185338">
        <ele>693.927</ele>
        <time>2021-03-21T09:44:19Z</time>
      </trkpt>
      <trkpt lat="43.120239" lon="-2.185357">
        <ele>693.608</ele>
        <time>2021-03-21T09:44:20Z</time>
      </trkpt>
      <trkpt lat="43.120212" lon="-2.185374">
        <ele>693.385</ele>
        <time>2021-03-21T09:44:21Z</time>
      </trkpt>
      <trkpt lat="43.120184" lon="-2.185390">
        <ele>693.028</ele>
        <time>2021-03-21T09:44:22Z</time>
      </trkpt>
      <trkpt lat="43.120154" lon="-2.185402">
        <ele>692.821</ele>
        <time>2021-03-21T09:44:23Z</time>
      </trkpt>
      <trkpt lat="43.120126" lon="-2.185415">
        <ele>692.582</ele>
        <time>2021-03-21T09:44:24Z</time>
      </trkpt>
      <trkpt lat="43.120098" lon="-2.185425">
        <ele>692.419</ele>
        <time>2021-03-21T09:44:25Z</time>
      </trkpt>
      <trkpt lat="43.120067" lon="-2.185431">
        <ele>692.267</ele>
        <time>2021-03-21T09:44:26Z</time>
      </trkpt>
      <trkpt lat="43.120039" lon="-2.185431">
        <ele>692.227</ele>
        <time>2021-03-21T09:44:27Z</time>
      </trkpt>
      <trkpt lat="43.120012" lon="-2.185427">
        <ele>692.337</ele>
        <time>2021-03-21T09:44:28Z</time>
      </trkpt>
      <trkpt lat="43.119984" lon="-2.185419">
        <ele>692.257</ele>
        <time>2021-03-21T09:44:29Z</time>
      </trkpt>
      <trkpt lat="43.119959" lon="-2.185410">
        <ele>692.000</ele>
        <time>2021-03-21T09:44:30Z</time>
      </trkpt>
      <trkpt lat="43.119934" lon="-2.185400">
        <ele>691.820</ele>
        <time>2021-03-21T09:44:31Z</time>
      </trkpt>
      <trkpt lat="43.119907" lon="-2.185385">
        <ele>691.708</ele>
        <time>2021-03-21T09:44:32Z</time>
      </trkpt>
      <trkpt lat="43.119882" lon="-2.185373">
        <ele>691.511</ele>
        <time>2021-03-21T09:44:33Z</time>
      </trkpt>
      <trkpt lat="43.119855" lon="-2.185361">
        <ele>691.244</ele>
        <time>2021-03-21T09:44:34Z</time>
      </trkpt>
      <trkpt lat="43.119827" lon="-2.185348">
        <ele>690.947</ele>
        <time>2021-03-21T09:44:35Z</time>
      </trkpt>
      <trkpt lat="43.119799" lon="-2.185332">
        <ele>690.728</ele>
        <time>2021-03-21T09:44:36Z</time>
      </trkpt>
      <trkpt lat="43.119775" lon="-2.185314">
        <ele>690.585</ele>
        <time>2021-03-21T09:44:37Z</time>
      </trkpt>
      <trkpt lat="43.119751" lon="-2.185295">
        <ele>690.383</ele>
        <time>2021-03-21T09:44:38Z</time>
      </trkpt>
      <trkpt lat="43.119728" lon="-2.185271">
        <ele>690.243</ele>
        <time>2021-03-21T09:44:39Z</time>
      </trkpt>
      <trkpt lat="43.119706" lon="-2.185244">
        <ele>690.373</ele>
        <time>2021-03-21T09:44:40Z</time>
      </trkpt>
      <trkpt lat="43.119683" lon="-2.185223">
        <ele>690.251</ele>
        <time>2021-03-21T09:44:41Z</time>
      </trkpt>
      <trkpt lat="43.119661" lon="-2.185198">
        <ele>690.201</ele>
        <time>2021-03-21T09:44:42Z</time>
      </trkpt>
      <trkpt lat="43.119642" lon="-2.185171">
        <ele>690.311</ele>
        <time>2021-03-21T09:44:43Z</time>
      </trkpt>
      <trkpt lat="43.119603" lon="-2.185117">
        <ele>690.508</ele>
        <time>2021-03-21T09:44:44Z</time>
      </trkpt>
      <trkpt lat="43.119582" lon="-2.185087">
        <ele>690.621</ele>
        <time>2021-03-21T09:44:46Z</time>
      </trkpt>
      <trkpt lat="43.119563" lon="-2.185060">
        <ele>690.774</ele>
        <time>2021-03-21T09:44:47Z</time>
      </trkpt>
      <trkpt lat="43.119540" lon="-2.185033">
        <ele>690.777</ele>
        <time>2021-03-21T09:44:48Z</time>
      </trkpt>
      <trkpt lat="43.119518" lon="-2.185007">
        <ele>690.738</ele>
        <time>2021-03-21T09:44:49Z</time>
      </trkpt>
      <trkpt lat="43.119496" lon="-2.184982">
        <ele>690.855</ele>
        <time>2021-03-21T09:44:50Z</time>
      </trkpt>
      <trkpt lat="43.119471" lon="-2.184956">
        <ele>690.833</ele>
        <time>2021-03-21T09:44:51Z</time>
      </trkpt>
      <trkpt lat="43.119422" lon="-2.184907">
        <ele>690.663</ele>
        <time>2021-03-21T09:44:52Z</time>
      </trkpt>
      <trkpt lat="43.119401" lon="-2.184881">
        <ele>690.693</ele>
        <time>2021-03-21T09:44:54Z</time>
      </trkpt>
      <trkpt lat="43.119379" lon="-2.184854">
        <ele>690.526</ele>
        <time>2021-03-21T09:44:55Z</time>
      </trkpt>
      <trkpt lat="43.119355" lon="-2.184826">
        <ele>690.447</ele>
        <time>2021-03-21T09:44:56Z</time>
      </trkpt>
      <trkpt lat="43.119330" lon="-2.184800">
        <ele>690.211</ele>
        <time>2021-03-21T09:44:57Z</time>
      </trkpt>
      <trkpt lat="43.119286" lon="-2.184747">
        <ele>689.808</ele>
        <time>2021-03-21T09:44:59Z</time>
      </trkpt>
      <trkpt lat="43.119260" lon="-2.184720">
        <ele>689.488</ele>
        <time>2021-03-21T09:45:00Z</time>
      </trkpt>
      <trkpt lat="43.119236" lon="-2.184694">
        <ele>689.191</ele>
        <time>2021-03-21T09:45:01Z</time>
      </trkpt>
      <trkpt lat="43.119184" lon="-2.184637">
        <ele>688.514</ele>
        <time>2021-03-21T09:45:02Z</time>
      </trkpt>
      <trkpt lat="43.119159" lon="-2.184609">
        <ele>688.235</ele>
        <time>2021-03-21T09:45:04Z</time>
      </trkpt>
      <trkpt lat="43.119132" lon="-2.184579">
        <ele>687.962</ele>
        <time>2021-03-21T09:45:05Z</time>
      </trkpt>
      <trkpt lat="43.119105" lon="-2.184548">
        <ele>687.650</ele>
        <time>2021-03-21T09:45:06Z</time>
      </trkpt>
      <trkpt lat="43.119051" lon="-2.184490">
        <ele>686.950</ele>
        <time>2021-03-21T09:45:07Z</time>
      </trkpt>
      <trkpt lat="43.119024" lon="-2.184461">
        <ele>686.520</ele>
        <time>2021-03-21T09:45:09Z</time>
      </trkpt>
      <trkpt lat="43.118999" lon="-2.184432">
        <ele>686.319</ele>
        <time>2021-03-21T09:45:10Z</time>
      </trkpt>
      <trkpt lat="43.118973" lon="-2.184405">
        <ele>686.109</ele>
        <time>2021-03-21T09:45:11Z</time>
      </trkpt>
      <trkpt lat="43.118951" lon="-2.184376">
        <ele>686.019</ele>
        <time>2021-03-21T09:45:12Z</time>
      </trkpt>
      <trkpt lat="43.118926" lon="-2.184346">
        <ele>685.908</ele>
        <time>2021-03-21T09:45:13Z</time>
      </trkpt>
      <trkpt lat="43.118893" lon="-2.184313">
        <ele>685.527</ele>
        <time>2021-03-21T09:45:14Z</time>
      </trkpt>
      <trkpt lat="43.118862" lon="-2.184279">
        <ele>685.370</ele>
        <time>2021-03-21T09:45:15Z</time>
      </trkpt>
      <trkpt lat="43.118831" lon="-2.184246">
        <ele>685.283</ele>
        <time>2021-03-21T09:45:16Z</time>
      </trkpt>
      <trkpt lat="43.118801" lon="-2.184216">
        <ele>685.094</ele>
        <time>2021-03-21T09:45:17Z</time>
      </trkpt>
      <trkpt lat="43.118777" lon="-2.184189">
        <ele>684.861</ele>
        <time>2021-03-21T09:45:18Z</time>
      </trkpt>
      <trkpt lat="43.118749" lon="-2.184165">
        <ele>684.559</ele>
        <time>2021-03-21T09:45:19Z</time>
      </trkpt>
      <trkpt lat="43.118720" lon="-2.184137">
        <ele>684.349</ele>
        <time>2021-03-21T09:45:20Z</time>
      </trkpt>
      <trkpt lat="43.118693" lon="-2.184108">
        <ele>684.179</ele>
        <time>2021-03-21T09:45:21Z</time>
      </trkpt>
      <trkpt lat="43.118666" lon="-2.184083">
        <ele>683.927</ele>
        <time>2021-03-21T09:45:22Z</time>
      </trkpt>
      <trkpt lat="43.118638" lon="-2.184060">
        <ele>683.668</ele>
        <time>2021-03-21T09:45:23Z</time>
      </trkpt>
      <trkpt lat="43.118610" lon="-2.184036">
        <ele>683.314</ele>
        <time>2021-03-21T09:45:24Z</time>
      </trkpt>
      <trkpt lat="43.118579" lon="-2.184012">
        <ele>683.008</ele>
        <time>2021-03-21T09:45:25Z</time>
      </trkpt>
      <trkpt lat="43.118547" lon="-2.183988">
        <ele>682.638</ele>
        <time>2021-03-21T09:45:26Z</time>
      </trkpt>
      <trkpt lat="43.118515" lon="-2.183965">
        <ele>682.241</ele>
        <time>2021-03-21T09:45:27Z</time>
      </trkpt>
      <trkpt lat="43.118478" lon="-2.183942">
        <ele>681.554</ele>
        <time>2021-03-21T09:45:28Z</time>
      </trkpt>
      <trkpt lat="43.118449" lon="-2.183917">
        <ele>681.235</ele>
        <time>2021-03-21T09:45:29Z</time>
      </trkpt>
      <trkpt lat="43.118421" lon="-2.183893">
        <ele>680.822</ele>
        <time>2021-03-21T09:45:30Z</time>
      </trkpt>
      <trkpt lat="43.118393" lon="-2.183871">
        <ele>680.410</ele>
        <time>2021-03-21T09:45:31Z</time>
      </trkpt>
      <trkpt lat="43.118365" lon="-2.183847">
        <ele>680.190</ele>
        <time>2021-03-21T09:45:32Z</time>
      </trkpt>
      <trkpt lat="43.118338" lon="-2.183821">
        <ele>679.990</ele>
        <time>2021-03-21T09:45:33Z</time>
      </trkpt>
      <trkpt lat="43.118312" lon="-2.183793">
        <ele>679.794</ele>
        <time>2021-03-21T09:45:34Z</time>
      </trkpt>
      <trkpt lat="43.118286" lon="-2.183767">
        <ele>679.557</ele>
        <time>2021-03-21T09:45:35Z</time>
      </trkpt>
      <trkpt lat="43.118260" lon="-2.183739">
        <ele>679.322</ele>
        <time>2021-03-21T09:45:36Z</time>
      </trkpt>
      <trkpt lat="43.118238" lon="-2.183712">
        <ele>679.108</ele>
        <time>2021-03-21T09:45:37Z</time>
      </trkpt>
      <trkpt lat="43.118215" lon="-2.183691">
        <ele>678.885</ele>
        <time>2021-03-21T09:45:38Z</time>
      </trkpt>
      <trkpt lat="43.118189" lon="-2.183666">
        <ele>678.558</ele>
        <time>2021-03-21T09:45:39Z</time>
      </trkpt>
      <trkpt lat="43.118161" lon="-2.183638">
        <ele>678.251</ele>
        <time>2021-03-21T09:45:40Z</time>
      </trkpt>
      <trkpt lat="43.118137" lon="-2.183610">
        <ele>678.042</ele>
        <time>2021-03-21T09:45:41Z</time>
      </trkpt>
      <trkpt lat="43.118106" lon="-2.183579">
        <ele>677.699</ele>
        <time>2021-03-21T09:45:42Z</time>
      </trkpt>
      <trkpt lat="43.118051" lon="-2.183529">
        <ele>676.997</ele>
        <time>2021-03-21T09:45:43Z</time>
      </trkpt>
      <trkpt lat="43.118029" lon="-2.183505">
        <ele>676.777</ele>
        <time>2021-03-21T09:45:45Z</time>
      </trkpt>
      <trkpt lat="43.118007" lon="-2.183479">
        <ele>676.567</ele>
        <time>2021-03-21T09:45:46Z</time>
      </trkpt>
      <trkpt lat="43.117978" lon="-2.183453">
        <ele>676.078</ele>
        <time>2021-03-21T09:45:47Z</time>
      </trkpt>
      <trkpt lat="43.117948" lon="-2.183428">
        <ele>675.533</ele>
        <time>2021-03-21T09:45:48Z</time>
      </trkpt>
      <trkpt lat="43.117887" lon="-2.183376">
        <ele>674.326</ele>
        <time>2021-03-21T09:45:50Z</time>
      </trkpt>
      <trkpt lat="43.117861" lon="-2.183341">
        <ele>674.108</ele>
        <time>2021-03-21T09:45:51Z</time>
      </trkpt>
      <trkpt lat="43.117837" lon="-2.183307">
        <ele>674.013</ele>
        <time>2021-03-21T09:45:52Z</time>
      </trkpt>
      <trkpt lat="43.117803" lon="-2.183278">
        <ele>673.446</ele>
        <time>2021-03-21T09:45:53Z</time>
      </trkpt>
      <trkpt lat="43.117749" lon="-2.183222">
        <ele>672.769</ele>
        <time>2021-03-21T09:45:55Z</time>
      </trkpt>
      <trkpt lat="43.117723" lon="-2.183183">
        <ele>672.610</ele>
        <time>2021-03-21T09:45:56Z</time>
      </trkpt>
      <trkpt lat="43.117692" lon="-2.183116">
        <ele>673.147</ele>
        <time>2021-03-21T09:45:58Z</time>
      </trkpt>
      <trkpt lat="43.117669" lon="-2.183082">
        <ele>673.085</ele>
        <time>2021-03-21T09:45:59Z</time>
      </trkpt>
      <trkpt lat="43.117644" lon="-2.183049">
        <ele>672.995</ele>
        <time>2021-03-21T09:46:00Z</time>
      </trkpt>
      <trkpt lat="43.117562" lon="-2.182968">
        <ele>671.785</ele>
        <time>2021-03-21T09:46:03Z</time>
      </trkpt>
      <trkpt lat="43.117476" lon="-2.182889">
        <ele>670.691</ele>
        <time>2021-03-21T09:46:06Z</time>
      </trkpt>
      <trkpt lat="43.117394" lon="-2.182797">
        <ele>670.581</ele>
        <time>2021-03-21T09:46:09Z</time>
      </trkpt>
      <trkpt lat="43.117293" lon="-2.182718">
        <ele>669.619</ele>
        <time>2021-03-21T09:46:13Z</time>
      </trkpt>
      <trkpt lat="43.117177" lon="-2.182769">
        <ele>667.208</ele>
        <time>2021-03-21T09:46:18Z</time>
      </trkpt>
      <trkpt lat="43.117085" lon="-2.182861">
        <ele>667.545</ele>
        <time>2021-03-21T09:46:21Z</time>
      </trkpt>
      <trkpt lat="43.116992" lon="-2.182963">
        <ele>667.628</ele>
        <time>2021-03-21T09:46:24Z</time>
      </trkpt>
      <trkpt lat="43.116954" lon="-2.182993">
        <ele>667.941</ele>
        <time>2021-03-21T09:46:25Z</time>
      </trkpt>
      <trkpt lat="43.116921" lon="-2.183022">
        <ele>668.292</ele>
        <time>2021-03-21T09:46:26Z</time>
      </trkpt>
      <trkpt lat="43.116884" lon="-2.183048">
        <ele>668.739</ele>
        <time>2021-03-21T09:46:27Z</time>
      </trkpt>
      <trkpt lat="43.116854" lon="-2.183066">
        <ele>669.097</ele>
        <time>2021-03-21T09:46:28Z</time>
      </trkpt>
      <trkpt lat="43.116829" lon="-2.183087">
        <ele>669.217</ele>
        <time>2021-03-21T09:46:29Z</time>
      </trkpt>
      <trkpt lat="43.116802" lon="-2.183099">
        <ele>669.617</ele>
        <time>2021-03-21T09:46:30Z</time>
      </trkpt>
      <trkpt lat="43.116776" lon="-2.183121">
        <ele>669.773</ele>
        <time>2021-03-21T09:46:31Z</time>
      </trkpt>
      <trkpt lat="43.116754" lon="-2.183145">
        <ele>669.685</ele>
        <time>2021-03-21T09:46:32Z</time>
      </trkpt>
      <trkpt lat="43.116734" lon="-2.183158">
        <ele>669.813</ele>
        <time>2021-03-21T09:46:33Z</time>
      </trkpt>
      <trkpt lat="43.116707" lon="-2.183171">
        <ele>670.108</ele>
        <time>2021-03-21T09:46:34Z</time>
      </trkpt>
      <trkpt lat="43.116683" lon="-2.183184">
        <ele>670.433</ele>
        <time>2021-03-21T09:46:35Z</time>
      </trkpt>
      <trkpt lat="43.116662" lon="-2.183193">
        <ele>670.716</ele>
        <time>2021-03-21T09:46:36Z</time>
      </trkpt>
      <trkpt lat="43.116635" lon="-2.183204">
        <ele>671.219</ele>
        <time>2021-03-21T09:46:37Z</time>
      </trkpt>
      <trkpt lat="43.116608" lon="-2.183212">
        <ele>671.850</ele>
        <time>2021-03-21T09:46:38Z</time>
      </trkpt>
      <trkpt lat="43.116580" lon="-2.183222">
        <ele>672.497</ele>
        <time>2021-03-21T09:46:39Z</time>
      </trkpt>
      <trkpt lat="43.116551" lon="-2.183237">
        <ele>672.925</ele>
        <time>2021-03-21T09:46:40Z</time>
      </trkpt>
      <trkpt lat="43.116531" lon="-2.183265">
        <ele>672.775</ele>
        <time>2021-03-21T09:46:41Z</time>
      </trkpt>
      <trkpt lat="43.116515" lon="-2.183289">
        <ele>672.665</ele>
        <time>2021-03-21T09:46:42Z</time>
      </trkpt>
      <trkpt lat="43.116491" lon="-2.183309">
        <ele>672.774</ele>
        <time>2021-03-21T09:46:43Z</time>
      </trkpt>
      <trkpt lat="43.116474" lon="-2.183335">
        <ele>672.556</ele>
        <time>2021-03-21T09:46:44Z</time>
      </trkpt>
      <trkpt lat="43.116458" lon="-2.183358">
        <ele>672.221</ele>
        <time>2021-03-21T09:46:45Z</time>
      </trkpt>
      <trkpt lat="43.116436" lon="-2.183386">
        <ele>671.808</ele>
        <time>2021-03-21T09:46:46Z</time>
      </trkpt>
      <trkpt lat="43.116413" lon="-2.183413">
        <ele>671.583</ele>
        <time>2021-03-21T09:46:47Z</time>
      </trkpt>
      <trkpt lat="43.116385" lon="-2.183432">
        <ele>671.586</ele>
        <time>2021-03-21T09:46:48Z</time>
      </trkpt>
      <trkpt lat="43.116357" lon="-2.183454">
        <ele>671.199</ele>
        <time>2021-03-21T09:46:49Z</time>
      </trkpt>
      <trkpt lat="43.116331" lon="-2.183478">
        <ele>670.610</ele>
        <time>2021-03-21T09:46:50Z</time>
      </trkpt>
      <trkpt lat="43.116305" lon="-2.183498">
        <ele>670.327</ele>
        <time>2021-03-21T09:46:51Z</time>
      </trkpt>
      <trkpt lat="43.116281" lon="-2.183519">
        <ele>669.975</ele>
        <time>2021-03-21T09:46:52Z</time>
      </trkpt>
      <trkpt lat="43.116249" lon="-2.183535">
        <ele>669.875</ele>
        <time>2021-03-21T09:46:53Z</time>
      </trkpt>
      <trkpt lat="43.116214" lon="-2.183551">
        <ele>669.715</ele>
        <time>2021-03-21T09:46:54Z</time>
      </trkpt>
      <trkpt lat="43.116183" lon="-2.183572">
        <ele>669.485</ele>
        <time>2021-03-21T09:46:55Z</time>
      </trkpt>
      <trkpt lat="43.116154" lon="-2.183584">
        <ele>669.489</ele>
        <time>2021-03-21T09:46:56Z</time>
      </trkpt>
      <trkpt lat="43.116128" lon="-2.183602">
        <ele>669.117</ele>
        <time>2021-03-21T09:46:57Z</time>
      </trkpt>
      <trkpt lat="43.116103" lon="-2.183618">
        <ele>668.808</ele>
        <time>2021-03-21T09:46:58Z</time>
      </trkpt>
      <trkpt lat="43.116075" lon="-2.183630">
        <ele>668.554</ele>
        <time>2021-03-21T09:46:59Z</time>
      </trkpt>
      <trkpt lat="43.116042" lon="-2.183636">
        <ele>668.447</ele>
        <time>2021-03-21T09:47:00Z</time>
      </trkpt>
      <trkpt lat="43.116012" lon="-2.183642">
        <ele>668.310</ele>
        <time>2021-03-21T09:47:01Z</time>
      </trkpt>
      <trkpt lat="43.115984" lon="-2.183654">
        <ele>668.051</ele>
        <time>2021-03-21T09:47:02Z</time>
      </trkpt>
      <trkpt lat="43.115955" lon="-2.183665">
        <ele>667.738</ele>
        <time>2021-03-21T09:47:03Z</time>
      </trkpt>
      <trkpt lat="43.115923" lon="-2.183675">
        <ele>667.536</ele>
        <time>2021-03-21T09:47:04Z</time>
      </trkpt>
      <trkpt lat="43.115890" lon="-2.183685">
        <ele>667.366</ele>
        <time>2021-03-21T09:47:05Z</time>
      </trkpt>
      <trkpt lat="43.115855" lon="-2.183686">
        <ele>667.566</ele>
        <time>2021-03-21T09:47:06Z</time>
      </trkpt>
      <trkpt lat="43.115819" lon="-2.183686">
        <ele>667.429</ele>
        <time>2021-03-21T09:47:07Z</time>
      </trkpt>
      <trkpt lat="43.115792" lon="-2.183684">
        <ele>667.200</ele>
        <time>2021-03-21T09:47:08Z</time>
      </trkpt>
      <trkpt lat="43.115766" lon="-2.183675">
        <ele>667.120</ele>
        <time>2021-03-21T09:47:09Z</time>
      </trkpt>
      <trkpt lat="43.115738" lon="-2.183667">
        <ele>667.108</ele>
        <time>2021-03-21T09:47:10Z</time>
      </trkpt>
      <trkpt lat="43.115712" lon="-2.183658">
        <ele>667.128</ele>
        <time>2021-03-21T09:47:11Z</time>
      </trkpt>
      <trkpt lat="43.115685" lon="-2.183645">
        <ele>667.291</ele>
        <time>2021-03-21T09:47:12Z</time>
      </trkpt>
      <trkpt lat="43.115657" lon="-2.183636">
        <ele>667.254</ele>
        <time>2021-03-21T09:47:13Z</time>
      </trkpt>
      <trkpt lat="43.115632" lon="-2.183626">
        <ele>667.355</ele>
        <time>2021-03-21T09:47:14Z</time>
      </trkpt>
      <trkpt lat="43.115608" lon="-2.183617">
        <ele>667.472</ele>
        <time>2021-03-21T09:47:15Z</time>
      </trkpt>
      <trkpt lat="43.115583" lon="-2.183611">
        <ele>667.360</ele>
        <time>2021-03-21T09:47:16Z</time>
      </trkpt>
      <trkpt lat="43.115553" lon="-2.183582">
        <ele>667.960</ele>
        <time>2021-03-21T09:47:18Z</time>
      </trkpt>
      <trkpt lat="43.115535" lon="-2.183566">
        <ele>667.960</ele>
        <time>2021-03-21T09:47:19Z</time>
      </trkpt>
      <trkpt lat="43.115513" lon="-2.183545">
        <ele>668.041</ele>
        <time>2021-03-21T09:47:20Z</time>
      </trkpt>
      <trkpt lat="43.115489" lon="-2.183529">
        <ele>667.981</ele>
        <time>2021-03-21T09:47:21Z</time>
      </trkpt>
      <trkpt lat="43.115469" lon="-2.183505">
        <ele>668.109</ele>
        <time>2021-03-21T09:47:22Z</time>
      </trkpt>
      <trkpt lat="43.115448" lon="-2.183483">
        <ele>668.308</ele>
        <time>2021-03-21T09:47:23Z</time>
      </trkpt>
      <trkpt lat="43.115426" lon="-2.183458">
        <ele>668.470</ele>
        <time>2021-03-21T09:47:24Z</time>
      </trkpt>
      <trkpt lat="43.115337" lon="-2.183365">
        <ele>668.853</ele>
        <time>2021-03-21T09:47:28Z</time>
      </trkpt>
      <trkpt lat="43.115259" lon="-2.183272">
        <ele>669.346</ele>
        <time>2021-03-21T09:47:32Z</time>
      </trkpt>
      <trkpt lat="43.115181" lon="-2.183165">
        <ele>669.587</ele>
        <time>2021-03-21T09:47:36Z</time>
      </trkpt>
      <trkpt lat="43.115090" lon="-2.183066">
        <ele>668.614</ele>
        <time>2021-03-21T09:47:40Z</time>
      </trkpt>
      <trkpt lat="43.115024" lon="-2.182947">
        <ele>668.812</ele>
        <time>2021-03-21T09:47:44Z</time>
      </trkpt>
      <trkpt lat="43.114936" lon="-2.182842">
        <ele>667.652</ele>
        <time>2021-03-21T09:47:48Z</time>
      </trkpt>
      <trkpt lat="43.114872" lon="-2.182727">
        <ele>667.812</ele>
        <time>2021-03-21T09:47:52Z</time>
      </trkpt>
      <trkpt lat="43.114802" lon="-2.182616">
        <ele>667.339</ele>
        <time>2021-03-21T09:47:56Z</time>
      </trkpt>
      <trkpt lat="43.114705" lon="-2.182554">
        <ele>664.601</ele>
        <time>2021-03-21T09:47:59Z</time>
      </trkpt>
      <trkpt lat="43.114602" lon="-2.182495">
        <ele>664.821</ele>
        <time>2021-03-21T09:48:02Z</time>
      </trkpt>
      <trkpt lat="43.114481" lon="-2.182506">
        <ele>663.308</ele>
        <time>2021-03-21T09:48:05Z</time>
      </trkpt>
      <trkpt lat="43.114362" lon="-2.182624">
        <ele>663.059</ele>
        <time>2021-03-21T09:48:09Z</time>
      </trkpt>
      <trkpt lat="43.114348" lon="-2.182659">
        <ele>662.792</ele>
        <time>2021-03-21T09:48:10Z</time>
      </trkpt>
      <trkpt lat="43.114332" lon="-2.182691">
        <ele>662.535</ele>
        <time>2021-03-21T09:48:11Z</time>
      </trkpt>
      <trkpt lat="43.114302" lon="-2.182764">
        <ele>661.926</ele>
        <time>2021-03-21T09:48:13Z</time>
      </trkpt>
      <trkpt lat="43.114289" lon="-2.182804">
        <ele>661.543</ele>
        <time>2021-03-21T09:48:14Z</time>
      </trkpt>
      <trkpt lat="43.114280" lon="-2.182843">
        <ele>660.961</ele>
        <time>2021-03-21T09:48:15Z</time>
      </trkpt>
      <trkpt lat="43.114268" lon="-2.182878">
        <ele>660.671</ele>
        <time>2021-03-21T09:48:16Z</time>
      </trkpt>
      <trkpt lat="43.114249" lon="-2.182906">
        <ele>660.651</ele>
        <time>2021-03-21T09:48:17Z</time>
      </trkpt>
      <trkpt lat="43.114235" lon="-2.182928">
        <ele>660.528</ele>
        <time>2021-03-21T09:48:18Z</time>
      </trkpt>
      <trkpt lat="43.114192" lon="-2.182983">
        <ele>660.789</ele>
        <time>2021-03-21T09:48:20Z</time>
      </trkpt>
      <trkpt lat="43.114169" lon="-2.183010">
        <ele>660.917</ele>
        <time>2021-03-21T09:48:21Z</time>
      </trkpt>
      <trkpt lat="43.114101" lon="-2.183093">
        <ele>661.408</ele>
        <time>2021-03-21T09:48:24Z</time>
      </trkpt>
      <trkpt lat="43.114028" lon="-2.183185">
        <ele>661.918</ele>
        <time>2021-03-21T09:48:27Z</time>
      </trkpt>
      <trkpt lat="43.114013" lon="-2.183211">
        <ele>661.961</ele>
        <time>2021-03-21T09:48:28Z</time>
      </trkpt>
      <trkpt lat="43.114002" lon="-2.183246">
        <ele>661.654</ele>
        <time>2021-03-21T09:48:29Z</time>
      </trkpt>
      <trkpt lat="43.113992" lon="-2.183284">
        <ele>661.215</ele>
        <time>2021-03-21T09:48:30Z</time>
      </trkpt>
      <trkpt lat="43.113985" lon="-2.183321">
        <ele>660.812</ele>
        <time>2021-03-21T09:48:31Z</time>
      </trkpt>
      <trkpt lat="43.113973" lon="-2.183360">
        <ele>660.870</ele>
        <time>2021-03-21T09:48:32Z</time>
      </trkpt>
      <trkpt lat="43.113966" lon="-2.183401">
        <ele>660.710</ele>
        <time>2021-03-21T09:48:33Z</time>
      </trkpt>
      <trkpt lat="43.113952" lon="-2.183438">
        <ele>660.920</ele>
        <time>2021-03-21T09:48:34Z</time>
      </trkpt>
      <trkpt lat="43.113935" lon="-2.183482">
        <ele>661.297</ele>
        <time>2021-03-21T09:48:35Z</time>
      </trkpt>
      <trkpt lat="43.113926" lon="-2.183520">
        <ele>661.223</ele>
        <time>2021-03-21T09:48:36Z</time>
      </trkpt>
      <trkpt lat="43.113918" lon="-2.183559">
        <ele>661.225</ele>
        <time>2021-03-21T09:48:37Z</time>
      </trkpt>
      <trkpt lat="43.113915" lon="-2.183599">
        <ele>661.108</ele>
        <time>2021-03-21T09:48:38Z</time>
      </trkpt>
      <trkpt lat="43.113911" lon="-2.183636">
        <ele>660.855</ele>
        <time>2021-03-21T09:48:39Z</time>
      </trkpt>
      <trkpt lat="43.113906" lon="-2.183675">
        <ele>660.478</ele>
        <time>2021-03-21T09:48:40Z</time>
      </trkpt>
      <trkpt lat="43.113908" lon="-2.183720">
        <ele>659.731</ele>
        <time>2021-03-21T09:48:41Z</time>
      </trkpt>
      <trkpt lat="43.113908" lon="-2.183757">
        <ele>659.112</ele>
        <time>2021-03-21T09:48:42Z</time>
      </trkpt>
      <trkpt lat="43.113905" lon="-2.183801">
        <ele>658.629</ele>
        <time>2021-03-21T09:48:43Z</time>
      </trkpt>
      <trkpt lat="43.113900" lon="-2.183844">
        <ele>658.257</ele>
        <time>2021-03-21T09:48:44Z</time>
      </trkpt>
      <trkpt lat="43.113898" lon="-2.183885">
        <ele>657.787</ele>
        <time>2021-03-21T09:48:45Z</time>
      </trkpt>
      <trkpt lat="43.113894" lon="-2.183926">
        <ele>657.477</ele>
        <time>2021-03-21T09:48:46Z</time>
      </trkpt>
      <trkpt lat="43.113882" lon="-2.183971">
        <ele>657.249</ele>
        <time>2021-03-21T09:48:47Z</time>
      </trkpt>
      <trkpt lat="43.113865" lon="-2.184017">
        <ele>656.802</ele>
        <time>2021-03-21T09:48:48Z</time>
      </trkpt>
      <trkpt lat="43.113854" lon="-2.184072">
        <ele>656.322</ele>
        <time>2021-03-21T09:48:49Z</time>
      </trkpt>
      <trkpt lat="43.113847" lon="-2.184129">
        <ele>655.708</ele>
        <time>2021-03-21T09:48:50Z</time>
      </trkpt>
      <trkpt lat="43.113841" lon="-2.184182">
        <ele>655.270</ele>
        <time>2021-03-21T09:48:51Z</time>
      </trkpt>
      <trkpt lat="43.113833" lon="-2.184232">
        <ele>654.913</ele>
        <time>2021-03-21T09:48:52Z</time>
      </trkpt>
      <trkpt lat="43.113830" lon="-2.184281">
        <ele>654.666</ele>
        <time>2021-03-21T09:48:53Z</time>
      </trkpt>
      <trkpt lat="43.113832" lon="-2.184327">
        <ele>654.387</ele>
        <time>2021-03-21T09:48:54Z</time>
      </trkpt>
      <trkpt lat="43.113834" lon="-2.184373">
        <ele>653.934</ele>
        <time>2021-03-21T09:48:55Z</time>
      </trkpt>
      <trkpt lat="43.113837" lon="-2.184423">
        <ele>653.522</ele>
        <time>2021-03-21T09:48:56Z</time>
      </trkpt>
      <trkpt lat="43.113840" lon="-2.184469">
        <ele>653.312</ele>
        <time>2021-03-21T09:48:57Z</time>
      </trkpt>
      <trkpt lat="43.113843" lon="-2.184515">
        <ele>653.252</ele>
        <time>2021-03-21T09:48:58Z</time>
      </trkpt>
      <trkpt lat="43.113846" lon="-2.184562">
        <ele>653.293</ele>
        <time>2021-03-21T09:48:59Z</time>
      </trkpt>
      <trkpt lat="43.113854" lon="-2.184602">
        <ele>653.165</ele>
        <time>2021-03-21T09:49:00Z</time>
      </trkpt>
      <trkpt lat="43.113867" lon="-2.184649">
        <ele>653.021</ele>
        <time>2021-03-21T09:49:01Z</time>
      </trkpt>
      <trkpt lat="43.113878" lon="-2.184695">
        <ele>653.008</ele>
        <time>2021-03-21T09:49:02Z</time>
      </trkpt>
      <trkpt lat="43.113889" lon="-2.184737">
        <ele>653.065</ele>
        <time>2021-03-21T09:49:03Z</time>
      </trkpt>
      <trkpt lat="43.113898" lon="-2.184778">
        <ele>652.978</ele>
        <time>2021-03-21T09:49:04Z</time>
      </trkpt>
      <trkpt lat="43.113907" lon="-2.184818">
        <ele>652.731</ele>
        <time>2021-03-21T09:49:05Z</time>
      </trkpt>
      <trkpt lat="43.113914" lon="-2.184858">
        <ele>652.632</ele>
        <time>2021-03-21T09:49:06Z</time>
      </trkpt>
      <trkpt lat="43.113923" lon="-2.184899">
        <ele>652.549</ele>
        <time>2021-03-21T09:49:07Z</time>
      </trkpt>
      <trkpt lat="43.113928" lon="-2.184937">
        <ele>652.577</ele>
        <time>2021-03-21T09:49:08Z</time>
      </trkpt>
      <trkpt lat="43.113936" lon="-2.184973">
        <ele>652.457</ele>
        <time>2021-03-21T09:49:09Z</time>
      </trkpt>
      <trkpt lat="43.113941" lon="-2.185010">
        <ele>652.467</ele>
        <time>2021-03-21T09:49:10Z</time>
      </trkpt>
      <trkpt lat="43.113948" lon="-2.185044">
        <ele>652.794</ele>
        <time>2021-03-21T09:49:11Z</time>
      </trkpt>
      <trkpt lat="43.113954" lon="-2.185081">
        <ele>653.057</ele>
        <time>2021-03-21T09:49:12Z</time>
      </trkpt>
      <trkpt lat="43.113960" lon="-2.185114">
        <ele>653.222</ele>
        <time>2021-03-21T09:49:13Z</time>
      </trkpt>
      <trkpt lat="43.113967" lon="-2.185147">
        <ele>653.408</ele>
        <time>2021-03-21T09:49:14Z</time>
      </trkpt>
      <trkpt lat="43.113973" lon="-2.185182">
        <ele>653.785</ele>
        <time>2021-03-21T09:49:15Z</time>
      </trkpt>
      <trkpt lat="43.113980" lon="-2.185215">
        <ele>653.938</ele>
        <time>2021-03-21T09:49:16Z</time>
      </trkpt>
      <trkpt lat="43.113986" lon="-2.185247">
        <ele>654.181</ele>
        <time>2021-03-21T09:49:17Z</time>
      </trkpt>
      <trkpt lat="43.113993" lon="-2.185279">
        <ele>654.362</ele>
        <time>2021-03-21T09:49:18Z</time>
      </trkpt>
      <trkpt lat="43.113998" lon="-2.185305">
        <ele>654.419</ele>
        <time>2021-03-21T09:49:19Z</time>
      </trkpt>
      <trkpt lat="43.114002" lon="-2.185335">
        <ele>654.687</ele>
        <time>2021-03-21T09:49:20Z</time>
      </trkpt>
      <trkpt lat="43.114010" lon="-2.185370">
        <ele>654.897</ele>
        <time>2021-03-21T09:49:21Z</time>
      </trkpt>
      <trkpt lat="43.114017" lon="-2.185400">
        <ele>654.987</ele>
        <time>2021-03-21T09:49:22Z</time>
      </trkpt>
      <trkpt lat="43.114024" lon="-2.185434">
        <ele>655.185</ele>
        <time>2021-03-21T09:49:23Z</time>
      </trkpt>
      <trkpt lat="43.114032" lon="-2.185467">
        <ele>655.289</ele>
        <time>2021-03-21T09:49:24Z</time>
      </trkpt>
      <trkpt lat="43.114040" lon="-2.185500">
        <ele>655.417</ele>
        <time>2021-03-21T09:49:25Z</time>
      </trkpt>
      <trkpt lat="43.114048" lon="-2.185532">
        <ele>655.508</ele>
        <time>2021-03-21T09:49:26Z</time>
      </trkpt>
      <trkpt lat="43.114052" lon="-2.185565">
        <ele>655.884</ele>
        <time>2021-03-21T09:49:27Z</time>
      </trkpt>
      <trkpt lat="43.114054" lon="-2.185599">
        <ele>656.137</ele>
        <time>2021-03-21T09:49:28Z</time>
      </trkpt>
      <trkpt lat="43.114066" lon="-2.185633">
        <ele>656.240</ele>
        <time>2021-03-21T09:49:29Z</time>
      </trkpt>
      <trkpt lat="43.114076" lon="-2.185668">
        <ele>656.331</ele>
        <time>2021-03-21T09:49:30Z</time>
      </trkpt>
      <trkpt lat="43.114100" lon="-2.185729">
        <ele>656.458</ele>
        <time>2021-03-21T09:49:31Z</time>
      </trkpt>
      <trkpt lat="43.114111" lon="-2.185758">
        <ele>656.416</ele>
        <time>2021-03-21T09:49:33Z</time>
      </trkpt>
      <trkpt lat="43.114123" lon="-2.185790">
        <ele>656.536</ele>
        <time>2021-03-21T09:49:34Z</time>
      </trkpt>
      <trkpt lat="43.114134" lon="-2.185814">
        <ele>656.656</ele>
        <time>2021-03-21T09:49:35Z</time>
      </trkpt>
      <trkpt lat="43.114147" lon="-2.185840">
        <ele>656.664</ele>
        <time>2021-03-21T09:49:36Z</time>
      </trkpt>
      <trkpt lat="43.114159" lon="-2.185870">
        <ele>656.606</ele>
        <time>2021-03-21T09:49:37Z</time>
      </trkpt>
      <trkpt lat="43.114170" lon="-2.185902">
        <ele>656.616</ele>
        <time>2021-03-21T09:49:38Z</time>
      </trkpt>
      <trkpt lat="43.114181" lon="-2.185933">
        <ele>656.408</ele>
        <time>2021-03-21T09:49:39Z</time>
      </trkpt>
      <trkpt lat="43.114191" lon="-2.185971">
        <ele>656.392</ele>
        <time>2021-03-21T09:49:40Z</time>
      </trkpt>
      <trkpt lat="43.114205" lon="-2.186010">
        <ele>656.295</ele>
        <time>2021-03-21T09:49:41Z</time>
      </trkpt>
      <trkpt lat="43.114215" lon="-2.186048">
        <ele>656.298</ele>
        <time>2021-03-21T09:49:42Z</time>
      </trkpt>
      <trkpt lat="43.114224" lon="-2.186083">
        <ele>656.219</ele>
        <time>2021-03-21T09:49:43Z</time>
      </trkpt>
      <trkpt lat="43.114235" lon="-2.186118">
        <ele>656.146</ele>
        <time>2021-03-21T09:49:44Z</time>
      </trkpt>
      <trkpt lat="43.114247" lon="-2.186154">
        <ele>655.854</ele>
        <time>2021-03-21T09:49:45Z</time>
      </trkpt>
      <trkpt lat="43.114260" lon="-2.186192">
        <ele>655.554</ele>
        <time>2021-03-21T09:49:46Z</time>
      </trkpt>
      <trkpt lat="43.114273" lon="-2.186228">
        <ele>655.164</ele>
        <time>2021-03-21T09:49:47Z</time>
      </trkpt>
      <trkpt lat="43.114289" lon="-2.186257">
        <ele>654.729</ele>
        <time>2021-03-21T09:49:48Z</time>
      </trkpt>
      <trkpt lat="43.114306" lon="-2.186290">
        <ele>654.300</ele>
        <time>2021-03-21T09:49:49Z</time>
      </trkpt>
      <trkpt lat="43.114320" lon="-2.186322">
        <ele>654.020</ele>
        <time>2021-03-21T09:49:50Z</time>
      </trkpt>
      <trkpt lat="43.114334" lon="-2.186364">
        <ele>653.808</ele>
        <time>2021-03-21T09:49:51Z</time>
      </trkpt>
      <trkpt lat="43.114345" lon="-2.186406">
        <ele>653.628</ele>
        <time>2021-03-21T09:49:52Z</time>
      </trkpt>
      <trkpt lat="43.114356" lon="-2.186447">
        <ele>653.361</ele>
        <time>2021-03-21T09:49:53Z</time>
      </trkpt>
      <trkpt lat="43.114367" lon="-2.186486">
        <ele>653.084</ele>
        <time>2021-03-21T09:49:54Z</time>
      </trkpt>
      <trkpt lat="43.114374" lon="-2.186523">
        <ele>652.945</ele>
        <time>2021-03-21T09:49:55Z</time>
      </trkpt>
      <trkpt lat="43.114379" lon="-2.186562">
        <ele>652.942</ele>
        <time>2021-03-21T09:49:56Z</time>
      </trkpt>
      <trkpt lat="43.114386" lon="-2.186640">
        <ele>653.040</ele>
        <time>2021-03-21T09:49:57Z</time>
      </trkpt>
      <trkpt lat="43.114387" lon="-2.186675">
        <ele>652.970</ele>
        <time>2021-03-21T09:49:59Z</time>
      </trkpt>
      <trkpt lat="43.114377" lon="-2.186709">
        <ele>652.760</ele>
        <time>2021-03-21T09:50:00Z</time>
      </trkpt>
      <trkpt lat="43.114356" lon="-2.186744">
        <ele>652.654</ele>
        <time>2021-03-21T09:50:01Z</time>
      </trkpt>
      <trkpt lat="43.114296" lon="-2.186792">
        <ele>652.856</ele>
        <time>2021-03-21T09:50:03Z</time>
      </trkpt>
      <trkpt lat="43.114256" lon="-2.186809">
        <ele>653.211</ele>
        <time>2021-03-21T09:50:04Z</time>
      </trkpt>
      <trkpt lat="43.114216" lon="-2.186829">
        <ele>653.408</ele>
        <time>2021-03-21T09:50:05Z</time>
      </trkpt>
      <trkpt lat="43.114173" lon="-2.186847">
        <ele>653.791</ele>
        <time>2021-03-21T09:50:06Z</time>
      </trkpt>
      <trkpt lat="43.114135" lon="-2.186863">
        <ele>653.574</ele>
        <time>2021-03-21T09:50:07Z</time>
      </trkpt>
      <trkpt lat="43.114097" lon="-2.186876">
        <ele>653.457</ele>
        <time>2021-03-21T09:50:08Z</time>
      </trkpt>
      <trkpt lat="43.114058" lon="-2.186892">
        <ele>653.288</ele>
        <time>2021-03-21T09:50:09Z</time>
      </trkpt>
      <trkpt lat="43.114029" lon="-2.186910">
        <ele>653.095</ele>
        <time>2021-03-21T09:50:10Z</time>
      </trkpt>
      <trkpt lat="43.114001" lon="-2.186926">
        <ele>652.863</ele>
        <time>2021-03-21T09:50:11Z</time>
      </trkpt>
      <trkpt lat="43.113953" lon="-2.186975">
        <ele>652.433</ele>
        <time>2021-03-21T09:50:13Z</time>
      </trkpt>
      <trkpt lat="43.113877" lon="-2.187069">
        <ele>651.773</ele>
        <time>2021-03-21T09:50:16Z</time>
      </trkpt>
      <trkpt lat="43.113866" lon="-2.187106">
        <ele>651.496</ele>
        <time>2021-03-21T09:50:17Z</time>
      </trkpt>
      <trkpt lat="43.113852" lon="-2.187147">
        <ele>651.131</ele>
        <time>2021-03-21T09:50:18Z</time>
      </trkpt>
      <trkpt lat="43.113804" lon="-2.187266">
        <ele>650.624</ele>
        <time>2021-03-21T09:50:21Z</time>
      </trkpt>
      <trkpt lat="43.113770" lon="-2.187340">
        <ele>650.608</ele>
        <time>2021-03-21T09:50:23Z</time>
      </trkpt>
      <trkpt lat="43.113760" lon="-2.187374">
        <ele>650.545</ele>
        <time>2021-03-21T09:50:24Z</time>
      </trkpt>
      <trkpt lat="43.113749" lon="-2.187410">
        <ele>650.538</ele>
        <time>2021-03-21T09:50:25Z</time>
      </trkpt>
      <trkpt lat="43.113736" lon="-2.187446">
        <ele>650.681</ele>
        <time>2021-03-21T09:50:26Z</time>
      </trkpt>
      <trkpt lat="43.113723" lon="-2.187482">
        <ele>650.732</ele>
        <time>2021-03-21T09:50:27Z</time>
      </trkpt>
      <trkpt lat="43.113711" lon="-2.187515">
        <ele>650.889</ele>
        <time>2021-03-21T09:50:28Z</time>
      </trkpt>
      <trkpt lat="43.113699" lon="-2.187550">
        <ele>650.937</ele>
        <time>2021-03-21T09:50:29Z</time>
      </trkpt>
      <trkpt lat="43.113687" lon="-2.187581">
        <ele>651.077</ele>
        <time>2021-03-21T09:50:30Z</time>
      </trkpt>
      <trkpt lat="43.113659" lon="-2.187644">
        <ele>651.417</ele>
        <time>2021-03-21T09:50:31Z</time>
      </trkpt>
      <trkpt lat="43.113643" lon="-2.187671">
        <ele>651.696</ele>
        <time>2021-03-21T09:50:33Z</time>
      </trkpt>
      <trkpt lat="43.113627" lon="-2.187702">
        <ele>651.931</ele>
        <time>2021-03-21T09:50:34Z</time>
      </trkpt>
      <trkpt lat="43.113610" lon="-2.187733">
        <ele>652.224</ele>
        <time>2021-03-21T09:50:35Z</time>
      </trkpt>
      <trkpt lat="43.113588" lon="-2.187763">
        <ele>652.608</ele>
        <time>2021-03-21T09:50:36Z</time>
      </trkpt>
      <trkpt lat="43.113576" lon="-2.187797">
        <ele>652.785</ele>
        <time>2021-03-21T09:50:37Z</time>
      </trkpt>
      <trkpt lat="43.113562" lon="-2.187826">
        <ele>652.968</ele>
        <time>2021-03-21T09:50:38Z</time>
      </trkpt>
      <trkpt lat="43.113542" lon="-2.187858">
        <ele>653.211</ele>
        <time>2021-03-21T09:50:39Z</time>
      </trkpt>
      <trkpt lat="43.113526" lon="-2.187893">
        <ele>653.452</ele>
        <time>2021-03-21T09:50:40Z</time>
      </trkpt>
      <trkpt lat="43.113514" lon="-2.187923">
        <ele>653.629</ele>
        <time>2021-03-21T09:50:41Z</time>
      </trkpt>
      <trkpt lat="43.113487" lon="-2.187980">
        <ele>654.047</ele>
        <time>2021-03-21T09:50:42Z</time>
      </trkpt>
      <trkpt lat="43.113480" lon="-2.188010">
        <ele>654.047</ele>
        <time>2021-03-21T09:50:44Z</time>
      </trkpt>
      <trkpt lat="43.113468" lon="-2.188042">
        <ele>654.177</ele>
        <time>2021-03-21T09:50:45Z</time>
      </trkpt>
      <trkpt lat="43.113452" lon="-2.188079">
        <ele>654.284</ele>
        <time>2021-03-21T09:50:46Z</time>
      </trkpt>
      <trkpt lat="43.113434" lon="-2.188109">
        <ele>654.207</ele>
        <time>2021-03-21T09:50:47Z</time>
      </trkpt>
      <trkpt lat="43.113414" lon="-2.188143">
        <ele>654.317</ele>
        <time>2021-03-21T09:50:48Z</time>
      </trkpt>
      <trkpt lat="43.113395" lon="-2.188176">
        <ele>654.408</ele>
        <time>2021-03-21T09:50:49Z</time>
      </trkpt>
      <trkpt lat="43.113380" lon="-2.188215">
        <ele>654.394</ele>
        <time>2021-03-21T09:50:50Z</time>
      </trkpt>
      <trkpt lat="43.113366" lon="-2.188253">
        <ele>654.277</ele>
        <time>2021-03-21T09:50:51Z</time>
      </trkpt>
      <trkpt lat="43.113350" lon="-2.188282">
        <ele>654.230</ele>
        <time>2021-03-21T09:50:52Z</time>
      </trkpt>
      <trkpt lat="43.113335" lon="-2.188311">
        <ele>654.251</ele>
        <time>2021-03-21T09:50:53Z</time>
      </trkpt>
      <trkpt lat="43.113324" lon="-2.188341">
        <ele>654.238</ele>
        <time>2021-03-21T09:50:54Z</time>
      </trkpt>
      <trkpt lat="43.113307" lon="-2.188370">
        <ele>654.476</ele>
        <time>2021-03-21T09:50:55Z</time>
      </trkpt>
      <trkpt lat="43.113291" lon="-2.188403">
        <ele>654.556</ele>
        <time>2021-03-21T09:50:56Z</time>
      </trkpt>
      <trkpt lat="43.113276" lon="-2.188438">
        <ele>654.666</ele>
        <time>2021-03-21T09:50:57Z</time>
      </trkpt>
      <trkpt lat="43.113260" lon="-2.188472">
        <ele>654.764</ele>
        <time>2021-03-21T09:50:58Z</time>
      </trkpt>
      <trkpt lat="43.113243" lon="-2.188501">
        <ele>655.006</ele>
        <time>2021-03-21T09:50:59Z</time>
      </trkpt>
      <trkpt lat="43.113225" lon="-2.188525">
        <ele>655.316</ele>
        <time>2021-03-21T09:51:00Z</time>
      </trkpt>
      <trkpt lat="43.113209" lon="-2.188555">
        <ele>655.508</ele>
        <time>2021-03-21T09:51:01Z</time>
      </trkpt>
      <trkpt lat="43.113189" lon="-2.188588">
        <ele>655.992</ele>
        <time>2021-03-21T09:51:02Z</time>
      </trkpt>
      <trkpt lat="43.113169" lon="-2.188621">
        <ele>656.175</ele>
        <time>2021-03-21T09:51:03Z</time>
      </trkpt>
      <trkpt lat="43.113153" lon="-2.188653">
        <ele>656.198</ele>
        <time>2021-03-21T09:51:04Z</time>
      </trkpt>
      <trkpt lat="43.113138" lon="-2.188688">
        <ele>655.929</ele>
        <time>2021-03-21T09:51:05Z</time>
      </trkpt>
      <trkpt lat="43.113120" lon="-2.188713">
        <ele>656.156</ele>
        <time>2021-03-21T09:51:06Z</time>
      </trkpt>
      <trkpt lat="43.113101" lon="-2.188741">
        <ele>656.254</ele>
        <time>2021-03-21T09:51:07Z</time>
      </trkpt>
      <trkpt lat="43.113085" lon="-2.188768">
        <ele>656.274</ele>
        <time>2021-03-21T09:51:08Z</time>
      </trkpt>
      <trkpt lat="43.113075" lon="-2.188800">
        <ele>656.034</ele>
        <time>2021-03-21T09:51:09Z</time>
      </trkpt>
      <trkpt lat="43.113056" lon="-2.188832">
        <ele>656.063</ele>
        <time>2021-03-21T09:51:10Z</time>
      </trkpt>
      <trkpt lat="43.113034" lon="-2.188855">
        <ele>656.244</ele>
        <time>2021-03-21T09:51:11Z</time>
      </trkpt>
      <trkpt lat="43.113013" lon="-2.188883">
        <ele>656.218</ele>
        <time>2021-03-21T09:51:12Z</time>
      </trkpt>
      <trkpt lat="43.112996" lon="-2.188914">
        <ele>656.108</ele>
        <time>2021-03-21T09:51:13Z</time>
      </trkpt>
      <trkpt lat="43.112984" lon="-2.188952">
        <ele>655.742</ele>
        <time>2021-03-21T09:51:14Z</time>
      </trkpt>
      <trkpt lat="43.112966" lon="-2.188988">
        <ele>655.645</ele>
        <time>2021-03-21T09:51:15Z</time>
      </trkpt>
      <trkpt lat="43.112952" lon="-2.189019">
        <ele>655.488</ele>
        <time>2021-03-21T09:51:16Z</time>
      </trkpt>
      <trkpt lat="43.112938" lon="-2.189049">
        <ele>655.369</ele>
        <time>2021-03-21T09:51:17Z</time>
      </trkpt>
      <trkpt lat="43.112922" lon="-2.189079">
        <ele>655.366</ele>
        <time>2021-03-21T09:51:18Z</time>
      </trkpt>
      <trkpt lat="43.112900" lon="-2.189108">
        <ele>655.454</ele>
        <time>2021-03-21T09:51:19Z</time>
      </trkpt>
      <trkpt lat="43.112878" lon="-2.189135">
        <ele>655.634</ele>
        <time>2021-03-21T09:51:20Z</time>
      </trkpt>
      <trkpt lat="43.112858" lon="-2.189161">
        <ele>655.854</ele>
        <time>2021-03-21T09:51:21Z</time>
      </trkpt>
      <trkpt lat="43.112837" lon="-2.189189">
        <ele>656.026</ele>
        <time>2021-03-21T09:51:22Z</time>
      </trkpt>
      <trkpt lat="43.112819" lon="-2.189226">
        <ele>655.947</ele>
        <time>2021-03-21T09:51:23Z</time>
      </trkpt>
      <trkpt lat="43.112803" lon="-2.189263">
        <ele>655.911</ele>
        <time>2021-03-21T09:51:24Z</time>
      </trkpt>
      <trkpt lat="43.112793" lon="-2.189296">
        <ele>655.708</ele>
        <time>2021-03-21T09:51:25Z</time>
      </trkpt>
      <trkpt lat="43.112780" lon="-2.189330">
        <ele>655.648</ele>
        <time>2021-03-21T09:51:26Z</time>
      </trkpt>
      <trkpt lat="43.112769" lon="-2.189361">
        <ele>655.441</ele>
        <time>2021-03-21T09:51:27Z</time>
      </trkpt>
      <trkpt lat="43.112755" lon="-2.189392">
        <ele>655.474</ele>
        <time>2021-03-21T09:51:28Z</time>
      </trkpt>
      <trkpt lat="43.112739" lon="-2.189417">
        <ele>655.445</ele>
        <time>2021-03-21T09:51:29Z</time>
      </trkpt>
      <trkpt lat="43.112725" lon="-2.189441">
        <ele>655.492</ele>
        <time>2021-03-21T09:51:30Z</time>
      </trkpt>
      <trkpt lat="43.112706" lon="-2.189464">
        <ele>655.420</ele>
        <time>2021-03-21T09:51:31Z</time>
      </trkpt>
      <trkpt lat="43.112687" lon="-2.189485">
        <ele>655.450</ele>
        <time>2021-03-21T09:51:32Z</time>
      </trkpt>
      <trkpt lat="43.112670" lon="-2.189504">
        <ele>655.390</ele>
        <time>2021-03-21T09:51:33Z</time>
      </trkpt>
      <trkpt lat="43.112653" lon="-2.189524">
        <ele>655.255</ele>
        <time>2021-03-21T09:51:34Z</time>
      </trkpt>
      <trkpt lat="43.112634" lon="-2.189542">
        <ele>655.107</ele>
        <time>2021-03-21T09:51:35Z</time>
      </trkpt>
      <trkpt lat="43.112612" lon="-2.189560">
        <ele>655.117</ele>
        <time>2021-03-21T09:51:36Z</time>
      </trkpt>
      <trkpt lat="43.112591" lon="-2.189577">
        <ele>655.008</ele>
        <time>2021-03-21T09:51:37Z</time>
      </trkpt>
      <trkpt lat="43.112568" lon="-2.189591">
        <ele>655.131</ele>
        <time>2021-03-21T09:51:38Z</time>
      </trkpt>
      <trkpt lat="43.112548" lon="-2.189598">
        <ele>655.244</ele>
        <time>2021-03-21T09:51:39Z</time>
      </trkpt>
      <trkpt lat="43.112529" lon="-2.189602">
        <ele>655.487</ele>
        <time>2021-03-21T09:51:40Z</time>
      </trkpt>
      <trkpt lat="43.112509" lon="-2.189604">
        <ele>655.728</ele>
        <time>2021-03-21T09:51:41Z</time>
      </trkpt>
      <trkpt lat="43.112491" lon="-2.189604">
        <ele>655.795</ele>
        <time>2021-03-21T09:51:42Z</time>
      </trkpt>
      <trkpt lat="43.112471" lon="-2.189602">
        <ele>655.673</ele>
        <time>2021-03-21T09:51:43Z</time>
      </trkpt>
      <trkpt lat="43.112450" lon="-2.189599">
        <ele>655.463</ele>
        <time>2021-03-21T09:51:44Z</time>
      </trkpt>
      <trkpt lat="43.112433" lon="-2.189592">
        <ele>655.563</ele>
        <time>2021-03-21T09:51:45Z</time>
      </trkpt>
      <trkpt lat="43.112411" lon="-2.189585">
        <ele>655.536</ele>
        <time>2021-03-21T09:51:46Z</time>
      </trkpt>
      <trkpt lat="43.112365" lon="-2.189575">
        <ele>655.317</ele>
        <time>2021-03-21T09:51:47Z</time>
      </trkpt>
      <trkpt lat="43.112342" lon="-2.189564">
        <ele>655.518</ele>
        <time>2021-03-21T09:51:49Z</time>
      </trkpt>
      <trkpt lat="43.112322" lon="-2.189553">
        <ele>655.708</ele>
        <time>2021-03-21T09:51:50Z</time>
      </trkpt>
      <trkpt lat="43.112301" lon="-2.189547">
        <ele>655.759</ele>
        <time>2021-03-21T09:51:51Z</time>
      </trkpt>
      <trkpt lat="43.112285" lon="-2.189533">
        <ele>656.182</ele>
        <time>2021-03-21T09:51:52Z</time>
      </trkpt>
      <trkpt lat="43.112249" lon="-2.189505">
        <ele>656.885</ele>
        <time>2021-03-21T09:51:54Z</time>
      </trkpt>
      <trkpt lat="43.112230" lon="-2.189495">
        <ele>657.146</ele>
        <time>2021-03-21T09:51:55Z</time>
      </trkpt>
      <trkpt lat="43.112208" lon="-2.189488">
        <ele>657.033</ele>
        <time>2021-03-21T09:51:56Z</time>
      </trkpt>
      <trkpt lat="43.112159" lon="-2.189472">
        <ele>656.571</ele>
        <time>2021-03-21T09:51:57Z</time>
      </trkpt>
      <trkpt lat="43.112134" lon="-2.189466">
        <ele>656.261</ele>
        <time>2021-03-21T09:51:59Z</time>
      </trkpt>
      <trkpt lat="43.112114" lon="-2.189453">
        <ele>656.341</ele>
        <time>2021-03-21T09:52:00Z</time>
      </trkpt>
      <trkpt lat="43.112089" lon="-2.189436">
        <ele>656.453</ele>
        <time>2021-03-21T09:52:01Z</time>
      </trkpt>
      <trkpt lat="43.112065" lon="-2.189423">
        <ele>656.304</ele>
        <time>2021-03-21T09:52:02Z</time>
      </trkpt>
      <trkpt lat="43.112041" lon="-2.189410">
        <ele>656.314</ele>
        <time>2021-03-21T09:52:03Z</time>
      </trkpt>
      <trkpt lat="43.112019" lon="-2.189392">
        <ele>656.408</ele>
        <time>2021-03-21T09:52:04Z</time>
      </trkpt>
      <trkpt lat="43.111996" lon="-2.189379">
        <ele>656.431</ele>
        <time>2021-03-21T09:52:05Z</time>
      </trkpt>
      <trkpt lat="43.111971" lon="-2.189370">
        <ele>656.244</ele>
        <time>2021-03-21T09:52:06Z</time>
      </trkpt>
      <trkpt lat="43.111940" lon="-2.189360">
        <ele>656.087</ele>
        <time>2021-03-21T09:52:07Z</time>
      </trkpt>
      <trkpt lat="43.111909" lon="-2.189353">
        <ele>655.868</ele>
        <time>2021-03-21T09:52:08Z</time>
      </trkpt>
      <trkpt lat="43.111882" lon="-2.189345">
        <ele>655.795</ele>
        <time>2021-03-21T09:52:09Z</time>
      </trkpt>
      <trkpt lat="43.111848" lon="-2.189341">
        <ele>655.383</ele>
        <time>2021-03-21T09:52:10Z</time>
      </trkpt>
      <trkpt lat="43.111813" lon="-2.189339">
        <ele>654.853</ele>
        <time>2021-03-21T09:52:11Z</time>
      </trkpt>
      <trkpt lat="43.111783" lon="-2.189333">
        <ele>654.663</ele>
        <time>2021-03-21T09:52:12Z</time>
      </trkpt>
      <trkpt lat="43.111721" lon="-2.189333">
        <ele>653.617</ele>
        <time>2021-03-21T09:52:13Z</time>
      </trkpt>
      <trkpt lat="43.111688" lon="-2.189338">
        <ele>653.087</ele>
        <time>2021-03-21T09:52:15Z</time>
      </trkpt>
      <trkpt lat="43.111656" lon="-2.189343">
        <ele>652.515</ele>
        <time>2021-03-21T09:52:16Z</time>
      </trkpt>
      <trkpt lat="43.111626" lon="-2.189349">
        <ele>652.208</ele>
        <time>2021-03-21T09:52:17Z</time>
      </trkpt>
      <trkpt lat="43.111599" lon="-2.189354">
        <ele>651.917</ele>
        <time>2021-03-21T09:52:18Z</time>
      </trkpt>
      <trkpt lat="43.111571" lon="-2.189359">
        <ele>651.660</ele>
        <time>2021-03-21T09:52:19Z</time>
      </trkpt>
      <trkpt lat="43.111540" lon="-2.189368">
        <ele>651.293</ele>
        <time>2021-03-21T09:52:20Z</time>
      </trkpt>
      <trkpt lat="43.111512" lon="-2.189376">
        <ele>650.954</ele>
        <time>2021-03-21T09:52:21Z</time>
      </trkpt>
      <trkpt lat="43.111482" lon="-2.189384">
        <ele>650.691</ele>
        <time>2021-03-21T09:52:22Z</time>
      </trkpt>
      <trkpt lat="43.111450" lon="-2.189388">
        <ele>650.319</ele>
        <time>2021-03-21T09:52:23Z</time>
      </trkpt>
      <trkpt lat="43.111418" lon="-2.189394">
        <ele>650.139</ele>
        <time>2021-03-21T09:52:24Z</time>
      </trkpt>
      <trkpt lat="43.111384" lon="-2.189403">
        <ele>649.749</ele>
        <time>2021-03-21T09:52:25Z</time>
      </trkpt>
      <trkpt lat="43.111348" lon="-2.189412">
        <ele>649.287</ele>
        <time>2021-03-21T09:52:26Z</time>
      </trkpt>
      <trkpt lat="43.111317" lon="-2.189419">
        <ele>648.942</ele>
        <time>2021-03-21T09:52:27Z</time>
      </trkpt>
      <trkpt lat="43.111285" lon="-2.189423">
        <ele>648.626</ele>
        <time>2021-03-21T09:52:28Z</time>
      </trkpt>
      <trkpt lat="43.111254" lon="-2.189425">
        <ele>648.308</ele>
        <time>2021-03-21T09:52:29Z</time>
      </trkpt>
      <trkpt lat="43.111227" lon="-2.189425">
        <ele>648.184</ele>
        <time>2021-03-21T09:52:30Z</time>
      </trkpt>
      <trkpt lat="43.111195" lon="-2.189423">
        <ele>647.837</ele>
        <time>2021-03-21T09:52:31Z</time>
      </trkpt>
      <trkpt lat="43.111165" lon="-2.189425">
        <ele>647.670</ele>
        <time>2021-03-21T09:52:32Z</time>
      </trkpt>
      <trkpt lat="43.111136" lon="-2.189420">
        <ele>647.441</ele>
        <time>2021-03-21T09:52:33Z</time>
      </trkpt>
      <trkpt lat="43.111107" lon="-2.189410">
        <ele>647.248</ele>
        <time>2021-03-21T09:52:34Z</time>
      </trkpt>
      <trkpt lat="43.111081" lon="-2.189399">
        <ele>646.856</ele>
        <time>2021-03-21T09:52:35Z</time>
      </trkpt>
      <trkpt lat="43.111053" lon="-2.189383">
        <ele>646.576</ele>
        <time>2021-03-21T09:52:36Z</time>
      </trkpt>
      <trkpt lat="43.111018" lon="-2.189371">
        <ele>645.936</ele>
        <time>2021-03-21T09:52:37Z</time>
      </trkpt>
      <trkpt lat="43.110989" lon="-2.189358">
        <ele>645.554</ele>
        <time>2021-03-21T09:52:38Z</time>
      </trkpt>
      <trkpt lat="43.110961" lon="-2.189346">
        <ele>645.056</ele>
        <time>2021-03-21T09:52:39Z</time>
      </trkpt>
      <trkpt lat="43.110929" lon="-2.189333">
        <ele>644.411</ele>
        <time>2021-03-21T09:52:40Z</time>
      </trkpt>
      <trkpt lat="43.110898" lon="-2.189318">
        <ele>643.808</ele>
        <time>2021-03-21T09:52:41Z</time>
      </trkpt>
      <trkpt lat="43.110872" lon="-2.189305">
        <ele>643.381</ele>
        <time>2021-03-21T09:52:42Z</time>
      </trkpt>
      <trkpt lat="43.110845" lon="-2.189295">
        <ele>642.734</ele>
        <time>2021-03-21T09:52:43Z</time>
      </trkpt>
      <trkpt lat="43.110814" lon="-2.189288">
        <ele>642.177</ele>
        <time>2021-03-21T09:52:44Z</time>
      </trkpt>
      <trkpt lat="43.110786" lon="-2.189285">
        <ele>641.758</ele>
        <time>2021-03-21T09:52:45Z</time>
      </trkpt>
      <trkpt lat="43.110756" lon="-2.189285">
        <ele>641.255</ele>
        <time>2021-03-21T09:52:46Z</time>
      </trkpt>
      <trkpt lat="43.110725" lon="-2.189287">
        <ele>640.733</ele>
        <time>2021-03-21T09:52:47Z</time>
      </trkpt>
      <trkpt lat="43.110694" lon="-2.189292">
        <ele>640.383</ele>
        <time>2021-03-21T09:52:48Z</time>
      </trkpt>
      <trkpt lat="43.110665" lon="-2.189300">
        <ele>640.063</ele>
        <time>2021-03-21T09:52:49Z</time>
      </trkpt>
      <trkpt lat="43.110635" lon="-2.189311">
        <ele>639.754</ele>
        <time>2021-03-21T09:52:50Z</time>
      </trkpt>
      <trkpt lat="43.110608" lon="-2.189328">
        <ele>639.756</ele>
        <time>2021-03-21T09:52:51Z</time>
      </trkpt>
      <trkpt lat="43.110581" lon="-2.189347">
        <ele>639.811</ele>
        <time>2021-03-21T09:52:52Z</time>
      </trkpt>
      <trkpt lat="43.110553" lon="-2.189365">
        <ele>640.008</ele>
        <time>2021-03-21T09:52:53Z</time>
      </trkpt>
      <trkpt lat="43.110526" lon="-2.189386">
        <ele>640.371</ele>
        <time>2021-03-21T09:52:54Z</time>
      </trkpt>
      <trkpt lat="43.110473" lon="-2.189427">
        <ele>640.954</ele>
        <time>2021-03-21T09:52:55Z</time>
      </trkpt>
      <trkpt lat="43.110446" lon="-2.189445">
        <ele>641.277</ele>
        <time>2021-03-21T09:52:57Z</time>
      </trkpt>
      <trkpt lat="43.110421" lon="-2.189464">
        <ele>640.848</ele>
        <time>2021-03-21T09:52:58Z</time>
      </trkpt>
      <trkpt lat="43.110393" lon="-2.189483">
        <ele>640.565</ele>
        <time>2021-03-21T09:52:59Z</time>
      </trkpt>
      <trkpt lat="43.110367" lon="-2.189503">
        <ele>640.263</ele>
        <time>2021-03-21T09:53:00Z</time>
      </trkpt>
      <trkpt lat="43.110341" lon="-2.189523">
        <ele>639.923</ele>
        <time>2021-03-21T09:53:01Z</time>
      </trkpt>
      <trkpt lat="43.110312" lon="-2.189543">
        <ele>639.753</ele>
        <time>2021-03-21T09:53:02Z</time>
      </trkpt>
      <trkpt lat="43.110283" lon="-2.189559">
        <ele>639.628</ele>
        <time>2021-03-21T09:53:03Z</time>
      </trkpt>
      <trkpt lat="43.110255" lon="-2.189575">
        <ele>639.789</ele>
        <time>2021-03-21T09:53:04Z</time>
      </trkpt>
      <trkpt lat="43.110228" lon="-2.189589">
        <ele>639.917</ele>
        <time>2021-03-21T09:53:05Z</time>
      </trkpt>
      <trkpt lat="43.110200" lon="-2.189600">
        <ele>640.108</ele>
        <time>2021-03-21T09:53:06Z</time>
      </trkpt>
      <trkpt lat="43.110173" lon="-2.189613">
        <ele>640.378</ele>
        <time>2021-03-21T09:53:07Z</time>
      </trkpt>
      <trkpt lat="43.110145" lon="-2.189629">
        <ele>640.611</ele>
        <time>2021-03-21T09:53:08Z</time>
      </trkpt>
      <trkpt lat="43.110119" lon="-2.189647">
        <ele>640.984</ele>
        <time>2021-03-21T09:53:09Z</time>
      </trkpt>
      <trkpt lat="43.110093" lon="-2.189664">
        <ele>641.345</ele>
        <time>2021-03-21T09:53:10Z</time>
      </trkpt>
      <trkpt lat="43.110067" lon="-2.189676">
        <ele>641.742</ele>
        <time>2021-03-21T09:53:11Z</time>
      </trkpt>
      <trkpt lat="43.110041" lon="-2.189688">
        <ele>642.130</ele>
        <time>2021-03-21T09:53:12Z</time>
      </trkpt>
      <trkpt lat="43.110020" lon="-2.189705">
        <ele>642.590</ele>
        <time>2021-03-21T09:53:13Z</time>
      </trkpt>
      <trkpt lat="43.109999" lon="-2.189718">
        <ele>643.070</ele>
        <time>2021-03-21T09:53:14Z</time>
      </trkpt>
      <trkpt lat="43.109978" lon="-2.189735">
        <ele>643.126</ele>
        <time>2021-03-21T09:53:15Z</time>
      </trkpt>
      <trkpt lat="43.109959" lon="-2.189753">
        <ele>643.147</ele>
        <time>2021-03-21T09:53:16Z</time>
      </trkpt>
      <trkpt lat="43.109941" lon="-2.189772">
        <ele>643.011</ele>
        <time>2021-03-21T09:53:17Z</time>
      </trkpt>
      <trkpt lat="43.109922" lon="-2.189794">
        <ele>643.008</ele>
        <time>2021-03-21T09:53:18Z</time>
      </trkpt>
      <trkpt lat="43.109906" lon="-2.189816">
        <ele>642.978</ele>
        <time>2021-03-21T09:53:19Z</time>
      </trkpt>
      <trkpt lat="43.109888" lon="-2.189836">
        <ele>643.051</ele>
        <time>2021-03-21T09:53:20Z</time>
      </trkpt>
      <trkpt lat="43.109873" lon="-2.189856">
        <ele>643.094</ele>
        <time>2021-03-21T09:53:21Z</time>
      </trkpt>
      <trkpt lat="43.109861" lon="-2.189877">
        <ele>642.995</ele>
        <time>2021-03-21T09:53:22Z</time>
      </trkpt>
      <trkpt lat="43.109847" lon="-2.189896">
        <ele>643.012</ele>
        <time>2021-03-21T09:53:23Z</time>
      </trkpt>
      <trkpt lat="43.109828" lon="-2.189916">
        <ele>643.320</ele>
        <time>2021-03-21T09:53:24Z</time>
      </trkpt>
      <trkpt lat="43.109801" lon="-2.189948">
        <ele>643.710</ele>
        <time>2021-03-21T09:53:26Z</time>
      </trkpt>
      <trkpt lat="43.109786" lon="-2.189968">
        <ele>644.050</ele>
        <time>2021-03-21T09:53:27Z</time>
      </trkpt>
      <trkpt lat="43.109768" lon="-2.189989">
        <ele>644.354</ele>
        <time>2021-03-21T09:53:28Z</time>
      </trkpt>
      <trkpt lat="43.109751" lon="-2.190015">
        <ele>644.456</ele>
        <time>2021-03-21T09:53:29Z</time>
      </trkpt>
      <trkpt lat="43.109734" lon="-2.190042">
        <ele>644.311</ele>
        <time>2021-03-21T09:53:30Z</time>
      </trkpt>
      <trkpt lat="43.109720" lon="-2.190069">
        <ele>644.108</ele>
        <time>2021-03-21T09:53:31Z</time>
      </trkpt>
      <trkpt lat="43.109708" lon="-2.190097">
        <ele>643.821</ele>
        <time>2021-03-21T09:53:32Z</time>
      </trkpt>
      <trkpt lat="43.109695" lon="-2.190124">
        <ele>643.784</ele>
        <time>2021-03-21T09:53:33Z</time>
      </trkpt>
      <trkpt lat="43.109684" lon="-2.190148">
        <ele>643.667</ele>
        <time>2021-03-21T09:53:34Z</time>
      </trkpt>
      <trkpt lat="43.109677" lon="-2.190176">
        <ele>643.338</ele>
        <time>2021-03-21T09:53:35Z</time>
      </trkpt>
      <trkpt lat="43.109665" lon="-2.190210">
        <ele>643.185</ele>
        <time>2021-03-21T09:53:36Z</time>
      </trkpt>
      <trkpt lat="43.109652" lon="-2.190243">
        <ele>643.183</ele>
        <time>2021-03-21T09:53:37Z</time>
      </trkpt>
      <trkpt lat="43.109642" lon="-2.190273">
        <ele>643.013</ele>
        <time>2021-03-21T09:53:38Z</time>
      </trkpt>
      <trkpt lat="43.109632" lon="-2.190303">
        <ele>643.223</ele>
        <time>2021-03-21T09:53:39Z</time>
      </trkpt>
      <trkpt lat="43.109622" lon="-2.190330">
        <ele>643.495</ele>
        <time>2021-03-21T09:53:40Z</time>
      </trkpt>
      <trkpt lat="43.109611" lon="-2.190356">
        <ele>643.749</ele>
        <time>2021-03-21T09:53:41Z</time>
      </trkpt>
      <trkpt lat="43.109598" lon="-2.190381">
        <ele>644.223</ele>
        <time>2021-03-21T09:53:42Z</time>
      </trkpt>
      <trkpt lat="43.109584" lon="-2.190403">
        <ele>644.708</ele>
        <time>2021-03-21T09:53:43Z</time>
      </trkpt>
      <trkpt lat="43.109576" lon="-2.190428">
        <ele>644.865</ele>
        <time>2021-03-21T09:53:44Z</time>
      </trkpt>
      <trkpt lat="43.109567" lon="-2.190450">
        <ele>644.988</ele>
        <time>2021-03-21T09:53:45Z</time>
      </trkpt>
      <trkpt lat="43.109550" lon="-2.190488">
        <ele>645.391</ele>
        <time>2021-03-21T09:53:47Z</time>
      </trkpt>
      <trkpt lat="43.109537" lon="-2.190508">
        <ele>645.742</ele>
        <time>2021-03-21T09:53:48Z</time>
      </trkpt>
      <trkpt lat="43.109523" lon="-2.190527">
        <ele>646.299</ele>
        <time>2021-03-21T09:53:49Z</time>
      </trkpt>
      <trkpt lat="43.109502" lon="-2.190563">
        <ele>646.757</ele>
        <time>2021-03-21T09:53:51Z</time>
      </trkpt>
      <trkpt lat="43.109479" lon="-2.190588">
        <ele>647.367</ele>
        <time>2021-03-21T09:53:53Z</time>
      </trkpt>
      <trkpt lat="43.109455" lon="-2.190612">
        <ele>648.037</ele>
        <time>2021-03-21T09:53:55Z</time>
      </trkpt>
      <trkpt lat="43.109436" lon="-2.190643">
        <ele>648.197</ele>
        <time>2021-03-21T09:53:57Z</time>
      </trkpt>
      <trkpt lat="43.109419" lon="-2.190675">
        <ele>647.823</ele>
        <time>2021-03-21T09:53:59Z</time>
      </trkpt>
      <trkpt lat="43.109395" lon="-2.190706">
        <ele>647.925</ele>
        <time>2021-03-21T09:54:01Z</time>
      </trkpt>
      <trkpt lat="43.109378" lon="-2.190736">
        <ele>647.808</ele>
        <time>2021-03-21T09:54:03Z</time>
      </trkpt>
      <trkpt lat="43.109358" lon="-2.190770">
        <ele>647.865</ele>
        <time>2021-03-21T09:54:05Z</time>
      </trkpt>
      <trkpt lat="43.109336" lon="-2.190801">
        <ele>648.068</ele>
        <time>2021-03-21T09:54:07Z</time>
      </trkpt>
      <trkpt lat="43.109315" lon="-2.190835">
        <ele>648.121</ele>
        <time>2021-03-21T09:54:09Z</time>
      </trkpt>
      <trkpt lat="43.109295" lon="-2.190867">
        <ele>648.382</ele>
        <time>2021-03-21T09:54:11Z</time>
      </trkpt>
      <trkpt lat="43.109273" lon="-2.190902">
        <ele>648.689</ele>
        <time>2021-03-21T09:54:13Z</time>
      </trkpt>
      <trkpt lat="43.109250" lon="-2.190935">
        <ele>649.087</ele>
        <time>2021-03-21T09:54:15Z</time>
      </trkpt>
      <trkpt lat="43.109223" lon="-2.190963">
        <ele>649.747</ele>
        <time>2021-03-21T09:54:17Z</time>
      </trkpt>
      <trkpt lat="43.109201" lon="-2.190989">
        <ele>650.327</ele>
        <time>2021-03-21T09:54:19Z</time>
      </trkpt>
      <trkpt lat="43.109191" lon="-2.191008">
        <ele>650.474</ele>
        <time>2021-03-21T09:54:20Z</time>
      </trkpt>
      <trkpt lat="43.109175" lon="-2.191042">
        <ele>650.656</ele>
        <time>2021-03-21T09:54:22Z</time>
      </trkpt>
      <trkpt lat="43.109164" lon="-2.191078">
        <ele>650.521</ele>
        <time>2021-03-21T09:54:24Z</time>
      </trkpt>
      <trkpt lat="43.109148" lon="-2.191115">
        <ele>650.508</ele>
        <time>2021-03-21T09:54:26Z</time>
      </trkpt>
      <trkpt lat="43.109134" lon="-2.191157">
        <ele>650.733</ele>
        <time>2021-03-21T09:54:28Z</time>
      </trkpt>
      <trkpt lat="43.109121" lon="-2.191199">
        <ele>650.986</ele>
        <time>2021-03-21T09:54:30Z</time>
      </trkpt>
      <trkpt lat="43.109112" lon="-2.191229">
        <ele>651.159</ele>
        <time>2021-03-21T09:54:32Z</time>
      </trkpt>
      <trkpt lat="43.109099" lon="-2.191269">
        <ele>651.470</ele>
        <time>2021-03-21T09:54:34Z</time>
      </trkpt>
      <trkpt lat="43.109087" lon="-2.191307">
        <ele>651.757</ele>
        <time>2021-03-21T09:54:36Z</time>
      </trkpt>
      <trkpt lat="43.109082" lon="-2.191347">
        <ele>651.875</ele>
        <time>2021-03-21T09:54:38Z</time>
      </trkpt>
      <trkpt lat="43.109072" lon="-2.191391">
        <ele>652.195</ele>
        <time>2021-03-21T09:54:40Z</time>
      </trkpt>
      <trkpt lat="43.109061" lon="-2.191429">
        <ele>652.415</ele>
        <time>2021-03-21T09:54:42Z</time>
      </trkpt>
      <trkpt lat="43.109045" lon="-2.191463">
        <ele>652.944</ele>
        <time>2021-03-21T09:54:44Z</time>
      </trkpt>
      <trkpt lat="43.109030" lon="-2.191494">
        <ele>653.405</ele>
        <time>2021-03-21T09:54:46Z</time>
      </trkpt>
      <trkpt lat="43.109019" lon="-2.191526">
        <ele>653.815</ele>
        <time>2021-03-21T09:54:48Z</time>
      </trkpt>
      <trkpt lat="43.109003" lon="-2.191558">
        <ele>654.408</ele>
        <time>2021-03-21T09:54:49Z</time>
      </trkpt>
      <trkpt lat="43.108985" lon="-2.191592">
        <ele>655.110</ele>
        <time>2021-03-21T09:54:52Z</time>
      </trkpt>
      <trkpt lat="43.108969" lon="-2.191623">
        <ele>655.843</ele>
        <time>2021-03-21T09:54:54Z</time>
      </trkpt>
      <trkpt lat="43.108958" lon="-2.191651">
        <ele>656.216</ele>
        <time>2021-03-21T09:54:56Z</time>
      </trkpt>
      <trkpt lat="43.108949" lon="-2.191678">
        <ele>656.667</ele>
        <time>2021-03-21T09:54:58Z</time>
      </trkpt>
      <trkpt lat="43.108927" lon="-2.191712">
        <ele>657.334</ele>
        <time>2021-03-21T09:55:00Z</time>
      </trkpt>
      <trkpt lat="43.108910" lon="-2.191749">
        <ele>657.832</ele>
        <time>2021-03-21T09:55:02Z</time>
      </trkpt>
      <trkpt lat="43.108894" lon="-2.191782">
        <ele>658.432</ele>
        <time>2021-03-21T09:55:04Z</time>
      </trkpt>
      <trkpt lat="43.108877" lon="-2.191814">
        <ele>658.482</ele>
        <time>2021-03-21T09:55:06Z</time>
      </trkpt>
      <trkpt lat="43.108867" lon="-2.191847">
        <ele>658.246</ele>
        <time>2021-03-21T09:55:08Z</time>
      </trkpt>
      <trkpt lat="43.108852" lon="-2.191885">
        <ele>658.188</ele>
        <time>2021-03-21T09:55:10Z</time>
      </trkpt>
      <trkpt lat="43.108840" lon="-2.191928">
        <ele>658.016</ele>
        <time>2021-03-21T09:55:12Z</time>
      </trkpt>
      <trkpt lat="43.108825" lon="-2.191963">
        <ele>658.008</ele>
        <time>2021-03-21T09:55:14Z</time>
      </trkpt>
      <trkpt lat="43.108812" lon="-2.191999">
        <ele>658.040</ele>
        <time>2021-03-21T09:55:16Z</time>
      </trkpt>
      <trkpt lat="43.108798" lon="-2.192037">
        <ele>658.083</ele>
        <time>2021-03-21T09:55:18Z</time>
      </trkpt>
      <trkpt lat="43.108780" lon="-2.192072">
        <ele>658.016</ele>
        <time>2021-03-21T09:55:20Z</time>
      </trkpt>
      <trkpt lat="43.108762" lon="-2.192106">
        <ele>658.027</ele>
        <time>2021-03-21T09:55:22Z</time>
      </trkpt>
      <trkpt lat="43.108746" lon="-2.192140">
        <ele>658.014</ele>
        <time>2021-03-21T09:55:24Z</time>
      </trkpt>
      <trkpt lat="43.108734" lon="-2.192175">
        <ele>658.092</ele>
        <time>2021-03-21T09:55:26Z</time>
      </trkpt>
      <trkpt lat="43.108723" lon="-2.192212">
        <ele>658.072</ele>
        <time>2021-03-21T09:55:28Z</time>
      </trkpt>
      <trkpt lat="43.108710" lon="-2.192251">
        <ele>658.092</ele>
        <time>2021-03-21T09:55:30Z</time>
      </trkpt>
      <trkpt lat="43.108699" lon="-2.192288">
        <ele>658.189</ele>
        <time>2021-03-21T09:55:32Z</time>
      </trkpt>
      <trkpt lat="43.108689" lon="-2.192326">
        <ele>658.206</ele>
        <time>2021-03-21T09:55:34Z</time>
      </trkpt>
      <trkpt lat="43.108677" lon="-2.192365">
        <ele>658.326</ele>
        <time>2021-03-21T09:55:36Z</time>
      </trkpt>
      <trkpt lat="43.108667" lon="-2.192405">
        <ele>658.408</ele>
        <time>2021-03-21T09:55:38Z</time>
      </trkpt>
      <trkpt lat="43.108653" lon="-2.192455">
        <ele>658.694</ele>
        <time>2021-03-21T09:55:40Z</time>
      </trkpt>
      <trkpt lat="43.108648" lon="-2.192485">
        <ele>658.767</ele>
        <time>2021-03-21T09:55:41Z</time>
      </trkpt>
      <trkpt lat="43.108636" lon="-2.192512">
        <ele>658.860</ele>
        <time>2021-03-21T09:55:42Z</time>
      </trkpt>
      <trkpt lat="43.108624" lon="-2.192540">
        <ele>658.871</ele>
        <time>2021-03-21T09:55:43Z</time>
      </trkpt>
      <trkpt lat="43.108612" lon="-2.192571">
        <ele>658.788</ele>
        <time>2021-03-21T09:55:44Z</time>
      </trkpt>
      <trkpt lat="43.108602" lon="-2.192603">
        <ele>658.516</ele>
        <time>2021-03-21T09:55:45Z</time>
      </trkpt>
      <trkpt lat="43.108591" lon="-2.192636">
        <ele>658.376</ele>
        <time>2021-03-21T09:55:46Z</time>
      </trkpt>
      <trkpt lat="43.108577" lon="-2.192669">
        <ele>658.076</ele>
        <time>2021-03-21T09:55:47Z</time>
      </trkpt>
      <trkpt lat="43.108562" lon="-2.192700">
        <ele>657.842</ele>
        <time>2021-03-21T09:55:48Z</time>
      </trkpt>
      <trkpt lat="43.108549" lon="-2.192731">
        <ele>657.622</ele>
        <time>2021-03-21T09:55:49Z</time>
      </trkpt>
      <trkpt lat="43.108536" lon="-2.192760">
        <ele>657.514</ele>
        <time>2021-03-21T09:55:50Z</time>
      </trkpt>
      <trkpt lat="43.108522" lon="-2.192793">
        <ele>657.108</ele>
        <time>2021-03-21T09:55:51Z</time>
      </trkpt>
      <trkpt lat="43.108507" lon="-2.192825">
        <ele>656.490</ele>
        <time>2021-03-21T09:55:52Z</time>
      </trkpt>
      <trkpt lat="43.108492" lon="-2.192855">
        <ele>655.873</ele>
        <time>2021-03-21T09:55:53Z</time>
      </trkpt>
      <trkpt lat="43.108470" lon="-2.192885">
        <ele>655.376</ele>
        <time>2021-03-21T09:55:54Z</time>
      </trkpt>
      <trkpt lat="43.108449" lon="-2.192909">
        <ele>654.847</ele>
        <time>2021-03-21T09:55:55Z</time>
      </trkpt>
      <trkpt lat="43.108425" lon="-2.192933">
        <ele>654.434</ele>
        <time>2021-03-21T09:55:56Z</time>
      </trkpt>
      <trkpt lat="43.108397" lon="-2.192954">
        <ele>654.132</ele>
        <time>2021-03-21T09:55:57Z</time>
      </trkpt>
      <trkpt lat="43.108369" lon="-2.192970">
        <ele>653.982</ele>
        <time>2021-03-21T09:55:58Z</time>
      </trkpt>
      <trkpt lat="43.108341" lon="-2.192984">
        <ele>653.862</ele>
        <time>2021-03-21T09:55:59Z</time>
      </trkpt>
      <trkpt lat="43.108312" lon="-2.192992">
        <ele>653.431</ele>
        <time>2021-03-21T09:56:00Z</time>
      </trkpt>
      <trkpt lat="43.108282" lon="-2.192998">
        <ele>652.961</ele>
        <time>2021-03-21T09:56:01Z</time>
      </trkpt>
      <trkpt lat="43.108247" lon="-2.193001">
        <ele>652.407</ele>
        <time>2021-03-21T09:56:02Z</time>
      </trkpt>
      <trkpt lat="43.108216" lon="-2.193007">
        <ele>652.008</ele>
        <time>2021-03-21T09:56:03Z</time>
      </trkpt>
      <trkpt lat="43.108187" lon="-2.193013">
        <ele>651.649</ele>
        <time>2021-03-21T09:56:04Z</time>
      </trkpt>
      <trkpt lat="43.108154" lon="-2.193023">
        <ele>651.172</ele>
        <time>2021-03-21T09:56:05Z</time>
      </trkpt>
      <trkpt lat="43.108122" lon="-2.193039">
        <ele>650.765</ele>
        <time>2021-03-21T09:56:06Z</time>
      </trkpt>
      <trkpt lat="43.108090" lon="-2.193059">
        <ele>650.486</ele>
        <time>2021-03-21T09:56:07Z</time>
      </trkpt>
      <trkpt lat="43.108059" lon="-2.193081">
        <ele>649.993</ele>
        <time>2021-03-21T09:56:08Z</time>
      </trkpt>
      <trkpt lat="43.108030" lon="-2.193106">
        <ele>649.651</ele>
        <time>2021-03-21T09:56:09Z</time>
      </trkpt>
      <trkpt lat="43.108004" lon="-2.193129">
        <ele>649.431</ele>
        <time>2021-03-21T09:56:10Z</time>
      </trkpt>
      <trkpt lat="43.107975" lon="-2.193151">
        <ele>649.271</ele>
        <time>2021-03-21T09:56:11Z</time>
      </trkpt>
      <trkpt lat="43.107948" lon="-2.193174">
        <ele>649.139</ele>
        <time>2021-03-21T09:56:12Z</time>
      </trkpt>
      <trkpt lat="43.107919" lon="-2.193197">
        <ele>649.001</ele>
        <time>2021-03-21T09:56:13Z</time>
      </trkpt>
      <trkpt lat="43.107891" lon="-2.193221">
        <ele>649.021</ele>
        <time>2021-03-21T09:56:14Z</time>
      </trkpt>
      <trkpt lat="43.107864" lon="-2.193243">
        <ele>649.108</ele>
        <time>2021-03-21T09:56:15Z</time>
      </trkpt>
      <trkpt lat="43.107839" lon="-2.193260">
        <ele>649.279</ele>
        <time>2021-03-21T09:56:16Z</time>
      </trkpt>
      <trkpt lat="43.107812" lon="-2.193275">
        <ele>649.462</ele>
        <time>2021-03-21T09:56:17Z</time>
      </trkpt>
      <trkpt lat="43.107787" lon="-2.193287">
        <ele>649.515</ele>
        <time>2021-03-21T09:56:18Z</time>
      </trkpt>
      <trkpt lat="43.107763" lon="-2.193296">
        <ele>649.646</ele>
        <time>2021-03-21T09:56:19Z</time>
      </trkpt>
      <trkpt lat="43.107739" lon="-2.193304">
        <ele>649.743</ele>
        <time>2021-03-21T09:56:20Z</time>
      </trkpt>
      <trkpt lat="43.107715" lon="-2.193309">
        <ele>649.951</ele>
        <time>2021-03-21T09:56:21Z</time>
      </trkpt>
      <trkpt lat="43.107693" lon="-2.193311">
        <ele>649.961</ele>
        <time>2021-03-21T09:56:22Z</time>
      </trkpt>
      <trkpt lat="43.107674" lon="-2.193310">
        <ele>650.021</ele>
        <time>2021-03-21T09:56:23Z</time>
      </trkpt>
      <trkpt lat="43.107655" lon="-2.193310">
        <ele>650.074</ele>
        <time>2021-03-21T09:56:24Z</time>
      </trkpt>
      <trkpt lat="43.107632" lon="-2.193309">
        <ele>650.056</ele>
        <time>2021-03-21T09:56:25Z</time>
      </trkpt>
      <trkpt lat="43.107607" lon="-2.193309">
        <ele>650.121</ele>
        <time>2021-03-21T09:56:26Z</time>
      </trkpt>
      <trkpt lat="43.107584" lon="-2.193312">
        <ele>650.208</ele>
        <time>2021-03-21T09:56:27Z</time>
      </trkpt>
      <trkpt lat="43.107563" lon="-2.193314">
        <ele>650.343</ele>
        <time>2021-03-21T09:56:28Z</time>
      </trkpt>
      <trkpt lat="43.107542" lon="-2.193317">
        <ele>650.466</ele>
        <time>2021-03-21T09:56:29Z</time>
      </trkpt>
      <trkpt lat="43.107518" lon="-2.193318">
        <ele>650.529</ele>
        <time>2021-03-21T09:56:30Z</time>
      </trkpt>
      <trkpt lat="43.107493" lon="-2.193316">
        <ele>650.540</ele>
        <time>2021-03-21T09:56:31Z</time>
      </trkpt>
      <trkpt lat="43.107469" lon="-2.193317">
        <ele>650.787</ele>
        <time>2021-03-21T09:56:32Z</time>
      </trkpt>
      <trkpt lat="43.107445" lon="-2.193318">
        <ele>650.955</ele>
        <time>2021-03-21T09:56:33Z</time>
      </trkpt>
      <trkpt lat="43.107420" lon="-2.193320">
        <ele>651.135</ele>
        <time>2021-03-21T09:56:34Z</time>
      </trkpt>
      <trkpt lat="43.107394" lon="-2.193321">
        <ele>651.395</ele>
        <time>2021-03-21T09:56:35Z</time>
      </trkpt>
      <trkpt lat="43.107371" lon="-2.193319">
        <ele>651.453</ele>
        <time>2021-03-21T09:56:36Z</time>
      </trkpt>
      <trkpt lat="43.107347" lon="-2.193317">
        <ele>651.504</ele>
        <time>2021-03-21T09:56:37Z</time>
      </trkpt>
      <trkpt lat="43.107323" lon="-2.193319">
        <ele>651.714</ele>
        <time>2021-03-21T09:56:38Z</time>
      </trkpt>
      <trkpt lat="43.107304" lon="-2.193324">
        <ele>652.008</ele>
        <time>2021-03-21T09:56:39Z</time>
      </trkpt>
      <trkpt lat="43.107282" lon="-2.193329">
        <ele>652.461</ele>
        <time>2021-03-21T09:56:40Z</time>
      </trkpt>
      <trkpt lat="43.107260" lon="-2.193334">
        <ele>652.744</ele>
        <time>2021-03-21T09:56:41Z</time>
      </trkpt>
      <trkpt lat="43.107235" lon="-2.193337">
        <ele>653.047</ele>
        <time>2021-03-21T09:56:42Z</time>
      </trkpt>
      <trkpt lat="43.107211" lon="-2.193340">
        <ele>653.068</ele>
        <time>2021-03-21T09:56:43Z</time>
      </trkpt>
      <trkpt lat="43.107187" lon="-2.193341">
        <ele>652.945</ele>
        <time>2021-03-21T09:56:44Z</time>
      </trkpt>
      <trkpt lat="43.107165" lon="-2.193343">
        <ele>652.873</ele>
        <time>2021-03-21T09:56:45Z</time>
      </trkpt>
      <trkpt lat="43.107144" lon="-2.193346">
        <ele>652.763</ele>
        <time>2021-03-21T09:56:46Z</time>
      </trkpt>
      <trkpt lat="43.107125" lon="-2.193347">
        <ele>652.633</ele>
        <time>2021-03-21T09:56:47Z</time>
      </trkpt>
      <trkpt lat="43.107084" lon="-2.193352">
        <ele>652.496</ele>
        <time>2021-03-21T09:56:48Z</time>
      </trkpt>
      <trkpt lat="43.107062" lon="-2.193350">
        <ele>652.331</ele>
        <time>2021-03-21T09:56:50Z</time>
      </trkpt>
      <trkpt lat="43.107041" lon="-2.193348">
        <ele>652.124</ele>
        <time>2021-03-21T09:56:51Z</time>
      </trkpt>
      <trkpt lat="43.107019" lon="-2.193349">
        <ele>652.008</ele>
        <time>2021-03-21T09:56:52Z</time>
      </trkpt>
      <trkpt lat="43.106995" lon="-2.193348">
        <ele>651.875</ele>
        <time>2021-03-21T09:56:53Z</time>
      </trkpt>
      <trkpt lat="43.106972" lon="-2.193350">
        <ele>651.788</ele>
        <time>2021-03-21T09:56:54Z</time>
      </trkpt>
      <trkpt lat="43.106946" lon="-2.193349">
        <ele>651.541</ele>
        <time>2021-03-21T09:56:55Z</time>
      </trkpt>
      <trkpt lat="43.106920" lon="-2.193350">
        <ele>651.212</ele>
        <time>2021-03-21T09:56:56Z</time>
      </trkpt>
      <trkpt lat="43.106865" lon="-2.193344">
        <ele>650.299</ele>
        <time>2021-03-21T09:56:57Z</time>
      </trkpt>
      <trkpt lat="43.106835" lon="-2.193340">
        <ele>649.797</ele>
        <time>2021-03-21T09:56:59Z</time>
      </trkpt>
      <trkpt lat="43.106807" lon="-2.193338">
        <ele>649.227</ele>
        <time>2021-03-21T09:57:00Z</time>
      </trkpt>
      <trkpt lat="43.106783" lon="-2.193331">
        <ele>648.637</ele>
        <time>2021-03-21T09:57:01Z</time>
      </trkpt>
      <trkpt lat="43.106759" lon="-2.193327">
        <ele>648.085</ele>
        <time>2021-03-21T09:57:02Z</time>
      </trkpt>
      <trkpt lat="43.106730" lon="-2.193329">
        <ele>647.789</ele>
        <time>2021-03-21T09:57:03Z</time>
      </trkpt>
      <trkpt lat="43.106702" lon="-2.193332">
        <ele>647.417</ele>
        <time>2021-03-21T09:57:04Z</time>
      </trkpt>
      <trkpt lat="43.106678" lon="-2.193330">
        <ele>647.008</ele>
        <time>2021-03-21T09:57:05Z</time>
      </trkpt>
      <trkpt lat="43.106650" lon="-2.193329">
        <ele>646.624</ele>
        <time>2021-03-21T09:57:06Z</time>
      </trkpt>
      <trkpt lat="43.106625" lon="-2.193328">
        <ele>646.297</ele>
        <time>2021-03-21T09:57:07Z</time>
      </trkpt>
      <trkpt lat="43.106593" lon="-2.193328">
        <ele>645.780</ele>
        <time>2021-03-21T09:57:08Z</time>
      </trkpt>
      <trkpt lat="43.106561" lon="-2.193329">
        <ele>645.351</ele>
        <time>2021-03-21T09:57:09Z</time>
      </trkpt>
      <trkpt lat="43.106532" lon="-2.193328">
        <ele>644.888</ele>
        <time>2021-03-21T09:57:10Z</time>
      </trkpt>
      <trkpt lat="43.106505" lon="-2.193328">
        <ele>644.446</ele>
        <time>2021-03-21T09:57:11Z</time>
      </trkpt>
      <trkpt lat="43.106477" lon="-2.193327">
        <ele>644.026</ele>
        <time>2021-03-21T09:57:12Z</time>
      </trkpt>
      <trkpt lat="43.106448" lon="-2.193327">
        <ele>643.666</ele>
        <time>2021-03-21T09:57:13Z</time>
      </trkpt>
      <trkpt lat="43.106417" lon="-2.193328">
        <ele>643.225</ele>
        <time>2021-03-21T09:57:14Z</time>
      </trkpt>
      <trkpt lat="43.106380" lon="-2.193334">
        <ele>642.926</ele>
        <time>2021-03-21T09:57:15Z</time>
      </trkpt>
      <trkpt lat="43.106347" lon="-2.193336">
        <ele>642.608</ele>
        <time>2021-03-21T09:57:16Z</time>
      </trkpt>
      <trkpt lat="43.106317" lon="-2.193336">
        <ele>642.308</ele>
        <time>2021-03-21T09:57:17Z</time>
      </trkpt>
      <trkpt lat="43.106289" lon="-2.193336">
        <ele>642.028</ele>
        <time>2021-03-21T09:57:18Z</time>
      </trkpt>
      <trkpt lat="43.106265" lon="-2.193338">
        <ele>641.891</ele>
        <time>2021-03-21T09:57:19Z</time>
      </trkpt>
      <trkpt lat="43.106241" lon="-2.193336">
        <ele>641.554</ele>
        <time>2021-03-21T09:57:20Z</time>
      </trkpt>
      <trkpt lat="43.106217" lon="-2.193332">
        <ele>641.155</ele>
        <time>2021-03-21T09:57:21Z</time>
      </trkpt>
      <trkpt lat="43.106190" lon="-2.193329">
        <ele>640.782</ele>
        <time>2021-03-21T09:57:22Z</time>
      </trkpt>
      <trkpt lat="43.106160" lon="-2.193328">
        <ele>640.350</ele>
        <time>2021-03-21T09:57:23Z</time>
      </trkpt>
      <trkpt lat="43.106133" lon="-2.193325">
        <ele>639.980</ele>
        <time>2021-03-21T09:57:24Z</time>
      </trkpt>
      <trkpt lat="43.106099" lon="-2.193318">
        <ele>639.320</ele>
        <time>2021-03-21T09:57:25Z</time>
      </trkpt>
      <trkpt lat="43.106065" lon="-2.193311">
        <ele>638.991</ele>
        <time>2021-03-21T09:57:26Z</time>
      </trkpt>
      <trkpt lat="43.106029" lon="-2.193302">
        <ele>638.481</ele>
        <time>2021-03-21T09:57:27Z</time>
      </trkpt>
      <trkpt lat="43.105994" lon="-2.193291">
        <ele>637.819</ele>
        <time>2021-03-21T09:57:28Z</time>
      </trkpt>
      <trkpt lat="43.105923" lon="-2.193278">
        <ele>637.108</ele>
        <time>2021-03-21T09:57:29Z</time>
      </trkpt>
      <trkpt lat="43.105889" lon="-2.193272">
        <ele>636.735</ele>
        <time>2021-03-21T09:57:30Z</time>
      </trkpt>
      <trkpt lat="43.105853" lon="-2.193267">
        <ele>636.478</ele>
        <time>2021-03-21T09:57:32Z</time>
      </trkpt>
      <trkpt lat="43.105790" lon="-2.193245">
        <ele>635.781</ele>
        <time>2021-03-21T09:57:33Z</time>
      </trkpt>
      <trkpt lat="43.105760" lon="-2.193231">
        <ele>635.222</ele>
        <time>2021-03-21T09:57:34Z</time>
      </trkpt>
      <trkpt lat="43.105734" lon="-2.193219">
        <ele>634.879</ele>
        <time>2021-03-21T09:57:36Z</time>
      </trkpt>
      <trkpt lat="43.105704" lon="-2.193206">
        <ele>634.497</ele>
        <time>2021-03-21T09:57:37Z</time>
      </trkpt>
      <trkpt lat="43.105670" lon="-2.193196">
        <ele>634.167</ele>
        <time>2021-03-21T09:57:38Z</time>
      </trkpt>
      <trkpt lat="43.105634" lon="-2.193184">
        <ele>633.837</ele>
        <time>2021-03-21T09:57:39Z</time>
      </trkpt>
      <trkpt lat="43.105602" lon="-2.193174">
        <ele>633.546</ele>
        <time>2021-03-21T09:57:40Z</time>
      </trkpt>
      <trkpt lat="43.105569" lon="-2.193159">
        <ele>633.088</ele>
        <time>2021-03-21T09:57:41Z</time>
      </trkpt>
      <trkpt lat="43.105536" lon="-2.193145">
        <ele>632.816</ele>
        <time>2021-03-21T09:57:42Z</time>
      </trkpt>
      <trkpt lat="43.105500" lon="-2.193132">
        <ele>632.808</ele>
        <time>2021-03-21T09:57:43Z</time>
      </trkpt>
      <trkpt lat="43.105469" lon="-2.193119">
        <ele>632.760</ele>
        <time>2021-03-21T09:57:44Z</time>
      </trkpt>
      <trkpt lat="43.105437" lon="-2.193108">
        <ele>632.793</ele>
        <time>2021-03-21T09:57:45Z</time>
      </trkpt>
      <trkpt lat="43.105407" lon="-2.193100">
        <ele>632.826</ele>
        <time>2021-03-21T09:57:46Z</time>
      </trkpt>
      <trkpt lat="43.105376" lon="-2.193091">
        <ele>632.987</ele>
        <time>2021-03-21T09:57:47Z</time>
      </trkpt>
      <trkpt lat="43.105345" lon="-2.193084">
        <ele>633.124</ele>
        <time>2021-03-21T09:57:48Z</time>
      </trkpt>
      <trkpt lat="43.105314" lon="-2.193078">
        <ele>633.352</ele>
        <time>2021-03-21T09:57:49Z</time>
      </trkpt>
      <trkpt lat="43.105284" lon="-2.193073">
        <ele>633.532</ele>
        <time>2021-03-21T09:57:50Z</time>
      </trkpt>
      <trkpt lat="43.105253" lon="-2.193070">
        <ele>633.682</ele>
        <time>2021-03-21T09:57:51Z</time>
      </trkpt>
      <trkpt lat="43.105192" lon="-2.193066">
        <ele>633.688</ele>
        <time>2021-03-21T09:57:52Z</time>
      </trkpt>
      <trkpt lat="43.105160" lon="-2.193066">
        <ele>633.724</ele>
        <time>2021-03-21T09:57:54Z</time>
      </trkpt>
      <trkpt lat="43.105128" lon="-2.193067">
        <ele>633.926</ele>
        <time>2021-03-21T09:57:55Z</time>
      </trkpt>
      <trkpt lat="43.105097" lon="-2.193076">
        <ele>634.208</ele>
        <time>2021-03-21T09:57:56Z</time>
      </trkpt>
      <trkpt lat="43.105065" lon="-2.193091">
        <ele>634.724</ele>
        <time>2021-03-21T09:57:57Z</time>
      </trkpt>
      <trkpt lat="43.105036" lon="-2.193119">
        <ele>635.487</ele>
        <time>2021-03-21T09:57:58Z</time>
      </trkpt>
      <trkpt lat="43.105009" lon="-2.193149">
        <ele>636.080</ele>
        <time>2021-03-21T09:57:59Z</time>
      </trkpt>
      <trkpt lat="43.104985" lon="-2.193182">
        <ele>636.151</ele>
        <time>2021-03-21T09:58:00Z</time>
      </trkpt>
      <trkpt lat="43.104962" lon="-2.193223">
        <ele>635.958</ele>
        <time>2021-03-21T09:58:01Z</time>
      </trkpt>
      <trkpt lat="43.104942" lon="-2.193266">
        <ele>635.886</ele>
        <time>2021-03-21T09:58:02Z</time>
      </trkpt>
      <trkpt lat="43.104923" lon="-2.193306">
        <ele>635.656</ele>
        <time>2021-03-21T09:58:03Z</time>
      </trkpt>
      <trkpt lat="43.104908" lon="-2.193353">
        <ele>635.576</ele>
        <time>2021-03-21T09:58:04Z</time>
      </trkpt>
      <trkpt lat="43.104897" lon="-2.193401">
        <ele>635.487</ele>
        <time>2021-03-21T09:58:05Z</time>
      </trkpt>
      <trkpt lat="43.104888" lon="-2.193446">
        <ele>635.242</ele>
        <time>2021-03-21T09:58:06Z</time>
      </trkpt>
      <trkpt lat="43.104879" lon="-2.193494">
        <ele>635.126</ele>
        <time>2021-03-21T09:58:07Z</time>
      </trkpt>
      <trkpt lat="43.104869" lon="-2.193538">
        <ele>634.908</ele>
        <time>2021-03-21T09:58:08Z</time>
      </trkpt>
      <trkpt lat="43.104860" lon="-2.193577">
        <ele>634.774</ele>
        <time>2021-03-21T09:58:09Z</time>
      </trkpt>
      <trkpt lat="43.104852" lon="-2.193621">
        <ele>634.517</ele>
        <time>2021-03-21T09:58:10Z</time>
      </trkpt>
      <trkpt lat="43.104842" lon="-2.193663">
        <ele>634.250</ele>
        <time>2021-03-21T09:58:11Z</time>
      </trkpt>
      <trkpt lat="43.104830" lon="-2.193703">
        <ele>633.751</ele>
        <time>2021-03-21T09:58:12Z</time>
      </trkpt>
      <trkpt lat="43.104820" lon="-2.193745">
        <ele>633.398</ele>
        <time>2021-03-21T09:58:13Z</time>
      </trkpt>
      <trkpt lat="43.104811" lon="-2.193787">
        <ele>632.936</ele>
        <time>2021-03-21T09:58:14Z</time>
      </trkpt>
      <trkpt lat="43.104805" lon="-2.193827">
        <ele>632.816</ele>
        <time>2021-03-21T09:58:15Z</time>
      </trkpt>
      <trkpt lat="43.104791" lon="-2.193911">
        <ele>632.586</ele>
        <time>2021-03-21T09:58:17Z</time>
      </trkpt>
      <trkpt lat="43.104778" lon="-2.193953">
        <ele>632.341</ele>
        <time>2021-03-21T09:58:18Z</time>
      </trkpt>
      <trkpt lat="43.104743" lon="-2.194031">
        <ele>631.381</ele>
        <time>2021-03-21T09:58:19Z</time>
      </trkpt>
      <trkpt lat="43.104720" lon="-2.194067">
        <ele>630.409</ele>
        <time>2021-03-21T09:58:20Z</time>
      </trkpt>
      <trkpt lat="43.104695" lon="-2.194104">
        <ele>629.708</ele>
        <time>2021-03-21T09:58:21Z</time>
      </trkpt>
      <trkpt lat="43.104671" lon="-2.194139">
        <ele>629.110</ele>
        <time>2021-03-21T09:58:23Z</time>
      </trkpt>
      <trkpt lat="43.104648" lon="-2.194172">
        <ele>628.653</ele>
        <time>2021-03-21T09:58:24Z</time>
      </trkpt>
      <trkpt lat="43.104620" lon="-2.194201">
        <ele>627.996</ele>
        <time>2021-03-21T09:58:25Z</time>
      </trkpt>
      <trkpt lat="43.104593" lon="-2.194227">
        <ele>627.297</ele>
        <time>2021-03-21T09:58:26Z</time>
      </trkpt>
      <trkpt lat="43.104569" lon="-2.194254">
        <ele>626.564</ele>
        <time>2021-03-21T09:58:27Z</time>
      </trkpt>
      <trkpt lat="43.104547" lon="-2.194280">
        <ele>626.042</ele>
        <time>2021-03-21T09:58:28Z</time>
      </trkpt>
      <trkpt lat="43.104525" lon="-2.194309">
        <ele>625.532</ele>
        <time>2021-03-21T09:58:29Z</time>
      </trkpt>
      <trkpt lat="43.104506" lon="-2.194345">
        <ele>625.272</ele>
        <time>2021-03-21T09:58:30Z</time>
      </trkpt>
      <trkpt lat="43.104490" lon="-2.194383">
        <ele>625.289</ele>
        <time>2021-03-21T09:58:31Z</time>
      </trkpt>
      <trkpt lat="43.104477" lon="-2.194421">
        <ele>625.206</ele>
        <time>2021-03-21T09:58:32Z</time>
      </trkpt>
      <trkpt lat="43.104464" lon="-2.194462">
        <ele>625.226</ele>
        <time>2021-03-21T09:58:33Z</time>
      </trkpt>
      <trkpt lat="43.104454" lon="-2.194503">
        <ele>625.308</ele>
        <time>2021-03-21T09:58:34Z</time>
      </trkpt>
      <trkpt lat="43.104446" lon="-2.194542">
        <ele>625.594</ele>
        <time>2021-03-21T09:58:35Z</time>
      </trkpt>
      <trkpt lat="43.104436" lon="-2.194582">
        <ele>625.577</ele>
        <time>2021-03-21T09:58:36Z</time>
      </trkpt>
      <trkpt lat="43.104414" lon="-2.194660">
        <ele>625.410</ele>
        <time>2021-03-21T09:58:37Z</time>
      </trkpt>
      <trkpt lat="43.104398" lon="-2.194698">
        <ele>625.171</ele>
        <time>2021-03-21T09:58:39Z</time>
      </trkpt>
      <trkpt lat="43.104354" lon="-2.194755">
        <ele>624.138</ele>
        <time>2021-03-21T09:58:40Z</time>
      </trkpt>
      <trkpt lat="43.104331" lon="-2.194780">
        <ele>623.666</ele>
        <time>2021-03-21T09:58:42Z</time>
      </trkpt>
      <trkpt lat="43.104311" lon="-2.194805">
        <ele>623.376</ele>
        <time>2021-03-21T09:58:43Z</time>
      </trkpt>
      <trkpt lat="43.104296" lon="-2.194838">
        <ele>623.536</ele>
        <time>2021-03-21T09:58:44Z</time>
      </trkpt>
      <trkpt lat="43.104280" lon="-2.194872">
        <ele>623.867</ele>
        <time>2021-03-21T09:58:45Z</time>
      </trkpt>
      <trkpt lat="43.104260" lon="-2.194902">
        <ele>623.681</ele>
        <time>2021-03-21T09:58:46Z</time>
      </trkpt>
      <trkpt lat="43.104237" lon="-2.194931">
        <ele>623.419</ele>
        <time>2021-03-21T09:58:47Z</time>
      </trkpt>
      <trkpt lat="43.104215" lon="-2.194959">
        <ele>623.108</ele>
        <time>2021-03-21T09:58:48Z</time>
      </trkpt>
      <trkpt lat="43.104192" lon="-2.194991">
        <ele>623.032</ele>
        <time>2021-03-21T09:58:49Z</time>
      </trkpt>
      <trkpt lat="43.104170" lon="-2.195024">
        <ele>622.815</ele>
        <time>2021-03-21T09:58:50Z</time>
      </trkpt>
      <trkpt lat="43.104149" lon="-2.195056">
        <ele>622.628</ele>
        <time>2021-03-21T09:58:51Z</time>
      </trkpt>
      <trkpt lat="43.104133" lon="-2.195088">
        <ele>622.619</ele>
        <time>2021-03-21T09:58:52Z</time>
      </trkpt>
      <trkpt lat="43.104115" lon="-2.195121">
        <ele>622.546</ele>
        <time>2021-03-21T09:58:53Z</time>
      </trkpt>
      <trkpt lat="43.104101" lon="-2.195155">
        <ele>622.674</ele>
        <time>2021-03-21T09:58:54Z</time>
      </trkpt>
      <trkpt lat="43.104086" lon="-2.195189">
        <ele>622.644</ele>
        <time>2021-03-21T09:58:55Z</time>
      </trkpt>
      <trkpt lat="43.104051" lon="-2.195252">
        <ele>622.294</ele>
        <time>2021-03-21T09:58:56Z</time>
      </trkpt>
      <trkpt lat="43.104038" lon="-2.195286">
        <ele>622.213</ele>
        <time>2021-03-21T09:58:57Z</time>
      </trkpt>
      <trkpt lat="43.104024" lon="-2.195324">
        <ele>622.043</ele>
        <time>2021-03-21T09:58:59Z</time>
      </trkpt>
      <trkpt lat="43.104008" lon="-2.195361">
        <ele>621.607</ele>
        <time>2021-03-21T09:59:00Z</time>
      </trkpt>
      <trkpt lat="43.103996" lon="-2.195397">
        <ele>621.408</ele>
        <time>2021-03-21T09:59:01Z</time>
      </trkpt>
      <trkpt lat="43.103984" lon="-2.195436">
        <ele>621.227</ele>
        <time>2021-03-21T09:59:02Z</time>
      </trkpt>
      <trkpt lat="43.103973" lon="-2.195477">
        <ele>621.120</ele>
        <time>2021-03-21T09:59:03Z</time>
      </trkpt>
      <trkpt lat="43.103962" lon="-2.195518">
        <ele>621.093</ele>
        <time>2021-03-21T09:59:04Z</time>
      </trkpt>
      <trkpt lat="43.103953" lon="-2.195562">
        <ele>621.044</ele>
        <time>2021-03-21T09:59:05Z</time>
      </trkpt>
      <trkpt lat="43.103943" lon="-2.195602">
        <ele>620.771</ele>
        <time>2021-03-21T09:59:06Z</time>
      </trkpt>
      <trkpt lat="43.103933" lon="-2.195642">
        <ele>620.419</ele>
        <time>2021-03-21T09:59:07Z</time>
      </trkpt>
      <trkpt lat="43.103922" lon="-2.195685">
        <ele>620.049</ele>
        <time>2021-03-21T09:59:08Z</time>
      </trkpt>
      <trkpt lat="43.103913" lon="-2.195727">
        <ele>619.819</ele>
        <time>2021-03-21T09:59:09Z</time>
      </trkpt>
      <trkpt lat="43.103901" lon="-2.195770">
        <ele>619.319</ele>
        <time>2021-03-21T09:59:10Z</time>
      </trkpt>
      <trkpt lat="43.103892" lon="-2.195812">
        <ele>619.009</ele>
        <time>2021-03-21T09:59:11Z</time>
      </trkpt>
      <trkpt lat="43.103882" lon="-2.195852">
        <ele>618.819</ele>
        <time>2021-03-21T09:59:12Z</time>
      </trkpt>
      <trkpt lat="43.103870" lon="-2.195931">
        <ele>619.108</ele>
        <time>2021-03-21T09:59:13Z</time>
      </trkpt>
      <trkpt lat="43.103856" lon="-2.196010">
        <ele>619.537</ele>
        <time>2021-03-21T09:59:15Z</time>
      </trkpt>
      <trkpt lat="43.103847" lon="-2.196048">
        <ele>619.510</ele>
        <time>2021-03-21T09:59:17Z</time>
      </trkpt>
      <trkpt lat="43.103832" lon="-2.196084">
        <ele>619.363</ele>
        <time>2021-03-21T09:59:18Z</time>
      </trkpt>
      <trkpt lat="43.103814" lon="-2.196117">
        <ele>618.984</ele>
        <time>2021-03-21T09:59:19Z</time>
      </trkpt>
      <trkpt lat="43.103792" lon="-2.196146">
        <ele>618.641</ele>
        <time>2021-03-21T09:59:20Z</time>
      </trkpt>
      <trkpt lat="43.103753" lon="-2.196206">
        <ele>618.619</ele>
        <time>2021-03-21T09:59:21Z</time>
      </trkpt>
      <trkpt lat="43.103731" lon="-2.196235">
        <ele>618.459</ele>
        <time>2021-03-21T09:59:23Z</time>
      </trkpt>
      <trkpt lat="43.103686" lon="-2.196295">
        <ele>618.229</ele>
        <time>2021-03-21T09:59:24Z</time>
      </trkpt>
      <trkpt lat="43.103660" lon="-2.196322">
        <ele>617.953</ele>
        <time>2021-03-21T09:59:25Z</time>
      </trkpt>
      <trkpt lat="43.103636" lon="-2.196348">
        <ele>617.704</ele>
        <time>2021-03-21T09:59:26Z</time>
      </trkpt>
      <trkpt lat="43.103614" lon="-2.196373">
        <ele>617.514</ele>
        <time>2021-03-21T09:59:28Z</time>
      </trkpt>
      <trkpt lat="43.103592" lon="-2.196399">
        <ele>617.308</ele>
        <time>2021-03-21T09:59:29Z</time>
      </trkpt>
      <trkpt lat="43.103571" lon="-2.196428">
        <ele>617.191</ele>
        <time>2021-03-21T09:59:30Z</time>
      </trkpt>
      <trkpt lat="43.103551" lon="-2.196457">
        <ele>617.094</ele>
        <time>2021-03-21T09:59:31Z</time>
      </trkpt>
      <trkpt lat="43.103533" lon="-2.196487">
        <ele>617.057</ele>
        <time>2021-03-21T09:59:32Z</time>
      </trkpt>
      <trkpt lat="43.103520" lon="-2.196519">
        <ele>617.398</ele>
        <time>2021-03-21T09:59:33Z</time>
      </trkpt>
      <trkpt lat="43.103504" lon="-2.196548">
        <ele>617.425</ele>
        <time>2021-03-21T09:59:34Z</time>
      </trkpt>
      <trkpt lat="43.103491" lon="-2.196577">
        <ele>617.753</ele>
        <time>2021-03-21T09:59:35Z</time>
      </trkpt>
      <trkpt lat="43.103481" lon="-2.196605">
        <ele>618.073</ele>
        <time>2021-03-21T09:59:36Z</time>
      </trkpt>
      <trkpt lat="43.103471" lon="-2.196634">
        <ele>618.473</ele>
        <time>2021-03-21T09:59:37Z</time>
      </trkpt>
      <trkpt lat="43.103461" lon="-2.196664">
        <ele>618.917</ele>
        <time>2021-03-21T09:59:38Z</time>
      </trkpt>
      <trkpt lat="43.103449" lon="-2.196694">
        <ele>618.987</ele>
        <time>2021-03-21T09:59:39Z</time>
      </trkpt>
      <trkpt lat="43.103437" lon="-2.196724">
        <ele>618.915</ele>
        <time>2021-03-21T09:59:40Z</time>
      </trkpt>
      <trkpt lat="43.103425" lon="-2.196755">
        <ele>619.008</ele>
        <time>2021-03-21T09:59:41Z</time>
      </trkpt>
      <trkpt lat="43.103414" lon="-2.196787">
        <ele>619.157</ele>
        <time>2021-03-21T09:59:42Z</time>
      </trkpt>
      <trkpt lat="43.103401" lon="-2.196816">
        <ele>619.170</ele>
        <time>2021-03-21T09:59:43Z</time>
      </trkpt>
      <trkpt lat="43.103386" lon="-2.196846">
        <ele>619.113</ele>
        <time>2021-03-21T09:59:44Z</time>
      </trkpt>
      <trkpt lat="43.103369" lon="-2.196876">
        <ele>619.034</ele>
        <time>2021-03-21T09:59:45Z</time>
      </trkpt>
      <trkpt lat="43.103351" lon="-2.196905">
        <ele>618.951</ele>
        <time>2021-03-21T09:59:46Z</time>
      </trkpt>
      <trkpt lat="43.103336" lon="-2.196935">
        <ele>618.989</ele>
        <time>2021-03-21T09:59:47Z</time>
      </trkpt>
      <trkpt lat="43.103317" lon="-2.196964">
        <ele>618.769</ele>
        <time>2021-03-21T09:59:48Z</time>
      </trkpt>
      <trkpt lat="43.103302" lon="-2.196993">
        <ele>618.749</ele>
        <time>2021-03-21T09:59:49Z</time>
      </trkpt>
      <trkpt lat="43.103286" lon="-2.197023">
        <ele>618.682</ele>
        <time>2021-03-21T09:59:50Z</time>
      </trkpt>
      <trkpt lat="43.103269" lon="-2.197054">
        <ele>618.443</ele>
        <time>2021-03-21T09:59:51Z</time>
      </trkpt>
      <trkpt lat="43.103253" lon="-2.197082">
        <ele>618.217</ele>
        <time>2021-03-21T09:59:52Z</time>
      </trkpt>
      <trkpt lat="43.103238" lon="-2.197110">
        <ele>618.008</ele>
        <time>2021-03-21T09:59:53Z</time>
      </trkpt>
      <trkpt lat="43.103207" lon="-2.197168">
        <ele>617.654</ele>
        <time>2021-03-21T09:59:54Z</time>
      </trkpt>
      <trkpt lat="43.103189" lon="-2.197197">
        <ele>617.377</ele>
        <time>2021-03-21T09:59:56Z</time>
      </trkpt>
      <trkpt lat="43.103170" lon="-2.197228">
        <ele>616.910</ele>
        <time>2021-03-21T09:59:57Z</time>
      </trkpt>
      <trkpt lat="43.103151" lon="-2.197261">
        <ele>616.971</ele>
        <time>2021-03-21T09:59:58Z</time>
      </trkpt>
      <trkpt lat="43.103131" lon="-2.197290">
        <ele>616.848</ele>
        <time>2021-03-21T09:59:59Z</time>
      </trkpt>
      <trkpt lat="43.103109" lon="-2.197318">
        <ele>616.686</ele>
        <time>2021-03-21T10:00:00Z</time>
      </trkpt>
      <trkpt lat="43.103088" lon="-2.197347">
        <ele>616.516</ele>
        <time>2021-03-21T10:00:01Z</time>
      </trkpt>
      <trkpt lat="43.103067" lon="-2.197371">
        <ele>616.356</ele>
        <time>2021-03-21T10:00:02Z</time>
      </trkpt>
      <trkpt lat="43.103045" lon="-2.197394">
        <ele>616.127</ele>
        <time>2021-03-21T10:00:03Z</time>
      </trkpt>
      <trkpt lat="43.103022" lon="-2.197417">
        <ele>615.868</ele>
        <time>2021-03-21T10:00:04Z</time>
      </trkpt>
      <trkpt lat="43.103001" lon="-2.197440">
        <ele>615.714</ele>
        <time>2021-03-21T10:00:05Z</time>
      </trkpt>
      <trkpt lat="43.102977" lon="-2.197464">
        <ele>615.408</ele>
        <time>2021-03-21T10:00:06Z</time>
      </trkpt>
      <trkpt lat="43.102956" lon="-2.197490">
        <ele>615.458</ele>
        <time>2021-03-21T10:00:07Z</time>
      </trkpt>
      <trkpt lat="43.102939" lon="-2.197517">
        <ele>615.281</ele>
        <time>2021-03-21T10:00:08Z</time>
      </trkpt>
      <trkpt lat="43.102922" lon="-2.197546">
        <ele>614.784</ele>
        <time>2021-03-21T10:00:09Z</time>
      </trkpt>
      <trkpt lat="43.102905" lon="-2.197574">
        <ele>614.235</ele>
        <time>2021-03-21T10:00:10Z</time>
      </trkpt>
      <trkpt lat="43.102886" lon="-2.197602">
        <ele>613.612</ele>
        <time>2021-03-21T10:00:11Z</time>
      </trkpt>
      <trkpt lat="43.102874" lon="-2.197639">
        <ele>613.480</ele>
        <time>2021-03-21T10:00:12Z</time>
      </trkpt>
      <trkpt lat="43.102870" lon="-2.197677">
        <ele>613.570</ele>
        <time>2021-03-21T10:00:13Z</time>
      </trkpt>
      <trkpt lat="43.102867" lon="-2.197712">
        <ele>613.640</ele>
        <time>2021-03-21T10:00:14Z</time>
      </trkpt>
      <trkpt lat="43.102863" lon="-2.197751">
        <ele>613.773</ele>
        <time>2021-03-21T10:00:15Z</time>
      </trkpt>
      <trkpt lat="43.102862" lon="-2.197792">
        <ele>613.885</ele>
        <time>2021-03-21T10:00:16Z</time>
      </trkpt>
      <trkpt lat="43.102863" lon="-2.197832">
        <ele>613.913</ele>
        <time>2021-03-21T10:00:17Z</time>
      </trkpt>
      <trkpt lat="43.102862" lon="-2.197873">
        <ele>613.808</ele>
        <time>2021-03-21T10:00:18Z</time>
      </trkpt>
      <trkpt lat="43.102863" lon="-2.197909">
        <ele>613.973</ele>
        <time>2021-03-21T10:00:19Z</time>
      </trkpt>
      <trkpt lat="43.102858" lon="-2.197947">
        <ele>613.556</ele>
        <time>2021-03-21T10:00:20Z</time>
      </trkpt>
      <trkpt lat="43.102855" lon="-2.197983">
        <ele>613.399</ele>
        <time>2021-03-21T10:00:21Z</time>
      </trkpt>
      <trkpt lat="43.102848" lon="-2.198015">
        <ele>612.810</ele>
        <time>2021-03-21T10:00:22Z</time>
      </trkpt>
      <trkpt lat="43.102840" lon="-2.198048">
        <ele>612.387</ele>
        <time>2021-03-21T10:00:23Z</time>
      </trkpt>
      <trkpt lat="43.102830" lon="-2.198082">
        <ele>611.995</ele>
        <time>2021-03-21T10:00:24Z</time>
      </trkpt>
      <trkpt lat="43.102816" lon="-2.198115">
        <ele>611.445</ele>
        <time>2021-03-21T10:00:25Z</time>
      </trkpt>
      <trkpt lat="43.102798" lon="-2.198150">
        <ele>610.785</ele>
        <time>2021-03-21T10:00:26Z</time>
      </trkpt>
      <trkpt lat="43.102785" lon="-2.198190">
        <ele>610.475</ele>
        <time>2021-03-21T10:00:27Z</time>
      </trkpt>
      <trkpt lat="43.102777" lon="-2.198232">
        <ele>610.528</ele>
        <time>2021-03-21T10:00:28Z</time>
      </trkpt>
      <trkpt lat="43.102768" lon="-2.198272">
        <ele>610.420</ele>
        <time>2021-03-21T10:00:29Z</time>
      </trkpt>
      <trkpt lat="43.102757" lon="-2.198314">
        <ele>610.208</ele>
        <time>2021-03-21T10:00:30Z</time>
      </trkpt>
      <trkpt lat="43.102748" lon="-2.198349">
        <ele>610.053</ele>
        <time>2021-03-21T10:00:31Z</time>
      </trkpt>
      <trkpt lat="43.102745" lon="-2.198386">
        <ele>610.146</ele>
        <time>2021-03-21T10:00:32Z</time>
      </trkpt>
      <trkpt lat="43.102742" lon="-2.198421">
        <ele>610.239</ele>
        <time>2021-03-21T10:00:33Z</time>
      </trkpt>
      <trkpt lat="43.102742" lon="-2.198451">
        <ele>610.450</ele>
        <time>2021-03-21T10:00:34Z</time>
      </trkpt>
      <trkpt lat="43.102742" lon="-2.198479">
        <ele>610.767</ele>
        <time>2021-03-21T10:00:35Z</time>
      </trkpt>
      <trkpt lat="43.102739" lon="-2.198526">
        <ele>611.085</ele>
        <time>2021-03-21T10:00:37Z</time>
      </trkpt>
      <trkpt lat="43.102740" lon="-2.198568">
        <ele>611.495</ele>
        <time>2021-03-21T10:00:39Z</time>
      </trkpt>
      <trkpt lat="43.102746" lon="-2.198615">
        <ele>612.015</ele>
        <time>2021-03-21T10:00:41Z</time>
      </trkpt>
      <trkpt lat="43.102751" lon="-2.198658">
        <ele>611.952</ele>
        <time>2021-03-21T10:00:43Z</time>
      </trkpt>
      <trkpt lat="43.102753" lon="-2.198721">
        <ele>611.753</ele>
        <time>2021-03-21T10:00:46Z</time>
      </trkpt>
      <trkpt lat="43.102755" lon="-2.198764">
        <ele>611.508</ele>
        <time>2021-03-21T10:00:48Z</time>
      </trkpt>
      <trkpt lat="43.102759" lon="-2.198802">
        <ele>611.308</ele>
        <time>2021-03-21T10:00:50Z</time>
      </trkpt>
      <trkpt lat="43.102756" lon="-2.198836">
        <ele>611.141</ele>
        <time>2021-03-21T10:00:52Z</time>
      </trkpt>
      <trkpt lat="43.102754" lon="-2.198865">
        <ele>610.964</ele>
        <time>2021-03-21T10:00:56Z</time>
      </trkpt>
      <trkpt lat="43.102743" lon="-2.198893">
        <ele>610.637</ele>
        <time>2021-03-21T10:00:57Z</time>
      </trkpt>
      <trkpt lat="43.102725" lon="-2.198925">
        <ele>609.838</ele>
        <time>2021-03-21T10:01:00Z</time>
      </trkpt>
      <trkpt lat="43.102702" lon="-2.198950">
        <ele>609.015</ele>
        <time>2021-03-21T10:01:02Z</time>
      </trkpt>
      <trkpt lat="43.102675" lon="-2.198971">
        <ele>608.423</ele>
        <time>2021-03-21T10:01:04Z</time>
      </trkpt>
      <trkpt lat="43.102645" lon="-2.198994">
        <ele>607.863</ele>
        <time>2021-03-21T10:01:06Z</time>
      </trkpt>
      <trkpt lat="43.102630" lon="-2.199006">
        <ele>607.493</ele>
        <time>2021-03-21T10:01:07Z</time>
      </trkpt>
      <trkpt lat="43.102609" lon="-2.199016">
        <ele>607.114</ele>
        <time>2021-03-21T10:01:08Z</time>
      </trkpt>
      <trkpt lat="43.102588" lon="-2.199028">
        <ele>606.854</ele>
        <time>2021-03-21T10:01:09Z</time>
      </trkpt>
      <trkpt lat="43.102571" lon="-2.199040">
        <ele>606.509</ele>
        <time>2021-03-21T10:01:10Z</time>
      </trkpt>
      <trkpt lat="43.102555" lon="-2.199047">
        <ele>606.308</ele>
        <time>2021-03-21T10:01:11Z</time>
      </trkpt>
      <trkpt lat="43.102537" lon="-2.199055">
        <ele>606.177</ele>
        <time>2021-03-21T10:01:12Z</time>
      </trkpt>
      <trkpt lat="43.102508" lon="-2.199067">
        <ele>605.860</ele>
        <time>2021-03-21T10:01:14Z</time>
      </trkpt>
      <trkpt lat="43.102487" lon="-2.199087">
        <ele>605.213</ele>
        <time>2021-03-21T10:01:16Z</time>
      </trkpt>
      <trkpt lat="43.102474" lon="-2.199113">
        <ele>604.664</ele>
        <time>2021-03-21T10:01:18Z</time>
      </trkpt>
      <trkpt lat="43.102471" lon="-2.199140">
        <ele>604.211</ele>
        <time>2021-03-21T10:01:37Z</time>
      </trkpt>
      <trkpt lat="43.102447" lon="-2.199151">
        <ele>603.899</ele>
        <time>2021-03-21T10:01:44Z</time>
      </trkpt>
      <trkpt lat="43.102442" lon="-2.199166">
        <ele>603.619</ele>
        <time>2021-03-21T10:02:14Z</time>
      </trkpt>
      <trkpt lat="43.102442" lon="-2.199166">
        <ele>603.669</ele>
        <time>2021-03-21T10:02:16Z</time>
      </trkpt>
      <trkpt lat="43.102446" lon="-2.199173">
        <ele>603.557</ele>
        <time>2021-03-21T10:02:44Z</time>
      </trkpt>
      <trkpt lat="43.102453" lon="-2.199205">
        <ele>603.000</ele>
        <time>2021-03-21T10:02:47Z</time>
      </trkpt>
      <trkpt lat="43.102454" lon="-2.199238">
        <ele>602.420</ele>
        <time>2021-03-21T10:02:49Z</time>
      </trkpt>
      <trkpt lat="43.102452" lon="-2.199269">
        <ele>601.908</ele>
        <time>2021-03-21T10:02:51Z</time>
      </trkpt>
      <trkpt lat="43.102450" lon="-2.199300">
        <ele>601.481</ele>
        <time>2021-03-21T10:02:54Z</time>
      </trkpt>
      <trkpt lat="43.102448" lon="-2.199325">
        <ele>601.024</ele>
        <time>2021-03-21T10:02:56Z</time>
      </trkpt>
      <trkpt lat="43.102440" lon="-2.199354">
        <ele>600.537</ele>
        <time>2021-03-21T10:02:58Z</time>
      </trkpt>
      <trkpt lat="43.102433" lon="-2.199385">
        <ele>600.188</ele>
        <time>2021-03-21T10:03:00Z</time>
      </trkpt>
      <trkpt lat="43.102424" lon="-2.199416">
        <ele>599.815</ele>
        <time>2021-03-21T10:03:02Z</time>
      </trkpt>
      <trkpt lat="43.102412" lon="-2.199447">
        <ele>599.543</ele>
        <time>2021-03-21T10:03:04Z</time>
      </trkpt>
      <trkpt lat="43.102404" lon="-2.199467">
        <ele>599.273</ele>
        <time>2021-03-21T10:03:05Z</time>
      </trkpt>
      <trkpt lat="43.102396" lon="-2.199494">
        <ele>598.833</ele>
        <time>2021-03-21T10:03:06Z</time>
      </trkpt>
      <trkpt lat="43.102389" lon="-2.199522">
        <ele>598.411</ele>
        <time>2021-03-21T10:03:07Z</time>
      </trkpt>
      <trkpt lat="43.102382" lon="-2.199549">
        <ele>598.121</ele>
        <time>2021-03-21T10:03:08Z</time>
      </trkpt>
      <trkpt lat="43.102373" lon="-2.199579">
        <ele>597.703</ele>
        <time>2021-03-21T10:03:09Z</time>
      </trkpt>
      <trkpt lat="43.102365" lon="-2.199611">
        <ele>597.408</ele>
        <time>2021-03-21T10:03:10Z</time>
      </trkpt>
      <trkpt lat="43.102357" lon="-2.199640">
        <ele>597.127</ele>
        <time>2021-03-21T10:03:11Z</time>
      </trkpt>
      <trkpt lat="43.102352" lon="-2.199665">
        <ele>596.910</ele>
        <time>2021-03-21T10:03:12Z</time>
      </trkpt>
      <trkpt lat="43.102349" lon="-2.199691">
        <ele>596.543</ele>
        <time>2021-03-21T10:03:13Z</time>
      </trkpt>
      <trkpt lat="43.102328" lon="-2.199755">
        <ele>596.344</ele>
        <time>2021-03-21T10:03:15Z</time>
      </trkpt>
      <trkpt lat="43.102323" lon="-2.199788">
        <ele>596.011</ele>
        <time>2021-03-21T10:03:16Z</time>
      </trkpt>
      <trkpt lat="43.102314" lon="-2.199823">
        <ele>595.929</ele>
        <time>2021-03-21T10:03:17Z</time>
      </trkpt>
      <trkpt lat="43.102306" lon="-2.199856">
        <ele>595.849</ele>
        <time>2021-03-21T10:03:18Z</time>
      </trkpt>
      <trkpt lat="43.102301" lon="-2.199890">
        <ele>595.619</ele>
        <time>2021-03-21T10:03:19Z</time>
      </trkpt>
      <trkpt lat="43.102296" lon="-2.199925">
        <ele>595.392</ele>
        <time>2021-03-21T10:03:20Z</time>
      </trkpt>
      <trkpt lat="43.102287" lon="-2.199998">
        <ele>594.873</ele>
        <time>2021-03-21T10:03:21Z</time>
      </trkpt>
      <trkpt lat="43.102279" lon="-2.200036">
        <ele>594.520</ele>
        <time>2021-03-21T10:03:23Z</time>
      </trkpt>
      <trkpt lat="43.102273" lon="-2.200075">
        <ele>594.208</ele>
        <time>2021-03-21T10:03:24Z</time>
      </trkpt>
      <trkpt lat="43.102267" lon="-2.200117">
        <ele>593.955</ele>
        <time>2021-03-21T10:03:25Z</time>
      </trkpt>
      <trkpt lat="43.102259" lon="-2.200157">
        <ele>593.778</ele>
        <time>2021-03-21T10:03:26Z</time>
      </trkpt>
      <trkpt lat="43.102250" lon="-2.200198">
        <ele>593.541</ele>
        <time>2021-03-21T10:03:27Z</time>
      </trkpt>
      <trkpt lat="43.102237" lon="-2.200239">
        <ele>593.712</ele>
        <time>2021-03-21T10:03:28Z</time>
      </trkpt>
      <trkpt lat="43.102224" lon="-2.200278">
        <ele>593.949</ele>
        <time>2021-03-21T10:03:29Z</time>
      </trkpt>
      <trkpt lat="43.102213" lon="-2.200318">
        <ele>593.747</ele>
        <time>2021-03-21T10:03:30Z</time>
      </trkpt>
      <trkpt lat="43.102205" lon="-2.200361">
        <ele>593.327</ele>
        <time>2021-03-21T10:03:31Z</time>
      </trkpt>
      <trkpt lat="43.102196" lon="-2.200403">
        <ele>593.027</ele>
        <time>2021-03-21T10:03:32Z</time>
      </trkpt>
      <trkpt lat="43.102189" lon="-2.200447">
        <ele>592.638</ele>
        <time>2021-03-21T10:03:33Z</time>
      </trkpt>
      <trkpt lat="43.102184" lon="-2.200494">
        <ele>592.070</ele>
        <time>2021-03-21T10:03:34Z</time>
      </trkpt>
      <trkpt lat="43.102175" lon="-2.200537">
        <ele>591.717</ele>
        <time>2021-03-21T10:03:35Z</time>
      </trkpt>
      <trkpt lat="43.102160" lon="-2.200582">
        <ele>591.708</ele>
        <time>2021-03-21T10:03:36Z</time>
      </trkpt>
      <trkpt lat="43.102149" lon="-2.200629">
        <ele>591.439</ele>
        <time>2021-03-21T10:03:37Z</time>
      </trkpt>
      <trkpt lat="43.102141" lon="-2.200673">
        <ele>591.172</ele>
        <time>2021-03-21T10:03:38Z</time>
      </trkpt>
      <trkpt lat="43.102133" lon="-2.200718">
        <ele>590.845</ele>
        <time>2021-03-21T10:03:39Z</time>
      </trkpt>
      <trkpt lat="43.102124" lon="-2.200765">
        <ele>590.456</ele>
        <time>2021-03-21T10:03:40Z</time>
      </trkpt>
      <trkpt lat="43.102116" lon="-2.200811">
        <ele>590.113</ele>
        <time>2021-03-21T10:03:41Z</time>
      </trkpt>
      <trkpt lat="43.102106" lon="-2.200856">
        <ele>589.881</ele>
        <time>2021-03-21T10:03:42Z</time>
      </trkpt>
      <trkpt lat="43.102094" lon="-2.200893">
        <ele>589.841</ele>
        <time>2021-03-21T10:03:43Z</time>
      </trkpt>
      <trkpt lat="43.102077" lon="-2.200924">
        <ele>590.071</ele>
        <time>2021-03-21T10:03:44Z</time>
      </trkpt>
      <trkpt lat="43.102057" lon="-2.200957">
        <ele>590.411</ele>
        <time>2021-03-21T10:03:45Z</time>
      </trkpt>
      <trkpt lat="43.102037" lon="-2.200985">
        <ele>590.921</ele>
        <time>2021-03-21T10:03:46Z</time>
      </trkpt>
      <trkpt lat="43.102022" lon="-2.201010">
        <ele>591.203</ele>
        <time>2021-03-21T10:03:47Z</time>
      </trkpt>
      <trkpt lat="43.102001" lon="-2.201037">
        <ele>591.708</ele>
        <time>2021-03-21T10:03:49Z</time>
      </trkpt>
      <trkpt lat="43.101986" lon="-2.201066">
        <ele>591.937</ele>
        <time>2021-03-21T10:03:51Z</time>
      </trkpt>
      <trkpt lat="43.101969" lon="-2.201094">
        <ele>592.110</ele>
        <time>2021-03-21T10:03:53Z</time>
      </trkpt>
      <trkpt lat="43.101945" lon="-2.201120">
        <ele>592.853</ele>
        <time>2021-03-21T10:03:55Z</time>
      </trkpt>
      <trkpt lat="43.101924" lon="-2.201146">
        <ele>593.634</ele>
        <time>2021-03-21T10:03:57Z</time>
      </trkpt>
      <trkpt lat="43.101904" lon="-2.201177">
        <ele>594.221</ele>
        <time>2021-03-21T10:03:59Z</time>
      </trkpt>
      <trkpt lat="43.101883" lon="-2.201209">
        <ele>594.819</ele>
        <time>2021-03-21T10:04:01Z</time>
      </trkpt>
      <trkpt lat="43.101866" lon="-2.201237">
        <ele>595.399</ele>
        <time>2021-03-21T10:04:03Z</time>
      </trkpt>
      <trkpt lat="43.101848" lon="-2.201266">
        <ele>595.719</ele>
        <time>2021-03-21T10:04:05Z</time>
      </trkpt>
      <trkpt lat="43.101826" lon="-2.201291">
        <ele>596.532</ele>
        <time>2021-03-21T10:04:07Z</time>
      </trkpt>
      <trkpt lat="43.101807" lon="-2.201318">
        <ele>597.092</ele>
        <time>2021-03-21T10:04:09Z</time>
      </trkpt>
      <trkpt lat="43.101776" lon="-2.201356">
        <ele>597.811</ele>
        <time>2021-03-21T10:04:12Z</time>
      </trkpt>
      <trkpt lat="43.101757" lon="-2.201382">
        <ele>598.308</ele>
        <time>2021-03-21T10:04:14Z</time>
      </trkpt>
      <trkpt lat="43.101735" lon="-2.201409">
        <ele>599.049</ele>
        <time>2021-03-21T10:04:16Z</time>
      </trkpt>
      <trkpt lat="43.101713" lon="-2.201437">
        <ele>599.772</ele>
        <time>2021-03-21T10:04:18Z</time>
      </trkpt>
      <trkpt lat="43.101700" lon="-2.201475">
        <ele>599.795</ele>
        <time>2021-03-21T10:04:20Z</time>
      </trkpt>
      <trkpt lat="43.101683" lon="-2.201507">
        <ele>600.096</ele>
        <time>2021-03-21T10:04:22Z</time>
      </trkpt>
      <trkpt lat="43.101666" lon="-2.201533">
        <ele>600.423</ele>
        <time>2021-03-21T10:04:24Z</time>
      </trkpt>
      <trkpt lat="43.101653" lon="-2.201564">
        <ele>600.781</ele>
        <time>2021-03-21T10:04:26Z</time>
      </trkpt>
      <trkpt lat="43.101637" lon="-2.201595">
        <ele>601.161</ele>
        <time>2021-03-21T10:04:28Z</time>
      </trkpt>
      <trkpt lat="43.101622" lon="-2.201625">
        <ele>601.521</ele>
        <time>2021-03-21T10:04:30Z</time>
      </trkpt>
      <trkpt lat="43.101610" lon="-2.201655">
        <ele>601.797</ele>
        <time>2021-03-21T10:04:32Z</time>
      </trkpt>
      <trkpt lat="43.101596" lon="-2.201688">
        <ele>602.123</ele>
        <time>2021-03-21T10:04:34Z</time>
      </trkpt>
      <trkpt lat="43.101579" lon="-2.201718">
        <ele>602.725</ele>
        <time>2021-03-21T10:04:36Z</time>
      </trkpt>
      <trkpt lat="43.101566" lon="-2.201749">
        <ele>603.108</ele>
        <time>2021-03-21T10:04:38Z</time>
      </trkpt>
      <trkpt lat="43.101551" lon="-2.201781">
        <ele>603.525</ele>
        <time>2021-03-21T10:04:40Z</time>
      </trkpt>
      <trkpt lat="43.101536" lon="-2.201814">
        <ele>603.958</ele>
        <time>2021-03-21T10:04:42Z</time>
      </trkpt>
      <trkpt lat="43.101527" lon="-2.201847">
        <ele>603.911</ele>
        <time>2021-03-21T10:04:44Z</time>
      </trkpt>
      <trkpt lat="43.101515" lon="-2.201885">
        <ele>604.132</ele>
        <time>2021-03-21T10:04:46Z</time>
      </trkpt>
      <trkpt lat="43.101503" lon="-2.201922">
        <ele>604.239</ele>
        <time>2021-03-21T10:04:48Z</time>
      </trkpt>
      <trkpt lat="43.101487" lon="-2.201959">
        <ele>604.547</ele>
        <time>2021-03-21T10:04:50Z</time>
      </trkpt>
      <trkpt lat="43.101474" lon="-2.201996">
        <ele>604.637</ele>
        <time>2021-03-21T10:04:52Z</time>
      </trkpt>
      <trkpt lat="43.101460" lon="-2.202034">
        <ele>604.877</ele>
        <time>2021-03-21T10:04:54Z</time>
      </trkpt>
      <trkpt lat="43.101444" lon="-2.202070">
        <ele>605.149</ele>
        <time>2021-03-21T10:04:56Z</time>
      </trkpt>
      <trkpt lat="43.101430" lon="-2.202108">
        <ele>605.302</ele>
        <time>2021-03-21T10:04:58Z</time>
      </trkpt>
      <trkpt lat="43.101417" lon="-2.202143">
        <ele>605.522</ele>
        <time>2021-03-21T10:05:00Z</time>
      </trkpt>
      <trkpt lat="43.101402" lon="-2.202178">
        <ele>605.908</ele>
        <time>2021-03-21T10:05:02Z</time>
      </trkpt>
      <trkpt lat="43.101389" lon="-2.202208">
        <ele>606.280</ele>
        <time>2021-03-21T10:05:04Z</time>
      </trkpt>
      <trkpt lat="43.101371" lon="-2.202241">
        <ele>606.423</ele>
        <time>2021-03-21T10:05:06Z</time>
      </trkpt>
      <trkpt lat="43.101352" lon="-2.202270">
        <ele>606.746</ele>
        <time>2021-03-21T10:05:08Z</time>
      </trkpt>
      <trkpt lat="43.101335" lon="-2.202301">
        <ele>606.857</ele>
        <time>2021-03-21T10:05:10Z</time>
      </trkpt>
      <trkpt lat="43.101318" lon="-2.202326">
        <ele>607.094</ele>
        <time>2021-03-21T10:05:12Z</time>
      </trkpt>
      <trkpt lat="43.101297" lon="-2.202352">
        <ele>607.392</ele>
        <time>2021-03-21T10:05:14Z</time>
      </trkpt>
      <trkpt lat="43.101279" lon="-2.202380">
        <ele>607.582</ele>
        <time>2021-03-21T10:05:16Z</time>
      </trkpt>
      <trkpt lat="43.101260" lon="-2.202406">
        <ele>607.862</ele>
        <time>2021-03-21T10:05:18Z</time>
      </trkpt>
      <trkpt lat="43.101239" lon="-2.202434">
        <ele>608.081</ele>
        <time>2021-03-21T10:05:22Z</time>
      </trkpt>
      <trkpt lat="43.101211" lon="-2.202463">
        <ele>608.661</ele>
        <time>2021-03-21T10:05:24Z</time>
      </trkpt>
      <trkpt lat="43.101184" lon="-2.202488">
        <ele>609.117</ele>
        <time>2021-03-21T10:05:26Z</time>
      </trkpt>
      <trkpt lat="43.101170" lon="-2.202502">
        <ele>609.408</ele>
        <time>2021-03-21T10:05:27Z</time>
      </trkpt>
      <trkpt lat="43.101144" lon="-2.202526">
        <ele>609.714</ele>
        <time>2021-03-21T10:05:29Z</time>
      </trkpt>
      <trkpt lat="43.101116" lon="-2.202547">
        <ele>610.387</ele>
        <time>2021-03-21T10:05:31Z</time>
      </trkpt>
      <trkpt lat="43.101088" lon="-2.202567">
        <ele>610.230</ele>
        <time>2021-03-21T10:05:33Z</time>
      </trkpt>
      <trkpt lat="43.101061" lon="-2.202580">
        <ele>610.141</ele>
        <time>2021-03-21T10:05:35Z</time>
      </trkpt>
      <trkpt lat="43.101032" lon="-2.202592">
        <ele>610.248</ele>
        <time>2021-03-21T10:05:37Z</time>
      </trkpt>
      <trkpt lat="43.101003" lon="-2.202601">
        <ele>610.346</ele>
        <time>2021-03-21T10:05:39Z</time>
      </trkpt>
      <trkpt lat="43.100975" lon="-2.202604">
        <ele>610.656</ele>
        <time>2021-03-21T10:05:41Z</time>
      </trkpt>
      <trkpt lat="43.100947" lon="-2.202611">
        <ele>610.886</ele>
        <time>2021-03-21T10:05:43Z</time>
      </trkpt>
      <trkpt lat="43.100917" lon="-2.202615">
        <ele>611.132</ele>
        <time>2021-03-21T10:05:45Z</time>
      </trkpt>
      <trkpt lat="43.100887" lon="-2.202615">
        <ele>611.592</ele>
        <time>2021-03-21T10:05:47Z</time>
      </trkpt>
      <trkpt lat="43.100858" lon="-2.202610">
        <ele>612.111</ele>
        <time>2021-03-21T10:05:49Z</time>
      </trkpt>
      <trkpt lat="43.100833" lon="-2.202601">
        <ele>612.708</ele>
        <time>2021-03-21T10:05:51Z</time>
      </trkpt>
      <trkpt lat="43.100807" lon="-2.202590">
        <ele>612.849</ele>
        <time>2021-03-21T10:05:53Z</time>
      </trkpt>
      <trkpt lat="43.100781" lon="-2.202574">
        <ele>613.082</ele>
        <time>2021-03-21T10:05:55Z</time>
      </trkpt>
      <trkpt lat="43.100755" lon="-2.202558">
        <ele>613.325</ele>
        <time>2021-03-21T10:05:57Z</time>
      </trkpt>
      <trkpt lat="43.100729" lon="-2.202542">
        <ele>613.516</ele>
        <time>2021-03-21T10:05:59Z</time>
      </trkpt>
      <trkpt lat="43.100704" lon="-2.202522">
        <ele>613.993</ele>
        <time>2021-03-21T10:06:01Z</time>
      </trkpt>
      <trkpt lat="43.100676" lon="-2.202504">
        <ele>614.271</ele>
        <time>2021-03-21T10:06:03Z</time>
      </trkpt>
      <trkpt lat="43.100649" lon="-2.202487">
        <ele>614.431</ele>
        <time>2021-03-21T10:06:05Z</time>
      </trkpt>
      <trkpt lat="43.100621" lon="-2.202471">
        <ele>614.651</ele>
        <time>2021-03-21T10:06:07Z</time>
      </trkpt>
      <trkpt lat="43.100594" lon="-2.202451">
        <ele>614.987</ele>
        <time>2021-03-21T10:06:09Z</time>
      </trkpt>
      <trkpt lat="43.100568" lon="-2.202431">
        <ele>615.142</ele>
        <time>2021-03-21T10:06:11Z</time>
      </trkpt>
      <trkpt lat="43.100542" lon="-2.202410">
        <ele>615.426</ele>
        <time>2021-03-21T10:06:13Z</time>
      </trkpt>
      <trkpt lat="43.100514" lon="-2.202389">
        <ele>615.608</ele>
        <time>2021-03-21T10:06:15Z</time>
      </trkpt>
      <trkpt lat="43.100487" lon="-2.202367">
        <ele>615.864</ele>
        <time>2021-03-21T10:06:17Z</time>
      </trkpt>
      <trkpt lat="43.100462" lon="-2.202345">
        <ele>616.177</ele>
        <time>2021-03-21T10:06:19Z</time>
      </trkpt>
      <trkpt lat="43.100436" lon="-2.202325">
        <ele>616.380</ele>
        <time>2021-03-21T10:06:21Z</time>
      </trkpt>
      <trkpt lat="43.100411" lon="-2.202308">
        <ele>616.471</ele>
        <time>2021-03-21T10:06:23Z</time>
      </trkpt>
      <trkpt lat="43.100387" lon="-2.202288">
        <ele>616.748</ele>
        <time>2021-03-21T10:06:25Z</time>
      </trkpt>
      <trkpt lat="43.100360" lon="-2.202267">
        <ele>616.946</ele>
        <time>2021-03-21T10:06:26Z</time>
      </trkpt>
      <trkpt lat="43.100333" lon="-2.202246">
        <ele>617.186</ele>
        <time>2021-03-21T10:06:29Z</time>
      </trkpt>
      <trkpt lat="43.100309" lon="-2.202220">
        <ele>617.556</ele>
        <time>2021-03-21T10:06:31Z</time>
      </trkpt>
      <trkpt lat="43.100283" lon="-2.202193">
        <ele>617.669</ele>
        <time>2021-03-21T10:06:33Z</time>
      </trkpt>
      <trkpt lat="43.100259" lon="-2.202162">
        <ele>617.204</ele>
        <time>2021-03-21T10:06:35Z</time>
      </trkpt>
      <trkpt lat="43.100237" lon="-2.202130">
        <ele>616.824</ele>
        <time>2021-03-21T10:06:37Z</time>
      </trkpt>
      <trkpt lat="43.100216" lon="-2.202095">
        <ele>616.408</ele>
        <time>2021-03-21T10:06:39Z</time>
      </trkpt>
      <trkpt lat="43.100197" lon="-2.202057">
        <ele>616.232</ele>
        <time>2021-03-21T10:06:41Z</time>
      </trkpt>
      <trkpt lat="43.100184" lon="-2.202031">
        <ele>616.195</ele>
        <time>2021-03-21T10:06:42Z</time>
      </trkpt>
      <trkpt lat="43.100160" lon="-2.201971">
        <ele>616.038</ele>
        <time>2021-03-21T10:06:44Z</time>
      </trkpt>
      <trkpt lat="43.100151" lon="-2.201937">
        <ele>616.249</ele>
        <time>2021-03-21T10:06:45Z</time>
      </trkpt>
      <trkpt lat="43.100140" lon="-2.201900">
        <ele>616.576</ele>
        <time>2021-03-21T10:06:46Z</time>
      </trkpt>
      <trkpt lat="43.100127" lon="-2.201864">
        <ele>616.764</ele>
        <time>2021-03-21T10:06:47Z</time>
      </trkpt>
      <trkpt lat="43.100111" lon="-2.201829">
        <ele>616.864</ele>
        <time>2021-03-21T10:06:48Z</time>
      </trkpt>
      <trkpt lat="43.100097" lon="-2.201796">
        <ele>616.954</ele>
        <time>2021-03-21T10:06:49Z</time>
      </trkpt>
      <trkpt lat="43.100083" lon="-2.201767">
        <ele>617.048</ele>
        <time>2021-03-21T10:06:50Z</time>
      </trkpt>
      <trkpt lat="43.100064" lon="-2.201742">
        <ele>616.861</ele>
        <time>2021-03-21T10:06:51Z</time>
      </trkpt>
      <trkpt lat="43.100047" lon="-2.201716">
        <ele>616.717</ele>
        <time>2021-03-21T10:06:52Z</time>
      </trkpt>
      <trkpt lat="43.100031" lon="-2.201690">
        <ele>616.708</ele>
        <time>2021-03-21T10:06:53Z</time>
      </trkpt>
      <trkpt lat="43.100009" lon="-2.201669">
        <ele>616.380</ele>
        <time>2021-03-21T10:06:54Z</time>
      </trkpt>
      <trkpt lat="43.099988" lon="-2.201651">
        <ele>616.383</ele>
        <time>2021-03-21T10:06:55Z</time>
      </trkpt>
      <trkpt lat="43.099971" lon="-2.201634">
        <ele>616.796</ele>
        <time>2021-03-21T10:06:56Z</time>
      </trkpt>
      <trkpt lat="43.099952" lon="-2.201619">
        <ele>616.977</ele>
        <time>2021-03-21T10:06:57Z</time>
      </trkpt>
      <trkpt lat="43.099932" lon="-2.201605">
        <ele>617.064</ele>
        <time>2021-03-21T10:06:58Z</time>
      </trkpt>
      <trkpt lat="43.099911" lon="-2.201594">
        <ele>617.052</ele>
        <time>2021-03-21T10:06:59Z</time>
      </trkpt>
      <trkpt lat="43.099886" lon="-2.201584">
        <ele>616.992</ele>
        <time>2021-03-21T10:07:00Z</time>
      </trkpt>
      <trkpt lat="43.099863" lon="-2.201575">
        <ele>616.842</ele>
        <time>2021-03-21T10:07:01Z</time>
      </trkpt>
      <trkpt lat="43.099841" lon="-2.201566">
        <ele>616.899</ele>
        <time>2021-03-21T10:07:02Z</time>
      </trkpt>
      <trkpt lat="43.099817" lon="-2.201558">
        <ele>616.607</ele>
        <time>2021-03-21T10:07:03Z</time>
      </trkpt>
      <trkpt lat="43.099794" lon="-2.201549">
        <ele>616.527</ele>
        <time>2021-03-21T10:07:04Z</time>
      </trkpt>
      <trkpt lat="43.099772" lon="-2.201541">
        <ele>616.408</ele>
        <time>2021-03-21T10:07:05Z</time>
      </trkpt>
      <trkpt lat="43.099750" lon="-2.201534">
        <ele>616.335</ele>
        <time>2021-03-21T10:07:06Z</time>
      </trkpt>
      <trkpt lat="43.099728" lon="-2.201524">
        <ele>616.298</ele>
        <time>2021-03-21T10:07:07Z</time>
      </trkpt>
      <trkpt lat="43.099705" lon="-2.201513">
        <ele>616.271</ele>
        <time>2021-03-21T10:07:08Z</time>
      </trkpt>
      <trkpt lat="43.099681" lon="-2.201500">
        <ele>616.322</ele>
        <time>2021-03-21T10:07:09Z</time>
      </trkpt>
      <trkpt lat="43.099658" lon="-2.201482">
        <ele>616.689</ele>
        <time>2021-03-21T10:07:10Z</time>
      </trkpt>
      <trkpt lat="43.099636" lon="-2.201465">
        <ele>616.887</ele>
        <time>2021-03-21T10:07:11Z</time>
      </trkpt>
      <trkpt lat="43.099611" lon="-2.201449">
        <ele>616.957</ele>
        <time>2021-03-21T10:07:12Z</time>
      </trkpt>
      <trkpt lat="43.099589" lon="-2.201434">
        <ele>617.127</ele>
        <time>2021-03-21T10:07:13Z</time>
      </trkpt>
      <trkpt lat="43.099566" lon="-2.201422">
        <ele>617.172</ele>
        <time>2021-03-21T10:07:14Z</time>
      </trkpt>
      <trkpt lat="43.099542" lon="-2.201411">
        <ele>617.013</ele>
        <time>2021-03-21T10:07:15Z</time>
      </trkpt>
      <trkpt lat="43.099518" lon="-2.201398">
        <ele>617.014</ele>
        <time>2021-03-21T10:07:16Z</time>
      </trkpt>
      <trkpt lat="43.099497" lon="-2.201382">
        <ele>617.108</ele>
        <time>2021-03-21T10:07:17Z</time>
      </trkpt>
      <trkpt lat="43.099475" lon="-2.201367">
        <ele>617.163</ele>
        <time>2021-03-21T10:07:18Z</time>
      </trkpt>
      <trkpt lat="43.099457" lon="-2.201352">
        <ele>617.236</ele>
        <time>2021-03-21T10:07:19Z</time>
      </trkpt>
      <trkpt lat="43.099442" lon="-2.201336">
        <ele>617.359</ele>
        <time>2021-03-21T10:07:20Z</time>
      </trkpt>
      <trkpt lat="43.099417" lon="-2.201312">
        <ele>617.720</ele>
        <time>2021-03-21T10:07:22Z</time>
      </trkpt>
      <trkpt lat="43.099391" lon="-2.201287">
        <ele>618.197</ele>
        <time>2021-03-21T10:07:24Z</time>
      </trkpt>
      <trkpt lat="43.099367" lon="-2.201264">
        <ele>618.415</ele>
        <time>2021-03-21T10:07:26Z</time>
      </trkpt>
      <trkpt lat="43.099341" lon="-2.201243">
        <ele>618.825</ele>
        <time>2021-03-21T10:07:27Z</time>
      </trkpt>
      <trkpt lat="43.099314" lon="-2.201223">
        <ele>619.135</ele>
        <time>2021-03-21T10:07:30Z</time>
      </trkpt>
      <trkpt lat="43.099288" lon="-2.201205">
        <ele>619.337</ele>
        <time>2021-03-21T10:07:32Z</time>
      </trkpt>
      <trkpt lat="43.099263" lon="-2.201185">
        <ele>619.749</ele>
        <time>2021-03-21T10:07:34Z</time>
      </trkpt>
      <trkpt lat="43.099238" lon="-2.201167">
        <ele>620.013</ele>
        <time>2021-03-21T10:07:36Z</time>
      </trkpt>
      <trkpt lat="43.099213" lon="-2.201151">
        <ele>620.208</ele>
        <time>2021-03-21T10:07:38Z</time>
      </trkpt>
      <trkpt lat="43.099175" lon="-2.201123">
        <ele>620.739</ele>
        <time>2021-03-21T10:07:41Z</time>
      </trkpt>
      <trkpt lat="43.099150" lon="-2.201106">
        <ele>621.282</ele>
        <time>2021-03-21T10:07:43Z</time>
      </trkpt>
      <trkpt lat="43.099121" lon="-2.201094">
        <ele>621.535</ele>
        <time>2021-03-21T10:07:45Z</time>
      </trkpt>
      <trkpt lat="43.099095" lon="-2.201079">
        <ele>621.996</ele>
        <time>2021-03-21T10:07:47Z</time>
      </trkpt>
      <trkpt lat="43.099069" lon="-2.201060">
        <ele>622.473</ele>
        <time>2021-03-21T10:07:49Z</time>
      </trkpt>
      <trkpt lat="43.099043" lon="-2.201046">
        <ele>622.771</ele>
        <time>2021-03-21T10:07:51Z</time>
      </trkpt>
      <trkpt lat="43.099014" lon="-2.201038">
        <ele>623.051</ele>
        <time>2021-03-21T10:07:53Z</time>
      </trkpt>
      <trkpt lat="43.098988" lon="-2.201024">
        <ele>623.351</ele>
        <time>2021-03-21T10:07:55Z</time>
      </trkpt>
      <trkpt lat="43.098960" lon="-2.201009">
        <ele>623.785</ele>
        <time>2021-03-21T10:07:57Z</time>
      </trkpt>
      <trkpt lat="43.098936" lon="-2.200994">
        <ele>624.089</ele>
        <time>2021-03-21T10:07:59Z</time>
      </trkpt>
      <trkpt lat="43.098911" lon="-2.200989">
        <ele>624.217</ele>
        <time>2021-03-21T10:08:01Z</time>
      </trkpt>
      <trkpt lat="43.098887" lon="-2.200989">
        <ele>624.208</ele>
        <time>2021-03-21T10:08:03Z</time>
      </trkpt>
      <trkpt lat="43.098865" lon="-2.200982">
        <ele>624.574</ele>
        <time>2021-03-21T10:08:05Z</time>
      </trkpt>
      <trkpt lat="43.098841" lon="-2.200979">
        <ele>624.767</ele>
        <time>2021-03-21T10:08:07Z</time>
      </trkpt>
      <trkpt lat="43.098814" lon="-2.200971">
        <ele>625.150</ele>
        <time>2021-03-21T10:08:09Z</time>
      </trkpt>
      <trkpt lat="43.098780" lon="-2.200942">
        <ele>625.841</ele>
        <time>2021-03-21T10:08:12Z</time>
      </trkpt>
      <trkpt lat="43.098763" lon="-2.200917">
        <ele>626.438</ele>
        <time>2021-03-21T10:08:14Z</time>
      </trkpt>
      <trkpt lat="43.098747" lon="-2.200894">
        <ele>626.986</ele>
        <time>2021-03-21T10:08:16Z</time>
      </trkpt>
      <trkpt lat="43.098740" lon="-2.200857">
        <ele>627.626</ele>
        <time>2021-03-21T10:08:19Z</time>
      </trkpt>
      <trkpt lat="43.098744" lon="-2.200821">
        <ele>628.186</ele>
        <time>2021-03-21T10:08:21Z</time>
      </trkpt>
      <trkpt lat="43.098749" lon="-2.200783">
        <ele>628.474</ele>
        <time>2021-03-21T10:08:23Z</time>
      </trkpt>
      <trkpt lat="43.098760" lon="-2.200751">
        <ele>628.556</ele>
        <time>2021-03-21T10:08:25Z</time>
      </trkpt>
      <trkpt lat="43.098772" lon="-2.200718">
        <ele>628.721</ele>
        <time>2021-03-21T10:08:27Z</time>
      </trkpt>
      <trkpt lat="43.098783" lon="-2.200685">
        <ele>628.808</ele>
        <time>2021-03-21T10:08:29Z</time>
      </trkpt>
      <trkpt lat="43.098796" lon="-2.200655">
        <ele>629.013</ele>
        <time>2021-03-21T10:08:31Z</time>
      </trkpt>
      <trkpt lat="43.098814" lon="-2.200630">
        <ele>629.066</ele>
        <time>2021-03-21T10:08:33Z</time>
      </trkpt>
      <trkpt lat="43.098833" lon="-2.200605">
        <ele>629.029</ele>
        <time>2021-03-21T10:08:35Z</time>
      </trkpt>
      <trkpt lat="43.098849" lon="-2.200589">
        <ele>629.070</ele>
        <time>2021-03-21T10:08:37Z</time>
      </trkpt>
      <trkpt lat="43.098868" lon="-2.200573">
        <ele>629.027</ele>
        <time>2021-03-21T10:08:39Z</time>
      </trkpt>
      <trkpt lat="43.098880" lon="-2.200545">
        <ele>629.175</ele>
        <time>2021-03-21T10:08:41Z</time>
      </trkpt>
      <trkpt lat="43.098893" lon="-2.200521">
        <ele>629.095</ele>
        <time>2021-03-21T10:08:43Z</time>
      </trkpt>
      <trkpt lat="43.098896" lon="-2.200494">
        <ele>629.055</ele>
        <time>2021-03-21T10:08:45Z</time>
      </trkpt>
      <trkpt lat="43.098897" lon="-2.200464">
        <ele>629.025</ele>
        <time>2021-03-21T10:08:51Z</time>
      </trkpt>
      <trkpt lat="43.098899" lon="-2.200432">
        <ele>629.026</ele>
        <time>2021-03-21T10:08:54Z</time>
      </trkpt>
      <trkpt lat="43.098873" lon="-2.200408">
        <ele>629.108</ele>
        <time>2021-03-21T10:08:56Z</time>
      </trkpt>
      <trkpt lat="43.098848" lon="-2.200393">
        <ele>629.208</ele>
        <time>2021-03-21T10:08:58Z</time>
      </trkpt>
      <trkpt lat="43.098822" lon="-2.200394">
        <ele>629.398</ele>
        <time>2021-03-21T10:09:00Z</time>
      </trkpt>
      <trkpt lat="43.098796" lon="-2.200403">
        <ele>629.561</ele>
        <time>2021-03-21T10:09:02Z</time>
      </trkpt>
      <trkpt lat="43.098768" lon="-2.200410">
        <ele>629.624</ele>
        <time>2021-03-21T10:09:04Z</time>
      </trkpt>
      <trkpt lat="43.098738" lon="-2.200415">
        <ele>629.845</ele>
        <time>2021-03-21T10:09:06Z</time>
      </trkpt>
      <trkpt lat="43.098710" lon="-2.200419">
        <ele>630.082</ele>
        <time>2021-03-21T10:09:08Z</time>
      </trkpt>
      <trkpt lat="43.098683" lon="-2.200421">
        <ele>630.160</ele>
        <time>2021-03-21T10:09:10Z</time>
      </trkpt>
      <trkpt lat="43.098656" lon="-2.200426">
        <ele>630.340</ele>
        <time>2021-03-21T10:09:12Z</time>
      </trkpt>
      <trkpt lat="43.098627" lon="-2.200433">
        <ele>630.570</ele>
        <time>2021-03-21T10:09:14Z</time>
      </trkpt>
      <trkpt lat="43.098599" lon="-2.200437">
        <ele>630.693</ele>
        <time>2021-03-21T10:09:16Z</time>
      </trkpt>
      <trkpt lat="43.098570" lon="-2.200443">
        <ele>630.865</ele>
        <time>2021-03-21T10:09:18Z</time>
      </trkpt>
      <trkpt lat="43.098543" lon="-2.200443">
        <ele>631.021</ele>
        <time>2021-03-21T10:09:20Z</time>
      </trkpt>
      <trkpt lat="43.098515" lon="-2.200447">
        <ele>631.208</ele>
        <time>2021-03-21T10:09:22Z</time>
      </trkpt>
      <trkpt lat="43.098489" lon="-2.200449">
        <ele>631.385</ele>
        <time>2021-03-21T10:09:24Z</time>
      </trkpt>
      <trkpt lat="43.098466" lon="-2.200449">
        <ele>631.598</ele>
        <time>2021-03-21T10:09:26Z</time>
      </trkpt>
      <trkpt lat="43.098443" lon="-2.200449">
        <ele>631.671</ele>
        <time>2021-03-21T10:09:28Z</time>
      </trkpt>
      <trkpt lat="43.098422" lon="-2.200442">
        <ele>631.792</ele>
        <time>2021-03-21T10:09:30Z</time>
      </trkpt>
      <trkpt lat="43.098396" lon="-2.200436">
        <ele>631.839</ele>
        <time>2021-03-21T10:09:32Z</time>
      </trkpt>
      <trkpt lat="43.098378" lon="-2.200431">
        <ele>631.957</ele>
        <time>2021-03-21T10:09:34Z</time>
      </trkpt>
      <trkpt lat="43.098348" lon="-2.200428">
        <ele>632.087</ele>
        <time>2021-03-21T10:09:36Z</time>
      </trkpt>
      <trkpt lat="43.098320" lon="-2.200423">
        <ele>632.217</ele>
        <time>2021-03-21T10:09:38Z</time>
      </trkpt>
      <trkpt lat="43.098295" lon="-2.200416">
        <ele>632.375</ele>
        <time>2021-03-21T10:09:40Z</time>
      </trkpt>
      <trkpt lat="43.098267" lon="-2.200403">
        <ele>632.528</ele>
        <time>2021-03-21T10:09:42Z</time>
      </trkpt>
      <trkpt lat="43.098237" lon="-2.200398">
        <ele>632.720</ele>
        <time>2021-03-21T10:09:44Z</time>
      </trkpt>
      <trkpt lat="43.098209" lon="-2.200396">
        <ele>632.908</ele>
        <time>2021-03-21T10:09:46Z</time>
      </trkpt>
      <trkpt lat="43.098181" lon="-2.200390">
        <ele>633.063</ele>
        <time>2021-03-21T10:09:48Z</time>
      </trkpt>
      <trkpt lat="43.098157" lon="-2.200387">
        <ele>633.216</ele>
        <time>2021-03-21T10:09:50Z</time>
      </trkpt>
      <trkpt lat="43.098135" lon="-2.200389">
        <ele>633.489</ele>
        <time>2021-03-21T10:09:52Z</time>
      </trkpt>
      <trkpt lat="43.098113" lon="-2.200393">
        <ele>633.680</ele>
        <time>2021-03-21T10:09:54Z</time>
      </trkpt>
      <trkpt lat="43.098087" lon="-2.200395">
        <ele>633.957</ele>
        <time>2021-03-21T10:09:56Z</time>
      </trkpt>
      <trkpt lat="43.098066" lon="-2.200396">
        <ele>634.095</ele>
        <time>2021-03-21T10:09:58Z</time>
      </trkpt>
      <trkpt lat="43.098044" lon="-2.200401">
        <ele>634.425</ele>
        <time>2021-03-21T10:09:59Z</time>
      </trkpt>
      <trkpt lat="43.098020" lon="-2.200403">
        <ele>635.095</ele>
        <time>2021-03-21T10:10:02Z</time>
      </trkpt>
      <trkpt lat="43.097994" lon="-2.200416">
        <ele>635.762</ele>
        <time>2021-03-21T10:10:05Z</time>
      </trkpt>
      <trkpt lat="43.097973" lon="-2.200427">
        <ele>636.383</ele>
        <time>2021-03-21T10:10:07Z</time>
      </trkpt>
      <trkpt lat="43.097950" lon="-2.200432">
        <ele>636.911</ele>
        <time>2021-03-21T10:10:09Z</time>
      </trkpt>
      <trkpt lat="43.097924" lon="-2.200424">
        <ele>637.208</ele>
        <time>2021-03-21T10:10:11Z</time>
      </trkpt>
      <trkpt lat="43.097900" lon="-2.200418">
        <ele>637.642</ele>
        <time>2021-03-21T10:10:13Z</time>
      </trkpt>
      <trkpt lat="43.097882" lon="-2.200430">
        <ele>638.265</ele>
        <time>2021-03-21T10:10:15Z</time>
      </trkpt>
      <trkpt lat="43.097859" lon="-2.200438">
        <ele>638.838</ele>
        <time>2021-03-21T10:10:17Z</time>
      </trkpt>
      <trkpt lat="43.097841" lon="-2.200444">
        <ele>639.329</ele>
        <time>2021-03-21T10:10:20Z</time>
      </trkpt>
      <trkpt lat="43.097819" lon="-2.200445">
        <ele>639.866</ele>
        <time>2021-03-21T10:10:23Z</time>
      </trkpt>
      <trkpt lat="43.097804" lon="-2.200463">
        <ele>640.584</ele>
        <time>2021-03-21T10:10:25Z</time>
      </trkpt>
      <trkpt lat="43.097786" lon="-2.200469">
        <ele>641.054</ele>
        <time>2021-03-21T10:10:27Z</time>
      </trkpt>
      <trkpt lat="43.097771" lon="-2.200481">
        <ele>641.614</ele>
        <time>2021-03-21T10:10:30Z</time>
      </trkpt>
      <trkpt lat="43.097753" lon="-2.200486">
        <ele>642.221</ele>
        <time>2021-03-21T10:10:32Z</time>
      </trkpt>
      <trkpt lat="43.097731" lon="-2.200481">
        <ele>642.841</ele>
        <time>2021-03-21T10:10:33Z</time>
      </trkpt>
      <trkpt lat="43.097717" lon="-2.200473">
        <ele>643.005</ele>
        <time>2021-03-21T10:10:38Z</time>
      </trkpt>
      <trkpt lat="43.097697" lon="-2.200487">
        <ele>643.908</ele>
        <time>2021-03-21T10:10:42Z</time>
      </trkpt>
      <trkpt lat="43.097682" lon="-2.200507">
        <ele>644.938</ele>
        <time>2021-03-21T10:10:44Z</time>
      </trkpt>
      <trkpt lat="43.097661" lon="-2.200527">
        <ele>646.031</ele>
        <time>2021-03-21T10:10:46Z</time>
      </trkpt>
      <trkpt lat="43.097645" lon="-2.200534">
        <ele>646.764</ele>
        <time>2021-03-21T10:10:50Z</time>
      </trkpt>
      <trkpt lat="43.097630" lon="-2.200551">
        <ele>647.745</ele>
        <time>2021-03-21T10:10:52Z</time>
      </trkpt>
      <trkpt lat="43.097616" lon="-2.200567">
        <ele>648.442</ele>
        <time>2021-03-21T10:10:53Z</time>
      </trkpt>
      <trkpt lat="43.097601" lon="-2.200572">
        <ele>648.920</ele>
        <time>2021-03-21T10:10:57Z</time>
      </trkpt>
      <trkpt lat="43.097575" lon="-2.200573">
        <ele>649.840</ele>
        <time>2021-03-21T10:11:00Z</time>
      </trkpt>
      <trkpt lat="43.097551" lon="-2.200572">
        <ele>650.530</ele>
        <time>2021-03-21T10:11:03Z</time>
      </trkpt>
      <trkpt lat="43.097525" lon="-2.200570">
        <ele>651.353</ele>
        <time>2021-03-21T10:11:06Z</time>
      </trkpt>
      <trkpt lat="43.097506" lon="-2.200560">
        <ele>651.904</ele>
        <time>2021-03-21T10:11:09Z</time>
      </trkpt>
      <trkpt lat="43.097479" lon="-2.200555">
        <ele>652.714</ele>
        <time>2021-03-21T10:11:12Z</time>
      </trkpt>
      <trkpt lat="43.097460" lon="-2.200563">
        <ele>653.408</ele>
        <time>2021-03-21T10:11:14Z</time>
      </trkpt>
      <trkpt lat="43.097443" lon="-2.200576">
        <ele>654.111</ele>
        <time>2021-03-21T10:11:17Z</time>
      </trkpt>
      <trkpt lat="43.097425" lon="-2.200579">
        <ele>654.724</ele>
        <time>2021-03-21T10:11:20Z</time>
      </trkpt>
      <trkpt lat="43.097407" lon="-2.200588">
        <ele>655.437</ele>
        <time>2021-03-21T10:11:22Z</time>
      </trkpt>
      <trkpt lat="43.097387" lon="-2.200604">
        <ele>656.388</ele>
        <time>2021-03-21T10:11:25Z</time>
      </trkpt>
      <trkpt lat="43.097374" lon="-2.200619">
        <ele>656.985</ele>
        <time>2021-03-21T10:11:27Z</time>
      </trkpt>
      <trkpt lat="43.097359" lon="-2.200643">
        <ele>657.713</ele>
        <time>2021-03-21T10:11:30Z</time>
      </trkpt>
      <trkpt lat="43.097342" lon="-2.200651">
        <ele>658.383</ele>
        <time>2021-03-21T10:11:33Z</time>
      </trkpt>
      <trkpt lat="43.097319" lon="-2.200658">
        <ele>659.213</ele>
        <time>2021-03-21T10:11:36Z</time>
      </trkpt>
      <trkpt lat="43.097300" lon="-2.200663">
        <ele>659.987</ele>
        <time>2021-03-21T10:11:40Z</time>
      </trkpt>
      <trkpt lat="43.097279" lon="-2.200674">
        <ele>660.842</ele>
        <time>2021-03-21T10:11:43Z</time>
      </trkpt>
      <trkpt lat="43.097261" lon="-2.200685">
        <ele>661.526</ele>
        <time>2021-03-21T10:11:46Z</time>
      </trkpt>
      <trkpt lat="43.097246" lon="-2.200692">
        <ele>662.208</ele>
        <time>2021-03-21T10:11:48Z</time>
      </trkpt>
      <trkpt lat="43.097220" lon="-2.200705">
        <ele>663.294</ele>
        <time>2021-03-21T10:11:51Z</time>
      </trkpt>
      <trkpt lat="43.097203" lon="-2.200712">
        <ele>663.827</ele>
        <time>2021-03-21T10:11:53Z</time>
      </trkpt>
      <trkpt lat="43.097181" lon="-2.200714">
        <ele>664.590</ele>
        <time>2021-03-21T10:11:55Z</time>
      </trkpt>
      <trkpt lat="43.097163" lon="-2.200723">
        <ele>665.171</ele>
        <time>2021-03-21T10:11:57Z</time>
      </trkpt>
      <trkpt lat="43.097150" lon="-2.200734">
        <ele>665.648</ele>
        <time>2021-03-21T10:11:59Z</time>
      </trkpt>
      <trkpt lat="43.097132" lon="-2.200742">
        <ele>666.326</ele>
        <time>2021-03-21T10:12:01Z</time>
      </trkpt>
      <trkpt lat="43.097115" lon="-2.200757">
        <ele>667.056</ele>
        <time>2021-03-21T10:12:03Z</time>
      </trkpt>
      <trkpt lat="43.097098" lon="-2.200770">
        <ele>667.716</ele>
        <time>2021-03-21T10:12:07Z</time>
      </trkpt>
      <trkpt lat="43.097077" lon="-2.200775">
        <ele>668.346</ele>
        <time>2021-03-21T10:12:09Z</time>
      </trkpt>
      <trkpt lat="43.097061" lon="-2.200784">
        <ele>668.988</ele>
        <time>2021-03-21T10:12:11Z</time>
      </trkpt>
      <trkpt lat="43.097038" lon="-2.200809">
        <ele>670.016</ele>
        <time>2021-03-21T10:12:14Z</time>
      </trkpt>
      <trkpt lat="43.097014" lon="-2.200827">
        <ele>670.908</ele>
        <time>2021-03-21T10:12:17Z</time>
      </trkpt>
      <trkpt lat="43.096995" lon="-2.200831">
        <ele>671.530</ele>
        <time>2021-03-21T10:12:19Z</time>
      </trkpt>
      <trkpt lat="43.096976" lon="-2.200845">
        <ele>672.183</ele>
        <time>2021-03-21T10:12:22Z</time>
      </trkpt>
      <trkpt lat="43.096959" lon="-2.200862">
        <ele>672.726</ele>
        <time>2021-03-21T10:12:24Z</time>
      </trkpt>
      <trkpt lat="43.096939" lon="-2.200868">
        <ele>673.347</ele>
        <time>2021-03-21T10:12:27Z</time>
      </trkpt>
      <trkpt lat="43.096924" lon="-2.200884">
        <ele>673.854</ele>
        <time>2021-03-21T10:12:29Z</time>
      </trkpt>
      <trkpt lat="43.096906" lon="-2.200904">
        <ele>674.442</ele>
        <time>2021-03-21T10:12:32Z</time>
      </trkpt>
      <trkpt lat="43.096885" lon="-2.200916">
        <ele>675.072</ele>
        <time>2021-03-21T10:12:34Z</time>
      </trkpt>
      <trkpt lat="43.096865" lon="-2.200933">
        <ele>675.622</ele>
        <time>2021-03-21T10:12:37Z</time>
      </trkpt>
      <trkpt lat="43.096845" lon="-2.200945">
        <ele>676.358</ele>
        <time>2021-03-21T10:12:40Z</time>
      </trkpt>
      <trkpt lat="43.096820" lon="-2.200963">
        <ele>677.152</ele>
        <time>2021-03-21T10:12:43Z</time>
      </trkpt>
      <trkpt lat="43.096796" lon="-2.200969">
        <ele>677.817</ele>
        <time>2021-03-21T10:12:45Z</time>
      </trkpt>
      <trkpt lat="43.096778" lon="-2.200974">
        <ele>678.308</ele>
        <time>2021-03-21T10:12:46Z</time>
      </trkpt>
      <trkpt lat="43.096758" lon="-2.200976">
        <ele>678.971</ele>
        <time>2021-03-21T10:12:48Z</time>
      </trkpt>
      <trkpt lat="43.096738" lon="-2.200995">
        <ele>679.554</ele>
        <time>2021-03-21T10:12:50Z</time>
      </trkpt>
      <trkpt lat="43.096721" lon="-2.201014">
        <ele>680.157</ele>
        <time>2021-03-21T10:12:52Z</time>
      </trkpt>
      <trkpt lat="43.096704" lon="-2.201033">
        <ele>680.618</ele>
        <time>2021-03-21T10:12:54Z</time>
      </trkpt>
      <trkpt lat="43.096692" lon="-2.201051">
        <ele>681.165</ele>
        <time>2021-03-21T10:12:56Z</time>
      </trkpt>
      <trkpt lat="43.096676" lon="-2.201068">
        <ele>681.663</ele>
        <time>2021-03-21T10:12:58Z</time>
      </trkpt>
      <trkpt lat="43.096659" lon="-2.201078">
        <ele>682.163</ele>
        <time>2021-03-21T10:13:01Z</time>
      </trkpt>
      <trkpt lat="43.096641" lon="-2.201101">
        <ele>682.743</ele>
        <time>2021-03-21T10:13:04Z</time>
      </trkpt>
      <trkpt lat="43.096622" lon="-2.201110">
        <ele>683.365</ele>
        <time>2021-03-21T10:13:07Z</time>
      </trkpt>
      <trkpt lat="43.096602" lon="-2.201114">
        <ele>683.968</ele>
        <time>2021-03-21T10:13:09Z</time>
      </trkpt>
      <trkpt lat="43.096582" lon="-2.201119">
        <ele>684.414</ele>
        <time>2021-03-21T10:13:11Z</time>
      </trkpt>
      <trkpt lat="43.096561" lon="-2.201126">
        <ele>685.008</ele>
        <time>2021-03-21T10:13:13Z</time>
      </trkpt>
      <trkpt lat="43.096538" lon="-2.201125">
        <ele>685.742</ele>
        <time>2021-03-21T10:13:16Z</time>
      </trkpt>
      <trkpt lat="43.096518" lon="-2.201133">
        <ele>686.215</ele>
        <time>2021-03-21T10:13:19Z</time>
      </trkpt>
      <trkpt lat="43.096500" lon="-2.201135">
        <ele>686.868</ele>
        <time>2021-03-21T10:13:22Z</time>
      </trkpt>
      <trkpt lat="43.096477" lon="-2.201142">
        <ele>687.479</ele>
        <time>2021-03-21T10:13:24Z</time>
      </trkpt>
      <trkpt lat="43.096468" lon="-2.201152">
        <ele>687.776</ele>
        <time>2021-03-21T10:13:27Z</time>
      </trkpt>
      <trkpt lat="43.096454" lon="-2.201169">
        <ele>688.164</ele>
        <time>2021-03-21T10:13:30Z</time>
      </trkpt>
      <trkpt lat="43.096438" lon="-2.201186">
        <ele>688.584</ele>
        <time>2021-03-21T10:13:33Z</time>
      </trkpt>
      <trkpt lat="43.096415" lon="-2.201197">
        <ele>689.264</ele>
        <time>2021-03-21T10:13:36Z</time>
      </trkpt>
      <trkpt lat="43.096391" lon="-2.201207">
        <ele>689.931</ele>
        <time>2021-03-21T10:13:39Z</time>
      </trkpt>
      <trkpt lat="43.096370" lon="-2.201213">
        <ele>690.761</ele>
        <time>2021-03-21T10:13:42Z</time>
      </trkpt>
      <trkpt lat="43.096353" lon="-2.201224">
        <ele>691.307</ele>
        <time>2021-03-21T10:13:45Z</time>
      </trkpt>
      <trkpt lat="43.096336" lon="-2.201238">
        <ele>692.008</ele>
        <time>2021-03-21T10:13:47Z</time>
      </trkpt>
      <trkpt lat="43.096324" lon="-2.201256">
        <ele>692.589</ele>
        <time>2021-03-21T10:13:50Z</time>
      </trkpt>
      <trkpt lat="43.096297" lon="-2.201278">
        <ele>693.542</ele>
        <time>2021-03-21T10:13:52Z</time>
      </trkpt>
      <trkpt lat="43.096274" lon="-2.201296">
        <ele>694.485</ele>
        <time>2021-03-21T10:13:54Z</time>
      </trkpt>
      <trkpt lat="43.096254" lon="-2.201309">
        <ele>695.236</ele>
        <time>2021-03-21T10:13:57Z</time>
      </trkpt>
      <trkpt lat="43.096237" lon="-2.201337">
        <ele>695.983</ele>
        <time>2021-03-21T10:13:59Z</time>
      </trkpt>
      <trkpt lat="43.096221" lon="-2.201354">
        <ele>696.691</ele>
        <time>2021-03-21T10:14:01Z</time>
      </trkpt>
      <trkpt lat="43.096202" lon="-2.201370">
        <ele>697.421</ele>
        <time>2021-03-21T10:14:04Z</time>
      </trkpt>
      <trkpt lat="43.096177" lon="-2.201386">
        <ele>698.451</ele>
        <time>2021-03-21T10:14:07Z</time>
      </trkpt>
      <trkpt lat="43.096157" lon="-2.201409">
        <ele>699.114</ele>
        <time>2021-03-21T10:14:10Z</time>
      </trkpt>
      <trkpt lat="43.096139" lon="-2.201420">
        <ele>699.854</ele>
        <time>2021-03-21T10:14:15Z</time>
      </trkpt>
      <trkpt lat="43.096119" lon="-2.201424">
        <ele>700.609</ele>
        <time>2021-03-21T10:14:19Z</time>
      </trkpt>
      <trkpt lat="43.096105" lon="-2.201424">
        <ele>701.108</ele>
        <time>2021-03-21T10:14:22Z</time>
      </trkpt>
      <trkpt lat="43.096082" lon="-2.201419">
        <ele>702.027</ele>
        <time>2021-03-21T10:14:25Z</time>
      </trkpt>
      <trkpt lat="43.096059" lon="-2.201437">
        <ele>702.760</ele>
        <time>2021-03-21T10:14:28Z</time>
      </trkpt>
      <trkpt lat="43.096040" lon="-2.201457">
        <ele>703.493</ele>
        <time>2021-03-21T10:14:30Z</time>
      </trkpt>
      <trkpt lat="43.096026" lon="-2.201481">
        <ele>703.834</ele>
        <time>2021-03-21T10:14:33Z</time>
      </trkpt>
      <trkpt lat="43.096012" lon="-2.201499">
        <ele>704.311</ele>
        <time>2021-03-21T10:14:35Z</time>
      </trkpt>
      <trkpt lat="43.095996" lon="-2.201517">
        <ele>704.929</ele>
        <time>2021-03-21T10:14:37Z</time>
      </trkpt>
      <trkpt lat="43.095979" lon="-2.201524">
        <ele>705.569</ele>
        <time>2021-03-21T10:14:39Z</time>
      </trkpt>
      <trkpt lat="43.095957" lon="-2.201538">
        <ele>706.349</ele>
        <time>2021-03-21T10:14:42Z</time>
      </trkpt>
      <trkpt lat="43.095934" lon="-2.201540">
        <ele>707.218</ele>
        <time>2021-03-21T10:14:45Z</time>
      </trkpt>
      <trkpt lat="43.095914" lon="-2.201554">
        <ele>707.998</ele>
        <time>2021-03-21T10:14:48Z</time>
      </trkpt>
      <trkpt lat="43.095893" lon="-2.201562">
        <ele>708.717</ele>
        <time>2021-03-21T10:14:51Z</time>
      </trkpt>
      <trkpt lat="43.095870" lon="-2.201578">
        <ele>709.608</ele>
        <time>2021-03-21T10:14:54Z</time>
      </trkpt>
      <trkpt lat="43.095853" lon="-2.201590">
        <ele>710.257</ele>
        <time>2021-03-21T10:14:56Z</time>
      </trkpt>
      <trkpt lat="43.095828" lon="-2.201594">
        <ele>711.240</ele>
        <time>2021-03-21T10:14:58Z</time>
      </trkpt>
      <trkpt lat="43.095810" lon="-2.201611">
        <ele>711.723</ele>
        <time>2021-03-21T10:15:01Z</time>
      </trkpt>
      <trkpt lat="43.095786" lon="-2.201626">
        <ele>712.524</ele>
        <time>2021-03-21T10:15:03Z</time>
      </trkpt>
      <trkpt lat="43.095766" lon="-2.201634">
        <ele>713.281</ele>
        <time>2021-03-21T10:15:05Z</time>
      </trkpt>
      <trkpt lat="43.095745" lon="-2.201640">
        <ele>713.819</ele>
        <time>2021-03-21T10:15:07Z</time>
      </trkpt>
      <trkpt lat="43.095726" lon="-2.201654">
        <ele>714.569</ele>
        <time>2021-03-21T10:15:09Z</time>
      </trkpt>
      <trkpt lat="43.095702" lon="-2.201674">
        <ele>715.289</ele>
        <time>2021-03-21T10:15:12Z</time>
      </trkpt>
      <trkpt lat="43.095682" lon="-2.201696">
        <ele>715.961</ele>
        <time>2021-03-21T10:15:16Z</time>
      </trkpt>
      <trkpt lat="43.095668" lon="-2.201710">
        <ele>716.321</ele>
        <time>2021-03-21T10:15:18Z</time>
      </trkpt>
      <trkpt lat="43.095649" lon="-2.201738">
        <ele>716.913</ele>
        <time>2021-03-21T10:15:21Z</time>
      </trkpt>
      <trkpt lat="43.095634" lon="-2.201766">
        <ele>717.408</ele>
        <time>2021-03-21T10:15:24Z</time>
      </trkpt>
      <trkpt lat="43.095615" lon="-2.201782">
        <ele>718.072</ele>
        <time>2021-03-21T10:15:27Z</time>
      </trkpt>
      <trkpt lat="43.095595" lon="-2.201795">
        <ele>718.755</ele>
        <time>2021-03-21T10:15:29Z</time>
      </trkpt>
      <trkpt lat="43.095576" lon="-2.201821">
        <ele>719.328</ele>
        <time>2021-03-21T10:15:32Z</time>
      </trkpt>
      <trkpt lat="43.095558" lon="-2.201831">
        <ele>719.969</ele>
        <time>2021-03-21T10:15:34Z</time>
      </trkpt>
      <trkpt lat="43.095542" lon="-2.201864">
        <ele>720.486</ele>
        <time>2021-03-21T10:15:37Z</time>
      </trkpt>
      <trkpt lat="43.095533" lon="-2.201886">
        <ele>720.784</ele>
        <time>2021-03-21T10:15:39Z</time>
      </trkpt>
      <trkpt lat="43.095523" lon="-2.201913">
        <ele>721.054</ele>
        <time>2021-03-21T10:15:41Z</time>
      </trkpt>
      <trkpt lat="43.095519" lon="-2.201941">
        <ele>721.224</ele>
        <time>2021-03-21T10:15:43Z</time>
      </trkpt>
      <trkpt lat="43.095500" lon="-2.201964">
        <ele>721.724</ele>
        <time>2021-03-21T10:15:46Z</time>
      </trkpt>
      <trkpt lat="43.095489" lon="-2.201984">
        <ele>722.004</ele>
        <time>2021-03-21T10:15:48Z</time>
      </trkpt>
      <trkpt lat="43.095482" lon="-2.202015">
        <ele>722.214</ele>
        <time>2021-03-21T10:15:50Z</time>
      </trkpt>
      <trkpt lat="43.095477" lon="-2.202039">
        <ele>722.308</ele>
        <time>2021-03-21T10:15:51Z</time>
      </trkpt>
      <trkpt lat="43.095477" lon="-2.202062">
        <ele>722.218</ele>
        <time>2021-03-21T10:15:52Z</time>
      </trkpt>
      <trkpt lat="43.095469" lon="-2.202090">
        <ele>722.471</ele>
        <time>2021-03-21T10:15:54Z</time>
      </trkpt>
      <trkpt lat="43.095449" lon="-2.202114">
        <ele>723.194</ele>
        <time>2021-03-21T10:15:56Z</time>
      </trkpt>
      <trkpt lat="43.095438" lon="-2.202143">
        <ele>723.435</ele>
        <time>2021-03-21T10:15:58Z</time>
      </trkpt>
      <trkpt lat="43.095438" lon="-2.202172">
        <ele>723.382</ele>
        <time>2021-03-21T10:16:00Z</time>
      </trkpt>
      <trkpt lat="43.095416" lon="-2.202196">
        <ele>724.160</ele>
        <time>2021-03-21T10:16:02Z</time>
      </trkpt>
      <trkpt lat="43.095390" lon="-2.202204">
        <ele>725.080</ele>
        <time>2021-03-21T10:16:04Z</time>
      </trkpt>
      <trkpt lat="43.095373" lon="-2.202205">
        <ele>725.660</ele>
        <time>2021-03-21T10:16:06Z</time>
      </trkpt>
      <trkpt lat="43.095360" lon="-2.202178">
        <ele>726.131</ele>
        <time>2021-03-21T10:16:09Z</time>
      </trkpt>
      <trkpt lat="43.095335" lon="-2.202157">
        <ele>727.061</ele>
        <time>2021-03-21T10:16:12Z</time>
      </trkpt>
      <trkpt lat="43.095315" lon="-2.202151">
        <ele>727.707</ele>
        <time>2021-03-21T10:16:14Z</time>
      </trkpt>
      <trkpt lat="43.095310" lon="-2.202131">
        <ele>727.908</ele>
        <time>2021-03-21T10:16:19Z</time>
      </trkpt>
      <trkpt lat="43.095293" lon="-2.202109">
        <ele>728.549</ele>
        <time>2021-03-21T10:16:22Z</time>
      </trkpt>
      <trkpt lat="43.095276" lon="-2.202087">
        <ele>729.042</ele>
        <time>2021-03-21T10:16:23Z</time>
      </trkpt>
      <trkpt lat="43.095249" lon="-2.202077">
        <ele>729.365</ele>
        <time>2021-03-21T10:16:27Z</time>
      </trkpt>
      <trkpt lat="43.095221" lon="-2.202070">
        <ele>729.576</ele>
        <time>2021-03-21T10:16:29Z</time>
      </trkpt>
      <trkpt lat="43.095196" lon="-2.202062">
        <ele>729.763</ele>
        <time>2021-03-21T10:16:31Z</time>
      </trkpt>
      <trkpt lat="43.095170" lon="-2.202053">
        <ele>729.961</ele>
        <time>2021-03-21T10:16:33Z</time>
      </trkpt>
      <trkpt lat="43.095145" lon="-2.202049">
        <ele>730.171</ele>
        <time>2021-03-21T10:16:35Z</time>
      </trkpt>
      <trkpt lat="43.095122" lon="-2.202052">
        <ele>730.371</ele>
        <time>2021-03-21T10:16:37Z</time>
      </trkpt>
      <trkpt lat="43.095106" lon="-2.202040">
        <ele>730.564</ele>
        <time>2021-03-21T10:16:39Z</time>
      </trkpt>
      <trkpt lat="43.095091" lon="-2.202019">
        <ele>730.506</ele>
        <time>2021-03-21T10:16:42Z</time>
      </trkpt>
      <trkpt lat="43.095063" lon="-2.202009">
        <ele>730.716</ele>
        <time>2021-03-21T10:16:44Z</time>
      </trkpt>
      <trkpt lat="43.095040" lon="-2.202000">
        <ele>730.908</ele>
        <time>2021-03-21T10:16:46Z</time>
      </trkpt>
      <trkpt lat="43.095012" lon="-2.201986">
        <ele>731.132</ele>
        <time>2021-03-21T10:16:48Z</time>
      </trkpt>
      <trkpt lat="43.094994" lon="-2.201973">
        <ele>731.155</ele>
        <time>2021-03-21T10:16:49Z</time>
      </trkpt>
      <trkpt lat="43.094976" lon="-2.201964">
        <ele>731.298</ele>
        <time>2021-03-21T10:16:50Z</time>
      </trkpt>
      <trkpt lat="43.094945" lon="-2.201954">
        <ele>731.479</ele>
        <time>2021-03-21T10:16:52Z</time>
      </trkpt>
      <trkpt lat="43.094920" lon="-2.201952">
        <ele>731.636</ele>
        <time>2021-03-21T10:16:54Z</time>
      </trkpt>
      <trkpt lat="43.094895" lon="-2.201941">
        <ele>731.894</ele>
        <time>2021-03-21T10:16:56Z</time>
      </trkpt>
      <trkpt lat="43.094872" lon="-2.201935">
        <ele>731.954</ele>
        <time>2021-03-21T10:16:57Z</time>
      </trkpt>
      <trkpt lat="43.094844" lon="-2.201917">
        <ele>732.134</ele>
        <time>2021-03-21T10:17:00Z</time>
      </trkpt>
      <trkpt lat="43.094819" lon="-2.201905">
        <ele>732.266</ele>
        <time>2021-03-21T10:17:02Z</time>
      </trkpt>
      <trkpt lat="43.094791" lon="-2.201896">
        <ele>732.429</ele>
        <time>2021-03-21T10:17:04Z</time>
      </trkpt>
      <trkpt lat="43.094758" lon="-2.201903">
        <ele>732.621</ele>
        <time>2021-03-21T10:17:06Z</time>
      </trkpt>
      <trkpt lat="43.094725" lon="-2.201921">
        <ele>732.908</ele>
        <time>2021-03-21T10:17:08Z</time>
      </trkpt>
      <trkpt lat="43.094699" lon="-2.201932">
        <ele>733.452</ele>
        <time>2021-03-21T10:17:10Z</time>
      </trkpt>
      <trkpt lat="43.094681" lon="-2.201943">
        <ele>733.775</ele>
        <time>2021-03-21T10:17:12Z</time>
      </trkpt>
      <trkpt lat="43.094660" lon="-2.201960">
        <ele>734.168</ele>
        <time>2021-03-21T10:17:14Z</time>
      </trkpt>
      <trkpt lat="43.094639" lon="-2.201978">
        <ele>734.589</ele>
        <time>2021-03-21T10:17:16Z</time>
      </trkpt>
      <trkpt lat="43.094618" lon="-2.201988">
        <ele>734.976</ele>
        <time>2021-03-21T10:17:18Z</time>
      </trkpt>
      <trkpt lat="43.094594" lon="-2.202006">
        <ele>735.434</ele>
        <time>2021-03-21T10:17:20Z</time>
      </trkpt>
      <trkpt lat="43.094568" lon="-2.202023">
        <ele>735.954</ele>
        <time>2021-03-21T10:17:22Z</time>
      </trkpt>
      <trkpt lat="43.094540" lon="-2.202044">
        <ele>736.534</ele>
        <time>2021-03-21T10:17:24Z</time>
      </trkpt>
      <trkpt lat="43.094518" lon="-2.202063">
        <ele>737.088</ele>
        <time>2021-03-21T10:17:26Z</time>
      </trkpt>
      <trkpt lat="43.094497" lon="-2.202088">
        <ele>737.524</ele>
        <time>2021-03-21T10:17:28Z</time>
      </trkpt>
      <trkpt lat="43.094480" lon="-2.202112">
        <ele>737.926</ele>
        <time>2021-03-21T10:17:30Z</time>
      </trkpt>
      <trkpt lat="43.094461" lon="-2.202142">
        <ele>738.408</ele>
        <time>2021-03-21T10:17:32Z</time>
      </trkpt>
      <trkpt lat="43.094446" lon="-2.202175">
        <ele>738.864</ele>
        <time>2021-03-21T10:17:34Z</time>
      </trkpt>
      <trkpt lat="43.094432" lon="-2.202191">
        <ele>739.367</ele>
        <time>2021-03-21T10:17:36Z</time>
      </trkpt>
      <trkpt lat="43.094415" lon="-2.202209">
        <ele>739.950</ele>
        <time>2021-03-21T10:17:38Z</time>
      </trkpt>
      <trkpt lat="43.094396" lon="-2.202226">
        <ele>740.641</ele>
        <time>2021-03-21T10:17:40Z</time>
      </trkpt>
      <trkpt lat="43.094381" lon="-2.202242">
        <ele>741.188</ele>
        <time>2021-03-21T10:17:42Z</time>
      </trkpt>
      <trkpt lat="43.094363" lon="-2.202259">
        <ele>741.666</ele>
        <time>2021-03-21T10:17:44Z</time>
      </trkpt>
      <trkpt lat="43.094349" lon="-2.202285">
        <ele>742.156</ele>
        <time>2021-03-21T10:17:46Z</time>
      </trkpt>
      <trkpt lat="43.094341" lon="-2.202309">
        <ele>742.466</ele>
        <time>2021-03-21T10:17:48Z</time>
      </trkpt>
      <trkpt lat="43.094328" lon="-2.202337">
        <ele>742.882</ele>
        <time>2021-03-21T10:17:50Z</time>
      </trkpt>
      <trkpt lat="43.094310" lon="-2.202363">
        <ele>743.443</ele>
        <time>2021-03-21T10:17:52Z</time>
      </trkpt>
      <trkpt lat="43.094294" lon="-2.202391">
        <ele>743.917</ele>
        <time>2021-03-21T10:17:54Z</time>
      </trkpt>
      <trkpt lat="43.094280" lon="-2.202422">
        <ele>744.308</ele>
        <time>2021-03-21T10:17:56Z</time>
      </trkpt>
      <trkpt lat="43.094264" lon="-2.202447">
        <ele>744.814</ele>
        <time>2021-03-21T10:17:58Z</time>
      </trkpt>
      <trkpt lat="43.094255" lon="-2.202473">
        <ele>745.177</ele>
        <time>2021-03-21T10:18:00Z</time>
      </trkpt>
      <trkpt lat="43.094251" lon="-2.202496">
        <ele>745.370</ele>
        <time>2021-03-21T10:18:02Z</time>
      </trkpt>
      <trkpt lat="43.094242" lon="-2.202516">
        <ele>745.621</ele>
        <time>2021-03-21T10:18:04Z</time>
      </trkpt>
      <trkpt lat="43.094225" lon="-2.202562">
        <ele>746.268</ele>
        <time>2021-03-21T10:18:07Z</time>
      </trkpt>
      <trkpt lat="43.094207" lon="-2.202584">
        <ele>746.936</ele>
        <time>2021-03-21T10:18:09Z</time>
      </trkpt>
      <trkpt lat="43.094187" lon="-2.202606">
        <ele>747.746</ele>
        <time>2021-03-21T10:18:12Z</time>
      </trkpt>
      <trkpt lat="43.094166" lon="-2.202620">
        <ele>748.516</ele>
        <time>2021-03-21T10:18:14Z</time>
      </trkpt>
      <trkpt lat="43.094148" lon="-2.202631">
        <ele>749.262</ele>
        <time>2021-03-21T10:18:16Z</time>
      </trkpt>
      <trkpt lat="43.094132" lon="-2.202653">
        <ele>750.083</ele>
        <time>2021-03-21T10:18:19Z</time>
      </trkpt>
      <trkpt lat="43.094116" lon="-2.202674">
        <ele>750.711</ele>
        <time>2021-03-21T10:18:22Z</time>
      </trkpt>
      <trkpt lat="43.094107" lon="-2.202691">
        <ele>751.208</ele>
        <time>2021-03-21T10:18:24Z</time>
      </trkpt>
      <trkpt lat="43.094093" lon="-2.202716">
        <ele>751.962</ele>
        <time>2021-03-21T10:18:27Z</time>
      </trkpt>
      <trkpt lat="43.094079" lon="-2.202733">
        <ele>752.645</ele>
        <time>2021-03-21T10:18:30Z</time>
      </trkpt>
      <trkpt lat="43.094069" lon="-2.202755">
        <ele>753.118</ele>
        <time>2021-03-21T10:18:34Z</time>
      </trkpt>
      <trkpt lat="43.094056" lon="-2.202775">
        <ele>753.859</ele>
        <time>2021-03-21T10:18:36Z</time>
      </trkpt>
      <trkpt lat="43.094043" lon="-2.202804">
        <ele>754.556</ele>
        <time>2021-03-21T10:18:39Z</time>
      </trkpt>
      <trkpt lat="43.094032" lon="-2.202822">
        <ele>755.054</ele>
        <time>2021-03-21T10:18:41Z</time>
      </trkpt>
      <trkpt lat="43.094016" lon="-2.202846">
        <ele>755.994</ele>
        <time>2021-03-21T10:18:44Z</time>
      </trkpt>
      <trkpt lat="43.094011" lon="-2.202876">
        <ele>756.334</ele>
        <time>2021-03-21T10:18:46Z</time>
      </trkpt>
      <trkpt lat="43.094009" lon="-2.202905">
        <ele>756.645</ele>
        <time>2021-03-21T10:18:48Z</time>
      </trkpt>
      <trkpt lat="43.094008" lon="-2.202931">
        <ele>756.847</ele>
        <time>2021-03-21T10:18:50Z</time>
      </trkpt>
      <trkpt lat="43.094008" lon="-2.202963">
        <ele>757.011</ele>
        <time>2021-03-21T10:18:52Z</time>
      </trkpt>
      <trkpt lat="43.093998" lon="-2.202984">
        <ele>757.608</ele>
        <time>2021-03-21T10:18:54Z</time>
      </trkpt>
      <trkpt lat="43.093990" lon="-2.203010">
        <ele>758.220</ele>
        <time>2021-03-21T10:18:56Z</time>
      </trkpt>
      <trkpt lat="43.093985" lon="-2.203042">
        <ele>758.713</ele>
        <time>2021-03-21T10:18:58Z</time>
      </trkpt>
      <trkpt lat="43.093977" lon="-2.203070">
        <ele>759.346</ele>
        <time>2021-03-21T10:19:00Z</time>
      </trkpt>
      <trkpt lat="43.093976" lon="-2.203105">
        <ele>759.647</ele>
        <time>2021-03-21T10:19:02Z</time>
      </trkpt>
      <trkpt lat="43.093973" lon="-2.203140">
        <ele>760.024</ele>
        <time>2021-03-21T10:19:04Z</time>
      </trkpt>
      <trkpt lat="43.093965" lon="-2.203184">
        <ele>760.732</ele>
        <time>2021-03-21T10:19:06Z</time>
      </trkpt>
      <trkpt lat="43.093962" lon="-2.203231">
        <ele>761.142</ele>
        <time>2021-03-21T10:19:08Z</time>
      </trkpt>
      <trkpt lat="43.093960" lon="-2.203257">
        <ele>761.412</ele>
        <time>2021-03-21T10:19:09Z</time>
      </trkpt>
      <trkpt lat="43.093960" lon="-2.203297">
        <ele>761.715</ele>
        <time>2021-03-21T10:19:11Z</time>
      </trkpt>
      <trkpt lat="43.093958" lon="-2.203329">
        <ele>762.065</ele>
        <time>2021-03-21T10:19:13Z</time>
      </trkpt>
      <trkpt lat="43.093958" lon="-2.203369">
        <ele>762.111</ele>
        <time>2021-03-21T10:19:15Z</time>
      </trkpt>
      <trkpt lat="43.093958" lon="-2.203405">
        <ele>762.308</ele>
        <time>2021-03-21T10:19:17Z</time>
      </trkpt>
      <trkpt lat="43.093960" lon="-2.203436">
        <ele>762.317</ele>
        <time>2021-03-21T10:19:19Z</time>
      </trkpt>
      <trkpt lat="43.093956" lon="-2.203472">
        <ele>762.640</ele>
        <time>2021-03-21T10:19:21Z</time>
      </trkpt>
      <trkpt lat="43.093953" lon="-2.203507">
        <ele>762.973</ele>
        <time>2021-03-21T10:19:23Z</time>
      </trkpt>
      <trkpt lat="43.093949" lon="-2.203530">
        <ele>763.274</ele>
        <time>2021-03-21T10:19:24Z</time>
      </trkpt>
      <trkpt lat="43.093942" lon="-2.203563">
        <ele>763.881</ele>
        <time>2021-03-21T10:19:26Z</time>
      </trkpt>
      <trkpt lat="43.093939" lon="-2.203601">
        <ele>764.179</ele>
        <time>2021-03-21T10:19:28Z</time>
      </trkpt>
      <trkpt lat="43.093938" lon="-2.203638">
        <ele>764.469</ele>
        <time>2021-03-21T10:19:30Z</time>
      </trkpt>
      <trkpt lat="43.093939" lon="-2.203676">
        <ele>764.729</ele>
        <time>2021-03-21T10:19:32Z</time>
      </trkpt>
      <trkpt lat="43.093943" lon="-2.203706">
        <ele>764.737</ele>
        <time>2021-03-21T10:19:34Z</time>
      </trkpt>
      <trkpt lat="43.093941" lon="-2.203737">
        <ele>765.149</ele>
        <time>2021-03-21T10:19:36Z</time>
      </trkpt>
      <trkpt lat="43.093936" lon="-2.203766">
        <ele>765.613</ele>
        <time>2021-03-21T10:19:38Z</time>
      </trkpt>
      <trkpt lat="43.093935" lon="-2.203798">
        <ele>765.908</ele>
        <time>2021-03-21T10:19:40Z</time>
      </trkpt>
      <trkpt lat="43.093932" lon="-2.203836">
        <ele>766.439</ele>
        <time>2021-03-21T10:19:42Z</time>
      </trkpt>
      <trkpt lat="43.093929" lon="-2.203871">
        <ele>766.842</ele>
        <time>2021-03-21T10:19:44Z</time>
      </trkpt>
      <trkpt lat="43.093929" lon="-2.203906">
        <ele>767.115</ele>
        <time>2021-03-21T10:19:46Z</time>
      </trkpt>
      <trkpt lat="43.093923" lon="-2.203934">
        <ele>767.586</ele>
        <time>2021-03-21T10:19:48Z</time>
      </trkpt>
      <trkpt lat="43.093916" lon="-2.203959">
        <ele>768.073</ele>
        <time>2021-03-21T10:19:50Z</time>
      </trkpt>
      <trkpt lat="43.093912" lon="-2.203987">
        <ele>768.321</ele>
        <time>2021-03-21T10:19:53Z</time>
      </trkpt>
      <trkpt lat="43.093908" lon="-2.203967">
        <ele>768.411</ele>
        <time>2021-03-21T10:20:01Z</time>
      </trkpt>
      <trkpt lat="43.093892" lon="-2.203944">
        <ele>769.141</ele>
        <time>2021-03-21T10:20:04Z</time>
      </trkpt>
      <trkpt lat="43.093879" lon="-2.203924">
        <ele>769.554</ele>
        <time>2021-03-21T10:20:07Z</time>
      </trkpt>
      <trkpt lat="43.093855" lon="-2.203937">
        <ele>770.356</ele>
        <time>2021-03-21T10:20:10Z</time>
      </trkpt>
      <trkpt lat="43.093837" lon="-2.203948">
        <ele>771.011</ele>
        <time>2021-03-21T10:20:12Z</time>
      </trkpt>
      <trkpt lat="43.093816" lon="-2.203968">
        <ele>771.708</ele>
        <time>2021-03-21T10:20:14Z</time>
      </trkpt>
      <trkpt lat="43.093797" lon="-2.203976">
        <ele>772.321</ele>
        <time>2021-03-21T10:20:16Z</time>
      </trkpt>
      <trkpt lat="43.093772" lon="-2.203988">
        <ele>773.164</ele>
        <time>2021-03-21T10:20:18Z</time>
      </trkpt>
      <trkpt lat="43.093752" lon="-2.204006">
        <ele>773.787</ele>
        <time>2021-03-21T10:20:20Z</time>
      </trkpt>
      <trkpt lat="43.093729" lon="-2.204024">
        <ele>774.458</ele>
        <time>2021-03-21T10:20:23Z</time>
      </trkpt>
      <trkpt lat="43.093709" lon="-2.204025">
        <ele>775.075</ele>
        <time>2021-03-21T10:20:25Z</time>
      </trkpt>
      <trkpt lat="43.093696" lon="-2.204025">
        <ele>775.413</ele>
        <time>2021-03-21T10:20:31Z</time>
      </trkpt>
      <trkpt lat="43.093677" lon="-2.204024">
        <ele>776.093</ele>
        <time>2021-03-21T10:20:33Z</time>
      </trkpt>
      <trkpt lat="43.093659" lon="-2.204029">
        <ele>776.563</ele>
        <time>2021-03-21T10:20:35Z</time>
      </trkpt>
      <trkpt lat="43.093635" lon="-2.204036">
        <ele>777.212</ele>
        <time>2021-03-21T10:20:38Z</time>
      </trkpt>
      <trkpt lat="43.093621" lon="-2.204023">
        <ele>777.732</ele>
        <time>2021-03-21T10:20:42Z</time>
      </trkpt>
      <trkpt lat="43.093602" lon="-2.204021">
        <ele>778.405</ele>
        <time>2021-03-21T10:20:48Z</time>
      </trkpt>
      <trkpt lat="43.093589" lon="-2.204004">
        <ele>778.908</ele>
        <time>2021-03-21T10:20:53Z</time>
      </trkpt>
      <trkpt lat="43.093583" lon="-2.203980">
        <ele>779.327</ele>
        <time>2021-03-21T10:20:58Z</time>
      </trkpt>
      <trkpt lat="43.093574" lon="-2.203953">
        <ele>779.850</ele>
        <time>2021-03-21T10:21:02Z</time>
      </trkpt>
      <trkpt lat="43.093562" lon="-2.203933">
        <ele>780.483</ele>
        <time>2021-03-21T10:21:04Z</time>
      </trkpt>
      <trkpt lat="43.093547" lon="-2.203907">
        <ele>781.254</ele>
        <time>2021-03-21T10:21:07Z</time>
      </trkpt>
      <trkpt lat="43.093535" lon="-2.203891">
        <ele>781.781</ele>
        <time>2021-03-21T10:21:09Z</time>
      </trkpt>
      <trkpt lat="43.093518" lon="-2.203869">
        <ele>782.529</ele>
        <time>2021-03-21T10:21:13Z</time>
      </trkpt>
      <trkpt lat="43.093498" lon="-2.203847">
        <ele>783.479</ele>
        <time>2021-03-21T10:21:17Z</time>
      </trkpt>
      <trkpt lat="43.093489" lon="-2.203824">
        <ele>783.969</ele>
        <time>2021-03-21T10:21:19Z</time>
      </trkpt>
      <trkpt lat="43.093482" lon="-2.203800">
        <ele>784.378</ele>
        <time>2021-03-21T10:21:24Z</time>
      </trkpt>
      <trkpt lat="43.093467" lon="-2.203788">
        <ele>784.933</ele>
        <time>2021-03-21T10:21:30Z</time>
      </trkpt>
      <trkpt lat="43.093454" lon="-2.203764">
        <ele>785.626</ele>
        <time>2021-03-21T10:21:32Z</time>
      </trkpt>
      <trkpt lat="43.093434" lon="-2.203758">
        <ele>786.308</ele>
        <time>2021-03-21T10:21:37Z</time>
      </trkpt>
      <trkpt lat="43.093400" lon="-2.203745">
        <ele>787.663</ele>
        <time>2021-03-21T10:21:39Z</time>
      </trkpt>
      <trkpt lat="43.093381" lon="-2.203733">
        <ele>788.436</ele>
        <time>2021-03-21T10:21:40Z</time>
      </trkpt>
      <trkpt lat="43.093352" lon="-2.203725">
        <ele>789.589</ele>
        <time>2021-03-21T10:21:42Z</time>
      </trkpt>
      <trkpt lat="43.093333" lon="-2.203713">
        <ele>790.310</ele>
        <time>2021-03-21T10:21:44Z</time>
      </trkpt>
      <trkpt lat="43.093303" lon="-2.203698">
        <ele>791.627</ele>
        <time>2021-03-21T10:21:46Z</time>
      </trkpt>
      <trkpt lat="43.093279" lon="-2.203685">
        <ele>792.745</ele>
        <time>2021-03-21T10:21:48Z</time>
      </trkpt>
      <trkpt lat="43.093254" lon="-2.203680">
        <ele>793.895</ele>
        <time>2021-03-21T10:21:50Z</time>
      </trkpt>
      <trkpt lat="43.093232" lon="-2.203676">
        <ele>794.715</ele>
        <time>2021-03-21T10:21:53Z</time>
      </trkpt>
      <trkpt lat="43.093217" lon="-2.203674">
        <ele>795.476</ele>
        <time>2021-03-21T10:21:56Z</time>
      </trkpt>
      <trkpt lat="43.093196" lon="-2.203687">
        <ele>796.190</ele>
        <time>2021-03-21T10:21:59Z</time>
      </trkpt>
      <trkpt lat="43.093174" lon="-2.203699">
        <ele>796.919</ele>
        <time>2021-03-21T10:22:01Z</time>
      </trkpt>
      <trkpt lat="43.093155" lon="-2.203705">
        <ele>797.608</ele>
        <time>2021-03-21T10:22:03Z</time>
      </trkpt>
      <trkpt lat="43.093134" lon="-2.203722">
        <ele>798.263</ele>
        <time>2021-03-21T10:22:06Z</time>
      </trkpt>
      <trkpt lat="43.093117" lon="-2.203732">
        <ele>798.896</ele>
        <time>2021-03-21T10:22:08Z</time>
      </trkpt>
      <trkpt lat="43.093098" lon="-2.203740">
        <ele>799.589</ele>
        <time>2021-03-21T10:22:11Z</time>
      </trkpt>
      <trkpt lat="43.093081" lon="-2.203745">
        <ele>800.160</ele>
        <time>2021-03-21T10:22:13Z</time>
      </trkpt>
      <trkpt lat="43.093058" lon="-2.203763">
        <ele>800.737</ele>
        <time>2021-03-21T10:22:15Z</time>
      </trkpt>
      <trkpt lat="43.093042" lon="-2.203784">
        <ele>801.165</ele>
        <time>2021-03-21T10:22:17Z</time>
      </trkpt>
      <trkpt lat="43.093027" lon="-2.203807">
        <ele>801.425</ele>
        <time>2021-03-21T10:22:19Z</time>
      </trkpt>
      <trkpt lat="43.093009" lon="-2.203822">
        <ele>802.055</ele>
        <time>2021-03-21T10:22:22Z</time>
      </trkpt>
      <trkpt lat="43.092988" lon="-2.203839">
        <ele>802.721</ele>
        <time>2021-03-21T10:22:25Z</time>
      </trkpt>
      <trkpt lat="43.092973" lon="-2.203869">
        <ele>802.941</ele>
        <time>2021-03-21T10:22:27Z</time>
      </trkpt>
      <trkpt lat="43.092958" lon="-2.203899">
        <ele>803.005</ele>
        <time>2021-03-21T10:22:29Z</time>
      </trkpt>
      <trkpt lat="43.092940" lon="-2.203920">
        <ele>803.308</ele>
        <time>2021-03-21T10:22:31Z</time>
      </trkpt>
      <trkpt lat="43.092921" lon="-2.203940">
        <ele>803.738</ele>
        <time>2021-03-21T10:22:33Z</time>
      </trkpt>
      <trkpt lat="43.092904" lon="-2.203954">
        <ele>804.181</ele>
        <time>2021-03-21T10:22:35Z</time>
      </trkpt>
      <trkpt lat="43.092887" lon="-2.203971">
        <ele>804.434</ele>
        <time>2021-03-21T10:22:38Z</time>
      </trkpt>
      <trkpt lat="43.092865" lon="-2.203977">
        <ele>805.225</ele>
        <time>2021-03-21T10:22:41Z</time>
      </trkpt>
      <trkpt lat="43.092845" lon="-2.203974">
        <ele>806.142</ele>
        <time>2021-03-21T10:22:44Z</time>
      </trkpt>
      <trkpt lat="43.092828" lon="-2.203981">
        <ele>806.680</ele>
        <time>2021-03-21T10:22:46Z</time>
      </trkpt>
      <trkpt lat="43.092810" lon="-2.203994">
        <ele>807.010</ele>
        <time>2021-03-21T10:22:48Z</time>
      </trkpt>
      <trkpt lat="43.092793" lon="-2.204022">
        <ele>807.080</ele>
        <time>2021-03-21T10:22:50Z</time>
      </trkpt>
      <trkpt lat="43.092774" lon="-2.204036">
        <ele>807.418</ele>
        <time>2021-03-21T10:22:52Z</time>
      </trkpt>
      <trkpt lat="43.092753" lon="-2.204054">
        <ele>807.798</ele>
        <time>2021-03-21T10:22:54Z</time>
      </trkpt>
      <trkpt lat="43.092736" lon="-2.204083">
        <ele>807.617</ele>
        <time>2021-03-21T10:22:56Z</time>
      </trkpt>
      <trkpt lat="43.092718" lon="-2.204113">
        <ele>807.508</ele>
        <time>2021-03-21T10:22:58Z</time>
      </trkpt>
      <trkpt lat="43.092694" lon="-2.204137">
        <ele>807.867</ele>
        <time>2021-03-21T10:23:00Z</time>
      </trkpt>
      <trkpt lat="43.092678" lon="-2.204157">
        <ele>807.830</ele>
        <time>2021-03-21T10:23:02Z</time>
      </trkpt>
      <trkpt lat="43.092663" lon="-2.204178">
        <ele>807.813</ele>
        <time>2021-03-21T10:23:04Z</time>
      </trkpt>
      <trkpt lat="43.092646" lon="-2.204201">
        <ele>807.814</ele>
        <time>2021-03-21T10:23:06Z</time>
      </trkpt>
      <trkpt lat="43.092624" lon="-2.204204">
        <ele>808.571</ele>
        <time>2021-03-21T10:23:09Z</time>
      </trkpt>
      <trkpt lat="43.092600" lon="-2.204202">
        <ele>809.429</ele>
        <time>2021-03-21T10:23:12Z</time>
      </trkpt>
      <trkpt lat="43.092579" lon="-2.204200">
        <ele>810.219</ele>
        <time>2021-03-21T10:23:14Z</time>
      </trkpt>
      <trkpt lat="43.092559" lon="-2.204200">
        <ele>810.969</ele>
        <time>2021-03-21T10:23:16Z</time>
      </trkpt>
      <trkpt lat="43.092537" lon="-2.204191">
        <ele>812.037</ele>
        <time>2021-03-21T10:23:18Z</time>
      </trkpt>
      <trkpt lat="43.092521" lon="-2.204180">
        <ele>812.949</ele>
        <time>2021-03-21T10:23:22Z</time>
      </trkpt>
      <trkpt lat="43.092500" lon="-2.204195">
        <ele>813.213</ele>
        <time>2021-03-21T10:23:24Z</time>
      </trkpt>
      <trkpt lat="43.092484" lon="-2.204209">
        <ele>813.408</ele>
        <time>2021-03-21T10:23:26Z</time>
      </trkpt>
      <trkpt lat="43.092458" lon="-2.204218">
        <ele>814.099</ele>
        <time>2021-03-21T10:23:29Z</time>
      </trkpt>
      <trkpt lat="43.092436" lon="-2.204227">
        <ele>814.622</ele>
        <time>2021-03-21T10:23:32Z</time>
      </trkpt>
      <trkpt lat="43.092421" lon="-2.204201">
        <ele>815.995</ele>
        <time>2021-03-21T10:23:37Z</time>
      </trkpt>
      <trkpt lat="43.092401" lon="-2.204194">
        <ele>816.866</ele>
        <time>2021-03-21T10:23:40Z</time>
      </trkpt>
      <trkpt lat="43.092385" lon="-2.204189">
        <ele>817.583</ele>
        <time>2021-03-21T10:23:43Z</time>
      </trkpt>
      <trkpt lat="43.092363" lon="-2.204193">
        <ele>818.211</ele>
        <time>2021-03-21T10:23:46Z</time>
      </trkpt>
      <trkpt lat="43.092343" lon="-2.204189">
        <ele>819.011</ele>
        <time>2021-03-21T10:23:50Z</time>
      </trkpt>
      <trkpt lat="43.092325" lon="-2.204186">
        <ele>819.751</ele>
        <time>2021-03-21T10:23:53Z</time>
      </trkpt>
      <trkpt lat="43.092304" lon="-2.204185">
        <ele>820.578</ele>
        <time>2021-03-21T10:23:56Z</time>
      </trkpt>
      <trkpt lat="43.092287" lon="-2.204200">
        <ele>820.733</ele>
        <time>2021-03-21T10:23:57Z</time>
      </trkpt>
      <trkpt lat="43.092273" lon="-2.204213">
        <ele>820.826</ele>
        <time>2021-03-21T10:24:00Z</time>
      </trkpt>
      <trkpt lat="43.092257" lon="-2.204233">
        <ele>820.808</ele>
        <time>2021-03-21T10:24:02Z</time>
      </trkpt>
      <trkpt lat="43.092230" lon="-2.204243">
        <ele>821.543</ele>
        <time>2021-03-21T10:24:05Z</time>
      </trkpt>
      <trkpt lat="43.092204" lon="-2.204256">
        <ele>821.976</ele>
        <time>2021-03-21T10:24:07Z</time>
      </trkpt>
      <trkpt lat="43.092188" lon="-2.204262">
        <ele>822.199</ele>
        <time>2021-03-21T10:24:10Z</time>
      </trkpt>
      <trkpt lat="43.092175" lon="-2.204235">
        <ele>823.240</ele>
        <time>2021-03-21T10:24:13Z</time>
      </trkpt>
      <trkpt lat="43.092150" lon="-2.204230">
        <ele>824.057</ele>
        <time>2021-03-21T10:24:16Z</time>
      </trkpt>
      <trkpt lat="43.092133" lon="-2.204220">
        <ele>824.755</ele>
        <time>2021-03-21T10:24:19Z</time>
      </trkpt>
      <trkpt lat="43.092115" lon="-2.204208">
        <ele>825.595</ele>
        <time>2021-03-21T10:24:24Z</time>
      </trkpt>
      <trkpt lat="43.092117" lon="-2.204187">
        <ele>826.125</ele>
        <time>2021-03-21T10:24:27Z</time>
      </trkpt>
      <trkpt lat="43.092100" lon="-2.204171">
        <ele>827.057</ele>
        <time>2021-03-21T10:24:30Z</time>
      </trkpt>
      <trkpt lat="43.092094" lon="-2.204148">
        <ele>827.700</ele>
        <time>2021-03-21T10:24:33Z</time>
      </trkpt>
      <trkpt lat="43.092091" lon="-2.204118">
        <ele>828.520</ele>
        <time>2021-03-21T10:24:36Z</time>
      </trkpt>
      <trkpt lat="43.092084" lon="-2.204090">
        <ele>829.308</ele>
        <time>2021-03-21T10:24:39Z</time>
      </trkpt>
      <trkpt lat="43.092072" lon="-2.204073">
        <ele>830.051</ele>
        <time>2021-03-21T10:24:41Z</time>
      </trkpt>
      <trkpt lat="43.092051" lon="-2.204065">
        <ele>830.724</ele>
        <time>2021-03-21T10:24:43Z</time>
      </trkpt>
      <trkpt lat="43.092032" lon="-2.204056">
        <ele>831.337</ele>
        <time>2021-03-21T10:24:45Z</time>
      </trkpt>
      <trkpt lat="43.092015" lon="-2.204038">
        <ele>832.118</ele>
        <time>2021-03-21T10:24:48Z</time>
      </trkpt>
      <trkpt lat="43.092000" lon="-2.204013">
        <ele>833.025</ele>
        <time>2021-03-21T10:24:51Z</time>
      </trkpt>
      <trkpt lat="43.091980" lon="-2.203989">
        <ele>834.083</ele>
        <time>2021-03-21T10:24:54Z</time>
      </trkpt>
      <trkpt lat="43.091960" lon="-2.203965">
        <ele>835.033</ele>
        <time>2021-03-21T10:24:57Z</time>
      </trkpt>
      <trkpt lat="43.091941" lon="-2.203952">
        <ele>835.733</ele>
        <time>2021-03-21T10:24:59Z</time>
      </trkpt>
      <trkpt lat="43.091923" lon="-2.203931">
        <ele>836.453</ele>
        <time>2021-03-21T10:25:02Z</time>
      </trkpt>
      <trkpt lat="43.091909" lon="-2.203915">
        <ele>836.904</ele>
        <time>2021-03-21T10:25:04Z</time>
      </trkpt>
      <trkpt lat="43.091894" lon="-2.203900">
        <ele>837.514</ele>
        <time>2021-03-21T10:25:06Z</time>
      </trkpt>
      <trkpt lat="43.091886" lon="-2.203872">
        <ele>838.308</ele>
        <time>2021-03-21T10:25:09Z</time>
      </trkpt>
      <trkpt lat="43.091876" lon="-2.203844">
        <ele>839.211</ele>
        <time>2021-03-21T10:25:12Z</time>
      </trkpt>
      <trkpt lat="43.091866" lon="-2.203821">
        <ele>840.094</ele>
        <time>2021-03-21T10:25:15Z</time>
      </trkpt>
      <trkpt lat="43.091849" lon="-2.203801">
        <ele>840.827</ele>
        <time>2021-03-21T10:25:18Z</time>
      </trkpt>
      <trkpt lat="43.091826" lon="-2.203782">
        <ele>841.678</ele>
        <time>2021-03-21T10:25:21Z</time>
      </trkpt>
      <trkpt lat="43.091812" lon="-2.203769">
        <ele>842.285</ele>
        <time>2021-03-21T10:25:23Z</time>
      </trkpt>
      <trkpt lat="43.091800" lon="-2.203739">
        <ele>843.123</ele>
        <time>2021-03-21T10:25:26Z</time>
      </trkpt>
      <trkpt lat="43.091788" lon="-2.203712">
        <ele>844.033</ele>
        <time>2021-03-21T10:25:29Z</time>
      </trkpt>
      <trkpt lat="43.091785" lon="-2.203692">
        <ele>844.623</ele>
        <time>2021-03-21T10:25:31Z</time>
      </trkpt>
      <trkpt lat="43.091771" lon="-2.203665">
        <ele>845.466</ele>
        <time>2021-03-21T10:25:34Z</time>
      </trkpt>
      <trkpt lat="43.091761" lon="-2.203646">
        <ele>846.129</ele>
        <time>2021-03-21T10:25:36Z</time>
      </trkpt>
      <trkpt lat="43.091745" lon="-2.203620">
        <ele>846.921</ele>
        <time>2021-03-21T10:25:39Z</time>
      </trkpt>
      <trkpt lat="43.091736" lon="-2.203598">
        <ele>847.508</ele>
        <time>2021-03-21T10:25:41Z</time>
      </trkpt>
      <trkpt lat="43.091728" lon="-2.203571">
        <ele>848.292</ele>
        <time>2021-03-21T10:25:44Z</time>
      </trkpt>
      <trkpt lat="43.091725" lon="-2.203544">
        <ele>848.815</ele>
        <time>2021-03-21T10:25:46Z</time>
      </trkpt>
      <trkpt lat="43.091729" lon="-2.203511">
        <ele>849.448</ele>
        <time>2021-03-21T10:25:49Z</time>
      </trkpt>
      <trkpt lat="43.091721" lon="-2.203486">
        <ele>850.069</ele>
        <time>2021-03-21T10:25:52Z</time>
      </trkpt>
      <trkpt lat="43.091710" lon="-2.203460">
        <ele>850.796</ele>
        <time>2021-03-21T10:25:55Z</time>
      </trkpt>
      <trkpt lat="43.091704" lon="-2.203433">
        <ele>851.484</ele>
        <time>2021-03-21T10:25:58Z</time>
      </trkpt>
      <trkpt lat="43.091695" lon="-2.203412">
        <ele>851.914</ele>
        <time>2021-03-21T10:26:00Z</time>
      </trkpt>
      <trkpt lat="43.091687" lon="-2.203380">
        <ele>852.784</ele>
        <time>2021-03-21T10:26:03Z</time>
      </trkpt>
      <trkpt lat="43.091685" lon="-2.203342">
        <ele>853.625</ele>
        <time>2021-03-21T10:26:06Z</time>
      </trkpt>
      <trkpt lat="43.091684" lon="-2.203319">
        <ele>853.926</ele>
        <time>2021-03-21T10:26:08Z</time>
      </trkpt>
      <trkpt lat="43.091680" lon="-2.203295">
        <ele>854.208</ele>
        <time>2021-03-21T10:26:10Z</time>
      </trkpt>
      <trkpt lat="43.091676" lon="-2.203271">
        <ele>854.508</ele>
        <time>2021-03-21T10:26:12Z</time>
      </trkpt>
      <trkpt lat="43.091666" lon="-2.203240">
        <ele>855.098</ele>
        <time>2021-03-21T10:26:15Z</time>
      </trkpt>
      <trkpt lat="43.091658" lon="-2.203218">
        <ele>855.331</ele>
        <time>2021-03-21T10:26:17Z</time>
      </trkpt>
      <trkpt lat="43.091653" lon="-2.203195">
        <ele>855.664</ele>
        <time>2021-03-21T10:26:19Z</time>
      </trkpt>
      <trkpt lat="43.091650" lon="-2.203160">
        <ele>856.015</ele>
        <time>2021-03-21T10:26:22Z</time>
      </trkpt>
      <trkpt lat="43.091641" lon="-2.203136">
        <ele>856.412</ele>
        <time>2021-03-21T10:26:24Z</time>
      </trkpt>
      <trkpt lat="43.091626" lon="-2.203120">
        <ele>856.850</ele>
        <time>2021-03-21T10:26:26Z</time>
      </trkpt>
      <trkpt lat="43.091613" lon="-2.203098">
        <ele>857.220</ele>
        <time>2021-03-21T10:26:29Z</time>
      </trkpt>
      <trkpt lat="43.091600" lon="-2.203081">
        <ele>857.630</ele>
        <time>2021-03-21T10:26:31Z</time>
      </trkpt>
      <trkpt lat="43.091581" lon="-2.203057">
        <ele>858.225</ele>
        <time>2021-03-21T10:26:34Z</time>
      </trkpt>
      <trkpt lat="43.091567" lon="-2.203030">
        <ele>858.726</ele>
        <time>2021-03-21T10:26:37Z</time>
      </trkpt>
      <trkpt lat="43.091553" lon="-2.203009">
        <ele>859.008</ele>
        <time>2021-03-21T10:26:39Z</time>
      </trkpt>
      <trkpt lat="43.091536" lon="-2.202982">
        <ele>859.508</ele>
        <time>2021-03-21T10:26:42Z</time>
      </trkpt>
      <trkpt lat="43.091524" lon="-2.202963">
        <ele>859.948</ele>
        <time>2021-03-21T10:26:44Z</time>
      </trkpt>
      <trkpt lat="43.091513" lon="-2.202944">
        <ele>860.241</ele>
        <time>2021-03-21T10:26:46Z</time>
      </trkpt>
      <trkpt lat="43.091500" lon="-2.202922">
        <ele>860.664</ele>
        <time>2021-03-21T10:26:48Z</time>
      </trkpt>
      <trkpt lat="43.091488" lon="-2.202895">
        <ele>861.185</ele>
        <time>2021-03-21T10:26:51Z</time>
      </trkpt>
      <trkpt lat="43.091477" lon="-2.202867">
        <ele>861.652</ele>
        <time>2021-03-21T10:26:54Z</time>
      </trkpt>
      <trkpt lat="43.091472" lon="-2.202834">
        <ele>862.030</ele>
        <time>2021-03-21T10:26:57Z</time>
      </trkpt>
      <trkpt lat="43.091472" lon="-2.202802">
        <ele>862.310</ele>
        <time>2021-03-21T10:27:00Z</time>
      </trkpt>
      <trkpt lat="43.091467" lon="-2.202777">
        <ele>862.660</ele>
        <time>2021-03-21T10:27:02Z</time>
      </trkpt>
      <trkpt lat="43.091462" lon="-2.202752">
        <ele>862.657</ele>
        <time>2021-03-21T10:27:04Z</time>
      </trkpt>
      <trkpt lat="43.091458" lon="-2.202728">
        <ele>862.700</ele>
        <time>2021-03-21T10:27:06Z</time>
      </trkpt>
      <trkpt lat="43.091454" lon="-2.202694">
        <ele>862.720</ele>
        <time>2021-03-21T10:27:09Z</time>
      </trkpt>
      <trkpt lat="43.091442" lon="-2.202671">
        <ele>862.808</ele>
        <time>2021-03-21T10:27:11Z</time>
      </trkpt>
      <trkpt lat="43.091431" lon="-2.202648">
        <ele>862.971</ele>
        <time>2021-03-21T10:27:13Z</time>
      </trkpt>
      <trkpt lat="43.091419" lon="-2.202622">
        <ele>863.024</ele>
        <time>2021-03-21T10:27:15Z</time>
      </trkpt>
      <trkpt lat="43.091414" lon="-2.202584">
        <ele>863.037</ele>
        <time>2021-03-21T10:27:18Z</time>
      </trkpt>
      <trkpt lat="43.091409" lon="-2.202558">
        <ele>863.018</ele>
        <time>2021-03-21T10:27:20Z</time>
      </trkpt>
      <trkpt lat="43.091399" lon="-2.202541">
        <ele>863.025</ele>
        <time>2021-03-21T10:27:29Z</time>
      </trkpt>
      <trkpt lat="43.091400" lon="-2.202545">
        <ele>863.073</ele>
        <time>2021-03-21T10:27:41Z</time>
      </trkpt>
      <trkpt lat="43.091408" lon="-2.202551">
        <ele>863.073</ele>
        <time>2021-03-21T10:28:11Z</time>
      </trkpt>
      <trkpt lat="43.091388" lon="-2.202545">
        <ele>863.143</ele>
        <time>2021-03-21T10:29:28Z</time>
      </trkpt>
      <trkpt lat="43.091374" lon="-2.202562">
        <ele>862.867</ele>
        <time>2021-03-21T10:29:31Z</time>
      </trkpt>
      <trkpt lat="43.091365" lon="-2.202585">
        <ele>862.781</ele>
        <time>2021-03-21T10:29:42Z</time>
      </trkpt>
      <trkpt lat="43.091357" lon="-2.202608">
        <ele>862.619</ele>
        <time>2021-03-21T10:29:46Z</time>
      </trkpt>
      <trkpt lat="43.091337" lon="-2.202625">
        <ele>862.108</ele>
        <time>2021-03-21T10:29:49Z</time>
      </trkpt>
      <trkpt lat="43.091321" lon="-2.202637">
        <ele>861.892</ele>
        <time>2021-03-21T10:29:51Z</time>
      </trkpt>
      <trkpt lat="43.091304" lon="-2.202649">
        <ele>861.455</ele>
        <time>2021-03-21T10:30:07Z</time>
      </trkpt>
      <trkpt lat="43.091282" lon="-2.202665">
        <ele>861.048</ele>
        <time>2021-03-21T10:30:10Z</time>
      </trkpt>
      <trkpt lat="43.091266" lon="-2.202678">
        <ele>860.749</ele>
        <time>2021-03-21T10:30:12Z</time>
      </trkpt>
      <trkpt lat="43.091244" lon="-2.202687">
        <ele>860.296</ele>
        <time>2021-03-21T10:30:15Z</time>
      </trkpt>
      <trkpt lat="43.091226" lon="-2.202701">
        <ele>859.924</ele>
        <time>2021-03-21T10:30:18Z</time>
      </trkpt>
      <trkpt lat="43.091208" lon="-2.202717">
        <ele>859.634</ele>
        <time>2021-03-21T10:30:20Z</time>
      </trkpt>
      <trkpt lat="43.091195" lon="-2.202743">
        <ele>859.564</ele>
        <time>2021-03-21T10:30:22Z</time>
      </trkpt>
      <trkpt lat="43.091182" lon="-2.202768">
        <ele>859.464</ele>
        <time>2021-03-21T10:30:24Z</time>
      </trkpt>
      <trkpt lat="43.091169" lon="-2.202794">
        <ele>859.106</ele>
        <time>2021-03-21T10:30:26Z</time>
      </trkpt>
      <trkpt lat="43.091157" lon="-2.202818">
        <ele>858.616</ele>
        <time>2021-03-21T10:30:28Z</time>
      </trkpt>
      <trkpt lat="43.091142" lon="-2.202835">
        <ele>858.008</ele>
        <time>2021-03-21T10:30:30Z</time>
      </trkpt>
      <trkpt lat="43.091126" lon="-2.202854">
        <ele>857.582</ele>
        <time>2021-03-21T10:30:32Z</time>
      </trkpt>
      <trkpt lat="43.091109" lon="-2.202874">
        <ele>856.935</ele>
        <time>2021-03-21T10:30:34Z</time>
      </trkpt>
      <trkpt lat="43.091097" lon="-2.202892">
        <ele>856.268</ele>
        <time>2021-03-21T10:30:36Z</time>
      </trkpt>
      <trkpt lat="43.091083" lon="-2.202909">
        <ele>855.529</ele>
        <time>2021-03-21T10:30:55Z</time>
      </trkpt>
      <trkpt lat="43.091070" lon="-2.202933">
        <ele>854.796</ele>
        <time>2021-03-21T10:30:58Z</time>
      </trkpt>
      <trkpt lat="43.091063" lon="-2.202954">
        <ele>854.254</ele>
        <time>2021-03-21T10:31:09Z</time>
      </trkpt>
      <trkpt lat="43.091063" lon="-2.202987">
        <ele>853.984</ele>
        <time>2021-03-21T10:31:12Z</time>
      </trkpt>
      <trkpt lat="43.091048" lon="-2.203017">
        <ele>853.144</ele>
        <time>2021-03-21T10:31:15Z</time>
      </trkpt>
      <trkpt lat="43.091030" lon="-2.203036">
        <ele>852.275</ele>
        <time>2021-03-21T10:31:18Z</time>
      </trkpt>
      <trkpt lat="43.091022" lon="-2.203058">
        <ele>851.828</ele>
        <time>2021-03-21T10:31:20Z</time>
      </trkpt>
      <trkpt lat="43.091016" lon="-2.203084">
        <ele>851.220</ele>
        <time>2021-03-21T10:31:22Z</time>
      </trkpt>
      <trkpt lat="43.091008" lon="-2.203109">
        <ele>850.708</ele>
        <time>2021-03-21T10:31:24Z</time>
      </trkpt>
      <trkpt lat="43.090996" lon="-2.203125">
        <ele>850.123</ele>
        <time>2021-03-21T10:31:26Z</time>
      </trkpt>
      <trkpt lat="43.090981" lon="-2.203137">
        <ele>849.466</ele>
        <time>2021-03-21T10:31:28Z</time>
      </trkpt>
      <trkpt lat="43.090963" lon="-2.203159">
        <ele>848.639</ele>
        <time>2021-03-21T10:31:32Z</time>
      </trkpt>
      <trkpt lat="43.090940" lon="-2.203178">
        <ele>847.690</ele>
        <time>2021-03-21T10:31:35Z</time>
      </trkpt>
      <trkpt lat="43.090925" lon="-2.203198">
        <ele>846.977</ele>
        <time>2021-03-21T10:31:37Z</time>
      </trkpt>
      <trkpt lat="43.090911" lon="-2.203217">
        <ele>846.375</ele>
        <time>2021-03-21T10:31:39Z</time>
      </trkpt>
      <trkpt lat="43.090896" lon="-2.203235">
        <ele>845.745</ele>
        <time>2021-03-21T10:31:41Z</time>
      </trkpt>
      <trkpt lat="43.090873" lon="-2.203245">
        <ele>844.915</ele>
        <time>2021-03-21T10:31:44Z</time>
      </trkpt>
      <trkpt lat="43.090856" lon="-2.203249">
        <ele>844.317</ele>
        <time>2021-03-21T10:31:46Z</time>
      </trkpt>
      <trkpt lat="43.090842" lon="-2.203264">
        <ele>843.887</ele>
        <time>2021-03-21T10:31:48Z</time>
      </trkpt>
      <trkpt lat="43.090827" lon="-2.203287">
        <ele>843.115</ele>
        <time>2021-03-21T10:31:50Z</time>
      </trkpt>
      <trkpt lat="43.090808" lon="-2.203307">
        <ele>842.308</ele>
        <time>2021-03-21T10:31:52Z</time>
      </trkpt>
      <trkpt lat="43.090794" lon="-2.203323">
        <ele>841.777</ele>
        <time>2021-03-21T10:31:54Z</time>
      </trkpt>
      <trkpt lat="43.090780" lon="-2.203340">
        <ele>841.020</ele>
        <time>2021-03-21T10:31:56Z</time>
      </trkpt>
      <trkpt lat="43.090762" lon="-2.203360">
        <ele>840.123</ele>
        <time>2021-03-21T10:31:57Z</time>
      </trkpt>
      <trkpt lat="43.090748" lon="-2.203384">
        <ele>839.314</ele>
        <time>2021-03-21T10:32:00Z</time>
      </trkpt>
      <trkpt lat="43.090742" lon="-2.203408">
        <ele>838.831</ele>
        <time>2021-03-21T10:32:02Z</time>
      </trkpt>
      <trkpt lat="43.090729" lon="-2.203423">
        <ele>838.279</ele>
        <time>2021-03-21T10:32:06Z</time>
      </trkpt>
      <trkpt lat="43.090717" lon="-2.203445">
        <ele>837.559</ele>
        <time>2021-03-21T10:32:08Z</time>
      </trkpt>
      <trkpt lat="43.090707" lon="-2.203469">
        <ele>836.979</ele>
        <time>2021-03-21T10:32:10Z</time>
      </trkpt>
      <trkpt lat="43.090690" lon="-2.203482">
        <ele>836.344</ele>
        <time>2021-03-21T10:32:12Z</time>
      </trkpt>
      <trkpt lat="43.090672" lon="-2.203492">
        <ele>835.605</ele>
        <time>2021-03-21T10:32:14Z</time>
      </trkpt>
      <trkpt lat="43.090656" lon="-2.203500">
        <ele>835.015</ele>
        <time>2021-03-21T10:32:16Z</time>
      </trkpt>
      <trkpt lat="43.090639" lon="-2.203516">
        <ele>834.308</ele>
        <time>2021-03-21T10:32:18Z</time>
      </trkpt>
      <trkpt lat="43.090623" lon="-2.203536">
        <ele>833.660</ele>
        <time>2021-03-21T10:32:20Z</time>
      </trkpt>
      <trkpt lat="43.090608" lon="-2.203560">
        <ele>832.943</ele>
        <time>2021-03-21T10:32:23Z</time>
      </trkpt>
      <trkpt lat="43.090597" lon="-2.203578">
        <ele>832.576</ele>
        <time>2021-03-21T10:32:25Z</time>
      </trkpt>
      <trkpt lat="43.090580" lon="-2.203598">
        <ele>831.857</ele>
        <time>2021-03-21T10:32:27Z</time>
      </trkpt>
      <trkpt lat="43.090563" lon="-2.203617">
        <ele>831.144</ele>
        <time>2021-03-21T10:32:29Z</time>
      </trkpt>
      <trkpt lat="43.090548" lon="-2.203644">
        <ele>830.332</ele>
        <time>2021-03-21T10:32:31Z</time>
      </trkpt>
      <trkpt lat="43.090537" lon="-2.203673">
        <ele>829.672</ele>
        <time>2021-03-21T10:32:33Z</time>
      </trkpt>
      <trkpt lat="43.090526" lon="-2.203702">
        <ele>828.992</ele>
        <time>2021-03-21T10:32:35Z</time>
      </trkpt>
      <trkpt lat="43.090515" lon="-2.203729">
        <ele>828.225</ele>
        <time>2021-03-21T10:32:37Z</time>
      </trkpt>
      <trkpt lat="43.090503" lon="-2.203754">
        <ele>827.526</ele>
        <time>2021-03-21T10:32:39Z</time>
      </trkpt>
      <trkpt lat="43.090490" lon="-2.203779">
        <ele>826.808</ele>
        <time>2021-03-21T10:32:41Z</time>
      </trkpt>
      <trkpt lat="43.090472" lon="-2.203800">
        <ele>826.108</ele>
        <time>2021-03-21T10:32:43Z</time>
      </trkpt>
      <trkpt lat="43.090463" lon="-2.203810">
        <ele>825.768</ele>
        <time>2021-03-21T10:32:44Z</time>
      </trkpt>
      <trkpt lat="43.090451" lon="-2.203837">
        <ele>825.081</ele>
        <time>2021-03-21T10:32:46Z</time>
      </trkpt>
      <trkpt lat="43.090439" lon="-2.203870">
        <ele>824.374</ele>
        <time>2021-03-21T10:32:48Z</time>
      </trkpt>
      <trkpt lat="43.090425" lon="-2.203902">
        <ele>823.515</ele>
        <time>2021-03-21T10:32:50Z</time>
      </trkpt>
      <trkpt lat="43.090409" lon="-2.203931">
        <ele>822.632</ele>
        <time>2021-03-21T10:32:52Z</time>
      </trkpt>
      <trkpt lat="43.090391" lon="-2.203959">
        <ele>821.760</ele>
        <time>2021-03-21T10:32:54Z</time>
      </trkpt>
      <trkpt lat="43.090374" lon="-2.203984">
        <ele>820.970</ele>
        <time>2021-03-21T10:32:56Z</time>
      </trkpt>
      <trkpt lat="43.090359" lon="-2.204007">
        <ele>820.260</ele>
        <time>2021-03-21T10:32:58Z</time>
      </trkpt>
      <trkpt lat="43.090344" lon="-2.204033">
        <ele>819.586</ele>
        <time>2021-03-21T10:33:00Z</time>
      </trkpt>
      <trkpt lat="43.090328" lon="-2.204056">
        <ele>818.860</ele>
        <time>2021-03-21T10:33:02Z</time>
      </trkpt>
      <trkpt lat="43.090309" lon="-2.204078">
        <ele>818.026</ele>
        <time>2021-03-21T10:33:04Z</time>
      </trkpt>
      <trkpt lat="43.090288" lon="-2.204101">
        <ele>817.208</ele>
        <time>2021-03-21T10:33:06Z</time>
      </trkpt>
      <trkpt lat="43.090267" lon="-2.204119">
        <ele>816.534</ele>
        <time>2021-03-21T10:33:08Z</time>
      </trkpt>
      <trkpt lat="43.090245" lon="-2.204140">
        <ele>815.927</ele>
        <time>2021-03-21T10:33:10Z</time>
      </trkpt>
      <trkpt lat="43.090226" lon="-2.204170">
        <ele>815.250</ele>
        <time>2021-03-21T10:33:12Z</time>
      </trkpt>
      <trkpt lat="43.090208" lon="-2.204202">
        <ele>814.461</ele>
        <time>2021-03-21T10:33:14Z</time>
      </trkpt>
      <trkpt lat="43.090185" lon="-2.204228">
        <ele>813.758</ele>
        <time>2021-03-21T10:33:16Z</time>
      </trkpt>
      <trkpt lat="43.090161" lon="-2.204252">
        <ele>813.066</ele>
        <time>2021-03-21T10:33:18Z</time>
      </trkpt>
      <trkpt lat="43.090140" lon="-2.204277">
        <ele>812.486</ele>
        <time>2021-03-21T10:33:20Z</time>
      </trkpt>
      <trkpt lat="43.090119" lon="-2.204304">
        <ele>811.856</ele>
        <time>2021-03-21T10:33:22Z</time>
      </trkpt>
      <trkpt lat="43.090099" lon="-2.204333">
        <ele>811.284</ele>
        <time>2021-03-21T10:33:24Z</time>
      </trkpt>
      <trkpt lat="43.090080" lon="-2.204362">
        <ele>810.607</ele>
        <time>2021-03-21T10:33:26Z</time>
      </trkpt>
      <trkpt lat="43.090063" lon="-2.204382">
        <ele>810.217</ele>
        <time>2021-03-21T10:33:28Z</time>
      </trkpt>
      <trkpt lat="43.090044" lon="-2.204395">
        <ele>809.908</ele>
        <time>2021-03-21T10:33:30Z</time>
      </trkpt>
      <trkpt lat="43.090028" lon="-2.204410">
        <ele>809.684</ele>
        <time>2021-03-21T10:33:32Z</time>
      </trkpt>
      <trkpt lat="43.090013" lon="-2.204437">
        <ele>809.227</ele>
        <time>2021-03-21T10:33:34Z</time>
      </trkpt>
      <trkpt lat="43.090000" lon="-2.204463">
        <ele>808.770</ele>
        <time>2021-03-21T10:33:36Z</time>
      </trkpt>
      <trkpt lat="43.089982" lon="-2.204484">
        <ele>808.021</ele>
        <time>2021-03-21T10:33:38Z</time>
      </trkpt>
      <trkpt lat="43.089967" lon="-2.204517">
        <ele>807.278</ele>
        <time>2021-03-21T10:33:40Z</time>
      </trkpt>
      <trkpt lat="43.089952" lon="-2.204550">
        <ele>806.486</ele>
        <time>2021-03-21T10:33:42Z</time>
      </trkpt>
      <trkpt lat="43.089940" lon="-2.204585">
        <ele>805.686</ele>
        <time>2021-03-21T10:33:44Z</time>
      </trkpt>
      <trkpt lat="43.089922" lon="-2.204602">
        <ele>805.156</ele>
        <time>2021-03-21T10:33:47Z</time>
      </trkpt>
      <trkpt lat="43.089902" lon="-2.204603">
        <ele>804.839</ele>
        <time>2021-03-21T10:33:50Z</time>
      </trkpt>
      <trkpt lat="43.089885" lon="-2.204618">
        <ele>804.301</ele>
        <time>2021-03-21T10:33:52Z</time>
      </trkpt>
      <trkpt lat="43.089868" lon="-2.204639">
        <ele>803.821</ele>
        <time>2021-03-21T10:33:54Z</time>
      </trkpt>
      <trkpt lat="43.089849" lon="-2.204662">
        <ele>803.208</ele>
        <time>2021-03-21T10:33:56Z</time>
      </trkpt>
      <trkpt lat="43.089834" lon="-2.204698">
        <ele>802.539</ele>
        <time>2021-03-21T10:33:58Z</time>
      </trkpt>
      <trkpt lat="43.089830" lon="-2.204732">
        <ele>802.062</ele>
        <time>2021-03-21T10:34:00Z</time>
      </trkpt>
      <trkpt lat="43.089808" lon="-2.204767">
        <ele>801.385</ele>
        <time>2021-03-21T10:34:02Z</time>
      </trkpt>
      <trkpt lat="43.089777" lon="-2.204819">
        <ele>800.316</ele>
        <time>2021-03-21T10:34:04Z</time>
      </trkpt>
      <trkpt lat="43.089757" lon="-2.204855">
        <ele>799.893</ele>
        <time>2021-03-21T10:34:07Z</time>
      </trkpt>
      <trkpt lat="43.089739" lon="-2.204894">
        <ele>799.241</ele>
        <time>2021-03-21T10:34:09Z</time>
      </trkpt>
      <trkpt lat="43.089730" lon="-2.204916">
        <ele>798.941</ele>
        <time>2021-03-21T10:34:10Z</time>
      </trkpt>
      <trkpt lat="43.089719" lon="-2.204937">
        <ele>798.621</ele>
        <time>2021-03-21T10:34:11Z</time>
      </trkpt>
      <trkpt lat="43.089710" lon="-2.204959">
        <ele>798.186</ele>
        <time>2021-03-21T10:34:12Z</time>
      </trkpt>
      <trkpt lat="43.089692" lon="-2.204996">
        <ele>797.360</ele>
        <time>2021-03-21T10:34:14Z</time>
      </trkpt>
      <trkpt lat="43.089663" lon="-2.205048">
        <ele>796.026</ele>
        <time>2021-03-21T10:34:17Z</time>
      </trkpt>
      <trkpt lat="43.089652" lon="-2.205070">
        <ele>795.508</ele>
        <time>2021-03-21T10:34:18Z</time>
      </trkpt>
      <trkpt lat="43.089635" lon="-2.205109">
        <ele>794.814</ele>
        <time>2021-03-21T10:34:20Z</time>
      </trkpt>
      <trkpt lat="43.089622" lon="-2.205148">
        <ele>794.357</ele>
        <time>2021-03-21T10:34:22Z</time>
      </trkpt>
      <trkpt lat="43.089605" lon="-2.205181">
        <ele>793.880</ele>
        <time>2021-03-21T10:34:24Z</time>
      </trkpt>
      <trkpt lat="43.089586" lon="-2.205215">
        <ele>793.471</ele>
        <time>2021-03-21T10:34:26Z</time>
      </trkpt>
      <trkpt lat="43.089568" lon="-2.205248">
        <ele>793.098</ele>
        <time>2021-03-21T10:34:28Z</time>
      </trkpt>
      <trkpt lat="43.089549" lon="-2.205281">
        <ele>792.736</ele>
        <time>2021-03-21T10:34:30Z</time>
      </trkpt>
      <trkpt lat="43.089528" lon="-2.205312">
        <ele>792.516</ele>
        <time>2021-03-21T10:34:32Z</time>
      </trkpt>
      <trkpt lat="43.089524" lon="-2.205349">
        <ele>792.456</ele>
        <time>2021-03-21T10:34:34Z</time>
      </trkpt>
      <trkpt lat="43.089512" lon="-2.205381">
        <ele>792.217</ele>
        <time>2021-03-21T10:34:36Z</time>
      </trkpt>
      <trkpt lat="43.089494" lon="-2.205409">
        <ele>792.187</ele>
        <time>2021-03-21T10:34:38Z</time>
      </trkpt>
      <trkpt lat="43.089477" lon="-2.205431">
        <ele>792.015</ele>
        <time>2021-03-21T10:34:40Z</time>
      </trkpt>
      <trkpt lat="43.089451" lon="-2.205444">
        <ele>792.008</ele>
        <time>2021-03-21T10:34:42Z</time>
      </trkpt>
      <trkpt lat="43.089430" lon="-2.205454">
        <ele>791.887</ele>
        <time>2021-03-21T10:34:44Z</time>
      </trkpt>
      <trkpt lat="43.089411" lon="-2.205457">
        <ele>791.410</ele>
        <time>2021-03-21T10:34:46Z</time>
      </trkpt>
      <trkpt lat="43.089391" lon="-2.205478">
        <ele>791.163</ele>
        <time>2021-03-21T10:34:48Z</time>
      </trkpt>
      <trkpt lat="43.089375" lon="-2.205501">
        <ele>790.994</ele>
        <time>2021-03-21T10:34:50Z</time>
      </trkpt>
      <trkpt lat="43.089361" lon="-2.205530">
        <ele>790.751</ele>
        <time>2021-03-21T10:34:52Z</time>
      </trkpt>
      <trkpt lat="43.089339" lon="-2.205563">
        <ele>790.539</ele>
        <time>2021-03-21T10:34:54Z</time>
      </trkpt>
      <trkpt lat="43.089311" lon="-2.205585">
        <ele>790.369</ele>
        <time>2021-03-21T10:34:56Z</time>
      </trkpt>
      <trkpt lat="43.089292" lon="-2.205610">
        <ele>790.289</ele>
        <time>2021-03-21T10:34:57Z</time>
      </trkpt>
      <trkpt lat="43.089272" lon="-2.205636">
        <ele>790.265</ele>
        <time>2021-03-21T10:34:58Z</time>
      </trkpt>
      <trkpt lat="43.089254" lon="-2.205657">
        <ele>790.368</ele>
        <time>2021-03-21T10:34:59Z</time>
      </trkpt>
      <trkpt lat="43.089237" lon="-2.205677">
        <ele>790.314</ele>
        <time>2021-03-21T10:35:00Z</time>
      </trkpt>
      <trkpt lat="43.089220" lon="-2.205700">
        <ele>790.408</ele>
        <time>2021-03-21T10:35:01Z</time>
      </trkpt>
      <trkpt lat="43.089200" lon="-2.205722">
        <ele>790.692</ele>
        <time>2021-03-21T10:35:02Z</time>
      </trkpt>
      <trkpt lat="43.089181" lon="-2.205739">
        <ele>790.725</ele>
        <time>2021-03-21T10:35:03Z</time>
      </trkpt>
      <trkpt lat="43.089161" lon="-2.205764">
        <ele>790.828</ele>
        <time>2021-03-21T10:35:04Z</time>
      </trkpt>
      <trkpt lat="43.089142" lon="-2.205784">
        <ele>790.459</ele>
        <time>2021-03-21T10:35:05Z</time>
      </trkpt>
      <trkpt lat="43.089120" lon="-2.205807">
        <ele>790.126</ele>
        <time>2021-03-21T10:35:06Z</time>
      </trkpt>
      <trkpt lat="43.089104" lon="-2.205834">
        <ele>790.054</ele>
        <time>2021-03-21T10:35:07Z</time>
      </trkpt>
      <trkpt lat="43.089093" lon="-2.205863">
        <ele>790.224</ele>
        <time>2021-03-21T10:35:08Z</time>
      </trkpt>
      <trkpt lat="43.089082" lon="-2.205887">
        <ele>790.334</ele>
        <time>2021-03-21T10:35:09Z</time>
      </trkpt>
      <trkpt lat="43.089063" lon="-2.205910">
        <ele>790.381</ele>
        <time>2021-03-21T10:35:10Z</time>
      </trkpt>
      <trkpt lat="43.089041" lon="-2.205927">
        <ele>790.061</ele>
        <time>2021-03-21T10:35:11Z</time>
      </trkpt>
      <trkpt lat="43.089018" lon="-2.205943">
        <ele>789.817</ele>
        <time>2021-03-21T10:35:12Z</time>
      </trkpt>
      <trkpt lat="43.088996" lon="-2.205957">
        <ele>789.608</ele>
        <time>2021-03-21T10:35:13Z</time>
      </trkpt>
      <trkpt lat="43.088978" lon="-2.205972">
        <ele>789.694</ele>
        <time>2021-03-21T10:35:14Z</time>
      </trkpt>
      <trkpt lat="43.088960" lon="-2.205983">
        <ele>789.597</ele>
        <time>2021-03-21T10:35:15Z</time>
      </trkpt>
      <trkpt lat="43.088941" lon="-2.205995">
        <ele>789.430</ele>
        <time>2021-03-21T10:35:16Z</time>
      </trkpt>
      <trkpt lat="43.088921" lon="-2.206008">
        <ele>789.311</ele>
        <time>2021-03-21T10:35:17Z</time>
      </trkpt>
      <trkpt lat="43.088902" lon="-2.206019">
        <ele>789.398</ele>
        <time>2021-03-21T10:35:18Z</time>
      </trkpt>
      <trkpt lat="43.088882" lon="-2.206030">
        <ele>789.146</ele>
        <time>2021-03-21T10:35:19Z</time>
      </trkpt>
      <trkpt lat="43.088860" lon="-2.206042">
        <ele>788.876</ele>
        <time>2021-03-21T10:35:20Z</time>
      </trkpt>
      <trkpt lat="43.088842" lon="-2.206061">
        <ele>788.896</ele>
        <time>2021-03-21T10:35:21Z</time>
      </trkpt>
      <trkpt lat="43.088827" lon="-2.206082">
        <ele>789.071</ele>
        <time>2021-03-21T10:35:22Z</time>
      </trkpt>
      <trkpt lat="43.088813" lon="-2.206106">
        <ele>789.441</ele>
        <time>2021-03-21T10:35:23Z</time>
      </trkpt>
      <trkpt lat="43.088800" lon="-2.206138">
        <ele>790.115</ele>
        <time>2021-03-21T10:35:24Z</time>
      </trkpt>
      <trkpt lat="43.088785" lon="-2.206165">
        <ele>790.708</ele>
        <time>2021-03-21T10:35:25Z</time>
      </trkpt>
      <trkpt lat="43.088768" lon="-2.206183">
        <ele>790.963</ele>
        <time>2021-03-21T10:35:26Z</time>
      </trkpt>
      <trkpt lat="43.088746" lon="-2.206192">
        <ele>790.686</ele>
        <time>2021-03-21T10:35:27Z</time>
      </trkpt>
      <trkpt lat="43.088723" lon="-2.206192">
        <ele>789.999</ele>
        <time>2021-03-21T10:35:28Z</time>
      </trkpt>
      <trkpt lat="43.088702" lon="-2.206188">
        <ele>789.270</ele>
        <time>2021-03-21T10:35:29Z</time>
      </trkpt>
      <trkpt lat="43.088681" lon="-2.206186">
        <ele>788.517</ele>
        <time>2021-03-21T10:35:30Z</time>
      </trkpt>
      <trkpt lat="43.088662" lon="-2.206184">
        <ele>787.985</ele>
        <time>2021-03-21T10:35:31Z</time>
      </trkpt>
      <trkpt lat="43.088645" lon="-2.206185">
        <ele>787.425</ele>
        <time>2021-03-21T10:35:32Z</time>
      </trkpt>
      <trkpt lat="43.088625" lon="-2.206188">
        <ele>787.075</ele>
        <time>2021-03-21T10:35:33Z</time>
      </trkpt>
      <trkpt lat="43.088605" lon="-2.206197">
        <ele>786.876</ele>
        <time>2021-03-21T10:35:34Z</time>
      </trkpt>
      <trkpt lat="43.088576" lon="-2.206221">
        <ele>786.890</ele>
        <time>2021-03-21T10:35:36Z</time>
      </trkpt>
      <trkpt lat="43.088545" lon="-2.206249">
        <ele>786.719</ele>
        <time>2021-03-21T10:35:38Z</time>
      </trkpt>
      <trkpt lat="43.088529" lon="-2.206265">
        <ele>786.708</ele>
        <time>2021-03-21T10:35:39Z</time>
      </trkpt>
      <trkpt lat="43.088514" lon="-2.206283">
        <ele>786.873</ele>
        <time>2021-03-21T10:35:40Z</time>
      </trkpt>
      <trkpt lat="43.088501" lon="-2.206302">
        <ele>787.026</ele>
        <time>2021-03-21T10:35:41Z</time>
      </trkpt>
      <trkpt lat="43.088491" lon="-2.206324">
        <ele>787.439</ele>
        <time>2021-03-21T10:35:42Z</time>
      </trkpt>
      <trkpt lat="43.088483" lon="-2.206345">
        <ele>787.930</ele>
        <time>2021-03-21T10:35:43Z</time>
      </trkpt>
      <trkpt lat="43.088464" lon="-2.206379">
        <ele>788.297</ele>
        <time>2021-03-21T10:35:45Z</time>
      </trkpt>
      <trkpt lat="43.088449" lon="-2.206396">
        <ele>788.065</ele>
        <time>2021-03-21T10:35:46Z</time>
      </trkpt>
      <trkpt lat="43.088430" lon="-2.206414">
        <ele>787.555</ele>
        <time>2021-03-21T10:35:47Z</time>
      </trkpt>
      <trkpt lat="43.088413" lon="-2.206443">
        <ele>787.355</ele>
        <time>2021-03-21T10:35:48Z</time>
      </trkpt>
      <trkpt lat="43.088404" lon="-2.206473">
        <ele>787.575</ele>
        <time>2021-03-21T10:35:49Z</time>
      </trkpt>
      <trkpt lat="43.088397" lon="-2.206502">
        <ele>787.828</ele>
        <time>2021-03-21T10:35:50Z</time>
      </trkpt>
      <trkpt lat="43.088389" lon="-2.206529">
        <ele>788.020</ele>
        <time>2021-03-21T10:35:51Z</time>
      </trkpt>
      <trkpt lat="43.088379" lon="-2.206550">
        <ele>788.008</ele>
        <time>2021-03-21T10:35:52Z</time>
      </trkpt>
      <trkpt lat="43.088359" lon="-2.206588">
        <ele>787.713</ele>
        <time>2021-03-21T10:35:54Z</time>
      </trkpt>
      <trkpt lat="43.088347" lon="-2.206620">
        <ele>787.846</ele>
        <time>2021-03-21T10:35:56Z</time>
      </trkpt>
      <trkpt lat="43.088336" lon="-2.206648">
        <ele>787.739</ele>
        <time>2021-03-21T10:35:58Z</time>
      </trkpt>
      <trkpt lat="43.088319" lon="-2.206657">
        <ele>787.140</ele>
        <time>2021-03-21T10:36:00Z</time>
      </trkpt>
      <trkpt lat="43.088298" lon="-2.206672">
        <ele>786.517</ele>
        <time>2021-03-21T10:36:02Z</time>
      </trkpt>
      <trkpt lat="43.088282" lon="-2.206692">
        <ele>786.535</ele>
        <time>2021-03-21T10:36:04Z</time>
      </trkpt>
      <trkpt lat="43.088265" lon="-2.206703">
        <ele>786.145</ele>
        <time>2021-03-21T10:36:06Z</time>
      </trkpt>
      <trkpt lat="43.088244" lon="-2.206706">
        <ele>785.265</ele>
        <time>2021-03-21T10:36:08Z</time>
      </trkpt>
      <trkpt lat="43.088224" lon="-2.206715">
        <ele>784.625</ele>
        <time>2021-03-21T10:36:11Z</time>
      </trkpt>
      <trkpt lat="43.088217" lon="-2.206736">
        <ele>785.126</ele>
        <time>2021-03-21T10:37:18Z</time>
      </trkpt>
      <trkpt lat="43.088205" lon="-2.206738">
        <ele>784.608</ele>
        <time>2021-03-21T10:37:49Z</time>
      </trkpt>
      <trkpt lat="43.088188" lon="-2.206734">
        <ele>783.608</ele>
        <time>2021-03-21T10:38:41Z</time>
      </trkpt>
      <trkpt lat="43.088164" lon="-2.206726">
        <ele>782.228</ele>
        <time>2021-03-21T10:38:44Z</time>
      </trkpt>
      <trkpt lat="43.088144" lon="-2.206715">
        <ele>780.911</ele>
        <time>2021-03-21T10:38:46Z</time>
      </trkpt>
      <trkpt lat="43.088124" lon="-2.206718">
        <ele>780.144</ele>
        <time>2021-03-21T10:38:48Z</time>
      </trkpt>
      <trkpt lat="43.088107" lon="-2.206731">
        <ele>779.755</ele>
        <time>2021-03-21T10:38:49Z</time>
      </trkpt>
      <trkpt lat="43.088087" lon="-2.206735">
        <ele>778.992</ele>
        <time>2021-03-21T10:38:53Z</time>
      </trkpt>
      <trkpt lat="43.088066" lon="-2.206734">
        <ele>777.970</ele>
        <time>2021-03-21T10:38:55Z</time>
      </trkpt>
      <trkpt lat="43.088045" lon="-2.206740">
        <ele>777.290</ele>
        <time>2021-03-21T10:38:57Z</time>
      </trkpt>
      <trkpt lat="43.088026" lon="-2.206756">
        <ele>776.970</ele>
        <time>2021-03-21T10:38:59Z</time>
      </trkpt>
      <trkpt lat="43.088004" lon="-2.206774">
        <ele>776.655</ele>
        <time>2021-03-21T10:39:01Z</time>
      </trkpt>
      <trkpt lat="43.087982" lon="-2.206795">
        <ele>776.407</ele>
        <time>2021-03-21T10:39:03Z</time>
      </trkpt>
      <trkpt lat="43.087960" lon="-2.206813">
        <ele>776.217</ele>
        <time>2021-03-21T10:39:05Z</time>
      </trkpt>
      <trkpt lat="43.087941" lon="-2.206824">
        <ele>775.808</ele>
        <time>2021-03-21T10:39:07Z</time>
      </trkpt>
      <trkpt lat="43.087922" lon="-2.206836">
        <ele>775.441</ele>
        <time>2021-03-21T10:39:09Z</time>
      </trkpt>
      <trkpt lat="43.087907" lon="-2.206855">
        <ele>775.674</ele>
        <time>2021-03-21T10:39:11Z</time>
      </trkpt>
      <trkpt lat="43.087890" lon="-2.206874">
        <ele>775.667</ele>
        <time>2021-03-21T10:39:13Z</time>
      </trkpt>
      <trkpt lat="43.087874" lon="-2.206900">
        <ele>776.078</ele>
        <time>2021-03-21T10:39:15Z</time>
      </trkpt>
      <trkpt lat="43.087860" lon="-2.206928">
        <ele>776.615</ele>
        <time>2021-03-21T10:39:17Z</time>
      </trkpt>
      <trkpt lat="43.087848" lon="-2.206943">
        <ele>776.743</ele>
        <time>2021-03-21T10:39:23Z</time>
      </trkpt>
      <trkpt lat="43.087832" lon="-2.206955">
        <ele>776.543</ele>
        <time>2021-03-21T10:39:25Z</time>
      </trkpt>
      <trkpt lat="43.087812" lon="-2.206964">
        <ele>776.073</ele>
        <time>2021-03-21T10:39:27Z</time>
      </trkpt>
      <trkpt lat="43.087792" lon="-2.206966">
        <ele>775.365</ele>
        <time>2021-03-21T10:39:29Z</time>
      </trkpt>
      <trkpt lat="43.087771" lon="-2.206961">
        <ele>774.468</ele>
        <time>2021-03-21T10:39:31Z</time>
      </trkpt>
      <trkpt lat="43.087751" lon="-2.206956">
        <ele>773.814</ele>
        <time>2021-03-21T10:39:33Z</time>
      </trkpt>
      <trkpt lat="43.087732" lon="-2.206957">
        <ele>773.408</ele>
        <time>2021-03-21T10:39:37Z</time>
      </trkpt>
      <trkpt lat="43.087712" lon="-2.206960">
        <ele>773.112</ele>
        <time>2021-03-21T10:39:43Z</time>
      </trkpt>
      <trkpt lat="43.087688" lon="-2.206970">
        <ele>772.995</ele>
        <time>2021-03-21T10:39:45Z</time>
      </trkpt>
      <trkpt lat="43.087664" lon="-2.206981">
        <ele>772.798</ele>
        <time>2021-03-21T10:39:47Z</time>
      </trkpt>
      <trkpt lat="43.087640" lon="-2.206992">
        <ele>772.579</ele>
        <time>2021-03-21T10:39:49Z</time>
      </trkpt>
      <trkpt lat="43.087617" lon="-2.207004">
        <ele>772.326</ele>
        <time>2021-03-21T10:39:51Z</time>
      </trkpt>
      <trkpt lat="43.087593" lon="-2.207016">
        <ele>772.234</ele>
        <time>2021-03-21T10:39:53Z</time>
      </trkpt>
      <trkpt lat="43.087568" lon="-2.207030">
        <ele>772.034</ele>
        <time>2021-03-21T10:39:55Z</time>
      </trkpt>
      <trkpt lat="43.087546" lon="-2.207048">
        <ele>772.034</ele>
        <time>2021-03-21T10:39:57Z</time>
      </trkpt>
      <trkpt lat="43.087525" lon="-2.207064">
        <ele>772.024</ele>
        <time>2021-03-21T10:39:59Z</time>
      </trkpt>
      <trkpt lat="43.087502" lon="-2.207084">
        <ele>772.104</ele>
        <time>2021-03-21T10:40:01Z</time>
      </trkpt>
      <trkpt lat="43.087484" lon="-2.207114">
        <ele>772.714</ele>
        <time>2021-03-21T10:40:03Z</time>
      </trkpt>
      <trkpt lat="43.087467" lon="-2.207136">
        <ele>773.008</ele>
        <time>2021-03-21T10:40:05Z</time>
      </trkpt>
      <trkpt lat="43.087446" lon="-2.207152">
        <ele>773.288</ele>
        <time>2021-03-21T10:40:07Z</time>
      </trkpt>
      <trkpt lat="43.087423" lon="-2.207170">
        <ele>773.471</ele>
        <time>2021-03-21T10:40:09Z</time>
      </trkpt>
      <trkpt lat="43.087403" lon="-2.207189">
        <ele>773.654</ele>
        <time>2021-03-21T10:40:11Z</time>
      </trkpt>
      <trkpt lat="43.087383" lon="-2.207207">
        <ele>773.945</ele>
        <time>2021-03-21T10:40:13Z</time>
      </trkpt>
      <trkpt lat="43.087363" lon="-2.207227">
        <ele>774.162</ele>
        <time>2021-03-21T10:40:15Z</time>
      </trkpt>
      <trkpt lat="43.087344" lon="-2.207247">
        <ele>774.040</ele>
        <time>2021-03-21T10:40:17Z</time>
      </trkpt>
      <trkpt lat="43.087326" lon="-2.207265">
        <ele>773.910</ele>
        <time>2021-03-21T10:40:19Z</time>
      </trkpt>
      <trkpt lat="43.087308" lon="-2.207285">
        <ele>773.820</ele>
        <time>2021-03-21T10:40:21Z</time>
      </trkpt>
      <trkpt lat="43.087293" lon="-2.207318">
        <ele>773.984</ele>
        <time>2021-03-21T10:40:23Z</time>
      </trkpt>
      <trkpt lat="43.087279" lon="-2.207340">
        <ele>773.807</ele>
        <time>2021-03-21T10:40:25Z</time>
      </trkpt>
      <trkpt lat="43.087252" lon="-2.207348">
        <ele>773.417</ele>
        <time>2021-03-21T10:40:28Z</time>
      </trkpt>
      <trkpt lat="43.087235" lon="-2.207359">
        <ele>773.208</ele>
        <time>2021-03-21T10:40:30Z</time>
      </trkpt>
      <trkpt lat="43.087218" lon="-2.207372">
        <ele>773.024</ele>
        <time>2021-03-21T10:40:32Z</time>
      </trkpt>
      <trkpt lat="43.087198" lon="-2.207386">
        <ele>773.017</ele>
        <time>2021-03-21T10:40:34Z</time>
      </trkpt>
      <trkpt lat="43.087175" lon="-2.207398">
        <ele>772.940</ele>
        <time>2021-03-21T10:40:36Z</time>
      </trkpt>
      <trkpt lat="43.087160" lon="-2.207419">
        <ele>772.951</ele>
        <time>2021-03-21T10:40:38Z</time>
      </trkpt>
      <trkpt lat="43.087147" lon="-2.207441">
        <ele>772.928</ele>
        <time>2021-03-21T10:40:40Z</time>
      </trkpt>
      <trkpt lat="43.087137" lon="-2.207464">
        <ele>772.986</ele>
        <time>2021-03-21T10:40:42Z</time>
      </trkpt>
      <trkpt lat="43.087125" lon="-2.207483">
        <ele>772.966</ele>
        <time>2021-03-21T10:40:44Z</time>
      </trkpt>
      <trkpt lat="43.087106" lon="-2.207513">
        <ele>772.756</ele>
        <time>2021-03-21T10:40:46Z</time>
      </trkpt>
      <trkpt lat="43.087087" lon="-2.207527">
        <ele>772.596</ele>
        <time>2021-03-21T10:40:48Z</time>
      </trkpt>
      <trkpt lat="43.087066" lon="-2.207556">
        <ele>772.231</ele>
        <time>2021-03-21T10:40:50Z</time>
      </trkpt>
      <trkpt lat="43.087056" lon="-2.207585">
        <ele>772.024</ele>
        <time>2021-03-21T10:40:52Z</time>
      </trkpt>
      <trkpt lat="43.087039" lon="-2.207613">
        <ele>771.808</ele>
        <time>2021-03-21T10:40:54Z</time>
      </trkpt>
      <trkpt lat="43.087019" lon="-2.207629">
        <ele>771.555</ele>
        <time>2021-03-21T10:40:56Z</time>
      </trkpt>
      <trkpt lat="43.086998" lon="-2.207635">
        <ele>771.248</ele>
        <time>2021-03-21T10:40:58Z</time>
      </trkpt>
      <trkpt lat="43.086976" lon="-2.207650">
        <ele>770.981</ele>
        <time>2021-03-21T10:41:00Z</time>
      </trkpt>
      <trkpt lat="43.086956" lon="-2.207665">
        <ele>770.662</ele>
        <time>2021-03-21T10:41:02Z</time>
      </trkpt>
      <trkpt lat="43.086935" lon="-2.207670">
        <ele>770.399</ele>
        <time>2021-03-21T10:41:04Z</time>
      </trkpt>
      <trkpt lat="43.086917" lon="-2.207690">
        <ele>770.247</ele>
        <time>2021-03-21T10:41:06Z</time>
      </trkpt>
      <trkpt lat="43.086901" lon="-2.207712">
        <ele>770.067</ele>
        <time>2021-03-21T10:41:08Z</time>
      </trkpt>
      <trkpt lat="43.086878" lon="-2.207730">
        <ele>769.887</ele>
        <time>2021-03-21T10:41:10Z</time>
      </trkpt>
      <trkpt lat="43.086858" lon="-2.207735">
        <ele>769.642</ele>
        <time>2021-03-21T10:41:11Z</time>
      </trkpt>
      <trkpt lat="43.086840" lon="-2.207735">
        <ele>769.522</ele>
        <time>2021-03-21T10:41:14Z</time>
      </trkpt>
      <trkpt lat="43.086821" lon="-2.207740">
        <ele>769.414</ele>
        <time>2021-03-21T10:41:16Z</time>
      </trkpt>
      <trkpt lat="43.086804" lon="-2.207752">
        <ele>769.208</ele>
        <time>2021-03-21T10:41:20Z</time>
      </trkpt>
      <trkpt lat="43.086786" lon="-2.207773">
        <ele>768.920</ele>
        <time>2021-03-21T10:41:22Z</time>
      </trkpt>
      <trkpt lat="43.086766" lon="-2.207807">
        <ele>768.453</ele>
        <time>2021-03-21T10:41:24Z</time>
      </trkpt>
      <trkpt lat="43.086747" lon="-2.207832">
        <ele>768.016</ele>
        <time>2021-03-21T10:41:26Z</time>
      </trkpt>
      <trkpt lat="43.086725" lon="-2.207850">
        <ele>767.667</ele>
        <time>2021-03-21T10:41:28Z</time>
      </trkpt>
      <trkpt lat="43.086698" lon="-2.207858">
        <ele>767.424</ele>
        <time>2021-03-21T10:41:30Z</time>
      </trkpt>
      <trkpt lat="43.086670" lon="-2.207866">
        <ele>767.142</ele>
        <time>2021-03-21T10:41:31Z</time>
      </trkpt>
      <trkpt lat="43.086653" lon="-2.207884">
        <ele>767.052</ele>
        <time>2021-03-21T10:41:34Z</time>
      </trkpt>
      <trkpt lat="43.086635" lon="-2.207905">
        <ele>767.022</ele>
        <time>2021-03-21T10:41:38Z</time>
      </trkpt>
      <trkpt lat="43.086616" lon="-2.207927">
        <ele>766.962</ele>
        <time>2021-03-21T10:41:40Z</time>
      </trkpt>
      <trkpt lat="43.086630" lon="-2.207943">
        <ele>766.683</ele>
        <time>2021-03-21T10:41:47Z</time>
      </trkpt>
      <trkpt lat="43.086654" lon="-2.207930">
        <ele>766.511</ele>
        <time>2021-03-21T10:41:52Z</time>
      </trkpt>
      <trkpt lat="43.086681" lon="-2.207922">
        <ele>766.508</ele>
        <time>2021-03-21T10:41:54Z</time>
      </trkpt>
      <trkpt lat="43.086707" lon="-2.207920">
        <ele>766.872</ele>
        <time>2021-03-21T10:41:56Z</time>
      </trkpt>
      <trkpt lat="43.086733" lon="-2.207910">
        <ele>767.065</ele>
        <time>2021-03-21T10:41:57Z</time>
      </trkpt>
      <trkpt lat="43.086758" lon="-2.207907">
        <ele>767.398</ele>
        <time>2021-03-21T10:42:00Z</time>
      </trkpt>
      <trkpt lat="43.086784" lon="-2.207909">
        <ele>767.439</ele>
        <time>2021-03-21T10:42:02Z</time>
      </trkpt>
      <trkpt lat="43.086811" lon="-2.207912">
        <ele>767.626</ele>
        <time>2021-03-21T10:42:04Z</time>
      </trkpt>
      <trkpt lat="43.086838" lon="-2.207908">
        <ele>767.884</ele>
        <time>2021-03-21T10:42:06Z</time>
      </trkpt>
      <trkpt lat="43.086864" lon="-2.207908">
        <ele>768.054</ele>
        <time>2021-03-21T10:42:08Z</time>
      </trkpt>
      <trkpt lat="43.086889" lon="-2.207906">
        <ele>768.264</ele>
        <time>2021-03-21T10:42:10Z</time>
      </trkpt>
      <trkpt lat="43.086913" lon="-2.207913">
        <ele>768.374</ele>
        <time>2021-03-21T10:42:12Z</time>
      </trkpt>
      <trkpt lat="43.086934" lon="-2.207922">
        <ele>768.456</ele>
        <time>2021-03-21T10:42:14Z</time>
      </trkpt>
      <trkpt lat="43.086955" lon="-2.207933">
        <ele>768.521</ele>
        <time>2021-03-21T10:42:16Z</time>
      </trkpt>
      <trkpt lat="43.086976" lon="-2.207940">
        <ele>768.808</ele>
        <time>2021-03-21T10:42:18Z</time>
      </trkpt>
      <trkpt lat="43.087000" lon="-2.207945">
        <ele>769.123</ele>
        <time>2021-03-21T10:42:20Z</time>
      </trkpt>
      <trkpt lat="43.087024" lon="-2.207946">
        <ele>769.516</ele>
        <time>2021-03-21T10:42:22Z</time>
      </trkpt>
      <trkpt lat="43.087043" lon="-2.207950">
        <ele>769.819</ele>
        <time>2021-03-21T10:42:24Z</time>
      </trkpt>
      <trkpt lat="43.087062" lon="-2.207974">
        <ele>769.920</ele>
        <time>2021-03-21T10:42:27Z</time>
      </trkpt>
      <trkpt lat="43.087076" lon="-2.207994">
        <ele>769.977</ele>
        <time>2021-03-21T10:42:29Z</time>
      </trkpt>
      <trkpt lat="43.087094" lon="-2.208016">
        <ele>770.085</ele>
        <time>2021-03-21T10:42:31Z</time>
      </trkpt>
      <trkpt lat="43.087106" lon="-2.208045">
        <ele>770.095</ele>
        <time>2021-03-21T10:42:33Z</time>
      </trkpt>
      <trkpt lat="43.087081" lon="-2.208048">
        <ele>769.575</ele>
        <time>2021-03-21T10:42:38Z</time>
      </trkpt>
      <trkpt lat="43.087053" lon="-2.208026">
        <ele>769.233</ele>
        <time>2021-03-21T10:42:40Z</time>
      </trkpt>
      <trkpt lat="43.087018" lon="-2.208013">
        <ele>768.723</ele>
        <time>2021-03-21T10:42:42Z</time>
      </trkpt>
      <trkpt lat="43.086991" lon="-2.208013">
        <ele>768.315</ele>
        <time>2021-03-21T10:42:44Z</time>
      </trkpt>
      <trkpt lat="43.086960" lon="-2.208017">
        <ele>767.708</ele>
        <time>2021-03-21T10:42:46Z</time>
      </trkpt>
      <trkpt lat="43.086926" lon="-2.208024">
        <ele>767.279</ele>
        <time>2021-03-21T10:42:48Z</time>
      </trkpt>
      <trkpt lat="43.086907" lon="-2.208026">
        <ele>767.072</ele>
        <time>2021-03-21T10:42:49Z</time>
      </trkpt>
      <trkpt lat="43.086875" lon="-2.208040">
        <ele>766.725</ele>
        <time>2021-03-21T10:42:51Z</time>
      </trkpt>
      <trkpt lat="43.086844" lon="-2.208060">
        <ele>766.276</ele>
        <time>2021-03-21T10:42:53Z</time>
      </trkpt>
      <trkpt lat="43.086827" lon="-2.208070">
        <ele>765.973</ele>
        <time>2021-03-21T10:42:54Z</time>
      </trkpt>
      <trkpt lat="43.086809" lon="-2.208082">
        <ele>765.691</ele>
        <time>2021-03-21T10:42:55Z</time>
      </trkpt>
      <trkpt lat="43.086790" lon="-2.208093">
        <ele>765.311</ele>
        <time>2021-03-21T10:42:56Z</time>
      </trkpt>
      <trkpt lat="43.086772" lon="-2.208106">
        <ele>764.961</ele>
        <time>2021-03-21T10:42:57Z</time>
      </trkpt>
      <trkpt lat="43.086746" lon="-2.208114">
        <ele>764.645</ele>
        <time>2021-03-21T10:42:58Z</time>
      </trkpt>
      <trkpt lat="43.086725" lon="-2.208124">
        <ele>764.247</ele>
        <time>2021-03-21T10:42:59Z</time>
      </trkpt>
      <trkpt lat="43.086712" lon="-2.208144">
        <ele>763.811</ele>
        <time>2021-03-21T10:43:00Z</time>
      </trkpt>
      <trkpt lat="43.086701" lon="-2.208165">
        <ele>763.308</ele>
        <time>2021-03-21T10:43:01Z</time>
      </trkpt>
      <trkpt lat="43.086690" lon="-2.208186">
        <ele>762.960</ele>
        <time>2021-03-21T10:43:02Z</time>
      </trkpt>
      <trkpt lat="43.086677" lon="-2.208207">
        <ele>762.483</ele>
        <time>2021-03-21T10:43:03Z</time>
      </trkpt>
      <trkpt lat="43.086663" lon="-2.208226">
        <ele>762.086</ele>
        <time>2021-03-21T10:43:04Z</time>
      </trkpt>
      <trkpt lat="43.086651" lon="-2.208247">
        <ele>761.747</ele>
        <time>2021-03-21T10:43:05Z</time>
      </trkpt>
      <trkpt lat="43.086641" lon="-2.208269">
        <ele>761.374</ele>
        <time>2021-03-21T10:43:06Z</time>
      </trkpt>
      <trkpt lat="43.086632" lon="-2.208291">
        <ele>761.062</ele>
        <time>2021-03-21T10:43:07Z</time>
      </trkpt>
      <trkpt lat="43.086630" lon="-2.208315">
        <ele>760.622</ele>
        <time>2021-03-21T10:43:08Z</time>
      </trkpt>
      <trkpt lat="43.086628" lon="-2.208341">
        <ele>760.112</ele>
        <time>2021-03-21T10:43:09Z</time>
      </trkpt>
      <trkpt lat="43.086626" lon="-2.208367">
        <ele>759.645</ele>
        <time>2021-03-21T10:43:10Z</time>
      </trkpt>
      <trkpt lat="43.086624" lon="-2.208392">
        <ele>759.147</ele>
        <time>2021-03-21T10:43:11Z</time>
      </trkpt>
      <trkpt lat="43.086623" lon="-2.208416">
        <ele>758.611</ele>
        <time>2021-03-21T10:43:12Z</time>
      </trkpt>
      <trkpt lat="43.086623" lon="-2.208457">
        <ele>757.708</ele>
        <time>2021-03-21T10:43:14Z</time>
      </trkpt>
      <trkpt lat="43.086620" lon="-2.208494">
        <ele>757.090</ele>
        <time>2021-03-21T10:43:16Z</time>
      </trkpt>
      <trkpt lat="43.086615" lon="-2.208528">
        <ele>756.343</ele>
        <time>2021-03-21T10:43:18Z</time>
      </trkpt>
      <trkpt lat="43.086609" lon="-2.208562">
        <ele>755.636</ele>
        <time>2021-03-21T10:43:20Z</time>
      </trkpt>
      <trkpt lat="43.086598" lon="-2.208593">
        <ele>755.177</ele>
        <time>2021-03-21T10:43:22Z</time>
      </trkpt>
      <trkpt lat="43.086582" lon="-2.208624">
        <ele>754.674</ele>
        <time>2021-03-21T10:43:24Z</time>
      </trkpt>
      <trkpt lat="43.086564" lon="-2.208664">
        <ele>754.032</ele>
        <time>2021-03-21T10:43:26Z</time>
      </trkpt>
      <trkpt lat="43.086537" lon="-2.208719">
        <ele>753.112</ele>
        <time>2021-03-21T10:43:29Z</time>
      </trkpt>
      <trkpt lat="43.086525" lon="-2.208759">
        <ele>752.352</ele>
        <time>2021-03-21T10:43:31Z</time>
      </trkpt>
      <trkpt lat="43.086517" lon="-2.208806">
        <ele>751.467</ele>
        <time>2021-03-21T10:43:33Z</time>
      </trkpt>
      <trkpt lat="43.086511" lon="-2.208848">
        <ele>750.681</ele>
        <time>2021-03-21T10:43:35Z</time>
      </trkpt>
      <trkpt lat="43.086500" lon="-2.208887">
        <ele>749.819</ele>
        <time>2021-03-21T10:43:37Z</time>
      </trkpt>
      <trkpt lat="43.086489" lon="-2.208927">
        <ele>749.108</ele>
        <time>2021-03-21T10:43:39Z</time>
      </trkpt>
      <trkpt lat="43.086482" lon="-2.208965">
        <ele>748.482</ele>
        <time>2021-03-21T10:43:41Z</time>
      </trkpt>
      <trkpt lat="43.086475" lon="-2.209003">
        <ele>747.795</ele>
        <time>2021-03-21T10:43:43Z</time>
      </trkpt>
      <trkpt lat="43.086473" lon="-2.209045">
        <ele>746.958</ele>
        <time>2021-03-21T10:43:45Z</time>
      </trkpt>
      <trkpt lat="43.086465" lon="-2.209083">
        <ele>746.279</ele>
        <time>2021-03-21T10:43:47Z</time>
      </trkpt>
      <trkpt lat="43.086462" lon="-2.209124">
        <ele>745.446</ele>
        <time>2021-03-21T10:43:49Z</time>
      </trkpt>
      <trkpt lat="43.086457" lon="-2.209166">
        <ele>744.534</ele>
        <time>2021-03-21T10:43:51Z</time>
      </trkpt>
      <trkpt lat="43.086452" lon="-2.209205">
        <ele>743.754</ele>
        <time>2021-03-21T10:43:53Z</time>
      </trkpt>
      <trkpt lat="43.086450" lon="-2.209248">
        <ele>742.914</ele>
        <time>2021-03-21T10:43:55Z</time>
      </trkpt>
      <trkpt lat="43.086449" lon="-2.209292">
        <ele>742.091</ele>
        <time>2021-03-21T10:43:57Z</time>
      </trkpt>
      <trkpt lat="43.086447" lon="-2.209335">
        <ele>741.181</ele>
        <time>2021-03-21T10:43:59Z</time>
      </trkpt>
      <trkpt lat="43.086442" lon="-2.209375">
        <ele>740.319</ele>
        <time>2021-03-21T10:44:01Z</time>
      </trkpt>
      <trkpt lat="43.086440" lon="-2.209422">
        <ele>739.308</ele>
        <time>2021-03-21T10:44:03Z</time>
      </trkpt>
      <trkpt lat="43.086433" lon="-2.209466">
        <ele>738.485</ele>
        <time>2021-03-21T10:44:05Z</time>
      </trkpt>
      <trkpt lat="43.086422" lon="-2.209505">
        <ele>737.898</ele>
        <time>2021-03-21T10:44:07Z</time>
      </trkpt>
      <trkpt lat="43.086411" lon="-2.209546">
        <ele>737.181</ele>
        <time>2021-03-21T10:44:09Z</time>
      </trkpt>
      <trkpt lat="43.086398" lon="-2.209585">
        <ele>736.462</ele>
        <time>2021-03-21T10:44:11Z</time>
      </trkpt>
      <trkpt lat="43.086385" lon="-2.209623">
        <ele>735.719</ele>
        <time>2021-03-21T10:44:13Z</time>
      </trkpt>
      <trkpt lat="43.086376" lon="-2.209662">
        <ele>734.977</ele>
        <time>2021-03-21T10:44:15Z</time>
      </trkpt>
      <trkpt lat="43.086369" lon="-2.209704">
        <ele>734.117</ele>
        <time>2021-03-21T10:44:17Z</time>
      </trkpt>
      <trkpt lat="43.086365" lon="-2.209748">
        <ele>733.357</ele>
        <time>2021-03-21T10:44:19Z</time>
      </trkpt>
      <trkpt lat="43.086366" lon="-2.209792">
        <ele>732.667</ele>
        <time>2021-03-21T10:44:21Z</time>
      </trkpt>
      <trkpt lat="43.086366" lon="-2.209841">
        <ele>731.981</ele>
        <time>2021-03-21T10:44:23Z</time>
      </trkpt>
      <trkpt lat="43.086366" lon="-2.209866">
        <ele>731.619</ele>
        <time>2021-03-21T10:44:24Z</time>
      </trkpt>
      <trkpt lat="43.086365" lon="-2.209891">
        <ele>731.208</ele>
        <time>2021-03-21T10:44:25Z</time>
      </trkpt>
      <trkpt lat="43.086363" lon="-2.209915">
        <ele>730.832</ele>
        <time>2021-03-21T10:44:26Z</time>
      </trkpt>
      <trkpt lat="43.086362" lon="-2.209964">
        <ele>730.035</ele>
        <time>2021-03-21T10:44:28Z</time>
      </trkpt>
      <trkpt lat="43.086361" lon="-2.209988">
        <ele>729.778</ele>
        <time>2021-03-21T10:44:29Z</time>
      </trkpt>
      <trkpt lat="43.086360" lon="-2.210014">
        <ele>729.359</ele>
        <time>2021-03-21T10:44:30Z</time>
      </trkpt>
      <trkpt lat="43.086359" lon="-2.210061">
        <ele>728.566</ele>
        <time>2021-03-21T10:44:32Z</time>
      </trkpt>
      <trkpt lat="43.086360" lon="-2.210085">
        <ele>728.234</ele>
        <time>2021-03-21T10:44:33Z</time>
      </trkpt>
      <trkpt lat="43.086360" lon="-2.210109">
        <ele>727.874</ele>
        <time>2021-03-21T10:44:34Z</time>
      </trkpt>
      <trkpt lat="43.086360" lon="-2.210133">
        <ele>727.514</ele>
        <time>2021-03-21T10:44:35Z</time>
      </trkpt>
      <trkpt lat="43.086357" lon="-2.210174">
        <ele>726.887</ele>
        <time>2021-03-21T10:44:37Z</time>
      </trkpt>
      <trkpt lat="43.086359" lon="-2.210217">
        <ele>726.242</ele>
        <time>2021-03-21T10:44:39Z</time>
      </trkpt>
      <trkpt lat="43.086358" lon="-2.210265">
        <ele>725.426</ele>
        <time>2021-03-21T10:44:41Z</time>
      </trkpt>
      <trkpt lat="43.086359" lon="-2.210311">
        <ele>724.808</ele>
        <time>2021-03-21T10:44:43Z</time>
      </trkpt>
      <trkpt lat="43.086362" lon="-2.210334">
        <ele>724.764</ele>
        <time>2021-03-21T10:44:44Z</time>
      </trkpt>
      <trkpt lat="43.086370" lon="-2.210383">
        <ele>724.377</ele>
        <time>2021-03-21T10:44:46Z</time>
      </trkpt>
      <trkpt lat="43.086376" lon="-2.210412">
        <ele>724.220</ele>
        <time>2021-03-21T10:44:47Z</time>
      </trkpt>
      <trkpt lat="43.086381" lon="-2.210440">
        <ele>724.091</ele>
        <time>2021-03-21T10:44:48Z</time>
      </trkpt>
      <trkpt lat="43.086383" lon="-2.210468">
        <ele>723.818</ele>
        <time>2021-03-21T10:44:49Z</time>
      </trkpt>
      <trkpt lat="43.086386" lon="-2.210496">
        <ele>723.586</ele>
        <time>2021-03-21T10:44:50Z</time>
      </trkpt>
      <trkpt lat="43.086389" lon="-2.210524">
        <ele>723.346</ele>
        <time>2021-03-21T10:44:51Z</time>
      </trkpt>
      <trkpt lat="43.086392" lon="-2.210552">
        <ele>723.026</ele>
        <time>2021-03-21T10:44:52Z</time>
      </trkpt>
      <trkpt lat="43.086396" lon="-2.210582">
        <ele>722.761</ele>
        <time>2021-03-21T10:44:53Z</time>
      </trkpt>
      <trkpt lat="43.086402" lon="-2.210612">
        <ele>722.521</ele>
        <time>2021-03-21T10:44:54Z</time>
      </trkpt>
      <trkpt lat="43.086406" lon="-2.210642">
        <ele>722.213</ele>
        <time>2021-03-21T10:44:55Z</time>
      </trkpt>
      <trkpt lat="43.086408" lon="-2.210672">
        <ele>722.008</ele>
        <time>2021-03-21T10:44:56Z</time>
      </trkpt>
      <trkpt lat="43.086410" lon="-2.210703">
        <ele>721.822</ele>
        <time>2021-03-21T10:44:57Z</time>
      </trkpt>
      <trkpt lat="43.086411" lon="-2.210733">
        <ele>721.525</ele>
        <time>2021-03-21T10:44:58Z</time>
      </trkpt>
      <trkpt lat="43.086412" lon="-2.210763">
        <ele>721.398</ele>
        <time>2021-03-21T10:44:59Z</time>
      </trkpt>
      <trkpt lat="43.086414" lon="-2.210793">
        <ele>721.189</ele>
        <time>2021-03-21T10:45:00Z</time>
      </trkpt>
      <trkpt lat="43.086418" lon="-2.210825">
        <ele>720.896</ele>
        <time>2021-03-21T10:45:01Z</time>
      </trkpt>
      <trkpt lat="43.086422" lon="-2.210856">
        <ele>720.664</ele>
        <time>2021-03-21T10:45:02Z</time>
      </trkpt>
      <trkpt lat="43.086425" lon="-2.210885">
        <ele>720.414</ele>
        <time>2021-03-21T10:45:03Z</time>
      </trkpt>
      <trkpt lat="43.086426" lon="-2.210914">
        <ele>720.244</ele>
        <time>2021-03-21T10:45:04Z</time>
      </trkpt>
      <trkpt lat="43.086427" lon="-2.210944">
        <ele>720.066</ele>
        <time>2021-03-21T10:45:05Z</time>
      </trkpt>
      <trkpt lat="43.086428" lon="-2.210973">
        <ele>719.829</ele>
        <time>2021-03-21T10:45:06Z</time>
      </trkpt>
      <trkpt lat="43.086428" lon="-2.211001">
        <ele>719.621</ele>
        <time>2021-03-21T10:45:07Z</time>
      </trkpt>
      <trkpt lat="43.086428" lon="-2.211029">
        <ele>719.408</ele>
        <time>2021-03-21T10:45:08Z</time>
      </trkpt>
      <trkpt lat="43.086430" lon="-2.211058">
        <ele>719.212</ele>
        <time>2021-03-21T10:45:09Z</time>
      </trkpt>
      <trkpt lat="43.086432" lon="-2.211086">
        <ele>719.045</ele>
        <time>2021-03-21T10:45:10Z</time>
      </trkpt>
      <trkpt lat="43.086433" lon="-2.211114">
        <ele>718.858</ele>
        <time>2021-03-21T10:45:11Z</time>
      </trkpt>
      <trkpt lat="43.086434" lon="-2.211142">
        <ele>718.689</ele>
        <time>2021-03-21T10:45:12Z</time>
      </trkpt>
      <trkpt lat="43.086434" lon="-2.211171">
        <ele>718.466</ele>
        <time>2021-03-21T10:45:13Z</time>
      </trkpt>
      <trkpt lat="43.086433" lon="-2.211201">
        <ele>718.294</ele>
        <time>2021-03-21T10:45:14Z</time>
      </trkpt>
      <trkpt lat="43.086431" lon="-2.211231">
        <ele>718.024</ele>
        <time>2021-03-21T10:45:15Z</time>
      </trkpt>
      <trkpt lat="43.086431" lon="-2.211262">
        <ele>717.854</ele>
        <time>2021-03-21T10:45:16Z</time>
      </trkpt>
      <trkpt lat="43.086432" lon="-2.211291">
        <ele>717.547</ele>
        <time>2021-03-21T10:45:17Z</time>
      </trkpt>
      <trkpt lat="43.086434" lon="-2.211336">
        <ele>717.229</ele>
        <time>2021-03-21T10:45:19Z</time>
      </trkpt>
      <trkpt lat="43.086434" lon="-2.211379">
        <ele>716.921</ele>
        <time>2021-03-21T10:45:21Z</time>
      </trkpt>
      <trkpt lat="43.086433" lon="-2.211426">
        <ele>716.408</ele>
        <time>2021-03-21T10:45:23Z</time>
      </trkpt>
      <trkpt lat="43.086433" lon="-2.211472">
        <ele>715.990</ele>
        <time>2021-03-21T10:45:25Z</time>
      </trkpt>
      <trkpt lat="43.086436" lon="-2.211516">
        <ele>715.573</ele>
        <time>2021-03-21T10:45:27Z</time>
      </trkpt>
      <trkpt lat="43.086436" lon="-2.211558">
        <ele>715.026</ele>
        <time>2021-03-21T10:45:29Z</time>
      </trkpt>
      <trkpt lat="43.086438" lon="-2.211600">
        <ele>714.577</ele>
        <time>2021-03-21T10:45:31Z</time>
      </trkpt>
      <trkpt lat="43.086444" lon="-2.211635">
        <ele>714.134</ele>
        <time>2021-03-21T10:45:33Z</time>
      </trkpt>
      <trkpt lat="43.086456" lon="-2.211665">
        <ele>713.822</ele>
        <time>2021-03-21T10:45:35Z</time>
      </trkpt>
      <trkpt lat="43.086469" lon="-2.211699">
        <ele>713.322</ele>
        <time>2021-03-21T10:45:37Z</time>
      </trkpt>
      <trkpt lat="43.086485" lon="-2.211733">
        <ele>712.822</ele>
        <time>2021-03-21T10:45:39Z</time>
      </trkpt>
      <trkpt lat="43.086501" lon="-2.211771">
        <ele>712.261</ele>
        <time>2021-03-21T10:45:41Z</time>
      </trkpt>
      <trkpt lat="43.086513" lon="-2.211810">
        <ele>711.721</ele>
        <time>2021-03-21T10:45:43Z</time>
      </trkpt>
      <trkpt lat="43.086519" lon="-2.211832">
        <ele>711.413</ele>
        <time>2021-03-21T10:45:44Z</time>
      </trkpt>
      <trkpt lat="43.086527" lon="-2.211854">
        <ele>711.108</ele>
        <time>2021-03-21T10:45:45Z</time>
      </trkpt>
      <trkpt lat="43.086532" lon="-2.211879">
        <ele>710.812</ele>
        <time>2021-03-21T10:45:46Z</time>
      </trkpt>
      <trkpt lat="43.086537" lon="-2.211905">
        <ele>710.515</ele>
        <time>2021-03-21T10:45:47Z</time>
      </trkpt>
      <trkpt lat="43.086540" lon="-2.211934">
        <ele>710.178</ele>
        <time>2021-03-21T10:45:48Z</time>
      </trkpt>
      <trkpt lat="43.086543" lon="-2.211964">
        <ele>709.649</ele>
        <time>2021-03-21T10:45:49Z</time>
      </trkpt>
      <trkpt lat="43.086549" lon="-2.211993">
        <ele>709.156</ele>
        <time>2021-03-21T10:45:50Z</time>
      </trkpt>
      <trkpt lat="43.086554" lon="-2.212026">
        <ele>708.524</ele>
        <time>2021-03-21T10:45:51Z</time>
      </trkpt>
      <trkpt lat="43.086558" lon="-2.212058">
        <ele>707.924</ele>
        <time>2021-03-21T10:45:52Z</time>
      </trkpt>
      <trkpt lat="43.086557" lon="-2.212089">
        <ele>707.344</ele>
        <time>2021-03-21T10:45:53Z</time>
      </trkpt>
      <trkpt lat="43.086558" lon="-2.212120">
        <ele>706.793</ele>
        <time>2021-03-21T10:45:54Z</time>
      </trkpt>
      <trkpt lat="43.086559" lon="-2.212150">
        <ele>706.265</ele>
        <time>2021-03-21T10:45:55Z</time>
      </trkpt>
      <trkpt lat="43.086561" lon="-2.212177">
        <ele>705.721</ele>
        <time>2021-03-21T10:45:56Z</time>
      </trkpt>
      <trkpt lat="43.086565" lon="-2.212205">
        <ele>705.208</ele>
        <time>2021-03-21T10:45:57Z</time>
      </trkpt>
      <trkpt lat="43.086568" lon="-2.212228">
        <ele>704.915</ele>
        <time>2021-03-21T10:45:58Z</time>
      </trkpt>
      <trkpt lat="43.086571" lon="-2.212267">
        <ele>704.358</ele>
        <time>2021-03-21T10:46:00Z</time>
      </trkpt>
      <trkpt lat="43.086573" lon="-2.212298">
        <ele>703.921</ele>
        <time>2021-03-21T10:46:01Z</time>
      </trkpt>
      <trkpt lat="43.086578" lon="-2.212331">
        <ele>703.592</ele>
        <time>2021-03-21T10:46:02Z</time>
      </trkpt>
      <trkpt lat="43.086583" lon="-2.212366">
        <ele>703.179</ele>
        <time>2021-03-21T10:46:03Z</time>
      </trkpt>
      <trkpt lat="43.086586" lon="-2.212399">
        <ele>702.737</ele>
        <time>2021-03-21T10:46:04Z</time>
      </trkpt>
      <trkpt lat="43.086588" lon="-2.212434">
        <ele>702.267</ele>
        <time>2021-03-21T10:46:05Z</time>
      </trkpt>
      <trkpt lat="43.086592" lon="-2.212474">
        <ele>701.777</ele>
        <time>2021-03-21T10:46:06Z</time>
      </trkpt>
      <trkpt lat="43.086597" lon="-2.212516">
        <ele>701.382</ele>
        <time>2021-03-21T10:46:07Z</time>
      </trkpt>
      <trkpt lat="43.086601" lon="-2.212553">
        <ele>700.943</ele>
        <time>2021-03-21T10:46:08Z</time>
      </trkpt>
      <trkpt lat="43.086607" lon="-2.212590">
        <ele>700.617</ele>
        <time>2021-03-21T10:46:09Z</time>
      </trkpt>
      <trkpt lat="43.086616" lon="-2.212631">
        <ele>700.308</ele>
        <time>2021-03-21T10:46:10Z</time>
      </trkpt>
      <trkpt lat="43.086625" lon="-2.212670">
        <ele>700.184</ele>
        <time>2021-03-21T10:46:11Z</time>
      </trkpt>
      <trkpt lat="43.086631" lon="-2.212707">
        <ele>699.837</ele>
        <time>2021-03-21T10:46:12Z</time>
      </trkpt>
      <trkpt lat="43.086641" lon="-2.212789">
        <ele>699.160</ele>
        <time>2021-03-21T10:46:13Z</time>
      </trkpt>
      <trkpt lat="43.086650" lon="-2.212823">
        <ele>699.021</ele>
        <time>2021-03-21T10:46:15Z</time>
      </trkpt>
      <trkpt lat="43.086657" lon="-2.212861">
        <ele>698.878</ele>
        <time>2021-03-21T10:46:16Z</time>
      </trkpt>
      <trkpt lat="43.086664" lon="-2.212900">
        <ele>698.636</ele>
        <time>2021-03-21T10:46:17Z</time>
      </trkpt>
      <trkpt lat="43.086667" lon="-2.212935">
        <ele>698.336</ele>
        <time>2021-03-21T10:46:18Z</time>
      </trkpt>
      <trkpt lat="43.086670" lon="-2.212962">
        <ele>698.056</ele>
        <time>2021-03-21T10:46:19Z</time>
      </trkpt>
      <trkpt lat="43.086663" lon="-2.212993">
        <ele>697.689</ele>
        <time>2021-03-21T10:46:21Z</time>
      </trkpt>
      <trkpt lat="43.086666" lon="-2.213039">
        <ele>697.206</ele>
        <time>2021-03-21T10:46:23Z</time>
      </trkpt>
      <trkpt lat="43.086674" lon="-2.213068">
        <ele>697.026</ele>
        <time>2021-03-21T10:46:24Z</time>
      </trkpt>
      <trkpt lat="43.086684" lon="-2.213095">
        <ele>696.908</ele>
        <time>2021-03-21T10:46:25Z</time>
      </trkpt>
      <trkpt lat="43.086695" lon="-2.213125">
        <ele>696.854</ele>
        <time>2021-03-21T10:46:26Z</time>
      </trkpt>
      <trkpt lat="43.086703" lon="-2.213153">
        <ele>696.797</ele>
        <time>2021-03-21T10:46:27Z</time>
      </trkpt>
      <trkpt lat="43.086709" lon="-2.213177">
        <ele>696.630</ele>
        <time>2021-03-21T10:46:28Z</time>
      </trkpt>
      <trkpt lat="43.086714" lon="-2.213209">
        <ele>696.581</ele>
        <time>2021-03-21T10:46:30Z</time>
      </trkpt>
      <trkpt lat="43.086719" lon="-2.213232">
        <ele>696.598</ele>
        <time>2021-03-21T10:46:35Z</time>
      </trkpt>
      <trkpt lat="43.086716" lon="-2.213271">
        <ele>696.446</ele>
        <time>2021-03-21T10:46:38Z</time>
      </trkpt>
      <trkpt lat="43.086728" lon="-2.213309">
        <ele>696.396</ele>
        <time>2021-03-21T10:46:40Z</time>
      </trkpt>
      <trkpt lat="43.086733" lon="-2.213348">
        <ele>696.336</ele>
        <time>2021-03-21T10:46:42Z</time>
      </trkpt>
      <trkpt lat="43.086720" lon="-2.213394">
        <ele>696.587</ele>
        <time>2021-03-21T10:46:44Z</time>
      </trkpt>
      <trkpt lat="43.086708" lon="-2.213421">
        <ele>696.742</ele>
        <time>2021-03-21T10:46:45Z</time>
      </trkpt>
      <trkpt lat="43.086697" lon="-2.213449">
        <ele>696.926</ele>
        <time>2021-03-21T10:46:46Z</time>
      </trkpt>
      <trkpt lat="43.086684" lon="-2.213479">
        <ele>697.008</ele>
        <time>2021-03-21T10:46:47Z</time>
      </trkpt>
      <trkpt lat="43.086673" lon="-2.213508">
        <ele>697.374</ele>
        <time>2021-03-21T10:46:48Z</time>
      </trkpt>
      <trkpt lat="43.086666" lon="-2.213539">
        <ele>697.547</ele>
        <time>2021-03-21T10:46:49Z</time>
      </trkpt>
      <trkpt lat="43.086661" lon="-2.213572">
        <ele>697.640</ele>
        <time>2021-03-21T10:46:50Z</time>
      </trkpt>
      <trkpt lat="43.086653" lon="-2.213606">
        <ele>697.631</ele>
        <time>2021-03-21T10:46:51Z</time>
      </trkpt>
      <trkpt lat="43.086643" lon="-2.213638">
        <ele>697.338</ele>
        <time>2021-03-21T10:46:52Z</time>
      </trkpt>
      <trkpt lat="43.086631" lon="-2.213674">
        <ele>696.946</ele>
        <time>2021-03-21T10:46:53Z</time>
      </trkpt>
      <trkpt lat="43.086620" lon="-2.213709">
        <ele>696.686</ele>
        <time>2021-03-21T10:46:54Z</time>
      </trkpt>
      <trkpt lat="43.086614" lon="-2.213746">
        <ele>696.436</ele>
        <time>2021-03-21T10:46:55Z</time>
      </trkpt>
      <trkpt lat="43.086609" lon="-2.213783">
        <ele>696.235</ele>
        <time>2021-03-21T10:46:56Z</time>
      </trkpt>
      <trkpt lat="43.086605" lon="-2.213819">
        <ele>696.186</ele>
        <time>2021-03-21T10:46:57Z</time>
      </trkpt>
      <trkpt lat="43.086601" lon="-2.213857">
        <ele>695.914</ele>
        <time>2021-03-21T10:46:58Z</time>
      </trkpt>
      <trkpt lat="43.086599" lon="-2.213894">
        <ele>695.808</ele>
        <time>2021-03-21T10:46:59Z</time>
      </trkpt>
      <trkpt lat="43.086598" lon="-2.213930">
        <ele>696.089</ele>
        <time>2021-03-21T10:47:00Z</time>
      </trkpt>
      <trkpt lat="43.086598" lon="-2.213967">
        <ele>696.222</ele>
        <time>2021-03-21T10:47:01Z</time>
      </trkpt>
      <trkpt lat="43.086597" lon="-2.214003">
        <ele>696.495</ele>
        <time>2021-03-21T10:47:02Z</time>
      </trkpt>
      <trkpt lat="43.086594" lon="-2.214036">
        <ele>696.586</ele>
        <time>2021-03-21T10:47:03Z</time>
      </trkpt>
      <trkpt lat="43.086592" lon="-2.214072">
        <ele>696.633</ele>
        <time>2021-03-21T10:47:04Z</time>
      </trkpt>
      <trkpt lat="43.086590" lon="-2.214107">
        <ele>696.781</ele>
        <time>2021-03-21T10:47:05Z</time>
      </trkpt>
      <trkpt lat="43.086585" lon="-2.214141">
        <ele>696.891</ele>
        <time>2021-03-21T10:47:06Z</time>
      </trkpt>
      <trkpt lat="43.086578" lon="-2.214175">
        <ele>696.921</ele>
        <time>2021-03-21T10:47:07Z</time>
      </trkpt>
      <trkpt lat="43.086572" lon="-2.214204">
        <ele>697.172</ele>
        <time>2021-03-21T10:47:08Z</time>
      </trkpt>
      <trkpt lat="43.086550" lon="-2.214243">
        <ele>697.113</ele>
        <time>2021-03-21T10:47:10Z</time>
      </trkpt>
      <trkpt lat="43.086533" lon="-2.214267">
        <ele>697.114</ele>
        <time>2021-03-21T10:47:11Z</time>
      </trkpt>
      <trkpt lat="43.086520" lon="-2.214298">
        <ele>697.208</ele>
        <time>2021-03-21T10:47:12Z</time>
      </trkpt>
      <trkpt lat="43.086514" lon="-2.214334">
        <ele>697.663</ele>
        <time>2021-03-21T10:47:13Z</time>
      </trkpt>
      <trkpt lat="43.086513" lon="-2.214368">
        <ele>698.166</ele>
        <time>2021-03-21T10:47:14Z</time>
      </trkpt>
      <trkpt lat="43.086513" lon="-2.214398">
        <ele>698.529</ele>
        <time>2021-03-21T10:47:15Z</time>
      </trkpt>
      <trkpt lat="43.086512" lon="-2.214430">
        <ele>699.080</ele>
        <time>2021-03-21T10:47:16Z</time>
      </trkpt>
      <trkpt lat="43.086513" lon="-2.214457">
        <ele>699.347</ele>
        <time>2021-03-21T10:47:17Z</time>
      </trkpt>
      <trkpt lat="43.086512" lon="-2.214482">
        <ele>699.545</ele>
        <time>2021-03-21T10:47:18Z</time>
      </trkpt>
      <trkpt lat="43.086512" lon="-2.214506">
        <ele>699.715</ele>
        <time>2021-03-21T10:47:19Z</time>
      </trkpt>
      <trkpt lat="43.086510" lon="-2.214547">
        <ele>699.915</ele>
        <time>2021-03-21T10:47:21Z</time>
      </trkpt>
      <trkpt lat="43.086512" lon="-2.214590">
        <ele>700.398</ele>
        <time>2021-03-21T10:47:23Z</time>
      </trkpt>
      <trkpt lat="43.086515" lon="-2.214631">
        <ele>700.615</ele>
        <time>2021-03-21T10:47:25Z</time>
      </trkpt>
      <trkpt lat="43.086518" lon="-2.214674">
        <ele>701.026</ele>
        <time>2021-03-21T10:47:27Z</time>
      </trkpt>
      <trkpt lat="43.086522" lon="-2.214718">
        <ele>701.408</ele>
        <time>2021-03-21T10:47:29Z</time>
      </trkpt>
      <trkpt lat="43.086530" lon="-2.214761">
        <ele>701.725</ele>
        <time>2021-03-21T10:47:31Z</time>
      </trkpt>
      <trkpt lat="43.086536" lon="-2.214804">
        <ele>702.058</ele>
        <time>2021-03-21T10:47:33Z</time>
      </trkpt>
      <trkpt lat="43.086542" lon="-2.214847">
        <ele>702.331</ele>
        <time>2021-03-21T10:47:35Z</time>
      </trkpt>
      <trkpt lat="43.086547" lon="-2.214889">
        <ele>702.582</ele>
        <time>2021-03-21T10:47:37Z</time>
      </trkpt>
      <trkpt lat="43.086552" lon="-2.214931">
        <ele>702.859</ele>
        <time>2021-03-21T10:47:39Z</time>
      </trkpt>
      <trkpt lat="43.086554" lon="-2.214974">
        <ele>703.087</ele>
        <time>2021-03-21T10:47:41Z</time>
      </trkpt>
      <trkpt lat="43.086556" lon="-2.215019">
        <ele>703.317</ele>
        <time>2021-03-21T10:47:43Z</time>
      </trkpt>
      <trkpt lat="43.086556" lon="-2.215060">
        <ele>703.637</ele>
        <time>2021-03-21T10:47:45Z</time>
      </trkpt>
      <trkpt lat="43.086556" lon="-2.215103">
        <ele>704.081</ele>
        <time>2021-03-21T10:47:47Z</time>
      </trkpt>
      <trkpt lat="43.086554" lon="-2.215148">
        <ele>704.261</ele>
        <time>2021-03-21T10:47:49Z</time>
      </trkpt>
      <trkpt lat="43.086559" lon="-2.215193">
        <ele>704.717</ele>
        <time>2021-03-21T10:47:51Z</time>
      </trkpt>
      <trkpt lat="43.086562" lon="-2.215235">
        <ele>705.108</ele>
        <time>2021-03-21T10:47:53Z</time>
      </trkpt>
      <trkpt lat="43.086562" lon="-2.215280">
        <ele>705.474</ele>
        <time>2021-03-21T10:47:55Z</time>
      </trkpt>
      <trkpt lat="43.086568" lon="-2.215324">
        <ele>705.617</ele>
        <time>2021-03-21T10:47:57Z</time>
      </trkpt>
      <trkpt lat="43.086574" lon="-2.215365">
        <ele>705.970</ele>
        <time>2021-03-21T10:47:59Z</time>
      </trkpt>
      <trkpt lat="43.086582" lon="-2.215409">
        <ele>706.261</ele>
        <time>2021-03-21T10:48:01Z</time>
      </trkpt>
      <trkpt lat="43.086590" lon="-2.215455">
        <ele>706.468</ele>
        <time>2021-03-21T10:48:03Z</time>
      </trkpt>
      <trkpt lat="43.086596" lon="-2.215499">
        <ele>706.626</ele>
        <time>2021-03-21T10:48:05Z</time>
      </trkpt>
      <trkpt lat="43.086608" lon="-2.215543">
        <ele>706.966</ele>
        <time>2021-03-21T10:48:07Z</time>
      </trkpt>
      <trkpt lat="43.086620" lon="-2.215586">
        <ele>706.996</ele>
        <time>2021-03-21T10:48:09Z</time>
      </trkpt>
      <trkpt lat="43.086631" lon="-2.215630">
        <ele>706.816</ele>
        <time>2021-03-21T10:48:11Z</time>
      </trkpt>
      <trkpt lat="43.086645" lon="-2.215670">
        <ele>706.876</ele>
        <time>2021-03-21T10:48:13Z</time>
      </trkpt>
      <trkpt lat="43.086657" lon="-2.215713">
        <ele>706.713</ele>
        <time>2021-03-21T10:48:15Z</time>
      </trkpt>
      <trkpt lat="43.086673" lon="-2.215755">
        <ele>706.608</ele>
        <time>2021-03-21T10:48:17Z</time>
      </trkpt>
      <trkpt lat="43.086691" lon="-2.215798">
        <ele>706.417</ele>
        <time>2021-03-21T10:48:19Z</time>
      </trkpt>
      <trkpt lat="43.086703" lon="-2.215824">
        <ele>706.310</ele>
        <time>2021-03-21T10:48:20Z</time>
      </trkpt>
      <trkpt lat="43.086715" lon="-2.215852">
        <ele>706.293</ele>
        <time>2021-03-21T10:48:21Z</time>
      </trkpt>
      <trkpt lat="43.086726" lon="-2.215880">
        <ele>706.264</ele>
        <time>2021-03-21T10:48:22Z</time>
      </trkpt>
      <trkpt lat="43.086738" lon="-2.215909">
        <ele>706.111</ele>
        <time>2021-03-21T10:48:23Z</time>
      </trkpt>
      <trkpt lat="43.086750" lon="-2.215939">
        <ele>706.199</ele>
        <time>2021-03-21T10:48:24Z</time>
      </trkpt>
      <trkpt lat="43.086762" lon="-2.215969">
        <ele>706.029</ele>
        <time>2021-03-21T10:48:25Z</time>
      </trkpt>
      <trkpt lat="43.086793" lon="-2.216025">
        <ele>706.289</ele>
        <time>2021-03-21T10:48:26Z</time>
      </trkpt>
      <trkpt lat="43.086809" lon="-2.216050">
        <ele>706.363</ele>
        <time>2021-03-21T10:48:28Z</time>
      </trkpt>
      <trkpt lat="43.086824" lon="-2.216076">
        <ele>706.444</ele>
        <time>2021-03-21T10:48:29Z</time>
      </trkpt>
      <trkpt lat="43.086840" lon="-2.216099">
        <ele>706.518</ele>
        <time>2021-03-21T10:48:30Z</time>
      </trkpt>
      <trkpt lat="43.086857" lon="-2.216122">
        <ele>706.708</ele>
        <time>2021-03-21T10:48:31Z</time>
      </trkpt>
      <trkpt lat="43.086872" lon="-2.216145">
        <ele>707.092</ele>
        <time>2021-03-21T10:48:32Z</time>
      </trkpt>
      <trkpt lat="43.086886" lon="-2.216169">
        <ele>707.235</ele>
        <time>2021-03-21T10:48:33Z</time>
      </trkpt>
      <trkpt lat="43.086901" lon="-2.216193">
        <ele>707.548</ele>
        <time>2021-03-21T10:48:34Z</time>
      </trkpt>
      <trkpt lat="43.086916" lon="-2.216217">
        <ele>707.889</ele>
        <time>2021-03-21T10:48:35Z</time>
      </trkpt>
      <trkpt lat="43.086930" lon="-2.216240">
        <ele>708.276</ele>
        <time>2021-03-21T10:48:36Z</time>
      </trkpt>
      <trkpt lat="43.086943" lon="-2.216266">
        <ele>708.514</ele>
        <time>2021-03-21T10:48:37Z</time>
      </trkpt>
      <trkpt lat="43.086956" lon="-2.216292">
        <ele>708.684</ele>
        <time>2021-03-21T10:48:38Z</time>
      </trkpt>
      <trkpt lat="43.086970" lon="-2.216320">
        <ele>708.744</ele>
        <time>2021-03-21T10:48:39Z</time>
      </trkpt>
      <trkpt lat="43.086984" lon="-2.216345">
        <ele>708.864</ele>
        <time>2021-03-21T10:48:40Z</time>
      </trkpt>
      <trkpt lat="43.086995" lon="-2.216368">
        <ele>708.906</ele>
        <time>2021-03-21T10:48:41Z</time>
      </trkpt>
      <trkpt lat="43.087007" lon="-2.216392">
        <ele>709.016</ele>
        <time>2021-03-21T10:48:42Z</time>
      </trkpt>
      <trkpt lat="43.087020" lon="-2.216414">
        <ele>709.208</ele>
        <time>2021-03-21T10:48:43Z</time>
      </trkpt>
      <trkpt lat="43.087031" lon="-2.216435">
        <ele>709.492</ele>
        <time>2021-03-21T10:48:44Z</time>
      </trkpt>
      <trkpt lat="43.087043" lon="-2.216458">
        <ele>709.745</ele>
        <time>2021-03-21T10:48:45Z</time>
      </trkpt>
      <trkpt lat="43.087055" lon="-2.216482">
        <ele>709.998</ele>
        <time>2021-03-21T10:48:46Z</time>
      </trkpt>
      <trkpt lat="43.087064" lon="-2.216505">
        <ele>710.299</ele>
        <time>2021-03-21T10:48:47Z</time>
      </trkpt>
      <trkpt lat="43.087076" lon="-2.216530">
        <ele>710.516</ele>
        <time>2021-03-21T10:48:48Z</time>
      </trkpt>
      <trkpt lat="43.087086" lon="-2.216555">
        <ele>710.884</ele>
        <time>2021-03-21T10:48:49Z</time>
      </trkpt>
      <trkpt lat="43.087106" lon="-2.216602">
        <ele>711.464</ele>
        <time>2021-03-21T10:48:51Z</time>
      </trkpt>
      <trkpt lat="43.087117" lon="-2.216628">
        <ele>711.834</ele>
        <time>2021-03-21T10:48:52Z</time>
      </trkpt>
      <trkpt lat="43.087133" lon="-2.216674">
        <ele>712.549</ele>
        <time>2021-03-21T10:48:54Z</time>
      </trkpt>
      <trkpt lat="43.087141" lon="-2.216700">
        <ele>712.902</ele>
        <time>2021-03-21T10:48:55Z</time>
      </trkpt>
      <trkpt lat="43.087154" lon="-2.216741">
        <ele>713.622</ele>
        <time>2021-03-21T10:48:57Z</time>
      </trkpt>
      <trkpt lat="43.087166" lon="-2.216772">
        <ele>714.108</ele>
        <time>2021-03-21T10:48:59Z</time>
      </trkpt>
      <trkpt lat="43.087177" lon="-2.216802">
        <ele>714.640</ele>
        <time>2021-03-21T10:49:01Z</time>
      </trkpt>
      <trkpt lat="43.087186" lon="-2.216836">
        <ele>715.263</ele>
        <time>2021-03-21T10:49:03Z</time>
      </trkpt>
      <trkpt lat="43.087200" lon="-2.216876">
        <ele>715.996</ele>
        <time>2021-03-21T10:49:05Z</time>
      </trkpt>
      <trkpt lat="43.087214" lon="-2.216918">
        <ele>716.617</ele>
        <time>2021-03-21T10:49:07Z</time>
      </trkpt>
      <trkpt lat="43.087222" lon="-2.216941">
        <ele>716.964</ele>
        <time>2021-03-21T10:49:08Z</time>
      </trkpt>
      <trkpt lat="43.087231" lon="-2.216963">
        <ele>717.392</ele>
        <time>2021-03-21T10:49:09Z</time>
      </trkpt>
      <trkpt lat="43.087241" lon="-2.216985">
        <ele>717.662</ele>
        <time>2021-03-21T10:49:10Z</time>
      </trkpt>
      <trkpt lat="43.087252" lon="-2.217007">
        <ele>717.952</ele>
        <time>2021-03-21T10:49:11Z</time>
      </trkpt>
      <trkpt lat="43.087261" lon="-2.217030">
        <ele>718.333</ele>
        <time>2021-03-21T10:49:12Z</time>
      </trkpt>
      <trkpt lat="43.087270" lon="-2.217054">
        <ele>718.723</ele>
        <time>2021-03-21T10:49:13Z</time>
      </trkpt>
      <trkpt lat="43.087279" lon="-2.217077">
        <ele>719.115</ele>
        <time>2021-03-21T10:49:14Z</time>
      </trkpt>
      <trkpt lat="43.087287" lon="-2.217099">
        <ele>719.408</ele>
        <time>2021-03-21T10:49:15Z</time>
      </trkpt>
      <trkpt lat="43.087301" lon="-2.217136">
        <ele>720.169</ele>
        <time>2021-03-21T10:49:17Z</time>
      </trkpt>
      <trkpt lat="43.087312" lon="-2.217170">
        <ele>720.722</ele>
        <time>2021-03-21T10:49:20Z</time>
      </trkpt>
      <trkpt lat="43.087317" lon="-2.217194">
        <ele>721.175</ele>
        <time>2021-03-21T10:49:22Z</time>
      </trkpt>
      <trkpt lat="43.087324" lon="-2.217222">
        <ele>721.626</ele>
        <time>2021-03-21T10:49:25Z</time>
      </trkpt>
      <trkpt lat="43.087332" lon="-2.217247">
        <ele>722.053</ele>
        <time>2021-03-21T10:49:27Z</time>
      </trkpt>
      <trkpt lat="43.087346" lon="-2.217269">
        <ele>722.321</ele>
        <time>2021-03-21T10:49:29Z</time>
      </trkpt>
      <trkpt lat="43.087371" lon="-2.217286">
        <ele>722.541</ele>
        <time>2021-03-21T10:49:32Z</time>
      </trkpt>
      <trkpt lat="43.087383" lon="-2.217309">
        <ele>722.951</ele>
        <time>2021-03-21T10:49:34Z</time>
      </trkpt>
      <trkpt lat="43.087395" lon="-2.217335">
        <ele>723.366</ele>
        <time>2021-03-21T10:49:36Z</time>
      </trkpt>
      <trkpt lat="43.087401" lon="-2.217365">
        <ele>723.729</ele>
        <time>2021-03-21T10:49:38Z</time>
      </trkpt>
      <trkpt lat="43.087406" lon="-2.217388">
        <ele>724.121</ele>
        <time>2021-03-21T10:49:40Z</time>
      </trkpt>
      <trkpt lat="43.087414" lon="-2.217418">
        <ele>724.608</ele>
        <time>2021-03-21T10:49:42Z</time>
      </trkpt>
      <trkpt lat="43.087419" lon="-2.217448">
        <ele>725.122</ele>
        <time>2021-03-21T10:49:44Z</time>
      </trkpt>
      <trkpt lat="43.087428" lon="-2.217473">
        <ele>725.545</ele>
        <time>2021-03-21T10:49:46Z</time>
      </trkpt>
      <trkpt lat="43.087438" lon="-2.217504">
        <ele>726.138</ele>
        <time>2021-03-21T10:49:48Z</time>
      </trkpt>
      <trkpt lat="43.087442" lon="-2.217534">
        <ele>726.659</ele>
        <time>2021-03-21T10:49:50Z</time>
      </trkpt>
      <trkpt lat="43.087448" lon="-2.217566">
        <ele>727.226</ele>
        <time>2021-03-21T10:49:52Z</time>
      </trkpt>
      <trkpt lat="43.087454" lon="-2.217596">
        <ele>727.714</ele>
        <time>2021-03-21T10:49:54Z</time>
      </trkpt>
      <trkpt lat="43.087461" lon="-2.217624">
        <ele>728.264</ele>
        <time>2021-03-21T10:49:56Z</time>
      </trkpt>
      <trkpt lat="43.087467" lon="-2.217654">
        <ele>728.884</ele>
        <time>2021-03-21T10:49:58Z</time>
      </trkpt>
      <trkpt lat="43.087475" lon="-2.217684">
        <ele>729.351</ele>
        <time>2021-03-21T10:50:00Z</time>
      </trkpt>
      <trkpt lat="43.087480" lon="-2.217713">
        <ele>729.801</ele>
        <time>2021-03-21T10:50:02Z</time>
      </trkpt>
      <trkpt lat="43.087484" lon="-2.217744">
        <ele>730.411</ele>
        <time>2021-03-21T10:50:04Z</time>
      </trkpt>
      <trkpt lat="43.087489" lon="-2.217775">
        <ele>731.008</ele>
        <time>2021-03-21T10:50:06Z</time>
      </trkpt>
      <trkpt lat="43.087491" lon="-2.217806">
        <ele>731.461</ele>
        <time>2021-03-21T10:50:08Z</time>
      </trkpt>
      <trkpt lat="43.087503" lon="-2.217836">
        <ele>731.874</ele>
        <time>2021-03-21T10:50:10Z</time>
      </trkpt>
      <trkpt lat="43.087511" lon="-2.217862">
        <ele>732.017</ele>
        <time>2021-03-21T10:50:12Z</time>
      </trkpt>
      <trkpt lat="43.087514" lon="-2.217894">
        <ele>732.428</ele>
        <time>2021-03-21T10:50:14Z</time>
      </trkpt>
      <trkpt lat="43.087520" lon="-2.217923">
        <ele>732.725</ele>
        <time>2021-03-21T10:50:16Z</time>
      </trkpt>
      <trkpt lat="43.087528" lon="-2.217954">
        <ele>733.023</ele>
        <time>2021-03-21T10:50:18Z</time>
      </trkpt>
      <trkpt lat="43.087543" lon="-2.217981">
        <ele>733.243</ele>
        <time>2021-03-21T10:50:20Z</time>
      </trkpt>
      <trkpt lat="43.087560" lon="-2.218012">
        <ele>733.393</ele>
        <time>2021-03-21T10:50:22Z</time>
      </trkpt>
      <trkpt lat="43.087581" lon="-2.218039">
        <ele>733.357</ele>
        <time>2021-03-21T10:50:24Z</time>
      </trkpt>
      <trkpt lat="43.087600" lon="-2.218064">
        <ele>733.400</ele>
        <time>2021-03-21T10:50:26Z</time>
      </trkpt>
      <trkpt lat="43.087617" lon="-2.218089">
        <ele>733.520</ele>
        <time>2021-03-21T10:50:28Z</time>
      </trkpt>
      <trkpt lat="43.087634" lon="-2.218116">
        <ele>733.808</ele>
        <time>2021-03-21T10:50:30Z</time>
      </trkpt>
      <trkpt lat="43.087650" lon="-2.218148">
        <ele>734.111</ele>
        <time>2021-03-21T10:50:32Z</time>
      </trkpt>
      <trkpt lat="43.087668" lon="-2.218179">
        <ele>734.544</ele>
        <time>2021-03-21T10:50:34Z</time>
      </trkpt>
      <trkpt lat="43.087682" lon="-2.218209">
        <ele>734.887</ele>
        <time>2021-03-21T10:50:36Z</time>
      </trkpt>
      <trkpt lat="43.087698" lon="-2.218240">
        <ele>735.258</ele>
        <time>2021-03-21T10:50:38Z</time>
      </trkpt>
      <trkpt lat="43.087714" lon="-2.218269">
        <ele>735.675</ele>
        <time>2021-03-21T10:50:40Z</time>
      </trkpt>
      <trkpt lat="43.087737" lon="-2.218293">
        <ele>735.763</ele>
        <time>2021-03-21T10:50:42Z</time>
      </trkpt>
      <trkpt lat="43.087751" lon="-2.218321">
        <ele>736.123</ele>
        <time>2021-03-21T10:50:44Z</time>
      </trkpt>
      <trkpt lat="43.087765" lon="-2.218348">
        <ele>736.483</ele>
        <time>2021-03-21T10:50:46Z</time>
      </trkpt>
      <trkpt lat="43.087780" lon="-2.218363">
        <ele>736.513</ele>
        <time>2021-03-21T10:50:48Z</time>
      </trkpt>
      <trkpt lat="43.087789" lon="-2.218382">
        <ele>736.543</ele>
        <time>2021-03-21T10:50:50Z</time>
      </trkpt>
      <trkpt lat="43.087804" lon="-2.218414">
        <ele>736.707</ele>
        <time>2021-03-21T10:50:52Z</time>
      </trkpt>
      <trkpt lat="43.087817" lon="-2.218449">
        <ele>737.008</ele>
        <time>2021-03-21T10:50:54Z</time>
      </trkpt>
      <trkpt lat="43.087835" lon="-2.218477">
        <ele>737.187</ele>
        <time>2021-03-21T10:50:56Z</time>
      </trkpt>
      <trkpt lat="43.087855" lon="-2.218503">
        <ele>737.140</ele>
        <time>2021-03-21T10:50:58Z</time>
      </trkpt>
      <trkpt lat="43.087871" lon="-2.218529">
        <ele>737.253</ele>
        <time>2021-03-21T10:51:00Z</time>
      </trkpt>
      <trkpt lat="43.087888" lon="-2.218559">
        <ele>737.584</ele>
        <time>2021-03-21T10:51:02Z</time>
      </trkpt>
      <trkpt lat="43.087904" lon="-2.218589">
        <ele>737.851</ele>
        <time>2021-03-21T10:51:04Z</time>
      </trkpt>
      <trkpt lat="43.087923" lon="-2.218616">
        <ele>738.049</ele>
        <time>2021-03-21T10:51:06Z</time>
      </trkpt>
      <trkpt lat="43.087943" lon="-2.218644">
        <ele>738.219</ele>
        <time>2021-03-21T10:51:08Z</time>
      </trkpt>
      <trkpt lat="43.087961" lon="-2.218669">
        <ele>738.429</ele>
        <time>2021-03-21T10:51:10Z</time>
      </trkpt>
      <trkpt lat="43.087981" lon="-2.218693">
        <ele>738.632</ele>
        <time>2021-03-21T10:51:12Z</time>
      </trkpt>
      <trkpt lat="43.088002" lon="-2.218718">
        <ele>738.892</ele>
        <time>2021-03-21T10:51:14Z</time>
      </trkpt>
      <trkpt lat="43.088021" lon="-2.218739">
        <ele>738.911</ele>
        <time>2021-03-21T10:51:16Z</time>
      </trkpt>
      <trkpt lat="43.088046" lon="-2.218764">
        <ele>739.008</ele>
        <time>2021-03-21T10:51:18Z</time>
      </trkpt>
      <trkpt lat="43.088064" lon="-2.218792">
        <ele>739.389</ele>
        <time>2021-03-21T10:51:20Z</time>
      </trkpt>
      <trkpt lat="43.088068" lon="-2.218820">
        <ele>739.942</ele>
        <time>2021-03-21T10:51:23Z</time>
      </trkpt>
      <trkpt lat="43.088082" lon="-2.218841">
        <ele>740.075</ele>
        <time>2021-03-21T10:51:25Z</time>
      </trkpt>
      <trkpt lat="43.088096" lon="-2.218862">
        <ele>740.146</ele>
        <time>2021-03-21T10:51:26Z</time>
      </trkpt>
      <trkpt lat="43.088115" lon="-2.218886">
        <ele>740.263</ele>
        <time>2021-03-21T10:51:27Z</time>
      </trkpt>
      <trkpt lat="43.088137" lon="-2.218909">
        <ele>740.051</ele>
        <time>2021-03-21T10:51:28Z</time>
      </trkpt>
      <trkpt lat="43.088157" lon="-2.218929">
        <ele>739.911</ele>
        <time>2021-03-21T10:51:29Z</time>
      </trkpt>
      <trkpt lat="43.088177" lon="-2.218947">
        <ele>739.651</ele>
        <time>2021-03-21T10:51:30Z</time>
      </trkpt>
      <trkpt lat="43.088196" lon="-2.218959">
        <ele>739.336</ele>
        <time>2021-03-21T10:51:31Z</time>
      </trkpt>
      <trkpt lat="43.088211" lon="-2.218973">
        <ele>739.217</ele>
        <time>2021-03-21T10:51:32Z</time>
      </trkpt>
      <trkpt lat="43.088218" lon="-2.218996">
        <ele>739.518</ele>
        <time>2021-03-21T10:51:34Z</time>
      </trkpt>
      <trkpt lat="43.088230" lon="-2.219023">
        <ele>739.708</ele>
        <time>2021-03-21T10:51:36Z</time>
      </trkpt>
      <trkpt lat="43.088250" lon="-2.219055">
        <ele>739.829</ele>
        <time>2021-03-21T10:51:38Z</time>
      </trkpt>
      <trkpt lat="43.088264" lon="-2.219076">
        <ele>739.922</ele>
        <time>2021-03-21T10:51:39Z</time>
      </trkpt>
      <trkpt lat="43.088277" lon="-2.219107">
        <ele>740.225</ele>
        <time>2021-03-21T10:51:41Z</time>
      </trkpt>
      <trkpt lat="43.088272" lon="-2.219136">
        <ele>740.996</ele>
        <time>2021-03-21T10:51:44Z</time>
      </trkpt>
      <trkpt lat="43.088274" lon="-2.219168">
        <ele>741.513</ele>
        <time>2021-03-21T10:51:49Z</time>
      </trkpt>
      <trkpt lat="43.088297" lon="-2.219195">
        <ele>741.321</ele>
        <time>2021-03-21T10:51:51Z</time>
      </trkpt>
      <trkpt lat="43.088312" lon="-2.219212">
        <ele>741.261</ele>
        <time>2021-03-21T10:51:52Z</time>
      </trkpt>
      <trkpt lat="43.088325" lon="-2.219228">
        <ele>741.141</ele>
        <time>2021-03-21T10:51:53Z</time>
      </trkpt>
      <trkpt lat="43.088344" lon="-2.219264">
        <ele>741.177</ele>
        <time>2021-03-21T10:51:55Z</time>
      </trkpt>
      <trkpt lat="43.088356" lon="-2.219286">
        <ele>741.161</ele>
        <time>2021-03-21T10:51:57Z</time>
      </trkpt>
      <trkpt lat="43.088370" lon="-2.219303">
        <ele>740.927</ele>
        <time>2021-03-21T10:51:59Z</time>
      </trkpt>
      <trkpt lat="43.088390" lon="-2.219338">
        <ele>740.808</ele>
        <time>2021-03-21T10:52:01Z</time>
      </trkpt>
      <trkpt lat="43.088399" lon="-2.219363">
        <ele>740.983</ele>
        <time>2021-03-21T10:52:02Z</time>
      </trkpt>
      <trkpt lat="43.088410" lon="-2.219387">
        <ele>741.096</ele>
        <time>2021-03-21T10:52:03Z</time>
      </trkpt>
      <trkpt lat="43.088424" lon="-2.219414">
        <ele>741.069</ele>
        <time>2021-03-21T10:52:04Z</time>
      </trkpt>
      <trkpt lat="43.088438" lon="-2.219446">
        <ele>741.070</ele>
        <time>2021-03-21T10:52:05Z</time>
      </trkpt>
      <trkpt lat="43.088447" lon="-2.219475">
        <ele>740.987</ele>
        <time>2021-03-21T10:52:06Z</time>
      </trkpt>
      <trkpt lat="43.088456" lon="-2.219504">
        <ele>740.925</ele>
        <time>2021-03-21T10:52:07Z</time>
      </trkpt>
      <trkpt lat="43.088457" lon="-2.219536">
        <ele>741.175</ele>
        <time>2021-03-21T10:52:08Z</time>
      </trkpt>
      <trkpt lat="43.088452" lon="-2.219580">
        <ele>741.685</ele>
        <time>2021-03-21T10:52:10Z</time>
      </trkpt>
      <trkpt lat="43.088447" lon="-2.219605">
        <ele>741.935</ele>
        <time>2021-03-21T10:52:11Z</time>
      </trkpt>
      <trkpt lat="43.088449" lon="-2.219634">
        <ele>742.086</ele>
        <time>2021-03-21T10:52:12Z</time>
      </trkpt>
      <trkpt lat="43.088454" lon="-2.219667">
        <ele>742.114</ele>
        <time>2021-03-21T10:52:13Z</time>
      </trkpt>
      <trkpt lat="43.088461" lon="-2.219700">
        <ele>742.208</ele>
        <time>2021-03-21T10:52:14Z</time>
      </trkpt>
      <trkpt lat="43.088469" lon="-2.219734">
        <ele>742.169</ele>
        <time>2021-03-21T10:52:15Z</time>
      </trkpt>
      <trkpt lat="43.088477" lon="-2.219767">
        <ele>741.962</ele>
        <time>2021-03-21T10:52:16Z</time>
      </trkpt>
      <trkpt lat="43.088487" lon="-2.219800">
        <ele>741.735</ele>
        <time>2021-03-21T10:52:17Z</time>
      </trkpt>
      <trkpt lat="43.088491" lon="-2.219834">
        <ele>741.766</ele>
        <time>2021-03-21T10:52:18Z</time>
      </trkpt>
      <trkpt lat="43.088493" lon="-2.219869">
        <ele>741.793</ele>
        <time>2021-03-21T10:52:19Z</time>
      </trkpt>
      <trkpt lat="43.088498" lon="-2.219937">
        <ele>741.761</ele>
        <time>2021-03-21T10:52:21Z</time>
      </trkpt>
      <trkpt lat="43.088500" lon="-2.219971">
        <ele>741.731</ele>
        <time>2021-03-21T10:52:22Z</time>
      </trkpt>
      <trkpt lat="43.088506" lon="-2.220004">
        <ele>741.631</ele>
        <time>2021-03-21T10:52:23Z</time>
      </trkpt>
      <trkpt lat="43.088511" lon="-2.220037">
        <ele>741.597</ele>
        <time>2021-03-21T10:52:24Z</time>
      </trkpt>
      <trkpt lat="43.088520" lon="-2.220063">
        <ele>741.223</ele>
        <time>2021-03-21T10:52:25Z</time>
      </trkpt>
      <trkpt lat="43.088545" lon="-2.220093">
        <ele>740.625</ele>
        <time>2021-03-21T10:52:27Z</time>
      </trkpt>
      <trkpt lat="43.088565" lon="-2.220103">
        <ele>740.108</ele>
        <time>2021-03-21T10:52:28Z</time>
      </trkpt>
      <trkpt lat="43.088582" lon="-2.220121">
        <ele>739.795</ele>
        <time>2021-03-21T10:52:29Z</time>
      </trkpt>
      <trkpt lat="43.088594" lon="-2.220141">
        <ele>739.438</ele>
        <time>2021-03-21T10:52:30Z</time>
      </trkpt>
      <trkpt lat="43.088611" lon="-2.220187">
        <ele>739.011</ele>
        <time>2021-03-21T10:52:32Z</time>
      </trkpt>
      <trkpt lat="43.088617" lon="-2.220213">
        <ele>738.882</ele>
        <time>2021-03-21T10:52:33Z</time>
      </trkpt>
      <trkpt lat="43.088621" lon="-2.220239">
        <ele>738.799</ele>
        <time>2021-03-21T10:52:34Z</time>
      </trkpt>
      <trkpt lat="43.088626" lon="-2.220272">
        <ele>738.697</ele>
        <time>2021-03-21T10:52:35Z</time>
      </trkpt>
      <trkpt lat="43.088627" lon="-2.220309">
        <ele>738.627</ele>
        <time>2021-03-21T10:52:36Z</time>
      </trkpt>
      <trkpt lat="43.088624" lon="-2.220343">
        <ele>738.747</ele>
        <time>2021-03-21T10:52:37Z</time>
      </trkpt>
      <trkpt lat="43.088627" lon="-2.220378">
        <ele>738.687</ele>
        <time>2021-03-21T10:52:38Z</time>
      </trkpt>
      <trkpt lat="43.088633" lon="-2.220417">
        <ele>738.542</ele>
        <time>2021-03-21T10:52:39Z</time>
      </trkpt>
      <trkpt lat="43.088636" lon="-2.220451">
        <ele>738.426</ele>
        <time>2021-03-21T10:52:40Z</time>
      </trkpt>
      <trkpt lat="43.088640" lon="-2.220491">
        <ele>738.408</ele>
        <time>2021-03-21T10:52:41Z</time>
      </trkpt>
      <trkpt lat="43.088641" lon="-2.220530">
        <ele>738.384</ele>
        <time>2021-03-21T10:52:42Z</time>
      </trkpt>
      <trkpt lat="43.088650" lon="-2.220563">
        <ele>738.277</ele>
        <time>2021-03-21T10:52:43Z</time>
      </trkpt>
      <trkpt lat="43.088660" lon="-2.220632">
        <ele>737.990</ele>
        <time>2021-03-21T10:52:44Z</time>
      </trkpt>
      <trkpt lat="43.088667" lon="-2.220667">
        <ele>737.841</ele>
        <time>2021-03-21T10:52:46Z</time>
      </trkpt>
      <trkpt lat="43.088672" lon="-2.220700">
        <ele>737.768</ele>
        <time>2021-03-21T10:52:47Z</time>
      </trkpt>
      <trkpt lat="43.088673" lon="-2.220740">
        <ele>737.766</ele>
        <time>2021-03-21T10:52:48Z</time>
      </trkpt>
      <trkpt lat="43.088674" lon="-2.220775">
        <ele>737.686</ele>
        <time>2021-03-21T10:52:49Z</time>
      </trkpt>
      <trkpt lat="43.088673" lon="-2.220808">
        <ele>737.756</ele>
        <time>2021-03-21T10:52:50Z</time>
      </trkpt>
      <trkpt lat="43.088674" lon="-2.220842">
        <ele>737.669</ele>
        <time>2021-03-21T10:52:51Z</time>
      </trkpt>
      <trkpt lat="43.088674" lon="-2.220880">
        <ele>737.304</ele>
        <time>2021-03-21T10:52:52Z</time>
      </trkpt>
      <trkpt lat="43.088676" lon="-2.220916">
        <ele>737.124</ele>
        <time>2021-03-21T10:52:53Z</time>
      </trkpt>
      <trkpt lat="43.088675" lon="-2.220959">
        <ele>736.808</ele>
        <time>2021-03-21T10:52:54Z</time>
      </trkpt>
      <trkpt lat="43.088681" lon="-2.220999">
        <ele>736.492</ele>
        <time>2021-03-21T10:52:55Z</time>
      </trkpt>
      <trkpt lat="43.088685" lon="-2.221041">
        <ele>736.135</ele>
        <time>2021-03-21T10:52:56Z</time>
      </trkpt>
      <trkpt lat="43.088689" lon="-2.221080">
        <ele>735.828</ele>
        <time>2021-03-21T10:52:57Z</time>
      </trkpt>
      <trkpt lat="43.088696" lon="-2.221116">
        <ele>735.589</ele>
        <time>2021-03-21T10:52:58Z</time>
      </trkpt>
      <trkpt lat="43.088702" lon="-2.221156">
        <ele>735.346</ele>
        <time>2021-03-21T10:52:59Z</time>
      </trkpt>
      <trkpt lat="43.088710" lon="-2.221195">
        <ele>735.034</ele>
        <time>2021-03-21T10:53:00Z</time>
      </trkpt>
      <trkpt lat="43.088717" lon="-2.221233">
        <ele>734.844</ele>
        <time>2021-03-21T10:53:01Z</time>
      </trkpt>
      <trkpt lat="43.088728" lon="-2.221272">
        <ele>734.644</ele>
        <time>2021-03-21T10:53:02Z</time>
      </trkpt>
      <trkpt lat="43.088739" lon="-2.221312">
        <ele>734.336</ele>
        <time>2021-03-21T10:53:03Z</time>
      </trkpt>
      <trkpt lat="43.088748" lon="-2.221347">
        <ele>734.117</ele>
        <time>2021-03-21T10:53:04Z</time>
      </trkpt>
      <trkpt lat="43.088754" lon="-2.221384">
        <ele>734.018</ele>
        <time>2021-03-21T10:53:05Z</time>
      </trkpt>
      <trkpt lat="43.088753" lon="-2.221419">
        <ele>733.908</ele>
        <time>2021-03-21T10:53:06Z</time>
      </trkpt>
      <trkpt lat="43.088750" lon="-2.221450">
        <ele>733.849</ele>
        <time>2021-03-21T10:53:07Z</time>
      </trkpt>
      <trkpt lat="43.088746" lon="-2.221478">
        <ele>733.732</ele>
        <time>2021-03-21T10:53:08Z</time>
      </trkpt>
      <trkpt lat="43.088743" lon="-2.221513">
        <ele>733.695</ele>
        <time>2021-03-21T10:53:09Z</time>
      </trkpt>
      <trkpt lat="43.088744" lon="-2.221553">
        <ele>733.516</ele>
        <time>2021-03-21T10:53:10Z</time>
      </trkpt>
      <trkpt lat="43.088744" lon="-2.221592">
        <ele>733.383</ele>
        <time>2021-03-21T10:53:11Z</time>
      </trkpt>
      <trkpt lat="43.088727" lon="-2.221653">
        <ele>733.271</ele>
        <time>2021-03-21T10:53:12Z</time>
      </trkpt>
      <trkpt lat="43.088715" lon="-2.221673">
        <ele>733.251</ele>
        <time>2021-03-21T10:53:14Z</time>
      </trkpt>
      <trkpt lat="43.088700" lon="-2.221692">
        <ele>733.221</ele>
        <time>2021-03-21T10:53:15Z</time>
      </trkpt>
      <trkpt lat="43.088685" lon="-2.221717">
        <ele>733.296</ele>
        <time>2021-03-21T10:53:16Z</time>
      </trkpt>
      <trkpt lat="43.088659" lon="-2.221772">
        <ele>733.031</ele>
        <time>2021-03-21T10:53:18Z</time>
      </trkpt>
      <trkpt lat="43.088646" lon="-2.221801">
        <ele>732.924</ele>
        <time>2021-03-21T10:53:19Z</time>
      </trkpt>
      <trkpt lat="43.088635" lon="-2.221827">
        <ele>732.808</ele>
        <time>2021-03-21T10:53:20Z</time>
      </trkpt>
      <trkpt lat="43.088623" lon="-2.221857">
        <ele>732.675</ele>
        <time>2021-03-21T10:53:21Z</time>
      </trkpt>
      <trkpt lat="43.088611" lon="-2.221890">
        <ele>732.498</ele>
        <time>2021-03-21T10:53:22Z</time>
      </trkpt>
      <trkpt lat="43.088598" lon="-2.221916">
        <ele>732.251</ele>
        <time>2021-03-21T10:53:23Z</time>
      </trkpt>
      <trkpt lat="43.088582" lon="-2.221940">
        <ele>731.952</ele>
        <time>2021-03-21T10:53:24Z</time>
      </trkpt>
      <trkpt lat="43.088567" lon="-2.221969">
        <ele>731.729</ele>
        <time>2021-03-21T10:53:25Z</time>
      </trkpt>
      <trkpt lat="43.088553" lon="-2.221995">
        <ele>731.687</ele>
        <time>2021-03-21T10:53:26Z</time>
      </trkpt>
      <trkpt lat="43.088544" lon="-2.222019">
        <ele>731.437</ele>
        <time>2021-03-21T10:53:27Z</time>
      </trkpt>
      <trkpt lat="43.088538" lon="-2.222051">
        <ele>731.377</ele>
        <time>2021-03-21T10:53:28Z</time>
      </trkpt>
      <trkpt lat="43.088533" lon="-2.222083">
        <ele>731.144</ele>
        <time>2021-03-21T10:53:29Z</time>
      </trkpt>
      <trkpt lat="43.088538" lon="-2.222119">
        <ele>730.905</ele>
        <time>2021-03-21T10:53:30Z</time>
      </trkpt>
      <trkpt lat="43.088545" lon="-2.222154">
        <ele>730.815</ele>
        <time>2021-03-21T10:53:31Z</time>
      </trkpt>
      <trkpt lat="43.088555" lon="-2.222189">
        <ele>730.708</ele>
        <time>2021-03-21T10:53:32Z</time>
      </trkpt>
      <trkpt lat="43.088567" lon="-2.222220">
        <ele>730.750</ele>
        <time>2021-03-21T10:53:33Z</time>
      </trkpt>
      <trkpt lat="43.088586" lon="-2.222243">
        <ele>730.913</ele>
        <time>2021-03-21T10:53:34Z</time>
      </trkpt>
      <trkpt lat="43.088605" lon="-2.222263">
        <ele>731.166</ele>
        <time>2021-03-21T10:53:35Z</time>
      </trkpt>
      <trkpt lat="43.088625" lon="-2.222281">
        <ele>731.337</ele>
        <time>2021-03-21T10:53:36Z</time>
      </trkpt>
      <trkpt lat="43.088644" lon="-2.222298">
        <ele>731.594</ele>
        <time>2021-03-21T10:53:37Z</time>
      </trkpt>
      <trkpt lat="43.088662" lon="-2.222312">
        <ele>731.772</ele>
        <time>2021-03-21T10:53:38Z</time>
      </trkpt>
      <trkpt lat="43.088677" lon="-2.222323">
        <ele>731.852</ele>
        <time>2021-03-21T10:53:39Z</time>
      </trkpt>
      <trkpt lat="43.088695" lon="-2.222336">
        <ele>732.012</ele>
        <time>2021-03-21T10:53:40Z</time>
      </trkpt>
      <trkpt lat="43.088714" lon="-2.222346">
        <ele>732.265</ele>
        <time>2021-03-21T10:53:41Z</time>
      </trkpt>
      <trkpt lat="43.088730" lon="-2.222357">
        <ele>732.368</ele>
        <time>2021-03-21T10:53:42Z</time>
      </trkpt>
      <trkpt lat="43.088751" lon="-2.222370">
        <ele>732.514</ele>
        <time>2021-03-21T10:53:43Z</time>
      </trkpt>
      <trkpt lat="43.088773" lon="-2.222383">
        <ele>732.708</ele>
        <time>2021-03-21T10:53:44Z</time>
      </trkpt>
      <trkpt lat="43.088794" lon="-2.222392">
        <ele>732.982</ele>
        <time>2021-03-21T10:53:45Z</time>
      </trkpt>
      <trkpt lat="43.088815" lon="-2.222400">
        <ele>733.155</ele>
        <time>2021-03-21T10:53:46Z</time>
      </trkpt>
      <trkpt lat="43.088834" lon="-2.222403">
        <ele>733.318</ele>
        <time>2021-03-21T10:53:47Z</time>
      </trkpt>
      <trkpt lat="43.088854" lon="-2.222406">
        <ele>733.429</ele>
        <time>2021-03-21T10:53:48Z</time>
      </trkpt>
      <trkpt lat="43.088876" lon="-2.222408">
        <ele>733.656</ele>
        <time>2021-03-21T10:53:49Z</time>
      </trkpt>
      <trkpt lat="43.088896" lon="-2.222410">
        <ele>733.794</ele>
        <time>2021-03-21T10:53:50Z</time>
      </trkpt>
      <trkpt lat="43.088917" lon="-2.222409">
        <ele>733.784</ele>
        <time>2021-03-21T10:53:51Z</time>
      </trkpt>
      <trkpt lat="43.088936" lon="-2.222409">
        <ele>733.794</ele>
        <time>2021-03-21T10:53:52Z</time>
      </trkpt>
      <trkpt lat="43.088958" lon="-2.222416">
        <ele>733.836</ele>
        <time>2021-03-21T10:53:53Z</time>
      </trkpt>
      <trkpt lat="43.088979" lon="-2.222428">
        <ele>733.917</ele>
        <time>2021-03-21T10:53:54Z</time>
      </trkpt>
      <trkpt lat="43.089000" lon="-2.222441">
        <ele>734.018</ele>
        <time>2021-03-21T10:53:55Z</time>
      </trkpt>
      <trkpt lat="43.089016" lon="-2.222460">
        <ele>734.208</ele>
        <time>2021-03-21T10:53:56Z</time>
      </trkpt>
      <trkpt lat="43.089035" lon="-2.222475">
        <ele>734.369</ele>
        <time>2021-03-21T10:53:57Z</time>
      </trkpt>
      <trkpt lat="43.089053" lon="-2.222489">
        <ele>734.562</ele>
        <time>2021-03-21T10:53:58Z</time>
      </trkpt>
      <trkpt lat="43.089074" lon="-2.222502">
        <ele>734.755</ele>
        <time>2021-03-21T10:53:59Z</time>
      </trkpt>
      <trkpt lat="43.089098" lon="-2.222517">
        <ele>735.086</ele>
        <time>2021-03-21T10:54:00Z</time>
      </trkpt>
      <trkpt lat="43.089118" lon="-2.222528">
        <ele>735.283</ele>
        <time>2021-03-21T10:54:01Z</time>
      </trkpt>
      <trkpt lat="43.089139" lon="-2.222540">
        <ele>735.511</ele>
        <time>2021-03-21T10:54:02Z</time>
      </trkpt>
      <trkpt lat="43.089163" lon="-2.222548">
        <ele>735.771</ele>
        <time>2021-03-21T10:54:03Z</time>
      </trkpt>
      <trkpt lat="43.089186" lon="-2.222552">
        <ele>735.841</ele>
        <time>2021-03-21T10:54:04Z</time>
      </trkpt>
      <trkpt lat="43.089210" lon="-2.222555">
        <ele>735.883</ele>
        <time>2021-03-21T10:54:05Z</time>
      </trkpt>
      <trkpt lat="43.089232" lon="-2.222557">
        <ele>735.925</ele>
        <time>2021-03-21T10:54:06Z</time>
      </trkpt>
      <trkpt lat="43.089253" lon="-2.222557">
        <ele>735.917</ele>
        <time>2021-03-21T10:54:07Z</time>
      </trkpt>
      <trkpt lat="43.089271" lon="-2.222558">
        <ele>735.908</ele>
        <time>2021-03-21T10:54:08Z</time>
      </trkpt>
      <trkpt lat="43.089304" lon="-2.222570">
        <ele>736.164</ele>
        <time>2021-03-21T10:54:10Z</time>
      </trkpt>
      <trkpt lat="43.089336" lon="-2.222580">
        <ele>736.337</ele>
        <time>2021-03-21T10:54:12Z</time>
      </trkpt>
      <trkpt lat="43.089356" lon="-2.222581">
        <ele>736.490</ele>
        <time>2021-03-21T10:54:14Z</time>
      </trkpt>
      <trkpt lat="43.089378" lon="-2.222585">
        <ele>736.531</ele>
        <time>2021-03-21T10:54:16Z</time>
      </trkpt>
      <trkpt lat="43.089412" lon="-2.222598">
        <ele>736.778</ele>
        <time>2021-03-21T10:54:18Z</time>
      </trkpt>
      <trkpt lat="43.089449" lon="-2.222605">
        <ele>736.826</ele>
        <time>2021-03-21T10:54:20Z</time>
      </trkpt>
      <trkpt lat="43.089467" lon="-2.222611">
        <ele>736.846</ele>
        <time>2021-03-21T10:54:21Z</time>
      </trkpt>
      <trkpt lat="43.089501" lon="-2.222634">
        <ele>736.996</ele>
        <time>2021-03-21T10:54:23Z</time>
      </trkpt>
      <trkpt lat="43.089532" lon="-2.222640">
        <ele>736.794</ele>
        <time>2021-03-21T10:54:25Z</time>
      </trkpt>
      <trkpt lat="43.089552" lon="-2.222648">
        <ele>736.757</ele>
        <time>2021-03-21T10:54:26Z</time>
      </trkpt>
      <trkpt lat="43.089567" lon="-2.222664">
        <ele>737.022</ele>
        <time>2021-03-21T10:54:27Z</time>
      </trkpt>
      <trkpt lat="43.089591" lon="-2.222688">
        <ele>737.308</ele>
        <time>2021-03-21T10:54:29Z</time>
      </trkpt>
      <trkpt lat="43.089616" lon="-2.222710">
        <ele>737.765</ele>
        <time>2021-03-21T10:54:31Z</time>
      </trkpt>
      <trkpt lat="43.089636" lon="-2.222728">
        <ele>738.038</ele>
        <time>2021-03-21T10:54:33Z</time>
      </trkpt>
      <trkpt lat="43.089657" lon="-2.222736">
        <ele>738.131</ele>
        <time>2021-03-21T10:54:35Z</time>
      </trkpt>
      <trkpt lat="43.089674" lon="-2.222744">
        <ele>738.332</ele>
        <time>2021-03-21T10:54:37Z</time>
      </trkpt>
      <trkpt lat="43.089690" lon="-2.222756">
        <ele>738.529</ele>
        <time>2021-03-21T10:54:39Z</time>
      </trkpt>
      <trkpt lat="43.089713" lon="-2.222776">
        <ele>739.097</ele>
        <time>2021-03-21T10:54:41Z</time>
      </trkpt>
      <trkpt lat="43.089728" lon="-2.222790">
        <ele>739.337</ele>
        <time>2021-03-21T10:54:42Z</time>
      </trkpt>
      <trkpt lat="43.089753" lon="-2.222800">
        <ele>739.667</ele>
        <time>2021-03-21T10:54:44Z</time>
      </trkpt>
      <trkpt lat="43.089802" lon="-2.222857">
        <ele>741.023</ele>
        <time>2021-03-21T10:54:46Z</time>
      </trkpt>
      <trkpt lat="43.089824" lon="-2.222885">
        <ele>741.783</ele>
        <time>2021-03-21T10:54:49Z</time>
      </trkpt>
      <trkpt lat="43.089851" lon="-2.222909">
        <ele>742.311</ele>
        <time>2021-03-21T10:54:51Z</time>
      </trkpt>
      <trkpt lat="43.089873" lon="-2.222934">
        <ele>742.908</ele>
        <time>2021-03-21T10:54:53Z</time>
      </trkpt>
      <trkpt lat="43.089899" lon="-2.222950">
        <ele>743.338</ele>
        <time>2021-03-21T10:54:55Z</time>
      </trkpt>
      <trkpt lat="43.089926" lon="-2.222961">
        <ele>743.631</ele>
        <time>2021-03-21T10:54:57Z</time>
      </trkpt>
      <trkpt lat="43.089956" lon="-2.222969">
        <ele>743.884</ele>
        <time>2021-03-21T10:54:59Z</time>
      </trkpt>
      <trkpt lat="43.089987" lon="-2.222990">
        <ele>744.375</ele>
        <time>2021-03-21T10:55:01Z</time>
      </trkpt>
      <trkpt lat="43.090005" lon="-2.222996">
        <ele>744.622</ele>
        <time>2021-03-21T10:55:02Z</time>
      </trkpt>
      <trkpt lat="43.090031" lon="-2.222997">
        <ele>745.060</ele>
        <time>2021-03-21T10:55:04Z</time>
      </trkpt>
      <trkpt lat="43.090059" lon="-2.222995">
        <ele>745.480</ele>
        <time>2021-03-21T10:55:06Z</time>
      </trkpt>
      <trkpt lat="43.090087" lon="-2.222992">
        <ele>745.720</ele>
        <time>2021-03-21T10:55:08Z</time>
      </trkpt>
      <trkpt lat="43.090119" lon="-2.222980">
        <ele>745.922</ele>
        <time>2021-03-21T10:55:10Z</time>
      </trkpt>
      <trkpt lat="43.090138" lon="-2.222973">
        <ele>746.162</ele>
        <time>2021-03-21T10:55:11Z</time>
      </trkpt>
      <trkpt lat="43.090169" lon="-2.222959">
        <ele>746.208</ele>
        <time>2021-03-21T10:55:13Z</time>
      </trkpt>
      <trkpt lat="43.090197" lon="-2.222952">
        <ele>746.508</ele>
        <time>2021-03-21T10:55:15Z</time>
      </trkpt>
      <trkpt lat="43.090214" lon="-2.222953">
        <ele>746.828</ele>
        <time>2021-03-21T10:55:16Z</time>
      </trkpt>
      <trkpt lat="43.090237" lon="-2.222949">
        <ele>747.191</ele>
        <time>2021-03-21T10:55:18Z</time>
      </trkpt>
      <trkpt lat="43.090259" lon="-2.222949">
        <ele>747.434</ele>
        <time>2021-03-21T10:55:20Z</time>
      </trkpt>
      <trkpt lat="43.090278" lon="-2.222951">
        <ele>747.735</ele>
        <time>2021-03-21T10:55:22Z</time>
      </trkpt>
      <trkpt lat="43.090301" lon="-2.222947">
        <ele>747.892</ele>
        <time>2021-03-21T10:55:24Z</time>
      </trkpt>
      <trkpt lat="43.090332" lon="-2.222936">
        <ele>747.840</ele>
        <time>2021-03-21T10:55:26Z</time>
      </trkpt>
      <trkpt lat="43.090354" lon="-2.222935">
        <ele>747.970</ele>
        <time>2021-03-21T10:55:27Z</time>
      </trkpt>
      <trkpt lat="43.090374" lon="-2.222936">
        <ele>748.130</ele>
        <time>2021-03-21T10:55:28Z</time>
      </trkpt>
      <trkpt lat="43.090400" lon="-2.222929">
        <ele>748.126</ele>
        <time>2021-03-21T10:55:30Z</time>
      </trkpt>
      <trkpt lat="43.090424" lon="-2.222939">
        <ele>748.547</ele>
        <time>2021-03-21T10:55:32Z</time>
      </trkpt>
      <trkpt lat="43.090444" lon="-2.222937">
        <ele>748.611</ele>
        <time>2021-03-21T10:55:34Z</time>
      </trkpt>
      <trkpt lat="43.090473" lon="-2.222937">
        <ele>748.808</ele>
        <time>2021-03-21T10:55:36Z</time>
      </trkpt>
      <trkpt lat="43.090501" lon="-2.222938">
        <ele>749.118</ele>
        <time>2021-03-21T10:55:38Z</time>
      </trkpt>
      <trkpt lat="43.090523" lon="-2.222948">
        <ele>749.451</ele>
        <time>2021-03-21T10:55:40Z</time>
      </trkpt>
      <trkpt lat="43.090547" lon="-2.222943">
        <ele>749.514</ele>
        <time>2021-03-21T10:55:42Z</time>
      </trkpt>
      <trkpt lat="43.090568" lon="-2.222941">
        <ele>749.495</ele>
        <time>2021-03-21T10:55:44Z</time>
      </trkpt>
      <trkpt lat="43.090586" lon="-2.222939">
        <ele>749.222</ele>
        <time>2021-03-21T10:55:46Z</time>
      </trkpt>
      <trkpt lat="43.090615" lon="-2.222936">
        <ele>748.840</ele>
        <time>2021-03-21T10:55:49Z</time>
      </trkpt>
      <trkpt lat="43.090646" lon="-2.222946">
        <ele>748.720</ele>
        <time>2021-03-21T10:55:51Z</time>
      </trkpt>
      <trkpt lat="43.090733" lon="-2.222980">
        <ele>748.580</ele>
        <time>2021-03-21T10:55:57Z</time>
      </trkpt>
      <trkpt lat="43.090837" lon="-2.223023">
        <ele>748.217</ele>
        <time>2021-03-21T10:56:02Z</time>
      </trkpt>
      <trkpt lat="43.090858" lon="-2.223033">
        <ele>748.087</ele>
        <time>2021-03-21T10:56:03Z</time>
      </trkpt>
      <trkpt lat="43.090878" lon="-2.223043">
        <ele>747.815</ele>
        <time>2021-03-21T10:56:04Z</time>
      </trkpt>
      <trkpt lat="43.090900" lon="-2.223055">
        <ele>747.508</ele>
        <time>2021-03-21T10:56:05Z</time>
      </trkpt>
      <trkpt lat="43.090920" lon="-2.223066">
        <ele>747.417</ele>
        <time>2021-03-21T10:56:06Z</time>
      </trkpt>
      <trkpt lat="43.090938" lon="-2.223077">
        <ele>747.390</ele>
        <time>2021-03-21T10:56:07Z</time>
      </trkpt>
      <trkpt lat="43.090970" lon="-2.223095">
        <ele>747.033</ele>
        <time>2021-03-21T10:56:08Z</time>
      </trkpt>
      <trkpt lat="43.091001" lon="-2.223107">
        <ele>746.674</ele>
        <time>2021-03-21T10:56:11Z</time>
      </trkpt>
      <trkpt lat="43.091023" lon="-2.223110">
        <ele>746.171</ele>
        <time>2021-03-21T10:56:12Z</time>
      </trkpt>
      <trkpt lat="43.091045" lon="-2.223110">
        <ele>745.789</ele>
        <time>2021-03-21T10:56:13Z</time>
      </trkpt>
      <trkpt lat="43.091066" lon="-2.223113">
        <ele>745.229</ele>
        <time>2021-03-21T10:56:14Z</time>
      </trkpt>
      <trkpt lat="43.091090" lon="-2.223114">
        <ele>744.769</ele>
        <time>2021-03-21T10:56:15Z</time>
      </trkpt>
      <trkpt lat="43.091111" lon="-2.223117">
        <ele>744.393</ele>
        <time>2021-03-21T10:56:16Z</time>
      </trkpt>
      <trkpt lat="43.091132" lon="-2.223120">
        <ele>743.665</ele>
        <time>2021-03-21T10:56:17Z</time>
      </trkpt>
      <trkpt lat="43.091176" lon="-2.223127">
        <ele>742.121</ele>
        <time>2021-03-21T10:56:18Z</time>
      </trkpt>
      <trkpt lat="43.091199" lon="-2.223132">
        <ele>741.308</ele>
        <time>2021-03-21T10:56:20Z</time>
      </trkpt>
      <trkpt lat="43.091217" lon="-2.223137">
        <ele>740.725</ele>
        <time>2021-03-21T10:56:21Z</time>
      </trkpt>
      <trkpt lat="43.091234" lon="-2.223153">
        <ele>740.448</ele>
        <time>2021-03-21T10:56:22Z</time>
      </trkpt>
      <trkpt lat="43.091263" lon="-2.223172">
        <ele>739.651</ele>
        <time>2021-03-21T10:56:24Z</time>
      </trkpt>
      <trkpt lat="43.091275" lon="-2.223188">
        <ele>739.422</ele>
        <time>2021-03-21T10:56:25Z</time>
      </trkpt>
      <trkpt lat="43.091297" lon="-2.223212">
        <ele>738.949</ele>
        <time>2021-03-21T10:56:26Z</time>
      </trkpt>
      <trkpt lat="43.091331" lon="-2.223268">
        <ele>738.577</ele>
        <time>2021-03-21T10:56:28Z</time>
      </trkpt>
      <trkpt lat="43.091349" lon="-2.223305">
        <ele>738.327</ele>
        <time>2021-03-21T10:56:30Z</time>
      </trkpt>
      <trkpt lat="43.091356" lon="-2.223326">
        <ele>738.397</ele>
        <time>2021-03-21T10:56:31Z</time>
      </trkpt>
      <trkpt lat="43.091365" lon="-2.223356">
        <ele>738.684</ele>
        <time>2021-03-21T10:56:32Z</time>
      </trkpt>
      <trkpt lat="43.091385" lon="-2.223402">
        <ele>738.907</ele>
        <time>2021-03-21T10:56:33Z</time>
      </trkpt>
      <trkpt lat="43.091409" lon="-2.223440">
        <ele>738.817</ele>
        <time>2021-03-21T10:56:34Z</time>
      </trkpt>
      <trkpt lat="43.091430" lon="-2.223467">
        <ele>738.608</ele>
        <time>2021-03-21T10:56:35Z</time>
      </trkpt>
      <trkpt lat="43.091451" lon="-2.223488">
        <ele>738.224</ele>
        <time>2021-03-21T10:56:36Z</time>
      </trkpt>
      <trkpt lat="43.091473" lon="-2.223512">
        <ele>738.087</ele>
        <time>2021-03-21T10:56:37Z</time>
      </trkpt>
      <trkpt lat="43.091493" lon="-2.223538">
        <ele>737.810</ele>
        <time>2021-03-21T10:56:38Z</time>
      </trkpt>
      <trkpt lat="43.091512" lon="-2.223571">
        <ele>738.051</ele>
        <time>2021-03-21T10:56:40Z</time>
      </trkpt>
      <trkpt lat="43.091537" lon="-2.223604">
        <ele>737.968</ele>
        <time>2021-03-21T10:56:42Z</time>
      </trkpt>
      <trkpt lat="43.091558" lon="-2.223624">
        <ele>737.586</ele>
        <time>2021-03-21T10:56:43Z</time>
      </trkpt>
      <trkpt lat="43.091580" lon="-2.223643">
        <ele>736.956</ele>
        <time>2021-03-21T10:56:44Z</time>
      </trkpt>
      <trkpt lat="43.091599" lon="-2.223661">
        <ele>736.436</ele>
        <time>2021-03-21T10:56:45Z</time>
      </trkpt>
      <trkpt lat="43.091621" lon="-2.223673">
        <ele>735.743</ele>
        <time>2021-03-21T10:56:46Z</time>
      </trkpt>
      <trkpt lat="43.091644" lon="-2.223682">
        <ele>734.964</ele>
        <time>2021-03-21T10:56:47Z</time>
      </trkpt>
      <trkpt lat="43.091670" lon="-2.223699">
        <ele>734.210</ele>
        <time>2021-03-21T10:56:48Z</time>
      </trkpt>
      <trkpt lat="43.091694" lon="-2.223718">
        <ele>733.808</ele>
        <time>2021-03-21T10:56:49Z</time>
      </trkpt>
      <trkpt lat="43.091721" lon="-2.223735">
        <ele>733.230</ele>
        <time>2021-03-21T10:56:50Z</time>
      </trkpt>
      <trkpt lat="43.091744" lon="-2.223748">
        <ele>732.763</ele>
        <time>2021-03-21T10:56:51Z</time>
      </trkpt>
      <trkpt lat="43.091769" lon="-2.223766">
        <ele>732.286</ele>
        <time>2021-03-21T10:56:52Z</time>
      </trkpt>
      <trkpt lat="43.091797" lon="-2.223784">
        <ele>731.647</ele>
        <time>2021-03-21T10:56:53Z</time>
      </trkpt>
      <trkpt lat="43.091825" lon="-2.223803">
        <ele>731.074</ele>
        <time>2021-03-21T10:56:54Z</time>
      </trkpt>
      <trkpt lat="43.091853" lon="-2.223818">
        <ele>730.332</ele>
        <time>2021-03-21T10:56:55Z</time>
      </trkpt>
      <trkpt lat="43.091882" lon="-2.223828">
        <ele>729.552</ele>
        <time>2021-03-21T10:56:56Z</time>
      </trkpt>
      <trkpt lat="43.091935" lon="-2.223848">
        <ele>728.072</ele>
        <time>2021-03-21T10:56:57Z</time>
      </trkpt>
      <trkpt lat="43.091957" lon="-2.223860">
        <ele>727.595</ele>
        <time>2021-03-21T10:56:59Z</time>
      </trkpt>
      <trkpt lat="43.091982" lon="-2.223875">
        <ele>727.149</ele>
        <time>2021-03-21T10:57:00Z</time>
      </trkpt>
      <trkpt lat="43.092005" lon="-2.223890">
        <ele>726.723</ele>
        <time>2021-03-21T10:57:01Z</time>
      </trkpt>
      <trkpt lat="43.092028" lon="-2.223896">
        <ele>726.208</ele>
        <time>2021-03-21T10:57:02Z</time>
      </trkpt>
      <trkpt lat="43.092058" lon="-2.223905">
        <ele>725.525</ele>
        <time>2021-03-21T10:57:03Z</time>
      </trkpt>
      <trkpt lat="43.092085" lon="-2.223913">
        <ele>724.928</ele>
        <time>2021-03-21T10:57:04Z</time>
      </trkpt>
      <trkpt lat="43.092142" lon="-2.223918">
        <ele>723.781</ele>
        <time>2021-03-21T10:57:06Z</time>
      </trkpt>
      <trkpt lat="43.092170" lon="-2.223924">
        <ele>723.012</ele>
        <time>2021-03-21T10:57:07Z</time>
      </trkpt>
      <trkpt lat="43.092196" lon="-2.223933">
        <ele>722.499</ele>
        <time>2021-03-21T10:57:08Z</time>
      </trkpt>
      <trkpt lat="43.092222" lon="-2.223942">
        <ele>721.817</ele>
        <time>2021-03-21T10:57:09Z</time>
      </trkpt>
      <trkpt lat="43.092246" lon="-2.223944">
        <ele>721.557</ele>
        <time>2021-03-21T10:57:10Z</time>
      </trkpt>
      <trkpt lat="43.092271" lon="-2.223946">
        <ele>721.317</ele>
        <time>2021-03-21T10:57:11Z</time>
      </trkpt>
      <trkpt lat="43.092301" lon="-2.223940">
        <ele>721.073</ele>
        <time>2021-03-21T10:57:12Z</time>
      </trkpt>
      <trkpt lat="43.092325" lon="-2.223937">
        <ele>720.785</ele>
        <time>2021-03-21T10:57:13Z</time>
      </trkpt>
      <trkpt lat="43.092348" lon="-2.223935">
        <ele>720.513</ele>
        <time>2021-03-21T10:57:14Z</time>
      </trkpt>
      <trkpt lat="43.092374" lon="-2.223936">
        <ele>720.208</ele>
        <time>2021-03-21T10:57:15Z</time>
      </trkpt>
      <trkpt lat="43.092401" lon="-2.223944">
        <ele>719.973</ele>
        <time>2021-03-21T10:57:16Z</time>
      </trkpt>
      <trkpt lat="43.092425" lon="-2.223952">
        <ele>719.676</ele>
        <time>2021-03-21T10:57:17Z</time>
      </trkpt>
      <trkpt lat="43.092448" lon="-2.223963">
        <ele>719.329</ele>
        <time>2021-03-21T10:57:18Z</time>
      </trkpt>
      <trkpt lat="43.092468" lon="-2.223979">
        <ele>719.070</ele>
        <time>2021-03-21T10:57:19Z</time>
      </trkpt>
      <trkpt lat="43.092486" lon="-2.224002">
        <ele>718.797</ele>
        <time>2021-03-21T10:57:20Z</time>
      </trkpt>
      <trkpt lat="43.092498" lon="-2.224022">
        <ele>718.535</ele>
        <time>2021-03-21T10:57:21Z</time>
      </trkpt>
      <trkpt lat="43.092508" lon="-2.224071">
        <ele>718.455</ele>
        <time>2021-03-21T10:57:22Z</time>
      </trkpt>
      <trkpt lat="43.092511" lon="-2.224100">
        <ele>718.325</ele>
        <time>2021-03-21T10:57:24Z</time>
      </trkpt>
      <trkpt lat="43.092515" lon="-2.224130">
        <ele>718.215</ele>
        <time>2021-03-21T10:57:25Z</time>
      </trkpt>
      <trkpt lat="43.092516" lon="-2.224164">
        <ele>718.165</ele>
        <time>2021-03-21T10:57:26Z</time>
      </trkpt>
      <trkpt lat="43.092514" lon="-2.224197">
        <ele>717.811</ele>
        <time>2021-03-21T10:57:27Z</time>
      </trkpt>
      <trkpt lat="43.092510" lon="-2.224226">
        <ele>717.408</ele>
        <time>2021-03-21T10:57:28Z</time>
      </trkpt>
      <trkpt lat="43.092504" lon="-2.224263">
        <ele>717.087</ele>
        <time>2021-03-21T10:57:29Z</time>
      </trkpt>
      <trkpt lat="43.092505" lon="-2.224300">
        <ele>716.650</ele>
        <time>2021-03-21T10:57:30Z</time>
      </trkpt>
      <trkpt lat="43.092508" lon="-2.224333">
        <ele>716.293</ele>
        <time>2021-03-21T10:57:31Z</time>
      </trkpt>
      <trkpt lat="43.092510" lon="-2.224365">
        <ele>715.934</ele>
        <time>2021-03-21T10:57:32Z</time>
      </trkpt>
      <trkpt lat="43.092515" lon="-2.224404">
        <ele>715.581</ele>
        <time>2021-03-21T10:57:33Z</time>
      </trkpt>
      <trkpt lat="43.092519" lon="-2.224439">
        <ele>715.119</ele>
        <time>2021-03-21T10:57:34Z</time>
      </trkpt>
      <trkpt lat="43.092520" lon="-2.224467">
        <ele>714.889</ele>
        <time>2021-03-21T10:57:35Z</time>
      </trkpt>
      <trkpt lat="43.092515" lon="-2.224500">
        <ele>714.429</ele>
        <time>2021-03-21T10:57:36Z</time>
      </trkpt>
      <trkpt lat="43.092510" lon="-2.224538">
        <ele>714.056</ele>
        <time>2021-03-21T10:57:37Z</time>
      </trkpt>
      <trkpt lat="43.092505" lon="-2.224571">
        <ele>713.659</ele>
        <time>2021-03-21T10:57:38Z</time>
      </trkpt>
      <trkpt lat="43.092502" lon="-2.224605">
        <ele>713.314</ele>
        <time>2021-03-21T10:57:39Z</time>
      </trkpt>
      <trkpt lat="43.092501" lon="-2.224638">
        <ele>712.908</ele>
        <time>2021-03-21T10:57:40Z</time>
      </trkpt>
      <trkpt lat="43.092504" lon="-2.224669">
        <ele>712.611</ele>
        <time>2021-03-21T10:57:41Z</time>
      </trkpt>
      <trkpt lat="43.092507" lon="-2.224698">
        <ele>712.224</ele>
        <time>2021-03-21T10:57:42Z</time>
      </trkpt>
      <trkpt lat="43.092507" lon="-2.224729">
        <ele>711.967</ele>
        <time>2021-03-21T10:57:43Z</time>
      </trkpt>
      <trkpt lat="43.092504" lon="-2.224756">
        <ele>711.458</ele>
        <time>2021-03-21T10:57:44Z</time>
      </trkpt>
      <trkpt lat="43.092499" lon="-2.224780">
        <ele>711.015</ele>
        <time>2021-03-21T10:57:45Z</time>
      </trkpt>
      <trkpt lat="43.092497" lon="-2.224805">
        <ele>710.693</ele>
        <time>2021-03-21T10:57:46Z</time>
      </trkpt>
      <trkpt lat="43.092493" lon="-2.224831">
        <ele>710.283</ele>
        <time>2021-03-21T10:57:47Z</time>
      </trkpt>
      <trkpt lat="43.092488" lon="-2.224866">
        <ele>709.663</ele>
        <time>2021-03-21T10:57:48Z</time>
      </trkpt>
      <trkpt lat="43.092483" lon="-2.224901">
        <ele>709.131</ele>
        <time>2021-03-21T10:57:49Z</time>
      </trkpt>
      <trkpt lat="43.092478" lon="-2.224936">
        <ele>708.661</ele>
        <time>2021-03-21T10:57:50Z</time>
      </trkpt>
      <trkpt lat="43.092472" lon="-2.224972">
        <ele>708.107</ele>
        <time>2021-03-21T10:57:51Z</time>
      </trkpt>
      <trkpt lat="43.092464" lon="-2.225014">
        <ele>707.508</ele>
        <time>2021-03-21T10:57:52Z</time>
      </trkpt>
      <trkpt lat="43.092452" lon="-2.225047">
        <ele>707.179</ele>
        <time>2021-03-21T10:57:53Z</time>
      </trkpt>
      <trkpt lat="43.092434" lon="-2.225074">
        <ele>706.912</ele>
        <time>2021-03-21T10:57:54Z</time>
      </trkpt>
      <trkpt lat="43.092416" lon="-2.225101">
        <ele>706.715</ele>
        <time>2021-03-21T10:57:55Z</time>
      </trkpt>
      <trkpt lat="43.092399" lon="-2.225137">
        <ele>706.456</ele>
        <time>2021-03-21T10:57:56Z</time>
      </trkpt>
      <trkpt lat="43.092389" lon="-2.225174">
        <ele>705.913</ele>
        <time>2021-03-21T10:57:57Z</time>
      </trkpt>
      <trkpt lat="43.092381" lon="-2.225208">
        <ele>705.411</ele>
        <time>2021-03-21T10:57:58Z</time>
      </trkpt>
      <trkpt lat="43.092371" lon="-2.225240">
        <ele>705.031</ele>
        <time>2021-03-21T10:57:59Z</time>
      </trkpt>
      <trkpt lat="43.092362" lon="-2.225273">
        <ele>704.691</ele>
        <time>2021-03-21T10:58:00Z</time>
      </trkpt>
      <trkpt lat="43.092352" lon="-2.225306">
        <ele>704.291</ele>
        <time>2021-03-21T10:58:01Z</time>
      </trkpt>
      <trkpt lat="43.092344" lon="-2.225340">
        <ele>703.781</ele>
        <time>2021-03-21T10:58:02Z</time>
      </trkpt>
      <trkpt lat="43.092333" lon="-2.225375">
        <ele>703.219</ele>
        <time>2021-03-21T10:58:03Z</time>
      </trkpt>
      <trkpt lat="43.092325" lon="-2.225411">
        <ele>702.708</ele>
        <time>2021-03-21T10:58:04Z</time>
      </trkpt>
      <trkpt lat="43.092317" lon="-2.225447">
        <ele>702.225</ele>
        <time>2021-03-21T10:58:05Z</time>
      </trkpt>
      <trkpt lat="43.092311" lon="-2.225489">
        <ele>701.418</ele>
        <time>2021-03-21T10:58:06Z</time>
      </trkpt>
      <trkpt lat="43.092302" lon="-2.225526">
        <ele>700.911</ele>
        <time>2021-03-21T10:58:07Z</time>
      </trkpt>
      <trkpt lat="43.092292" lon="-2.225557">
        <ele>700.592</ele>
        <time>2021-03-21T10:58:08Z</time>
      </trkpt>
      <trkpt lat="43.092282" lon="-2.225587">
        <ele>700.089</ele>
        <time>2021-03-21T10:58:09Z</time>
      </trkpt>
      <trkpt lat="43.092270" lon="-2.225619">
        <ele>699.637</ele>
        <time>2021-03-21T10:58:10Z</time>
      </trkpt>
      <trkpt lat="43.092256" lon="-2.225652">
        <ele>699.137</ele>
        <time>2021-03-21T10:58:11Z</time>
      </trkpt>
      <trkpt lat="43.092237" lon="-2.225683">
        <ele>698.967</ele>
        <time>2021-03-21T10:58:12Z</time>
      </trkpt>
      <trkpt lat="43.092216" lon="-2.225713">
        <ele>698.813</ele>
        <time>2021-03-21T10:58:13Z</time>
      </trkpt>
      <trkpt lat="43.092202" lon="-2.225745">
        <ele>698.543</ele>
        <time>2021-03-21T10:58:14Z</time>
      </trkpt>
      <trkpt lat="43.092188" lon="-2.225776">
        <ele>698.307</ele>
        <time>2021-03-21T10:58:15Z</time>
      </trkpt>
      <trkpt lat="43.092173" lon="-2.225807">
        <ele>698.108</ele>
        <time>2021-03-21T10:58:16Z</time>
      </trkpt>
      <trkpt lat="43.092158" lon="-2.225840">
        <ele>697.987</ele>
        <time>2021-03-21T10:58:17Z</time>
      </trkpt>
      <trkpt lat="43.092143" lon="-2.225872">
        <ele>697.790</ele>
        <time>2021-03-21T10:58:18Z</time>
      </trkpt>
      <trkpt lat="43.092130" lon="-2.225909">
        <ele>697.493</ele>
        <time>2021-03-21T10:58:19Z</time>
      </trkpt>
      <trkpt lat="43.092119" lon="-2.225949">
        <ele>696.884</ele>
        <time>2021-03-21T10:58:20Z</time>
      </trkpt>
      <trkpt lat="43.092110" lon="-2.225989">
        <ele>696.371</ele>
        <time>2021-03-21T10:58:21Z</time>
      </trkpt>
      <trkpt lat="43.092103" lon="-2.226033">
        <ele>695.569</ele>
        <time>2021-03-21T10:58:22Z</time>
      </trkpt>
      <trkpt lat="43.092093" lon="-2.226074">
        <ele>695.089</ele>
        <time>2021-03-21T10:58:23Z</time>
      </trkpt>
      <trkpt lat="43.092085" lon="-2.226112">
        <ele>694.439</ele>
        <time>2021-03-21T10:58:24Z</time>
      </trkpt>
      <trkpt lat="43.092076" lon="-2.226153">
        <ele>694.291</ele>
        <time>2021-03-21T10:58:25Z</time>
      </trkpt>
      <trkpt lat="43.092072" lon="-2.226196">
        <ele>693.881</ele>
        <time>2021-03-21T10:58:26Z</time>
      </trkpt>
      <trkpt lat="43.092061" lon="-2.226234">
        <ele>693.719</ele>
        <time>2021-03-21T10:58:27Z</time>
      </trkpt>
      <trkpt lat="43.092052" lon="-2.226273">
        <ele>693.508</ele>
        <time>2021-03-21T10:58:28Z</time>
      </trkpt>
      <trkpt lat="43.092041" lon="-2.226311">
        <ele>693.575</ele>
        <time>2021-03-21T10:58:29Z</time>
      </trkpt>
      <trkpt lat="43.092033" lon="-2.226349">
        <ele>693.378</ele>
        <time>2021-03-21T10:58:30Z</time>
      </trkpt>
      <trkpt lat="43.092026" lon="-2.226388">
        <ele>693.151</ele>
        <time>2021-03-21T10:58:31Z</time>
      </trkpt>
      <trkpt lat="43.092018" lon="-2.226426">
        <ele>693.062</ele>
        <time>2021-03-21T10:58:32Z</time>
      </trkpt>
      <trkpt lat="43.092010" lon="-2.226459">
        <ele>693.059</ele>
        <time>2021-03-21T10:58:33Z</time>
      </trkpt>
      <trkpt lat="43.092002" lon="-2.226488">
        <ele>693.137</ele>
        <time>2021-03-21T10:58:34Z</time>
      </trkpt>
      <trkpt lat="43.092001" lon="-2.226524">
        <ele>692.867</ele>
        <time>2021-03-21T10:58:35Z</time>
      </trkpt>
      <trkpt lat="43.092006" lon="-2.226560">
        <ele>692.367</ele>
        <time>2021-03-21T10:58:36Z</time>
      </trkpt>
      <trkpt lat="43.092010" lon="-2.226589">
        <ele>691.989</ele>
        <time>2021-03-21T10:58:37Z</time>
      </trkpt>
      <trkpt lat="43.092011" lon="-2.226624">
        <ele>691.506</ele>
        <time>2021-03-21T10:58:38Z</time>
      </trkpt>
      <trkpt lat="43.092012" lon="-2.226656">
        <ele>691.226</ele>
        <time>2021-03-21T10:58:39Z</time>
      </trkpt>
      <trkpt lat="43.092000" lon="-2.226711">
        <ele>691.208</ele>
        <time>2021-03-21T10:58:41Z</time>
      </trkpt>
      <trkpt lat="43.091993" lon="-2.226742">
        <ele>691.184</ele>
        <time>2021-03-21T10:58:42Z</time>
      </trkpt>
      <trkpt lat="43.091970" lon="-2.226784">
        <ele>691.777</ele>
        <time>2021-03-21T10:58:44Z</time>
      </trkpt>
      <trkpt lat="43.091959" lon="-2.226815">
        <ele>691.850</ele>
        <time>2021-03-21T10:58:45Z</time>
      </trkpt>
      <trkpt lat="43.091949" lon="-2.226838">
        <ele>692.081</ele>
        <time>2021-03-21T10:58:46Z</time>
      </trkpt>
      <trkpt lat="43.091933" lon="-2.226861">
        <ele>692.268</ele>
        <time>2021-03-21T10:58:47Z</time>
      </trkpt>
      <trkpt lat="43.091918" lon="-2.226889">
        <ele>692.266</ele>
        <time>2021-03-21T10:58:48Z</time>
      </trkpt>
      <trkpt lat="43.091899" lon="-2.226929">
        <ele>692.236</ele>
        <time>2021-03-21T10:58:50Z</time>
      </trkpt>
      <trkpt lat="43.091889" lon="-2.226958">
        <ele>691.966</ele>
        <time>2021-03-21T10:58:51Z</time>
      </trkpt>
      <trkpt lat="43.091876" lon="-2.226988">
        <ele>691.573</ele>
        <time>2021-03-21T10:58:52Z</time>
      </trkpt>
      <trkpt lat="43.091864" lon="-2.227010">
        <ele>691.285</ele>
        <time>2021-03-21T10:58:53Z</time>
      </trkpt>
      <trkpt lat="43.091849" lon="-2.227035">
        <ele>690.913</ele>
        <time>2021-03-21T10:58:54Z</time>
      </trkpt>
      <trkpt lat="43.091831" lon="-2.227066">
        <ele>690.508</ele>
        <time>2021-03-21T10:58:55Z</time>
      </trkpt>
      <trkpt lat="43.091813" lon="-2.227091">
        <ele>690.243</ele>
        <time>2021-03-21T10:58:56Z</time>
      </trkpt>
      <trkpt lat="43.091793" lon="-2.227119">
        <ele>689.816</ele>
        <time>2021-03-21T10:58:57Z</time>
      </trkpt>
      <trkpt lat="43.091771" lon="-2.227156">
        <ele>689.279</ele>
        <time>2021-03-21T10:58:58Z</time>
      </trkpt>
      <trkpt lat="43.091746" lon="-2.227184">
        <ele>688.960</ele>
        <time>2021-03-21T10:58:59Z</time>
      </trkpt>
      <trkpt lat="43.091727" lon="-2.227205">
        <ele>688.627</ele>
        <time>2021-03-21T10:59:00Z</time>
      </trkpt>
      <trkpt lat="43.091709" lon="-2.227234">
        <ele>688.185</ele>
        <time>2021-03-21T10:59:01Z</time>
      </trkpt>
      <trkpt lat="43.091691" lon="-2.227269">
        <ele>687.325</ele>
        <time>2021-03-21T10:59:02Z</time>
      </trkpt>
      <trkpt lat="43.091672" lon="-2.227295">
        <ele>686.845</ele>
        <time>2021-03-21T10:59:03Z</time>
      </trkpt>
      <trkpt lat="43.091652" lon="-2.227325">
        <ele>686.489</ele>
        <time>2021-03-21T10:59:04Z</time>
      </trkpt>
      <trkpt lat="43.091632" lon="-2.227359">
        <ele>685.906</ele>
        <time>2021-03-21T10:59:05Z</time>
      </trkpt>
      <trkpt lat="43.091614" lon="-2.227384">
        <ele>685.626</ele>
        <time>2021-03-21T10:59:06Z</time>
      </trkpt>
      <trkpt lat="43.091592" lon="-2.227411">
        <ele>685.408</ele>
        <time>2021-03-21T10:59:07Z</time>
      </trkpt>
      <trkpt lat="43.091573" lon="-2.227443">
        <ele>684.914</ele>
        <time>2021-03-21T10:59:08Z</time>
      </trkpt>
      <trkpt lat="43.091556" lon="-2.227473">
        <ele>684.577</ele>
        <time>2021-03-21T10:59:09Z</time>
      </trkpt>
      <trkpt lat="43.091539" lon="-2.227499">
        <ele>684.280</ele>
        <time>2021-03-21T10:59:10Z</time>
      </trkpt>
      <trkpt lat="43.091524" lon="-2.227527">
        <ele>683.911</ele>
        <time>2021-03-21T10:59:11Z</time>
      </trkpt>
      <trkpt lat="43.091512" lon="-2.227560">
        <ele>683.368</ele>
        <time>2021-03-21T10:59:12Z</time>
      </trkpt>
      <trkpt lat="43.091500" lon="-2.227591">
        <ele>682.846</ele>
        <time>2021-03-21T10:59:13Z</time>
      </trkpt>
      <trkpt lat="43.091486" lon="-2.227627">
        <ele>682.246</ele>
        <time>2021-03-21T10:59:14Z</time>
      </trkpt>
      <trkpt lat="43.091473" lon="-2.227657">
        <ele>681.836</ele>
        <time>2021-03-21T10:59:15Z</time>
      </trkpt>
      <trkpt lat="43.091461" lon="-2.227692">
        <ele>681.283</ele>
        <time>2021-03-21T10:59:16Z</time>
      </trkpt>
      <trkpt lat="43.091452" lon="-2.227728">
        <ele>680.525</ele>
        <time>2021-03-21T10:59:17Z</time>
      </trkpt>
      <trkpt lat="43.091446" lon="-2.227763">
        <ele>679.717</ele>
        <time>2021-03-21T10:59:18Z</time>
      </trkpt>
      <trkpt lat="43.091440" lon="-2.227799">
        <ele>678.908</ele>
        <time>2021-03-21T10:59:19Z</time>
      </trkpt>
      <trkpt lat="43.091430" lon="-2.227833">
        <ele>678.254</ele>
        <time>2021-03-21T10:59:20Z</time>
      </trkpt>
      <trkpt lat="43.091420" lon="-2.227860">
        <ele>677.757</ele>
        <time>2021-03-21T10:59:21Z</time>
      </trkpt>
      <trkpt lat="43.091410" lon="-2.227892">
        <ele>677.120</ele>
        <time>2021-03-21T10:59:22Z</time>
      </trkpt>
      <trkpt lat="43.091398" lon="-2.227921">
        <ele>676.641</ele>
        <time>2021-03-21T10:59:23Z</time>
      </trkpt>
      <trkpt lat="43.091386" lon="-2.227945">
        <ele>676.388</ele>
        <time>2021-03-21T10:59:24Z</time>
      </trkpt>
      <trkpt lat="43.091375" lon="-2.227980">
        <ele>675.676</ele>
        <time>2021-03-21T10:59:25Z</time>
      </trkpt>
      <trkpt lat="43.091356" lon="-2.228007">
        <ele>675.326</ele>
        <time>2021-03-21T10:59:26Z</time>
      </trkpt>
      <trkpt lat="43.091335" lon="-2.228032">
        <ele>675.246</ele>
        <time>2021-03-21T10:59:27Z</time>
      </trkpt>
      <trkpt lat="43.091320" lon="-2.228062">
        <ele>674.853</ele>
        <time>2021-03-21T10:59:28Z</time>
      </trkpt>
      <trkpt lat="43.091308" lon="-2.228095">
        <ele>674.304</ele>
        <time>2021-03-21T10:59:29Z</time>
      </trkpt>
      <trkpt lat="43.091297" lon="-2.228129">
        <ele>673.814</ele>
        <time>2021-03-21T10:59:30Z</time>
      </trkpt>
      <trkpt lat="43.091287" lon="-2.228163">
        <ele>673.208</ele>
        <time>2021-03-21T10:59:31Z</time>
      </trkpt>
      <trkpt lat="43.091277" lon="-2.228202">
        <ele>672.531</ele>
        <time>2021-03-21T10:59:32Z</time>
      </trkpt>
      <trkpt lat="43.091264" lon="-2.228242">
        <ele>671.944</ele>
        <time>2021-03-21T10:59:33Z</time>
      </trkpt>
      <trkpt lat="43.091252" lon="-2.228279">
        <ele>671.327</ele>
        <time>2021-03-21T10:59:34Z</time>
      </trkpt>
      <trkpt lat="43.091244" lon="-2.228317">
        <ele>670.648</ele>
        <time>2021-03-21T10:59:35Z</time>
      </trkpt>
      <trkpt lat="43.091233" lon="-2.228350">
        <ele>670.165</ele>
        <time>2021-03-21T10:59:36Z</time>
      </trkpt>
      <trkpt lat="43.091224" lon="-2.228382">
        <ele>669.593</ele>
        <time>2021-03-21T10:59:37Z</time>
      </trkpt>
      <trkpt lat="43.091217" lon="-2.228417">
        <ele>668.813</ele>
        <time>2021-03-21T10:59:38Z</time>
      </trkpt>
      <trkpt lat="43.091209" lon="-2.228453">
        <ele>668.293</ele>
        <time>2021-03-21T10:59:39Z</time>
      </trkpt>
      <trkpt lat="43.091200" lon="-2.228489">
        <ele>667.546</ele>
        <time>2021-03-21T10:59:40Z</time>
      </trkpt>
      <trkpt lat="43.091192" lon="-2.228525">
        <ele>666.888</ele>
        <time>2021-03-21T10:59:41Z</time>
      </trkpt>
      <trkpt lat="43.091183" lon="-2.228559">
        <ele>666.216</ele>
        <time>2021-03-21T10:59:42Z</time>
      </trkpt>
      <trkpt lat="43.091170" lon="-2.228591">
        <ele>665.808</ele>
        <time>2021-03-21T10:59:43Z</time>
      </trkpt>
      <trkpt lat="43.091158" lon="-2.228628">
        <ele>665.260</ele>
        <time>2021-03-21T10:59:44Z</time>
      </trkpt>
      <trkpt lat="43.091148" lon="-2.228663">
        <ele>664.533</ele>
        <time>2021-03-21T10:59:45Z</time>
      </trkpt>
      <trkpt lat="43.091134" lon="-2.228698">
        <ele>663.996</ele>
        <time>2021-03-21T10:59:46Z</time>
      </trkpt>
      <trkpt lat="43.091118" lon="-2.228734">
        <ele>663.317</ele>
        <time>2021-03-21T10:59:47Z</time>
      </trkpt>
      <trkpt lat="43.091105" lon="-2.228768">
        <ele>662.644</ele>
        <time>2021-03-21T10:59:48Z</time>
      </trkpt>
      <trkpt lat="43.091092" lon="-2.228803">
        <ele>662.042</ele>
        <time>2021-03-21T10:59:49Z</time>
      </trkpt>
      <trkpt lat="43.091080" lon="-2.228845">
        <ele>661.182</ele>
        <time>2021-03-21T10:59:50Z</time>
      </trkpt>
      <trkpt lat="43.091067" lon="-2.228884">
        <ele>660.492</ele>
        <time>2021-03-21T10:59:51Z</time>
      </trkpt>
      <trkpt lat="43.091053" lon="-2.228920">
        <ele>660.051</ele>
        <time>2021-03-21T10:59:52Z</time>
      </trkpt>
      <trkpt lat="43.091042" lon="-2.228955">
        <ele>659.401</ele>
        <time>2021-03-21T10:59:53Z</time>
      </trkpt>
      <trkpt lat="43.091027" lon="-2.228990">
        <ele>659.011</ele>
        <time>2021-03-21T10:59:54Z</time>
      </trkpt>
      <trkpt lat="43.091011" lon="-2.229023">
        <ele>658.608</ele>
        <time>2021-03-21T10:59:55Z</time>
      </trkpt>
      <trkpt lat="43.091003" lon="-2.229058">
        <ele>658.041</ele>
        <time>2021-03-21T10:59:56Z</time>
      </trkpt>
      <trkpt lat="43.090991" lon="-2.229096">
        <ele>657.344</ele>
        <time>2021-03-21T10:59:57Z</time>
      </trkpt>
      <trkpt lat="43.090981" lon="-2.229134">
        <ele>656.637</ele>
        <time>2021-03-21T10:59:58Z</time>
      </trkpt>
      <trkpt lat="43.090966" lon="-2.229213">
        <ele>655.118</ele>
        <time>2021-03-21T11:00:00Z</time>
      </trkpt>
      <trkpt lat="43.090953" lon="-2.229252">
        <ele>654.545</ele>
        <time>2021-03-21T11:00:01Z</time>
      </trkpt>
      <trkpt lat="43.090938" lon="-2.229290">
        <ele>654.043</ele>
        <time>2021-03-21T11:00:02Z</time>
      </trkpt>
      <trkpt lat="43.090926" lon="-2.229327">
        <ele>653.513</ele>
        <time>2021-03-21T11:00:03Z</time>
      </trkpt>
      <trkpt lat="43.090912" lon="-2.229365">
        <ele>653.183</ele>
        <time>2021-03-21T11:00:04Z</time>
      </trkpt>
      <trkpt lat="43.090900" lon="-2.229403">
        <ele>652.733</ele>
        <time>2021-03-21T11:00:05Z</time>
      </trkpt>
      <trkpt lat="43.090888" lon="-2.229436">
        <ele>652.423</ele>
        <time>2021-03-21T11:00:06Z</time>
      </trkpt>
      <trkpt lat="43.090873" lon="-2.229468">
        <ele>652.315</ele>
        <time>2021-03-21T11:00:07Z</time>
      </trkpt>
      <trkpt lat="43.090861" lon="-2.229502">
        <ele>652.008</ele>
        <time>2021-03-21T11:00:08Z</time>
      </trkpt>
      <trkpt lat="43.090851" lon="-2.229536">
        <ele>651.899</ele>
        <time>2021-03-21T11:00:09Z</time>
      </trkpt>
      <trkpt lat="43.090839" lon="-2.229573">
        <ele>651.592</ele>
        <time>2021-03-21T11:00:10Z</time>
      </trkpt>
      <trkpt lat="43.090821" lon="-2.229606">
        <ele>651.565</ele>
        <time>2021-03-21T11:00:11Z</time>
      </trkpt>
      <trkpt lat="43.090804" lon="-2.229630">
        <ele>651.596</ele>
        <time>2021-03-21T11:00:12Z</time>
      </trkpt>
      <trkpt lat="43.090792" lon="-2.229660">
        <ele>651.383</ele>
        <time>2021-03-21T11:00:13Z</time>
      </trkpt>
      <trkpt lat="43.090776" lon="-2.229690">
        <ele>651.371</ele>
        <time>2021-03-21T11:00:14Z</time>
      </trkpt>
      <trkpt lat="43.090755" lon="-2.229712">
        <ele>651.531</ele>
        <time>2021-03-21T11:00:15Z</time>
      </trkpt>
      <trkpt lat="43.090738" lon="-2.229735">
        <ele>651.411</ele>
        <time>2021-03-21T11:00:16Z</time>
      </trkpt>
      <trkpt lat="43.090728" lon="-2.229768">
        <ele>650.974</ele>
        <time>2021-03-21T11:00:17Z</time>
      </trkpt>
      <trkpt lat="43.090718" lon="-2.229799">
        <ele>650.456</ele>
        <time>2021-03-21T11:00:18Z</time>
      </trkpt>
      <trkpt lat="43.090704" lon="-2.229829">
        <ele>650.121</ele>
        <time>2021-03-21T11:00:19Z</time>
      </trkpt>
      <trkpt lat="43.090685" lon="-2.229851">
        <ele>650.008</ele>
        <time>2021-03-21T11:00:20Z</time>
      </trkpt>
      <trkpt lat="43.090670" lon="-2.229874">
        <ele>649.863</ele>
        <time>2021-03-21T11:00:21Z</time>
      </trkpt>
      <trkpt lat="43.090654" lon="-2.229900">
        <ele>649.526</ele>
        <time>2021-03-21T11:00:22Z</time>
      </trkpt>
      <trkpt lat="43.090633" lon="-2.229927">
        <ele>649.399</ele>
        <time>2021-03-21T11:00:23Z</time>
      </trkpt>
      <trkpt lat="43.090614" lon="-2.229953">
        <ele>649.010</ele>
        <time>2021-03-21T11:00:24Z</time>
      </trkpt>
      <trkpt lat="43.090595" lon="-2.229981">
        <ele>648.767</ele>
        <time>2021-03-21T11:00:25Z</time>
      </trkpt>
      <trkpt lat="43.090577" lon="-2.230012">
        <ele>648.285</ele>
        <time>2021-03-21T11:00:26Z</time>
      </trkpt>
      <trkpt lat="43.090563" lon="-2.230041">
        <ele>647.865</ele>
        <time>2021-03-21T11:00:27Z</time>
      </trkpt>
      <trkpt lat="43.090546" lon="-2.230072">
        <ele>647.485</ele>
        <time>2021-03-21T11:00:28Z</time>
      </trkpt>
      <trkpt lat="43.090532" lon="-2.230108">
        <ele>646.893</ele>
        <time>2021-03-21T11:00:29Z</time>
      </trkpt>
      <trkpt lat="43.090517" lon="-2.230142">
        <ele>646.265</ele>
        <time>2021-03-21T11:00:30Z</time>
      </trkpt>
      <trkpt lat="43.090497" lon="-2.230167">
        <ele>645.921</ele>
        <time>2021-03-21T11:00:31Z</time>
      </trkpt>
      <trkpt lat="43.090481" lon="-2.230195">
        <ele>645.508</ele>
        <time>2021-03-21T11:00:32Z</time>
      </trkpt>
      <trkpt lat="43.090465" lon="-2.230224">
        <ele>645.075</ele>
        <time>2021-03-21T11:00:33Z</time>
      </trkpt>
      <trkpt lat="43.090451" lon="-2.230252">
        <ele>644.638</ele>
        <time>2021-03-21T11:00:34Z</time>
      </trkpt>
      <trkpt lat="43.090436" lon="-2.230281">
        <ele>644.121</ele>
        <time>2021-03-21T11:00:35Z</time>
      </trkpt>
      <trkpt lat="43.090422" lon="-2.230313">
        <ele>643.532</ele>
        <time>2021-03-21T11:00:36Z</time>
      </trkpt>
      <trkpt lat="43.090406" lon="-2.230344">
        <ele>642.999</ele>
        <time>2021-03-21T11:00:37Z</time>
      </trkpt>
      <trkpt lat="43.090392" lon="-2.230370">
        <ele>642.487</ele>
        <time>2021-03-21T11:00:38Z</time>
      </trkpt>
      <trkpt lat="43.090374" lon="-2.230394">
        <ele>642.157</ele>
        <time>2021-03-21T11:00:39Z</time>
      </trkpt>
      <trkpt lat="43.090353" lon="-2.230412">
        <ele>641.967</ele>
        <time>2021-03-21T11:00:40Z</time>
      </trkpt>
      <trkpt lat="43.090334" lon="-2.230433">
        <ele>641.681</ele>
        <time>2021-03-21T11:00:41Z</time>
      </trkpt>
      <trkpt lat="43.090315" lon="-2.230455">
        <ele>641.361</ele>
        <time>2021-03-21T11:00:42Z</time>
      </trkpt>
      <trkpt lat="43.090294" lon="-2.230471">
        <ele>641.217</ele>
        <time>2021-03-21T11:00:43Z</time>
      </trkpt>
      <trkpt lat="43.090273" lon="-2.230482">
        <ele>641.108</ele>
        <time>2021-03-21T11:00:44Z</time>
      </trkpt>
      <trkpt lat="43.090251" lon="-2.230494">
        <ele>640.974</ele>
        <time>2021-03-21T11:00:45Z</time>
      </trkpt>
      <trkpt lat="43.090231" lon="-2.230509">
        <ele>640.577</ele>
        <time>2021-03-21T11:00:46Z</time>
      </trkpt>
      <trkpt lat="43.090212" lon="-2.230527">
        <ele>640.190</ele>
        <time>2021-03-21T11:00:47Z</time>
      </trkpt>
      <trkpt lat="43.090193" lon="-2.230545">
        <ele>639.671</ele>
        <time>2021-03-21T11:00:48Z</time>
      </trkpt>
      <trkpt lat="43.090173" lon="-2.230559">
        <ele>639.328</ele>
        <time>2021-03-21T11:00:49Z</time>
      </trkpt>
      <trkpt lat="43.090151" lon="-2.230566">
        <ele>639.276</ele>
        <time>2021-03-21T11:00:50Z</time>
      </trkpt>
      <trkpt lat="43.090131" lon="-2.230576">
        <ele>638.986</ele>
        <time>2021-03-21T11:00:51Z</time>
      </trkpt>
      <trkpt lat="43.090114" lon="-2.230589">
        <ele>638.636</ele>
        <time>2021-03-21T11:00:52Z</time>
      </trkpt>
      <trkpt lat="43.090097" lon="-2.230602">
        <ele>638.372</ele>
        <time>2021-03-21T11:00:53Z</time>
      </trkpt>
      <trkpt lat="43.090080" lon="-2.230611">
        <ele>638.113</ele>
        <time>2021-03-21T11:00:54Z</time>
      </trkpt>
      <trkpt lat="43.090063" lon="-2.230627">
        <ele>637.714</ele>
        <time>2021-03-21T11:00:55Z</time>
      </trkpt>
      <trkpt lat="43.090044" lon="-2.230644">
        <ele>637.308</ele>
        <time>2021-03-21T11:00:56Z</time>
      </trkpt>
      <trkpt lat="43.090024" lon="-2.230665">
        <ele>636.843</ele>
        <time>2021-03-21T11:00:57Z</time>
      </trkpt>
      <trkpt lat="43.090000" lon="-2.230690">
        <ele>636.196</ele>
        <time>2021-03-21T11:00:58Z</time>
      </trkpt>
      <trkpt lat="43.089981" lon="-2.230712">
        <ele>635.529</ele>
        <time>2021-03-21T11:00:59Z</time>
      </trkpt>
      <trkpt lat="43.089963" lon="-2.230732">
        <ele>635.060</ele>
        <time>2021-03-21T11:01:00Z</time>
      </trkpt>
      <trkpt lat="43.089945" lon="-2.230753">
        <ele>634.527</ele>
        <time>2021-03-21T11:01:01Z</time>
      </trkpt>
      <trkpt lat="43.089927" lon="-2.230775">
        <ele>633.975</ele>
        <time>2021-03-21T11:01:02Z</time>
      </trkpt>
      <trkpt lat="43.089910" lon="-2.230794">
        <ele>633.475</ele>
        <time>2021-03-21T11:01:03Z</time>
      </trkpt>
      <trkpt lat="43.089886" lon="-2.230823">
        <ele>632.755</ele>
        <time>2021-03-21T11:01:05Z</time>
      </trkpt>
      <trkpt lat="43.089871" lon="-2.230841">
        <ele>632.346</ele>
        <time>2021-03-21T11:01:06Z</time>
      </trkpt>
      <trkpt lat="43.089854" lon="-2.230858">
        <ele>632.088</ele>
        <time>2021-03-21T11:01:07Z</time>
      </trkpt>
      <trkpt lat="43.089836" lon="-2.230880">
        <ele>631.616</ele>
        <time>2021-03-21T11:01:08Z</time>
      </trkpt>
      <trkpt lat="43.089816" lon="-2.230907">
        <ele>631.108</ele>
        <time>2021-03-21T11:01:09Z</time>
      </trkpt>
      <trkpt lat="43.089797" lon="-2.230937">
        <ele>630.560</ele>
        <time>2021-03-21T11:01:10Z</time>
      </trkpt>
      <trkpt lat="43.089778" lon="-2.230960">
        <ele>630.163</ele>
        <time>2021-03-21T11:01:11Z</time>
      </trkpt>
      <trkpt lat="43.089756" lon="-2.230984">
        <ele>629.686</ele>
        <time>2021-03-21T11:01:12Z</time>
      </trkpt>
      <trkpt lat="43.089740" lon="-2.231013">
        <ele>629.177</ele>
        <time>2021-03-21T11:01:13Z</time>
      </trkpt>
      <trkpt lat="43.089724" lon="-2.231046">
        <ele>628.414</ele>
        <time>2021-03-21T11:01:14Z</time>
      </trkpt>
      <trkpt lat="43.089708" lon="-2.231074">
        <ele>627.762</ele>
        <time>2021-03-21T11:01:15Z</time>
      </trkpt>
      <trkpt lat="43.089693" lon="-2.231098">
        <ele>627.192</ele>
        <time>2021-03-21T11:01:16Z</time>
      </trkpt>
      <trkpt lat="43.089681" lon="-2.231118">
        <ele>626.612</ele>
        <time>2021-03-21T11:01:17Z</time>
      </trkpt>
      <trkpt lat="43.089664" lon="-2.231150">
        <ele>625.975</ele>
        <time>2021-03-21T11:01:19Z</time>
      </trkpt>
      <trkpt lat="43.089650" lon="-2.231175">
        <ele>625.328</ele>
        <time>2021-03-21T11:01:20Z</time>
      </trkpt>
      <trkpt lat="43.089635" lon="-2.231207">
        <ele>624.620</ele>
        <time>2021-03-21T11:01:21Z</time>
      </trkpt>
      <trkpt lat="43.089621" lon="-2.231240">
        <ele>624.008</ele>
        <time>2021-03-21T11:01:22Z</time>
      </trkpt>
      <trkpt lat="43.089610" lon="-2.231274">
        <ele>623.353</ele>
        <time>2021-03-21T11:01:23Z</time>
      </trkpt>
      <trkpt lat="43.089604" lon="-2.231305">
        <ele>622.776</ele>
        <time>2021-03-21T11:01:24Z</time>
      </trkpt>
      <trkpt lat="43.089600" lon="-2.231341">
        <ele>622.079</ele>
        <time>2021-03-21T11:01:25Z</time>
      </trkpt>
      <trkpt lat="43.089589" lon="-2.231375">
        <ele>621.330</ele>
        <time>2021-03-21T11:01:26Z</time>
      </trkpt>
      <trkpt lat="43.089572" lon="-2.231406">
        <ele>620.727</ele>
        <time>2021-03-21T11:01:27Z</time>
      </trkpt>
      <trkpt lat="43.089554" lon="-2.231443">
        <ele>620.155</ele>
        <time>2021-03-21T11:01:28Z</time>
      </trkpt>
      <trkpt lat="43.089539" lon="-2.231480">
        <ele>619.655</ele>
        <time>2021-03-21T11:01:29Z</time>
      </trkpt>
      <trkpt lat="43.089530" lon="-2.231515">
        <ele>619.115</ele>
        <time>2021-03-21T11:01:30Z</time>
      </trkpt>
      <trkpt lat="43.089514" lon="-2.231549">
        <ele>618.674</ele>
        <time>2021-03-21T11:01:31Z</time>
      </trkpt>
      <trkpt lat="43.089497" lon="-2.231583">
        <ele>618.156</ele>
        <time>2021-03-21T11:01:32Z</time>
      </trkpt>
      <trkpt lat="43.089483" lon="-2.231616">
        <ele>617.721</ele>
        <time>2021-03-21T11:01:33Z</time>
      </trkpt>
      <trkpt lat="43.089469" lon="-2.231649">
        <ele>617.308</ele>
        <time>2021-03-21T11:01:34Z</time>
      </trkpt>
      <trkpt lat="43.089454" lon="-2.231685">
        <ele>616.893</ele>
        <time>2021-03-21T11:01:35Z</time>
      </trkpt>
      <trkpt lat="43.089440" lon="-2.231723">
        <ele>616.366</ele>
        <time>2021-03-21T11:01:36Z</time>
      </trkpt>
      <trkpt lat="43.089429" lon="-2.231757">
        <ele>615.539</ele>
        <time>2021-03-21T11:01:37Z</time>
      </trkpt>
      <trkpt lat="43.089420" lon="-2.231787">
        <ele>614.950</ele>
        <time>2021-03-21T11:01:38Z</time>
      </trkpt>
      <trkpt lat="43.089414" lon="-2.231822">
        <ele>614.467</ele>
        <time>2021-03-21T11:01:39Z</time>
      </trkpt>
      <trkpt lat="43.089410" lon="-2.231856">
        <ele>613.995</ele>
        <time>2021-03-21T11:01:40Z</time>
      </trkpt>
      <trkpt lat="43.089399" lon="-2.231904">
        <ele>613.145</ele>
        <time>2021-03-21T11:01:42Z</time>
      </trkpt>
      <trkpt lat="43.089380" lon="-2.231938">
        <ele>612.265</ele>
        <time>2021-03-21T11:01:44Z</time>
      </trkpt>
      <trkpt lat="43.089370" lon="-2.231966">
        <ele>611.943</ele>
        <time>2021-03-21T11:01:46Z</time>
      </trkpt>
      <trkpt lat="43.089383" lon="-2.231993">
        <ele>612.364</ele>
        <time>2021-03-21T11:01:48Z</time>
      </trkpt>
      <trkpt lat="43.089403" lon="-2.232024">
        <ele>612.810</ele>
        <time>2021-03-21T11:01:50Z</time>
      </trkpt>
      <trkpt lat="43.089420" lon="-2.232047">
        <ele>613.308</ele>
        <time>2021-03-21T11:01:52Z</time>
      </trkpt>
      <trkpt lat="43.089438" lon="-2.232071">
        <ele>613.880</ele>
        <time>2021-03-21T11:01:54Z</time>
      </trkpt>
      <trkpt lat="43.089449" lon="-2.232092">
        <ele>614.043</ele>
        <time>2021-03-21T11:01:55Z</time>
      </trkpt>
      <trkpt lat="43.089466" lon="-2.232131">
        <ele>614.076</ele>
        <time>2021-03-21T11:01:57Z</time>
      </trkpt>
      <trkpt lat="43.089478" lon="-2.232169">
        <ele>614.077</ele>
        <time>2021-03-21T11:01:59Z</time>
      </trkpt>
      <trkpt lat="43.089487" lon="-2.232205">
        <ele>614.094</ele>
        <time>2021-03-21T11:02:01Z</time>
      </trkpt>
      <trkpt lat="43.089499" lon="-2.232247">
        <ele>614.132</ele>
        <time>2021-03-21T11:02:03Z</time>
      </trkpt>
      <trkpt lat="43.089507" lon="-2.232282">
        <ele>614.242</ele>
        <time>2021-03-21T11:02:05Z</time>
      </trkpt>
      <trkpt lat="43.089514" lon="-2.232320">
        <ele>614.392</ele>
        <time>2021-03-21T11:02:07Z</time>
      </trkpt>
      <trkpt lat="43.089525" lon="-2.232357">
        <ele>614.322</ele>
        <time>2021-03-21T11:02:09Z</time>
      </trkpt>
      <trkpt lat="43.089530" lon="-2.232391">
        <ele>614.462</ele>
        <time>2021-03-21T11:02:11Z</time>
      </trkpt>
      <trkpt lat="43.089530" lon="-2.232425">
        <ele>614.508</ele>
        <time>2021-03-21T11:02:13Z</time>
      </trkpt>
      <trkpt lat="43.089531" lon="-2.232465">
        <ele>614.608</ele>
        <time>2021-03-21T11:02:15Z</time>
      </trkpt>
      <trkpt lat="43.089538" lon="-2.232505">
        <ele>614.758</ele>
        <time>2021-03-21T11:02:17Z</time>
      </trkpt>
      <trkpt lat="43.089539" lon="-2.232545">
        <ele>614.881</ele>
        <time>2021-03-21T11:02:19Z</time>
      </trkpt>
      <trkpt lat="43.089544" lon="-2.232583">
        <ele>614.944</ele>
        <time>2021-03-21T11:02:21Z</time>
      </trkpt>
      <trkpt lat="43.089547" lon="-2.232626">
        <ele>615.085</ele>
        <time>2021-03-21T11:02:23Z</time>
      </trkpt>
      <trkpt lat="43.089551" lon="-2.232664">
        <ele>615.162</ele>
        <time>2021-03-21T11:02:25Z</time>
      </trkpt>
      <trkpt lat="43.089561" lon="-2.232705">
        <ele>615.270</ele>
        <time>2021-03-21T11:02:27Z</time>
      </trkpt>
      <trkpt lat="43.089571" lon="-2.232746">
        <ele>615.470</ele>
        <time>2021-03-21T11:02:29Z</time>
      </trkpt>
      <trkpt lat="43.089576" lon="-2.232782">
        <ele>615.520</ele>
        <time>2021-03-21T11:02:31Z</time>
      </trkpt>
      <trkpt lat="43.089567" lon="-2.232810">
        <ele>615.735</ele>
        <time>2021-03-21T11:02:33Z</time>
      </trkpt>
      <trkpt lat="43.089545" lon="-2.232833">
        <ele>615.786</ele>
        <time>2021-03-21T11:02:35Z</time>
      </trkpt>
      <trkpt lat="43.089529" lon="-2.232843">
        <ele>615.714</ele>
        <time>2021-03-21T11:02:36Z</time>
      </trkpt>
      <trkpt lat="43.089511" lon="-2.232856">
        <ele>615.708</ele>
        <time>2021-03-21T11:02:37Z</time>
      </trkpt>
      <trkpt lat="43.089494" lon="-2.232876">
        <ele>615.799</ele>
        <time>2021-03-21T11:02:38Z</time>
      </trkpt>
      <trkpt lat="43.089482" lon="-2.232902">
        <ele>615.752</ele>
        <time>2021-03-21T11:02:39Z</time>
      </trkpt>
      <trkpt lat="43.089477" lon="-2.232928">
        <ele>615.825</ele>
        <time>2021-03-21T11:02:40Z</time>
      </trkpt>
      <trkpt lat="43.089470" lon="-2.232953">
        <ele>615.856</ele>
        <time>2021-03-21T11:02:41Z</time>
      </trkpt>
      <trkpt lat="43.089466" lon="-2.232978">
        <ele>615.973</ele>
        <time>2021-03-21T11:02:42Z</time>
      </trkpt>
      <trkpt lat="43.089460" lon="-2.233002">
        <ele>616.031</ele>
        <time>2021-03-21T11:02:43Z</time>
      </trkpt>
      <trkpt lat="43.089459" lon="-2.233028">
        <ele>616.031</ele>
        <time>2021-03-21T11:02:44Z</time>
      </trkpt>
      <trkpt lat="43.089459" lon="-2.233069">
        <ele>616.261</ele>
        <time>2021-03-21T11:02:46Z</time>
      </trkpt>
      <trkpt lat="43.089458" lon="-2.233121">
        <ele>616.284</ele>
        <time>2021-03-21T11:02:48Z</time>
      </trkpt>
      <trkpt lat="43.089459" lon="-2.233151">
        <ele>616.207</ele>
        <time>2021-03-21T11:02:49Z</time>
      </trkpt>
      <trkpt lat="43.089462" lon="-2.233197">
        <ele>616.317</ele>
        <time>2021-03-21T11:02:51Z</time>
      </trkpt>
      <trkpt lat="43.089463" lon="-2.233225">
        <ele>616.308</ele>
        <time>2021-03-21T11:02:52Z</time>
      </trkpt>
      <trkpt lat="43.089463" lon="-2.233255">
        <ele>616.324</ele>
        <time>2021-03-21T11:02:53Z</time>
      </trkpt>
      <trkpt lat="43.089459" lon="-2.233286">
        <ele>616.227</ele>
        <time>2021-03-21T11:02:54Z</time>
      </trkpt>
      <trkpt lat="43.089454" lon="-2.233319">
        <ele>616.280</ele>
        <time>2021-03-21T11:02:55Z</time>
      </trkpt>
      <trkpt lat="43.089455" lon="-2.233353">
        <ele>616.131</ele>
        <time>2021-03-21T11:02:56Z</time>
      </trkpt>
      <trkpt lat="43.089457" lon="-2.233385">
        <ele>616.148</ele>
        <time>2021-03-21T11:02:57Z</time>
      </trkpt>
      <trkpt lat="43.089458" lon="-2.233416">
        <ele>616.076</ele>
        <time>2021-03-21T11:02:58Z</time>
      </trkpt>
      <trkpt lat="43.089458" lon="-2.233443">
        <ele>615.956</ele>
        <time>2021-03-21T11:02:59Z</time>
      </trkpt>
      <trkpt lat="43.089455" lon="-2.233469">
        <ele>615.886</ele>
        <time>2021-03-21T11:03:00Z</time>
      </trkpt>
      <trkpt lat="43.089450" lon="-2.233503">
        <ele>615.568</ele>
        <time>2021-03-21T11:03:01Z</time>
      </trkpt>
      <trkpt lat="43.089444" lon="-2.233541">
        <ele>615.242</ele>
        <time>2021-03-21T11:03:02Z</time>
      </trkpt>
      <trkpt lat="43.089441" lon="-2.233585">
        <ele>614.926</ele>
        <time>2021-03-21T11:03:03Z</time>
      </trkpt>
      <trkpt lat="43.089439" lon="-2.233634">
        <ele>614.708</ele>
        <time>2021-03-21T11:03:04Z</time>
      </trkpt>
      <trkpt lat="43.089436" lon="-2.233679">
        <ele>614.622</ele>
        <time>2021-03-21T11:03:05Z</time>
      </trkpt>
      <trkpt lat="43.089431" lon="-2.233726">
        <ele>614.345</ele>
        <time>2021-03-21T11:03:06Z</time>
      </trkpt>
      <trkpt lat="43.089426" lon="-2.233771">
        <ele>614.078</ele>
        <time>2021-03-21T11:03:07Z</time>
      </trkpt>
      <trkpt lat="43.089422" lon="-2.233805">
        <ele>613.859</ele>
        <time>2021-03-21T11:03:08Z</time>
      </trkpt>
      <trkpt lat="43.089419" lon="-2.233835">
        <ele>613.686</ele>
        <time>2021-03-21T11:03:09Z</time>
      </trkpt>
      <trkpt lat="43.089414" lon="-2.233863">
        <ele>613.454</ele>
        <time>2021-03-21T11:03:10Z</time>
      </trkpt>
      <trkpt lat="43.089408" lon="-2.233896">
        <ele>613.134</ele>
        <time>2021-03-21T11:03:11Z</time>
      </trkpt>
      <trkpt lat="43.089397" lon="-2.233929">
        <ele>612.834</ele>
        <time>2021-03-21T11:03:12Z</time>
      </trkpt>
      <trkpt lat="43.089382" lon="-2.233964">
        <ele>612.451</ele>
        <time>2021-03-21T11:03:13Z</time>
      </trkpt>
      <trkpt lat="43.089367" lon="-2.233999">
        <ele>611.901</ele>
        <time>2021-03-21T11:03:14Z</time>
      </trkpt>
      <trkpt lat="43.089352" lon="-2.234031">
        <ele>611.411</ele>
        <time>2021-03-21T11:03:15Z</time>
      </trkpt>
      <trkpt lat="43.089331" lon="-2.234068">
        <ele>610.508</ele>
        <time>2021-03-21T11:03:16Z</time>
      </trkpt>
      <trkpt lat="43.089313" lon="-2.234106">
        <ele>609.931</ele>
        <time>2021-03-21T11:03:17Z</time>
      </trkpt>
      <trkpt lat="43.089299" lon="-2.234145">
        <ele>609.454</ele>
        <time>2021-03-21T11:03:18Z</time>
      </trkpt>
      <trkpt lat="43.089283" lon="-2.234186">
        <ele>608.917</ele>
        <time>2021-03-21T11:03:19Z</time>
      </trkpt>
      <trkpt lat="43.089269" lon="-2.234229">
        <ele>608.568</ele>
        <time>2021-03-21T11:03:20Z</time>
      </trkpt>
      <trkpt lat="43.089256" lon="-2.234271">
        <ele>608.125</ele>
        <time>2021-03-21T11:03:21Z</time>
      </trkpt>
      <trkpt lat="43.089243" lon="-2.234314">
        <ele>607.793</ele>
        <time>2021-03-21T11:03:22Z</time>
      </trkpt>
      <trkpt lat="43.089229" lon="-2.234353">
        <ele>607.283</ele>
        <time>2021-03-21T11:03:23Z</time>
      </trkpt>
      <trkpt lat="43.089218" lon="-2.234394">
        <ele>606.913</ele>
        <time>2021-03-21T11:03:24Z</time>
      </trkpt>
      <trkpt lat="43.089202" lon="-2.234480">
        <ele>607.226</ele>
        <time>2021-03-21T11:03:26Z</time>
      </trkpt>
      <trkpt lat="43.089190" lon="-2.234516">
        <ele>607.347</ele>
        <time>2021-03-21T11:03:27Z</time>
      </trkpt>
      <trkpt lat="43.089172" lon="-2.234549">
        <ele>607.011</ele>
        <time>2021-03-21T11:03:28Z</time>
      </trkpt>
      <trkpt lat="43.089150" lon="-2.234574">
        <ele>606.508</ele>
        <time>2021-03-21T11:03:29Z</time>
      </trkpt>
      <trkpt lat="43.089130" lon="-2.234597">
        <ele>606.138</ele>
        <time>2021-03-21T11:03:30Z</time>
      </trkpt>
      <trkpt lat="43.089110" lon="-2.234622">
        <ele>605.721</ele>
        <time>2021-03-21T11:03:31Z</time>
      </trkpt>
      <trkpt lat="43.089094" lon="-2.234650">
        <ele>605.714</ele>
        <time>2021-03-21T11:03:32Z</time>
      </trkpt>
      <trkpt lat="43.089076" lon="-2.234675">
        <ele>605.575</ele>
        <time>2021-03-21T11:03:33Z</time>
      </trkpt>
      <trkpt lat="43.089058" lon="-2.234700">
        <ele>605.362</ele>
        <time>2021-03-21T11:03:34Z</time>
      </trkpt>
      <trkpt lat="43.089041" lon="-2.234726">
        <ele>605.250</ele>
        <time>2021-03-21T11:03:35Z</time>
      </trkpt>
      <trkpt lat="43.089024" lon="-2.234751">
        <ele>605.280</ele>
        <time>2021-03-21T11:03:36Z</time>
      </trkpt>
      <trkpt lat="43.089006" lon="-2.234778">
        <ele>605.120</ele>
        <time>2021-03-21T11:03:37Z</time>
      </trkpt>
      <trkpt lat="43.088990" lon="-2.234803">
        <ele>605.174</ele>
        <time>2021-03-21T11:03:38Z</time>
      </trkpt>
      <trkpt lat="43.088976" lon="-2.234828">
        <ele>605.156</ele>
        <time>2021-03-21T11:03:39Z</time>
      </trkpt>
      <trkpt lat="43.088962" lon="-2.234856">
        <ele>605.221</ele>
        <time>2021-03-21T11:03:40Z</time>
      </trkpt>
      <trkpt lat="43.088944" lon="-2.234882">
        <ele>604.908</ele>
        <time>2021-03-21T11:03:41Z</time>
      </trkpt>
      <trkpt lat="43.088928" lon="-2.234905">
        <ele>604.773</ele>
        <time>2021-03-21T11:03:42Z</time>
      </trkpt>
      <trkpt lat="43.088911" lon="-2.234931">
        <ele>604.586</ele>
        <time>2021-03-21T11:03:43Z</time>
      </trkpt>
      <trkpt lat="43.088891" lon="-2.234983">
        <ele>604.749</ele>
        <time>2021-03-21T11:03:45Z</time>
      </trkpt>
      <trkpt lat="43.088884" lon="-2.235014">
        <ele>605.050</ele>
        <time>2021-03-21T11:03:46Z</time>
      </trkpt>
      <trkpt lat="43.088875" lon="-2.235046">
        <ele>605.137</ele>
        <time>2021-03-21T11:03:47Z</time>
      </trkpt>
      <trkpt lat="43.088867" lon="-2.235077">
        <ele>605.285</ele>
        <time>2021-03-21T11:03:48Z</time>
      </trkpt>
      <trkpt lat="43.088861" lon="-2.235110">
        <ele>605.555</ele>
        <time>2021-03-21T11:03:49Z</time>
      </trkpt>
      <trkpt lat="43.088854" lon="-2.235145">
        <ele>605.785</ele>
        <time>2021-03-21T11:03:50Z</time>
      </trkpt>
      <trkpt lat="43.088846" lon="-2.235177">
        <ele>605.784</ele>
        <time>2021-03-21T11:03:51Z</time>
      </trkpt>
      <trkpt lat="43.088840" lon="-2.235204">
        <ele>605.807</ele>
        <time>2021-03-21T11:03:52Z</time>
      </trkpt>
      <trkpt lat="43.088836" lon="-2.235234">
        <ele>606.117</ele>
        <time>2021-03-21T11:03:53Z</time>
      </trkpt>
      <trkpt lat="43.088834" lon="-2.235264">
        <ele>606.408</ele>
        <time>2021-03-21T11:03:54Z</time>
      </trkpt>
      <trkpt lat="43.088830" lon="-2.235295">
        <ele>606.444</ele>
        <time>2021-03-21T11:03:55Z</time>
      </trkpt>
      <trkpt lat="43.088826" lon="-2.235330">
        <ele>606.367</ele>
        <time>2021-03-21T11:03:56Z</time>
      </trkpt>
      <trkpt lat="43.088822" lon="-2.235365">
        <ele>606.190</ele>
        <time>2021-03-21T11:03:57Z</time>
      </trkpt>
      <trkpt lat="43.088819" lon="-2.235402">
        <ele>606.121</ele>
        <time>2021-03-21T11:03:58Z</time>
      </trkpt>
      <trkpt lat="43.088818" lon="-2.235440">
        <ele>606.118</ele>
        <time>2021-03-21T11:03:59Z</time>
      </trkpt>
      <trkpt lat="43.088816" lon="-2.235479">
        <ele>606.126</ele>
        <time>2021-03-21T11:04:00Z</time>
      </trkpt>
      <trkpt lat="43.088819" lon="-2.235520">
        <ele>606.426</ele>
        <time>2021-03-21T11:04:01Z</time>
      </trkpt>
      <trkpt lat="43.088824" lon="-2.235555">
        <ele>606.876</ele>
        <time>2021-03-21T11:04:02Z</time>
      </trkpt>
      <trkpt lat="43.088828" lon="-2.235589">
        <ele>606.835</ele>
        <time>2021-03-21T11:04:03Z</time>
      </trkpt>
      <trkpt lat="43.088834" lon="-2.235617">
        <ele>607.086</ele>
        <time>2021-03-21T11:04:04Z</time>
      </trkpt>
      <trkpt lat="43.088838" lon="-2.235648">
        <ele>607.014</ele>
        <time>2021-03-21T11:04:05Z</time>
      </trkpt>
      <trkpt lat="43.088842" lon="-2.235675">
        <ele>607.108</ele>
        <time>2021-03-21T11:04:06Z</time>
      </trkpt>
      <trkpt lat="43.088840" lon="-2.235721">
        <ele>606.639</ele>
        <time>2021-03-21T11:04:08Z</time>
      </trkpt>
      <trkpt lat="43.088845" lon="-2.235763">
        <ele>606.722</ele>
        <time>2021-03-21T11:04:10Z</time>
      </trkpt>
      <trkpt lat="43.088852" lon="-2.235805">
        <ele>606.835</ele>
        <time>2021-03-21T11:04:12Z</time>
      </trkpt>
      <trkpt lat="43.088856" lon="-2.235834">
        <ele>606.916</ele>
        <time>2021-03-21T11:04:14Z</time>
      </trkpt>
      <trkpt lat="43.088853" lon="-2.235868">
        <ele>606.913</ele>
        <time>2021-03-21T11:04:16Z</time>
      </trkpt>
      <trkpt lat="43.088848" lon="-2.235902">
        <ele>606.761</ele>
        <time>2021-03-21T11:04:18Z</time>
      </trkpt>
      <trkpt lat="43.088843" lon="-2.235939">
        <ele>606.741</ele>
        <time>2021-03-21T11:04:20Z</time>
      </trkpt>
      <trkpt lat="43.088837" lon="-2.235969">
        <ele>606.531</ele>
        <time>2021-03-21T11:04:22Z</time>
      </trkpt>
      <trkpt lat="43.088826" lon="-2.235997">
        <ele>606.014</ele>
        <time>2021-03-21T11:04:25Z</time>
      </trkpt>
      <trkpt lat="43.088831" lon="-2.236018">
        <ele>606.554</ele>
        <time>2021-03-21T11:04:29Z</time>
      </trkpt>
      <trkpt lat="43.088837" lon="-2.236054">
        <ele>607.009</ele>
        <time>2021-03-21T11:04:31Z</time>
      </trkpt>
      <trkpt lat="43.088838" lon="-2.236090">
        <ele>607.308</ele>
        <time>2021-03-21T11:04:33Z</time>
      </trkpt>
      <trkpt lat="43.088840" lon="-2.236129">
        <ele>607.897</ele>
        <time>2021-03-21T11:04:35Z</time>
      </trkpt>
      <trkpt lat="43.088836" lon="-2.236172">
        <ele>608.440</ele>
        <time>2021-03-21T11:04:37Z</time>
      </trkpt>
      <trkpt lat="43.088828" lon="-2.236211">
        <ele>608.613</ele>
        <time>2021-03-21T11:04:39Z</time>
      </trkpt>
      <trkpt lat="43.088815" lon="-2.236250">
        <ele>608.614</ele>
        <time>2021-03-21T11:04:41Z</time>
      </trkpt>
      <trkpt lat="43.088803" lon="-2.236290">
        <ele>608.771</ele>
        <time>2021-03-21T11:04:43Z</time>
      </trkpt>
      <trkpt lat="43.088796" lon="-2.236330">
        <ele>609.099</ele>
        <time>2021-03-21T11:04:45Z</time>
      </trkpt>
      <trkpt lat="43.088790" lon="-2.236364">
        <ele>609.299</ele>
        <time>2021-03-21T11:04:47Z</time>
      </trkpt>
      <trkpt lat="43.088784" lon="-2.236400">
        <ele>609.539</ele>
        <time>2021-03-21T11:04:49Z</time>
      </trkpt>
      <trkpt lat="43.088776" lon="-2.236438">
        <ele>609.628</ele>
        <time>2021-03-21T11:04:51Z</time>
      </trkpt>
      <trkpt lat="43.088769" lon="-2.236480">
        <ele>609.889</ele>
        <time>2021-03-21T11:04:53Z</time>
      </trkpt>
      <trkpt lat="43.088761" lon="-2.236522">
        <ele>610.017</ele>
        <time>2021-03-21T11:04:55Z</time>
      </trkpt>
      <trkpt lat="43.088756" lon="-2.236565">
        <ele>610.408</ele>
        <time>2021-03-21T11:04:57Z</time>
      </trkpt>
      <trkpt lat="43.088750" lon="-2.236590">
        <ele>610.498</ele>
        <time>2021-03-21T11:04:58Z</time>
      </trkpt>
      <trkpt lat="43.088747" lon="-2.236617">
        <ele>610.641</ele>
        <time>2021-03-21T11:04:59Z</time>
      </trkpt>
      <trkpt lat="43.088745" lon="-2.236648">
        <ele>611.094</ele>
        <time>2021-03-21T11:05:00Z</time>
      </trkpt>
      <trkpt lat="43.088746" lon="-2.236680">
        <ele>611.215</ele>
        <time>2021-03-21T11:05:01Z</time>
      </trkpt>
      <trkpt lat="43.088743" lon="-2.236711">
        <ele>611.012</ele>
        <time>2021-03-21T11:05:02Z</time>
      </trkpt>
      <trkpt lat="43.088740" lon="-2.236745">
        <ele>610.780</ele>
        <time>2021-03-21T11:05:03Z</time>
      </trkpt>
      <trkpt lat="43.088738" lon="-2.236781">
        <ele>610.430</ele>
        <time>2021-03-21T11:05:04Z</time>
      </trkpt>
      <trkpt lat="43.088739" lon="-2.236817">
        <ele>610.480</ele>
        <time>2021-03-21T11:05:05Z</time>
      </trkpt>
      <trkpt lat="43.088738" lon="-2.236853">
        <ele>610.287</ele>
        <time>2021-03-21T11:05:06Z</time>
      </trkpt>
      <trkpt lat="43.088739" lon="-2.236889">
        <ele>610.142</ele>
        <time>2021-03-21T11:05:07Z</time>
      </trkpt>
      <trkpt lat="43.088739" lon="-2.236925">
        <ele>610.026</ele>
        <time>2021-03-21T11:05:08Z</time>
      </trkpt>
      <trkpt lat="43.088739" lon="-2.236963">
        <ele>609.708</ele>
        <time>2021-03-21T11:05:09Z</time>
      </trkpt>
      <trkpt lat="43.088740" lon="-2.237000">
        <ele>609.314</ele>
        <time>2021-03-21T11:05:10Z</time>
      </trkpt>
      <trkpt lat="43.088744" lon="-2.237038">
        <ele>609.067</ele>
        <time>2021-03-21T11:05:11Z</time>
      </trkpt>
      <trkpt lat="43.088747" lon="-2.237077">
        <ele>608.730</ele>
        <time>2021-03-21T11:05:12Z</time>
      </trkpt>
      <trkpt lat="43.088752" lon="-2.237117">
        <ele>608.491</ele>
        <time>2021-03-21T11:05:13Z</time>
      </trkpt>
      <trkpt lat="43.088756" lon="-2.237156">
        <ele>608.188</ele>
        <time>2021-03-21T11:05:14Z</time>
      </trkpt>
      <trkpt lat="43.088761" lon="-2.237191">
        <ele>608.086</ele>
        <time>2021-03-21T11:05:15Z</time>
      </trkpt>
      <trkpt lat="43.088766" lon="-2.237226">
        <ele>607.876</ele>
        <time>2021-03-21T11:05:16Z</time>
      </trkpt>
      <trkpt lat="43.088772" lon="-2.237265">
        <ele>607.566</ele>
        <time>2021-03-21T11:05:17Z</time>
      </trkpt>
      <trkpt lat="43.088779" lon="-2.237303">
        <ele>607.343</ele>
        <time>2021-03-21T11:05:18Z</time>
      </trkpt>
      <trkpt lat="43.088784" lon="-2.237339">
        <ele>607.064</ele>
        <time>2021-03-21T11:05:19Z</time>
      </trkpt>
      <trkpt lat="43.088789" lon="-2.237375">
        <ele>606.810</ele>
        <time>2021-03-21T11:05:20Z</time>
      </trkpt>
      <trkpt lat="43.088796" lon="-2.237411">
        <ele>606.608</ele>
        <time>2021-03-21T11:05:21Z</time>
      </trkpt>
      <trkpt lat="43.088801" lon="-2.237449">
        <ele>606.380</ele>
        <time>2021-03-21T11:05:22Z</time>
      </trkpt>
      <trkpt lat="43.088808" lon="-2.237487">
        <ele>606.163</ele>
        <time>2021-03-21T11:05:23Z</time>
      </trkpt>
      <trkpt lat="43.088816" lon="-2.237523">
        <ele>606.196</ele>
        <time>2021-03-21T11:05:24Z</time>
      </trkpt>
      <trkpt lat="43.088823" lon="-2.237559">
        <ele>606.087</ele>
        <time>2021-03-21T11:05:25Z</time>
      </trkpt>
      <trkpt lat="43.088826" lon="-2.237596">
        <ele>605.874</ele>
        <time>2021-03-21T11:05:26Z</time>
      </trkpt>
      <trkpt lat="43.088831" lon="-2.237637">
        <ele>605.682</ele>
        <time>2021-03-21T11:05:27Z</time>
      </trkpt>
      <trkpt lat="43.088838" lon="-2.237675">
        <ele>605.582</ele>
        <time>2021-03-21T11:05:28Z</time>
      </trkpt>
      <trkpt lat="43.088844" lon="-2.237711">
        <ele>605.532</ele>
        <time>2021-03-21T11:05:29Z</time>
      </trkpt>
      <trkpt lat="43.088849" lon="-2.237748">
        <ele>605.386</ele>
        <time>2021-03-21T11:05:30Z</time>
      </trkpt>
      <trkpt lat="43.088854" lon="-2.237783">
        <ele>605.260</ele>
        <time>2021-03-21T11:05:31Z</time>
      </trkpt>
      <trkpt lat="43.088856" lon="-2.237815">
        <ele>605.226</ele>
        <time>2021-03-21T11:05:32Z</time>
      </trkpt>
      <trkpt lat="43.088860" lon="-2.237889">
        <ele>605.108</ele>
        <time>2021-03-21T11:05:33Z</time>
      </trkpt>
      <trkpt lat="43.088861" lon="-2.237925">
        <ele>605.174</ele>
        <time>2021-03-21T11:05:35Z</time>
      </trkpt>
      <trkpt lat="43.088860" lon="-2.237959">
        <ele>604.927</ele>
        <time>2021-03-21T11:05:36Z</time>
      </trkpt>
      <trkpt lat="43.088860" lon="-2.237991">
        <ele>604.860</ele>
        <time>2021-03-21T11:05:37Z</time>
      </trkpt>
      <trkpt lat="43.088862" lon="-2.238021">
        <ele>604.831</ele>
        <time>2021-03-21T11:05:38Z</time>
      </trkpt>
      <trkpt lat="43.088861" lon="-2.238054">
        <ele>604.688</ele>
        <time>2021-03-21T11:05:39Z</time>
      </trkpt>
      <trkpt lat="43.088856" lon="-2.238090">
        <ele>604.766</ele>
        <time>2021-03-21T11:05:40Z</time>
      </trkpt>
      <trkpt lat="43.088855" lon="-2.238123">
        <ele>605.046</ele>
        <time>2021-03-21T11:05:41Z</time>
      </trkpt>
      <trkpt lat="43.088851" lon="-2.238156">
        <ele>605.186</ele>
        <time>2021-03-21T11:05:42Z</time>
      </trkpt>
      <trkpt lat="43.088847" lon="-2.238189">
        <ele>605.388</ele>
        <time>2021-03-21T11:05:43Z</time>
      </trkpt>
      <trkpt lat="43.088844" lon="-2.238219">
        <ele>605.424</ele>
        <time>2021-03-21T11:05:44Z</time>
      </trkpt>
      <trkpt lat="43.088839" lon="-2.238251">
        <ele>605.526</ele>
        <time>2021-03-21T11:05:45Z</time>
      </trkpt>
      <trkpt lat="43.088830" lon="-2.238287">
        <ele>605.408</ele>
        <time>2021-03-21T11:05:46Z</time>
      </trkpt>
      <trkpt lat="43.088820" lon="-2.238321">
        <ele>605.274</ele>
        <time>2021-03-21T11:05:47Z</time>
      </trkpt>
      <trkpt lat="43.088809" lon="-2.238354">
        <ele>605.037</ele>
        <time>2021-03-21T11:05:48Z</time>
      </trkpt>
      <trkpt lat="43.088800" lon="-2.238390">
        <ele>605.060</ele>
        <time>2021-03-21T11:05:49Z</time>
      </trkpt>
      <trkpt lat="43.088793" lon="-2.238424">
        <ele>605.181</ele>
        <time>2021-03-21T11:05:50Z</time>
      </trkpt>
      <trkpt lat="43.088788" lon="-2.238456">
        <ele>605.338</ele>
        <time>2021-03-21T11:05:51Z</time>
      </trkpt>
      <trkpt lat="43.088778" lon="-2.238490">
        <ele>605.366</ele>
        <time>2021-03-21T11:05:52Z</time>
      </trkpt>
      <trkpt lat="43.088769" lon="-2.238522">
        <ele>605.286</ele>
        <time>2021-03-21T11:05:53Z</time>
      </trkpt>
      <trkpt lat="43.088761" lon="-2.238552">
        <ele>605.246</ele>
        <time>2021-03-21T11:05:54Z</time>
      </trkpt>
      <trkpt lat="43.088751" lon="-2.238585">
        <ele>605.258</ele>
        <time>2021-03-21T11:05:55Z</time>
      </trkpt>
      <trkpt lat="43.088743" lon="-2.238617">
        <ele>605.252</ele>
        <time>2021-03-21T11:05:56Z</time>
      </trkpt>
      <trkpt lat="43.088733" lon="-2.238647">
        <ele>605.117</ele>
        <time>2021-03-21T11:05:57Z</time>
      </trkpt>
      <trkpt lat="43.088719" lon="-2.238677">
        <ele>604.808</ele>
        <time>2021-03-21T11:05:58Z</time>
      </trkpt>
      <trkpt lat="43.088702" lon="-2.238712">
        <ele>604.471</ele>
        <time>2021-03-21T11:05:59Z</time>
      </trkpt>
      <trkpt lat="43.088688" lon="-2.238746">
        <ele>604.124</ele>
        <time>2021-03-21T11:06:00Z</time>
      </trkpt>
      <trkpt lat="43.088677" lon="-2.238777">
        <ele>603.957</ele>
        <time>2021-03-21T11:06:01Z</time>
      </trkpt>
      <trkpt lat="43.088662" lon="-2.238809">
        <ele>603.688</ele>
        <time>2021-03-21T11:06:02Z</time>
      </trkpt>
      <trkpt lat="43.088652" lon="-2.238840">
        <ele>603.555</ele>
        <time>2021-03-21T11:06:03Z</time>
      </trkpt>
      <trkpt lat="43.088647" lon="-2.238872">
        <ele>603.743</ele>
        <time>2021-03-21T11:06:04Z</time>
      </trkpt>
      <trkpt lat="43.088647" lon="-2.238903">
        <ele>604.213</ele>
        <time>2021-03-21T11:06:05Z</time>
      </trkpt>
      <trkpt lat="43.088645" lon="-2.238931">
        <ele>604.623</ele>
        <time>2021-03-21T11:06:06Z</time>
      </trkpt>
      <trkpt lat="43.088640" lon="-2.238958">
        <ele>604.863</ele>
        <time>2021-03-21T11:06:07Z</time>
      </trkpt>
      <trkpt lat="43.088629" lon="-2.238986">
        <ele>604.744</ele>
        <time>2021-03-21T11:06:08Z</time>
      </trkpt>
      <trkpt lat="43.088618" lon="-2.239013">
        <ele>604.618</ele>
        <time>2021-03-21T11:06:09Z</time>
      </trkpt>
      <trkpt lat="43.088611" lon="-2.239044">
        <ele>604.808</ele>
        <time>2021-03-21T11:06:10Z</time>
      </trkpt>
      <trkpt lat="43.088607" lon="-2.239071">
        <ele>605.142</ele>
        <time>2021-03-21T11:06:11Z</time>
      </trkpt>
      <trkpt lat="43.088600" lon="-2.239095">
        <ele>605.225</ele>
        <time>2021-03-21T11:06:12Z</time>
      </trkpt>
      <trkpt lat="43.088590" lon="-2.239118">
        <ele>605.198</ele>
        <time>2021-03-21T11:06:13Z</time>
      </trkpt>
      <trkpt lat="43.088578" lon="-2.239144">
        <ele>605.099</ele>
        <time>2021-03-21T11:06:14Z</time>
      </trkpt>
      <trkpt lat="43.088567" lon="-2.239170">
        <ele>605.036</ele>
        <time>2021-03-21T11:06:15Z</time>
      </trkpt>
      <trkpt lat="43.088558" lon="-2.239195">
        <ele>605.014</ele>
        <time>2021-03-21T11:06:16Z</time>
      </trkpt>
      <trkpt lat="43.088549" lon="-2.239222">
        <ele>605.054</ele>
        <time>2021-03-21T11:06:17Z</time>
      </trkpt>
      <trkpt lat="43.088539" lon="-2.239249">
        <ele>605.084</ele>
        <time>2021-03-21T11:06:18Z</time>
      </trkpt>
      <trkpt lat="43.088529" lon="-2.239271">
        <ele>605.055</ele>
        <time>2021-03-21T11:06:19Z</time>
      </trkpt>
      <trkpt lat="43.088513" lon="-2.239293">
        <ele>604.707</ele>
        <time>2021-03-21T11:06:20Z</time>
      </trkpt>
      <trkpt lat="43.088499" lon="-2.239316">
        <ele>604.617</ele>
        <time>2021-03-21T11:06:21Z</time>
      </trkpt>
      <trkpt lat="43.088484" lon="-2.239342">
        <ele>604.408</ele>
        <time>2021-03-21T11:06:22Z</time>
      </trkpt>
      <trkpt lat="43.088469" lon="-2.239368">
        <ele>604.471</ele>
        <time>2021-03-21T11:06:23Z</time>
      </trkpt>
      <trkpt lat="43.088451" lon="-2.239396">
        <ele>604.274</ele>
        <time>2021-03-21T11:06:24Z</time>
      </trkpt>
      <trkpt lat="43.088430" lon="-2.239422">
        <ele>604.087</ele>
        <time>2021-03-21T11:06:25Z</time>
      </trkpt>
      <trkpt lat="43.088409" lon="-2.239448">
        <ele>603.878</ele>
        <time>2021-03-21T11:06:26Z</time>
      </trkpt>
      <trkpt lat="43.088387" lon="-2.239476">
        <ele>603.585</ele>
        <time>2021-03-21T11:06:27Z</time>
      </trkpt>
      <trkpt lat="43.088367" lon="-2.239499">
        <ele>603.313</ele>
        <time>2021-03-21T11:06:28Z</time>
      </trkpt>
      <trkpt lat="43.088352" lon="-2.239519">
        <ele>603.243</ele>
        <time>2021-03-21T11:06:29Z</time>
      </trkpt>
      <trkpt lat="43.088334" lon="-2.239540">
        <ele>603.163</ele>
        <time>2021-03-21T11:06:30Z</time>
      </trkpt>
      <trkpt lat="43.088319" lon="-2.239564">
        <ele>603.262</ele>
        <time>2021-03-21T11:06:31Z</time>
      </trkpt>
      <trkpt lat="43.088303" lon="-2.239588">
        <ele>603.283</ele>
        <time>2021-03-21T11:06:32Z</time>
      </trkpt>
      <trkpt lat="43.088284" lon="-2.239610">
        <ele>603.211</ele>
        <time>2021-03-21T11:06:33Z</time>
      </trkpt>
      <trkpt lat="43.088263" lon="-2.239632">
        <ele>603.108</ele>
        <time>2021-03-21T11:06:34Z</time>
      </trkpt>
      <trkpt lat="43.088246" lon="-2.239650">
        <ele>603.192</ele>
        <time>2021-03-21T11:06:35Z</time>
      </trkpt>
      <trkpt lat="43.088229" lon="-2.239668">
        <ele>603.125</ele>
        <time>2021-03-21T11:06:36Z</time>
      </trkpt>
      <trkpt lat="43.088210" lon="-2.239693">
        <ele>603.288</ele>
        <time>2021-03-21T11:06:37Z</time>
      </trkpt>
      <trkpt lat="43.088192" lon="-2.239719">
        <ele>603.499</ele>
        <time>2021-03-21T11:06:38Z</time>
      </trkpt>
      <trkpt lat="43.088172" lon="-2.239738">
        <ele>603.296</ele>
        <time>2021-03-21T11:06:39Z</time>
      </trkpt>
      <trkpt lat="43.088149" lon="-2.239754">
        <ele>602.964</ele>
        <time>2021-03-21T11:06:40Z</time>
      </trkpt>
      <trkpt lat="43.088126" lon="-2.239769">
        <ele>602.754</ele>
        <time>2021-03-21T11:06:41Z</time>
      </trkpt>
      <trkpt lat="43.088106" lon="-2.239783">
        <ele>602.544</ele>
        <time>2021-03-21T11:06:42Z</time>
      </trkpt>
      <trkpt lat="43.088086" lon="-2.239801">
        <ele>602.446</ele>
        <time>2021-03-21T11:06:43Z</time>
      </trkpt>
      <trkpt lat="43.088068" lon="-2.239818">
        <ele>602.388</ele>
        <time>2021-03-21T11:06:44Z</time>
      </trkpt>
      <trkpt lat="43.088053" lon="-2.239835">
        <ele>602.416</ele>
        <time>2021-03-21T11:06:45Z</time>
      </trkpt>
      <trkpt lat="43.088037" lon="-2.239850">
        <ele>602.408</ele>
        <time>2021-03-21T11:06:46Z</time>
      </trkpt>
      <trkpt lat="43.088022" lon="-2.239865">
        <ele>602.440</ele>
        <time>2021-03-21T11:06:47Z</time>
      </trkpt>
      <trkpt lat="43.088006" lon="-2.239884">
        <ele>602.513</ele>
        <time>2021-03-21T11:06:48Z</time>
      </trkpt>
      <trkpt lat="43.087991" lon="-2.239910">
        <ele>602.786</ele>
        <time>2021-03-21T11:06:49Z</time>
      </trkpt>
      <trkpt lat="43.087979" lon="-2.239941">
        <ele>603.217</ele>
        <time>2021-03-21T11:06:50Z</time>
      </trkpt>
      <trkpt lat="43.087971" lon="-2.239969">
        <ele>603.714</ele>
        <time>2021-03-21T11:06:51Z</time>
      </trkpt>
      <trkpt lat="43.087961" lon="-2.239999">
        <ele>604.332</ele>
        <time>2021-03-21T11:06:52Z</time>
      </trkpt>
      <trkpt lat="43.087956" lon="-2.240028">
        <ele>604.412</ele>
        <time>2021-03-21T11:06:53Z</time>
      </trkpt>
      <trkpt lat="43.087952" lon="-2.240053">
        <ele>604.682</ele>
        <time>2021-03-21T11:06:54Z</time>
      </trkpt>
      <trkpt lat="43.087948" lon="-2.240077">
        <ele>604.729</ele>
        <time>2021-03-21T11:06:55Z</time>
      </trkpt>
      <trkpt lat="43.087944" lon="-2.240103">
        <ele>604.900</ele>
        <time>2021-03-21T11:06:56Z</time>
      </trkpt>
      <trkpt lat="43.087940" lon="-2.240132">
        <ele>605.120</ele>
        <time>2021-03-21T11:06:57Z</time>
      </trkpt>
      <trkpt lat="43.087933" lon="-2.240159">
        <ele>605.208</ele>
        <time>2021-03-21T11:06:58Z</time>
      </trkpt>
      <trkpt lat="43.087922" lon="-2.240179">
        <ele>605.288</ele>
        <time>2021-03-21T11:06:59Z</time>
      </trkpt>
      <trkpt lat="43.087907" lon="-2.240203">
        <ele>605.291</ele>
        <time>2021-03-21T11:07:00Z</time>
      </trkpt>
      <trkpt lat="43.087891" lon="-2.240231">
        <ele>605.274</ele>
        <time>2021-03-21T11:07:01Z</time>
      </trkpt>
      <trkpt lat="43.087874" lon="-2.240263">
        <ele>605.225</ele>
        <time>2021-03-21T11:07:02Z</time>
      </trkpt>
      <trkpt lat="43.087858" lon="-2.240296">
        <ele>605.022</ele>
        <time>2021-03-21T11:07:03Z</time>
      </trkpt>
      <trkpt lat="43.087844" lon="-2.240328">
        <ele>604.540</ele>
        <time>2021-03-21T11:07:04Z</time>
      </trkpt>
      <trkpt lat="43.087830" lon="-2.240363">
        <ele>604.120</ele>
        <time>2021-03-21T11:07:05Z</time>
      </trkpt>
      <trkpt lat="43.087820" lon="-2.240399">
        <ele>603.760</ele>
        <time>2021-03-21T11:07:06Z</time>
      </trkpt>
      <trkpt lat="43.087811" lon="-2.240439">
        <ele>603.298</ele>
        <time>2021-03-21T11:07:07Z</time>
      </trkpt>
      <trkpt lat="43.087801" lon="-2.240480">
        <ele>602.815</ele>
        <time>2021-03-21T11:07:08Z</time>
      </trkpt>
      <trkpt lat="43.087793" lon="-2.240518">
        <ele>602.426</ele>
        <time>2021-03-21T11:07:09Z</time>
      </trkpt>
      <trkpt lat="43.087781" lon="-2.240552">
        <ele>602.108</ele>
        <time>2021-03-21T11:07:10Z</time>
      </trkpt>
      <trkpt lat="43.087769" lon="-2.240580">
        <ele>601.425</ele>
        <time>2021-03-21T11:07:11Z</time>
      </trkpt>
      <trkpt lat="43.087754" lon="-2.240599">
        <ele>600.858</ele>
        <time>2021-03-21T11:07:12Z</time>
      </trkpt>
      <trkpt lat="43.087730" lon="-2.240612">
        <ele>600.191</ele>
        <time>2021-03-21T11:07:13Z</time>
      </trkpt>
      <trkpt lat="43.087707" lon="-2.240621">
        <ele>599.622</ele>
        <time>2021-03-21T11:07:14Z</time>
      </trkpt>
      <trkpt lat="43.087689" lon="-2.240622">
        <ele>599.329</ele>
        <time>2021-03-21T11:07:15Z</time>
      </trkpt>
      <trkpt lat="43.087672" lon="-2.240626">
        <ele>598.947</ele>
        <time>2021-03-21T11:07:16Z</time>
      </trkpt>
      <trkpt lat="43.087650" lon="-2.240647">
        <ele>598.437</ele>
        <time>2021-03-21T11:07:18Z</time>
      </trkpt>
      <trkpt lat="43.087642" lon="-2.240675">
        <ele>598.047</ele>
        <time>2021-03-21T11:07:19Z</time>
      </trkpt>
      <trkpt lat="43.087638" lon="-2.240710">
        <ele>597.676</ele>
        <time>2021-03-21T11:07:20Z</time>
      </trkpt>
      <trkpt lat="43.087635" lon="-2.240745">
        <ele>597.390</ele>
        <time>2021-03-21T11:07:21Z</time>
      </trkpt>
      <trkpt lat="43.087639" lon="-2.240782">
        <ele>597.019</ele>
        <time>2021-03-21T11:07:22Z</time>
      </trkpt>
      <trkpt lat="43.087656" lon="-2.240816">
        <ele>596.708</ele>
        <time>2021-03-21T11:07:23Z</time>
      </trkpt>
      <trkpt lat="43.087680" lon="-2.240839">
        <ele>596.573</ele>
        <time>2021-03-21T11:07:24Z</time>
      </trkpt>
      <trkpt lat="43.087700" lon="-2.240855">
        <ele>596.396</ele>
        <time>2021-03-21T11:07:25Z</time>
      </trkpt>
      <trkpt lat="43.087717" lon="-2.240875">
        <ele>596.079</ele>
        <time>2021-03-21T11:07:26Z</time>
      </trkpt>
      <trkpt lat="43.087728" lon="-2.240899">
        <ele>595.650</ele>
        <time>2021-03-21T11:07:27Z</time>
      </trkpt>
      <trkpt lat="43.087729" lon="-2.240927">
        <ele>595.177</ele>
        <time>2021-03-21T11:07:28Z</time>
      </trkpt>
      <trkpt lat="43.087726" lon="-2.240960">
        <ele>594.515</ele>
        <time>2021-03-21T11:07:29Z</time>
      </trkpt>
      <trkpt lat="43.087718" lon="-2.240993">
        <ele>593.925</ele>
        <time>2021-03-21T11:07:30Z</time>
      </trkpt>
      <trkpt lat="43.087706" lon="-2.241025">
        <ele>593.345</ele>
        <time>2021-03-21T11:07:31Z</time>
      </trkpt>
      <trkpt lat="43.087694" lon="-2.241054">
        <ele>592.735</ele>
        <time>2021-03-21T11:07:32Z</time>
      </trkpt>
      <trkpt lat="43.087684" lon="-2.241077">
        <ele>592.386</ele>
        <time>2021-03-21T11:07:33Z</time>
      </trkpt>
      <trkpt lat="43.087661" lon="-2.241116">
        <ele>591.514</ele>
        <time>2021-03-21T11:07:35Z</time>
      </trkpt>
      <trkpt lat="43.087646" lon="-2.241158">
        <ele>590.508</ele>
        <time>2021-03-21T11:07:37Z</time>
      </trkpt>
      <trkpt lat="43.087631" lon="-2.241204">
        <ele>589.589</ele>
        <time>2021-03-21T11:07:39Z</time>
      </trkpt>
      <trkpt lat="43.087632" lon="-2.241236">
        <ele>588.822</ele>
        <time>2021-03-21T11:07:40Z</time>
      </trkpt>
      <trkpt lat="43.087635" lon="-2.241272">
        <ele>588.055</ele>
        <time>2021-03-21T11:07:41Z</time>
      </trkpt>
      <trkpt lat="43.087631" lon="-2.241308">
        <ele>587.236</ele>
        <time>2021-03-21T11:07:42Z</time>
      </trkpt>
      <trkpt lat="43.087621" lon="-2.241335">
        <ele>586.653</ele>
        <time>2021-03-21T11:07:43Z</time>
      </trkpt>
      <trkpt lat="43.087610" lon="-2.241363">
        <ele>586.041</ele>
        <time>2021-03-21T11:07:44Z</time>
      </trkpt>
      <trkpt lat="43.087598" lon="-2.241388">
        <ele>585.461</ele>
        <time>2021-03-21T11:07:45Z</time>
      </trkpt>
      <trkpt lat="43.087588" lon="-2.241418">
        <ele>584.751</ele>
        <time>2021-03-21T11:07:46Z</time>
      </trkpt>
      <trkpt lat="43.087579" lon="-2.241447">
        <ele>584.086</ele>
        <time>2021-03-21T11:07:47Z</time>
      </trkpt>
      <trkpt lat="43.087572" lon="-2.241477">
        <ele>583.460</ele>
        <time>2021-03-21T11:07:48Z</time>
      </trkpt>
      <trkpt lat="43.087567" lon="-2.241509">
        <ele>582.626</ele>
        <time>2021-03-21T11:07:49Z</time>
      </trkpt>
      <trkpt lat="43.087560" lon="-2.241536">
        <ele>582.008</ele>
        <time>2021-03-21T11:07:50Z</time>
      </trkpt>
      <trkpt lat="43.087548" lon="-2.241563">
        <ele>581.484</ele>
        <time>2021-03-21T11:07:51Z</time>
      </trkpt>
      <trkpt lat="43.087534" lon="-2.241592">
        <ele>580.797</ele>
        <time>2021-03-21T11:07:52Z</time>
      </trkpt>
      <trkpt lat="43.087523" lon="-2.241621">
        <ele>580.170</ele>
        <time>2021-03-21T11:07:53Z</time>
      </trkpt>
      <trkpt lat="43.087511" lon="-2.241648">
        <ele>579.461</ele>
        <time>2021-03-21T11:07:54Z</time>
      </trkpt>
      <trkpt lat="43.087500" lon="-2.241677">
        <ele>578.858</ele>
        <time>2021-03-21T11:07:55Z</time>
      </trkpt>
      <trkpt lat="43.087489" lon="-2.241712">
        <ele>578.156</ele>
        <time>2021-03-21T11:07:56Z</time>
      </trkpt>
      <trkpt lat="43.087481" lon="-2.241746">
        <ele>577.566</ele>
        <time>2021-03-21T11:07:57Z</time>
      </trkpt>
      <trkpt lat="43.087475" lon="-2.241774">
        <ele>577.026</ele>
        <time>2021-03-21T11:07:58Z</time>
      </trkpt>
      <trkpt lat="43.087472" lon="-2.241806">
        <ele>576.473</ele>
        <time>2021-03-21T11:07:59Z</time>
      </trkpt>
      <trkpt lat="43.087470" lon="-2.241844">
        <ele>575.785</ele>
        <time>2021-03-21T11:08:00Z</time>
      </trkpt>
      <trkpt lat="43.087465" lon="-2.241880">
        <ele>575.013</ele>
        <time>2021-03-21T11:08:01Z</time>
      </trkpt>
      <trkpt lat="43.087457" lon="-2.241919">
        <ele>574.308</ele>
        <time>2021-03-21T11:08:02Z</time>
      </trkpt>
      <trkpt lat="43.087453" lon="-2.241962">
        <ele>573.553</ele>
        <time>2021-03-21T11:08:03Z</time>
      </trkpt>
      <trkpt lat="43.087450" lon="-2.242003">
        <ele>572.846</ele>
        <time>2021-03-21T11:08:04Z</time>
      </trkpt>
      <trkpt lat="43.087444" lon="-2.242040">
        <ele>572.179</ele>
        <time>2021-03-21T11:08:05Z</time>
      </trkpt>
      <trkpt lat="43.087437" lon="-2.242077">
        <ele>571.410</ele>
        <time>2021-03-21T11:08:06Z</time>
      </trkpt>
      <trkpt lat="43.087428" lon="-2.242115">
        <ele>570.737</ele>
        <time>2021-03-21T11:08:07Z</time>
      </trkpt>
      <trkpt lat="43.087422" lon="-2.242147">
        <ele>570.185</ele>
        <time>2021-03-21T11:08:08Z</time>
      </trkpt>
      <trkpt lat="43.087415" lon="-2.242177">
        <ele>569.585</ele>
        <time>2021-03-21T11:08:09Z</time>
      </trkpt>
      <trkpt lat="43.087413" lon="-2.242210">
        <ele>568.925</ele>
        <time>2021-03-21T11:08:10Z</time>
      </trkpt>
      <trkpt lat="43.087410" lon="-2.242255">
        <ele>568.283</ele>
        <time>2021-03-21T11:08:11Z</time>
      </trkpt>
      <trkpt lat="43.087407" lon="-2.242299">
        <ele>567.525</ele>
        <time>2021-03-21T11:08:12Z</time>
      </trkpt>
      <trkpt lat="43.087411" lon="-2.242347">
        <ele>566.717</ele>
        <time>2021-03-21T11:08:13Z</time>
      </trkpt>
      <trkpt lat="43.087413" lon="-2.242391">
        <ele>566.108</ele>
        <time>2021-03-21T11:08:14Z</time>
      </trkpt>
      <trkpt lat="43.087408" lon="-2.242434">
        <ele>565.474</ele>
        <time>2021-03-21T11:08:15Z</time>
      </trkpt>
      <trkpt lat="43.087404" lon="-2.242472">
        <ele>564.737</ele>
        <time>2021-03-21T11:08:16Z</time>
      </trkpt>
      <trkpt lat="43.087401" lon="-2.242506">
        <ele>564.230</ele>
        <time>2021-03-21T11:08:17Z</time>
      </trkpt>
      <trkpt lat="43.087400" lon="-2.242537">
        <ele>563.771</ele>
        <time>2021-03-21T11:08:18Z</time>
      </trkpt>
      <trkpt lat="43.087401" lon="-2.242566">
        <ele>563.328</ele>
        <time>2021-03-21T11:08:19Z</time>
      </trkpt>
      <trkpt lat="43.087399" lon="-2.242593">
        <ele>562.946</ele>
        <time>2021-03-21T11:08:20Z</time>
      </trkpt>
      <trkpt lat="43.087402" lon="-2.242625">
        <ele>562.556</ele>
        <time>2021-03-21T11:08:21Z</time>
      </trkpt>
      <trkpt lat="43.087403" lon="-2.242667">
        <ele>561.926</ele>
        <time>2021-03-21T11:08:22Z</time>
      </trkpt>
      <trkpt lat="43.087405" lon="-2.242711">
        <ele>561.399</ele>
        <time>2021-03-21T11:08:23Z</time>
      </trkpt>
      <trkpt lat="43.087408" lon="-2.242755">
        <ele>560.707</ele>
        <time>2021-03-21T11:08:24Z</time>
      </trkpt>
      <trkpt lat="43.087415" lon="-2.242796">
        <ele>560.127</ele>
        <time>2021-03-21T11:08:25Z</time>
      </trkpt>
      <trkpt lat="43.087421" lon="-2.242833">
        <ele>559.708</ele>
        <time>2021-03-21T11:08:26Z</time>
      </trkpt>
      <trkpt lat="43.087424" lon="-2.242868">
        <ele>559.225</ele>
        <time>2021-03-21T11:08:27Z</time>
      </trkpt>
      <trkpt lat="43.087425" lon="-2.242896">
        <ele>558.978</ele>
        <time>2021-03-21T11:08:28Z</time>
      </trkpt>
      <trkpt lat="43.087426" lon="-2.242940">
        <ele>558.311</ele>
        <time>2021-03-21T11:08:30Z</time>
      </trkpt>
      <trkpt lat="43.087430" lon="-2.242966">
        <ele>558.032</ele>
        <time>2021-03-21T11:08:32Z</time>
      </trkpt>
      <trkpt lat="43.087438" lon="-2.242987">
        <ele>557.729</ele>
        <time>2021-03-21T11:08:33Z</time>
      </trkpt>
      <trkpt lat="43.087442" lon="-2.243012">
        <ele>557.427</ele>
        <time>2021-03-21T11:08:34Z</time>
      </trkpt>
      <trkpt lat="43.087433" lon="-2.243055">
        <ele>556.827</ele>
        <time>2021-03-21T11:08:36Z</time>
      </trkpt>
      <trkpt lat="43.087427" lon="-2.243079">
        <ele>556.577</ele>
        <time>2021-03-21T11:08:38Z</time>
      </trkpt>
      <trkpt lat="43.087427" lon="-2.243123">
        <ele>556.111</ele>
        <time>2021-03-21T11:08:42Z</time>
      </trkpt>
      <trkpt lat="43.087435" lon="-2.243154">
        <ele>555.921</ele>
        <time>2021-03-21T11:08:43Z</time>
      </trkpt>
      <trkpt lat="43.087441" lon="-2.243187">
        <ele>555.603</ele>
        <time>2021-03-21T11:08:44Z</time>
      </trkpt>
      <trkpt lat="43.087444" lon="-2.243219">
        <ele>555.408</ele>
        <time>2021-03-21T11:08:45Z</time>
      </trkpt>
      <trkpt lat="43.087442" lon="-2.243251">
        <ele>555.147</ele>
        <time>2021-03-21T11:08:46Z</time>
      </trkpt>
      <trkpt lat="43.087434" lon="-2.243274">
        <ele>554.830</ele>
        <time>2021-03-21T11:08:47Z</time>
      </trkpt>
      <trkpt lat="43.087420" lon="-2.243296">
        <ele>554.583</ele>
        <time>2021-03-21T11:08:49Z</time>
      </trkpt>
      <trkpt lat="43.087400" lon="-2.243323">
        <ele>554.024</ele>
        <time>2021-03-21T11:08:50Z</time>
      </trkpt>
      <trkpt lat="43.087384" lon="-2.243358">
        <ele>553.691</ele>
        <time>2021-03-21T11:08:52Z</time>
      </trkpt>
      <trkpt lat="43.087375" lon="-2.243383">
        <ele>553.379</ele>
        <time>2021-03-21T11:08:53Z</time>
      </trkpt>
      <trkpt lat="43.087369" lon="-2.243405">
        <ele>553.199</ele>
        <time>2021-03-21T11:08:54Z</time>
      </trkpt>
      <trkpt lat="43.087362" lon="-2.243431">
        <ele>552.879</ele>
        <time>2021-03-21T11:08:55Z</time>
      </trkpt>
      <trkpt lat="43.087349" lon="-2.243459">
        <ele>552.551</ele>
        <time>2021-03-21T11:08:56Z</time>
      </trkpt>
      <trkpt lat="43.087339" lon="-2.243488">
        <ele>552.101</ele>
        <time>2021-03-21T11:08:57Z</time>
      </trkpt>
      <trkpt lat="43.087333" lon="-2.243516">
        <ele>551.911</ele>
        <time>2021-03-21T11:08:58Z</time>
      </trkpt>
      <trkpt lat="43.087329" lon="-2.243544">
        <ele>551.608</ele>
        <time>2021-03-21T11:08:59Z</time>
      </trkpt>
      <trkpt lat="43.087325" lon="-2.243575">
        <ele>551.441</ele>
        <time>2021-03-21T11:09:01Z</time>
      </trkpt>
      <trkpt lat="43.087310" lon="-2.243592">
        <ele>551.134</ele>
        <time>2021-03-21T11:09:03Z</time>
      </trkpt>
      <trkpt lat="43.087300" lon="-2.243618">
        <ele>550.867</ele>
        <time>2021-03-21T11:09:04Z</time>
      </trkpt>
      <trkpt lat="43.087291" lon="-2.243645">
        <ele>550.488</ele>
        <time>2021-03-21T11:09:05Z</time>
      </trkpt>
      <trkpt lat="43.087279" lon="-2.243677">
        <ele>550.085</ele>
        <time>2021-03-21T11:09:06Z</time>
      </trkpt>
      <trkpt lat="43.087270" lon="-2.243711">
        <ele>549.533</ele>
        <time>2021-03-21T11:09:07Z</time>
      </trkpt>
      <trkpt lat="43.087265" lon="-2.243743">
        <ele>549.123</ele>
        <time>2021-03-21T11:09:08Z</time>
      </trkpt>
      <trkpt lat="43.087260" lon="-2.243775">
        <ele>548.793</ele>
        <time>2021-03-21T11:09:09Z</time>
      </trkpt>
      <trkpt lat="43.087258" lon="-2.243804">
        <ele>548.429</ele>
        <time>2021-03-21T11:09:10Z</time>
      </trkpt>
      <trkpt lat="43.087262" lon="-2.243857">
        <ele>547.900</ele>
        <time>2021-03-21T11:09:12Z</time>
      </trkpt>
      <trkpt lat="43.087271" lon="-2.243884">
        <ele>547.820</ele>
        <time>2021-03-21T11:09:13Z</time>
      </trkpt>
      <trkpt lat="43.087279" lon="-2.243907">
        <ele>547.708</ele>
        <time>2021-03-21T11:09:14Z</time>
      </trkpt>
      <trkpt lat="43.087288" lon="-2.243927">
        <ele>547.678</ele>
        <time>2021-03-21T11:09:15Z</time>
      </trkpt>
      <trkpt lat="43.087307" lon="-2.243956">
        <ele>547.791</ele>
        <time>2021-03-21T11:09:17Z</time>
      </trkpt>
      <trkpt lat="43.087322" lon="-2.243986">
        <ele>547.674</ele>
        <time>2021-03-21T11:09:19Z</time>
      </trkpt>
      <trkpt lat="43.087338" lon="-2.244013">
        <ele>547.655</ele>
        <time>2021-03-21T11:09:21Z</time>
      </trkpt>
      <trkpt lat="43.087349" lon="-2.244033">
        <ele>547.622</ele>
        <time>2021-03-21T11:09:23Z</time>
      </trkpt>
      <trkpt lat="43.087332" lon="-2.244058">
        <ele>547.190</ele>
        <time>2021-03-21T11:09:30Z</time>
      </trkpt>
      <trkpt lat="43.087332" lon="-2.244083">
        <ele>546.980</ele>
        <time>2021-03-21T11:09:31Z</time>
      </trkpt>
      <trkpt lat="43.087337" lon="-2.244112">
        <ele>546.710</ele>
        <time>2021-03-21T11:09:32Z</time>
      </trkpt>
      <trkpt lat="43.087335" lon="-2.244147">
        <ele>546.419</ele>
        <time>2021-03-21T11:09:33Z</time>
      </trkpt>
      <trkpt lat="43.087329" lon="-2.244182">
        <ele>546.009</ele>
        <time>2021-03-21T11:09:34Z</time>
      </trkpt>
      <trkpt lat="43.087319" lon="-2.244211">
        <ele>545.719</ele>
        <time>2021-03-21T11:09:35Z</time>
      </trkpt>
      <trkpt lat="43.087308" lon="-2.244237">
        <ele>545.408</ele>
        <time>2021-03-21T11:09:36Z</time>
      </trkpt>
      <trkpt lat="43.087300" lon="-2.244258">
        <ele>545.267</ele>
        <time>2021-03-21T11:09:37Z</time>
      </trkpt>
      <trkpt lat="43.087288" lon="-2.244297">
        <ele>544.880</ele>
        <time>2021-03-21T11:09:39Z</time>
      </trkpt>
      <trkpt lat="43.087275" lon="-2.244332">
        <ele>544.483</ele>
        <time>2021-03-21T11:09:41Z</time>
      </trkpt>
      <trkpt lat="43.087256" lon="-2.244360">
        <ele>544.054</ele>
        <time>2021-03-21T11:09:43Z</time>
      </trkpt>
      <trkpt lat="43.087235" lon="-2.244386">
        <ele>543.671</ele>
        <time>2021-03-21T11:09:45Z</time>
      </trkpt>
      <trkpt lat="43.087214" lon="-2.244409">
        <ele>543.199</ele>
        <time>2021-03-21T11:09:47Z</time>
      </trkpt>
      <trkpt lat="43.087204" lon="-2.244423">
        <ele>542.929</ele>
        <time>2021-03-21T11:09:48Z</time>
      </trkpt>
      <trkpt lat="43.087186" lon="-2.244451">
        <ele>542.529</ele>
        <time>2021-03-21T11:09:50Z</time>
      </trkpt>
      <trkpt lat="43.087169" lon="-2.244480">
        <ele>542.124</ele>
        <time>2021-03-21T11:09:52Z</time>
      </trkpt>
      <trkpt lat="43.087154" lon="-2.244509">
        <ele>541.804</ele>
        <time>2021-03-21T11:09:54Z</time>
      </trkpt>
      <trkpt lat="43.087139" lon="-2.244543">
        <ele>541.614</ele>
        <time>2021-03-21T11:09:56Z</time>
      </trkpt>
      <trkpt lat="43.087126" lon="-2.244576">
        <ele>541.308</ele>
        <time>2021-03-21T11:09:58Z</time>
      </trkpt>
      <trkpt lat="43.087113" lon="-2.244610">
        <ele>541.158</ele>
        <time>2021-03-21T11:10:00Z</time>
      </trkpt>
      <trkpt lat="43.087097" lon="-2.244639">
        <ele>540.851</ele>
        <time>2021-03-21T11:10:02Z</time>
      </trkpt>
      <trkpt lat="43.087080" lon="-2.244669">
        <ele>540.664</ele>
        <time>2021-03-21T11:10:04Z</time>
      </trkpt>
      <trkpt lat="43.087064" lon="-2.244699">
        <ele>540.375</ele>
        <time>2021-03-21T11:10:06Z</time>
      </trkpt>
      <trkpt lat="43.087043" lon="-2.244728">
        <ele>540.172</ele>
        <time>2021-03-21T11:10:08Z</time>
      </trkpt>
      <trkpt lat="43.087025" lon="-2.244763">
        <ele>539.950</ele>
        <time>2021-03-21T11:10:10Z</time>
      </trkpt>
      <trkpt lat="43.087012" lon="-2.244797">
        <ele>539.910</ele>
        <time>2021-03-21T11:10:12Z</time>
      </trkpt>
      <trkpt lat="43.086999" lon="-2.244829">
        <ele>539.850</ele>
        <time>2021-03-21T11:10:14Z</time>
      </trkpt>
      <trkpt lat="43.086986" lon="-2.244864">
        <ele>539.843</ele>
        <time>2021-03-21T11:10:16Z</time>
      </trkpt>
      <trkpt lat="43.086973" lon="-2.244897">
        <ele>539.864</ele>
        <time>2021-03-21T11:10:18Z</time>
      </trkpt>
      <trkpt lat="43.086959" lon="-2.244930">
        <ele>539.810</ele>
        <time>2021-03-21T11:10:20Z</time>
      </trkpt>
      <trkpt lat="43.086951" lon="-2.244963">
        <ele>539.908</ele>
        <time>2021-03-21T11:10:22Z</time>
      </trkpt>
      <trkpt lat="43.086953" lon="-2.244993">
        <ele>540.030</ele>
        <time>2021-03-21T11:10:24Z</time>
      </trkpt>
      <trkpt lat="43.086957" lon="-2.245018">
        <ele>540.223</ele>
        <time>2021-03-21T11:10:26Z</time>
      </trkpt>
      <trkpt lat="43.086955" lon="-2.245041">
        <ele>540.336</ele>
        <time>2021-03-21T11:10:32Z</time>
      </trkpt>
      <trkpt lat="43.086972" lon="-2.245058">
        <ele>540.527</ele>
        <time>2021-03-21T11:10:40Z</time>
      </trkpt>
      <trkpt lat="43.086990" lon="-2.245068">
        <ele>540.684</ele>
        <time>2021-03-21T11:10:42Z</time>
      </trkpt>
      <trkpt lat="43.087006" lon="-2.245079">
        <ele>540.722</ele>
        <time>2021-03-21T11:10:44Z</time>
      </trkpt>
      <trkpt lat="43.087025" lon="-2.245087">
        <ele>540.762</ele>
        <time>2021-03-21T11:10:46Z</time>
      </trkpt>
      <trkpt lat="43.087043" lon="-2.245095">
        <ele>540.892</ele>
        <time>2021-03-21T11:10:48Z</time>
      </trkpt>
      <trkpt lat="43.087064" lon="-2.245107">
        <ele>540.947</ele>
        <time>2021-03-21T11:10:51Z</time>
      </trkpt>
      <trkpt lat="43.087071" lon="-2.245112">
        <ele>540.929</ele>
        <time>2021-03-21T11:10:52Z</time>
      </trkpt>
      <trkpt lat="43.087411" lon="-2.245143">
        <ele>542.718</ele>
        <time>2021-04-06T07:15:20Z</time>
      </trkpt>
      <trkpt lat="43.087395" lon="-2.245133">
        <ele>542.698</ele>
        <time>2021-04-06T07:15:21Z</time>
      </trkpt>
      <trkpt lat="43.087372" lon="-2.245131">
        <ele>542.417</ele>
        <time>2021-04-06T07:15:23Z</time>
      </trkpt>
      <trkpt lat="43.087348" lon="-2.245129">
        <ele>542.108</ele>
        <time>2021-04-06T07:15:24Z</time>
      </trkpt>
      <trkpt lat="43.087329" lon="-2.245130">
        <ele>542.058</ele>
        <time>2021-04-06T07:15:27Z</time>
      </trkpt>
      <trkpt lat="43.087311" lon="-2.245133">
        <ele>541.871</ele>
        <time>2021-04-06T07:15:28Z</time>
      </trkpt>
      <trkpt lat="43.087290" lon="-2.245142">
        <ele>541.682</ele>
        <time>2021-04-06T07:15:30Z</time>
      </trkpt>
      <trkpt lat="43.087273" lon="-2.245167">
        <ele>541.467</ele>
        <time>2021-04-06T07:15:32Z</time>
      </trkpt>
      <trkpt lat="43.087263" lon="-2.245198">
        <ele>541.342</ele>
        <time>2021-04-06T07:15:35Z</time>
      </trkpt>
      <trkpt lat="43.087257" lon="-2.245230">
        <ele>541.380</ele>
        <time>2021-04-06T07:15:37Z</time>
      </trkpt>
      <trkpt lat="43.087260" lon="-2.245262">
        <ele>541.377</ele>
        <time>2021-04-06T07:15:38Z</time>
      </trkpt>
      <trkpt lat="43.087265" lon="-2.245292">
        <ele>541.395</ele>
        <time>2021-04-06T07:15:40Z</time>
      </trkpt>
      <trkpt lat="43.087269" lon="-2.245322">
        <ele>541.332</ele>
        <time>2021-04-06T07:15:43Z</time>
      </trkpt>
      <trkpt lat="43.087268" lon="-2.245357">
        <ele>541.292</ele>
        <time>2021-04-06T07:15:46Z</time>
      </trkpt>
      <trkpt lat="43.087272" lon="-2.245381">
        <ele>541.211</ele>
        <time>2021-04-06T07:15:48Z</time>
      </trkpt>
      <trkpt lat="43.087276" lon="-2.245412">
        <ele>541.208</ele>
        <time>2021-04-06T07:15:51Z</time>
      </trkpt>
      <trkpt lat="43.087298" lon="-2.245426">
        <ele>541.310</ele>
        <time>2021-04-06T07:15:52Z</time>
      </trkpt>
      <trkpt lat="43.087322" lon="-2.245441">
        <ele>541.393</ele>
        <time>2021-04-06T07:15:53Z</time>
      </trkpt>
      <trkpt lat="43.087344" lon="-2.245450">
        <ele>541.354</ele>
        <time>2021-04-06T07:15:54Z</time>
      </trkpt>
      <trkpt lat="43.087381" lon="-2.245469">
        <ele>541.419</ele>
        <time>2021-04-06T07:15:56Z</time>
      </trkpt>
      <trkpt lat="43.087407" lon="-2.245486">
        <ele>541.394</ele>
        <time>2021-04-06T07:15:59Z</time>
      </trkpt>
      <trkpt lat="43.087431" lon="-2.245500">
        <ele>541.322</ele>
        <time>2021-04-06T07:16:01Z</time>
      </trkpt>
      <trkpt lat="43.087456" lon="-2.245516">
        <ele>541.249</ele>
        <time>2021-04-06T07:16:02Z</time>
      </trkpt>
      <trkpt lat="43.087481" lon="-2.245532">
        <ele>541.297</ele>
        <time>2021-04-06T07:16:04Z</time>
      </trkpt>
      <trkpt lat="43.087511" lon="-2.245547">
        <ele>541.138</ele>
        <time>2021-04-06T07:16:06Z</time>
      </trkpt>
      <trkpt lat="43.087529" lon="-2.245559">
        <ele>541.170</ele>
        <time>2021-04-06T07:16:07Z</time>
      </trkpt>
      <trkpt lat="43.087554" lon="-2.245581">
        <ele>541.117</ele>
        <time>2021-04-06T07:16:09Z</time>
      </trkpt>
      <trkpt lat="43.087583" lon="-2.245604">
        <ele>541.108</ele>
        <time>2021-04-06T07:16:12Z</time>
      </trkpt>
      <trkpt lat="43.087609" lon="-2.245629">
        <ele>541.010</ele>
        <time>2021-04-06T07:16:13Z</time>
      </trkpt>
      <trkpt lat="43.087631" lon="-2.245650">
        <ele>541.093</ele>
        <time>2021-04-06T07:16:15Z</time>
      </trkpt>
      <trkpt lat="43.087661" lon="-2.245670">
        <ele>540.954</ele>
        <time>2021-04-06T07:16:17Z</time>
      </trkpt>
      <trkpt lat="43.087683" lon="-2.245683">
        <ele>540.989</ele>
        <time>2021-04-06T07:16:18Z</time>
      </trkpt>
      <trkpt lat="43.087704" lon="-2.245697">
        <ele>540.964</ele>
        <time>2021-04-06T07:16:19Z</time>
      </trkpt>
      <trkpt lat="43.087728" lon="-2.245711">
        <ele>540.812</ele>
        <time>2021-04-06T07:16:20Z</time>
      </trkpt>
      <trkpt lat="43.087751" lon="-2.245725">
        <ele>540.779</ele>
        <time>2021-04-06T07:16:21Z</time>
      </trkpt>
      <trkpt lat="43.087775" lon="-2.245736">
        <ele>540.787</ele>
        <time>2021-04-06T07:16:22Z</time>
      </trkpt>
      <trkpt lat="43.087798" lon="-2.245747">
        <ele>540.316</ele>
        <time>2021-04-06T07:16:23Z</time>
      </trkpt>
      <trkpt lat="43.087806" lon="-2.245798">
        <ele>539.876</ele>
        <time>2021-04-06T07:16:25Z</time>
      </trkpt>
      <trkpt lat="43.087796" lon="-2.245831">
        <ele>539.713</ele>
        <time>2021-04-06T07:16:26Z</time>
      </trkpt>
      <trkpt lat="43.087755" lon="-2.245887">
        <ele>539.308</ele>
        <time>2021-04-06T07:16:28Z</time>
      </trkpt>
      <trkpt lat="43.087732" lon="-2.245914">
        <ele>538.938</ele>
        <time>2021-04-06T07:16:29Z</time>
      </trkpt>
      <trkpt lat="43.087712" lon="-2.245936">
        <ele>538.771</ele>
        <time>2021-04-06T07:16:30Z</time>
      </trkpt>
      <trkpt lat="43.087689" lon="-2.245956">
        <ele>538.552</ele>
        <time>2021-04-06T07:16:31Z</time>
      </trkpt>
      <trkpt lat="43.087668" lon="-2.245978">
        <ele>538.397</ele>
        <time>2021-04-06T07:16:32Z</time>
      </trkpt>
      <trkpt lat="43.087646" lon="-2.245998">
        <ele>538.232</ele>
        <time>2021-04-06T07:16:33Z</time>
      </trkpt>
      <trkpt lat="43.087623" lon="-2.246018">
        <ele>538.130</ele>
        <time>2021-04-06T07:16:34Z</time>
      </trkpt>
      <trkpt lat="43.087598" lon="-2.246041">
        <ele>538.097</ele>
        <time>2021-04-06T07:16:35Z</time>
      </trkpt>
      <trkpt lat="43.087573" lon="-2.246065">
        <ele>537.975</ele>
        <time>2021-04-06T07:16:36Z</time>
      </trkpt>
      <trkpt lat="43.087550" lon="-2.246089">
        <ele>537.897</ele>
        <time>2021-04-06T07:16:37Z</time>
      </trkpt>
      <trkpt lat="43.087527" lon="-2.246112">
        <ele>537.823</ele>
        <time>2021-04-06T07:16:38Z</time>
      </trkpt>
      <trkpt lat="43.087507" lon="-2.246135">
        <ele>537.925</ele>
        <time>2021-04-06T07:16:39Z</time>
      </trkpt>
      <trkpt lat="43.087484" lon="-2.246159">
        <ele>538.308</ele>
        <time>2021-04-06T07:16:40Z</time>
      </trkpt>
      <trkpt lat="43.087463" lon="-2.246182">
        <ele>538.796</ele>
        <time>2021-04-06T07:16:41Z</time>
      </trkpt>
      <trkpt lat="43.087442" lon="-2.246203">
        <ele>539.059</ele>
        <time>2021-04-06T07:16:42Z</time>
      </trkpt>
      <trkpt lat="43.087421" lon="-2.246227">
        <ele>539.440</ele>
        <time>2021-04-06T07:16:43Z</time>
      </trkpt>
      <trkpt lat="43.087396" lon="-2.246250">
        <ele>539.935</ele>
        <time>2021-04-06T07:16:44Z</time>
      </trkpt>
      <trkpt lat="43.087356" lon="-2.246299">
        <ele>540.630</ele>
        <time>2021-04-06T07:16:46Z</time>
      </trkpt>
      <trkpt lat="43.087320" lon="-2.246344">
        <ele>541.228</ele>
        <time>2021-04-06T07:16:48Z</time>
      </trkpt>
      <trkpt lat="43.087306" lon="-2.246366">
        <ele>541.535</ele>
        <time>2021-04-06T07:16:49Z</time>
      </trkpt>
      <trkpt lat="43.087271" lon="-2.246409">
        <ele>542.183</ele>
        <time>2021-04-06T07:16:51Z</time>
      </trkpt>
      <trkpt lat="43.087254" lon="-2.246430">
        <ele>542.459</ele>
        <time>2021-04-06T07:16:52Z</time>
      </trkpt>
      <trkpt lat="43.087236" lon="-2.246451">
        <ele>542.703</ele>
        <time>2021-04-06T07:16:53Z</time>
      </trkpt>
      <trkpt lat="43.087217" lon="-2.246472">
        <ele>543.023</ele>
        <time>2021-04-06T07:16:54Z</time>
      </trkpt>
      <trkpt lat="43.087203" lon="-2.246494">
        <ele>543.108</ele>
        <time>2021-04-06T07:16:55Z</time>
      </trkpt>
      <trkpt lat="43.087188" lon="-2.246516">
        <ele>543.172</ele>
        <time>2021-04-06T07:16:56Z</time>
      </trkpt>
      <trkpt lat="43.087172" lon="-2.246537">
        <ele>543.275</ele>
        <time>2021-04-06T07:16:57Z</time>
      </trkpt>
      <trkpt lat="43.087157" lon="-2.246558">
        <ele>543.236</ele>
        <time>2021-04-06T07:16:58Z</time>
      </trkpt>
      <trkpt lat="43.087142" lon="-2.246579">
        <ele>543.311</ele>
        <time>2021-04-06T07:16:59Z</time>
      </trkpt>
      <trkpt lat="43.087124" lon="-2.246602">
        <ele>543.476</ele>
        <time>2021-04-06T07:17:01Z</time>
      </trkpt>
      <trkpt lat="43.087093" lon="-2.246645">
        <ele>543.524</ele>
        <time>2021-04-06T07:17:02Z</time>
      </trkpt>
      <trkpt lat="43.087079" lon="-2.246667">
        <ele>543.531</ele>
        <time>2021-04-06T07:17:03Z</time>
      </trkpt>
      <trkpt lat="43.087062" lon="-2.246689">
        <ele>543.559</ele>
        <time>2021-04-06T07:17:04Z</time>
      </trkpt>
      <trkpt lat="43.087046" lon="-2.246708">
        <ele>543.513</ele>
        <time>2021-04-06T07:17:05Z</time>
      </trkpt>
      <trkpt lat="43.087027" lon="-2.246727">
        <ele>543.643</ele>
        <time>2021-04-06T07:17:06Z</time>
      </trkpt>
      <trkpt lat="43.087007" lon="-2.246748">
        <ele>543.607</ele>
        <time>2021-04-06T07:17:07Z</time>
      </trkpt>
      <trkpt lat="43.086977" lon="-2.246793">
        <ele>543.808</ele>
        <time>2021-04-06T07:17:09Z</time>
      </trkpt>
      <trkpt lat="43.086960" lon="-2.246820">
        <ele>543.958</ele>
        <time>2021-04-06T07:17:10Z</time>
      </trkpt>
      <trkpt lat="43.086947" lon="-2.246845">
        <ele>544.041</ele>
        <time>2021-04-06T07:17:11Z</time>
      </trkpt>
      <trkpt lat="43.086935" lon="-2.246872">
        <ele>544.162</ele>
        <time>2021-04-06T07:17:12Z</time>
      </trkpt>
      <trkpt lat="43.086924" lon="-2.246901">
        <ele>544.147</ele>
        <time>2021-04-06T07:17:13Z</time>
      </trkpt>
      <trkpt lat="43.086915" lon="-2.246927">
        <ele>544.282</ele>
        <time>2021-04-06T07:17:14Z</time>
      </trkpt>
      <trkpt lat="43.086906" lon="-2.246955">
        <ele>544.390</ele>
        <time>2021-04-06T07:17:15Z</time>
      </trkpt>
      <trkpt lat="43.086902" lon="-2.246983">
        <ele>544.377</ele>
        <time>2021-04-06T07:17:16Z</time>
      </trkpt>
      <trkpt lat="43.086895" lon="-2.247012">
        <ele>544.435</ele>
        <time>2021-04-06T07:17:17Z</time>
      </trkpt>
      <trkpt lat="43.086890" lon="-2.247039">
        <ele>544.478</ele>
        <time>2021-04-06T07:17:18Z</time>
      </trkpt>
      <trkpt lat="43.086884" lon="-2.247068">
        <ele>544.433</ele>
        <time>2021-04-06T07:17:19Z</time>
      </trkpt>
      <trkpt lat="43.086876" lon="-2.247097">
        <ele>544.526</ele>
        <time>2021-04-06T07:17:20Z</time>
      </trkpt>
      <trkpt lat="43.086868" lon="-2.247125">
        <ele>544.508</ele>
        <time>2021-04-06T07:17:21Z</time>
      </trkpt>
      <trkpt lat="43.086856" lon="-2.247181">
        <ele>544.624</ele>
        <time>2021-04-06T07:17:23Z</time>
      </trkpt>
      <trkpt lat="43.086848" lon="-2.247212">
        <ele>544.737</ele>
        <time>2021-04-06T07:17:24Z</time>
      </trkpt>
      <trkpt lat="43.086842" lon="-2.247243">
        <ele>544.888</ele>
        <time>2021-04-06T07:17:25Z</time>
      </trkpt>
      <trkpt lat="43.086839" lon="-2.247272">
        <ele>545.093</ele>
        <time>2021-04-06T07:17:26Z</time>
      </trkpt>
      <trkpt lat="43.086835" lon="-2.247298">
        <ele>545.238</ele>
        <time>2021-04-06T07:17:28Z</time>
      </trkpt>
      <trkpt lat="43.086817" lon="-2.247366">
        <ele>545.796</ele>
        <time>2021-04-06T07:17:29Z</time>
      </trkpt>
      <trkpt lat="43.086807" lon="-2.247426">
        <ele>546.163</ele>
        <time>2021-04-06T07:17:31Z</time>
      </trkpt>
      <trkpt lat="43.086803" lon="-2.247459">
        <ele>546.311</ele>
        <time>2021-04-06T07:17:32Z</time>
      </trkpt>
      <trkpt lat="43.086793" lon="-2.247527">
        <ele>546.797</ele>
        <time>2021-04-06T07:17:34Z</time>
      </trkpt>
      <trkpt lat="43.086787" lon="-2.247562">
        <ele>546.923</ele>
        <time>2021-04-06T07:17:35Z</time>
      </trkpt>
      <trkpt lat="43.086782" lon="-2.247596">
        <ele>547.125</ele>
        <time>2021-04-06T07:17:36Z</time>
      </trkpt>
      <trkpt lat="43.086778" lon="-2.247632">
        <ele>547.308</ele>
        <time>2021-04-06T07:17:37Z</time>
      </trkpt>
      <trkpt lat="43.086773" lon="-2.247667">
        <ele>547.516</ele>
        <time>2021-04-06T07:17:38Z</time>
      </trkpt>
      <trkpt lat="43.086766" lon="-2.247699">
        <ele>547.629</ele>
        <time>2021-04-06T07:17:39Z</time>
      </trkpt>
      <trkpt lat="43.086759" lon="-2.247733">
        <ele>547.810</ele>
        <time>2021-04-06T07:17:40Z</time>
      </trkpt>
      <trkpt lat="43.086755" lon="-2.247766">
        <ele>548.015</ele>
        <time>2021-04-06T07:17:41Z</time>
      </trkpt>
      <trkpt lat="43.086741" lon="-2.247835">
        <ele>548.420</ele>
        <time>2021-04-06T07:17:43Z</time>
      </trkpt>
      <trkpt lat="43.086735" lon="-2.247869">
        <ele>548.688</ele>
        <time>2021-04-06T07:17:44Z</time>
      </trkpt>
      <trkpt lat="43.086728" lon="-2.247903">
        <ele>548.875</ele>
        <time>2021-04-06T07:17:46Z</time>
      </trkpt>
      <trkpt lat="43.086718" lon="-2.247971">
        <ele>549.193</ele>
        <time>2021-04-06T07:17:47Z</time>
      </trkpt>
      <trkpt lat="43.086714" lon="-2.248000">
        <ele>549.315</ele>
        <time>2021-04-06T07:17:48Z</time>
      </trkpt>
      <trkpt lat="43.086709" lon="-2.248031">
        <ele>549.565</ele>
        <time>2021-04-06T07:17:49Z</time>
      </trkpt>
      <trkpt lat="43.086706" lon="-2.248058">
        <ele>549.611</ele>
        <time>2021-04-06T07:17:50Z</time>
      </trkpt>
      <trkpt lat="43.086692" lon="-2.248121">
        <ele>549.908</ele>
        <time>2021-04-06T07:17:52Z</time>
      </trkpt>
      <trkpt lat="43.086690" lon="-2.248150">
        <ele>550.148</ele>
        <time>2021-04-06T07:17:53Z</time>
      </trkpt>
      <trkpt lat="43.086685" lon="-2.248205">
        <ele>550.391</ele>
        <time>2021-04-06T07:17:55Z</time>
      </trkpt>
      <trkpt lat="43.086683" lon="-2.248231">
        <ele>550.482</ele>
        <time>2021-04-06T07:17:56Z</time>
      </trkpt>
      <trkpt lat="43.086677" lon="-2.248284">
        <ele>550.787</ele>
        <time>2021-04-06T07:17:58Z</time>
      </trkpt>
      <trkpt lat="43.086673" lon="-2.248312">
        <ele>550.812</ele>
        <time>2021-04-06T07:17:59Z</time>
      </trkpt>
      <trkpt lat="43.086667" lon="-2.248341">
        <ele>551.040</ele>
        <time>2021-04-06T07:18:00Z</time>
      </trkpt>
      <trkpt lat="43.086663" lon="-2.248370">
        <ele>551.367</ele>
        <time>2021-04-06T07:18:01Z</time>
      </trkpt>
      <trkpt lat="43.086658" lon="-2.248400">
        <ele>551.615</ele>
        <time>2021-04-06T07:18:02Z</time>
      </trkpt>
      <trkpt lat="43.086652" lon="-2.248430">
        <ele>551.951</ele>
        <time>2021-04-06T07:18:03Z</time>
      </trkpt>
      <trkpt lat="43.086647" lon="-2.248459">
        <ele>552.201</ele>
        <time>2021-04-06T07:18:04Z</time>
      </trkpt>
      <trkpt lat="43.086637" lon="-2.248512">
        <ele>552.611</ele>
        <time>2021-04-06T07:18:06Z</time>
      </trkpt>
      <trkpt lat="43.086635" lon="-2.248555">
        <ele>553.008</ele>
        <time>2021-04-06T07:18:08Z</time>
      </trkpt>
      <trkpt lat="43.086634" lon="-2.248593">
        <ele>553.252</ele>
        <time>2021-04-06T07:18:11Z</time>
      </trkpt>
      <trkpt lat="43.086628" lon="-2.248633">
        <ele>553.545</ele>
        <time>2021-04-06T07:18:12Z</time>
      </trkpt>
      <trkpt lat="43.086622" lon="-2.248675">
        <ele>553.796</ele>
        <time>2021-04-06T07:18:14Z</time>
      </trkpt>
      <trkpt lat="43.086618" lon="-2.248714">
        <ele>554.091</ele>
        <time>2021-04-06T07:18:16Z</time>
      </trkpt>
      <trkpt lat="43.086614" lon="-2.248752">
        <ele>554.266</ele>
        <time>2021-04-06T07:18:18Z</time>
      </trkpt>
      <trkpt lat="43.086611" lon="-2.248790">
        <ele>554.434</ele>
        <time>2021-04-06T07:18:20Z</time>
      </trkpt>
      <trkpt lat="43.086607" lon="-2.248831">
        <ele>554.661</ele>
        <time>2021-04-06T07:18:22Z</time>
      </trkpt>
      <trkpt lat="43.086604" lon="-2.248870">
        <ele>554.819</ele>
        <time>2021-04-06T07:18:24Z</time>
      </trkpt>
      <trkpt lat="43.086602" lon="-2.248908">
        <ele>555.024</ele>
        <time>2021-04-06T07:18:27Z</time>
      </trkpt>
      <trkpt lat="43.086600" lon="-2.248949">
        <ele>555.304</ele>
        <time>2021-04-06T07:18:29Z</time>
      </trkpt>
      <trkpt lat="43.086597" lon="-2.248988">
        <ele>555.514</ele>
        <time>2021-04-06T07:18:30Z</time>
      </trkpt>
      <trkpt lat="43.086593" lon="-2.249027">
        <ele>555.808</ele>
        <time>2021-04-06T07:18:32Z</time>
      </trkpt>
      <trkpt lat="43.086591" lon="-2.249068">
        <ele>556.169</ele>
        <time>2021-04-06T07:18:34Z</time>
      </trkpt>
      <trkpt lat="43.086586" lon="-2.249108">
        <ele>556.482</ele>
        <time>2021-04-06T07:18:36Z</time>
      </trkpt>
      <trkpt lat="43.086583" lon="-2.249150">
        <ele>556.723</ele>
        <time>2021-04-06T07:18:38Z</time>
      </trkpt>
      <trkpt lat="43.086582" lon="-2.249187">
        <ele>557.038</ele>
        <time>2021-04-06T07:18:40Z</time>
      </trkpt>
      <trkpt lat="43.086578" lon="-2.249225">
        <ele>557.473</ele>
        <time>2021-04-06T07:18:43Z</time>
      </trkpt>
      <trkpt lat="43.086571" lon="-2.249263">
        <ele>557.921</ele>
        <time>2021-04-06T07:18:44Z</time>
      </trkpt>
      <trkpt lat="43.086562" lon="-2.249302">
        <ele>558.438</ele>
        <time>2021-04-06T07:18:46Z</time>
      </trkpt>
      <trkpt lat="43.086555" lon="-2.249343">
        <ele>558.876</ele>
        <time>2021-04-06T07:18:48Z</time>
      </trkpt>
      <trkpt lat="43.086550" lon="-2.249382">
        <ele>559.244</ele>
        <time>2021-04-06T07:18:50Z</time>
      </trkpt>
      <trkpt lat="43.086543" lon="-2.249420">
        <ele>559.605</ele>
        <time>2021-04-06T07:18:52Z</time>
      </trkpt>
      <trkpt lat="43.086538" lon="-2.249456">
        <ele>559.915</ele>
        <time>2021-04-06T07:18:55Z</time>
      </trkpt>
      <trkpt lat="43.086535" lon="-2.249489">
        <ele>560.108</ele>
        <time>2021-04-06T07:18:56Z</time>
      </trkpt>
      <trkpt lat="43.086535" lon="-2.249525">
        <ele>560.291</ele>
        <time>2021-04-06T07:18:58Z</time>
      </trkpt>
      <trkpt lat="43.086536" lon="-2.249559">
        <ele>560.374</ele>
        <time>2021-04-06T07:19:00Z</time>
      </trkpt>
      <trkpt lat="43.086528" lon="-2.249593">
        <ele>560.555</ele>
        <time>2021-04-06T07:19:03Z</time>
      </trkpt>
      <trkpt lat="43.086517" lon="-2.249624">
        <ele>560.890</ele>
        <time>2021-04-06T07:19:05Z</time>
      </trkpt>
      <trkpt lat="43.086502" lon="-2.249650">
        <ele>561.165</ele>
        <time>2021-04-06T07:19:06Z</time>
      </trkpt>
      <trkpt lat="43.086487" lon="-2.249671">
        <ele>561.433</ele>
        <time>2021-04-06T07:19:08Z</time>
      </trkpt>
      <trkpt lat="43.086476" lon="-2.249708">
        <ele>561.740</ele>
        <time>2021-04-06T07:19:11Z</time>
      </trkpt>
      <trkpt lat="43.086459" lon="-2.249744">
        <ele>562.078</ele>
        <time>2021-04-06T07:19:12Z</time>
      </trkpt>
      <trkpt lat="43.086438" lon="-2.249777">
        <ele>562.368</ele>
        <time>2021-04-06T07:19:14Z</time>
      </trkpt>
      <trkpt lat="43.086414" lon="-2.249805">
        <ele>562.642</ele>
        <time>2021-04-06T07:19:16Z</time>
      </trkpt>
      <trkpt lat="43.086391" lon="-2.249832">
        <ele>563.026</ele>
        <time>2021-04-06T07:19:18Z</time>
      </trkpt>
      <trkpt lat="43.086369" lon="-2.249854">
        <ele>563.308</ele>
        <time>2021-04-06T07:19:20Z</time>
      </trkpt>
      <trkpt lat="43.086344" lon="-2.249877">
        <ele>563.613</ele>
        <time>2021-04-06T07:19:23Z</time>
      </trkpt>
      <trkpt lat="43.086321" lon="-2.249900">
        <ele>563.816</ele>
        <time>2021-04-06T07:19:24Z</time>
      </trkpt>
      <trkpt lat="43.086296" lon="-2.249926">
        <ele>564.147</ele>
        <time>2021-04-06T07:19:26Z</time>
      </trkpt>
      <trkpt lat="43.086270" lon="-2.249943">
        <ele>564.432</ele>
        <time>2021-04-06T07:19:28Z</time>
      </trkpt>
      <trkpt lat="43.086239" lon="-2.249964">
        <ele>564.717</ele>
        <time>2021-04-06T07:19:30Z</time>
      </trkpt>
      <trkpt lat="43.086211" lon="-2.249988">
        <ele>564.965</ele>
        <time>2021-04-06T07:19:33Z</time>
      </trkpt>
      <trkpt lat="43.086184" lon="-2.250011">
        <ele>565.192</ele>
        <time>2021-04-06T07:19:34Z</time>
      </trkpt>
      <trkpt lat="43.086151" lon="-2.250036">
        <ele>565.380</ele>
        <time>2021-04-06T07:19:36Z</time>
      </trkpt>
      <trkpt lat="43.086133" lon="-2.250046">
        <ele>565.414</ele>
        <time>2021-04-06T07:19:38Z</time>
      </trkpt>
      <trkpt lat="43.086115" lon="-2.250057">
        <ele>565.554</ele>
        <time>2021-04-06T07:19:39Z</time>
      </trkpt>
      <trkpt lat="43.086097" lon="-2.250074">
        <ele>565.509</ele>
        <time>2021-04-06T07:19:40Z</time>
      </trkpt>
      <trkpt lat="43.086056" lon="-2.250108">
        <ele>565.508</ele>
        <time>2021-04-06T07:19:41Z</time>
      </trkpt>
      <trkpt lat="43.086017" lon="-2.250141">
        <ele>565.598</ele>
        <time>2021-04-06T07:19:43Z</time>
      </trkpt>
      <trkpt lat="43.086003" lon="-2.250156">
        <ele>565.531</ele>
        <time>2021-04-06T07:19:45Z</time>
      </trkpt>
      <trkpt lat="43.085983" lon="-2.250170">
        <ele>565.532</ele>
        <time>2021-04-06T07:19:46Z</time>
      </trkpt>
      <trkpt lat="43.085968" lon="-2.250188">
        <ele>565.587</ele>
        <time>2021-04-06T07:19:47Z</time>
      </trkpt>
      <trkpt lat="43.085940" lon="-2.250215">
        <ele>565.552</ele>
        <time>2021-04-06T07:19:49Z</time>
      </trkpt>
      <trkpt lat="43.085922" lon="-2.250231">
        <ele>565.650</ele>
        <time>2021-04-06T07:19:50Z</time>
      </trkpt>
      <trkpt lat="43.085902" lon="-2.250251">
        <ele>565.677</ele>
        <time>2021-04-06T07:19:51Z</time>
      </trkpt>
      <trkpt lat="43.085884" lon="-2.250268">
        <ele>565.765</ele>
        <time>2021-04-06T07:19:52Z</time>
      </trkpt>
      <trkpt lat="43.085860" lon="-2.250289">
        <ele>565.715</ele>
        <time>2021-04-06T07:19:53Z</time>
      </trkpt>
      <trkpt lat="43.085809" lon="-2.250336">
        <ele>565.565</ele>
        <time>2021-04-06T07:19:55Z</time>
      </trkpt>
      <trkpt lat="43.085762" lon="-2.250384">
        <ele>565.211</ele>
        <time>2021-04-06T07:19:57Z</time>
      </trkpt>
      <trkpt lat="43.085738" lon="-2.250404">
        <ele>565.108</ele>
        <time>2021-04-06T07:19:58Z</time>
      </trkpt>
      <trkpt lat="43.085713" lon="-2.250422">
        <ele>565.188</ele>
        <time>2021-04-06T07:20:01Z</time>
      </trkpt>
      <trkpt lat="43.085686" lon="-2.250442">
        <ele>565.141</ele>
        <time>2021-04-06T07:20:03Z</time>
      </trkpt>
      <trkpt lat="43.085645" lon="-2.250476">
        <ele>565.052</ele>
        <time>2021-04-06T07:20:04Z</time>
      </trkpt>
      <trkpt lat="43.085613" lon="-2.250506">
        <ele>565.077</ele>
        <time>2021-04-06T07:20:06Z</time>
      </trkpt>
      <trkpt lat="43.085585" lon="-2.250530">
        <ele>565.052</ele>
        <time>2021-04-06T07:20:08Z</time>
      </trkpt>
      <trkpt lat="43.085500" lon="-2.250597">
        <ele>564.920</ele>
        <time>2021-04-06T07:20:11Z</time>
      </trkpt>
      <trkpt lat="43.085448" lon="-2.250650">
        <ele>564.867</ele>
        <time>2021-04-06T07:20:13Z</time>
      </trkpt>
      <trkpt lat="43.085414" lon="-2.250679">
        <ele>564.835</ele>
        <time>2021-04-06T07:20:14Z</time>
      </trkpt>
      <trkpt lat="43.085364" lon="-2.250726">
        <ele>564.925</ele>
        <time>2021-04-06T07:20:15Z</time>
      </trkpt>
      <trkpt lat="43.085308" lon="-2.250789">
        <ele>565.026</ele>
        <time>2021-04-06T07:20:17Z</time>
      </trkpt>
      <trkpt lat="43.085250" lon="-2.250844">
        <ele>565.208</ele>
        <time>2021-04-06T07:20:19Z</time>
      </trkpt>
      <trkpt lat="43.085226" lon="-2.250869">
        <ele>565.308</ele>
        <time>2021-04-06T07:20:21Z</time>
      </trkpt>
      <trkpt lat="43.085202" lon="-2.250893">
        <ele>565.419</ele>
        <time>2021-04-06T07:20:22Z</time>
      </trkpt>
      <trkpt lat="43.085177" lon="-2.250922">
        <ele>565.562</ele>
        <time>2021-04-06T07:20:23Z</time>
      </trkpt>
      <trkpt lat="43.085156" lon="-2.250945">
        <ele>565.713</ele>
        <time>2021-04-06T07:20:24Z</time>
      </trkpt>
      <trkpt lat="43.085133" lon="-2.250969">
        <ele>565.888</ele>
        <time>2021-04-06T07:20:25Z</time>
      </trkpt>
      <trkpt lat="43.085113" lon="-2.250994">
        <ele>566.043</ele>
        <time>2021-04-06T07:20:26Z</time>
      </trkpt>
      <trkpt lat="43.085100" lon="-2.251014">
        <ele>566.031</ele>
        <time>2021-04-06T07:20:27Z</time>
      </trkpt>
      <trkpt lat="43.085085" lon="-2.251032">
        <ele>566.268</ele>
        <time>2021-04-06T07:20:28Z</time>
      </trkpt>
      <trkpt lat="43.085069" lon="-2.251048">
        <ele>566.316</ele>
        <time>2021-04-06T07:20:29Z</time>
      </trkpt>
      <trkpt lat="43.085053" lon="-2.251066">
        <ele>566.513</ele>
        <time>2021-04-06T07:20:30Z</time>
      </trkpt>
      <trkpt lat="43.085031" lon="-2.251094">
        <ele>566.743</ele>
        <time>2021-04-06T07:20:32Z</time>
      </trkpt>
      <trkpt lat="43.085012" lon="-2.251118">
        <ele>566.907</ele>
        <time>2021-04-06T07:20:34Z</time>
      </trkpt>
      <trkpt lat="43.084989" lon="-2.251143">
        <ele>567.108</ele>
        <time>2021-04-06T07:20:36Z</time>
      </trkpt>
      <trkpt lat="43.084968" lon="-2.251160">
        <ele>567.368</ele>
        <time>2021-04-06T07:20:37Z</time>
      </trkpt>
      <trkpt lat="43.084947" lon="-2.251182">
        <ele>567.591</ele>
        <time>2021-04-06T07:20:40Z</time>
      </trkpt>
      <trkpt lat="43.084925" lon="-2.251201">
        <ele>567.712</ele>
        <time>2021-04-06T07:20:42Z</time>
      </trkpt>
      <trkpt lat="43.084904" lon="-2.251220">
        <ele>568.077</ele>
        <time>2021-04-06T07:20:43Z</time>
      </trkpt>
      <trkpt lat="43.084880" lon="-2.251241">
        <ele>568.392</ele>
        <time>2021-04-06T07:20:46Z</time>
      </trkpt>
      <trkpt lat="43.084852" lon="-2.251266">
        <ele>568.750</ele>
        <time>2021-04-06T07:20:48Z</time>
      </trkpt>
      <trkpt lat="43.084823" lon="-2.251288">
        <ele>569.177</ele>
        <time>2021-04-06T07:20:50Z</time>
      </trkpt>
      <trkpt lat="43.084796" lon="-2.251306">
        <ele>569.575</ele>
        <time>2021-04-06T07:20:52Z</time>
      </trkpt>
      <trkpt lat="43.084768" lon="-2.251327">
        <ele>570.021</ele>
        <time>2021-04-06T07:20:54Z</time>
      </trkpt>
      <trkpt lat="43.084740" lon="-2.251347">
        <ele>570.541</ele>
        <time>2021-04-06T07:20:56Z</time>
      </trkpt>
      <trkpt lat="43.084711" lon="-2.251370">
        <ele>571.005</ele>
        <time>2021-04-06T07:20:58Z</time>
      </trkpt>
      <trkpt lat="43.084683" lon="-2.251396">
        <ele>571.508</ele>
        <time>2021-04-06T07:20:59Z</time>
      </trkpt>
      <trkpt lat="43.084657" lon="-2.251402">
        <ele>571.859</ele>
        <time>2021-04-06T07:21:02Z</time>
      </trkpt>
      <trkpt lat="43.084630" lon="-2.251406">
        <ele>572.212</ele>
        <time>2021-04-06T07:21:04Z</time>
      </trkpt>
      <trkpt lat="43.084608" lon="-2.251420">
        <ele>572.573</ele>
        <time>2021-04-06T07:21:07Z</time>
      </trkpt>
      <trkpt lat="43.084577" lon="-2.251439">
        <ele>573.168</ele>
        <time>2021-04-06T07:21:08Z</time>
      </trkpt>
      <trkpt lat="43.084555" lon="-2.251457">
        <ele>573.693</ele>
        <time>2021-04-06T07:21:11Z</time>
      </trkpt>
      <trkpt lat="43.084536" lon="-2.251461">
        <ele>573.981</ele>
        <time>2021-04-06T07:21:12Z</time>
      </trkpt>
      <trkpt lat="43.084549" lon="-2.251491">
        <ele>574.128</ele>
        <time>2021-04-06T07:21:16Z</time>
      </trkpt>
      <trkpt lat="43.084562" lon="-2.251516">
        <ele>574.216</ele>
        <time>2021-04-06T07:21:17Z</time>
      </trkpt>
      <trkpt lat="43.084571" lon="-2.251545">
        <ele>574.468</ele>
        <time>2021-04-06T07:21:19Z</time>
      </trkpt>
      <trkpt lat="43.084571" lon="-2.251570">
        <ele>574.642</ele>
        <time>2021-04-06T07:21:21Z</time>
      </trkpt>
      <trkpt lat="43.084567" lon="-2.251605">
        <ele>575.126</ele>
        <time>2021-04-06T07:21:23Z</time>
      </trkpt>
      <trkpt lat="43.084559" lon="-2.251635">
        <ele>575.608</ele>
        <time>2021-04-06T07:21:25Z</time>
      </trkpt>
      <trkpt lat="43.084550" lon="-2.251663">
        <ele>576.143</ele>
        <time>2021-04-06T07:21:27Z</time>
      </trkpt>
      <trkpt lat="43.084531" lon="-2.251680">
        <ele>576.636</ele>
        <time>2021-04-06T07:21:29Z</time>
      </trkpt>
      <trkpt lat="43.084507" lon="-2.251691">
        <ele>577.117</ele>
        <time>2021-04-06T07:21:30Z</time>
      </trkpt>
      <trkpt lat="43.084482" lon="-2.251690">
        <ele>577.672</ele>
        <time>2021-04-06T07:21:34Z</time>
      </trkpt>
      <trkpt lat="43.084462" lon="-2.251704">
        <ele>578.117</ele>
        <time>2021-04-06T07:21:36Z</time>
      </trkpt>
      <trkpt lat="43.084444" lon="-2.251721">
        <ele>578.615</ele>
        <time>2021-04-06T07:21:38Z</time>
      </trkpt>
      <trkpt lat="43.084419" lon="-2.251735">
        <ele>579.122</ele>
        <time>2021-04-06T07:21:41Z</time>
      </trkpt>
      <trkpt lat="43.084399" lon="-2.251756">
        <ele>579.790</ele>
        <time>2021-04-06T07:21:42Z</time>
      </trkpt>
      <trkpt lat="43.084384" lon="-2.251778">
        <ele>580.248</ele>
        <time>2021-04-06T07:21:46Z</time>
      </trkpt>
      <trkpt lat="43.084369" lon="-2.251794">
        <ele>580.761</ele>
        <time>2021-04-06T07:21:48Z</time>
      </trkpt>
      <trkpt lat="43.084356" lon="-2.251809">
        <ele>581.117</ele>
        <time>2021-04-06T07:21:50Z</time>
      </trkpt>
      <trkpt lat="43.084339" lon="-2.251826">
        <ele>581.708</ele>
        <time>2021-04-06T07:21:52Z</time>
      </trkpt>
      <trkpt lat="43.084324" lon="-2.251850">
        <ele>582.311</ele>
        <time>2021-04-06T07:21:54Z</time>
      </trkpt>
      <trkpt lat="43.084306" lon="-2.251875">
        <ele>583.094</ele>
        <time>2021-04-06T07:21:56Z</time>
      </trkpt>
      <trkpt lat="43.084284" lon="-2.251892">
        <ele>583.785</ele>
        <time>2021-04-06T07:21:58Z</time>
      </trkpt>
      <trkpt lat="43.084263" lon="-2.251916">
        <ele>584.520</ele>
        <time>2021-04-06T07:22:00Z</time>
      </trkpt>
      <trkpt lat="43.084244" lon="-2.251938">
        <ele>585.275</ele>
        <time>2021-04-06T07:22:02Z</time>
      </trkpt>
      <trkpt lat="43.084231" lon="-2.251955">
        <ele>585.873</ele>
        <time>2021-04-06T07:22:04Z</time>
      </trkpt>
      <trkpt lat="43.084214" lon="-2.251978">
        <ele>586.530</ele>
        <time>2021-04-06T07:22:06Z</time>
      </trkpt>
      <trkpt lat="43.084204" lon="-2.252001">
        <ele>587.188</ele>
        <time>2021-04-06T07:22:08Z</time>
      </trkpt>
      <trkpt lat="43.084178" lon="-2.252024">
        <ele>588.239</ele>
        <time>2021-04-06T07:22:11Z</time>
      </trkpt>
      <trkpt lat="43.084161" lon="-2.252049">
        <ele>589.001</ele>
        <time>2021-04-06T07:22:13Z</time>
      </trkpt>
      <trkpt lat="43.084144" lon="-2.252068">
        <ele>589.721</ele>
        <time>2021-04-06T07:22:15Z</time>
      </trkpt>
      <trkpt lat="43.084123" lon="-2.252092">
        <ele>590.508</ele>
        <time>2021-04-06T07:22:18Z</time>
      </trkpt>
      <trkpt lat="43.084107" lon="-2.252116">
        <ele>591.380</ele>
        <time>2021-04-06T07:22:19Z</time>
      </trkpt>
      <trkpt lat="43.084099" lon="-2.252140">
        <ele>591.983</ele>
        <time>2021-04-06T07:22:21Z</time>
      </trkpt>
      <trkpt lat="43.084085" lon="-2.252162">
        <ele>592.664</ele>
        <time>2021-04-06T07:22:24Z</time>
      </trkpt>
      <trkpt lat="43.084080" lon="-2.252183">
        <ele>593.189</ele>
        <time>2021-04-06T07:22:26Z</time>
      </trkpt>
      <trkpt lat="43.084072" lon="-2.252209">
        <ele>593.884</ele>
        <time>2021-04-06T07:22:28Z</time>
      </trkpt>
      <trkpt lat="43.084068" lon="-2.252219">
        <ele>594.112</ele>
        <time>2021-04-06T07:22:30Z</time>
      </trkpt>
      <trkpt lat="43.084052" lon="-2.252236">
        <ele>594.629</ele>
        <time>2021-04-06T07:22:33Z</time>
      </trkpt>
      <trkpt lat="43.084031" lon="-2.252248">
        <ele>595.267</ele>
        <time>2021-04-06T07:22:34Z</time>
      </trkpt>
      <trkpt lat="43.084011" lon="-2.252261">
        <ele>595.859</ele>
        <time>2021-04-06T07:22:36Z</time>
      </trkpt>
      <trkpt lat="43.084005" lon="-2.252279">
        <ele>596.103</ele>
        <time>2021-04-06T07:22:39Z</time>
      </trkpt>
      <trkpt lat="43.083992" lon="-2.252296">
        <ele>596.623</ele>
        <time>2021-04-06T07:22:41Z</time>
      </trkpt>
      <trkpt lat="43.083975" lon="-2.252310">
        <ele>597.208</ele>
        <time>2021-04-06T07:22:43Z</time>
      </trkpt>
      <trkpt lat="43.083958" lon="-2.252319">
        <ele>597.722</ele>
        <time>2021-04-06T07:22:46Z</time>
      </trkpt>
      <trkpt lat="43.083943" lon="-2.252330">
        <ele>598.265</ele>
        <time>2021-04-06T07:22:49Z</time>
      </trkpt>
      <trkpt lat="43.083928" lon="-2.252340">
        <ele>598.736</ele>
        <time>2021-04-06T07:22:52Z</time>
      </trkpt>
      <trkpt lat="43.083903" lon="-2.252356">
        <ele>599.611</ele>
        <time>2021-04-06T07:22:54Z</time>
      </trkpt>
      <trkpt lat="43.083889" lon="-2.252379">
        <ele>600.346</ele>
        <time>2021-04-06T07:22:57Z</time>
      </trkpt>
      <trkpt lat="43.083876" lon="-2.252399">
        <ele>600.984</ele>
        <time>2021-04-06T07:22:59Z</time>
      </trkpt>
      <trkpt lat="43.083855" lon="-2.252404">
        <ele>601.581</ele>
        <time>2021-04-06T07:23:01Z</time>
      </trkpt>
      <trkpt lat="43.083838" lon="-2.252415">
        <ele>602.159</ele>
        <time>2021-04-06T07:23:03Z</time>
      </trkpt>
      <trkpt lat="43.083820" lon="-2.252443">
        <ele>603.095</ele>
        <time>2021-04-06T07:23:05Z</time>
      </trkpt>
      <trkpt lat="43.083818" lon="-2.252481">
        <ele>603.749</ele>
        <time>2021-04-06T07:23:06Z</time>
      </trkpt>
      <trkpt lat="43.083820" lon="-2.252523">
        <ele>604.423</ele>
        <time>2021-04-06T07:23:09Z</time>
      </trkpt>
      <trkpt lat="43.083813" lon="-2.252561">
        <ele>605.408</ele>
        <time>2021-04-06T07:23:10Z</time>
      </trkpt>
      <trkpt lat="43.083797" lon="-2.252580">
        <ele>606.396</ele>
        <time>2021-04-06T07:23:13Z</time>
      </trkpt>
      <trkpt lat="43.083774" lon="-2.252573">
        <ele>606.879</ele>
        <time>2021-04-06T07:23:16Z</time>
      </trkpt>
      <trkpt lat="43.083759" lon="-2.252555">
        <ele>606.960</ele>
        <time>2021-04-06T07:23:18Z</time>
      </trkpt>
      <trkpt lat="43.083748" lon="-2.252538">
        <ele>606.985</ele>
        <time>2021-04-06T07:23:20Z</time>
      </trkpt>
      <trkpt lat="43.083728" lon="-2.252522">
        <ele>607.140</ele>
        <time>2021-04-06T07:23:21Z</time>
      </trkpt>
      <trkpt lat="43.083710" lon="-2.252510">
        <ele>607.428</ele>
        <time>2021-04-06T07:23:23Z</time>
      </trkpt>
      <trkpt lat="43.083689" lon="-2.252501">
        <ele>607.815</ele>
        <time>2021-04-06T07:23:25Z</time>
      </trkpt>
      <trkpt lat="43.083669" lon="-2.252495">
        <ele>608.233</ele>
        <time>2021-04-06T07:23:28Z</time>
      </trkpt>
      <trkpt lat="43.083654" lon="-2.252485">
        <ele>608.459</ele>
        <time>2021-04-06T07:23:29Z</time>
      </trkpt>
      <trkpt lat="43.083629" lon="-2.252479">
        <ele>609.003</ele>
        <time>2021-04-06T07:23:31Z</time>
      </trkpt>
      <trkpt lat="43.083612" lon="-2.252475">
        <ele>609.323</ele>
        <time>2021-04-06T07:23:34Z</time>
      </trkpt>
      <trkpt lat="43.083589" lon="-2.252469">
        <ele>609.808</ele>
        <time>2021-04-06T07:23:36Z</time>
      </trkpt>
      <trkpt lat="43.083565" lon="-2.252459">
        <ele>610.252</ele>
        <time>2021-04-06T07:23:38Z</time>
      </trkpt>
      <trkpt lat="43.083545" lon="-2.252451">
        <ele>610.655</ele>
        <time>2021-04-06T07:23:40Z</time>
      </trkpt>
      <trkpt lat="43.083522" lon="-2.252449">
        <ele>611.246</ele>
        <time>2021-04-06T07:23:42Z</time>
      </trkpt>
      <trkpt lat="43.083502" lon="-2.252445">
        <ele>611.671</ele>
        <time>2021-04-06T07:23:43Z</time>
      </trkpt>
      <trkpt lat="43.083478" lon="-2.252445">
        <ele>612.316</ele>
        <time>2021-04-06T07:23:46Z</time>
      </trkpt>
      <trkpt lat="43.083454" lon="-2.252445">
        <ele>612.994</ele>
        <time>2021-04-06T07:23:47Z</time>
      </trkpt>
      <trkpt lat="43.083431" lon="-2.252442">
        <ele>613.561</ele>
        <time>2021-04-06T07:23:50Z</time>
      </trkpt>
      <trkpt lat="43.083406" lon="-2.252441">
        <ele>614.149</ele>
        <time>2021-04-06T07:23:52Z</time>
      </trkpt>
      <trkpt lat="43.083383" lon="-2.252437">
        <ele>614.697</ele>
        <time>2021-04-06T07:23:54Z</time>
      </trkpt>
      <trkpt lat="43.083361" lon="-2.252434">
        <ele>615.123</ele>
        <time>2021-04-06T07:23:56Z</time>
      </trkpt>
      <trkpt lat="43.083335" lon="-2.252430">
        <ele>615.725</ele>
        <time>2021-04-06T07:23:57Z</time>
      </trkpt>
      <trkpt lat="43.083315" lon="-2.252428">
        <ele>616.008</ele>
        <time>2021-04-06T07:24:00Z</time>
      </trkpt>
      <trkpt lat="43.083293" lon="-2.252419">
        <ele>616.236</ele>
        <time>2021-04-06T07:24:01Z</time>
      </trkpt>
      <trkpt lat="43.083271" lon="-2.252416">
        <ele>616.559</ele>
        <time>2021-04-06T07:24:03Z</time>
      </trkpt>
      <trkpt lat="43.083245" lon="-2.252412">
        <ele>616.980</ele>
        <time>2021-04-06T07:24:05Z</time>
      </trkpt>
      <trkpt lat="43.083221" lon="-2.252411">
        <ele>617.385</ele>
        <time>2021-04-06T07:24:07Z</time>
      </trkpt>
      <trkpt lat="43.083201" lon="-2.252406">
        <ele>617.580</ele>
        <time>2021-04-06T07:24:10Z</time>
      </trkpt>
      <trkpt lat="43.083177" lon="-2.252401">
        <ele>617.898</ele>
        <time>2021-04-06T07:24:12Z</time>
      </trkpt>
      <trkpt lat="43.083155" lon="-2.252393">
        <ele>617.955</ele>
        <time>2021-04-06T07:24:14Z</time>
      </trkpt>
      <trkpt lat="43.083137" lon="-2.252388">
        <ele>618.093</ele>
        <time>2021-04-06T07:24:16Z</time>
      </trkpt>
      <trkpt lat="43.083113" lon="-2.252387">
        <ele>618.592</ele>
        <time>2021-04-06T07:24:18Z</time>
      </trkpt>
      <trkpt lat="43.083089" lon="-2.252391">
        <ele>619.173</ele>
        <time>2021-04-06T07:24:20Z</time>
      </trkpt>
      <trkpt lat="43.083064" lon="-2.252390">
        <ele>619.520</ele>
        <time>2021-04-06T07:24:22Z</time>
      </trkpt>
      <trkpt lat="43.083035" lon="-2.252389">
        <ele>619.808</ele>
        <time>2021-04-06T07:24:24Z</time>
      </trkpt>
      <trkpt lat="43.083008" lon="-2.252387">
        <ele>620.046</ele>
        <time>2021-04-06T07:24:26Z</time>
      </trkpt>
      <trkpt lat="43.082983" lon="-2.252391">
        <ele>620.589</ele>
        <time>2021-04-06T07:24:28Z</time>
      </trkpt>
      <trkpt lat="43.082955" lon="-2.252397">
        <ele>621.030</ele>
        <time>2021-04-06T07:24:30Z</time>
      </trkpt>
      <trkpt lat="43.082931" lon="-2.252401">
        <ele>621.485</ele>
        <time>2021-04-06T07:24:31Z</time>
      </trkpt>
      <trkpt lat="43.082908" lon="-2.252407">
        <ele>621.960</ele>
        <time>2021-04-06T07:24:34Z</time>
      </trkpt>
      <trkpt lat="43.082880" lon="-2.252410">
        <ele>622.368</ele>
        <time>2021-04-06T07:24:35Z</time>
      </trkpt>
      <trkpt lat="43.082859" lon="-2.252409">
        <ele>622.555</ele>
        <time>2021-04-06T07:24:37Z</time>
      </trkpt>
      <trkpt lat="43.082837" lon="-2.252417">
        <ele>623.153</ele>
        <time>2021-04-06T07:24:39Z</time>
      </trkpt>
      <trkpt lat="43.082814" lon="-2.252427">
        <ele>623.763</ele>
        <time>2021-04-06T07:24:41Z</time>
      </trkpt>
      <trkpt lat="43.082788" lon="-2.252437">
        <ele>624.444</ele>
        <time>2021-04-06T07:24:44Z</time>
      </trkpt>
      <trkpt lat="43.082761" lon="-2.252447">
        <ele>624.918</ele>
        <time>2021-04-06T07:24:45Z</time>
      </trkpt>
      <trkpt lat="43.082736" lon="-2.252457">
        <ele>625.308</ele>
        <time>2021-04-06T07:24:47Z</time>
      </trkpt>
      <trkpt lat="43.082712" lon="-2.252467">
        <ele>625.773</ele>
        <time>2021-04-06T07:24:49Z</time>
      </trkpt>
      <trkpt lat="43.082686" lon="-2.252476">
        <ele>626.156</ele>
        <time>2021-04-06T07:24:52Z</time>
      </trkpt>
      <trkpt lat="43.082665" lon="-2.252481">
        <ele>626.397</ele>
        <time>2021-04-06T07:24:54Z</time>
      </trkpt>
      <trkpt lat="43.082640" lon="-2.252493">
        <ele>626.782</ele>
        <time>2021-04-06T07:24:56Z</time>
      </trkpt>
      <trkpt lat="43.082620" lon="-2.252503">
        <ele>627.147</ele>
        <time>2021-04-06T07:24:58Z</time>
      </trkpt>
      <trkpt lat="43.082595" lon="-2.252513">
        <ele>627.535</ele>
        <time>2021-04-06T07:25:00Z</time>
      </trkpt>
      <trkpt lat="43.082571" lon="-2.252527">
        <ele>628.012</ele>
        <time>2021-04-06T07:25:02Z</time>
      </trkpt>
      <trkpt lat="43.082551" lon="-2.252540">
        <ele>628.550</ele>
        <time>2021-04-06T07:25:03Z</time>
      </trkpt>
      <trkpt lat="43.082531" lon="-2.252557">
        <ele>629.199</ele>
        <time>2021-04-06T07:25:06Z</time>
      </trkpt>
      <trkpt lat="43.082510" lon="-2.252575">
        <ele>629.707</ele>
        <time>2021-04-06T07:25:08Z</time>
      </trkpt>
      <trkpt lat="43.082488" lon="-2.252590">
        <ele>629.927</ele>
        <time>2021-04-06T07:25:10Z</time>
      </trkpt>
      <trkpt lat="43.082462" lon="-2.252613">
        <ele>630.108</ele>
        <time>2021-04-06T07:25:12Z</time>
      </trkpt>
      <trkpt lat="43.082440" lon="-2.252639">
        <ele>630.496</ele>
        <time>2021-04-06T07:25:13Z</time>
      </trkpt>
      <trkpt lat="43.082430" lon="-2.252661">
        <ele>630.919</ele>
        <time>2021-04-06T07:25:15Z</time>
      </trkpt>
      <trkpt lat="43.082430" lon="-2.252693">
        <ele>632.050</ele>
        <time>2021-04-06T07:25:18Z</time>
      </trkpt>
      <trkpt lat="43.082433" lon="-2.252730">
        <ele>633.495</ele>
        <time>2021-04-06T07:25:20Z</time>
      </trkpt>
      <trkpt lat="43.082449" lon="-2.252760">
        <ele>634.940</ele>
        <time>2021-04-06T07:25:22Z</time>
      </trkpt>
      <trkpt lat="43.082474" lon="-2.252774">
        <ele>636.198</ele>
        <time>2021-04-06T07:25:23Z</time>
      </trkpt>
      <trkpt lat="43.082502" lon="-2.252769">
        <ele>636.755</ele>
        <time>2021-04-06T07:25:25Z</time>
      </trkpt>
      <trkpt lat="43.082550" lon="-2.252755">
        <ele>636.373</ele>
        <time>2021-04-06T07:25:28Z</time>
      </trkpt>
      <trkpt lat="43.082580" lon="-2.252750">
        <ele>636.388</ele>
        <time>2021-04-06T07:25:31Z</time>
      </trkpt>
      <trkpt lat="43.082607" lon="-2.252749">
        <ele>636.324</ele>
        <time>2021-04-06T07:25:33Z</time>
      </trkpt>
      <trkpt lat="43.082630" lon="-2.252757">
        <ele>636.726</ele>
        <time>2021-04-06T07:25:35Z</time>
      </trkpt>
      <trkpt lat="43.082655" lon="-2.252773">
        <ele>637.408</ele>
        <time>2021-04-06T07:25:37Z</time>
      </trkpt>
      <trkpt lat="43.082676" lon="-2.252789">
        <ele>638.095</ele>
        <time>2021-04-06T07:25:39Z</time>
      </trkpt>
      <trkpt lat="43.082695" lon="-2.252805">
        <ele>638.638</ele>
        <time>2021-04-06T07:25:40Z</time>
      </trkpt>
      <trkpt lat="43.082716" lon="-2.252819">
        <ele>639.169</ele>
        <time>2021-04-06T07:25:43Z</time>
      </trkpt>
      <trkpt lat="43.082735" lon="-2.252843">
        <ele>640.044</ele>
        <time>2021-04-06T07:25:45Z</time>
      </trkpt>
      <trkpt lat="43.082755" lon="-2.252860">
        <ele>640.629</ele>
        <time>2021-04-06T07:25:47Z</time>
      </trkpt>
      <trkpt lat="43.082772" lon="-2.252881">
        <ele>641.327</ele>
        <time>2021-04-06T07:25:49Z</time>
      </trkpt>
      <trkpt lat="43.082791" lon="-2.252903">
        <ele>641.874</ele>
        <time>2021-04-06T07:25:51Z</time>
      </trkpt>
      <trkpt lat="43.082808" lon="-2.252927">
        <ele>642.392</ele>
        <time>2021-04-06T07:25:53Z</time>
      </trkpt>
      <trkpt lat="43.082825" lon="-2.252946">
        <ele>642.646</ele>
        <time>2021-04-06T07:25:55Z</time>
      </trkpt>
      <trkpt lat="43.082842" lon="-2.252972">
        <ele>643.188</ele>
        <time>2021-04-06T07:25:56Z</time>
      </trkpt>
      <trkpt lat="43.082860" lon="-2.252996">
        <ele>643.616</ele>
        <time>2021-04-06T07:25:59Z</time>
      </trkpt>
      <trkpt lat="43.082873" lon="-2.253021">
        <ele>644.208</ele>
        <time>2021-04-06T07:26:01Z</time>
      </trkpt>
      <trkpt lat="43.082890" lon="-2.253050">
        <ele>644.891</ele>
        <time>2021-04-06T07:26:03Z</time>
      </trkpt>
      <trkpt lat="43.082901" lon="-2.253076">
        <ele>645.454</ele>
        <time>2021-04-06T07:26:05Z</time>
      </trkpt>
      <trkpt lat="43.082911" lon="-2.253103">
        <ele>646.195</ele>
        <time>2021-04-06T07:26:06Z</time>
      </trkpt>
      <trkpt lat="43.082924" lon="-2.253133">
        <ele>646.710</ele>
        <time>2021-04-06T07:26:09Z</time>
      </trkpt>
      <trkpt lat="43.082941" lon="-2.253161">
        <ele>647.385</ele>
        <time>2021-04-06T07:26:11Z</time>
      </trkpt>
      <trkpt lat="43.082949" lon="-2.253188">
        <ele>647.953</ele>
        <time>2021-04-06T07:26:13Z</time>
      </trkpt>
      <trkpt lat="43.082954" lon="-2.253213">
        <ele>648.660</ele>
        <time>2021-04-06T07:26:15Z</time>
      </trkpt>
      <trkpt lat="43.082961" lon="-2.253240">
        <ele>649.268</ele>
        <time>2021-04-06T07:26:17Z</time>
      </trkpt>
      <trkpt lat="43.082968" lon="-2.253266">
        <ele>649.941</ele>
        <time>2021-04-06T07:26:19Z</time>
      </trkpt>
      <trkpt lat="43.082981" lon="-2.253290">
        <ele>650.381</ele>
        <time>2021-04-06T07:26:21Z</time>
      </trkpt>
      <trkpt lat="43.082990" lon="-2.253314">
        <ele>650.809</ele>
        <time>2021-04-06T07:26:23Z</time>
      </trkpt>
      <trkpt lat="43.082990" lon="-2.253342">
        <ele>651.608</ele>
        <time>2021-04-06T07:26:25Z</time>
      </trkpt>
      <trkpt lat="43.082995" lon="-2.253376">
        <ele>652.431</ele>
        <time>2021-04-06T07:26:26Z</time>
      </trkpt>
      <trkpt lat="43.083004" lon="-2.253403">
        <ele>652.954</ele>
        <time>2021-04-06T07:26:28Z</time>
      </trkpt>
      <trkpt lat="43.083014" lon="-2.253426">
        <ele>653.385</ele>
        <time>2021-04-06T07:26:30Z</time>
      </trkpt>
      <trkpt lat="43.083025" lon="-2.253455">
        <ele>653.840</ele>
        <time>2021-04-06T07:26:33Z</time>
      </trkpt>
      <trkpt lat="43.083035" lon="-2.253479">
        <ele>654.255</ele>
        <time>2021-04-06T07:26:35Z</time>
      </trkpt>
      <trkpt lat="43.083040" lon="-2.253507">
        <ele>654.773</ele>
        <time>2021-04-06T07:26:38Z</time>
      </trkpt>
      <trkpt lat="43.083047" lon="-2.253534">
        <ele>655.340</ele>
        <time>2021-04-06T07:26:40Z</time>
      </trkpt>
      <trkpt lat="43.083056" lon="-2.253565">
        <ele>655.818</ele>
        <time>2021-04-06T07:26:41Z</time>
      </trkpt>
      <trkpt lat="43.083065" lon="-2.253613">
        <ele>656.647</ele>
        <time>2021-04-06T07:26:44Z</time>
      </trkpt>
      <trkpt lat="43.083081" lon="-2.253655">
        <ele>656.829</ele>
        <time>2021-04-06T07:26:47Z</time>
      </trkpt>
      <trkpt lat="43.083091" lon="-2.253690">
        <ele>657.121</ele>
        <time>2021-04-06T07:26:50Z</time>
      </trkpt>
      <trkpt lat="43.083093" lon="-2.253719">
        <ele>657.708</ele>
        <time>2021-04-06T07:26:52Z</time>
      </trkpt>
      <trkpt lat="43.083093" lon="-2.253752">
        <ele>658.441</ele>
        <time>2021-04-06T07:26:55Z</time>
      </trkpt>
      <trkpt lat="43.083081" lon="-2.253778">
        <ele>659.564</ele>
        <time>2021-04-06T07:27:00Z</time>
      </trkpt>
      <trkpt lat="43.083084" lon="-2.253811">
        <ele>660.025</ele>
        <time>2021-04-06T07:27:03Z</time>
      </trkpt>
      <trkpt lat="43.083075" lon="-2.253845">
        <ele>661.270</ele>
        <time>2021-04-06T07:27:06Z</time>
      </trkpt>
      <trkpt lat="43.083073" lon="-2.253867">
        <ele>661.735</ele>
        <time>2021-04-06T07:27:08Z</time>
      </trkpt>
      <trkpt lat="43.083067" lon="-2.253890">
        <ele>662.513</ele>
        <time>2021-04-06T07:27:12Z</time>
      </trkpt>
      <trkpt lat="43.083057" lon="-2.253906">
        <ele>663.250</ele>
        <time>2021-04-06T07:27:18Z</time>
      </trkpt>
      <trkpt lat="43.083046" lon="-2.253924">
        <ele>663.848</ele>
        <time>2021-04-06T07:27:22Z</time>
      </trkpt>
      <trkpt lat="43.083036" lon="-2.253947">
        <ele>664.335</ele>
        <time>2021-04-06T07:27:23Z</time>
      </trkpt>
      <trkpt lat="43.083019" lon="-2.253963">
        <ele>665.086</ele>
        <time>2021-04-06T07:27:26Z</time>
      </trkpt>
      <trkpt lat="43.083003" lon="-2.253978">
        <ele>665.714</ele>
        <time>2021-04-06T07:27:28Z</time>
      </trkpt>
      <trkpt lat="43.082989" lon="-2.254001">
        <ele>666.408</ele>
        <time>2021-04-06T07:27:33Z</time>
      </trkpt>
      <trkpt lat="43.082971" lon="-2.254015">
        <ele>667.110</ele>
        <time>2021-04-06T07:27:36Z</time>
      </trkpt>
      <trkpt lat="43.082957" lon="-2.254023">
        <ele>667.623</ele>
        <time>2021-04-06T07:27:38Z</time>
      </trkpt>
      <trkpt lat="43.082933" lon="-2.254033">
        <ele>668.474</ele>
        <time>2021-04-06T07:27:41Z</time>
      </trkpt>
      <trkpt lat="43.082911" lon="-2.254035">
        <ele>669.099</ele>
        <time>2021-04-06T07:27:45Z</time>
      </trkpt>
      <trkpt lat="43.082908" lon="-2.254049">
        <ele>669.364</ele>
        <time>2021-04-06T07:27:49Z</time>
      </trkpt>
      <trkpt lat="43.082894" lon="-2.254076">
        <ele>670.262</ele>
        <time>2021-04-06T07:27:51Z</time>
      </trkpt>
      <trkpt lat="43.082883" lon="-2.254116">
        <ele>671.179</ele>
        <time>2021-04-06T07:27:54Z</time>
      </trkpt>
      <trkpt lat="43.082870" lon="-2.254134">
        <ele>671.817</ele>
        <time>2021-04-06T07:27:57Z</time>
      </trkpt>
      <trkpt lat="43.082848" lon="-2.254142">
        <ele>672.671</ele>
        <time>2021-04-06T07:28:01Z</time>
      </trkpt>
      <trkpt lat="43.082834" lon="-2.254158">
        <ele>673.241</ele>
        <time>2021-04-06T07:28:03Z</time>
      </trkpt>
      <trkpt lat="43.082817" lon="-2.254171">
        <ele>673.915</ele>
        <time>2021-04-06T07:28:06Z</time>
      </trkpt>
      <trkpt lat="43.082794" lon="-2.254170">
        <ele>674.508</ele>
        <time>2021-04-06T07:28:07Z</time>
      </trkpt>
      <trkpt lat="43.082771" lon="-2.254168">
        <ele>674.994</ele>
        <time>2021-04-06T07:28:10Z</time>
      </trkpt>
      <trkpt lat="43.082752" lon="-2.254170">
        <ele>674.667</ele>
        <time>2021-04-06T07:28:12Z</time>
      </trkpt>
      <trkpt lat="43.082730" lon="-2.254175">
        <ele>674.398</ele>
        <time>2021-04-06T07:28:14Z</time>
      </trkpt>
      <trkpt lat="43.082709" lon="-2.254181">
        <ele>673.963</ele>
        <time>2021-04-06T07:28:16Z</time>
      </trkpt>
      <trkpt lat="43.082693" lon="-2.254201">
        <ele>673.618</ele>
        <time>2021-04-06T07:28:19Z</time>
      </trkpt>
      <trkpt lat="43.082699" lon="-2.254228">
        <ele>673.596</ele>
        <time>2021-04-06T07:28:35Z</time>
      </trkpt>
      <trkpt lat="43.082698" lon="-2.254261">
        <ele>673.383</ele>
        <time>2021-04-06T07:28:38Z</time>
      </trkpt>
      <trkpt lat="43.082696" lon="-2.254289">
        <ele>673.191</ele>
        <time>2021-04-06T07:28:41Z</time>
      </trkpt>
      <trkpt lat="43.082692" lon="-2.254325">
        <ele>672.892</ele>
        <time>2021-04-06T07:28:42Z</time>
      </trkpt>
      <trkpt lat="43.082693" lon="-2.254359">
        <ele>672.773</ele>
        <time>2021-04-06T07:28:44Z</time>
      </trkpt>
      <trkpt lat="43.082703" lon="-2.254389">
        <ele>672.720</ele>
        <time>2021-04-06T07:28:46Z</time>
      </trkpt>
      <trkpt lat="43.082707" lon="-2.254416">
        <ele>672.608</ele>
        <time>2021-04-06T07:28:49Z</time>
      </trkpt>
      <trkpt lat="43.082718" lon="-2.254455">
        <ele>672.556</ele>
        <time>2021-04-06T07:28:51Z</time>
      </trkpt>
      <trkpt lat="43.082730" lon="-2.254477">
        <ele>672.579</ele>
        <time>2021-04-06T07:28:52Z</time>
      </trkpt>
      <trkpt lat="43.082743" lon="-2.254498">
        <ele>672.550</ele>
        <time>2021-04-06T07:28:53Z</time>
      </trkpt>
      <trkpt lat="43.082766" lon="-2.254541">
        <ele>672.315</ele>
        <time>2021-04-06T07:28:55Z</time>
      </trkpt>
      <trkpt lat="43.082787" lon="-2.254575">
        <ele>672.150</ele>
        <time>2021-04-06T07:28:58Z</time>
      </trkpt>
      <trkpt lat="43.082817" lon="-2.254608">
        <ele>671.748</ele>
        <time>2021-04-06T07:29:00Z</time>
      </trkpt>
      <trkpt lat="43.082829" lon="-2.254625">
        <ele>671.695</ele>
        <time>2021-04-06T07:29:01Z</time>
      </trkpt>
      <trkpt lat="43.082852" lon="-2.254648">
        <ele>671.433</ele>
        <time>2021-04-06T07:29:03Z</time>
      </trkpt>
      <trkpt lat="43.082891" lon="-2.254694">
        <ele>671.493</ele>
        <time>2021-04-06T07:29:05Z</time>
      </trkpt>
      <trkpt lat="43.082908" lon="-2.254710">
        <ele>671.565</ele>
        <time>2021-04-06T07:29:06Z</time>
      </trkpt>
      <trkpt lat="43.082937" lon="-2.254731">
        <ele>671.521</ele>
        <time>2021-04-06T07:29:09Z</time>
      </trkpt>
      <trkpt lat="43.082956" lon="-2.254756">
        <ele>671.208</ele>
        <time>2021-04-06T07:29:10Z</time>
      </trkpt>
      <trkpt lat="43.082972" lon="-2.254778">
        <ele>670.856</ele>
        <time>2021-04-06T07:29:12Z</time>
      </trkpt>
      <trkpt lat="43.082992" lon="-2.254800">
        <ele>670.679</ele>
        <time>2021-04-06T07:29:14Z</time>
      </trkpt>
      <trkpt lat="43.083009" lon="-2.254823">
        <ele>670.310</ele>
        <time>2021-04-06T07:29:17Z</time>
      </trkpt>
      <trkpt lat="43.083036" lon="-2.254838">
        <ele>670.375</ele>
        <time>2021-04-06T07:29:19Z</time>
      </trkpt>
      <trkpt lat="43.083054" lon="-2.254850">
        <ele>670.210</ele>
        <time>2021-04-06T07:29:20Z</time>
      </trkpt>
      <trkpt lat="43.083078" lon="-2.254878">
        <ele>669.258</ele>
        <time>2021-04-06T07:29:23Z</time>
      </trkpt>
      <trkpt lat="43.083109" lon="-2.254906">
        <ele>668.185</ele>
        <time>2021-04-06T07:29:24Z</time>
      </trkpt>
      <trkpt lat="43.083125" lon="-2.254919">
        <ele>667.663</ele>
        <time>2021-04-06T07:29:26Z</time>
      </trkpt>
      <trkpt lat="43.083154" lon="-2.254939">
        <ele>666.981</ele>
        <time>2021-04-06T07:29:28Z</time>
      </trkpt>
      <trkpt lat="43.083174" lon="-2.254948">
        <ele>666.661</ele>
        <time>2021-04-06T07:29:53Z</time>
      </trkpt>
      <trkpt lat="43.083194" lon="-2.254979">
        <ele>666.117</ele>
        <time>2021-04-06T07:29:56Z</time>
      </trkpt>
      <trkpt lat="43.083232" lon="-2.255029">
        <ele>665.208</ele>
        <time>2021-04-06T07:29:57Z</time>
      </trkpt>
      <trkpt lat="43.083255" lon="-2.255057">
        <ele>664.635</ele>
        <time>2021-04-06T07:29:59Z</time>
      </trkpt>
      <trkpt lat="43.083303" lon="-2.255117">
        <ele>663.428</ele>
        <time>2021-04-06T07:30:00Z</time>
      </trkpt>
      <trkpt lat="43.083349" lon="-2.255172">
        <ele>661.989</ele>
        <time>2021-04-06T07:30:02Z</time>
      </trkpt>
      <trkpt lat="43.083367" lon="-2.255202">
        <ele>660.994</ele>
        <time>2021-04-06T07:30:04Z</time>
      </trkpt>
      <trkpt lat="43.083390" lon="-2.255232">
        <ele>659.959</ele>
        <time>2021-04-06T07:30:05Z</time>
      </trkpt>
      <trkpt lat="43.083414" lon="-2.255262">
        <ele>659.027</ele>
        <time>2021-04-06T07:30:06Z</time>
      </trkpt>
      <trkpt lat="43.083438" lon="-2.255290">
        <ele>658.124</ele>
        <time>2021-04-06T07:30:07Z</time>
      </trkpt>
      <trkpt lat="43.083464" lon="-2.255316">
        <ele>657.142</ele>
        <time>2021-04-06T07:30:08Z</time>
      </trkpt>
      <trkpt lat="43.083509" lon="-2.255376">
        <ele>655.559</ele>
        <time>2021-04-06T07:30:09Z</time>
      </trkpt>
      <trkpt lat="43.083534" lon="-2.255407">
        <ele>654.903</ele>
        <time>2021-04-06T07:30:10Z</time>
      </trkpt>
      <trkpt lat="43.083557" lon="-2.255439">
        <ele>654.523</ele>
        <time>2021-04-06T07:30:12Z</time>
      </trkpt>
      <trkpt lat="43.083581" lon="-2.255472">
        <ele>654.208</ele>
        <time>2021-04-06T07:30:13Z</time>
      </trkpt>
      <trkpt lat="43.083630" lon="-2.255528">
        <ele>653.342</ele>
        <time>2021-04-06T07:30:14Z</time>
      </trkpt>
      <trkpt lat="43.083671" lon="-2.255594">
        <ele>651.165</ele>
        <time>2021-04-06T07:30:16Z</time>
      </trkpt>
      <trkpt lat="43.083702" lon="-2.255669">
        <ele>649.186</ele>
        <time>2021-04-06T07:30:18Z</time>
      </trkpt>
      <trkpt lat="43.083715" lon="-2.255703">
        <ele>648.391</ele>
        <time>2021-04-06T07:30:20Z</time>
      </trkpt>
      <trkpt lat="43.083729" lon="-2.255735">
        <ele>647.796</ele>
        <time>2021-04-06T07:30:21Z</time>
      </trkpt>
      <trkpt lat="43.083744" lon="-2.255767">
        <ele>647.274</ele>
        <time>2021-04-06T07:30:22Z</time>
      </trkpt>
      <trkpt lat="43.083765" lon="-2.255797">
        <ele>646.711</ele>
        <time>2021-04-06T07:30:23Z</time>
      </trkpt>
      <trkpt lat="43.083784" lon="-2.255822">
        <ele>646.429</ele>
        <time>2021-04-06T07:30:24Z</time>
      </trkpt>
      <trkpt lat="43.083805" lon="-2.255851">
        <ele>645.917</ele>
        <time>2021-04-06T07:30:25Z</time>
      </trkpt>
      <trkpt lat="43.083823" lon="-2.255879">
        <ele>645.387</ele>
        <time>2021-04-06T07:30:26Z</time>
      </trkpt>
      <trkpt lat="43.083852" lon="-2.255938">
        <ele>644.115</ele>
        <time>2021-04-06T07:30:27Z</time>
      </trkpt>
      <trkpt lat="43.083867" lon="-2.255970">
        <ele>643.508</ele>
        <time>2021-04-06T07:30:29Z</time>
      </trkpt>
      <trkpt lat="43.083885" lon="-2.256005">
        <ele>642.968</ele>
        <time>2021-04-06T07:30:30Z</time>
      </trkpt>
      <trkpt lat="43.083924" lon="-2.256076">
        <ele>641.281</ele>
        <time>2021-04-06T07:30:31Z</time>
      </trkpt>
      <trkpt lat="43.083957" lon="-2.256150">
        <ele>639.612</ele>
        <time>2021-04-06T07:30:33Z</time>
      </trkpt>
      <trkpt lat="43.083977" lon="-2.256175">
        <ele>638.977</ele>
        <time>2021-04-06T07:30:35Z</time>
      </trkpt>
      <trkpt lat="43.084017" lon="-2.256225">
        <ele>637.752</ele>
        <time>2021-04-06T07:30:36Z</time>
      </trkpt>
      <trkpt lat="43.084058" lon="-2.256269">
        <ele>637.080</ele>
        <time>2021-04-06T07:30:38Z</time>
      </trkpt>
      <trkpt lat="43.084080" lon="-2.256285">
        <ele>636.827</ele>
        <time>2021-04-06T07:30:39Z</time>
      </trkpt>
      <trkpt lat="43.084119" lon="-2.256330">
        <ele>636.335</ele>
        <time>2021-04-06T07:30:41Z</time>
      </trkpt>
      <trkpt lat="43.084144" lon="-2.256354">
        <ele>636.218</ele>
        <time>2021-04-06T07:30:42Z</time>
      </trkpt>
      <trkpt lat="43.084198" lon="-2.256401">
        <ele>635.598</ele>
        <time>2021-04-06T07:30:44Z</time>
      </trkpt>
      <trkpt lat="43.084262" lon="-2.256448">
        <ele>634.217</ele>
        <time>2021-04-06T07:30:46Z</time>
      </trkpt>
      <trkpt lat="43.084293" lon="-2.256475">
        <ele>633.608</ele>
        <time>2021-04-06T07:30:48Z</time>
      </trkpt>
      <trkpt lat="43.084325" lon="-2.256503">
        <ele>633.148</ele>
        <time>2021-04-06T07:30:49Z</time>
      </trkpt>
      <trkpt lat="43.084387" lon="-2.256549">
        <ele>632.851</ele>
        <time>2021-04-06T07:30:50Z</time>
      </trkpt>
      <trkpt lat="43.084441" lon="-2.256603">
        <ele>632.642</ele>
        <time>2021-04-06T07:30:52Z</time>
      </trkpt>
      <trkpt lat="43.084465" lon="-2.256631">
        <ele>632.397</ele>
        <time>2021-04-06T07:30:53Z</time>
      </trkpt>
      <trkpt lat="43.084486" lon="-2.256660">
        <ele>632.022</ele>
        <time>2021-04-06T07:30:54Z</time>
      </trkpt>
      <trkpt lat="43.084527" lon="-2.256730">
        <ele>630.510</ele>
        <time>2021-04-06T07:30:56Z</time>
      </trkpt>
      <trkpt lat="43.084572" lon="-2.256795">
        <ele>629.727</ele>
        <time>2021-04-06T07:30:58Z</time>
      </trkpt>
      <trkpt lat="43.084593" lon="-2.256825">
        <ele>629.765</ele>
        <time>2021-04-06T07:30:59Z</time>
      </trkpt>
      <trkpt lat="43.084648" lon="-2.256879">
        <ele>630.524</ele>
        <time>2021-04-06T07:31:01Z</time>
      </trkpt>
      <trkpt lat="43.084670" lon="-2.256907">
        <ele>631.104</ele>
        <time>2021-04-06T07:31:02Z</time>
      </trkpt>
      <trkpt lat="43.084690" lon="-2.256939">
        <ele>631.714</ele>
        <time>2021-04-06T07:31:03Z</time>
      </trkpt>
      <trkpt lat="43.084704" lon="-2.256970">
        <ele>632.008</ele>
        <time>2021-04-06T07:31:04Z</time>
      </trkpt>
      <trkpt lat="43.084725" lon="-2.257022">
        <ele>632.119</ele>
        <time>2021-04-06T07:31:06Z</time>
      </trkpt>
      <trkpt lat="43.084732" lon="-2.257044">
        <ele>631.972</ele>
        <time>2021-04-06T07:31:07Z</time>
      </trkpt>
      <trkpt lat="43.084748" lon="-2.257104">
        <ele>631.453</ele>
        <time>2021-04-06T07:31:09Z</time>
      </trkpt>
      <trkpt lat="43.084757" lon="-2.257132">
        <ele>631.348</ele>
        <time>2021-04-06T07:31:10Z</time>
      </trkpt>
      <trkpt lat="43.084769" lon="-2.257160">
        <ele>631.333</ele>
        <time>2021-04-06T07:31:11Z</time>
      </trkpt>
      <trkpt lat="43.084788" lon="-2.257221">
        <ele>631.481</ele>
        <time>2021-04-06T07:31:13Z</time>
      </trkpt>
      <trkpt lat="43.084808" lon="-2.257286">
        <ele>631.628</ele>
        <time>2021-04-06T07:31:15Z</time>
      </trkpt>
      <trkpt lat="43.084825" lon="-2.257349">
        <ele>631.926</ele>
        <time>2021-04-06T07:31:17Z</time>
      </trkpt>
      <trkpt lat="43.084836" lon="-2.257383">
        <ele>632.131</ele>
        <time>2021-04-06T07:31:18Z</time>
      </trkpt>
      <trkpt lat="43.084844" lon="-2.257415">
        <ele>632.461</ele>
        <time>2021-04-06T07:31:20Z</time>
      </trkpt>
      <trkpt lat="43.084855" lon="-2.257448">
        <ele>632.807</ele>
        <time>2021-04-06T07:31:21Z</time>
      </trkpt>
      <trkpt lat="43.084865" lon="-2.257479">
        <ele>633.208</ele>
        <time>2021-04-06T07:31:22Z</time>
      </trkpt>
      <trkpt lat="43.084876" lon="-2.257507">
        <ele>633.630</ele>
        <time>2021-04-06T07:31:23Z</time>
      </trkpt>
      <trkpt lat="43.084887" lon="-2.257537">
        <ele>633.723</ele>
        <time>2021-04-06T07:31:24Z</time>
      </trkpt>
      <trkpt lat="43.084897" lon="-2.257567">
        <ele>633.814</ele>
        <time>2021-04-06T07:31:25Z</time>
      </trkpt>
      <trkpt lat="43.084909" lon="-2.257597">
        <ele>634.039</ele>
        <time>2021-04-06T07:31:26Z</time>
      </trkpt>
      <trkpt lat="43.084923" lon="-2.257627">
        <ele>634.344</ele>
        <time>2021-04-06T07:31:27Z</time>
      </trkpt>
      <trkpt lat="43.084952" lon="-2.257685">
        <ele>634.962</ele>
        <time>2021-04-06T07:31:28Z</time>
      </trkpt>
      <trkpt lat="43.084967" lon="-2.257713">
        <ele>635.379</ele>
        <time>2021-04-06T07:31:29Z</time>
      </trkpt>
      <trkpt lat="43.084984" lon="-2.257741">
        <ele>635.787</ele>
        <time>2021-04-06T07:31:30Z</time>
      </trkpt>
      <trkpt lat="43.085021" lon="-2.257793">
        <ele>635.664</ele>
        <time>2021-04-06T07:31:32Z</time>
      </trkpt>
      <trkpt lat="43.085039" lon="-2.257821">
        <ele>635.106</ele>
        <time>2021-04-06T07:31:34Z</time>
      </trkpt>
      <trkpt lat="43.085076" lon="-2.257875">
        <ele>634.416</ele>
        <time>2021-04-06T07:31:35Z</time>
      </trkpt>
      <trkpt lat="43.085094" lon="-2.257900">
        <ele>634.208</ele>
        <time>2021-04-06T07:31:37Z</time>
      </trkpt>
      <trkpt lat="43.085131" lon="-2.257945">
        <ele>634.213</ele>
        <time>2021-04-06T07:31:38Z</time>
      </trkpt>
      <trkpt lat="43.085150" lon="-2.257970">
        <ele>634.366</ele>
        <time>2021-04-06T07:31:39Z</time>
      </trkpt>
      <trkpt lat="43.085190" lon="-2.258018">
        <ele>634.957</ele>
        <time>2021-04-06T07:31:41Z</time>
      </trkpt>
      <trkpt lat="43.085229" lon="-2.258069">
        <ele>635.652</ele>
        <time>2021-04-06T07:31:43Z</time>
      </trkpt>
      <trkpt lat="43.085251" lon="-2.258093">
        <ele>635.957</ele>
        <time>2021-04-06T07:31:45Z</time>
      </trkpt>
      <trkpt lat="43.085274" lon="-2.258118">
        <ele>636.255</ele>
        <time>2021-04-06T07:31:46Z</time>
      </trkpt>
      <trkpt lat="43.085315" lon="-2.258176">
        <ele>634.792</ele>
        <time>2021-04-06T07:31:47Z</time>
      </trkpt>
      <trkpt lat="43.085335" lon="-2.258207">
        <ele>634.190</ele>
        <time>2021-04-06T07:31:49Z</time>
      </trkpt>
      <trkpt lat="43.085373" lon="-2.258259">
        <ele>633.545</ele>
        <time>2021-04-06T07:31:50Z</time>
      </trkpt>
      <trkpt lat="43.085390" lon="-2.258286">
        <ele>633.447</ele>
        <time>2021-04-06T07:31:52Z</time>
      </trkpt>
      <trkpt lat="43.085408" lon="-2.258314">
        <ele>633.411</ele>
        <time>2021-04-06T07:31:53Z</time>
      </trkpt>
      <trkpt lat="43.085427" lon="-2.258343">
        <ele>633.508</ele>
        <time>2021-04-06T07:31:54Z</time>
      </trkpt>
      <trkpt lat="43.085447" lon="-2.258372">
        <ele>633.541</ele>
        <time>2021-04-06T07:31:55Z</time>
      </trkpt>
      <trkpt lat="43.085462" lon="-2.258402">
        <ele>633.694</ele>
        <time>2021-04-06T07:31:56Z</time>
      </trkpt>
      <trkpt lat="43.085478" lon="-2.258434">
        <ele>633.835</ele>
        <time>2021-04-06T07:31:57Z</time>
      </trkpt>
      <trkpt lat="43.085514" lon="-2.258495">
        <ele>634.710</ele>
        <time>2021-04-06T07:31:58Z</time>
      </trkpt>
      <trkpt lat="43.085546" lon="-2.258552">
        <ele>635.945</ele>
        <time>2021-04-06T07:32:00Z</time>
      </trkpt>
      <trkpt lat="43.085574" lon="-2.258614">
        <ele>636.673</ele>
        <time>2021-04-06T07:32:02Z</time>
      </trkpt>
      <trkpt lat="43.085589" lon="-2.258647">
        <ele>635.830</ele>
        <time>2021-04-06T07:32:04Z</time>
      </trkpt>
      <trkpt lat="43.085603" lon="-2.258680">
        <ele>635.218</ele>
        <time>2021-04-06T07:32:05Z</time>
      </trkpt>
      <trkpt lat="43.085617" lon="-2.258714">
        <ele>634.881</ele>
        <time>2021-04-06T07:32:06Z</time>
      </trkpt>
      <trkpt lat="43.085632" lon="-2.258752">
        <ele>634.561</ele>
        <time>2021-04-06T07:32:07Z</time>
      </trkpt>
      <trkpt lat="43.085655" lon="-2.258822">
        <ele>634.317</ele>
        <time>2021-04-06T07:32:08Z</time>
      </trkpt>
      <trkpt lat="43.085678" lon="-2.258888">
        <ele>634.608</ele>
        <time>2021-04-06T07:32:10Z</time>
      </trkpt>
      <trkpt lat="43.085704" lon="-2.258950">
        <ele>634.885</ele>
        <time>2021-04-06T07:32:12Z</time>
      </trkpt>
      <trkpt lat="43.085715" lon="-2.258974">
        <ele>635.088</ele>
        <time>2021-04-06T07:32:14Z</time>
      </trkpt>
      <trkpt lat="43.085737" lon="-2.259004">
        <ele>635.699</ele>
        <time>2021-04-06T07:32:16Z</time>
      </trkpt>
      <trkpt lat="43.085755" lon="-2.259033">
        <ele>636.234</ele>
        <time>2021-04-06T07:32:18Z</time>
      </trkpt>
      <trkpt lat="43.085772" lon="-2.259062">
        <ele>636.849</ele>
        <time>2021-04-06T07:32:20Z</time>
      </trkpt>
      <trkpt lat="43.085783" lon="-2.259087">
        <ele>637.377</ele>
        <time>2021-04-06T07:32:22Z</time>
      </trkpt>
      <trkpt lat="43.085798" lon="-2.259108">
        <ele>638.054</ele>
        <time>2021-04-06T07:32:23Z</time>
      </trkpt>
      <trkpt lat="43.085816" lon="-2.259132">
        <ele>638.952</ele>
        <time>2021-04-06T07:32:26Z</time>
      </trkpt>
      <trkpt lat="43.085835" lon="-2.259155">
        <ele>639.971</ele>
        <time>2021-04-06T07:32:27Z</time>
      </trkpt>
      <trkpt lat="43.085855" lon="-2.259179">
        <ele>640.041</ele>
        <time>2021-04-06T07:32:30Z</time>
      </trkpt>
      <trkpt lat="43.085872" lon="-2.259200">
        <ele>640.015</ele>
        <time>2021-04-06T07:32:32Z</time>
      </trkpt>
      <trkpt lat="43.085891" lon="-2.259224">
        <ele>640.108</ele>
        <time>2021-04-06T07:32:34Z</time>
      </trkpt>
      <trkpt lat="43.085914" lon="-2.259253">
        <ele>640.394</ele>
        <time>2021-04-06T07:32:35Z</time>
      </trkpt>
      <trkpt lat="43.085934" lon="-2.259287">
        <ele>640.767</ele>
        <time>2021-04-06T07:32:37Z</time>
      </trkpt>
      <trkpt lat="43.085950" lon="-2.259320">
        <ele>641.218</ele>
        <time>2021-04-06T07:32:39Z</time>
      </trkpt>
      <trkpt lat="43.085966" lon="-2.259351">
        <ele>641.853</ele>
        <time>2021-04-06T07:32:42Z</time>
      </trkpt>
      <trkpt lat="43.085982" lon="-2.259384">
        <ele>642.568</ele>
        <time>2021-04-06T07:32:44Z</time>
      </trkpt>
      <trkpt lat="43.086009" lon="-2.259438">
        <ele>644.276</ele>
        <time>2021-04-06T07:32:47Z</time>
      </trkpt>
      <trkpt lat="43.086024" lon="-2.259473">
        <ele>644.793</ele>
        <time>2021-04-06T07:32:49Z</time>
      </trkpt>
      <trkpt lat="43.086038" lon="-2.259508">
        <ele>645.051</ele>
        <time>2021-04-06T07:32:50Z</time>
      </trkpt>
      <trkpt lat="43.086052" lon="-2.259540">
        <ele>645.446</ele>
        <time>2021-04-06T07:32:52Z</time>
      </trkpt>
      <trkpt lat="43.086066" lon="-2.259572">
        <ele>645.888</ele>
        <time>2021-04-06T07:32:54Z</time>
      </trkpt>
      <trkpt lat="43.086083" lon="-2.259601">
        <ele>646.416</ele>
        <time>2021-04-06T07:32:57Z</time>
      </trkpt>
      <trkpt lat="43.086096" lon="-2.259631">
        <ele>646.908</ele>
        <time>2021-04-06T07:32:58Z</time>
      </trkpt>
      <trkpt lat="43.086110" lon="-2.259658">
        <ele>647.411</ele>
        <time>2021-04-06T07:33:00Z</time>
      </trkpt>
      <trkpt lat="43.086123" lon="-2.259688">
        <ele>647.484</ele>
        <time>2021-04-06T07:33:02Z</time>
      </trkpt>
      <trkpt lat="43.086138" lon="-2.259718">
        <ele>647.475</ele>
        <time>2021-04-06T07:33:05Z</time>
      </trkpt>
      <trkpt lat="43.086153" lon="-2.259755">
        <ele>647.380</ele>
        <time>2021-04-06T07:33:06Z</time>
      </trkpt>
      <trkpt lat="43.086175" lon="-2.259800">
        <ele>647.445</ele>
        <time>2021-04-06T07:33:08Z</time>
      </trkpt>
      <trkpt lat="43.086197" lon="-2.259858">
        <ele>647.563</ele>
        <time>2021-04-06T07:33:10Z</time>
      </trkpt>
      <trkpt lat="43.086206" lon="-2.259893">
        <ele>647.660</ele>
        <time>2021-04-06T07:33:11Z</time>
      </trkpt>
      <trkpt lat="43.086215" lon="-2.259928">
        <ele>647.738</ele>
        <time>2021-04-06T07:33:13Z</time>
      </trkpt>
      <trkpt lat="43.086224" lon="-2.259962">
        <ele>647.872</ele>
        <time>2021-04-06T07:33:14Z</time>
      </trkpt>
      <trkpt lat="43.086237" lon="-2.259999">
        <ele>648.113</ele>
        <time>2021-04-06T07:33:15Z</time>
      </trkpt>
      <trkpt lat="43.086262" lon="-2.260068">
        <ele>647.714</ele>
        <time>2021-04-06T07:33:16Z</time>
      </trkpt>
      <trkpt lat="43.086290" lon="-2.260139">
        <ele>647.408</ele>
        <time>2021-04-06T07:33:18Z</time>
      </trkpt>
      <trkpt lat="43.086305" lon="-2.260174">
        <ele>647.414</ele>
        <time>2021-04-06T07:33:19Z</time>
      </trkpt>
      <trkpt lat="43.086321" lon="-2.260208">
        <ele>647.477</ele>
        <time>2021-04-06T07:33:20Z</time>
      </trkpt>
      <trkpt lat="43.086336" lon="-2.260240">
        <ele>647.598</ele>
        <time>2021-04-06T07:33:21Z</time>
      </trkpt>
      <trkpt lat="43.086351" lon="-2.260276">
        <ele>647.523</ele>
        <time>2021-04-06T07:33:23Z</time>
      </trkpt>
      <trkpt lat="43.086384" lon="-2.260343">
        <ele>647.468</ele>
        <time>2021-04-06T07:33:24Z</time>
      </trkpt>
      <trkpt lat="43.086420" lon="-2.260403">
        <ele>646.546</ele>
        <time>2021-04-06T07:33:26Z</time>
      </trkpt>
      <trkpt lat="43.086436" lon="-2.260432">
        <ele>646.133</ele>
        <time>2021-04-06T07:33:27Z</time>
      </trkpt>
      <trkpt lat="43.086474" lon="-2.260484">
        <ele>645.881</ele>
        <time>2021-04-06T07:33:29Z</time>
      </trkpt>
      <trkpt lat="43.086515" lon="-2.260542">
        <ele>645.811</ele>
        <time>2021-04-06T07:33:31Z</time>
      </trkpt>
      <trkpt lat="43.086558" lon="-2.260606">
        <ele>645.721</ele>
        <time>2021-04-06T07:33:33Z</time>
      </trkpt>
      <trkpt lat="43.086581" lon="-2.260640">
        <ele>645.703</ele>
        <time>2021-04-06T07:33:34Z</time>
      </trkpt>
      <trkpt lat="43.086626" lon="-2.260700">
        <ele>645.808</ele>
        <time>2021-04-06T07:33:36Z</time>
      </trkpt>
      <trkpt lat="43.086648" lon="-2.260729">
        <ele>646.018</ele>
        <time>2021-04-06T07:33:37Z</time>
      </trkpt>
      <trkpt lat="43.086669" lon="-2.260757">
        <ele>646.151</ele>
        <time>2021-04-06T07:33:38Z</time>
      </trkpt>
      <trkpt lat="43.086690" lon="-2.260785">
        <ele>645.432</ele>
        <time>2021-04-06T07:33:39Z</time>
      </trkpt>
      <trkpt lat="43.086737" lon="-2.260833">
        <ele>644.787</ele>
        <time>2021-04-06T07:33:41Z</time>
      </trkpt>
      <trkpt lat="43.086761" lon="-2.260853">
        <ele>644.452</ele>
        <time>2021-04-06T07:33:42Z</time>
      </trkpt>
      <trkpt lat="43.086784" lon="-2.260874">
        <ele>644.230</ele>
        <time>2021-04-06T07:33:44Z</time>
      </trkpt>
      <trkpt lat="43.086805" lon="-2.260892">
        <ele>644.247</ele>
        <time>2021-04-06T07:33:45Z</time>
      </trkpt>
      <trkpt lat="43.086826" lon="-2.260909">
        <ele>644.265</ele>
        <time>2021-04-06T07:33:46Z</time>
      </trkpt>
      <trkpt lat="43.086848" lon="-2.260931">
        <ele>644.435</ele>
        <time>2021-04-06T07:33:47Z</time>
      </trkpt>
      <trkpt lat="43.086885" lon="-2.260975">
        <ele>645.186</ele>
        <time>2021-04-06T07:33:48Z</time>
      </trkpt>
      <trkpt lat="43.086903" lon="-2.261001">
        <ele>645.614</ele>
        <time>2021-04-06T07:33:49Z</time>
      </trkpt>
      <trkpt lat="43.086928" lon="-2.261048">
        <ele>646.608</ele>
        <time>2021-04-06T07:33:51Z</time>
      </trkpt>
      <trkpt lat="43.086947" lon="-2.261083">
        <ele>647.580</ele>
        <time>2021-04-06T07:33:54Z</time>
      </trkpt>
      <trkpt lat="43.086964" lon="-2.261117">
        <ele>647.293</ele>
        <time>2021-04-06T07:33:55Z</time>
      </trkpt>
      <trkpt lat="43.086982" lon="-2.261147">
        <ele>646.384</ele>
        <time>2021-04-06T07:33:57Z</time>
      </trkpt>
      <trkpt lat="43.086999" lon="-2.261176">
        <ele>645.649</ele>
        <time>2021-04-06T07:33:59Z</time>
      </trkpt>
      <trkpt lat="43.087016" lon="-2.261210">
        <ele>645.124</ele>
        <time>2021-04-06T07:34:02Z</time>
      </trkpt>
      <trkpt lat="43.087030" lon="-2.261240">
        <ele>644.912</ele>
        <time>2021-04-06T07:34:04Z</time>
      </trkpt>
      <trkpt lat="43.087046" lon="-2.261269">
        <ele>644.899</ele>
        <time>2021-04-06T07:34:06Z</time>
      </trkpt>
      <trkpt lat="43.087060" lon="-2.261297">
        <ele>644.927</ele>
        <time>2021-04-06T07:34:07Z</time>
      </trkpt>
      <trkpt lat="43.087065" lon="-2.261312">
        <ele>645.181</ele>
        <time>2021-04-06T07:34:09Z</time>
      </trkpt>
      <trkpt lat="43.087079" lon="-2.261343">
        <ele>645.561</ele>
        <time>2021-04-06T07:34:10Z</time>
      </trkpt>
      <trkpt lat="43.087089" lon="-2.261372">
        <ele>645.917</ele>
        <time>2021-04-06T07:34:13Z</time>
      </trkpt>
      <trkpt lat="43.087108" lon="-2.261396">
        <ele>646.508</ele>
        <time>2021-04-06T07:34:15Z</time>
      </trkpt>
      <trkpt lat="43.087129" lon="-2.261427">
        <ele>647.185</ele>
        <time>2021-04-06T07:34:17Z</time>
      </trkpt>
      <trkpt lat="43.087145" lon="-2.261464">
        <ele>647.738</ele>
        <time>2021-04-06T07:34:19Z</time>
      </trkpt>
      <trkpt lat="43.087157" lon="-2.261493">
        <ele>648.369</ele>
        <time>2021-04-06T07:34:21Z</time>
      </trkpt>
      <trkpt lat="43.087172" lon="-2.261524">
        <ele>649.144</ele>
        <time>2021-04-06T07:34:23Z</time>
      </trkpt>
      <trkpt lat="43.087192" lon="-2.261555">
        <ele>650.239</ele>
        <time>2021-04-06T07:34:24Z</time>
      </trkpt>
      <trkpt lat="43.087208" lon="-2.261585">
        <ele>651.247</ele>
        <time>2021-04-06T07:34:26Z</time>
      </trkpt>
      <trkpt lat="43.087224" lon="-2.261620">
        <ele>652.334</ele>
        <time>2021-04-06T07:34:29Z</time>
      </trkpt>
      <trkpt lat="43.087237" lon="-2.261648">
        <ele>652.492</ele>
        <time>2021-04-06T07:34:30Z</time>
      </trkpt>
      <trkpt lat="43.087248" lon="-2.261674">
        <ele>652.415</ele>
        <time>2021-04-06T07:34:32Z</time>
      </trkpt>
      <trkpt lat="43.087263" lon="-2.261704">
        <ele>652.165</ele>
        <time>2021-04-06T07:34:34Z</time>
      </trkpt>
      <trkpt lat="43.087283" lon="-2.261741">
        <ele>651.811</ele>
        <time>2021-04-06T07:34:37Z</time>
      </trkpt>
      <trkpt lat="43.087309" lon="-2.261792">
        <ele>651.808</ele>
        <time>2021-04-06T07:34:40Z</time>
      </trkpt>
      <trkpt lat="43.087324" lon="-2.261826">
        <ele>652.078</ele>
        <time>2021-04-06T07:34:42Z</time>
      </trkpt>
      <trkpt lat="43.087338" lon="-2.261863">
        <ele>652.331</ele>
        <time>2021-04-06T07:34:44Z</time>
      </trkpt>
      <trkpt lat="43.087350" lon="-2.261898">
        <ele>652.862</ele>
        <time>2021-04-06T07:34:46Z</time>
      </trkpt>
      <trkpt lat="43.087363" lon="-2.261936">
        <ele>653.447</ele>
        <time>2021-04-06T07:34:48Z</time>
      </trkpt>
      <trkpt lat="43.087373" lon="-2.261975">
        <ele>654.012</ele>
        <time>2021-04-06T07:34:50Z</time>
      </trkpt>
      <trkpt lat="43.087385" lon="-2.262015">
        <ele>654.660</ele>
        <time>2021-04-06T07:34:51Z</time>
      </trkpt>
      <trkpt lat="43.087402" lon="-2.262052">
        <ele>655.497</ele>
        <time>2021-04-06T07:34:53Z</time>
      </trkpt>
      <trkpt lat="43.087413" lon="-2.262085">
        <ele>656.055</ele>
        <time>2021-04-06T07:34:56Z</time>
      </trkpt>
      <trkpt lat="43.087422" lon="-2.262120">
        <ele>656.787</ele>
        <time>2021-04-06T07:34:57Z</time>
      </trkpt>
      <trkpt lat="43.087434" lon="-2.262159">
        <ele>657.642</ele>
        <time>2021-04-06T07:35:00Z</time>
      </trkpt>
      <trkpt lat="43.087445" lon="-2.262197">
        <ele>658.526</ele>
        <time>2021-04-06T07:35:02Z</time>
      </trkpt>
      <trkpt lat="43.087455" lon="-2.262230">
        <ele>659.308</ele>
        <time>2021-04-06T07:35:04Z</time>
      </trkpt>
      <trkpt lat="43.087467" lon="-2.262267">
        <ele>660.015</ele>
        <time>2021-04-06T07:35:05Z</time>
      </trkpt>
      <trkpt lat="43.087483" lon="-2.262303">
        <ele>660.988</ele>
        <time>2021-04-06T07:35:07Z</time>
      </trkpt>
      <trkpt lat="43.087496" lon="-2.262341">
        <ele>661.759</ele>
        <time>2021-04-06T07:35:09Z</time>
      </trkpt>
      <trkpt lat="43.087508" lon="-2.262377">
        <ele>661.894</ele>
        <time>2021-04-06T07:35:12Z</time>
      </trkpt>
      <trkpt lat="43.087518" lon="-2.262413">
        <ele>661.859</ele>
        <time>2021-04-06T07:35:14Z</time>
      </trkpt>
      <trkpt lat="43.087530" lon="-2.262452">
        <ele>661.887</ele>
        <time>2021-04-06T07:35:16Z</time>
      </trkpt>
      <trkpt lat="43.087543" lon="-2.262484">
        <ele>661.844</ele>
        <time>2021-04-06T07:35:18Z</time>
      </trkpt>
      <trkpt lat="43.087556" lon="-2.262519">
        <ele>661.892</ele>
        <time>2021-04-06T07:35:19Z</time>
      </trkpt>
      <trkpt lat="43.087565" lon="-2.262551">
        <ele>662.052</ele>
        <time>2021-04-06T07:35:21Z</time>
      </trkpt>
      <trkpt lat="43.087579" lon="-2.262583">
        <ele>662.253</ele>
        <time>2021-04-06T07:35:23Z</time>
      </trkpt>
      <trkpt lat="43.087593" lon="-2.262615">
        <ele>662.508</ele>
        <time>2021-04-06T07:35:26Z</time>
      </trkpt>
      <trkpt lat="43.087603" lon="-2.262648">
        <ele>662.908</ele>
        <time>2021-04-06T07:35:28Z</time>
      </trkpt>
      <trkpt lat="43.087615" lon="-2.262680">
        <ele>663.342</ele>
        <time>2021-04-06T07:35:30Z</time>
      </trkpt>
      <trkpt lat="43.087627" lon="-2.262714">
        <ele>663.885</ele>
        <time>2021-04-06T07:35:32Z</time>
      </trkpt>
      <trkpt lat="43.087639" lon="-2.262747">
        <ele>664.476</ele>
        <time>2021-04-06T07:35:34Z</time>
      </trkpt>
      <trkpt lat="43.087647" lon="-2.262783">
        <ele>665.161</ele>
        <time>2021-04-06T07:35:36Z</time>
      </trkpt>
      <trkpt lat="43.087657" lon="-2.262815">
        <ele>665.566</ele>
        <time>2021-04-06T07:35:37Z</time>
      </trkpt>
      <trkpt lat="43.087665" lon="-2.262847">
        <ele>666.094</ele>
        <time>2021-04-06T07:35:39Z</time>
      </trkpt>
      <trkpt lat="43.087676" lon="-2.262876">
        <ele>666.631</ele>
        <time>2021-04-06T07:35:41Z</time>
      </trkpt>
      <trkpt lat="43.087689" lon="-2.262910">
        <ele>667.339</ele>
        <time>2021-04-06T07:35:44Z</time>
      </trkpt>
      <trkpt lat="43.087698" lon="-2.262944">
        <ele>668.071</ele>
        <time>2021-04-06T07:35:46Z</time>
      </trkpt>
      <trkpt lat="43.087709" lon="-2.262978">
        <ele>668.841</ele>
        <time>2021-04-06T07:35:48Z</time>
      </trkpt>
      <trkpt lat="43.087720" lon="-2.263010">
        <ele>669.615</ele>
        <time>2021-04-06T07:35:50Z</time>
      </trkpt>
      <trkpt lat="43.087727" lon="-2.263045">
        <ele>670.508</ele>
        <time>2021-04-06T07:35:52Z</time>
      </trkpt>
      <trkpt lat="43.087733" lon="-2.263084">
        <ele>671.094</ele>
        <time>2021-04-06T07:35:54Z</time>
      </trkpt>
      <trkpt lat="43.087736" lon="-2.263120">
        <ele>671.357</ele>
        <time>2021-04-06T07:35:56Z</time>
      </trkpt>
      <trkpt lat="43.087741" lon="-2.263160">
        <ele>671.718</ele>
        <time>2021-04-06T07:35:58Z</time>
      </trkpt>
      <trkpt lat="43.087747" lon="-2.263204">
        <ele>672.183</ele>
        <time>2021-04-06T07:35:59Z</time>
      </trkpt>
      <trkpt lat="43.087750" lon="-2.263257">
        <ele>672.568</ele>
        <time>2021-04-06T07:36:01Z</time>
      </trkpt>
      <trkpt lat="43.087756" lon="-2.263325">
        <ele>673.236</ele>
        <time>2021-04-06T07:36:03Z</time>
      </trkpt>
      <trkpt lat="43.087766" lon="-2.263401">
        <ele>672.883</ele>
        <time>2021-04-06T07:36:05Z</time>
      </trkpt>
      <trkpt lat="43.087772" lon="-2.263440">
        <ele>672.651</ele>
        <time>2021-04-06T07:36:06Z</time>
      </trkpt>
      <trkpt lat="43.087787" lon="-2.263519">
        <ele>671.836</ele>
        <time>2021-04-06T07:36:08Z</time>
      </trkpt>
      <trkpt lat="43.087797" lon="-2.263560">
        <ele>671.217</ele>
        <time>2021-04-06T07:36:10Z</time>
      </trkpt>
      <trkpt lat="43.087809" lon="-2.263601">
        <ele>670.618</ele>
        <time>2021-04-06T07:36:11Z</time>
      </trkpt>
      <trkpt lat="43.087821" lon="-2.263638">
        <ele>670.008</ele>
        <time>2021-04-06T07:36:12Z</time>
      </trkpt>
      <trkpt lat="43.087833" lon="-2.263675">
        <ele>669.210</ele>
        <time>2021-04-06T07:36:13Z</time>
      </trkpt>
      <trkpt lat="43.087846" lon="-2.263712">
        <ele>668.623</ele>
        <time>2021-04-06T07:36:14Z</time>
      </trkpt>
      <trkpt lat="43.087874" lon="-2.263790">
        <ele>667.354</ele>
        <time>2021-04-06T07:36:15Z</time>
      </trkpt>
      <trkpt lat="43.087902" lon="-2.263869">
        <ele>666.219</ele>
        <time>2021-04-06T07:36:17Z</time>
      </trkpt>
      <trkpt lat="43.087917" lon="-2.263912">
        <ele>665.714</ele>
        <time>2021-04-06T07:36:19Z</time>
      </trkpt>
      <trkpt lat="43.087947" lon="-2.263999">
        <ele>664.762</ele>
        <time>2021-04-06T07:36:20Z</time>
      </trkpt>
      <trkpt lat="43.087961" lon="-2.264044">
        <ele>664.389</ele>
        <time>2021-04-06T07:36:21Z</time>
      </trkpt>
      <trkpt lat="43.087974" lon="-2.264087">
        <ele>664.087</ele>
        <time>2021-04-06T07:36:22Z</time>
      </trkpt>
      <trkpt lat="43.087998" lon="-2.264169">
        <ele>663.721</ele>
        <time>2021-04-06T07:36:24Z</time>
      </trkpt>
      <trkpt lat="43.088010" lon="-2.264208">
        <ele>663.941</ele>
        <time>2021-04-06T07:36:25Z</time>
      </trkpt>
      <trkpt lat="43.088022" lon="-2.264251">
        <ele>664.105</ele>
        <time>2021-04-06T07:36:27Z</time>
      </trkpt>
      <trkpt lat="43.088034" lon="-2.264294">
        <ele>664.408</ele>
        <time>2021-04-06T07:36:28Z</time>
      </trkpt>
      <trkpt lat="43.088048" lon="-2.264332">
        <ele>664.889</ele>
        <time>2021-04-06T07:36:29Z</time>
      </trkpt>
      <trkpt lat="43.088062" lon="-2.264370">
        <ele>664.762</ele>
        <time>2021-04-06T07:36:30Z</time>
      </trkpt>
      <trkpt lat="43.088075" lon="-2.264406">
        <ele>664.123</ele>
        <time>2021-04-06T07:36:31Z</time>
      </trkpt>
      <trkpt lat="43.088092" lon="-2.264473">
        <ele>663.278</ele>
        <time>2021-04-06T07:36:32Z</time>
      </trkpt>
      <trkpt lat="43.088100" lon="-2.264508">
        <ele>662.693</ele>
        <time>2021-04-06T07:36:33Z</time>
      </trkpt>
      <trkpt lat="43.088108" lon="-2.264542">
        <ele>662.221</ele>
        <time>2021-04-06T07:36:34Z</time>
      </trkpt>
      <trkpt lat="43.088115" lon="-2.264576">
        <ele>661.898</ele>
        <time>2021-04-06T07:36:36Z</time>
      </trkpt>
      <trkpt lat="43.088118" lon="-2.264611">
        <ele>661.676</ele>
        <time>2021-04-06T07:36:37Z</time>
      </trkpt>
      <trkpt lat="43.088117" lon="-2.264645">
        <ele>661.587</ele>
        <time>2021-04-06T07:36:38Z</time>
      </trkpt>
      <trkpt lat="43.088121" lon="-2.264682">
        <ele>661.242</ele>
        <time>2021-04-06T07:36:39Z</time>
      </trkpt>
      <trkpt lat="43.088128" lon="-2.264723">
        <ele>660.926</ele>
        <time>2021-04-06T07:36:40Z</time>
      </trkpt>
      <trkpt lat="43.088131" lon="-2.264763">
        <ele>660.808</ele>
        <time>2021-04-06T07:36:41Z</time>
      </trkpt>
      <trkpt lat="43.088133" lon="-2.264802">
        <ele>660.715</ele>
        <time>2021-04-06T07:36:42Z</time>
      </trkpt>
      <trkpt lat="43.088137" lon="-2.264844">
        <ele>660.648</ele>
        <time>2021-04-06T07:36:43Z</time>
      </trkpt>
      <trkpt lat="43.088142" lon="-2.264887">
        <ele>660.559</ele>
        <time>2021-04-06T07:36:44Z</time>
      </trkpt>
      <trkpt lat="43.088148" lon="-2.264930">
        <ele>660.374</ele>
        <time>2021-04-06T07:36:45Z</time>
      </trkpt>
      <trkpt lat="43.088154" lon="-2.264968">
        <ele>660.219</ele>
        <time>2021-04-06T07:36:46Z</time>
      </trkpt>
      <trkpt lat="43.088160" lon="-2.265005">
        <ele>660.227</ele>
        <time>2021-04-06T07:36:47Z</time>
      </trkpt>
      <trkpt lat="43.088170" lon="-2.265044">
        <ele>660.394</ele>
        <time>2021-04-06T07:36:48Z</time>
      </trkpt>
      <trkpt lat="43.088181" lon="-2.265082">
        <ele>660.592</ele>
        <time>2021-04-06T07:36:49Z</time>
      </trkpt>
      <trkpt lat="43.088188" lon="-2.265115">
        <ele>660.814</ele>
        <time>2021-04-06T07:36:50Z</time>
      </trkpt>
      <trkpt lat="43.088199" lon="-2.265177">
        <ele>661.454</ele>
        <time>2021-04-06T07:36:51Z</time>
      </trkpt>
      <trkpt lat="43.088203" lon="-2.265203">
        <ele>661.709</ele>
        <time>2021-04-06T07:36:53Z</time>
      </trkpt>
      <trkpt lat="43.088215" lon="-2.265249">
        <ele>662.208</ele>
        <time>2021-04-06T07:36:54Z</time>
      </trkpt>
      <trkpt lat="43.088223" lon="-2.265269">
        <ele>662.538</ele>
        <time>2021-04-06T07:36:56Z</time>
      </trkpt>
      <trkpt lat="43.088234" lon="-2.265311">
        <ele>663.071</ele>
        <time>2021-04-06T07:36:58Z</time>
      </trkpt>
      <trkpt lat="43.088243" lon="-2.265351">
        <ele>663.692</ele>
        <time>2021-04-06T07:36:59Z</time>
      </trkpt>
      <trkpt lat="43.088251" lon="-2.265398">
        <ele>664.247</ele>
        <time>2021-04-06T07:37:01Z</time>
      </trkpt>
      <trkpt lat="43.088255" lon="-2.265435">
        <ele>664.812</ele>
        <time>2021-04-06T07:37:04Z</time>
      </trkpt>
      <trkpt lat="43.088261" lon="-2.265472">
        <ele>665.330</ele>
        <time>2021-04-06T07:37:05Z</time>
      </trkpt>
      <trkpt lat="43.088267" lon="-2.265514">
        <ele>666.037</ele>
        <time>2021-04-06T07:37:07Z</time>
      </trkpt>
      <trkpt lat="43.088275" lon="-2.265550">
        <ele>666.745</ele>
        <time>2021-04-06T07:37:09Z</time>
      </trkpt>
      <trkpt lat="43.088284" lon="-2.265584">
        <ele>667.379</ele>
        <time>2021-04-06T07:37:12Z</time>
      </trkpt>
      <trkpt lat="43.088290" lon="-2.265622">
        <ele>667.905</ele>
        <time>2021-04-06T07:37:14Z</time>
      </trkpt>
      <trkpt lat="43.088298" lon="-2.265659">
        <ele>668.625</ele>
        <time>2021-04-06T07:37:16Z</time>
      </trkpt>
      <trkpt lat="43.088306" lon="-2.265698">
        <ele>669.308</ele>
        <time>2021-04-06T07:37:18Z</time>
      </trkpt>
      <trkpt lat="43.088311" lon="-2.265738">
        <ele>670.044</ele>
        <time>2021-04-06T07:37:20Z</time>
      </trkpt>
      <trkpt lat="43.088314" lon="-2.265769">
        <ele>670.557</ele>
        <time>2021-04-06T07:37:22Z</time>
      </trkpt>
      <trkpt lat="43.088313" lon="-2.265806">
        <ele>671.078</ele>
        <time>2021-04-06T07:37:24Z</time>
      </trkpt>
      <trkpt lat="43.088323" lon="-2.265846">
        <ele>671.823</ele>
        <time>2021-04-06T07:37:26Z</time>
      </trkpt>
      <trkpt lat="43.088333" lon="-2.265886">
        <ele>672.698</ele>
        <time>2021-04-06T07:37:28Z</time>
      </trkpt>
      <trkpt lat="43.088344" lon="-2.265920">
        <ele>672.676</ele>
        <time>2021-04-06T07:37:30Z</time>
      </trkpt>
      <trkpt lat="43.088349" lon="-2.265957">
        <ele>672.973</ele>
        <time>2021-04-06T07:37:32Z</time>
      </trkpt>
      <trkpt lat="43.088352" lon="-2.265994">
        <ele>673.351</ele>
        <time>2021-04-06T07:37:34Z</time>
      </trkpt>
      <trkpt lat="43.088363" lon="-2.266029">
        <ele>673.588</ele>
        <time>2021-04-06T07:37:35Z</time>
      </trkpt>
      <trkpt lat="43.088374" lon="-2.266066">
        <ele>673.824</ele>
        <time>2021-04-06T07:37:37Z</time>
      </trkpt>
      <trkpt lat="43.088386" lon="-2.266099">
        <ele>674.126</ele>
        <time>2021-04-06T07:37:39Z</time>
      </trkpt>
      <trkpt lat="43.088397" lon="-2.266133">
        <ele>674.208</ele>
        <time>2021-04-06T07:37:41Z</time>
      </trkpt>
      <trkpt lat="43.088400" lon="-2.266170">
        <ele>674.285</ele>
        <time>2021-04-06T07:37:44Z</time>
      </trkpt>
      <trkpt lat="43.088404" lon="-2.266211">
        <ele>674.398</ele>
        <time>2021-04-06T07:37:46Z</time>
      </trkpt>
      <trkpt lat="43.088409" lon="-2.266252">
        <ele>674.569</ele>
        <time>2021-04-06T07:37:48Z</time>
      </trkpt>
      <trkpt lat="43.088414" lon="-2.266292">
        <ele>674.614</ele>
        <time>2021-04-06T07:37:50Z</time>
      </trkpt>
      <trkpt lat="43.088419" lon="-2.266331">
        <ele>674.799</ele>
        <time>2021-04-06T07:37:52Z</time>
      </trkpt>
      <trkpt lat="43.088422" lon="-2.266373">
        <ele>674.997</ele>
        <time>2021-04-06T07:37:54Z</time>
      </trkpt>
      <trkpt lat="43.088432" lon="-2.266414">
        <ele>675.014</ele>
        <time>2021-04-06T07:37:56Z</time>
      </trkpt>
      <trkpt lat="43.088441" lon="-2.266456">
        <ele>675.172</ele>
        <time>2021-04-06T07:37:58Z</time>
      </trkpt>
      <trkpt lat="43.088446" lon="-2.266502">
        <ele>675.325</ele>
        <time>2021-04-06T07:38:00Z</time>
      </trkpt>
      <trkpt lat="43.088455" lon="-2.266545">
        <ele>675.426</ele>
        <time>2021-04-06T07:38:02Z</time>
      </trkpt>
      <trkpt lat="43.088462" lon="-2.266584">
        <ele>675.608</ele>
        <time>2021-04-06T07:38:03Z</time>
      </trkpt>
      <trkpt lat="43.088466" lon="-2.266622">
        <ele>675.808</ele>
        <time>2021-04-06T07:38:06Z</time>
      </trkpt>
      <trkpt lat="43.088464" lon="-2.266661">
        <ele>675.969</ele>
        <time>2021-04-06T07:38:08Z</time>
      </trkpt>
      <trkpt lat="43.088465" lon="-2.266697">
        <ele>676.172</ele>
        <time>2021-04-06T07:38:10Z</time>
      </trkpt>
      <trkpt lat="43.088461" lon="-2.266733">
        <ele>676.353</ele>
        <time>2021-04-06T07:38:12Z</time>
      </trkpt>
      <trkpt lat="43.088468" lon="-2.266771">
        <ele>676.798</ele>
        <time>2021-04-06T07:38:14Z</time>
      </trkpt>
      <trkpt lat="43.088471" lon="-2.266809">
        <ele>677.083</ele>
        <time>2021-04-06T07:38:16Z</time>
      </trkpt>
      <trkpt lat="43.088478" lon="-2.266842">
        <ele>677.431</ele>
        <time>2021-04-06T07:38:18Z</time>
      </trkpt>
      <trkpt lat="43.088487" lon="-2.266873">
        <ele>677.978</ele>
        <time>2021-04-06T07:38:20Z</time>
      </trkpt>
      <trkpt lat="43.088488" lon="-2.266905">
        <ele>678.176</ele>
        <time>2021-04-06T07:38:22Z</time>
      </trkpt>
      <trkpt lat="43.088491" lon="-2.266938">
        <ele>678.521</ele>
        <time>2021-04-06T07:38:23Z</time>
      </trkpt>
      <trkpt lat="43.088497" lon="-2.266971">
        <ele>678.941</ele>
        <time>2021-04-06T07:38:25Z</time>
      </trkpt>
      <trkpt lat="43.088504" lon="-2.267002">
        <ele>679.405</ele>
        <time>2021-04-06T07:38:28Z</time>
      </trkpt>
      <trkpt lat="43.088515" lon="-2.267037">
        <ele>680.108</ele>
        <time>2021-04-06T07:38:30Z</time>
      </trkpt>
      <trkpt lat="43.088522" lon="-2.267075">
        <ele>680.759</ele>
        <time>2021-04-06T07:38:32Z</time>
      </trkpt>
      <trkpt lat="43.088527" lon="-2.267114">
        <ele>681.372</ele>
        <time>2021-04-06T07:38:34Z</time>
      </trkpt>
      <trkpt lat="43.088536" lon="-2.267150">
        <ele>682.013</ele>
        <time>2021-04-06T07:38:36Z</time>
      </trkpt>
      <trkpt lat="43.088548" lon="-2.267186">
        <ele>682.918</ele>
        <time>2021-04-06T07:38:38Z</time>
      </trkpt>
      <trkpt lat="43.088562" lon="-2.267222">
        <ele>683.953</ele>
        <time>2021-04-06T07:38:40Z</time>
      </trkpt>
      <trkpt lat="43.088576" lon="-2.267253">
        <ele>684.761</ele>
        <time>2021-04-06T07:38:42Z</time>
      </trkpt>
      <trkpt lat="43.088583" lon="-2.267287">
        <ele>685.288</ele>
        <time>2021-04-06T07:38:44Z</time>
      </trkpt>
      <trkpt lat="43.088589" lon="-2.267323">
        <ele>685.766</ele>
        <time>2021-04-06T07:38:45Z</time>
      </trkpt>
      <trkpt lat="43.088595" lon="-2.267357">
        <ele>686.227</ele>
        <time>2021-04-06T07:38:48Z</time>
      </trkpt>
      <trkpt lat="43.088603" lon="-2.267391">
        <ele>686.868</ele>
        <time>2021-04-06T07:38:50Z</time>
      </trkpt>
      <trkpt lat="43.088614" lon="-2.267421">
        <ele>687.414</ele>
        <time>2021-04-06T07:38:52Z</time>
      </trkpt>
      <trkpt lat="43.088624" lon="-2.267453">
        <ele>687.608</ele>
        <time>2021-04-06T07:38:53Z</time>
      </trkpt>
      <trkpt lat="43.088632" lon="-2.267484">
        <ele>687.839</ele>
        <time>2021-04-06T07:38:55Z</time>
      </trkpt>
      <trkpt lat="43.088644" lon="-2.267515">
        <ele>688.052</ele>
        <time>2021-04-06T07:38:58Z</time>
      </trkpt>
      <trkpt lat="43.088655" lon="-2.267545">
        <ele>688.273</ele>
        <time>2021-04-06T07:39:00Z</time>
      </trkpt>
      <trkpt lat="43.088667" lon="-2.267570">
        <ele>688.458</ele>
        <time>2021-04-06T07:39:01Z</time>
      </trkpt>
      <trkpt lat="43.088680" lon="-2.267600">
        <ele>688.743</ele>
        <time>2021-04-06T07:39:04Z</time>
      </trkpt>
      <trkpt lat="43.088693" lon="-2.267628">
        <ele>689.181</ele>
        <time>2021-04-06T07:39:06Z</time>
      </trkpt>
      <trkpt lat="43.088707" lon="-2.267653">
        <ele>689.578</ele>
        <time>2021-04-06T07:39:08Z</time>
      </trkpt>
      <trkpt lat="43.088720" lon="-2.267681">
        <ele>690.056</ele>
        <time>2021-04-06T07:39:09Z</time>
      </trkpt>
      <trkpt lat="43.088733" lon="-2.267709">
        <ele>690.636</ele>
        <time>2021-04-06T07:39:11Z</time>
      </trkpt>
      <trkpt lat="43.088744" lon="-2.267740">
        <ele>691.317</ele>
        <time>2021-04-06T07:39:13Z</time>
      </trkpt>
      <trkpt lat="43.088758" lon="-2.267774">
        <ele>692.118</ele>
        <time>2021-04-06T07:39:15Z</time>
      </trkpt>
      <trkpt lat="43.088772" lon="-2.267803">
        <ele>692.808</ele>
        <time>2021-04-06T07:39:18Z</time>
      </trkpt>
      <trkpt lat="43.088783" lon="-2.267830">
        <ele>693.450</ele>
        <time>2021-04-06T07:39:19Z</time>
      </trkpt>
      <trkpt lat="43.088793" lon="-2.267863">
        <ele>694.193</ele>
        <time>2021-04-06T07:39:21Z</time>
      </trkpt>
      <trkpt lat="43.088803" lon="-2.267896">
        <ele>694.954</ele>
        <time>2021-04-06T07:39:23Z</time>
      </trkpt>
      <trkpt lat="43.088817" lon="-2.267921">
        <ele>695.749</ele>
        <time>2021-04-06T07:39:26Z</time>
      </trkpt>
      <trkpt lat="43.088826" lon="-2.267955">
        <ele>696.614</ele>
        <time>2021-04-06T07:39:28Z</time>
      </trkpt>
      <trkpt lat="43.088839" lon="-2.267986">
        <ele>697.642</ele>
        <time>2021-04-06T07:39:30Z</time>
      </trkpt>
      <trkpt lat="43.088848" lon="-2.268016">
        <ele>698.569</ele>
        <time>2021-04-06T07:39:32Z</time>
      </trkpt>
      <trkpt lat="43.088850" lon="-2.268042">
        <ele>699.167</ele>
        <time>2021-04-06T07:39:33Z</time>
      </trkpt>
      <trkpt lat="43.088858" lon="-2.268073">
        <ele>699.851</ele>
        <time>2021-04-06T07:39:35Z</time>
      </trkpt>
      <trkpt lat="43.088867" lon="-2.268097">
        <ele>700.401</ele>
        <time>2021-04-06T07:39:37Z</time>
      </trkpt>
      <trkpt lat="43.088880" lon="-2.268122">
        <ele>701.311</ele>
        <time>2021-04-06T07:39:40Z</time>
      </trkpt>
      <trkpt lat="43.088892" lon="-2.268148">
        <ele>702.008</ele>
        <time>2021-04-06T07:39:41Z</time>
      </trkpt>
      <trkpt lat="43.088901" lon="-2.268176">
        <ele>702.282</ele>
        <time>2021-04-06T07:39:43Z</time>
      </trkpt>
      <trkpt lat="43.088911" lon="-2.268201">
        <ele>702.465</ele>
        <time>2021-04-06T07:39:46Z</time>
      </trkpt>
      <trkpt lat="43.088925" lon="-2.268222">
        <ele>702.636</ele>
        <time>2021-04-06T07:39:48Z</time>
      </trkpt>
      <trkpt lat="43.088936" lon="-2.268248">
        <ele>702.911</ele>
        <time>2021-04-06T07:39:50Z</time>
      </trkpt>
      <trkpt lat="43.088948" lon="-2.268270">
        <ele>703.386</ele>
        <time>2021-04-06T07:39:52Z</time>
      </trkpt>
      <trkpt lat="43.088965" lon="-2.268293">
        <ele>703.834</ele>
        <time>2021-04-06T07:39:53Z</time>
      </trkpt>
      <trkpt lat="43.088983" lon="-2.268317">
        <ele>704.321</ele>
        <time>2021-04-06T07:39:55Z</time>
      </trkpt>
      <trkpt lat="43.088998" lon="-2.268339">
        <ele>704.899</ele>
        <time>2021-04-06T07:39:57Z</time>
      </trkpt>
      <trkpt lat="43.089012" lon="-2.268366">
        <ele>705.119</ele>
        <time>2021-04-06T07:40:00Z</time>
      </trkpt>
      <trkpt lat="43.089026" lon="-2.268394">
        <ele>705.509</ele>
        <time>2021-04-06T07:40:01Z</time>
      </trkpt>
      <trkpt lat="43.089034" lon="-2.268427">
        <ele>706.019</ele>
        <time>2021-04-06T07:40:04Z</time>
      </trkpt>
      <trkpt lat="43.089047" lon="-2.268456">
        <ele>706.508</ele>
        <time>2021-04-06T07:40:06Z</time>
      </trkpt>
      <trkpt lat="43.089063" lon="-2.268484">
        <ele>707.268</ele>
        <time>2021-04-06T07:40:08Z</time>
      </trkpt>
      <trkpt lat="43.089080" lon="-2.268514">
        <ele>708.191</ele>
        <time>2021-04-06T07:40:10Z</time>
      </trkpt>
      <trkpt lat="43.089096" lon="-2.268546">
        <ele>709.162</ele>
        <time>2021-04-06T07:40:11Z</time>
      </trkpt>
      <trkpt lat="43.089112" lon="-2.268570">
        <ele>710.157</ele>
        <time>2021-04-06T07:40:13Z</time>
      </trkpt>
      <trkpt lat="43.089129" lon="-2.268593">
        <ele>711.122</ele>
        <time>2021-04-06T07:40:16Z</time>
      </trkpt>
      <trkpt lat="43.089146" lon="-2.268616">
        <ele>712.160</ele>
        <time>2021-04-06T07:40:18Z</time>
      </trkpt>
      <trkpt lat="43.089164" lon="-2.268638">
        <ele>712.667</ele>
        <time>2021-04-06T07:40:20Z</time>
      </trkpt>
      <trkpt lat="43.089179" lon="-2.268655">
        <ele>712.385</ele>
        <time>2021-04-06T07:40:22Z</time>
      </trkpt>
      <trkpt lat="43.089195" lon="-2.268678">
        <ele>712.056</ele>
        <time>2021-04-06T07:40:24Z</time>
      </trkpt>
      <trkpt lat="43.089211" lon="-2.268702">
        <ele>711.759</ele>
        <time>2021-04-06T07:40:26Z</time>
      </trkpt>
      <trkpt lat="43.089225" lon="-2.268724">
        <ele>711.514</ele>
        <time>2021-04-06T07:40:28Z</time>
      </trkpt>
      <trkpt lat="43.089240" lon="-2.268749">
        <ele>711.508</ele>
        <time>2021-04-06T07:40:30Z</time>
      </trkpt>
      <trkpt lat="43.089260" lon="-2.268781">
        <ele>711.632</ele>
        <time>2021-04-06T07:40:32Z</time>
      </trkpt>
      <trkpt lat="43.089281" lon="-2.268811">
        <ele>711.925</ele>
        <time>2021-04-06T07:40:33Z</time>
      </trkpt>
      <trkpt lat="43.089304" lon="-2.268843">
        <ele>712.576</ele>
        <time>2021-04-06T07:40:36Z</time>
      </trkpt>
      <trkpt lat="43.089318" lon="-2.268862">
        <ele>712.951</ele>
        <time>2021-04-06T07:40:37Z</time>
      </trkpt>
      <trkpt lat="43.089331" lon="-2.268881">
        <ele>713.426</ele>
        <time>2021-04-06T07:40:38Z</time>
      </trkpt>
      <trkpt lat="43.089344" lon="-2.268899">
        <ele>713.744</ele>
        <time>2021-04-06T07:40:39Z</time>
      </trkpt>
      <trkpt lat="43.089366" lon="-2.268936">
        <ele>714.041</ele>
        <time>2021-04-06T07:40:41Z</time>
      </trkpt>
      <trkpt lat="43.089388" lon="-2.268972">
        <ele>714.419</ele>
        <time>2021-04-06T07:40:43Z</time>
      </trkpt>
      <trkpt lat="43.089410" lon="-2.269009">
        <ele>714.924</ele>
        <time>2021-04-06T07:40:45Z</time>
      </trkpt>
      <trkpt lat="43.089427" lon="-2.269040">
        <ele>715.404</ele>
        <time>2021-04-06T07:40:47Z</time>
      </trkpt>
      <trkpt lat="43.089443" lon="-2.269068">
        <ele>715.914</ele>
        <time>2021-04-06T07:40:49Z</time>
      </trkpt>
      <trkpt lat="43.089461" lon="-2.269096">
        <ele>716.008</ele>
        <time>2021-04-06T07:40:51Z</time>
      </trkpt>
      <trkpt lat="43.089484" lon="-2.269121">
        <ele>716.269</ele>
        <time>2021-04-06T07:40:52Z</time>
      </trkpt>
      <trkpt lat="43.089504" lon="-2.269149">
        <ele>716.522</ele>
        <time>2021-04-06T07:40:55Z</time>
      </trkpt>
      <trkpt lat="43.089529" lon="-2.269174">
        <ele>716.913</ele>
        <time>2021-04-06T07:40:57Z</time>
      </trkpt>
      <trkpt lat="43.089567" lon="-2.269217">
        <ele>717.218</ele>
        <time>2021-04-06T07:40:59Z</time>
      </trkpt>
      <trkpt lat="43.089580" lon="-2.269233">
        <ele>717.493</ele>
        <time>2021-04-06T07:41:00Z</time>
      </trkpt>
      <trkpt lat="43.089589" lon="-2.269249">
        <ele>717.681</ele>
        <time>2021-04-06T07:41:02Z</time>
      </trkpt>
      <trkpt lat="43.089608" lon="-2.269284">
        <ele>718.158</ele>
        <time>2021-04-06T07:41:04Z</time>
      </trkpt>
      <trkpt lat="43.089623" lon="-2.269316">
        <ele>718.756</ele>
        <time>2021-04-06T07:41:06Z</time>
      </trkpt>
      <trkpt lat="43.089640" lon="-2.269350">
        <ele>719.519</ele>
        <time>2021-04-06T07:41:08Z</time>
      </trkpt>
      <trkpt lat="43.089656" lon="-2.269380">
        <ele>720.309</ele>
        <time>2021-04-06T07:41:09Z</time>
      </trkpt>
      <trkpt lat="43.089672" lon="-2.269413">
        <ele>721.319</ele>
        <time>2021-04-06T07:41:11Z</time>
      </trkpt>
      <trkpt lat="43.089688" lon="-2.269449">
        <ele>722.308</ele>
        <time>2021-04-06T07:41:13Z</time>
      </trkpt>
      <trkpt lat="43.089704" lon="-2.269483">
        <ele>722.638</ele>
        <time>2021-04-06T07:41:16Z</time>
      </trkpt>
      <trkpt lat="43.089721" lon="-2.269516">
        <ele>722.991</ele>
        <time>2021-04-06T07:41:17Z</time>
      </trkpt>
      <trkpt lat="43.089736" lon="-2.269551">
        <ele>722.592</ele>
        <time>2021-04-06T07:41:20Z</time>
      </trkpt>
      <trkpt lat="43.089754" lon="-2.269584">
        <ele>722.117</ele>
        <time>2021-04-06T07:41:22Z</time>
      </trkpt>
      <trkpt lat="43.089772" lon="-2.269613">
        <ele>721.972</ele>
        <time>2021-04-06T07:41:24Z</time>
      </trkpt>
      <trkpt lat="43.089789" lon="-2.269640">
        <ele>721.730</ele>
        <time>2021-04-06T07:41:26Z</time>
      </trkpt>
      <trkpt lat="43.089804" lon="-2.269675">
        <ele>721.687</ele>
        <time>2021-04-06T07:41:28Z</time>
      </trkpt>
      <trkpt lat="43.089812" lon="-2.269715">
        <ele>721.375</ele>
        <time>2021-04-06T07:41:30Z</time>
      </trkpt>
      <trkpt lat="43.089823" lon="-2.269751">
        <ele>721.236</ele>
        <time>2021-04-06T07:41:31Z</time>
      </trkpt>
      <trkpt lat="43.089831" lon="-2.269784">
        <ele>721.017</ele>
        <time>2021-04-06T07:41:33Z</time>
      </trkpt>
      <trkpt lat="43.089840" lon="-2.269830">
        <ele>720.818</ele>
        <time>2021-04-06T07:41:35Z</time>
      </trkpt>
      <trkpt lat="43.089846" lon="-2.269858">
        <ele>720.708</ele>
        <time>2021-04-06T07:41:36Z</time>
      </trkpt>
      <trkpt lat="43.089855" lon="-2.269912">
        <ele>720.580</ele>
        <time>2021-04-06T07:41:38Z</time>
      </trkpt>
      <trkpt lat="43.089876" lon="-2.269973">
        <ele>720.663</ele>
        <time>2021-04-06T07:41:40Z</time>
      </trkpt>
      <trkpt lat="43.089890" lon="-2.270002">
        <ele>720.894</ele>
        <time>2021-04-06T07:41:41Z</time>
      </trkpt>
      <trkpt lat="43.089903" lon="-2.270032">
        <ele>720.919</ele>
        <time>2021-04-06T07:41:42Z</time>
      </trkpt>
      <trkpt lat="43.089927" lon="-2.270091">
        <ele>721.164</ele>
        <time>2021-04-06T07:41:44Z</time>
      </trkpt>
      <trkpt lat="43.089937" lon="-2.270125">
        <ele>721.172</ele>
        <time>2021-04-06T07:41:45Z</time>
      </trkpt>
      <trkpt lat="43.089944" lon="-2.270199">
        <ele>720.779</ele>
        <time>2021-04-06T07:41:47Z</time>
      </trkpt>
      <trkpt lat="43.089946" lon="-2.270243">
        <ele>720.457</ele>
        <time>2021-04-06T07:41:49Z</time>
      </trkpt>
      <trkpt lat="43.089948" lon="-2.270336">
        <ele>719.582</ele>
        <time>2021-04-06T07:41:50Z</time>
      </trkpt>
      <trkpt lat="43.089950" lon="-2.270381">
        <ele>719.143</ele>
        <time>2021-04-06T07:41:52Z</time>
      </trkpt>
      <trkpt lat="43.089955" lon="-2.270430">
        <ele>718.717</ele>
        <time>2021-04-06T07:41:53Z</time>
      </trkpt>
      <trkpt lat="43.089971" lon="-2.270517">
        <ele>718.408</ele>
        <time>2021-04-06T07:41:54Z</time>
      </trkpt>
      <trkpt lat="43.089974" lon="-2.270561">
        <ele>718.035</ele>
        <time>2021-04-06T07:41:56Z</time>
      </trkpt>
      <trkpt lat="43.089979" lon="-2.270608">
        <ele>717.778</ele>
        <time>2021-04-06T07:41:57Z</time>
      </trkpt>
      <trkpt lat="43.089987" lon="-2.270651">
        <ele>717.599</ele>
        <time>2021-04-06T07:41:58Z</time>
      </trkpt>
      <trkpt lat="43.090020" lon="-2.270730">
        <ele>716.594</ele>
        <time>2021-04-06T07:41:59Z</time>
      </trkpt>
      <trkpt lat="43.090038" lon="-2.270769">
        <ele>715.519</ele>
        <time>2021-04-06T07:42:01Z</time>
      </trkpt>
      <trkpt lat="43.090060" lon="-2.270808">
        <ele>714.597</ele>
        <time>2021-04-06T07:42:02Z</time>
      </trkpt>
      <trkpt lat="43.090101" lon="-2.270884">
        <ele>712.754</ele>
        <time>2021-04-06T07:42:03Z</time>
      </trkpt>
      <trkpt lat="43.090147" lon="-2.270950">
        <ele>711.012</ele>
        <time>2021-04-06T07:42:05Z</time>
      </trkpt>
      <trkpt lat="43.090194" lon="-2.271016">
        <ele>709.432</ele>
        <time>2021-04-06T07:42:07Z</time>
      </trkpt>
      <trkpt lat="43.090217" lon="-2.271048">
        <ele>708.692</ele>
        <time>2021-04-06T07:42:08Z</time>
      </trkpt>
      <trkpt lat="43.090240" lon="-2.271082">
        <ele>707.911</ele>
        <time>2021-04-06T07:42:10Z</time>
      </trkpt>
      <trkpt lat="43.090262" lon="-2.271118">
        <ele>707.208</ele>
        <time>2021-04-06T07:42:11Z</time>
      </trkpt>
      <trkpt lat="43.090282" lon="-2.271155">
        <ele>706.210</ele>
        <time>2021-04-06T07:42:12Z</time>
      </trkpt>
      <trkpt lat="43.090301" lon="-2.271193">
        <ele>704.813</ele>
        <time>2021-04-06T07:42:13Z</time>
      </trkpt>
      <trkpt lat="43.090320" lon="-2.271230">
        <ele>703.644</ele>
        <time>2021-04-06T07:42:14Z</time>
      </trkpt>
      <trkpt lat="43.090339" lon="-2.271271">
        <ele>702.599</ele>
        <time>2021-04-06T07:42:15Z</time>
      </trkpt>
      <trkpt lat="43.090358" lon="-2.271314">
        <ele>701.594</ele>
        <time>2021-04-06T07:42:16Z</time>
      </trkpt>
      <trkpt lat="43.090398" lon="-2.271395">
        <ele>699.912</ele>
        <time>2021-04-06T07:42:17Z</time>
      </trkpt>
      <trkpt lat="43.090441" lon="-2.271465">
        <ele>697.749</ele>
        <time>2021-04-06T07:42:19Z</time>
      </trkpt>
      <trkpt lat="43.090480" lon="-2.271531">
        <ele>696.057</ele>
        <time>2021-04-06T07:42:21Z</time>
      </trkpt>
      <trkpt lat="43.090495" lon="-2.271564">
        <ele>695.289</ele>
        <time>2021-04-06T07:42:23Z</time>
      </trkpt>
      <trkpt lat="43.090525" lon="-2.271630">
        <ele>693.906</ele>
        <time>2021-04-06T07:42:24Z</time>
      </trkpt>
      <trkpt lat="43.090540" lon="-2.271666">
        <ele>693.226</ele>
        <time>2021-04-06T07:42:25Z</time>
      </trkpt>
      <trkpt lat="43.090554" lon="-2.271702">
        <ele>692.308</ele>
        <time>2021-04-06T07:42:27Z</time>
      </trkpt>
      <trkpt lat="43.090572" lon="-2.271741">
        <ele>691.175</ele>
        <time>2021-04-06T07:42:28Z</time>
      </trkpt>
      <trkpt lat="43.090594" lon="-2.271779">
        <ele>689.938</ele>
        <time>2021-04-06T07:42:29Z</time>
      </trkpt>
      <trkpt lat="43.090619" lon="-2.271812">
        <ele>688.999</ele>
        <time>2021-04-06T07:42:30Z</time>
      </trkpt>
      <trkpt lat="43.090646" lon="-2.271842">
        <ele>688.064</ele>
        <time>2021-04-06T07:42:31Z</time>
      </trkpt>
      <trkpt lat="43.090671" lon="-2.271862">
        <ele>687.349</ele>
        <time>2021-04-06T07:42:32Z</time>
      </trkpt>
      <trkpt lat="43.090697" lon="-2.271883">
        <ele>686.747</ele>
        <time>2021-04-06T07:42:33Z</time>
      </trkpt>
      <trkpt lat="43.090723" lon="-2.271903">
        <ele>686.244</ele>
        <time>2021-04-06T07:42:34Z</time>
      </trkpt>
      <trkpt lat="43.090747" lon="-2.271921">
        <ele>685.892</ele>
        <time>2021-04-06T07:42:35Z</time>
      </trkpt>
      <trkpt lat="43.090771" lon="-2.271939">
        <ele>685.588</ele>
        <time>2021-04-06T07:42:36Z</time>
      </trkpt>
      <trkpt lat="43.090795" lon="-2.271960">
        <ele>684.924</ele>
        <time>2021-04-06T07:42:37Z</time>
      </trkpt>
      <trkpt lat="43.090823" lon="-2.271981">
        <ele>684.126</ele>
        <time>2021-04-06T07:42:38Z</time>
      </trkpt>
      <trkpt lat="43.090852" lon="-2.272001">
        <ele>683.308</ele>
        <time>2021-04-06T07:42:39Z</time>
      </trkpt>
      <trkpt lat="43.090913" lon="-2.272039">
        <ele>681.725</ele>
        <time>2021-04-06T07:42:40Z</time>
      </trkpt>
      <trkpt lat="43.090942" lon="-2.272062">
        <ele>680.918</ele>
        <time>2021-04-06T07:42:42Z</time>
      </trkpt>
      <trkpt lat="43.090970" lon="-2.272085">
        <ele>680.239</ele>
        <time>2021-04-06T07:42:43Z</time>
      </trkpt>
      <trkpt lat="43.090999" lon="-2.272108">
        <ele>679.754</ele>
        <time>2021-04-06T07:42:44Z</time>
      </trkpt>
      <trkpt lat="43.091027" lon="-2.272127">
        <ele>679.279</ele>
        <time>2021-04-06T07:42:45Z</time>
      </trkpt>
      <trkpt lat="43.091054" lon="-2.272153">
        <ele>678.877</ele>
        <time>2021-04-06T07:42:46Z</time>
      </trkpt>
      <trkpt lat="43.091110" lon="-2.272199">
        <ele>678.214</ele>
        <time>2021-04-06T07:42:47Z</time>
      </trkpt>
      <trkpt lat="43.091139" lon="-2.272219">
        <ele>677.752</ele>
        <time>2021-04-06T07:42:48Z</time>
      </trkpt>
      <trkpt lat="43.091169" lon="-2.272243">
        <ele>676.997</ele>
        <time>2021-04-06T07:42:50Z</time>
      </trkpt>
      <trkpt lat="43.091196" lon="-2.272267">
        <ele>676.223</ele>
        <time>2021-04-06T07:42:51Z</time>
      </trkpt>
      <trkpt lat="43.091224" lon="-2.272295">
        <ele>675.425</ele>
        <time>2021-04-06T07:42:52Z</time>
      </trkpt>
      <trkpt lat="43.091281" lon="-2.272336">
        <ele>674.308</ele>
        <time>2021-04-06T07:42:53Z</time>
      </trkpt>
      <trkpt lat="43.091338" lon="-2.272376">
        <ele>673.596</ele>
        <time>2021-04-06T07:42:55Z</time>
      </trkpt>
      <trkpt lat="43.091366" lon="-2.272397">
        <ele>673.219</ele>
        <time>2021-04-06T07:42:57Z</time>
      </trkpt>
      <trkpt lat="43.091395" lon="-2.272416">
        <ele>672.920</ele>
        <time>2021-04-06T07:42:58Z</time>
      </trkpt>
      <trkpt lat="43.091426" lon="-2.272428">
        <ele>672.645</ele>
        <time>2021-04-06T07:42:59Z</time>
      </trkpt>
      <trkpt lat="43.091455" lon="-2.272443">
        <ele>672.490</ele>
        <time>2021-04-06T07:43:00Z</time>
      </trkpt>
      <trkpt lat="43.091483" lon="-2.272463">
        <ele>672.378</ele>
        <time>2021-04-06T07:43:01Z</time>
      </trkpt>
      <trkpt lat="43.091506" lon="-2.272481">
        <ele>672.475</ele>
        <time>2021-04-06T07:43:02Z</time>
      </trkpt>
      <trkpt lat="43.091532" lon="-2.272498">
        <ele>672.533</ele>
        <time>2021-04-06T07:43:03Z</time>
      </trkpt>
      <trkpt lat="43.091557" lon="-2.272515">
        <ele>672.439</ele>
        <time>2021-04-06T07:43:04Z</time>
      </trkpt>
      <trkpt lat="43.091579" lon="-2.272533">
        <ele>672.301</ele>
        <time>2021-04-06T07:43:05Z</time>
      </trkpt>
      <trkpt lat="43.091601" lon="-2.272552">
        <ele>672.221</ele>
        <time>2021-04-06T07:43:06Z</time>
      </trkpt>
      <trkpt lat="43.091639" lon="-2.272590">
        <ele>672.108</ele>
        <time>2021-04-06T07:43:07Z</time>
      </trkpt>
      <trkpt lat="43.091661" lon="-2.272606">
        <ele>672.280</ele>
        <time>2021-04-06T07:43:08Z</time>
      </trkpt>
      <trkpt lat="43.091682" lon="-2.272620">
        <ele>672.143</ele>
        <time>2021-04-06T07:43:10Z</time>
      </trkpt>
      <trkpt lat="43.091705" lon="-2.272633">
        <ele>672.044</ele>
        <time>2021-04-06T07:43:11Z</time>
      </trkpt>
      <trkpt lat="43.091755" lon="-2.272657">
        <ele>671.979</ele>
        <time>2021-04-06T07:43:13Z</time>
      </trkpt>
      <trkpt lat="43.091804" lon="-2.272677">
        <ele>672.084</ele>
        <time>2021-04-06T07:43:14Z</time>
      </trkpt>
      <trkpt lat="43.091827" lon="-2.272691">
        <ele>672.112</ele>
        <time>2021-04-06T07:43:15Z</time>
      </trkpt>
      <trkpt lat="43.091852" lon="-2.272702">
        <ele>672.349</ele>
        <time>2021-04-06T07:43:17Z</time>
      </trkpt>
      <trkpt lat="43.091874" lon="-2.272713">
        <ele>672.537</ele>
        <time>2021-04-06T07:43:18Z</time>
      </trkpt>
      <trkpt lat="43.091919" lon="-2.272744">
        <ele>673.265</ele>
        <time>2021-04-06T07:43:19Z</time>
      </trkpt>
      <trkpt lat="43.091937" lon="-2.272762">
        <ele>673.668</ele>
        <time>2021-04-06T07:43:20Z</time>
      </trkpt>
      <trkpt lat="43.091970" lon="-2.272808">
        <ele>673.414</ele>
        <time>2021-04-06T07:43:22Z</time>
      </trkpt>
      <trkpt lat="43.091984" lon="-2.272834">
        <ele>673.008</ele>
        <time>2021-04-06T07:43:24Z</time>
      </trkpt>
      <trkpt lat="43.091997" lon="-2.272863">
        <ele>672.753</ele>
        <time>2021-04-06T07:43:25Z</time>
      </trkpt>
      <trkpt lat="43.092011" lon="-2.272892">
        <ele>672.596</ele>
        <time>2021-04-06T07:43:26Z</time>
      </trkpt>
      <trkpt lat="43.092024" lon="-2.272921">
        <ele>672.317</ele>
        <time>2021-04-06T07:43:27Z</time>
      </trkpt>
      <trkpt lat="43.092039" lon="-2.272952">
        <ele>672.372</ele>
        <time>2021-04-06T07:43:28Z</time>
      </trkpt>
      <trkpt lat="43.092053" lon="-2.272983">
        <ele>672.237</ele>
        <time>2021-04-06T07:43:29Z</time>
      </trkpt>
      <trkpt lat="43.092067" lon="-2.273011">
        <ele>672.355</ele>
        <time>2021-04-06T07:43:30Z</time>
      </trkpt>
      <trkpt lat="43.092098" lon="-2.273077">
        <ele>672.352</ele>
        <time>2021-04-06T07:43:31Z</time>
      </trkpt>
      <trkpt lat="43.092130" lon="-2.273140">
        <ele>671.860</ele>
        <time>2021-04-06T07:43:33Z</time>
      </trkpt>
      <trkpt lat="43.092165" lon="-2.273197">
        <ele>671.525</ele>
        <time>2021-04-06T07:43:35Z</time>
      </trkpt>
      <trkpt lat="43.092181" lon="-2.273228">
        <ele>671.426</ele>
        <time>2021-04-06T07:43:36Z</time>
      </trkpt>
      <trkpt lat="43.092215" lon="-2.273295">
        <ele>671.308</ele>
        <time>2021-04-06T07:43:38Z</time>
      </trkpt>
      <trkpt lat="43.092233" lon="-2.273329">
        <ele>671.008</ele>
        <time>2021-04-06T07:43:40Z</time>
      </trkpt>
      <trkpt lat="43.092252" lon="-2.273365">
        <ele>670.449</ele>
        <time>2021-04-06T07:43:41Z</time>
      </trkpt>
      <trkpt lat="43.092271" lon="-2.273397">
        <ele>669.862</ele>
        <time>2021-04-06T07:43:42Z</time>
      </trkpt>
      <trkpt lat="43.092290" lon="-2.273429">
        <ele>669.323</ele>
        <time>2021-04-06T07:43:43Z</time>
      </trkpt>
      <trkpt lat="43.092312" lon="-2.273462">
        <ele>668.898</ele>
        <time>2021-04-06T07:43:44Z</time>
      </trkpt>
      <trkpt lat="43.092331" lon="-2.273495">
        <ele>668.443</ele>
        <time>2021-04-06T07:43:45Z</time>
      </trkpt>
      <trkpt lat="43.092349" lon="-2.273529">
        <ele>668.091</ele>
        <time>2021-04-06T07:43:46Z</time>
      </trkpt>
      <trkpt lat="43.092388" lon="-2.273593">
        <ele>667.458</ele>
        <time>2021-04-06T07:43:47Z</time>
      </trkpt>
      <trkpt lat="43.092427" lon="-2.273660">
        <ele>666.736</ele>
        <time>2021-04-06T07:43:49Z</time>
      </trkpt>
      <trkpt lat="43.092445" lon="-2.273694">
        <ele>666.364</ele>
        <time>2021-04-06T07:43:50Z</time>
      </trkpt>
      <trkpt lat="43.092462" lon="-2.273727">
        <ele>665.906</ele>
        <time>2021-04-06T07:43:51Z</time>
      </trkpt>
      <trkpt lat="43.092497" lon="-2.273798">
        <ele>665.316</ele>
        <time>2021-04-06T07:43:53Z</time>
      </trkpt>
      <trkpt lat="43.092511" lon="-2.273833">
        <ele>664.708</ele>
        <time>2021-04-06T07:43:54Z</time>
      </trkpt>
      <trkpt lat="43.092522" lon="-2.273872">
        <ele>664.113</ele>
        <time>2021-04-06T07:43:56Z</time>
      </trkpt>
      <trkpt lat="43.092537" lon="-2.273916">
        <ele>663.356</ele>
        <time>2021-04-06T07:43:57Z</time>
      </trkpt>
      <trkpt lat="43.092552" lon="-2.273957">
        <ele>662.417</ele>
        <time>2021-04-06T07:43:58Z</time>
      </trkpt>
      <trkpt lat="43.092587" lon="-2.274034">
        <ele>660.952</ele>
        <time>2021-04-06T07:43:59Z</time>
      </trkpt>
      <trkpt lat="43.092622" lon="-2.274112">
        <ele>659.557</ele>
        <time>2021-04-06T07:44:01Z</time>
      </trkpt>
      <trkpt lat="43.092639" lon="-2.274150">
        <ele>658.875</ele>
        <time>2021-04-06T07:44:03Z</time>
      </trkpt>
      <trkpt lat="43.092653" lon="-2.274189">
        <ele>658.072</ele>
        <time>2021-04-06T07:44:04Z</time>
      </trkpt>
      <trkpt lat="43.092676" lon="-2.274263">
        <ele>656.450</ele>
        <time>2021-04-06T07:44:05Z</time>
      </trkpt>
      <trkpt lat="43.092683" lon="-2.274310">
        <ele>655.419</ele>
        <time>2021-04-06T07:44:06Z</time>
      </trkpt>
      <trkpt lat="43.092713" lon="-2.274391">
        <ele>653.809</ele>
        <time>2021-04-06T07:44:08Z</time>
      </trkpt>
      <trkpt lat="43.092726" lon="-2.274428">
        <ele>653.119</ele>
        <time>2021-04-06T07:44:09Z</time>
      </trkpt>
      <trkpt lat="43.092737" lon="-2.274468">
        <ele>652.408</ele>
        <time>2021-04-06T07:44:11Z</time>
      </trkpt>
      <trkpt lat="43.092750" lon="-2.274507">
        <ele>651.748</ele>
        <time>2021-04-06T07:44:12Z</time>
      </trkpt>
      <trkpt lat="43.092779" lon="-2.274584">
        <ele>650.511</ele>
        <time>2021-04-06T07:44:13Z</time>
      </trkpt>
      <trkpt lat="43.092806" lon="-2.274668">
        <ele>648.812</ele>
        <time>2021-04-06T07:44:15Z</time>
      </trkpt>
      <trkpt lat="43.092835" lon="-2.274764">
        <ele>646.997</ele>
        <time>2021-04-06T07:44:17Z</time>
      </trkpt>
      <trkpt lat="43.092865" lon="-2.274847">
        <ele>645.112</ele>
        <time>2021-04-06T07:44:19Z</time>
      </trkpt>
      <trkpt lat="43.092900" lon="-2.274923">
        <ele>643.830</ele>
        <time>2021-04-06T07:44:21Z</time>
      </trkpt>
      <trkpt lat="43.092918" lon="-2.274959">
        <ele>643.247</ele>
        <time>2021-04-06T07:44:22Z</time>
      </trkpt>
      <trkpt lat="43.092958" lon="-2.275034">
        <ele>642.355</ele>
        <time>2021-04-06T07:44:24Z</time>
      </trkpt>
      <trkpt lat="43.092977" lon="-2.275071">
        <ele>641.899</ele>
        <time>2021-04-06T07:44:25Z</time>
      </trkpt>
      <trkpt lat="43.092999" lon="-2.275103">
        <ele>641.607</ele>
        <time>2021-04-06T07:44:26Z</time>
      </trkpt>
      <trkpt lat="43.093020" lon="-2.275134">
        <ele>641.427</ele>
        <time>2021-04-06T07:44:27Z</time>
      </trkpt>
      <trkpt lat="43.093042" lon="-2.275162">
        <ele>641.408</ele>
        <time>2021-04-06T07:44:28Z</time>
      </trkpt>
      <trkpt lat="43.093062" lon="-2.275188">
        <ele>641.396</ele>
        <time>2021-04-06T07:44:30Z</time>
      </trkpt>
      <trkpt lat="43.093084" lon="-2.275218">
        <ele>641.019</ele>
        <time>2021-04-06T07:44:31Z</time>
      </trkpt>
      <trkpt lat="43.093102" lon="-2.275246">
        <ele>640.730</ele>
        <time>2021-04-06T07:44:32Z</time>
      </trkpt>
      <trkpt lat="43.093118" lon="-2.275271">
        <ele>640.585</ele>
        <time>2021-04-06T07:44:33Z</time>
      </trkpt>
      <trkpt lat="43.093135" lon="-2.275299">
        <ele>640.380</ele>
        <time>2021-04-06T07:44:34Z</time>
      </trkpt>
      <trkpt lat="43.093174" lon="-2.275340">
        <ele>640.298</ele>
        <time>2021-04-06T07:44:35Z</time>
      </trkpt>
      <trkpt lat="43.093195" lon="-2.275366">
        <ele>640.275</ele>
        <time>2021-04-06T07:44:37Z</time>
      </trkpt>
      <trkpt lat="43.093216" lon="-2.275394">
        <ele>640.313</ele>
        <time>2021-04-06T07:44:38Z</time>
      </trkpt>
      <trkpt lat="43.093234" lon="-2.275422">
        <ele>640.417</ele>
        <time>2021-04-06T07:44:39Z</time>
      </trkpt>
      <trkpt lat="43.093251" lon="-2.275451">
        <ele>640.587</ele>
        <time>2021-04-06T07:44:40Z</time>
      </trkpt>
      <trkpt lat="43.093267" lon="-2.275477">
        <ele>640.715</ele>
        <time>2021-04-06T07:44:41Z</time>
      </trkpt>
      <trkpt lat="43.093284" lon="-2.275510">
        <ele>640.908</ele>
        <time>2021-04-06T07:44:42Z</time>
      </trkpt>
      <trkpt lat="43.093300" lon="-2.275538">
        <ele>641.278</ele>
        <time>2021-04-06T07:44:43Z</time>
      </trkpt>
      <trkpt lat="43.093334" lon="-2.275591">
        <ele>642.091</ele>
        <time>2021-04-06T07:44:44Z</time>
      </trkpt>
      <trkpt lat="43.093364" lon="-2.275644">
        <ele>642.082</ele>
        <time>2021-04-06T07:44:46Z</time>
      </trkpt>
      <trkpt lat="43.093386" lon="-2.275671">
        <ele>642.077</ele>
        <time>2021-04-06T07:44:47Z</time>
      </trkpt>
      <trkpt lat="43.093401" lon="-2.275692">
        <ele>642.062</ele>
        <time>2021-04-06T07:44:49Z</time>
      </trkpt>
      <trkpt lat="43.093418" lon="-2.275716">
        <ele>642.080</ele>
        <time>2021-04-06T07:44:50Z</time>
      </trkpt>
      <trkpt lat="43.093431" lon="-2.275738">
        <ele>642.197</ele>
        <time>2021-04-06T07:44:51Z</time>
      </trkpt>
      <trkpt lat="43.093448" lon="-2.275761">
        <ele>642.295</ele>
        <time>2021-04-06T07:44:52Z</time>
      </trkpt>
      <trkpt lat="43.093463" lon="-2.275788">
        <ele>642.395</ele>
        <time>2021-04-06T07:44:53Z</time>
      </trkpt>
      <trkpt lat="43.093493" lon="-2.275849">
        <ele>642.649</ele>
        <time>2021-04-06T07:44:54Z</time>
      </trkpt>
      <trkpt lat="43.093520" lon="-2.275907">
        <ele>642.723</ele>
        <time>2021-04-06T07:44:56Z</time>
      </trkpt>
      <trkpt lat="43.093535" lon="-2.275933">
        <ele>642.808</ele>
        <time>2021-04-06T07:44:58Z</time>
      </trkpt>
      <trkpt lat="43.093552" lon="-2.275962">
        <ele>643.026</ele>
        <time>2021-04-06T07:44:59Z</time>
      </trkpt>
      <trkpt lat="43.093567" lon="-2.275991">
        <ele>643.159</ele>
        <time>2021-04-06T07:45:00Z</time>
      </trkpt>
      <trkpt lat="43.093581" lon="-2.276022">
        <ele>643.420</ele>
        <time>2021-04-06T07:45:01Z</time>
      </trkpt>
      <trkpt lat="43.093610" lon="-2.276081">
        <ele>643.955</ele>
        <time>2021-04-06T07:45:02Z</time>
      </trkpt>
      <trkpt lat="43.093640" lon="-2.276131">
        <ele>643.650</ele>
        <time>2021-04-06T07:45:04Z</time>
      </trkpt>
      <trkpt lat="43.093660" lon="-2.276173">
        <ele>643.298</ele>
        <time>2021-04-06T07:45:07Z</time>
      </trkpt>
      <trkpt lat="43.093684" lon="-2.276225">
        <ele>642.815</ele>
        <time>2021-04-06T07:45:09Z</time>
      </trkpt>
      <trkpt lat="43.093693" lon="-2.276259">
        <ele>642.753</ele>
        <time>2021-04-06T07:45:11Z</time>
      </trkpt>
      <trkpt lat="43.093699" lon="-2.276291">
        <ele>642.687</ele>
        <time>2021-04-06T07:45:13Z</time>
      </trkpt>
      <trkpt lat="43.093691" lon="-2.276268">
        <ele>642.742</ele>
        <time>2021-04-06T07:45:32Z</time>
      </trkpt>
      <trkpt lat="43.093685" lon="-2.276260">
        <ele>642.726</ele>
        <time>2021-04-06T07:46:22Z</time>
      </trkpt>
      <trkpt lat="43.093677" lon="-2.276240">
        <ele>642.808</ele>
        <time>2021-04-06T07:46:26Z</time>
      </trkpt>
      <trkpt lat="43.093693" lon="-2.276251">
        <ele>642.755</ele>
        <time>2021-04-06T07:46:35Z</time>
      </trkpt>
      <trkpt lat="43.093692" lon="-2.276280">
        <ele>642.638</ele>
        <time>2021-04-06T07:46:39Z</time>
      </trkpt>
      <trkpt lat="43.093680" lon="-2.276296">
        <ele>642.689</ele>
        <time>2021-04-06T07:47:06Z</time>
      </trkpt>
      <trkpt lat="43.093704" lon="-2.276318">
        <ele>642.564</ele>
        <time>2021-04-06T07:47:19Z</time>
      </trkpt>
      <trkpt lat="43.093720" lon="-2.276338">
        <ele>642.559</ele>
        <time>2021-04-06T07:47:21Z</time>
      </trkpt>
      <trkpt lat="43.093751" lon="-2.276384">
        <ele>642.557</ele>
        <time>2021-04-06T07:47:22Z</time>
      </trkpt>
      <trkpt lat="43.093767" lon="-2.276413">
        <ele>642.494</ele>
        <time>2021-04-06T07:47:23Z</time>
      </trkpt>
      <trkpt lat="43.093785" lon="-2.276447">
        <ele>642.372</ele>
        <time>2021-04-06T07:47:25Z</time>
      </trkpt>
      <trkpt lat="43.093808" lon="-2.276480">
        <ele>642.275</ele>
        <time>2021-04-06T07:47:26Z</time>
      </trkpt>
      <trkpt lat="43.093842" lon="-2.276559">
        <ele>642.028</ele>
        <time>2021-04-06T07:47:27Z</time>
      </trkpt>
      <trkpt lat="43.093863" lon="-2.276600">
        <ele>642.020</ele>
        <time>2021-04-06T07:47:29Z</time>
      </trkpt>
      <trkpt lat="43.093877" lon="-2.276641">
        <ele>642.008</ele>
        <time>2021-04-06T07:47:30Z</time>
      </trkpt>
      <trkpt lat="43.093909" lon="-2.276707">
        <ele>641.944</ele>
        <time>2021-04-06T07:47:31Z</time>
      </trkpt>
      <trkpt lat="43.093952" lon="-2.276776">
        <ele>642.067</ele>
        <time>2021-04-06T07:47:33Z</time>
      </trkpt>
      <trkpt lat="43.093968" lon="-2.276808">
        <ele>642.028</ele>
        <time>2021-04-06T07:47:34Z</time>
      </trkpt>
      <trkpt lat="43.093985" lon="-2.276838">
        <ele>642.173</ele>
        <time>2021-04-06T07:47:35Z</time>
      </trkpt>
      <trkpt lat="43.094015" lon="-2.276888">
        <ele>642.328</ele>
        <time>2021-04-06T07:47:37Z</time>
      </trkpt>
      <trkpt lat="43.094030" lon="-2.276910">
        <ele>642.436</ele>
        <time>2021-04-06T07:47:38Z</time>
      </trkpt>
      <trkpt lat="43.094045" lon="-2.276938">
        <ele>642.573</ele>
        <time>2021-04-06T07:47:39Z</time>
      </trkpt>
      <trkpt lat="43.094078" lon="-2.276992">
        <ele>642.931</ele>
        <time>2021-04-06T07:47:41Z</time>
      </trkpt>
      <trkpt lat="43.094096" lon="-2.277021">
        <ele>643.121</ele>
        <time>2021-04-06T07:47:42Z</time>
      </trkpt>
      <trkpt lat="43.094134" lon="-2.277070">
        <ele>643.641</ele>
        <time>2021-04-06T07:47:44Z</time>
      </trkpt>
      <trkpt lat="43.094155" lon="-2.277091">
        <ele>643.905</ele>
        <time>2021-04-06T07:47:46Z</time>
      </trkpt>
      <trkpt lat="43.094177" lon="-2.277110">
        <ele>644.108</ele>
        <time>2021-04-06T07:47:47Z</time>
      </trkpt>
      <trkpt lat="43.094197" lon="-2.277124">
        <ele>644.249</ele>
        <time>2021-04-06T07:47:48Z</time>
      </trkpt>
      <trkpt lat="43.094216" lon="-2.277138">
        <ele>644.282</ele>
        <time>2021-04-06T07:47:49Z</time>
      </trkpt>
      <trkpt lat="43.094236" lon="-2.277152">
        <ele>644.363</ele>
        <time>2021-04-06T07:47:50Z</time>
      </trkpt>
      <trkpt lat="43.094293" lon="-2.277208">
        <ele>644.818</ele>
        <time>2021-04-06T07:47:52Z</time>
      </trkpt>
      <trkpt lat="43.094311" lon="-2.277235">
        <ele>645.143</ele>
        <time>2021-04-06T07:47:53Z</time>
      </trkpt>
      <trkpt lat="43.094326" lon="-2.277259">
        <ele>645.311</ele>
        <time>2021-04-06T07:47:55Z</time>
      </trkpt>
      <trkpt lat="43.094341" lon="-2.277284">
        <ele>645.548</ele>
        <time>2021-04-06T07:47:56Z</time>
      </trkpt>
      <trkpt lat="43.094356" lon="-2.277312">
        <ele>645.896</ele>
        <time>2021-04-06T07:47:57Z</time>
      </trkpt>
      <trkpt lat="43.094370" lon="-2.277333">
        <ele>646.078</ele>
        <time>2021-04-06T07:47:58Z</time>
      </trkpt>
      <trkpt lat="43.094383" lon="-2.277354">
        <ele>646.233</ele>
        <time>2021-04-06T07:47:59Z</time>
      </trkpt>
      <trkpt lat="43.094395" lon="-2.277378">
        <ele>646.526</ele>
        <time>2021-04-06T07:48:00Z</time>
      </trkpt>
      <trkpt lat="43.094408" lon="-2.277404">
        <ele>646.808</ele>
        <time>2021-04-06T07:48:01Z</time>
      </trkpt>
      <trkpt lat="43.094419" lon="-2.277428">
        <ele>647.134</ele>
        <time>2021-04-06T07:48:02Z</time>
      </trkpt>
      <trkpt lat="43.094437" lon="-2.277455">
        <ele>647.547</ele>
        <time>2021-04-06T07:48:03Z</time>
      </trkpt>
      <trkpt lat="43.094451" lon="-2.277475">
        <ele>647.798</ele>
        <time>2021-04-06T07:48:04Z</time>
      </trkpt>
      <trkpt lat="43.094468" lon="-2.277497">
        <ele>647.823</ele>
        <time>2021-04-06T07:48:05Z</time>
      </trkpt>
      <trkpt lat="43.094496" lon="-2.277543">
        <ele>648.288</ele>
        <time>2021-04-06T07:48:06Z</time>
      </trkpt>
      <trkpt lat="43.094510" lon="-2.277563">
        <ele>648.316</ele>
        <time>2021-04-06T07:48:08Z</time>
      </trkpt>
      <trkpt lat="43.094540" lon="-2.277603">
        <ele>648.743</ele>
        <time>2021-04-06T07:48:09Z</time>
      </trkpt>
      <trkpt lat="43.094567" lon="-2.277649">
        <ele>649.221</ele>
        <time>2021-04-06T07:48:11Z</time>
      </trkpt>
      <trkpt lat="43.094597" lon="-2.277686">
        <ele>649.659</ele>
        <time>2021-04-06T07:48:13Z</time>
      </trkpt>
      <trkpt lat="43.094607" lon="-2.277707">
        <ele>649.903</ele>
        <time>2021-04-06T07:48:14Z</time>
      </trkpt>
      <trkpt lat="43.094618" lon="-2.277733">
        <ele>650.323</ele>
        <time>2021-04-06T07:48:15Z</time>
      </trkpt>
      <trkpt lat="43.094625" lon="-2.277763">
        <ele>650.808</ele>
        <time>2021-04-06T07:48:16Z</time>
      </trkpt>
      <trkpt lat="43.094632" lon="-2.277787">
        <ele>651.152</ele>
        <time>2021-04-06T07:48:18Z</time>
      </trkpt>
      <trkpt lat="43.094648" lon="-2.277812">
        <ele>651.395</ele>
        <time>2021-04-06T07:48:19Z</time>
      </trkpt>
      <trkpt lat="43.094662" lon="-2.277837">
        <ele>651.696</ele>
        <time>2021-04-06T07:48:20Z</time>
      </trkpt>
      <trkpt lat="43.094675" lon="-2.277861">
        <ele>651.811</ele>
        <time>2021-04-06T07:48:21Z</time>
      </trkpt>
      <trkpt lat="43.094686" lon="-2.277880">
        <ele>652.116</ele>
        <time>2021-04-06T07:48:22Z</time>
      </trkpt>
      <trkpt lat="43.094702" lon="-2.277914">
        <ele>652.424</ele>
        <time>2021-04-06T07:48:24Z</time>
      </trkpt>
      <trkpt lat="43.094717" lon="-2.277952">
        <ele>652.921</ele>
        <time>2021-04-06T07:48:26Z</time>
      </trkpt>
      <trkpt lat="43.094732" lon="-2.277993">
        <ele>653.299</ele>
        <time>2021-04-06T07:48:28Z</time>
      </trkpt>
      <trkpt lat="43.094747" lon="-2.278025">
        <ele>653.381</ele>
        <time>2021-04-06T07:48:30Z</time>
      </trkpt>
      <trkpt lat="43.094763" lon="-2.278061">
        <ele>653.561</ele>
        <time>2021-04-06T07:48:32Z</time>
      </trkpt>
      <trkpt lat="43.094777" lon="-2.278102">
        <ele>653.917</ele>
        <time>2021-04-06T07:48:34Z</time>
      </trkpt>
      <trkpt lat="43.094789" lon="-2.278141">
        <ele>654.408</ele>
        <time>2021-04-06T07:48:36Z</time>
      </trkpt>
      <trkpt lat="43.094799" lon="-2.278178">
        <ele>654.955</ele>
        <time>2021-04-06T07:48:38Z</time>
      </trkpt>
      <trkpt lat="43.094812" lon="-2.278207">
        <ele>655.258</ele>
        <time>2021-04-06T07:48:40Z</time>
      </trkpt>
      <trkpt lat="43.094830" lon="-2.278244">
        <ele>655.749</ele>
        <time>2021-04-06T07:48:42Z</time>
      </trkpt>
      <trkpt lat="43.094842" lon="-2.278263">
        <ele>655.984</ele>
        <time>2021-04-06T07:48:43Z</time>
      </trkpt>
      <trkpt lat="43.094862" lon="-2.278294">
        <ele>656.319</ele>
        <time>2021-04-06T07:48:45Z</time>
      </trkpt>
      <trkpt lat="43.094876" lon="-2.278310">
        <ele>656.547</ele>
        <time>2021-04-06T07:48:46Z</time>
      </trkpt>
      <trkpt lat="43.094901" lon="-2.278338">
        <ele>656.844</ele>
        <time>2021-04-06T07:48:48Z</time>
      </trkpt>
      <trkpt lat="43.094926" lon="-2.278357">
        <ele>657.192</ele>
        <time>2021-04-06T07:48:50Z</time>
      </trkpt>
      <trkpt lat="43.094951" lon="-2.278384">
        <ele>657.772</ele>
        <time>2021-04-06T07:48:51Z</time>
      </trkpt>
      <trkpt lat="43.094976" lon="-2.278406">
        <ele>658.213</ele>
        <time>2021-04-06T07:48:53Z</time>
      </trkpt>
      <trkpt lat="43.095001" lon="-2.278428">
        <ele>658.714</ele>
        <time>2021-04-06T07:48:56Z</time>
      </trkpt>
      <trkpt lat="43.095024" lon="-2.278455">
        <ele>659.108</ele>
        <time>2021-04-06T07:48:58Z</time>
      </trkpt>
      <trkpt lat="43.095048" lon="-2.278483">
        <ele>659.544</ele>
        <time>2021-04-06T07:48:59Z</time>
      </trkpt>
      <trkpt lat="43.095073" lon="-2.278503">
        <ele>659.657</ele>
        <time>2021-04-06T07:49:02Z</time>
      </trkpt>
      <trkpt lat="43.095099" lon="-2.278523">
        <ele>659.868</ele>
        <time>2021-04-06T07:49:04Z</time>
      </trkpt>
      <trkpt lat="43.095123" lon="-2.278540">
        <ele>660.073</ele>
        <time>2021-04-06T07:49:06Z</time>
      </trkpt>
      <trkpt lat="43.095148" lon="-2.278565">
        <ele>660.458</ele>
        <time>2021-04-06T07:49:08Z</time>
      </trkpt>
      <trkpt lat="43.095176" lon="-2.278585">
        <ele>660.656</ele>
        <time>2021-04-06T07:49:10Z</time>
      </trkpt>
      <trkpt lat="43.095204" lon="-2.278606">
        <ele>660.923</ele>
        <time>2021-04-06T07:49:12Z</time>
      </trkpt>
      <trkpt lat="43.095233" lon="-2.278626">
        <ele>660.871</ele>
        <time>2021-04-06T07:49:14Z</time>
      </trkpt>
      <trkpt lat="43.095262" lon="-2.278647">
        <ele>660.663</ele>
        <time>2021-04-06T07:49:15Z</time>
      </trkpt>
      <trkpt lat="43.095301" lon="-2.278675">
        <ele>660.544</ele>
        <time>2021-04-06T07:49:17Z</time>
      </trkpt>
      <trkpt lat="43.095321" lon="-2.278693">
        <ele>660.618</ele>
        <time>2021-04-06T07:49:19Z</time>
      </trkpt>
      <trkpt lat="43.095344" lon="-2.278711">
        <ele>660.608</ele>
        <time>2021-04-06T07:49:20Z</time>
      </trkpt>
      <trkpt lat="43.095382" lon="-2.278748">
        <ele>660.763</ele>
        <time>2021-04-06T07:49:21Z</time>
      </trkpt>
      <trkpt lat="43.095422" lon="-2.278790">
        <ele>660.996</ele>
        <time>2021-04-06T07:49:23Z</time>
      </trkpt>
      <trkpt lat="43.095458" lon="-2.278828">
        <ele>661.057</ele>
        <time>2021-04-06T07:49:25Z</time>
      </trkpt>
      <trkpt lat="43.095476" lon="-2.278848">
        <ele>661.122</ele>
        <time>2021-04-06T07:49:26Z</time>
      </trkpt>
      <trkpt lat="43.095517" lon="-2.278891">
        <ele>661.367</ele>
        <time>2021-04-06T07:49:28Z</time>
      </trkpt>
      <trkpt lat="43.095540" lon="-2.278911">
        <ele>660.985</ele>
        <time>2021-04-06T07:49:29Z</time>
      </trkpt>
      <trkpt lat="43.095563" lon="-2.278928">
        <ele>660.692</ele>
        <time>2021-04-06T07:49:30Z</time>
      </trkpt>
      <trkpt lat="43.095587" lon="-2.278940">
        <ele>660.360</ele>
        <time>2021-04-06T07:49:31Z</time>
      </trkpt>
      <trkpt lat="43.095610" lon="-2.278949">
        <ele>660.231</ele>
        <time>2021-04-06T07:49:32Z</time>
      </trkpt>
      <trkpt lat="43.095636" lon="-2.278957">
        <ele>660.061</ele>
        <time>2021-04-06T07:49:33Z</time>
      </trkpt>
      <trkpt lat="43.095683" lon="-2.278971">
        <ele>659.707</ele>
        <time>2021-04-06T07:49:35Z</time>
      </trkpt>
      <trkpt lat="43.095708" lon="-2.278977">
        <ele>659.508</ele>
        <time>2021-04-06T07:49:37Z</time>
      </trkpt>
      <trkpt lat="43.095734" lon="-2.278985">
        <ele>659.390</ele>
        <time>2021-04-06T07:49:38Z</time>
      </trkpt>
      <trkpt lat="43.095756" lon="-2.278993">
        <ele>659.223</ele>
        <time>2021-04-06T07:49:39Z</time>
      </trkpt>
      <trkpt lat="43.095784" lon="-2.279002">
        <ele>659.054</ele>
        <time>2021-04-06T07:49:40Z</time>
      </trkpt>
      <trkpt lat="43.095813" lon="-2.279011">
        <ele>658.849</ele>
        <time>2021-04-06T07:49:41Z</time>
      </trkpt>
      <trkpt lat="43.095867" lon="-2.279026">
        <ele>658.714</ele>
        <time>2021-04-06T07:49:42Z</time>
      </trkpt>
      <trkpt lat="43.095895" lon="-2.279034">
        <ele>658.872</ele>
        <time>2021-04-06T07:49:43Z</time>
      </trkpt>
      <trkpt lat="43.095921" lon="-2.279044">
        <ele>658.959</ele>
        <time>2021-04-06T07:49:44Z</time>
      </trkpt>
      <trkpt lat="43.095947" lon="-2.279049">
        <ele>659.047</ele>
        <time>2021-04-06T07:49:45Z</time>
      </trkpt>
      <trkpt lat="43.095973" lon="-2.279059">
        <ele>659.179</ele>
        <time>2021-04-06T07:49:47Z</time>
      </trkpt>
      <trkpt lat="43.095996" lon="-2.279071">
        <ele>659.205</ele>
        <time>2021-04-06T07:49:48Z</time>
      </trkpt>
      <trkpt lat="43.096024" lon="-2.279082">
        <ele>659.325</ele>
        <time>2021-04-06T07:49:49Z</time>
      </trkpt>
      <trkpt lat="43.096049" lon="-2.279089">
        <ele>659.508</ele>
        <time>2021-04-06T07:49:50Z</time>
      </trkpt>
      <trkpt lat="43.096072" lon="-2.279094">
        <ele>659.714</ele>
        <time>2021-04-06T07:49:51Z</time>
      </trkpt>
      <trkpt lat="43.096101" lon="-2.279095">
        <ele>659.927</ele>
        <time>2021-04-06T07:49:52Z</time>
      </trkpt>
      <trkpt lat="43.096127" lon="-2.279094">
        <ele>660.178</ele>
        <time>2021-04-06T07:49:53Z</time>
      </trkpt>
      <trkpt lat="43.096154" lon="-2.279099">
        <ele>660.273</ele>
        <time>2021-04-06T07:49:54Z</time>
      </trkpt>
      <trkpt lat="43.096182" lon="-2.279096">
        <ele>660.338</ele>
        <time>2021-04-06T07:49:55Z</time>
      </trkpt>
      <trkpt lat="43.096211" lon="-2.279087">
        <ele>660.436</ele>
        <time>2021-04-06T07:49:56Z</time>
      </trkpt>
      <trkpt lat="43.096238" lon="-2.279076">
        <ele>660.573</ele>
        <time>2021-04-06T07:49:57Z</time>
      </trkpt>
      <trkpt lat="43.096266" lon="-2.279069">
        <ele>660.631</ele>
        <time>2021-04-06T07:49:58Z</time>
      </trkpt>
      <trkpt lat="43.096291" lon="-2.279060">
        <ele>660.684</ele>
        <time>2021-04-06T07:49:59Z</time>
      </trkpt>
      <trkpt lat="43.096315" lon="-2.279049">
        <ele>660.707</ele>
        <time>2021-04-06T07:50:00Z</time>
      </trkpt>
      <trkpt lat="43.096361" lon="-2.279027">
        <ele>660.917</ele>
        <time>2021-04-06T07:50:01Z</time>
      </trkpt>
      <trkpt lat="43.096404" lon="-2.279007">
        <ele>661.208</ele>
        <time>2021-04-06T07:50:03Z</time>
      </trkpt>
      <trkpt lat="43.096422" lon="-2.278999">
        <ele>661.435</ele>
        <time>2021-04-06T07:50:05Z</time>
      </trkpt>
      <trkpt lat="43.096439" lon="-2.278990">
        <ele>661.698</ele>
        <time>2021-04-06T07:50:06Z</time>
      </trkpt>
      <trkpt lat="43.096471" lon="-2.278978">
        <ele>662.069</ele>
        <time>2021-04-06T07:50:08Z</time>
      </trkpt>
      <trkpt lat="43.096502" lon="-2.278968">
        <ele>662.324</ele>
        <time>2021-04-06T07:50:09Z</time>
      </trkpt>
      <trkpt lat="43.096532" lon="-2.278969">
        <ele>662.769</ele>
        <time>2021-04-06T07:50:12Z</time>
      </trkpt>
      <trkpt lat="43.096562" lon="-2.278972">
        <ele>663.157</ele>
        <time>2021-04-06T07:50:14Z</time>
      </trkpt>
      <trkpt lat="43.096588" lon="-2.278980">
        <ele>663.444</ele>
        <time>2021-04-06T07:50:16Z</time>
      </trkpt>
      <trkpt lat="43.096612" lon="-2.278983">
        <ele>663.722</ele>
        <time>2021-04-06T07:50:18Z</time>
      </trkpt>
      <trkpt lat="43.096634" lon="-2.278987">
        <ele>664.015</ele>
        <time>2021-04-06T07:50:20Z</time>
      </trkpt>
      <trkpt lat="43.096662" lon="-2.278996">
        <ele>664.365</ele>
        <time>2021-04-06T07:50:21Z</time>
      </trkpt>
      <trkpt lat="43.096688" lon="-2.278999">
        <ele>664.811</ele>
        <time>2021-04-06T07:50:23Z</time>
      </trkpt>
      <trkpt lat="43.096713" lon="-2.279012">
        <ele>665.408</ele>
        <time>2021-04-06T07:50:25Z</time>
      </trkpt>
      <trkpt lat="43.096736" lon="-2.279026">
        <ele>665.988</ele>
        <time>2021-04-06T07:50:27Z</time>
      </trkpt>
      <trkpt lat="43.096758" lon="-2.279045">
        <ele>666.451</ele>
        <time>2021-04-06T07:50:29Z</time>
      </trkpt>
      <trkpt lat="43.096781" lon="-2.279062">
        <ele>666.852</ele>
        <time>2021-04-06T07:50:32Z</time>
      </trkpt>
      <trkpt lat="43.096803" lon="-2.279081">
        <ele>667.367</ele>
        <time>2021-04-06T07:50:33Z</time>
      </trkpt>
      <trkpt lat="43.096825" lon="-2.279102">
        <ele>667.832</ele>
        <time>2021-04-06T07:50:35Z</time>
      </trkpt>
      <trkpt lat="43.096848" lon="-2.279113">
        <ele>668.240</ele>
        <time>2021-04-06T07:50:37Z</time>
      </trkpt>
      <trkpt lat="43.096873" lon="-2.279122">
        <ele>668.797</ele>
        <time>2021-04-06T07:50:40Z</time>
      </trkpt>
      <trkpt lat="43.096896" lon="-2.279125">
        <ele>669.125</ele>
        <time>2021-04-06T07:50:41Z</time>
      </trkpt>
      <trkpt lat="43.096924" lon="-2.279126">
        <ele>669.619</ele>
        <time>2021-04-06T07:50:43Z</time>
      </trkpt>
      <trkpt lat="43.096953" lon="-2.279125">
        <ele>670.109</ele>
        <time>2021-04-06T07:50:45Z</time>
      </trkpt>
      <trkpt lat="43.096980" lon="-2.279125">
        <ele>670.319</ele>
        <time>2021-04-06T07:50:48Z</time>
      </trkpt>
      <trkpt lat="43.097005" lon="-2.279124">
        <ele>670.508</ele>
        <time>2021-04-06T07:50:49Z</time>
      </trkpt>
      <trkpt lat="43.097030" lon="-2.279118">
        <ele>670.818</ele>
        <time>2021-04-06T07:50:51Z</time>
      </trkpt>
      <trkpt lat="43.097056" lon="-2.279111">
        <ele>671.091</ele>
        <time>2021-04-06T07:50:53Z</time>
      </trkpt>
      <trkpt lat="43.097084" lon="-2.279102">
        <ele>671.432</ele>
        <time>2021-04-06T07:50:56Z</time>
      </trkpt>
      <trkpt lat="43.097113" lon="-2.279090">
        <ele>671.747</ele>
        <time>2021-04-06T07:50:58Z</time>
      </trkpt>
      <trkpt lat="43.097142" lon="-2.279081">
        <ele>672.192</ele>
        <time>2021-04-06T07:50:59Z</time>
      </trkpt>
      <trkpt lat="43.097170" lon="-2.279067">
        <ele>672.540</ele>
        <time>2021-04-06T07:51:02Z</time>
      </trkpt>
      <trkpt lat="43.097198" lon="-2.279054">
        <ele>672.967</ele>
        <time>2021-04-06T07:51:04Z</time>
      </trkpt>
      <trkpt lat="43.097247" lon="-2.279029">
        <ele>673.255</ele>
        <time>2021-04-06T07:51:06Z</time>
      </trkpt>
      <trkpt lat="43.097295" lon="-2.279002">
        <ele>672.943</ele>
        <time>2021-04-06T07:51:08Z</time>
      </trkpt>
      <trkpt lat="43.097318" lon="-2.278989">
        <ele>672.964</ele>
        <time>2021-04-06T07:51:09Z</time>
      </trkpt>
      <trkpt lat="43.097339" lon="-2.278971">
        <ele>672.910</ele>
        <time>2021-04-06T07:51:10Z</time>
      </trkpt>
      <trkpt lat="43.097361" lon="-2.278954">
        <ele>672.908</ele>
        <time>2021-04-06T07:51:11Z</time>
      </trkpt>
      <trkpt lat="43.097404" lon="-2.278924">
        <ele>673.151</ele>
        <time>2021-04-06T07:51:13Z</time>
      </trkpt>
      <trkpt lat="43.097427" lon="-2.278913">
        <ele>673.124</ele>
        <time>2021-04-06T07:51:14Z</time>
      </trkpt>
      <trkpt lat="43.097473" lon="-2.278881">
        <ele>673.315</ele>
        <time>2021-04-06T07:51:16Z</time>
      </trkpt>
      <trkpt lat="43.097519" lon="-2.278851">
        <ele>673.390</ele>
        <time>2021-04-06T07:51:18Z</time>
      </trkpt>
      <trkpt lat="43.097541" lon="-2.278840">
        <ele>673.265</ele>
        <time>2021-04-06T07:51:20Z</time>
      </trkpt>
      <trkpt lat="43.097568" lon="-2.278833">
        <ele>673.083</ele>
        <time>2021-04-06T07:51:21Z</time>
      </trkpt>
      <trkpt lat="43.097595" lon="-2.278827">
        <ele>672.890</ele>
        <time>2021-04-06T07:51:22Z</time>
      </trkpt>
      <trkpt lat="43.097623" lon="-2.278824">
        <ele>672.518</ele>
        <time>2021-04-06T07:51:23Z</time>
      </trkpt>
      <trkpt lat="43.097653" lon="-2.278824">
        <ele>672.185</ele>
        <time>2021-04-06T07:51:24Z</time>
      </trkpt>
      <trkpt lat="43.097713" lon="-2.278823">
        <ele>671.489</ele>
        <time>2021-04-06T07:51:25Z</time>
      </trkpt>
      <trkpt lat="43.097745" lon="-2.278824">
        <ele>671.017</ele>
        <time>2021-04-06T07:51:27Z</time>
      </trkpt>
      <trkpt lat="43.097775" lon="-2.278826">
        <ele>670.608</ele>
        <time>2021-04-06T07:51:28Z</time>
      </trkpt>
      <trkpt lat="43.097805" lon="-2.278829">
        <ele>670.425</ele>
        <time>2021-04-06T07:51:29Z</time>
      </trkpt>
      <trkpt lat="43.097836" lon="-2.278832">
        <ele>670.318</ele>
        <time>2021-04-06T07:51:30Z</time>
      </trkpt>
      <trkpt lat="43.097865" lon="-2.278834">
        <ele>670.129</ele>
        <time>2021-04-06T07:51:31Z</time>
      </trkpt>
      <trkpt lat="43.097894" lon="-2.278832">
        <ele>670.134</ele>
        <time>2021-04-06T07:51:32Z</time>
      </trkpt>
      <trkpt lat="43.097921" lon="-2.278832">
        <ele>670.089</ele>
        <time>2021-04-06T07:51:33Z</time>
      </trkpt>
      <trkpt lat="43.097950" lon="-2.278828">
        <ele>670.087</ele>
        <time>2021-04-06T07:51:34Z</time>
      </trkpt>
      <trkpt lat="43.097977" lon="-2.278824">
        <ele>670.174</ele>
        <time>2021-04-06T07:51:35Z</time>
      </trkpt>
      <trkpt lat="43.098003" lon="-2.278819">
        <ele>670.282</ele>
        <time>2021-04-06T07:51:36Z</time>
      </trkpt>
      <trkpt lat="43.098028" lon="-2.278812">
        <ele>670.352</ele>
        <time>2021-04-06T07:51:37Z</time>
      </trkpt>
      <trkpt lat="43.098052" lon="-2.278810">
        <ele>670.353</ele>
        <time>2021-04-06T07:51:38Z</time>
      </trkpt>
      <trkpt lat="43.098077" lon="-2.278809">
        <ele>670.108</ele>
        <time>2021-04-06T07:51:39Z</time>
      </trkpt>
      <trkpt lat="43.098101" lon="-2.278804">
        <ele>670.108</ele>
        <time>2021-04-06T07:51:40Z</time>
      </trkpt>
      <trkpt lat="43.098124" lon="-2.278795">
        <ele>670.272</ele>
        <time>2021-04-06T07:51:41Z</time>
      </trkpt>
      <trkpt lat="43.098151" lon="-2.278789">
        <ele>670.225</ele>
        <time>2021-04-06T07:51:42Z</time>
      </trkpt>
      <trkpt lat="43.098200" lon="-2.278773">
        <ele>670.376</ele>
        <time>2021-04-06T07:51:43Z</time>
      </trkpt>
      <trkpt lat="43.098224" lon="-2.278764">
        <ele>670.481</ele>
        <time>2021-04-06T07:51:45Z</time>
      </trkpt>
      <trkpt lat="43.098248" lon="-2.278753">
        <ele>670.576</ele>
        <time>2021-04-06T07:51:46Z</time>
      </trkpt>
      <trkpt lat="43.098291" lon="-2.278720">
        <ele>671.264</ele>
        <time>2021-04-06T07:51:47Z</time>
      </trkpt>
      <trkpt lat="43.098311" lon="-2.278701">
        <ele>671.651</ele>
        <time>2021-04-06T07:51:48Z</time>
      </trkpt>
      <trkpt lat="43.098333" lon="-2.278688">
        <ele>671.899</ele>
        <time>2021-04-06T07:51:50Z</time>
      </trkpt>
      <trkpt lat="43.098380" lon="-2.278654">
        <ele>672.292</ele>
        <time>2021-04-06T07:51:51Z</time>
      </trkpt>
      <trkpt lat="43.098422" lon="-2.278616">
        <ele>672.973</ele>
        <time>2021-04-06T07:51:53Z</time>
      </trkpt>
      <trkpt lat="43.098440" lon="-2.278598">
        <ele>673.120</ele>
        <time>2021-04-06T07:51:55Z</time>
      </trkpt>
      <trkpt lat="43.098455" lon="-2.278583">
        <ele>673.208</ele>
        <time>2021-04-06T07:51:56Z</time>
      </trkpt>
      <trkpt lat="43.098483" lon="-2.278554">
        <ele>673.526</ele>
        <time>2021-04-06T07:51:57Z</time>
      </trkpt>
      <trkpt lat="43.098499" lon="-2.278540">
        <ele>673.649</ele>
        <time>2021-04-06T07:51:59Z</time>
      </trkpt>
      <trkpt lat="43.098527" lon="-2.278514">
        <ele>673.870</ele>
        <time>2021-04-06T07:52:00Z</time>
      </trkpt>
      <trkpt lat="43.098550" lon="-2.278492">
        <ele>673.935</ele>
        <time>2021-04-06T07:52:02Z</time>
      </trkpt>
      <trkpt lat="43.098575" lon="-2.278468">
        <ele>674.090</ele>
        <time>2021-04-06T07:52:05Z</time>
      </trkpt>
      <trkpt lat="43.098600" lon="-2.278446">
        <ele>674.188</ele>
        <time>2021-04-06T07:52:07Z</time>
      </trkpt>
      <trkpt lat="43.098624" lon="-2.278433">
        <ele>674.415</ele>
        <time>2021-04-06T07:52:09Z</time>
      </trkpt>
      <trkpt lat="43.098651" lon="-2.278430">
        <ele>674.783</ele>
        <time>2021-04-06T07:52:11Z</time>
      </trkpt>
      <trkpt lat="43.098678" lon="-2.278426">
        <ele>675.129</ele>
        <time>2021-04-06T07:52:13Z</time>
      </trkpt>
      <trkpt lat="43.098706" lon="-2.278424">
        <ele>675.500</ele>
        <time>2021-04-06T07:52:15Z</time>
      </trkpt>
      <trkpt lat="43.098732" lon="-2.278417">
        <ele>675.920</ele>
        <time>2021-04-06T07:52:17Z</time>
      </trkpt>
      <trkpt lat="43.098755" lon="-2.278404">
        <ele>676.408</ele>
        <time>2021-04-06T07:52:19Z</time>
      </trkpt>
      <trkpt lat="43.098780" lon="-2.278392">
        <ele>676.999</ele>
        <time>2021-04-06T07:52:21Z</time>
      </trkpt>
      <trkpt lat="43.098803" lon="-2.278380">
        <ele>677.342</ele>
        <time>2021-04-06T07:52:23Z</time>
      </trkpt>
      <trkpt lat="43.098827" lon="-2.278361">
        <ele>677.973</ele>
        <time>2021-04-06T07:52:25Z</time>
      </trkpt>
      <trkpt lat="43.098851" lon="-2.278344">
        <ele>678.448</ele>
        <time>2021-04-06T07:52:27Z</time>
      </trkpt>
      <trkpt lat="43.098872" lon="-2.278332">
        <ele>678.863</ele>
        <time>2021-04-06T07:52:29Z</time>
      </trkpt>
      <trkpt lat="43.098894" lon="-2.278319">
        <ele>679.261</ele>
        <time>2021-04-06T07:52:31Z</time>
      </trkpt>
      <trkpt lat="43.098919" lon="-2.278309">
        <ele>679.768</ele>
        <time>2021-04-06T07:52:33Z</time>
      </trkpt>
      <trkpt lat="43.098943" lon="-2.278301">
        <ele>680.386</ele>
        <time>2021-04-06T07:52:35Z</time>
      </trkpt>
      <trkpt lat="43.098965" lon="-2.278293">
        <ele>680.762</ele>
        <time>2021-04-06T07:52:36Z</time>
      </trkpt>
      <trkpt lat="43.098991" lon="-2.278285">
        <ele>681.383</ele>
        <time>2021-04-06T07:52:38Z</time>
      </trkpt>
      <trkpt lat="43.099017" lon="-2.278278">
        <ele>681.911</ele>
        <time>2021-04-06T07:52:40Z</time>
      </trkpt>
      <trkpt lat="43.099040" lon="-2.278274">
        <ele>682.408</ele>
        <time>2021-04-06T07:52:43Z</time>
      </trkpt>
      <trkpt lat="43.099065" lon="-2.278272">
        <ele>682.933</ele>
        <time>2021-04-06T07:52:45Z</time>
      </trkpt>
      <trkpt lat="43.099088" lon="-2.278276">
        <ele>683.496</ele>
        <time>2021-04-06T07:52:47Z</time>
      </trkpt>
      <trkpt lat="43.099110" lon="-2.278284">
        <ele>683.857</ele>
        <time>2021-04-06T07:52:49Z</time>
      </trkpt>
      <trkpt lat="43.099135" lon="-2.278288">
        <ele>684.332</ele>
        <time>2021-04-06T07:52:51Z</time>
      </trkpt>
      <trkpt lat="43.099159" lon="-2.278290">
        <ele>684.887</ele>
        <time>2021-04-06T07:52:53Z</time>
      </trkpt>
      <trkpt lat="43.099181" lon="-2.278293">
        <ele>685.545</ele>
        <time>2021-04-06T07:52:55Z</time>
      </trkpt>
      <trkpt lat="43.099204" lon="-2.278304">
        <ele>686.282</ele>
        <time>2021-04-06T07:52:57Z</time>
      </trkpt>
      <trkpt lat="43.099220" lon="-2.278320">
        <ele>686.780</ele>
        <time>2021-04-06T07:52:59Z</time>
      </trkpt>
      <trkpt lat="43.099238" lon="-2.278344">
        <ele>687.318</ele>
        <time>2021-04-06T07:53:01Z</time>
      </trkpt>
      <trkpt lat="43.099258" lon="-2.278369">
        <ele>687.898</ele>
        <time>2021-04-06T07:53:03Z</time>
      </trkpt>
      <trkpt lat="43.099274" lon="-2.278391">
        <ele>688.217</ele>
        <time>2021-04-06T07:53:05Z</time>
      </trkpt>
      <trkpt lat="43.099289" lon="-2.278414">
        <ele>688.608</ele>
        <time>2021-04-06T07:53:07Z</time>
      </trkpt>
      <trkpt lat="43.099306" lon="-2.278435">
        <ele>689.138</ele>
        <time>2021-04-06T07:53:09Z</time>
      </trkpt>
      <trkpt lat="43.099326" lon="-2.278455">
        <ele>689.831</ele>
        <time>2021-04-06T07:53:10Z</time>
      </trkpt>
      <trkpt lat="43.099344" lon="-2.278474">
        <ele>690.432</ele>
        <time>2021-04-06T07:53:12Z</time>
      </trkpt>
      <trkpt lat="43.099362" lon="-2.278493">
        <ele>691.077</ele>
        <time>2021-04-06T07:53:15Z</time>
      </trkpt>
      <trkpt lat="43.099379" lon="-2.278516">
        <ele>691.692</ele>
        <time>2021-04-06T07:53:16Z</time>
      </trkpt>
      <trkpt lat="43.099399" lon="-2.278531">
        <ele>692.340</ele>
        <time>2021-04-06T07:53:19Z</time>
      </trkpt>
      <trkpt lat="43.099416" lon="-2.278554">
        <ele>692.917</ele>
        <time>2021-04-06T07:53:21Z</time>
      </trkpt>
      <trkpt lat="43.099429" lon="-2.278575">
        <ele>693.445</ele>
        <time>2021-04-06T07:53:23Z</time>
      </trkpt>
      <trkpt lat="43.099447" lon="-2.278591">
        <ele>694.189</ele>
        <time>2021-04-06T07:53:25Z</time>
      </trkpt>
      <trkpt lat="43.099463" lon="-2.278601">
        <ele>694.706</ele>
        <time>2021-04-06T07:53:27Z</time>
      </trkpt>
      <trkpt lat="43.099482" lon="-2.278609">
        <ele>695.526</ele>
        <time>2021-04-06T07:53:29Z</time>
      </trkpt>
      <trkpt lat="43.099505" lon="-2.278616">
        <ele>696.308</ele>
        <time>2021-04-06T07:53:30Z</time>
      </trkpt>
      <trkpt lat="43.099522" lon="-2.278627">
        <ele>696.845</ele>
        <time>2021-04-06T07:53:32Z</time>
      </trkpt>
      <trkpt lat="43.099539" lon="-2.278642">
        <ele>697.328</ele>
        <time>2021-04-06T07:53:34Z</time>
      </trkpt>
      <trkpt lat="43.099557" lon="-2.278655">
        <ele>697.859</ele>
        <time>2021-04-06T07:53:37Z</time>
      </trkpt>
      <trkpt lat="43.099572" lon="-2.278670">
        <ele>698.254</ele>
        <time>2021-04-06T07:53:39Z</time>
      </trkpt>
      <trkpt lat="43.099589" lon="-2.278685">
        <ele>698.719</ele>
        <time>2021-04-06T07:53:41Z</time>
      </trkpt>
      <trkpt lat="43.099606" lon="-2.278700">
        <ele>699.127</ele>
        <time>2021-04-06T07:53:43Z</time>
      </trkpt>
      <trkpt lat="43.099625" lon="-2.278718">
        <ele>699.694</ele>
        <time>2021-04-06T07:53:45Z</time>
      </trkpt>
      <trkpt lat="43.099646" lon="-2.278737">
        <ele>700.232</ele>
        <time>2021-04-06T07:53:47Z</time>
      </trkpt>
      <trkpt lat="43.099667" lon="-2.278749">
        <ele>700.894</ele>
        <time>2021-04-06T07:53:49Z</time>
      </trkpt>
      <trkpt lat="43.099691" lon="-2.278762">
        <ele>701.657</ele>
        <time>2021-04-06T07:53:50Z</time>
      </trkpt>
      <trkpt lat="43.099710" lon="-2.278773">
        <ele>702.222</ele>
        <time>2021-04-06T07:53:53Z</time>
      </trkpt>
      <trkpt lat="43.099730" lon="-2.278783">
        <ele>702.808</ele>
        <time>2021-04-06T07:53:54Z</time>
      </trkpt>
      <trkpt lat="43.099745" lon="-2.278794">
        <ele>703.256</ele>
        <time>2021-04-06T07:53:56Z</time>
      </trkpt>
      <trkpt lat="43.099763" lon="-2.278805">
        <ele>703.879</ele>
        <time>2021-04-06T07:53:59Z</time>
      </trkpt>
      <trkpt lat="43.099784" lon="-2.278814">
        <ele>704.490</ele>
        <time>2021-04-06T07:54:00Z</time>
      </trkpt>
      <trkpt lat="43.099803" lon="-2.278823">
        <ele>705.065</ele>
        <time>2021-04-06T07:54:03Z</time>
      </trkpt>
      <trkpt lat="43.099830" lon="-2.278835">
        <ele>705.810</ele>
        <time>2021-04-06T07:54:05Z</time>
      </trkpt>
      <trkpt lat="43.099850" lon="-2.278839">
        <ele>706.578</ele>
        <time>2021-04-06T07:54:07Z</time>
      </trkpt>
      <trkpt lat="43.099866" lon="-2.278842">
        <ele>707.015</ele>
        <time>2021-04-06T07:54:10Z</time>
      </trkpt>
      <trkpt lat="43.099891" lon="-2.278848">
        <ele>707.843</ele>
        <time>2021-04-06T07:54:13Z</time>
      </trkpt>
      <trkpt lat="43.099915" lon="-2.278847">
        <ele>708.863</ele>
        <time>2021-04-06T07:54:15Z</time>
      </trkpt>
      <trkpt lat="43.099928" lon="-2.278848">
        <ele>709.244</ele>
        <time>2021-04-06T07:54:18Z</time>
      </trkpt>
      <trkpt lat="43.099949" lon="-2.278851">
        <ele>709.918</ele>
        <time>2021-04-06T07:54:21Z</time>
      </trkpt>
      <trkpt lat="43.099969" lon="-2.278852">
        <ele>710.708</ele>
        <time>2021-04-06T07:54:24Z</time>
      </trkpt>
      <trkpt lat="43.099988" lon="-2.278843">
        <ele>711.513</ele>
        <time>2021-04-06T07:54:26Z</time>
      </trkpt>
      <trkpt lat="43.100005" lon="-2.278827">
        <ele>712.566</ele>
        <time>2021-04-06T07:54:30Z</time>
      </trkpt>
      <trkpt lat="43.100024" lon="-2.278806">
        <ele>713.737</ele>
        <time>2021-04-06T07:54:34Z</time>
      </trkpt>
      <trkpt lat="43.100042" lon="-2.278794">
        <ele>714.682</ele>
        <time>2021-04-06T07:54:37Z</time>
      </trkpt>
      <trkpt lat="43.100058" lon="-2.278786">
        <ele>715.437</ele>
        <time>2021-04-06T07:54:40Z</time>
      </trkpt>
      <trkpt lat="43.100075" lon="-2.278775">
        <ele>716.375</ele>
        <time>2021-04-06T07:54:43Z</time>
      </trkpt>
      <trkpt lat="43.100093" lon="-2.278765">
        <ele>717.292</ele>
        <time>2021-04-06T07:54:46Z</time>
      </trkpt>
      <trkpt lat="43.100115" lon="-2.278754">
        <ele>718.310</ele>
        <time>2021-04-06T07:54:49Z</time>
      </trkpt>
      <trkpt lat="43.100133" lon="-2.278753">
        <ele>719.048</ele>
        <time>2021-04-06T07:54:51Z</time>
      </trkpt>
      <trkpt lat="43.100152" lon="-2.278755">
        <ele>719.661</ele>
        <time>2021-04-06T07:54:53Z</time>
      </trkpt>
      <trkpt lat="43.100181" lon="-2.278770">
        <ele>720.417</ele>
        <time>2021-04-06T07:54:55Z</time>
      </trkpt>
      <trkpt lat="43.100202" lon="-2.278779">
        <ele>720.908</ele>
        <time>2021-04-06T07:54:58Z</time>
      </trkpt>
      <trkpt lat="43.100221" lon="-2.278785">
        <ele>721.571</ele>
        <time>2021-04-06T07:55:00Z</time>
      </trkpt>
      <trkpt lat="43.100243" lon="-2.278787">
        <ele>722.384</ele>
        <time>2021-04-06T07:55:02Z</time>
      </trkpt>
      <trkpt lat="43.100267" lon="-2.278787">
        <ele>723.255</ele>
        <time>2021-04-06T07:55:04Z</time>
      </trkpt>
      <trkpt lat="43.100287" lon="-2.278788">
        <ele>723.830</ele>
        <time>2021-04-06T07:55:05Z</time>
      </trkpt>
      <trkpt lat="43.100310" lon="-2.278789">
        <ele>724.585</ele>
        <time>2021-04-06T07:55:07Z</time>
      </trkpt>
      <trkpt lat="43.100328" lon="-2.278796">
        <ele>724.843</ele>
        <time>2021-04-06T07:55:10Z</time>
      </trkpt>
      <trkpt lat="43.100350" lon="-2.278812">
        <ele>725.230</ele>
        <time>2021-04-06T07:55:12Z</time>
      </trkpt>
      <trkpt lat="43.100366" lon="-2.278833">
        <ele>725.368</ele>
        <time>2021-04-06T07:55:15Z</time>
      </trkpt>
      <trkpt lat="43.100377" lon="-2.278855">
        <ele>725.219</ele>
        <time>2021-04-06T07:55:17Z</time>
      </trkpt>
      <trkpt lat="43.100393" lon="-2.278880">
        <ele>725.309</ele>
        <time>2021-04-06T07:55:19Z</time>
      </trkpt>
      <trkpt lat="43.100409" lon="-2.278903">
        <ele>725.519</ele>
        <time>2021-04-06T07:55:20Z</time>
      </trkpt>
      <trkpt lat="43.100426" lon="-2.278919">
        <ele>725.908</ele>
        <time>2021-04-06T07:55:22Z</time>
      </trkpt>
      <trkpt lat="43.100445" lon="-2.278939">
        <ele>726.328</ele>
        <time>2021-04-06T07:55:24Z</time>
      </trkpt>
      <trkpt lat="43.100456" lon="-2.278950">
        <ele>726.521</ele>
        <time>2021-04-06T07:55:26Z</time>
      </trkpt>
      <trkpt lat="43.100475" lon="-2.278967">
        <ele>727.062</ele>
        <time>2021-04-06T07:55:28Z</time>
      </trkpt>
      <trkpt lat="43.100489" lon="-2.278988">
        <ele>727.357</ele>
        <time>2021-04-06T07:55:29Z</time>
      </trkpt>
      <trkpt lat="43.100511" lon="-2.279015">
        <ele>727.872</ele>
        <time>2021-04-06T07:55:32Z</time>
      </trkpt>
      <trkpt lat="43.100534" lon="-2.279036">
        <ele>728.560</ele>
        <time>2021-04-06T07:55:34Z</time>
      </trkpt>
      <trkpt lat="43.100555" lon="-2.279057">
        <ele>729.267</ele>
        <time>2021-04-06T07:55:36Z</time>
      </trkpt>
      <trkpt lat="43.100575" lon="-2.279082">
        <ele>729.235</ele>
        <time>2021-04-06T07:55:37Z</time>
      </trkpt>
      <trkpt lat="43.100594" lon="-2.279109">
        <ele>729.332</ele>
        <time>2021-04-06T07:55:39Z</time>
      </trkpt>
      <trkpt lat="43.100612" lon="-2.279140">
        <ele>729.492</ele>
        <time>2021-04-06T07:55:41Z</time>
      </trkpt>
      <trkpt lat="43.100635" lon="-2.279166">
        <ele>729.711</ele>
        <time>2021-04-06T07:55:43Z</time>
      </trkpt>
      <trkpt lat="43.100660" lon="-2.279187">
        <ele>729.908</ele>
        <time>2021-04-06T07:55:45Z</time>
      </trkpt>
      <trkpt lat="43.100685" lon="-2.279211">
        <ele>730.010</ele>
        <time>2021-04-06T07:55:48Z</time>
      </trkpt>
      <trkpt lat="43.100706" lon="-2.279233">
        <ele>730.193</ele>
        <time>2021-04-06T07:55:49Z</time>
      </trkpt>
      <trkpt lat="43.100728" lon="-2.279257">
        <ele>730.194</ele>
        <time>2021-04-06T07:55:51Z</time>
      </trkpt>
      <trkpt lat="43.100751" lon="-2.279278">
        <ele>730.229</ele>
        <time>2021-04-06T07:55:54Z</time>
      </trkpt>
      <trkpt lat="43.100776" lon="-2.279300">
        <ele>730.464</ele>
        <time>2021-04-06T07:55:56Z</time>
      </trkpt>
      <trkpt lat="43.100801" lon="-2.279322">
        <ele>730.512</ele>
        <time>2021-04-06T07:55:58Z</time>
      </trkpt>
      <trkpt lat="43.100829" lon="-2.279339">
        <ele>730.839</ele>
        <time>2021-04-06T07:55:59Z</time>
      </trkpt>
      <trkpt lat="43.100858" lon="-2.279353">
        <ele>730.897</ele>
        <time>2021-04-06T07:56:02Z</time>
      </trkpt>
      <trkpt lat="43.100888" lon="-2.279361">
        <ele>730.948</ele>
        <time>2021-04-06T07:56:03Z</time>
      </trkpt>
      <trkpt lat="43.100914" lon="-2.279371">
        <ele>731.061</ele>
        <time>2021-04-06T07:56:05Z</time>
      </trkpt>
      <trkpt lat="43.100941" lon="-2.279379">
        <ele>731.217</ele>
        <time>2021-04-06T07:56:08Z</time>
      </trkpt>
      <trkpt lat="43.100971" lon="-2.279380">
        <ele>731.508</ele>
        <time>2021-04-06T07:56:10Z</time>
      </trkpt>
      <trkpt lat="43.100998" lon="-2.279382">
        <ele>731.771</ele>
        <time>2021-04-06T07:56:12Z</time>
      </trkpt>
      <trkpt lat="43.101026" lon="-2.279390">
        <ele>731.974</ele>
        <time>2021-04-06T07:56:14Z</time>
      </trkpt>
      <trkpt lat="43.101051" lon="-2.279389">
        <ele>732.275</ele>
        <time>2021-04-06T07:56:16Z</time>
      </trkpt>
      <trkpt lat="43.101077" lon="-2.279386">
        <ele>732.550</ele>
        <time>2021-04-06T07:56:17Z</time>
      </trkpt>
      <trkpt lat="43.101104" lon="-2.279386">
        <ele>732.715</ele>
        <time>2021-04-06T07:56:20Z</time>
      </trkpt>
      <trkpt lat="43.101131" lon="-2.279389">
        <ele>733.133</ele>
        <time>2021-04-06T07:56:22Z</time>
      </trkpt>
      <trkpt lat="43.101158" lon="-2.279395">
        <ele>733.540</ele>
        <time>2021-04-06T07:56:24Z</time>
      </trkpt>
      <trkpt lat="43.101185" lon="-2.279398">
        <ele>733.928</ele>
        <time>2021-04-06T07:56:26Z</time>
      </trkpt>
      <trkpt lat="43.101213" lon="-2.279397">
        <ele>734.487</ele>
        <time>2021-04-06T07:56:28Z</time>
      </trkpt>
      <trkpt lat="43.101241" lon="-2.279401">
        <ele>734.842</ele>
        <time>2021-04-06T07:56:29Z</time>
      </trkpt>
      <trkpt lat="43.101267" lon="-2.279410">
        <ele>735.326</ele>
        <time>2021-04-06T07:56:32Z</time>
      </trkpt>
      <trkpt lat="43.101293" lon="-2.279420">
        <ele>735.908</ele>
        <time>2021-04-06T07:56:34Z</time>
      </trkpt>
      <trkpt lat="43.101321" lon="-2.279427">
        <ele>736.565</ele>
        <time>2021-04-06T07:56:36Z</time>
      </trkpt>
      <trkpt lat="43.101346" lon="-2.279431">
        <ele>737.038</ele>
        <time>2021-04-06T07:56:37Z</time>
      </trkpt>
      <trkpt lat="43.101371" lon="-2.279431">
        <ele>737.459</ele>
        <time>2021-04-06T07:56:39Z</time>
      </trkpt>
      <trkpt lat="43.101398" lon="-2.279431">
        <ele>737.884</ele>
        <time>2021-04-06T07:56:42Z</time>
      </trkpt>
      <trkpt lat="43.101423" lon="-2.279433">
        <ele>738.279</ele>
        <time>2021-04-06T07:56:43Z</time>
      </trkpt>
      <trkpt lat="43.101447" lon="-2.279438">
        <ele>738.747</ele>
        <time>2021-04-06T07:56:46Z</time>
      </trkpt>
      <trkpt lat="43.101472" lon="-2.279445">
        <ele>739.214</ele>
        <time>2021-04-06T07:56:47Z</time>
      </trkpt>
      <trkpt lat="43.101495" lon="-2.279459">
        <ele>739.432</ele>
        <time>2021-04-06T07:56:50Z</time>
      </trkpt>
      <trkpt lat="43.101518" lon="-2.279470">
        <ele>739.679</ele>
        <time>2021-04-06T07:56:52Z</time>
      </trkpt>
      <trkpt lat="43.101545" lon="-2.279480">
        <ele>739.905</ele>
        <time>2021-04-06T07:56:54Z</time>
      </trkpt>
      <trkpt lat="43.101569" lon="-2.279491">
        <ele>740.125</ele>
        <time>2021-04-06T07:56:56Z</time>
      </trkpt>
      <trkpt lat="43.101593" lon="-2.279504">
        <ele>740.408</ele>
        <time>2021-04-06T07:56:58Z</time>
      </trkpt>
      <trkpt lat="43.101618" lon="-2.279524">
        <ele>740.664</ele>
        <time>2021-04-06T07:56:59Z</time>
      </trkpt>
      <trkpt lat="43.101636" lon="-2.279543">
        <ele>740.837</ele>
        <time>2021-04-06T07:57:03Z</time>
      </trkpt>
      <trkpt lat="43.101663" lon="-2.279544">
        <ele>741.288</ele>
        <time>2021-04-06T07:57:06Z</time>
      </trkpt>
      <trkpt lat="43.101690" lon="-2.279551">
        <ele>741.343</ele>
        <time>2021-04-06T07:57:08Z</time>
      </trkpt>
      <trkpt lat="43.101718" lon="-2.279566">
        <ele>741.338</ele>
        <time>2021-04-06T07:57:09Z</time>
      </trkpt>
      <trkpt lat="43.101745" lon="-2.279579">
        <ele>741.496</ele>
        <time>2021-04-06T07:57:12Z</time>
      </trkpt>
      <trkpt lat="43.101770" lon="-2.279591">
        <ele>741.653</ele>
        <time>2021-04-06T07:57:14Z</time>
      </trkpt>
      <trkpt lat="43.101795" lon="-2.279601">
        <ele>741.881</ele>
        <time>2021-04-06T07:57:16Z</time>
      </trkpt>
      <trkpt lat="43.101822" lon="-2.279617">
        <ele>742.168</ele>
        <time>2021-04-06T07:57:18Z</time>
      </trkpt>
      <trkpt lat="43.101849" lon="-2.279632">
        <ele>742.442</ele>
        <time>2021-04-06T07:57:20Z</time>
      </trkpt>
      <trkpt lat="43.101874" lon="-2.279650">
        <ele>742.926</ele>
        <time>2021-04-06T07:57:22Z</time>
      </trkpt>
      <trkpt lat="43.101896" lon="-2.279663">
        <ele>743.308</ele>
        <time>2021-04-06T07:57:24Z</time>
      </trkpt>
      <trkpt lat="43.101923" lon="-2.279676">
        <ele>743.913</ele>
        <time>2021-04-06T07:57:25Z</time>
      </trkpt>
      <trkpt lat="43.101949" lon="-2.279689">
        <ele>744.516</ele>
        <time>2021-04-06T07:57:28Z</time>
      </trkpt>
      <trkpt lat="43.101975" lon="-2.279709">
        <ele>745.347</ele>
        <time>2021-04-06T07:57:29Z</time>
      </trkpt>
      <trkpt lat="43.101998" lon="-2.279731">
        <ele>745.962</ele>
        <time>2021-04-06T07:57:32Z</time>
      </trkpt>
      <trkpt lat="43.102024" lon="-2.279749">
        <ele>746.347</ele>
        <time>2021-04-06T07:57:34Z</time>
      </trkpt>
      <trkpt lat="43.102050" lon="-2.279765">
        <ele>746.835</ele>
        <time>2021-04-06T07:57:36Z</time>
      </trkpt>
      <trkpt lat="43.102075" lon="-2.279774">
        <ele>747.272</ele>
        <time>2021-04-06T07:57:37Z</time>
      </trkpt>
      <trkpt lat="43.102098" lon="-2.279784">
        <ele>747.780</ele>
        <time>2021-04-06T07:57:40Z</time>
      </trkpt>
      <trkpt lat="43.102124" lon="-2.279794">
        <ele>748.256</ele>
        <time>2021-04-06T07:57:41Z</time>
      </trkpt>
      <trkpt lat="43.102148" lon="-2.279802">
        <ele>748.759</ele>
        <time>2021-04-06T07:57:44Z</time>
      </trkpt>
      <trkpt lat="43.102171" lon="-2.279807">
        <ele>749.214</ele>
        <time>2021-04-06T07:57:46Z</time>
      </trkpt>
      <trkpt lat="43.102195" lon="-2.279808">
        <ele>749.708</ele>
        <time>2021-04-06T07:57:48Z</time>
      </trkpt>
      <trkpt lat="43.102205" lon="-2.279808">
        <ele>749.922</ele>
        <time>2021-04-06T07:57:49Z</time>
      </trkpt>
      <trkpt lat="43.102226" lon="-2.279809">
        <ele>750.445</ele>
        <time>2021-04-06T07:57:51Z</time>
      </trkpt>
      <trkpt lat="43.102245" lon="-2.279816">
        <ele>750.916</ele>
        <time>2021-04-06T07:57:53Z</time>
      </trkpt>
      <trkpt lat="43.102264" lon="-2.279815">
        <ele>751.471</ele>
        <time>2021-04-06T07:57:55Z</time>
      </trkpt>
      <trkpt lat="43.102284" lon="-2.279817">
        <ele>752.066</ele>
        <time>2021-04-06T07:57:57Z</time>
      </trkpt>
      <trkpt lat="43.102304" lon="-2.279820">
        <ele>752.554</ele>
        <time>2021-04-06T07:57:58Z</time>
      </trkpt>
      <trkpt lat="43.102325" lon="-2.279826">
        <ele>753.171</ele>
        <time>2021-04-06T07:58:01Z</time>
      </trkpt>
      <trkpt lat="43.102343" lon="-2.279836">
        <ele>753.729</ele>
        <time>2021-04-06T07:58:03Z</time>
      </trkpt>
      <trkpt lat="43.102362" lon="-2.279850">
        <ele>754.423</ele>
        <time>2021-04-06T07:58:05Z</time>
      </trkpt>
      <trkpt lat="43.102379" lon="-2.279858">
        <ele>755.083</ele>
        <time>2021-04-06T07:58:07Z</time>
      </trkpt>
      <trkpt lat="43.102399" lon="-2.279866">
        <ele>755.711</ele>
        <time>2021-04-06T07:58:09Z</time>
      </trkpt>
      <trkpt lat="43.102416" lon="-2.279880">
        <ele>756.308</ele>
        <time>2021-04-06T07:58:11Z</time>
      </trkpt>
      <trkpt lat="43.102432" lon="-2.279888">
        <ele>756.969</ele>
        <time>2021-04-06T07:58:13Z</time>
      </trkpt>
      <trkpt lat="43.102455" lon="-2.279900">
        <ele>757.852</ele>
        <time>2021-04-06T07:58:15Z</time>
      </trkpt>
      <trkpt lat="43.102478" lon="-2.279910">
        <ele>758.733</ele>
        <time>2021-04-06T07:58:18Z</time>
      </trkpt>
      <trkpt lat="43.102496" lon="-2.279919">
        <ele>759.458</ele>
        <time>2021-04-06T07:58:21Z</time>
      </trkpt>
      <trkpt lat="43.102516" lon="-2.279924">
        <ele>760.273</ele>
        <time>2021-04-06T07:58:24Z</time>
      </trkpt>
      <trkpt lat="43.102534" lon="-2.279931">
        <ele>761.151</ele>
        <time>2021-04-06T07:58:28Z</time>
      </trkpt>
      <trkpt lat="43.102545" lon="-2.279934">
        <ele>761.698</ele>
        <time>2021-04-06T07:58:30Z</time>
      </trkpt>
      <trkpt lat="43.102567" lon="-2.279938">
        <ele>762.586</ele>
        <time>2021-04-06T07:58:32Z</time>
      </trkpt>
      <trkpt lat="43.102580" lon="-2.279942">
        <ele>763.179</ele>
        <time>2021-04-06T07:58:35Z</time>
      </trkpt>
      <trkpt lat="43.102599" lon="-2.279944">
        <ele>763.905</ele>
        <time>2021-04-06T07:58:38Z</time>
      </trkpt>
      <trkpt lat="43.102622" lon="-2.279954">
        <ele>765.125</ele>
        <time>2021-04-06T07:58:41Z</time>
      </trkpt>
      <trkpt lat="43.102640" lon="-2.279963">
        <ele>766.008</ele>
        <time>2021-04-06T07:58:45Z</time>
      </trkpt>
      <trkpt lat="43.102658" lon="-2.279973">
        <ele>767.144</ele>
        <time>2021-04-06T07:58:48Z</time>
      </trkpt>
      <trkpt lat="43.102676" lon="-2.279986">
        <ele>768.227</ele>
        <time>2021-04-06T07:58:51Z</time>
      </trkpt>
      <trkpt lat="43.102696" lon="-2.279992">
        <ele>769.238</ele>
        <time>2021-04-06T07:58:54Z</time>
      </trkpt>
      <trkpt lat="43.102709" lon="-2.279997">
        <ele>769.993</ele>
        <time>2021-04-06T07:58:56Z</time>
      </trkpt>
      <trkpt lat="43.102726" lon="-2.280008">
        <ele>770.878</ele>
        <time>2021-04-06T07:58:59Z</time>
      </trkpt>
      <trkpt lat="43.102746" lon="-2.280020">
        <ele>771.746</ele>
        <time>2021-04-06T07:59:02Z</time>
      </trkpt>
      <trkpt lat="43.102766" lon="-2.280027">
        <ele>772.683</ele>
        <time>2021-04-06T07:59:05Z</time>
      </trkpt>
      <trkpt lat="43.102787" lon="-2.280032">
        <ele>773.531</ele>
        <time>2021-04-06T07:59:07Z</time>
      </trkpt>
      <trkpt lat="43.102800" lon="-2.280039">
        <ele>774.033</ele>
        <time>2021-04-06T07:59:10Z</time>
      </trkpt>
      <trkpt lat="43.102820" lon="-2.280042">
        <ele>774.923</ele>
        <time>2021-04-06T07:59:13Z</time>
      </trkpt>
      <trkpt lat="43.102839" lon="-2.280047">
        <ele>775.715</ele>
        <time>2021-04-06T07:59:16Z</time>
      </trkpt>
      <trkpt lat="43.102855" lon="-2.280054">
        <ele>776.408</ele>
        <time>2021-04-06T07:59:19Z</time>
      </trkpt>
      <trkpt lat="43.102876" lon="-2.280065">
        <ele>777.390</ele>
        <time>2021-04-06T07:59:23Z</time>
      </trkpt>
      <trkpt lat="43.102892" lon="-2.280069">
        <ele>778.063</ele>
        <time>2021-04-06T07:59:26Z</time>
      </trkpt>
      <trkpt lat="43.102909" lon="-2.280083">
        <ele>778.824</ele>
        <time>2021-04-06T07:59:30Z</time>
      </trkpt>
      <trkpt lat="43.102928" lon="-2.280087">
        <ele>779.639</ele>
        <time>2021-04-06T07:59:32Z</time>
      </trkpt>
      <trkpt lat="43.102945" lon="-2.280095">
        <ele>780.494</ele>
        <time>2021-04-06T07:59:35Z</time>
      </trkpt>
      <trkpt lat="43.102964" lon="-2.280108">
        <ele>781.392</ele>
        <time>2021-04-06T07:59:38Z</time>
      </trkpt>
      <trkpt lat="43.102981" lon="-2.280112">
        <ele>782.029</ele>
        <time>2021-04-06T07:59:42Z</time>
      </trkpt>
      <trkpt lat="43.102999" lon="-2.280117">
        <ele>782.967</ele>
        <time>2021-04-06T07:59:45Z</time>
      </trkpt>
      <trkpt lat="43.103018" lon="-2.280116">
        <ele>783.767</ele>
        <time>2021-04-06T07:59:47Z</time>
      </trkpt>
      <trkpt lat="43.103036" lon="-2.280116">
        <ele>784.481</ele>
        <time>2021-04-06T07:59:51Z</time>
      </trkpt>
      <trkpt lat="43.103056" lon="-2.280122">
        <ele>785.319</ele>
        <time>2021-04-06T07:59:54Z</time>
      </trkpt>
      <trkpt lat="43.103072" lon="-2.280122">
        <ele>786.008</ele>
        <time>2021-04-06T07:59:56Z</time>
      </trkpt>
      <trkpt lat="43.103091" lon="-2.280120">
        <ele>786.833</ele>
        <time>2021-04-06T07:59:59Z</time>
      </trkpt>
      <trkpt lat="43.103113" lon="-2.280119">
        <ele>787.726</ele>
        <time>2021-04-06T08:00:01Z</time>
      </trkpt>
      <trkpt lat="43.103134" lon="-2.280117">
        <ele>788.637</ele>
        <time>2021-04-06T08:00:05Z</time>
      </trkpt>
      <trkpt lat="43.103154" lon="-2.280125">
        <ele>789.592</ele>
        <time>2021-04-06T08:00:08Z</time>
      </trkpt>
      <trkpt lat="43.103174" lon="-2.280123">
        <ele>790.377</ele>
        <time>2021-04-06T08:00:11Z</time>
      </trkpt>
      <trkpt lat="43.103197" lon="-2.280118">
        <ele>791.255</ele>
        <time>2021-04-06T08:00:13Z</time>
      </trkpt>
      <trkpt lat="43.103211" lon="-2.280118">
        <ele>791.812</ele>
        <time>2021-04-06T08:00:15Z</time>
      </trkpt>
      <trkpt lat="43.103229" lon="-2.280119">
        <ele>792.660</ele>
        <time>2021-04-06T08:00:18Z</time>
      </trkpt>
      <trkpt lat="43.103250" lon="-2.280119">
        <ele>793.576</ele>
        <time>2021-04-06T08:00:23Z</time>
      </trkpt>
      <trkpt lat="43.103272" lon="-2.280122">
        <ele>794.490</ele>
        <time>2021-04-06T08:00:27Z</time>
      </trkpt>
      <trkpt lat="43.103288" lon="-2.280117">
        <ele>795.119</ele>
        <time>2021-04-06T08:00:30Z</time>
      </trkpt>
      <trkpt lat="43.103309" lon="-2.280106">
        <ele>796.008</ele>
        <time>2021-04-06T08:00:32Z</time>
      </trkpt>
      <trkpt lat="43.103330" lon="-2.280098">
        <ele>796.914</ele>
        <time>2021-04-06T08:00:35Z</time>
      </trkpt>
      <trkpt lat="43.103349" lon="-2.280095">
        <ele>797.737</ele>
        <time>2021-04-06T08:00:38Z</time>
      </trkpt>
      <trkpt lat="43.103370" lon="-2.280087">
        <ele>798.698</ele>
        <time>2021-04-06T08:00:41Z</time>
      </trkpt>
      <trkpt lat="43.103392" lon="-2.280085">
        <ele>799.643</ele>
        <time>2021-04-06T08:00:44Z</time>
      </trkpt>
      <trkpt lat="43.103412" lon="-2.280082">
        <ele>800.488</ele>
        <time>2021-04-06T08:00:47Z</time>
      </trkpt>
      <trkpt lat="43.103432" lon="-2.280077">
        <ele>801.346</ele>
        <time>2021-04-06T08:00:51Z</time>
      </trkpt>
      <trkpt lat="43.103454" lon="-2.280075">
        <ele>802.313</ele>
        <time>2021-04-06T08:00:54Z</time>
      </trkpt>
      <trkpt lat="43.103472" lon="-2.280069">
        <ele>803.161</ele>
        <time>2021-04-06T08:00:56Z</time>
      </trkpt>
      <trkpt lat="43.103486" lon="-2.280064">
        <ele>803.826</ele>
        <time>2021-04-06T08:01:02Z</time>
      </trkpt>
      <trkpt lat="43.103508" lon="-2.280058">
        <ele>804.847</ele>
        <time>2021-04-06T08:01:05Z</time>
      </trkpt>
      <trkpt lat="43.103529" lon="-2.280051">
        <ele>805.811</ele>
        <time>2021-04-06T08:01:08Z</time>
      </trkpt>
      <trkpt lat="43.103549" lon="-2.280050">
        <ele>806.708</ele>
        <time>2021-04-06T08:01:11Z</time>
      </trkpt>
      <trkpt lat="43.103567" lon="-2.280055">
        <ele>807.489</ele>
        <time>2021-04-06T08:01:12Z</time>
      </trkpt>
      <trkpt lat="43.103583" lon="-2.280053">
        <ele>808.222</ele>
        <time>2021-04-06T08:01:15Z</time>
      </trkpt>
      <trkpt lat="43.103604" lon="-2.280039">
        <ele>809.363</ele>
        <time>2021-04-06T08:01:18Z</time>
      </trkpt>
      <trkpt lat="43.103616" lon="-2.280020">
        <ele>809.998</ele>
        <time>2021-04-06T08:01:19Z</time>
      </trkpt>
      <trkpt lat="43.103627" lon="-2.279997">
        <ele>810.463</ele>
        <time>2021-04-06T08:01:21Z</time>
      </trkpt>
      <trkpt lat="43.103649" lon="-2.279981">
        <ele>810.411</ele>
        <time>2021-04-06T08:01:24Z</time>
      </trkpt>
      <trkpt lat="43.103663" lon="-2.279969">
        <ele>810.568</ele>
        <time>2021-04-06T08:01:26Z</time>
      </trkpt>
      <trkpt lat="43.103684" lon="-2.279959">
        <ele>810.866</ele>
        <time>2021-04-06T08:01:29Z</time>
      </trkpt>
      <trkpt lat="43.103699" lon="-2.279937">
        <ele>810.551</ele>
        <time>2021-04-06T08:01:31Z</time>
      </trkpt>
      <trkpt lat="43.103722" lon="-2.279917">
        <ele>810.701</ele>
        <time>2021-04-06T08:01:34Z</time>
      </trkpt>
      <trkpt lat="43.103746" lon="-2.279907">
        <ele>811.211</ele>
        <time>2021-04-06T08:01:38Z</time>
      </trkpt>
      <trkpt lat="43.103774" lon="-2.279898">
        <ele>811.908</ele>
        <time>2021-04-06T08:01:40Z</time>
      </trkpt>
      <trkpt lat="43.103796" lon="-2.279893">
        <ele>812.512</ele>
        <time>2021-04-06T08:01:42Z</time>
      </trkpt>
      <trkpt lat="43.103817" lon="-2.279893">
        <ele>813.225</ele>
        <time>2021-04-06T08:01:45Z</time>
      </trkpt>
      <trkpt lat="43.103835" lon="-2.279894">
        <ele>813.986</ele>
        <time>2021-04-06T08:01:46Z</time>
      </trkpt>
      <trkpt lat="43.103856" lon="-2.279897">
        <ele>814.771</ele>
        <time>2021-04-06T08:01:50Z</time>
      </trkpt>
      <trkpt lat="43.103878" lon="-2.279889">
        <ele>815.276</ele>
        <time>2021-04-06T08:01:53Z</time>
      </trkpt>
      <trkpt lat="43.103907" lon="-2.279879">
        <ele>816.154</ele>
        <time>2021-04-06T08:01:56Z</time>
      </trkpt>
      <trkpt lat="43.103924" lon="-2.279874">
        <ele>816.741</ele>
        <time>2021-04-06T08:01:58Z</time>
      </trkpt>
      <trkpt lat="43.103953" lon="-2.279868">
        <ele>817.759</ele>
        <time>2021-04-06T08:01:59Z</time>
      </trkpt>
      <trkpt lat="43.103980" lon="-2.279857">
        <ele>818.583</ele>
        <time>2021-04-06T08:02:01Z</time>
      </trkpt>
      <trkpt lat="43.104003" lon="-2.279855">
        <ele>819.425</ele>
        <time>2021-04-06T08:02:04Z</time>
      </trkpt>
      <trkpt lat="43.104023" lon="-2.279850">
        <ele>820.117</ele>
        <time>2021-04-06T08:02:06Z</time>
      </trkpt>
      <trkpt lat="43.104041" lon="-2.279846">
        <ele>820.808</ele>
        <time>2021-04-06T08:02:09Z</time>
      </trkpt>
      <trkpt lat="43.104062" lon="-2.279837">
        <ele>821.445</ele>
        <time>2021-04-06T08:02:12Z</time>
      </trkpt>
      <trkpt lat="43.104085" lon="-2.279836">
        <ele>822.488</ele>
        <time>2021-04-06T08:02:15Z</time>
      </trkpt>
      <trkpt lat="43.104108" lon="-2.279833">
        <ele>823.259</ele>
        <time>2021-04-06T08:02:19Z</time>
      </trkpt>
      <trkpt lat="43.104134" lon="-2.279828">
        <ele>824.244</ele>
        <time>2021-04-06T08:02:22Z</time>
      </trkpt>
      <trkpt lat="43.104152" lon="-2.279825">
        <ele>824.989</ele>
        <time>2021-04-06T08:02:25Z</time>
      </trkpt>
      <trkpt lat="43.104176" lon="-2.279818">
        <ele>825.837</ele>
        <time>2021-04-06T08:02:29Z</time>
      </trkpt>
      <trkpt lat="43.104197" lon="-2.279812">
        <ele>826.694</ele>
        <time>2021-04-06T08:02:33Z</time>
      </trkpt>
      <trkpt lat="43.104214" lon="-2.279810">
        <ele>827.342</ele>
        <time>2021-04-06T08:02:34Z</time>
      </trkpt>
      <trkpt lat="43.104227" lon="-2.279811">
        <ele>827.846</ele>
        <time>2021-04-06T08:02:37Z</time>
      </trkpt>
      <trkpt lat="43.104253" lon="-2.279810">
        <ele>828.988</ele>
        <time>2021-04-06T08:02:39Z</time>
      </trkpt>
      <trkpt lat="43.104268" lon="-2.279839">
        <ele>829.916</ele>
        <time>2021-04-06T08:02:43Z</time>
      </trkpt>
      <trkpt lat="43.104282" lon="-2.279858">
        <ele>830.708</ele>
        <time>2021-04-06T08:02:46Z</time>
      </trkpt>
      <trkpt lat="43.104300" lon="-2.279870">
        <ele>831.651</ele>
        <time>2021-04-06T08:02:47Z</time>
      </trkpt>
      <trkpt lat="43.104321" lon="-2.279881">
        <ele>832.664</ele>
        <time>2021-04-06T08:02:50Z</time>
      </trkpt>
      <trkpt lat="43.104344" lon="-2.279887">
        <ele>833.735</ele>
        <time>2021-04-06T08:02:53Z</time>
      </trkpt>
      <trkpt lat="43.104360" lon="-2.279892">
        <ele>834.440</ele>
        <time>2021-04-06T08:02:55Z</time>
      </trkpt>
      <trkpt lat="43.104383" lon="-2.279887">
        <ele>835.315</ele>
        <time>2021-04-06T08:02:58Z</time>
      </trkpt>
      <trkpt lat="43.104402" lon="-2.279879">
        <ele>835.983</ele>
        <time>2021-04-06T08:03:01Z</time>
      </trkpt>
      <trkpt lat="43.104416" lon="-2.279876">
        <ele>836.540</ele>
        <time>2021-04-06T08:03:02Z</time>
      </trkpt>
      <trkpt lat="43.104437" lon="-2.279870">
        <ele>837.398</ele>
        <time>2021-04-06T08:03:06Z</time>
      </trkpt>
      <trkpt lat="43.104458" lon="-2.279869">
        <ele>838.486</ele>
        <time>2021-04-06T08:03:09Z</time>
      </trkpt>
      <trkpt lat="43.104476" lon="-2.279869">
        <ele>839.560</ele>
        <time>2021-04-06T08:03:12Z</time>
      </trkpt>
      <trkpt lat="43.104492" lon="-2.279858">
        <ele>840.326</ele>
        <time>2021-04-06T08:03:15Z</time>
      </trkpt>
      <trkpt lat="43.104505" lon="-2.279866">
        <ele>841.108</ele>
        <time>2021-04-06T08:03:21Z</time>
      </trkpt>
      <trkpt lat="43.104517" lon="-2.279851">
        <ele>841.785</ele>
        <time>2021-04-06T08:03:25Z</time>
      </trkpt>
      <trkpt lat="43.104538" lon="-2.279861">
        <ele>843.158</ele>
        <time>2021-04-06T08:03:28Z</time>
      </trkpt>
      <trkpt lat="43.104555" lon="-2.279872">
        <ele>844.189</ele>
        <time>2021-04-06T08:03:30Z</time>
      </trkpt>
      <trkpt lat="43.104575" lon="-2.279872">
        <ele>845.314</ele>
        <time>2021-04-06T08:03:31Z</time>
      </trkpt>
      <trkpt lat="43.104593" lon="-2.279854">
        <ele>846.379</ele>
        <time>2021-04-06T08:03:35Z</time>
      </trkpt>
      <trkpt lat="43.104607" lon="-2.279841">
        <ele>847.187</ele>
        <time>2021-04-06T08:03:38Z</time>
      </trkpt>
      <trkpt lat="43.104615" lon="-2.279821">
        <ele>847.584</ele>
        <time>2021-04-06T08:03:41Z</time>
      </trkpt>
      <trkpt lat="43.104630" lon="-2.279828">
        <ele>848.432</ele>
        <time>2021-04-06T08:03:43Z</time>
      </trkpt>
      <trkpt lat="43.104649" lon="-2.279836">
        <ele>849.638</ele>
        <time>2021-04-06T08:03:46Z</time>
      </trkpt>
      <trkpt lat="43.104669" lon="-2.279848">
        <ele>850.870</ele>
        <time>2021-04-06T08:03:50Z</time>
      </trkpt>
      <trkpt lat="43.104686" lon="-2.279839">
        <ele>851.817</ele>
        <time>2021-04-06T08:03:53Z</time>
      </trkpt>
      <trkpt lat="43.104695" lon="-2.279825">
        <ele>852.308</ele>
        <time>2021-04-06T08:03:56Z</time>
      </trkpt>
      <trkpt lat="43.104707" lon="-2.279800">
        <ele>853.110</ele>
        <time>2021-04-06T08:03:58Z</time>
      </trkpt>
      <trkpt lat="43.104728" lon="-2.279809">
        <ele>854.443</ele>
        <time>2021-04-06T08:04:03Z</time>
      </trkpt>
      <trkpt lat="43.104744" lon="-2.279830">
        <ele>855.594</ele>
        <time>2021-04-06T08:04:06Z</time>
      </trkpt>
      <trkpt lat="43.104757" lon="-2.279848">
        <ele>856.329</ele>
        <time>2021-04-06T08:04:08Z</time>
      </trkpt>
      <trkpt lat="43.104771" lon="-2.279875">
        <ele>857.294</ele>
        <time>2021-04-06T08:04:11Z</time>
      </trkpt>
      <trkpt lat="43.104786" lon="-2.279891">
        <ele>858.252</ele>
        <time>2021-04-06T08:04:12Z</time>
      </trkpt>
      <trkpt lat="43.104806" lon="-2.279904">
        <ele>859.459</ele>
        <time>2021-04-06T08:04:15Z</time>
      </trkpt>
      <trkpt lat="43.104824" lon="-2.279923">
        <ele>860.577</ele>
        <time>2021-04-06T08:04:19Z</time>
      </trkpt>
      <trkpt lat="43.104847" lon="-2.279916">
        <ele>862.062</ele>
        <time>2021-04-06T08:04:22Z</time>
      </trkpt>
      <trkpt lat="43.104861" lon="-2.279895">
        <ele>863.183</ele>
        <time>2021-04-06T08:04:25Z</time>
      </trkpt>
      <trkpt lat="43.104874" lon="-2.279901">
        <ele>863.911</ele>
        <time>2021-04-06T08:04:30Z</time>
      </trkpt>
      <trkpt lat="43.104889" lon="-2.279922">
        <ele>864.708</ele>
        <time>2021-04-06T08:04:33Z</time>
      </trkpt>
      <trkpt lat="43.104905" lon="-2.279940">
        <ele>865.683</ele>
        <time>2021-04-06T08:04:36Z</time>
      </trkpt>
      <trkpt lat="43.104924" lon="-2.279948">
        <ele>866.876</ele>
        <time>2021-04-06T08:04:39Z</time>
      </trkpt>
      <trkpt lat="43.104938" lon="-2.279968">
        <ele>867.577</ele>
        <time>2021-04-06T08:04:43Z</time>
      </trkpt>
      <trkpt lat="43.104956" lon="-2.279991">
        <ele>868.412</ele>
        <time>2021-04-06T08:04:46Z</time>
      </trkpt>
      <trkpt lat="43.104967" lon="-2.280000">
        <ele>869.057</ele>
        <time>2021-04-06T08:04:48Z</time>
      </trkpt>
      <trkpt lat="43.104983" lon="-2.280011">
        <ele>869.825</ele>
        <time>2021-04-06T08:04:51Z</time>
      </trkpt>
      <trkpt lat="43.105004" lon="-2.280007">
        <ele>871.132</ele>
        <time>2021-04-06T08:04:55Z</time>
      </trkpt>
      <trkpt lat="43.105013" lon="-2.279985">
        <ele>872.110</ele>
        <time>2021-04-06T08:04:58Z</time>
      </trkpt>
      <trkpt lat="43.105018" lon="-2.279961">
        <ele>872.732</ele>
        <time>2021-04-06T08:05:00Z</time>
      </trkpt>
      <trkpt lat="43.105027" lon="-2.279939">
        <ele>873.592</ele>
        <time>2021-04-06T08:05:03Z</time>
      </trkpt>
      <trkpt lat="43.105046" lon="-2.279925">
        <ele>875.011</ele>
        <time>2021-04-06T08:05:07Z</time>
      </trkpt>
      <trkpt lat="43.105067" lon="-2.279933">
        <ele>876.408</ele>
        <time>2021-04-06T08:05:11Z</time>
      </trkpt>
      <trkpt lat="43.105076" lon="-2.279952">
        <ele>876.870</ele>
        <time>2021-04-06T08:05:14Z</time>
      </trkpt>
      <trkpt lat="43.105098" lon="-2.279957">
        <ele>878.213</ele>
        <time>2021-04-06T08:05:17Z</time>
      </trkpt>
      <trkpt lat="43.105110" lon="-2.279941">
        <ele>879.294</ele>
        <time>2021-04-06T08:05:19Z</time>
      </trkpt>
      <trkpt lat="43.105114" lon="-2.279920">
        <ele>879.889</ele>
        <time>2021-04-06T08:05:22Z</time>
      </trkpt>
      <trkpt lat="43.105116" lon="-2.279897">
        <ele>880.274</ele>
        <time>2021-04-06T08:05:25Z</time>
      </trkpt>
      <trkpt lat="43.105114" lon="-2.279866">
        <ele>880.432</ele>
        <time>2021-04-06T08:05:28Z</time>
      </trkpt>
      <trkpt lat="43.105121" lon="-2.279838">
        <ele>881.359</ele>
        <time>2021-04-06T08:05:31Z</time>
      </trkpt>
      <trkpt lat="43.105127" lon="-2.279813">
        <ele>882.017</ele>
        <time>2021-04-06T08:05:33Z</time>
      </trkpt>
      <trkpt lat="43.105144" lon="-2.279801">
        <ele>883.427</ele>
        <time>2021-04-06T08:05:38Z</time>
      </trkpt>
      <trkpt lat="43.105161" lon="-2.279786">
        <ele>884.868</ele>
        <time>2021-04-06T08:05:42Z</time>
      </trkpt>
      <trkpt lat="43.105169" lon="-2.279761">
        <ele>885.714</ele>
        <time>2021-04-06T08:05:45Z</time>
      </trkpt>
      <trkpt lat="43.105181" lon="-2.279745">
        <ele>886.708</ele>
        <time>2021-04-06T08:05:48Z</time>
      </trkpt>
      <trkpt lat="43.105197" lon="-2.279731">
        <ele>888.179</ele>
        <time>2021-04-06T08:05:52Z</time>
      </trkpt>
      <trkpt lat="43.105210" lon="-2.279715">
        <ele>889.122</ele>
        <time>2021-04-06T08:05:55Z</time>
      </trkpt>
      <trkpt lat="43.105226" lon="-2.279727">
        <ele>890.223</ele>
        <time>2021-04-06T08:05:59Z</time>
      </trkpt>
      <trkpt lat="43.105241" lon="-2.279743">
        <ele>891.168</ele>
        <time>2021-04-06T08:06:02Z</time>
      </trkpt>
      <trkpt lat="43.105254" lon="-2.279764">
        <ele>891.713</ele>
        <time>2021-04-06T08:06:06Z</time>
      </trkpt>
      <trkpt lat="43.105257" lon="-2.279791">
        <ele>891.591</ele>
        <time>2021-04-06T08:06:08Z</time>
      </trkpt>
      <trkpt lat="43.105262" lon="-2.279821">
        <ele>891.558</ele>
        <time>2021-04-06T08:06:10Z</time>
      </trkpt>
      <trkpt lat="43.105274" lon="-2.279842">
        <ele>892.026</ele>
        <time>2021-04-06T08:06:12Z</time>
      </trkpt>
      <trkpt lat="43.105290" lon="-2.279869">
        <ele>892.725</ele>
        <time>2021-04-06T08:06:15Z</time>
      </trkpt>
      <trkpt lat="43.105305" lon="-2.279887">
        <ele>893.426</ele>
        <time>2021-04-06T08:06:17Z</time>
      </trkpt>
      <trkpt lat="43.105320" lon="-2.279902">
        <ele>894.208</ele>
        <time>2021-04-06T08:06:19Z</time>
      </trkpt>
      <trkpt lat="43.105345" lon="-2.279911">
        <ele>895.608</ele>
        <time>2021-04-06T08:06:22Z</time>
      </trkpt>
      <trkpt lat="43.105358" lon="-2.279891">
        <ele>896.849</ele>
        <time>2021-04-06T08:06:24Z</time>
      </trkpt>
      <trkpt lat="43.105360" lon="-2.279869">
        <ele>897.362</ele>
        <time>2021-04-06T08:06:26Z</time>
      </trkpt>
      <trkpt lat="43.105352" lon="-2.279839">
        <ele>897.373</ele>
        <time>2021-04-06T08:06:29Z</time>
      </trkpt>
      <trkpt lat="43.105351" lon="-2.279815">
        <ele>897.788</ele>
        <time>2021-04-06T08:06:32Z</time>
      </trkpt>
      <trkpt lat="43.105351" lon="-2.279788">
        <ele>898.133</ele>
        <time>2021-04-06T08:06:35Z</time>
      </trkpt>
      <trkpt lat="43.105350" lon="-2.279766">
        <ele>898.451</ele>
        <time>2021-04-06T08:06:37Z</time>
      </trkpt>
      <trkpt lat="43.105349" lon="-2.279741">
        <ele>898.858</ele>
        <time>2021-04-06T08:06:38Z</time>
      </trkpt>
      <trkpt lat="43.105353" lon="-2.279713">
        <ele>899.466</ele>
        <time>2021-04-06T08:06:42Z</time>
      </trkpt>
      <trkpt lat="43.105359" lon="-2.279692">
        <ele>899.792</ele>
        <time>2021-04-06T08:06:45Z</time>
      </trkpt>
      <trkpt lat="43.105378" lon="-2.279692">
        <ele>901.173</ele>
        <time>2021-04-06T08:06:49Z</time>
      </trkpt>
      <trkpt lat="43.105393" lon="-2.279702">
        <ele>902.220</ele>
        <time>2021-04-06T08:06:51Z</time>
      </trkpt>
      <trkpt lat="43.105414" lon="-2.279715">
        <ele>903.808</ele>
        <time>2021-04-06T08:06:54Z</time>
      </trkpt>
      <trkpt lat="43.105424" lon="-2.279696">
        <ele>904.446</ele>
        <time>2021-04-06T08:06:57Z</time>
      </trkpt>
      <trkpt lat="43.105446" lon="-2.279701">
        <ele>906.049</ele>
        <time>2021-04-06T08:07:02Z</time>
      </trkpt>
      <trkpt lat="43.105458" lon="-2.279696">
        <ele>906.960</ele>
        <time>2021-04-06T08:07:06Z</time>
      </trkpt>
      <trkpt lat="43.105469" lon="-2.279670">
        <ele>907.645</ele>
        <time>2021-04-06T08:07:10Z</time>
      </trkpt>
      <trkpt lat="43.105479" lon="-2.279652">
        <ele>908.260</ele>
        <time>2021-04-06T08:07:13Z</time>
      </trkpt>
      <trkpt lat="43.105487" lon="-2.279629">
        <ele>908.758</ele>
        <time>2021-04-06T08:07:16Z</time>
      </trkpt>
      <trkpt lat="43.105501" lon="-2.279613">
        <ele>909.735</ele>
        <time>2021-04-06T08:07:21Z</time>
      </trkpt>
      <trkpt lat="43.105518" lon="-2.279598">
        <ele>910.873</ele>
        <time>2021-04-06T08:07:25Z</time>
      </trkpt>
      <trkpt lat="43.105536" lon="-2.279591">
        <ele>912.113</ele>
        <time>2021-04-06T08:07:28Z</time>
      </trkpt>
      <trkpt lat="43.105555" lon="-2.279587">
        <ele>913.543</ele>
        <time>2021-04-06T08:07:32Z</time>
      </trkpt>
      <trkpt lat="43.105575" lon="-2.279584">
        <ele>914.707</ele>
        <time>2021-04-06T08:07:36Z</time>
      </trkpt>
      <trkpt lat="43.105592" lon="-2.279576">
        <ele>915.708</ele>
        <time>2021-04-06T08:07:39Z</time>
      </trkpt>
      <trkpt lat="43.105610" lon="-2.279564">
        <ele>916.858</ele>
        <time>2021-04-06T08:07:43Z</time>
      </trkpt>
      <trkpt lat="43.105626" lon="-2.279571">
        <ele>917.891</ele>
        <time>2021-04-06T08:07:47Z</time>
      </trkpt>
      <trkpt lat="43.105635" lon="-2.279591">
        <ele>918.472</ele>
        <time>2021-04-06T08:07:51Z</time>
      </trkpt>
      <trkpt lat="43.105645" lon="-2.279611">
        <ele>919.067</ele>
        <time>2021-04-06T08:07:54Z</time>
      </trkpt>
      <trkpt lat="43.105658" lon="-2.279630">
        <ele>919.892</ele>
        <time>2021-04-06T08:07:57Z</time>
      </trkpt>
      <trkpt lat="43.105668" lon="-2.279653">
        <ele>920.470</ele>
        <time>2021-04-06T08:07:58Z</time>
      </trkpt>
      <trkpt lat="43.105683" lon="-2.279666">
        <ele>921.397</ele>
        <time>2021-04-06T08:08:02Z</time>
      </trkpt>
      <trkpt lat="43.105700" lon="-2.279680">
        <ele>922.355</ele>
        <time>2021-04-06T08:08:06Z</time>
      </trkpt>
      <trkpt lat="43.105721" lon="-2.279690">
        <ele>923.618</ele>
        <time>2021-04-06T08:08:10Z</time>
      </trkpt>
      <trkpt lat="43.105732" lon="-2.279674">
        <ele>924.298</ele>
        <time>2021-04-06T08:08:15Z</time>
      </trkpt>
      <trkpt lat="43.105735" lon="-2.279640">
        <ele>924.417</ele>
        <time>2021-04-06T08:08:18Z</time>
      </trkpt>
      <trkpt lat="43.105737" lon="-2.279618">
        <ele>924.608</ele>
        <time>2021-04-06T08:08:21Z</time>
      </trkpt>
      <trkpt lat="43.105742" lon="-2.279597">
        <ele>924.928</ele>
        <time>2021-04-06T08:08:22Z</time>
      </trkpt>
      <trkpt lat="43.105753" lon="-2.279576">
        <ele>925.681</ele>
        <time>2021-04-06T08:08:24Z</time>
      </trkpt>
      <trkpt lat="43.105766" lon="-2.279558">
        <ele>926.472</ele>
        <time>2021-04-06T08:08:27Z</time>
      </trkpt>
      <trkpt lat="43.105780" lon="-2.279538">
        <ele>927.327</ele>
        <time>2021-04-06T08:08:29Z</time>
      </trkpt>
      <trkpt lat="43.105798" lon="-2.279528">
        <ele>928.552</ele>
        <time>2021-04-06T08:08:30Z</time>
      </trkpt>
      <trkpt lat="43.105825" lon="-2.279525">
        <ele>930.240</ele>
        <time>2021-04-06T08:08:34Z</time>
      </trkpt>
      <trkpt lat="43.105831" lon="-2.279533">
        <ele>930.537</ele>
        <time>2021-04-06T08:08:36Z</time>
      </trkpt>
      <trkpt lat="43.105850" lon="-2.279530">
        <ele>931.735</ele>
        <time>2021-04-06T08:08:40Z</time>
      </trkpt>
      <trkpt lat="43.105863" lon="-2.279514">
        <ele>932.645</ele>
        <time>2021-04-06T08:08:44Z</time>
      </trkpt>
      <trkpt lat="43.105874" lon="-2.279498">
        <ele>933.347</ele>
        <time>2021-04-06T08:08:46Z</time>
      </trkpt>
      <trkpt lat="43.105893" lon="-2.279479">
        <ele>934.611</ele>
        <time>2021-04-06T08:08:49Z</time>
      </trkpt>
      <trkpt lat="43.105910" lon="-2.279461">
        <ele>935.608</ele>
        <time>2021-04-06T08:08:52Z</time>
      </trkpt>
      <trkpt lat="43.105923" lon="-2.279444">
        <ele>936.581</ele>
        <time>2021-04-06T08:08:54Z</time>
      </trkpt>
      <trkpt lat="43.105936" lon="-2.279426">
        <ele>936.874</ele>
        <time>2021-04-06T08:08:56Z</time>
      </trkpt>
      <trkpt lat="43.105954" lon="-2.279405">
        <ele>937.595</ele>
        <time>2021-04-06T08:08:59Z</time>
      </trkpt>
      <trkpt lat="43.105973" lon="-2.279380">
        <ele>938.070</ele>
        <time>2021-04-06T08:09:02Z</time>
      </trkpt>
      <trkpt lat="43.105989" lon="-2.279366">
        <ele>938.735</ele>
        <time>2021-04-06T08:09:05Z</time>
      </trkpt>
      <trkpt lat="43.106007" lon="-2.279340">
        <ele>939.293</ele>
        <time>2021-04-06T08:09:08Z</time>
      </trkpt>
      <trkpt lat="43.106024" lon="-2.279322">
        <ele>939.940</ele>
        <time>2021-04-06T08:09:11Z</time>
      </trkpt>
      <trkpt lat="43.106047" lon="-2.279308">
        <ele>941.048</ele>
        <time>2021-04-06T08:09:13Z</time>
      </trkpt>
      <trkpt lat="43.106066" lon="-2.279300">
        <ele>942.097</ele>
        <time>2021-04-06T08:09:16Z</time>
      </trkpt>
      <trkpt lat="43.106085" lon="-2.279291">
        <ele>943.023</ele>
        <time>2021-04-06T08:09:20Z</time>
      </trkpt>
      <trkpt lat="43.106102" lon="-2.279280">
        <ele>943.925</ele>
        <time>2021-04-06T08:09:23Z</time>
      </trkpt>
      <trkpt lat="43.106124" lon="-2.279263">
        <ele>944.908</ele>
        <time>2021-04-06T08:09:26Z</time>
      </trkpt>
      <trkpt lat="43.106136" lon="-2.279254">
        <ele>945.416</ele>
        <time>2021-04-06T08:09:28Z</time>
      </trkpt>
      <trkpt lat="43.106151" lon="-2.279241">
        <ele>946.149</ele>
        <time>2021-04-06T08:09:31Z</time>
      </trkpt>
      <trkpt lat="43.106171" lon="-2.279224">
        <ele>947.050</ele>
        <time>2021-04-06T08:09:33Z</time>
      </trkpt>
      <trkpt lat="43.106194" lon="-2.279216">
        <ele>948.335</ele>
        <time>2021-04-06T08:09:38Z</time>
      </trkpt>
      <trkpt lat="43.106211" lon="-2.279205">
        <ele>949.250</ele>
        <time>2021-04-06T08:09:41Z</time>
      </trkpt>
      <trkpt lat="43.106227" lon="-2.279197">
        <ele>950.188</ele>
        <time>2021-04-06T08:09:45Z</time>
      </trkpt>
      <trkpt lat="43.106247" lon="-2.279194">
        <ele>951.385</ele>
        <time>2021-04-06T08:09:51Z</time>
      </trkpt>
      <trkpt lat="43.106249" lon="-2.279212">
        <ele>951.863</ele>
        <time>2021-04-06T08:09:55Z</time>
      </trkpt>
      <trkpt lat="43.106273" lon="-2.279205">
        <ele>953.245</ele>
        <time>2021-04-06T08:09:57Z</time>
      </trkpt>
      <trkpt lat="43.106286" lon="-2.279184">
        <ele>953.647</ele>
        <time>2021-04-06T08:10:00Z</time>
      </trkpt>
      <trkpt lat="43.106300" lon="-2.279157">
        <ele>954.011</ele>
        <time>2021-04-06T08:10:03Z</time>
      </trkpt>
      <trkpt lat="43.106319" lon="-2.279139">
        <ele>954.908</ele>
        <time>2021-04-06T08:10:06Z</time>
      </trkpt>
      <trkpt lat="43.106340" lon="-2.279121">
        <ele>956.011</ele>
        <time>2021-04-06T08:10:09Z</time>
      </trkpt>
      <trkpt lat="43.106361" lon="-2.279115">
        <ele>957.234</ele>
        <time>2021-04-06T08:10:12Z</time>
      </trkpt>
      <trkpt lat="43.106381" lon="-2.279110">
        <ele>958.525</ele>
        <time>2021-04-06T08:10:15Z</time>
      </trkpt>
      <trkpt lat="43.106395" lon="-2.279127">
        <ele>959.590</ele>
        <time>2021-04-06T08:10:19Z</time>
      </trkpt>
      <trkpt lat="43.106397" lon="-2.279152">
        <ele>960.065</ele>
        <time>2021-04-06T08:10:22Z</time>
      </trkpt>
      <trkpt lat="43.106409" lon="-2.279178">
        <ele>960.893</ele>
        <time>2021-04-06T08:10:24Z</time>
      </trkpt>
      <trkpt lat="43.106430" lon="-2.279179">
        <ele>961.550</ele>
        <time>2021-04-06T08:10:28Z</time>
      </trkpt>
      <trkpt lat="43.106446" lon="-2.279198">
        <ele>962.248</ele>
        <time>2021-04-06T08:10:32Z</time>
      </trkpt>
      <trkpt lat="43.106460" lon="-2.279216">
        <ele>962.788</ele>
        <time>2021-04-06T08:10:35Z</time>
      </trkpt>
      <trkpt lat="43.106473" lon="-2.279234">
        <ele>963.324</ele>
        <time>2021-04-06T08:10:38Z</time>
      </trkpt>
      <trkpt lat="43.106487" lon="-2.279255">
        <ele>963.826</ele>
        <time>2021-04-06T08:10:41Z</time>
      </trkpt>
      <trkpt lat="43.106508" lon="-2.279259">
        <ele>964.308</ele>
        <time>2021-04-06T08:10:44Z</time>
      </trkpt>
      <trkpt lat="43.106521" lon="-2.279246">
        <ele>964.655</ele>
        <time>2021-04-06T08:10:46Z</time>
      </trkpt>
      <trkpt lat="43.106530" lon="-2.279220">
        <ele>964.838</ele>
        <time>2021-04-06T08:10:49Z</time>
      </trkpt>
      <trkpt lat="43.106542" lon="-2.279197">
        <ele>965.079</ele>
        <time>2021-04-06T08:10:52Z</time>
      </trkpt>
      <trkpt lat="43.106551" lon="-2.279166">
        <ele>965.224</ele>
        <time>2021-04-06T08:10:55Z</time>
      </trkpt>
      <trkpt lat="43.106564" lon="-2.279158">
        <ele>965.669</ele>
        <time>2021-04-06T08:11:00Z</time>
      </trkpt>
      <trkpt lat="43.106577" lon="-2.279180">
        <ele>966.137</ele>
        <time>2021-04-06T08:11:03Z</time>
      </trkpt>
      <trkpt lat="43.106587" lon="-2.279201">
        <ele>966.444</ele>
        <time>2021-04-06T08:11:06Z</time>
      </trkpt>
      <trkpt lat="43.106578" lon="-2.279210">
        <ele>966.162</ele>
        <time>2021-04-06T08:11:36Z</time>
      </trkpt>
      <trkpt lat="43.106585" lon="-2.279177">
        <ele>966.314</ele>
        <time>2021-04-06T08:11:43Z</time>
      </trkpt>
      <trkpt lat="43.106589" lon="-2.279193">
        <ele>966.554</ele>
        <time>2021-04-06T08:11:48Z</time>
      </trkpt>
      <trkpt lat="43.106588" lon="-2.279215">
        <ele>966.409</ele>
        <time>2021-04-06T08:11:50Z</time>
      </trkpt>
      <trkpt lat="43.106594" lon="-2.279197">
        <ele>966.608</ele>
        <time>2021-04-06T08:11:59Z</time>
      </trkpt>
      <trkpt lat="43.106596" lon="-2.279218">
        <ele>966.648</ele>
        <time>2021-04-06T08:12:11Z</time>
      </trkpt>
      <trkpt lat="43.106607" lon="-2.279235">
        <ele>966.991</ele>
        <time>2021-04-06T08:12:16Z</time>
      </trkpt>
      <trkpt lat="43.106608" lon="-2.279243">
        <ele>966.932</ele>
        <time>2021-04-06T08:12:19Z</time>
      </trkpt>
      <trkpt lat="43.106615" lon="-2.279266">
        <ele>967.037</ele>
        <time>2021-04-06T08:12:26Z</time>
      </trkpt>
      <trkpt lat="43.106609" lon="-2.279290">
        <ele>966.862</ele>
        <time>2021-04-06T08:12:44Z</time>
      </trkpt>
      <trkpt lat="43.106623" lon="-2.279325">
        <ele>967.070</ele>
        <time>2021-04-06T08:12:46Z</time>
      </trkpt>
      <trkpt lat="43.106624" lon="-2.279363">
        <ele>966.947</ele>
        <time>2021-04-06T08:12:49Z</time>
      </trkpt>
      <trkpt lat="43.106618" lon="-2.279402">
        <ele>966.655</ele>
        <time>2021-04-06T08:12:50Z</time>
      </trkpt>
      <trkpt lat="43.106609" lon="-2.279439">
        <ele>966.434</ele>
        <time>2021-04-06T08:12:53Z</time>
      </trkpt>
      <trkpt lat="43.106600" lon="-2.279479">
        <ele>965.955</ele>
        <time>2021-04-06T08:12:55Z</time>
      </trkpt>
      <trkpt lat="43.106585" lon="-2.279550">
        <ele>965.010</ele>
        <time>2021-04-06T08:12:57Z</time>
      </trkpt>
      <trkpt lat="43.106579" lon="-2.279581">
        <ele>964.608</ele>
        <time>2021-04-06T08:12:59Z</time>
      </trkpt>
      <trkpt lat="43.106573" lon="-2.279618">
        <ele>964.140</ele>
        <time>2021-04-06T08:13:00Z</time>
      </trkpt>
      <trkpt lat="43.106568" lon="-2.279654">
        <ele>963.743</ele>
        <time>2021-04-06T08:13:01Z</time>
      </trkpt>
      <trkpt lat="43.106564" lon="-2.279688">
        <ele>963.364</ele>
        <time>2021-04-06T08:13:02Z</time>
      </trkpt>
      <trkpt lat="43.106563" lon="-2.279725">
        <ele>962.869</ele>
        <time>2021-04-06T08:13:03Z</time>
      </trkpt>
      <trkpt lat="43.106565" lon="-2.279764">
        <ele>962.444</ele>
        <time>2021-04-06T08:13:04Z</time>
      </trkpt>
      <trkpt lat="43.106570" lon="-2.279805">
        <ele>961.942</ele>
        <time>2021-04-06T08:13:05Z</time>
      </trkpt>
      <trkpt lat="43.106576" lon="-2.279847">
        <ele>961.529</ele>
        <time>2021-04-06T08:13:06Z</time>
      </trkpt>
      <trkpt lat="43.106584" lon="-2.279888">
        <ele>961.297</ele>
        <time>2021-04-06T08:13:07Z</time>
      </trkpt>
      <trkpt lat="43.106591" lon="-2.279929">
        <ele>960.939</ele>
        <time>2021-04-06T08:13:08Z</time>
      </trkpt>
      <trkpt lat="43.106597" lon="-2.279977">
        <ele>960.501</ele>
        <time>2021-04-06T08:13:09Z</time>
      </trkpt>
      <trkpt lat="43.106605" lon="-2.280028">
        <ele>960.221</ele>
        <time>2021-04-06T08:13:10Z</time>
      </trkpt>
      <trkpt lat="43.106613" lon="-2.280079">
        <ele>959.908</ele>
        <time>2021-04-06T08:13:11Z</time>
      </trkpt>
      <trkpt lat="43.106621" lon="-2.280129">
        <ele>959.690</ele>
        <time>2021-04-06T08:13:12Z</time>
      </trkpt>
      <trkpt lat="43.106627" lon="-2.280179">
        <ele>959.383</ele>
        <time>2021-04-06T08:13:13Z</time>
      </trkpt>
      <trkpt lat="43.106636" lon="-2.280226">
        <ele>959.284</ele>
        <time>2021-04-06T08:13:14Z</time>
      </trkpt>
      <trkpt lat="43.106649" lon="-2.280272">
        <ele>959.399</ele>
        <time>2021-04-06T08:13:15Z</time>
      </trkpt>
      <trkpt lat="43.106663" lon="-2.280316">
        <ele>959.624</ele>
        <time>2021-04-06T08:13:16Z</time>
      </trkpt>
      <trkpt lat="43.106692" lon="-2.280393">
        <ele>958.742</ele>
        <time>2021-04-06T08:13:17Z</time>
      </trkpt>
      <trkpt lat="43.106701" lon="-2.280431">
        <ele>958.319</ele>
        <time>2021-04-06T08:13:19Z</time>
      </trkpt>
      <trkpt lat="43.106712" lon="-2.280461">
        <ele>957.967</ele>
        <time>2021-04-06T08:13:20Z</time>
      </trkpt>
      <trkpt lat="43.106731" lon="-2.280478">
        <ele>957.546</ele>
        <time>2021-04-06T08:13:22Z</time>
      </trkpt>
      <trkpt lat="43.106749" lon="-2.280493">
        <ele>957.188</ele>
        <time>2021-04-06T08:13:24Z</time>
      </trkpt>
      <trkpt lat="43.106768" lon="-2.280542">
        <ele>956.616</ele>
        <time>2021-04-06T08:13:26Z</time>
      </trkpt>
      <trkpt lat="43.106776" lon="-2.280578">
        <ele>956.408</ele>
        <time>2021-04-06T08:13:27Z</time>
      </trkpt>
      <trkpt lat="43.106787" lon="-2.280620">
        <ele>956.291</ele>
        <time>2021-04-06T08:13:28Z</time>
      </trkpt>
      <trkpt lat="43.106800" lon="-2.280661">
        <ele>955.994</ele>
        <time>2021-04-06T08:13:29Z</time>
      </trkpt>
      <trkpt lat="43.106810" lon="-2.280704">
        <ele>955.795</ele>
        <time>2021-04-06T08:13:30Z</time>
      </trkpt>
      <trkpt lat="43.106826" lon="-2.280749">
        <ele>955.340</ele>
        <time>2021-04-06T08:13:31Z</time>
      </trkpt>
      <trkpt lat="43.106838" lon="-2.280799">
        <ele>955.075</ele>
        <time>2021-04-06T08:13:32Z</time>
      </trkpt>
      <trkpt lat="43.106848" lon="-2.280848">
        <ele>954.793</ele>
        <time>2021-04-06T08:13:33Z</time>
      </trkpt>
      <trkpt lat="43.106856" lon="-2.280894">
        <ele>954.370</ele>
        <time>2021-04-06T08:13:34Z</time>
      </trkpt>
      <trkpt lat="43.106866" lon="-2.280944">
        <ele>953.978</ele>
        <time>2021-04-06T08:13:35Z</time>
      </trkpt>
      <trkpt lat="43.106879" lon="-2.281042">
        <ele>953.233</ele>
        <time>2021-04-06T08:13:37Z</time>
      </trkpt>
      <trkpt lat="43.106889" lon="-2.281090">
        <ele>952.923</ele>
        <time>2021-04-06T08:13:38Z</time>
      </trkpt>
      <trkpt lat="43.106901" lon="-2.281187">
        <ele>952.315</ele>
        <time>2021-04-06T08:13:40Z</time>
      </trkpt>
      <trkpt lat="43.106915" lon="-2.281239">
        <ele>951.908</ele>
        <time>2021-04-06T08:13:41Z</time>
      </trkpt>
      <trkpt lat="43.106919" lon="-2.281293">
        <ele>951.640</ele>
        <time>2021-04-06T08:13:42Z</time>
      </trkpt>
      <trkpt lat="43.106932" lon="-2.281347">
        <ele>951.373</ele>
        <time>2021-04-06T08:13:43Z</time>
      </trkpt>
      <trkpt lat="43.106938" lon="-2.281394">
        <ele>951.014</ele>
        <time>2021-04-06T08:13:44Z</time>
      </trkpt>
      <trkpt lat="43.106944" lon="-2.281444">
        <ele>950.649</ele>
        <time>2021-04-06T08:13:45Z</time>
      </trkpt>
      <trkpt lat="43.106952" lon="-2.281491">
        <ele>950.144</ele>
        <time>2021-04-06T08:13:46Z</time>
      </trkpt>
      <trkpt lat="43.106960" lon="-2.281539">
        <ele>949.632</ele>
        <time>2021-04-06T08:13:47Z</time>
      </trkpt>
      <trkpt lat="43.106968" lon="-2.281585">
        <ele>949.159</ele>
        <time>2021-04-06T08:13:48Z</time>
      </trkpt>
      <trkpt lat="43.106976" lon="-2.281626">
        <ele>948.737</ele>
        <time>2021-04-06T08:13:49Z</time>
      </trkpt>
      <trkpt lat="43.106983" lon="-2.281666">
        <ele>948.352</ele>
        <time>2021-04-06T08:13:50Z</time>
      </trkpt>
      <trkpt lat="43.106988" lon="-2.281713">
        <ele>947.753</ele>
        <time>2021-04-06T08:13:51Z</time>
      </trkpt>
      <trkpt lat="43.106994" lon="-2.281761">
        <ele>947.108</ele>
        <time>2021-04-06T08:13:52Z</time>
      </trkpt>
      <trkpt lat="43.107002" lon="-2.281807">
        <ele>946.408</ele>
        <time>2021-04-06T08:13:53Z</time>
      </trkpt>
      <trkpt lat="43.107013" lon="-2.281858">
        <ele>945.782</ele>
        <time>2021-04-06T08:13:54Z</time>
      </trkpt>
      <trkpt lat="43.107026" lon="-2.281904">
        <ele>945.015</ele>
        <time>2021-04-06T08:13:55Z</time>
      </trkpt>
      <trkpt lat="43.107030" lon="-2.281953">
        <ele>944.416</ele>
        <time>2021-04-06T08:13:56Z</time>
      </trkpt>
      <trkpt lat="43.107038" lon="-2.282006">
        <ele>943.611</ele>
        <time>2021-04-06T08:13:57Z</time>
      </trkpt>
      <trkpt lat="43.107057" lon="-2.282103">
        <ele>942.276</ele>
        <time>2021-04-06T08:13:58Z</time>
      </trkpt>
      <trkpt lat="43.107066" lon="-2.282150">
        <ele>941.524</ele>
        <time>2021-04-06T08:14:00Z</time>
      </trkpt>
      <trkpt lat="43.107071" lon="-2.282199">
        <ele>940.941</ele>
        <time>2021-04-06T08:14:01Z</time>
      </trkpt>
      <trkpt lat="43.107077" lon="-2.282245">
        <ele>940.429</ele>
        <time>2021-04-06T08:14:02Z</time>
      </trkpt>
      <trkpt lat="43.107085" lon="-2.282295">
        <ele>939.858</ele>
        <time>2021-04-06T08:14:03Z</time>
      </trkpt>
      <trkpt lat="43.107095" lon="-2.282342">
        <ele>939.352</ele>
        <time>2021-04-06T08:14:04Z</time>
      </trkpt>
      <trkpt lat="43.107106" lon="-2.282393">
        <ele>938.817</ele>
        <time>2021-04-06T08:14:05Z</time>
      </trkpt>
      <trkpt lat="43.107114" lon="-2.282439">
        <ele>938.308</ele>
        <time>2021-04-06T08:14:06Z</time>
      </trkpt>
      <trkpt lat="43.107124" lon="-2.282487">
        <ele>937.862</ele>
        <time>2021-04-06T08:14:07Z</time>
      </trkpt>
      <trkpt lat="43.107134" lon="-2.282535">
        <ele>937.395</ele>
        <time>2021-04-06T08:14:08Z</time>
      </trkpt>
      <trkpt lat="43.107142" lon="-2.282581">
        <ele>936.816</ele>
        <time>2021-04-06T08:14:09Z</time>
      </trkpt>
      <trkpt lat="43.107168" lon="-2.282678">
        <ele>935.641</ele>
        <time>2021-04-06T08:14:10Z</time>
      </trkpt>
      <trkpt lat="43.107174" lon="-2.282727">
        <ele>935.046</ele>
        <time>2021-04-06T08:14:12Z</time>
      </trkpt>
      <trkpt lat="43.107199" lon="-2.282920">
        <ele>933.244</ele>
        <time>2021-04-06T08:14:15Z</time>
      </trkpt>
      <trkpt lat="43.107231" lon="-2.283049">
        <ele>931.991</ele>
        <time>2021-04-06T08:14:19Z</time>
      </trkpt>
      <trkpt lat="43.107245" lon="-2.283095">
        <ele>931.439</ele>
        <time>2021-04-06T08:14:20Z</time>
      </trkpt>
      <trkpt lat="43.107257" lon="-2.283245">
        <ele>930.216</ele>
        <time>2021-04-06T08:14:23Z</time>
      </trkpt>
      <trkpt lat="43.107247" lon="-2.283278">
        <ele>930.176</ele>
        <time>2021-04-06T08:14:25Z</time>
      </trkpt>
      <trkpt lat="43.107231" lon="-2.283311">
        <ele>930.113</ele>
        <time>2021-04-06T08:14:28Z</time>
      </trkpt>
      <trkpt lat="43.107232" lon="-2.283338">
        <ele>929.908</ele>
        <time>2021-04-06T08:14:29Z</time>
      </trkpt>
      <trkpt lat="43.107229" lon="-2.283363">
        <ele>929.848</ele>
        <time>2021-04-06T08:14:30Z</time>
      </trkpt>
      <trkpt lat="43.107228" lon="-2.283394">
        <ele>929.741</ele>
        <time>2021-04-06T08:14:31Z</time>
      </trkpt>
      <trkpt lat="43.107230" lon="-2.283428">
        <ele>929.652</ele>
        <time>2021-04-06T08:14:32Z</time>
      </trkpt>
      <trkpt lat="43.107234" lon="-2.283466">
        <ele>929.417</ele>
        <time>2021-04-06T08:14:33Z</time>
      </trkpt>
      <trkpt lat="43.107236" lon="-2.283510">
        <ele>929.272</ele>
        <time>2021-04-06T08:14:34Z</time>
      </trkpt>
      <trkpt lat="43.107242" lon="-2.283557">
        <ele>929.090</ele>
        <time>2021-04-06T08:14:35Z</time>
      </trkpt>
      <trkpt lat="43.107253" lon="-2.283596">
        <ele>928.847</ele>
        <time>2021-04-06T08:14:36Z</time>
      </trkpt>
      <trkpt lat="43.107281" lon="-2.283732">
        <ele>928.295</ele>
        <time>2021-04-06T08:14:39Z</time>
      </trkpt>
      <trkpt lat="43.107298" lon="-2.283887">
        <ele>927.783</ele>
        <time>2021-04-06T08:14:43Z</time>
      </trkpt>
      <trkpt lat="43.107341" lon="-2.284052">
        <ele>928.325</ele>
        <time>2021-04-06T08:14:46Z</time>
      </trkpt>
      <trkpt lat="43.107354" lon="-2.284096">
        <ele>928.617</ele>
        <time>2021-04-06T08:14:48Z</time>
      </trkpt>
      <trkpt lat="43.107367" lon="-2.284138">
        <ele>928.908</ele>
        <time>2021-04-06T08:14:49Z</time>
      </trkpt>
      <trkpt lat="43.107376" lon="-2.284172">
        <ele>929.165</ele>
        <time>2021-04-06T08:14:50Z</time>
      </trkpt>
      <trkpt lat="43.107383" lon="-2.284211">
        <ele>929.328</ele>
        <time>2021-04-06T08:14:51Z</time>
      </trkpt>
      <trkpt lat="43.107397" lon="-2.284285">
        <ele>929.719</ele>
        <time>2021-04-06T08:14:53Z</time>
      </trkpt>
      <trkpt lat="43.107405" lon="-2.284313">
        <ele>930.064</ele>
        <time>2021-04-06T08:14:54Z</time>
      </trkpt>
      <trkpt lat="43.107411" lon="-2.284341">
        <ele>930.279</ele>
        <time>2021-04-06T08:14:55Z</time>
      </trkpt>
      <trkpt lat="43.107413" lon="-2.284368">
        <ele>930.417</ele>
        <time>2021-04-06T08:14:56Z</time>
      </trkpt>
      <trkpt lat="43.107413" lon="-2.284399">
        <ele>930.644</ele>
        <time>2021-04-06T08:14:57Z</time>
      </trkpt>
      <trkpt lat="43.107416" lon="-2.284429">
        <ele>930.842</ele>
        <time>2021-04-06T08:14:58Z</time>
      </trkpt>
      <trkpt lat="43.107419" lon="-2.284454">
        <ele>931.174</ele>
        <time>2021-04-06T08:14:59Z</time>
      </trkpt>
      <trkpt lat="43.107425" lon="-2.284482">
        <ele>931.556</ele>
        <time>2021-04-06T08:15:00Z</time>
      </trkpt>
      <trkpt lat="43.107433" lon="-2.284513">
        <ele>932.021</ele>
        <time>2021-04-06T08:15:01Z</time>
      </trkpt>
      <trkpt lat="43.107447" lon="-2.284543">
        <ele>932.708</ele>
        <time>2021-04-06T08:15:03Z</time>
      </trkpt>
      <trkpt lat="43.107448" lon="-2.284576">
        <ele>933.024</ele>
        <time>2021-04-06T08:15:05Z</time>
      </trkpt>
      <trkpt lat="43.107447" lon="-2.284600">
        <ele>933.227</ele>
        <time>2021-04-06T08:15:06Z</time>
      </trkpt>
      <trkpt lat="43.107451" lon="-2.284652">
        <ele>933.958</ele>
        <time>2021-04-06T08:15:08Z</time>
      </trkpt>
      <trkpt lat="43.107459" lon="-2.284679">
        <ele>934.423</ele>
        <time>2021-04-06T08:15:09Z</time>
      </trkpt>
      <trkpt lat="43.107471" lon="-2.284707">
        <ele>935.068</ele>
        <time>2021-04-06T08:15:10Z</time>
      </trkpt>
      <trkpt lat="43.107502" lon="-2.284752">
        <ele>935.916</ele>
        <time>2021-04-06T08:15:12Z</time>
      </trkpt>
      <trkpt lat="43.107520" lon="-2.284783">
        <ele>935.563</ele>
        <time>2021-04-06T08:15:13Z</time>
      </trkpt>
      <trkpt lat="43.107531" lon="-2.284818">
        <ele>935.241</ele>
        <time>2021-04-06T08:15:14Z</time>
      </trkpt>
      <trkpt lat="43.107542" lon="-2.284848">
        <ele>935.073</ele>
        <time>2021-04-06T08:15:15Z</time>
      </trkpt>
      <trkpt lat="43.107559" lon="-2.284886">
        <ele>934.785</ele>
        <time>2021-04-06T08:15:16Z</time>
      </trkpt>
      <trkpt lat="43.107629" lon="-2.285003">
        <ele>933.613</ele>
        <time>2021-04-06T08:15:20Z</time>
      </trkpt>
      <trkpt lat="43.107707" lon="-2.285117">
        <ele>932.308</ele>
        <time>2021-04-06T08:15:24Z</time>
      </trkpt>
      <trkpt lat="43.107758" lon="-2.285223">
        <ele>931.474</ele>
        <time>2021-04-06T08:15:27Z</time>
      </trkpt>
      <trkpt lat="43.107865" lon="-2.285369">
        <ele>928.827</ele>
        <time>2021-04-06T08:15:30Z</time>
      </trkpt>
      <trkpt lat="43.107900" lon="-2.285394">
        <ele>928.058</ele>
        <time>2021-04-06T08:15:32Z</time>
      </trkpt>
      <trkpt lat="43.107935" lon="-2.285413">
        <ele>927.233</ele>
        <time>2021-04-06T08:15:33Z</time>
      </trkpt>
      <trkpt lat="43.107970" lon="-2.285420">
        <ele>926.568</ele>
        <time>2021-04-06T08:15:34Z</time>
      </trkpt>
      <trkpt lat="43.108004" lon="-2.285423">
        <ele>925.926</ele>
        <time>2021-04-06T08:15:35Z</time>
      </trkpt>
      <trkpt lat="43.108040" lon="-2.285432">
        <ele>925.283</ele>
        <time>2021-04-06T08:15:36Z</time>
      </trkpt>
      <trkpt lat="43.108074" lon="-2.285430">
        <ele>924.631</ele>
        <time>2021-04-06T08:15:37Z</time>
      </trkpt>
      <trkpt lat="43.108177" lon="-2.285390">
        <ele>923.322</ele>
        <time>2021-04-06T08:15:40Z</time>
      </trkpt>
      <trkpt lat="43.108222" lon="-2.285411">
        <ele>922.462</ele>
        <time>2021-04-06T08:15:42Z</time>
      </trkpt>
      <trkpt lat="43.108250" lon="-2.285423">
        <ele>921.808</ele>
        <time>2021-04-06T08:15:43Z</time>
      </trkpt>
      <trkpt lat="43.108275" lon="-2.285426">
        <ele>921.408</ele>
        <time>2021-04-06T08:15:44Z</time>
      </trkpt>
      <trkpt lat="43.108298" lon="-2.285432">
        <ele>920.929</ele>
        <time>2021-04-06T08:15:45Z</time>
      </trkpt>
      <trkpt lat="43.108319" lon="-2.285437">
        <ele>920.572</ele>
        <time>2021-04-06T08:15:46Z</time>
      </trkpt>
      <trkpt lat="43.108342" lon="-2.285446">
        <ele>920.043</ele>
        <time>2021-04-06T08:15:47Z</time>
      </trkpt>
      <trkpt lat="43.108362" lon="-2.285460">
        <ele>919.428</ele>
        <time>2021-04-06T08:15:48Z</time>
      </trkpt>
      <trkpt lat="43.108395" lon="-2.285500">
        <ele>918.463</ele>
        <time>2021-04-06T08:15:50Z</time>
      </trkpt>
      <trkpt lat="43.108411" lon="-2.285540">
        <ele>917.771</ele>
        <time>2021-04-06T08:15:52Z</time>
      </trkpt>
      <trkpt lat="43.108430" lon="-2.285552">
        <ele>917.358</ele>
        <time>2021-04-06T08:15:53Z</time>
      </trkpt>
      <trkpt lat="43.108448" lon="-2.285555">
        <ele>916.966</ele>
        <time>2021-04-06T08:15:54Z</time>
      </trkpt>
      <trkpt lat="43.108466" lon="-2.285549">
        <ele>916.786</ele>
        <time>2021-04-06T08:15:55Z</time>
      </trkpt>
      <trkpt lat="43.108492" lon="-2.285541">
        <ele>916.260</ele>
        <time>2021-04-06T08:15:59Z</time>
      </trkpt>
      <trkpt lat="43.108523" lon="-2.285534">
        <ele>915.726</ele>
        <time>2021-04-06T08:16:01Z</time>
      </trkpt>
      <trkpt lat="43.108557" lon="-2.285529">
        <ele>915.108</ele>
        <time>2021-04-06T08:16:03Z</time>
      </trkpt>
      <trkpt lat="43.108580" lon="-2.285536">
        <ele>914.635</ele>
        <time>2021-04-06T08:16:05Z</time>
      </trkpt>
      <trkpt lat="43.108608" lon="-2.285545">
        <ele>914.178</ele>
        <time>2021-04-06T08:16:07Z</time>
      </trkpt>
      <trkpt lat="43.108625" lon="-2.285552">
        <ele>913.749</ele>
        <time>2021-04-06T08:16:08Z</time>
      </trkpt>
      <trkpt lat="43.108653" lon="-2.285564">
        <ele>913.074</ele>
        <time>2021-04-06T08:16:10Z</time>
      </trkpt>
      <trkpt lat="43.108672" lon="-2.285570">
        <ele>912.639</ele>
        <time>2021-04-06T08:16:11Z</time>
      </trkpt>
      <trkpt lat="43.108691" lon="-2.285576">
        <ele>912.147</ele>
        <time>2021-04-06T08:16:12Z</time>
      </trkpt>
      <trkpt lat="43.108709" lon="-2.285583">
        <ele>911.714</ele>
        <time>2021-04-06T08:16:13Z</time>
      </trkpt>
      <trkpt lat="43.108726" lon="-2.285595">
        <ele>911.242</ele>
        <time>2021-04-06T08:16:14Z</time>
      </trkpt>
      <trkpt lat="43.108747" lon="-2.285605">
        <ele>910.722</ele>
        <time>2021-04-06T08:16:15Z</time>
      </trkpt>
      <trkpt lat="43.108770" lon="-2.285614">
        <ele>910.162</ele>
        <time>2021-04-06T08:16:16Z</time>
      </trkpt>
      <trkpt lat="43.108788" lon="-2.285627">
        <ele>909.708</ele>
        <time>2021-04-06T08:16:17Z</time>
      </trkpt>
      <trkpt lat="43.108819" lon="-2.285632">
        <ele>909.008</ele>
        <time>2021-04-06T08:16:18Z</time>
      </trkpt>
      <trkpt lat="43.108848" lon="-2.285639">
        <ele>908.329</ele>
        <time>2021-04-06T08:16:19Z</time>
      </trkpt>
      <trkpt lat="43.108877" lon="-2.285647">
        <ele>907.692</ele>
        <time>2021-04-06T08:16:20Z</time>
      </trkpt>
      <trkpt lat="43.108910" lon="-2.285653">
        <ele>906.923</ele>
        <time>2021-04-06T08:16:21Z</time>
      </trkpt>
      <trkpt lat="43.108937" lon="-2.285662">
        <ele>906.338</ele>
        <time>2021-04-06T08:16:22Z</time>
      </trkpt>
      <trkpt lat="43.108963" lon="-2.285678">
        <ele>905.623</ele>
        <time>2021-04-06T08:16:23Z</time>
      </trkpt>
      <trkpt lat="43.109075" lon="-2.285705">
        <ele>903.371</ele>
        <time>2021-04-06T08:16:27Z</time>
      </trkpt>
      <trkpt lat="43.109102" lon="-2.285705">
        <ele>902.748</ele>
        <time>2021-04-06T08:16:28Z</time>
      </trkpt>
      <trkpt lat="43.109150" lon="-2.285725">
        <ele>901.746</ele>
        <time>2021-04-06T08:16:30Z</time>
      </trkpt>
      <trkpt lat="43.109232" lon="-2.285774">
        <ele>900.245</ele>
        <time>2021-04-06T08:16:34Z</time>
      </trkpt>
      <trkpt lat="43.109259" lon="-2.285781">
        <ele>899.747</ele>
        <time>2021-04-06T08:16:35Z</time>
      </trkpt>
      <trkpt lat="43.109348" lon="-2.285715">
        <ele>898.311</ele>
        <time>2021-04-06T08:16:39Z</time>
      </trkpt>
      <trkpt lat="43.109386" lon="-2.285678">
        <ele>897.508</ele>
        <time>2021-04-06T08:16:41Z</time>
      </trkpt>
      <trkpt lat="43.109418" lon="-2.285691">
        <ele>897.031</ele>
        <time>2021-04-06T08:16:43Z</time>
      </trkpt>
      <trkpt lat="43.109448" lon="-2.285711">
        <ele>896.514</ele>
        <time>2021-04-06T08:16:45Z</time>
      </trkpt>
      <trkpt lat="43.109471" lon="-2.285730">
        <ele>896.025</ele>
        <time>2021-04-06T08:16:47Z</time>
      </trkpt>
      <trkpt lat="43.109505" lon="-2.285745">
        <ele>895.320</ele>
        <time>2021-04-06T08:16:50Z</time>
      </trkpt>
      <trkpt lat="43.109520" lon="-2.285755">
        <ele>895.045</ele>
        <time>2021-04-06T08:16:51Z</time>
      </trkpt>
      <trkpt lat="43.109542" lon="-2.285768">
        <ele>894.693</ele>
        <time>2021-04-06T08:16:52Z</time>
      </trkpt>
      <trkpt lat="43.109563" lon="-2.285767">
        <ele>894.170</ele>
        <time>2021-04-06T08:16:53Z</time>
      </trkpt>
      <trkpt lat="43.109583" lon="-2.285765">
        <ele>893.688</ele>
        <time>2021-04-06T08:16:54Z</time>
      </trkpt>
      <trkpt lat="43.109602" lon="-2.285762">
        <ele>893.215</ele>
        <time>2021-04-06T08:16:55Z</time>
      </trkpt>
      <trkpt lat="43.109619" lon="-2.285762">
        <ele>892.865</ele>
        <time>2021-04-06T08:16:56Z</time>
      </trkpt>
      <trkpt lat="43.109639" lon="-2.285766">
        <ele>892.411</ele>
        <time>2021-04-06T08:16:57Z</time>
      </trkpt>
      <trkpt lat="43.109671" lon="-2.285759">
        <ele>891.608</ele>
        <time>2021-04-06T08:16:59Z</time>
      </trkpt>
      <trkpt lat="43.109690" lon="-2.285748">
        <ele>891.188</ele>
        <time>2021-04-06T08:17:00Z</time>
      </trkpt>
      <trkpt lat="43.109723" lon="-2.285738">
        <ele>890.341</ele>
        <time>2021-04-06T08:17:02Z</time>
      </trkpt>
      <trkpt lat="43.109745" lon="-2.285724">
        <ele>889.722</ele>
        <time>2021-04-06T08:17:04Z</time>
      </trkpt>
      <trkpt lat="43.109752" lon="-2.285694">
        <ele>889.467</ele>
        <time>2021-04-06T08:17:06Z</time>
      </trkpt>
      <trkpt lat="43.109781" lon="-2.285693">
        <ele>888.722</ele>
        <time>2021-04-06T08:17:08Z</time>
      </trkpt>
      <trkpt lat="43.109808" lon="-2.285715">
        <ele>888.390</ele>
        <time>2021-04-06T08:17:10Z</time>
      </trkpt>
      <trkpt lat="43.109833" lon="-2.285737">
        <ele>887.937</ele>
        <time>2021-04-06T08:17:12Z</time>
      </trkpt>
      <trkpt lat="43.109859" lon="-2.285755">
        <ele>887.545</ele>
        <time>2021-04-06T08:17:14Z</time>
      </trkpt>
      <trkpt lat="43.109881" lon="-2.285774">
        <ele>887.128</ele>
        <time>2021-04-06T08:17:16Z</time>
      </trkpt>
      <trkpt lat="43.109904" lon="-2.285798">
        <ele>886.889</ele>
        <time>2021-04-06T08:17:18Z</time>
      </trkpt>
      <trkpt lat="43.109933" lon="-2.285816">
        <ele>886.317</ele>
        <time>2021-04-06T08:17:19Z</time>
      </trkpt>
      <trkpt lat="43.109951" lon="-2.285823">
        <ele>886.008</ele>
        <time>2021-04-06T08:17:21Z</time>
      </trkpt>
      <trkpt lat="43.109983" lon="-2.285834">
        <ele>885.439</ele>
        <time>2021-04-06T08:17:23Z</time>
      </trkpt>
      <trkpt lat="43.110010" lon="-2.285847">
        <ele>884.772</ele>
        <time>2021-04-06T08:17:24Z</time>
      </trkpt>
      <trkpt lat="43.110032" lon="-2.285866">
        <ele>884.183</ele>
        <time>2021-04-06T08:17:27Z</time>
      </trkpt>
      <trkpt lat="43.110044" lon="-2.285881">
        <ele>883.798</ele>
        <time>2021-04-06T08:17:28Z</time>
      </trkpt>
      <trkpt lat="43.110058" lon="-2.285902">
        <ele>883.343</ele>
        <time>2021-04-06T08:17:29Z</time>
      </trkpt>
      <trkpt lat="43.110076" lon="-2.285927">
        <ele>882.771</ele>
        <time>2021-04-06T08:17:30Z</time>
      </trkpt>
      <trkpt lat="43.110094" lon="-2.285954">
        <ele>882.158</ele>
        <time>2021-04-06T08:17:31Z</time>
      </trkpt>
      <trkpt lat="43.110113" lon="-2.285985">
        <ele>881.566</ele>
        <time>2021-04-06T08:17:32Z</time>
      </trkpt>
      <trkpt lat="43.110138" lon="-2.286016">
        <ele>880.781</ele>
        <time>2021-04-06T08:17:33Z</time>
      </trkpt>
      <trkpt lat="43.110164" lon="-2.286047">
        <ele>879.961</ele>
        <time>2021-04-06T08:17:34Z</time>
      </trkpt>
      <trkpt lat="43.110193" lon="-2.286080">
        <ele>879.117</ele>
        <time>2021-04-06T08:17:35Z</time>
      </trkpt>
      <trkpt lat="43.110220" lon="-2.286114">
        <ele>878.208</ele>
        <time>2021-04-06T08:17:36Z</time>
      </trkpt>
      <trkpt lat="43.110245" lon="-2.286148">
        <ele>877.395</ele>
        <time>2021-04-06T08:17:37Z</time>
      </trkpt>
      <trkpt lat="43.110268" lon="-2.286180">
        <ele>876.578</ele>
        <time>2021-04-06T08:17:38Z</time>
      </trkpt>
      <trkpt lat="43.110290" lon="-2.286209">
        <ele>875.659</ele>
        <time>2021-04-06T08:17:39Z</time>
      </trkpt>
      <trkpt lat="43.110312" lon="-2.286239">
        <ele>874.644</ele>
        <time>2021-04-06T08:17:40Z</time>
      </trkpt>
      <trkpt lat="43.110335" lon="-2.286267">
        <ele>873.759</ele>
        <time>2021-04-06T08:17:41Z</time>
      </trkpt>
      <trkpt lat="43.110371" lon="-2.286291">
        <ele>872.557</ele>
        <time>2021-04-06T08:17:42Z</time>
      </trkpt>
      <trkpt lat="43.110443" lon="-2.286326">
        <ele>870.254</ele>
        <time>2021-04-06T08:17:44Z</time>
      </trkpt>
      <trkpt lat="43.110470" lon="-2.286350">
        <ele>869.462</ele>
        <time>2021-04-06T08:17:45Z</time>
      </trkpt>
      <trkpt lat="43.110492" lon="-2.286382">
        <ele>868.622</ele>
        <time>2021-04-06T08:17:46Z</time>
      </trkpt>
      <trkpt lat="43.110513" lon="-2.286407">
        <ele>867.962</ele>
        <time>2021-04-06T08:17:47Z</time>
      </trkpt>
      <trkpt lat="43.110535" lon="-2.286437">
        <ele>867.008</ele>
        <time>2021-04-06T08:17:48Z</time>
      </trkpt>
      <trkpt lat="43.110560" lon="-2.286466">
        <ele>866.008</ele>
        <time>2021-04-06T08:17:49Z</time>
      </trkpt>
      <trkpt lat="43.110582" lon="-2.286492">
        <ele>865.159</ele>
        <time>2021-04-06T08:17:50Z</time>
      </trkpt>
      <trkpt lat="43.110604" lon="-2.286518">
        <ele>864.362</ele>
        <time>2021-04-06T08:17:51Z</time>
      </trkpt>
      <trkpt lat="43.110633" lon="-2.286545">
        <ele>863.363</ele>
        <time>2021-04-06T08:17:52Z</time>
      </trkpt>
      <trkpt lat="43.110658" lon="-2.286579">
        <ele>862.448</ele>
        <time>2021-04-06T08:17:53Z</time>
      </trkpt>
      <trkpt lat="43.110748" lon="-2.286679">
        <ele>859.763</ele>
        <time>2021-04-06T08:17:56Z</time>
      </trkpt>
      <trkpt lat="43.110819" lon="-2.286776">
        <ele>857.521</ele>
        <time>2021-04-06T08:17:59Z</time>
      </trkpt>
      <trkpt lat="43.110926" lon="-2.286883">
        <ele>854.658</ele>
        <time>2021-04-06T08:18:03Z</time>
      </trkpt>
      <trkpt lat="43.110982" lon="-2.286900">
        <ele>853.486</ele>
        <time>2021-04-06T08:18:07Z</time>
      </trkpt>
      <trkpt lat="43.110964" lon="-2.286883">
        <ele>853.816</ele>
        <time>2021-04-06T08:18:08Z</time>
      </trkpt>
      <trkpt lat="43.110971" lon="-2.286912">
        <ele>853.676</ele>
        <time>2021-04-06T08:18:12Z</time>
      </trkpt>
      <trkpt lat="43.110987" lon="-2.286929">
        <ele>853.313</ele>
        <time>2021-04-06T08:18:13Z</time>
      </trkpt>
      <trkpt lat="43.111009" lon="-2.286946">
        <ele>852.808</ele>
        <time>2021-04-06T08:18:14Z</time>
      </trkpt>
      <trkpt lat="43.111033" lon="-2.286963">
        <ele>852.478</ele>
        <time>2021-04-06T08:18:15Z</time>
      </trkpt>
      <trkpt lat="43.111059" lon="-2.286984">
        <ele>851.981</ele>
        <time>2021-04-06T08:18:16Z</time>
      </trkpt>
      <trkpt lat="43.111085" lon="-2.287021">
        <ele>851.462</ele>
        <time>2021-04-06T08:18:17Z</time>
      </trkpt>
      <trkpt lat="43.111115" lon="-2.287051">
        <ele>850.997</ele>
        <time>2021-04-06T08:18:18Z</time>
      </trkpt>
      <trkpt lat="43.111132" lon="-2.287088">
        <ele>850.792</ele>
        <time>2021-04-06T08:18:19Z</time>
      </trkpt>
      <trkpt lat="43.111148" lon="-2.287124">
        <ele>850.580</ele>
        <time>2021-04-06T08:18:20Z</time>
      </trkpt>
      <trkpt lat="43.111169" lon="-2.287164">
        <ele>850.427</ele>
        <time>2021-04-06T08:18:21Z</time>
      </trkpt>
      <trkpt lat="43.111191" lon="-2.287208">
        <ele>850.495</ele>
        <time>2021-04-06T08:18:22Z</time>
      </trkpt>
      <trkpt lat="43.111220" lon="-2.287250">
        <ele>850.123</ele>
        <time>2021-04-06T08:18:23Z</time>
      </trkpt>
      <trkpt lat="43.111249" lon="-2.287287">
        <ele>849.883</ele>
        <time>2021-04-06T08:18:24Z</time>
      </trkpt>
      <trkpt lat="43.111274" lon="-2.287327">
        <ele>849.511</ele>
        <time>2021-04-06T08:18:25Z</time>
      </trkpt>
      <trkpt lat="43.111299" lon="-2.287367">
        <ele>849.308</ele>
        <time>2021-04-06T08:18:26Z</time>
      </trkpt>
      <trkpt lat="43.111324" lon="-2.287394">
        <ele>849.289</ele>
        <time>2021-04-06T08:18:27Z</time>
      </trkpt>
      <trkpt lat="43.111369" lon="-2.287440">
        <ele>849.052</ele>
        <time>2021-04-06T08:18:28Z</time>
      </trkpt>
      <trkpt lat="43.111394" lon="-2.287460">
        <ele>849.163</ele>
        <time>2021-04-06T08:18:30Z</time>
      </trkpt>
      <trkpt lat="43.111418" lon="-2.287484">
        <ele>849.438</ele>
        <time>2021-04-06T08:18:31Z</time>
      </trkpt>
      <trkpt lat="43.111442" lon="-2.287503">
        <ele>849.893</ele>
        <time>2021-04-06T08:18:32Z</time>
      </trkpt>
      <trkpt lat="43.111458" lon="-2.287525">
        <ele>849.961</ele>
        <time>2021-04-06T08:18:33Z</time>
      </trkpt>
      <trkpt lat="43.111473" lon="-2.287549">
        <ele>850.118</ele>
        <time>2021-04-06T08:18:34Z</time>
      </trkpt>
      <trkpt lat="43.111492" lon="-2.287568">
        <ele>850.326</ele>
        <time>2021-04-06T08:18:35Z</time>
      </trkpt>
      <trkpt lat="43.111506" lon="-2.287587">
        <ele>850.572</ele>
        <time>2021-04-06T08:18:36Z</time>
      </trkpt>
      <trkpt lat="43.111539" lon="-2.287637">
        <ele>850.913</ele>
        <time>2021-04-06T08:18:37Z</time>
      </trkpt>
      <trkpt lat="43.111612" lon="-2.287729">
        <ele>852.114</ele>
        <time>2021-04-06T08:18:42Z</time>
      </trkpt>
      <trkpt lat="43.111649" lon="-2.287785">
        <ele>852.608</ele>
        <time>2021-04-06T08:18:44Z</time>
      </trkpt>
      <trkpt lat="43.111671" lon="-2.287806">
        <ele>852.874</ele>
        <time>2021-04-06T08:18:45Z</time>
      </trkpt>
      <trkpt lat="43.111693" lon="-2.287834">
        <ele>852.737</ele>
        <time>2021-04-06T08:18:46Z</time>
      </trkpt>
      <trkpt lat="43.111717" lon="-2.287854">
        <ele>852.888</ele>
        <time>2021-04-06T08:18:47Z</time>
      </trkpt>
      <trkpt lat="43.111764" lon="-2.287891">
        <ele>853.083</ele>
        <time>2021-04-06T08:18:48Z</time>
      </trkpt>
      <trkpt lat="43.111784" lon="-2.287915">
        <ele>853.118</ele>
        <time>2021-04-06T08:18:50Z</time>
      </trkpt>
      <trkpt lat="43.111803" lon="-2.287936">
        <ele>853.246</ele>
        <time>2021-04-06T08:18:51Z</time>
      </trkpt>
      <trkpt lat="43.111820" lon="-2.287959">
        <ele>853.393</ele>
        <time>2021-04-06T08:18:52Z</time>
      </trkpt>
      <trkpt lat="43.111837" lon="-2.287980">
        <ele>853.521</ele>
        <time>2021-04-06T08:18:53Z</time>
      </trkpt>
      <trkpt lat="43.111857" lon="-2.288001">
        <ele>853.753</ele>
        <time>2021-04-06T08:18:54Z</time>
      </trkpt>
      <trkpt lat="43.111880" lon="-2.288022">
        <ele>854.004</ele>
        <time>2021-04-06T08:18:55Z</time>
      </trkpt>
      <trkpt lat="43.111901" lon="-2.288043">
        <ele>854.414</ele>
        <time>2021-04-06T08:18:56Z</time>
      </trkpt>
      <trkpt lat="43.111917" lon="-2.288065">
        <ele>854.508</ele>
        <time>2021-04-06T08:18:57Z</time>
      </trkpt>
      <trkpt lat="43.111936" lon="-2.288085">
        <ele>854.692</ele>
        <time>2021-04-06T08:18:58Z</time>
      </trkpt>
      <trkpt lat="43.111979" lon="-2.288115">
        <ele>854.715</ele>
        <time>2021-04-06T08:19:00Z</time>
      </trkpt>
      <trkpt lat="43.112000" lon="-2.288136">
        <ele>854.656</ele>
        <time>2021-04-06T08:19:01Z</time>
      </trkpt>
      <trkpt lat="43.112014" lon="-2.288158">
        <ele>854.651</ele>
        <time>2021-04-06T08:19:02Z</time>
      </trkpt>
      <trkpt lat="43.112033" lon="-2.288178">
        <ele>854.696</ele>
        <time>2021-04-06T08:19:03Z</time>
      </trkpt>
      <trkpt lat="43.112052" lon="-2.288196">
        <ele>854.644</ele>
        <time>2021-04-06T08:19:04Z</time>
      </trkpt>
      <trkpt lat="43.112074" lon="-2.288214">
        <ele>854.821</ele>
        <time>2021-04-06T08:19:05Z</time>
      </trkpt>
      <trkpt lat="43.112090" lon="-2.288230">
        <ele>854.819</ele>
        <time>2021-04-06T08:19:06Z</time>
      </trkpt>
      <trkpt lat="43.112110" lon="-2.288242">
        <ele>855.048</ele>
        <time>2021-04-06T08:19:07Z</time>
      </trkpt>
      <trkpt lat="43.112143" lon="-2.288275">
        <ele>855.261</ele>
        <time>2021-04-06T08:19:08Z</time>
      </trkpt>
      <trkpt lat="43.112160" lon="-2.288292">
        <ele>855.317</ele>
        <time>2021-04-06T08:19:10Z</time>
      </trkpt>
      <trkpt lat="43.112182" lon="-2.288328">
        <ele>855.408</ele>
        <time>2021-04-06T08:19:12Z</time>
      </trkpt>
      <trkpt lat="43.112198" lon="-2.288349">
        <ele>855.521</ele>
        <time>2021-04-06T08:19:13Z</time>
      </trkpt>
      <trkpt lat="43.112220" lon="-2.288369">
        <ele>855.664</ele>
        <time>2021-04-06T08:19:14Z</time>
      </trkpt>
      <trkpt lat="43.112237" lon="-2.288386">
        <ele>855.745</ele>
        <time>2021-04-06T08:19:15Z</time>
      </trkpt>
      <trkpt lat="43.112255" lon="-2.288400">
        <ele>855.820</ele>
        <time>2021-04-06T08:19:16Z</time>
      </trkpt>
      <trkpt lat="43.112276" lon="-2.288410">
        <ele>856.055</ele>
        <time>2021-04-06T08:19:17Z</time>
      </trkpt>
      <trkpt lat="43.112308" lon="-2.288434">
        <ele>856.333</ele>
        <time>2021-04-06T08:19:18Z</time>
      </trkpt>
      <trkpt lat="43.112324" lon="-2.288448">
        <ele>856.450</ele>
        <time>2021-04-06T08:19:20Z</time>
      </trkpt>
      <trkpt lat="43.112363" lon="-2.288474">
        <ele>856.878</ele>
        <time>2021-04-06T08:19:22Z</time>
      </trkpt>
      <trkpt lat="43.112386" lon="-2.288489">
        <ele>857.086</ele>
        <time>2021-04-06T08:19:23Z</time>
      </trkpt>
      <trkpt lat="43.112416" lon="-2.288499">
        <ele>857.460</ele>
        <time>2021-04-06T08:19:24Z</time>
      </trkpt>
      <trkpt lat="43.112444" lon="-2.288509">
        <ele>857.826</ele>
        <time>2021-04-06T08:19:25Z</time>
      </trkpt>
      <trkpt lat="43.112472" lon="-2.288519">
        <ele>858.208</ele>
        <time>2021-04-06T08:19:26Z</time>
      </trkpt>
      <trkpt lat="43.112502" lon="-2.288536">
        <ele>858.575</ele>
        <time>2021-04-06T08:19:27Z</time>
      </trkpt>
      <trkpt lat="43.112616" lon="-2.288618">
        <ele>858.368</ele>
        <time>2021-04-06T08:19:31Z</time>
      </trkpt>
      <trkpt lat="43.112644" lon="-2.288631">
        <ele>858.239</ele>
        <time>2021-04-06T08:19:33Z</time>
      </trkpt>
      <trkpt lat="43.112678" lon="-2.288641">
        <ele>858.244</ele>
        <time>2021-04-06T08:19:34Z</time>
      </trkpt>
      <trkpt lat="43.112710" lon="-2.288650">
        <ele>858.219</ele>
        <time>2021-04-06T08:19:35Z</time>
      </trkpt>
      <trkpt lat="43.112813" lon="-2.288705">
        <ele>857.917</ele>
        <time>2021-04-06T08:19:39Z</time>
      </trkpt>
      <trkpt lat="43.112845" lon="-2.288715">
        <ele>857.984</ele>
        <time>2021-04-06T08:19:40Z</time>
      </trkpt>
      <trkpt lat="43.112908" lon="-2.288730">
        <ele>858.082</ele>
        <time>2021-04-06T08:19:42Z</time>
      </trkpt>
      <trkpt lat="43.112956" lon="-2.288732">
        <ele>858.376</ele>
        <time>2021-04-06T08:19:44Z</time>
      </trkpt>
      <trkpt lat="43.113056" lon="-2.288764">
        <ele>858.390</ele>
        <time>2021-04-06T08:19:47Z</time>
      </trkpt>
      <trkpt lat="43.113119" lon="-2.288783">
        <ele>858.519</ele>
        <time>2021-04-06T08:19:50Z</time>
      </trkpt>
      <trkpt lat="43.113149" lon="-2.288796">
        <ele>858.608</ele>
        <time>2021-04-06T08:19:51Z</time>
      </trkpt>
      <trkpt lat="43.113172" lon="-2.288808">
        <ele>858.614</ele>
        <time>2021-04-06T08:19:52Z</time>
      </trkpt>
      <trkpt lat="43.113194" lon="-2.288819">
        <ele>858.647</ele>
        <time>2021-04-06T08:19:53Z</time>
      </trkpt>
      <trkpt lat="43.113214" lon="-2.288832">
        <ele>858.688</ele>
        <time>2021-04-06T08:19:54Z</time>
      </trkpt>
      <trkpt lat="43.113231" lon="-2.288844">
        <ele>858.693</ele>
        <time>2021-04-06T08:19:55Z</time>
      </trkpt>
      <trkpt lat="43.113251" lon="-2.288854">
        <ele>858.668</ele>
        <time>2021-04-06T08:19:56Z</time>
      </trkpt>
      <trkpt lat="43.113355" lon="-2.288915">
        <ele>858.616</ele>
        <time>2021-04-06T08:20:00Z</time>
      </trkpt>
      <trkpt lat="43.113442" lon="-2.288976">
        <ele>858.063</ele>
        <time>2021-04-06T08:20:04Z</time>
      </trkpt>
      <trkpt lat="43.113465" lon="-2.288991">
        <ele>857.921</ele>
        <time>2021-04-06T08:20:05Z</time>
      </trkpt>
      <trkpt lat="43.113565" lon="-2.289080">
        <ele>857.165</ele>
        <time>2021-04-06T08:20:09Z</time>
      </trkpt>
      <trkpt lat="43.113653" lon="-2.289167">
        <ele>856.168</ele>
        <time>2021-04-06T08:20:12Z</time>
      </trkpt>
      <trkpt lat="43.113689" lon="-2.289214">
        <ele>855.314</ele>
        <time>2021-04-06T08:20:14Z</time>
      </trkpt>
      <trkpt lat="43.113710" lon="-2.289245">
        <ele>854.808</ele>
        <time>2021-04-06T08:20:15Z</time>
      </trkpt>
      <trkpt lat="43.113733" lon="-2.289269">
        <ele>854.493</ele>
        <time>2021-04-06T08:20:17Z</time>
      </trkpt>
      <trkpt lat="43.113755" lon="-2.289298">
        <ele>853.976</ele>
        <time>2021-04-06T08:20:18Z</time>
      </trkpt>
      <trkpt lat="43.113820" lon="-2.289381">
        <ele>852.787</ele>
        <time>2021-04-06T08:20:21Z</time>
      </trkpt>
      <trkpt lat="43.113918" lon="-2.289477">
        <ele>851.452</ele>
        <time>2021-04-06T08:20:24Z</time>
      </trkpt>
      <trkpt lat="43.113941" lon="-2.289506">
        <ele>851.057</ele>
        <time>2021-04-06T08:20:26Z</time>
      </trkpt>
      <trkpt lat="43.114010" lon="-2.289602">
        <ele>849.585</ele>
        <time>2021-04-06T08:20:29Z</time>
      </trkpt>
      <trkpt lat="43.114067" lon="-2.289738">
        <ele>847.782</ele>
        <time>2021-04-06T08:20:33Z</time>
      </trkpt>
      <trkpt lat="43.114078" lon="-2.289777">
        <ele>847.180</ele>
        <time>2021-04-06T08:20:34Z</time>
      </trkpt>
      <trkpt lat="43.114106" lon="-2.289897">
        <ele>845.266</ele>
        <time>2021-04-06T08:20:36Z</time>
      </trkpt>
      <trkpt lat="43.114134" lon="-2.290022">
        <ele>843.429</ele>
        <time>2021-04-06T08:20:40Z</time>
      </trkpt>
      <trkpt lat="43.114178" lon="-2.290159">
        <ele>841.721</ele>
        <time>2021-04-06T08:20:44Z</time>
      </trkpt>
      <trkpt lat="43.114208" lon="-2.290278">
        <ele>840.008</ele>
        <time>2021-04-06T08:20:47Z</time>
      </trkpt>
      <trkpt lat="43.114217" lon="-2.290400">
        <ele>838.353</ele>
        <time>2021-04-06T08:20:50Z</time>
      </trkpt>
      <trkpt lat="43.114244" lon="-2.290538">
        <ele>836.536</ele>
        <time>2021-04-06T08:20:52Z</time>
      </trkpt>
      <trkpt lat="43.114253" lon="-2.290682">
        <ele>835.327</ele>
        <time>2021-04-06T08:20:56Z</time>
      </trkpt>
      <trkpt lat="43.114273" lon="-2.290832">
        <ele>834.072</ele>
        <time>2021-04-06T08:20:58Z</time>
      </trkpt>
      <trkpt lat="43.114291" lon="-2.290971">
        <ele>832.737</ele>
        <time>2021-04-06T08:21:02Z</time>
      </trkpt>
      <trkpt lat="43.114308" lon="-2.291092">
        <ele>831.785</ele>
        <time>2021-04-06T08:21:04Z</time>
      </trkpt>
      <trkpt lat="43.114328" lon="-2.291224">
        <ele>830.822</ele>
        <time>2021-04-06T08:21:08Z</time>
      </trkpt>
      <trkpt lat="43.114338" lon="-2.291347">
        <ele>829.980</ele>
        <time>2021-04-06T08:21:12Z</time>
      </trkpt>
      <trkpt lat="43.114331" lon="-2.291472">
        <ele>829.031</ele>
        <time>2021-04-06T08:21:16Z</time>
      </trkpt>
      <trkpt lat="43.114316" lon="-2.291597">
        <ele>828.061</ele>
        <time>2021-04-06T08:21:19Z</time>
      </trkpt>
      <trkpt lat="43.114281" lon="-2.291722">
        <ele>826.807</ele>
        <time>2021-04-06T08:21:23Z</time>
      </trkpt>
      <trkpt lat="43.114286" lon="-2.291872">
        <ele>825.208</ele>
        <time>2021-04-06T08:21:26Z</time>
      </trkpt>
      <trkpt lat="43.114304" lon="-2.292004">
        <ele>823.790</ele>
        <time>2021-04-06T08:21:29Z</time>
      </trkpt>
      <trkpt lat="43.114276" lon="-2.292085">
        <ele>822.713</ele>
        <time>2021-04-06T08:21:33Z</time>
      </trkpt>
      <trkpt lat="43.114281" lon="-2.292127">
        <ele>822.294</ele>
        <time>2021-04-06T08:21:34Z</time>
      </trkpt>
      <trkpt lat="43.114307" lon="-2.292189">
        <ele>821.479</ele>
        <time>2021-04-06T08:21:35Z</time>
      </trkpt>
      <trkpt lat="43.114362" lon="-2.292240">
        <ele>820.614</ele>
        <time>2021-04-06T08:21:37Z</time>
      </trkpt>
      <trkpt lat="43.114429" lon="-2.292267">
        <ele>820.032</ele>
        <time>2021-04-06T08:21:39Z</time>
      </trkpt>
      <trkpt lat="43.114457" lon="-2.292267">
        <ele>819.949</ele>
        <time>2021-04-06T08:21:40Z</time>
      </trkpt>
      <trkpt lat="43.114529" lon="-2.292274">
        <ele>819.137</ele>
        <time>2021-04-06T08:21:42Z</time>
      </trkpt>
      <trkpt lat="43.114564" lon="-2.292275">
        <ele>818.887</ele>
        <time>2021-04-06T08:21:43Z</time>
      </trkpt>
      <trkpt lat="43.114599" lon="-2.292275">
        <ele>818.442</ele>
        <time>2021-04-06T08:21:44Z</time>
      </trkpt>
      <trkpt lat="43.114659" lon="-2.292287">
        <ele>817.526</ele>
        <time>2021-04-06T08:21:46Z</time>
      </trkpt>
      <trkpt lat="43.114720" lon="-2.292284">
        <ele>817.008</ele>
        <time>2021-04-06T08:21:48Z</time>
      </trkpt>
      <trkpt lat="43.114747" lon="-2.292286">
        <ele>816.775</ele>
        <time>2021-04-06T08:21:49Z</time>
      </trkpt>
      <trkpt lat="43.114797" lon="-2.292292">
        <ele>815.948</ele>
        <time>2021-04-06T08:21:51Z</time>
      </trkpt>
      <trkpt lat="43.114824" lon="-2.292297">
        <ele>815.579</ele>
        <time>2021-04-06T08:21:52Z</time>
      </trkpt>
      <trkpt lat="43.114923" lon="-2.292312">
        <ele>813.914</ele>
        <time>2021-04-06T08:21:56Z</time>
      </trkpt>
      <trkpt lat="43.115023" lon="-2.292309">
        <ele>813.229</ele>
        <time>2021-04-06T08:21:59Z</time>
      </trkpt>
      <trkpt lat="43.115119" lon="-2.292310">
        <ele>813.127</ele>
        <time>2021-04-06T08:22:02Z</time>
      </trkpt>
      <trkpt lat="43.115218" lon="-2.292330">
        <ele>812.654</ele>
        <time>2021-04-06T08:22:05Z</time>
      </trkpt>
      <trkpt lat="43.115255" lon="-2.292336">
        <ele>812.522</ele>
        <time>2021-04-06T08:22:06Z</time>
      </trkpt>
      <trkpt lat="43.115285" lon="-2.292337">
        <ele>812.597</ele>
        <time>2021-04-06T08:22:07Z</time>
      </trkpt>
      <trkpt lat="43.115312" lon="-2.292331">
        <ele>812.523</ele>
        <time>2021-04-06T08:22:08Z</time>
      </trkpt>
      <trkpt lat="43.115366" lon="-2.292302">
        <ele>812.625</ele>
        <time>2021-04-06T08:22:09Z</time>
      </trkpt>
      <trkpt lat="43.115439" lon="-2.292256">
        <ele>812.408</ele>
        <time>2021-04-06T08:22:12Z</time>
      </trkpt>
      <trkpt lat="43.115551" lon="-2.292248">
        <ele>811.126</ele>
        <time>2021-04-06T08:22:17Z</time>
      </trkpt>
      <trkpt lat="43.115639" lon="-2.292278">
        <ele>809.869</ele>
        <time>2021-04-06T08:22:20Z</time>
      </trkpt>
      <trkpt lat="43.115738" lon="-2.292331">
        <ele>808.480</ele>
        <time>2021-04-06T08:22:23Z</time>
      </trkpt>
      <trkpt lat="43.115826" lon="-2.292373">
        <ele>807.215</ele>
        <time>2021-04-06T08:22:26Z</time>
      </trkpt>
      <trkpt lat="43.115922" lon="-2.292427">
        <ele>805.620</ele>
        <time>2021-04-06T08:22:29Z</time>
      </trkpt>
      <trkpt lat="43.116025" lon="-2.292482">
        <ele>803.828</ele>
        <time>2021-04-06T08:22:31Z</time>
      </trkpt>
      <trkpt lat="43.116130" lon="-2.292551">
        <ele>801.235</ele>
        <time>2021-04-06T08:22:35Z</time>
      </trkpt>
      <trkpt lat="43.116214" lon="-2.292629">
        <ele>798.633</ele>
        <time>2021-04-06T08:22:37Z</time>
      </trkpt>
      <trkpt lat="43.116279" lon="-2.292736">
        <ele>796.627</ele>
        <time>2021-04-06T08:22:41Z</time>
      </trkpt>
      <trkpt lat="43.116302" lon="-2.292813">
        <ele>795.568</ele>
        <time>2021-04-06T08:22:45Z</time>
      </trkpt>
      <trkpt lat="43.116344" lon="-2.292853">
        <ele>794.114</ele>
        <time>2021-04-06T08:22:47Z</time>
      </trkpt>
      <trkpt lat="43.116372" lon="-2.292871">
        <ele>793.308</ele>
        <time>2021-04-06T08:22:50Z</time>
      </trkpt>
      <trkpt lat="43.116409" lon="-2.292888">
        <ele>792.579</ele>
        <time>2021-04-06T08:22:52Z</time>
      </trkpt>
      <trkpt lat="43.116452" lon="-2.292907">
        <ele>791.692</ele>
        <time>2021-04-06T08:22:53Z</time>
      </trkpt>
      <trkpt lat="43.116505" lon="-2.292928">
        <ele>790.573</ele>
        <time>2021-04-06T08:22:56Z</time>
      </trkpt>
      <trkpt lat="43.116540" lon="-2.292925">
        <ele>790.058</ele>
        <time>2021-04-06T08:22:57Z</time>
      </trkpt>
      <trkpt lat="43.116570" lon="-2.292924">
        <ele>789.553</ele>
        <time>2021-04-06T08:22:58Z</time>
      </trkpt>
      <trkpt lat="43.116630" lon="-2.292920">
        <ele>788.681</ele>
        <time>2021-04-06T08:23:00Z</time>
      </trkpt>
      <trkpt lat="43.116655" lon="-2.292917">
        <ele>788.288</ele>
        <time>2021-04-06T08:23:01Z</time>
      </trkpt>
      <trkpt lat="43.116698" lon="-2.292919">
        <ele>787.016</ele>
        <time>2021-04-06T08:23:02Z</time>
      </trkpt>
      <trkpt lat="43.116795" lon="-2.293004">
        <ele>783.619</ele>
        <time>2021-04-06T08:23:07Z</time>
      </trkpt>
      <trkpt lat="43.116885" lon="-2.293084">
        <ele>780.409</ele>
        <time>2021-04-06T08:23:11Z</time>
      </trkpt>
      <trkpt lat="43.116969" lon="-2.293137">
        <ele>777.419</ele>
        <time>2021-04-06T08:23:14Z</time>
      </trkpt>
      <trkpt lat="43.117071" lon="-2.293150">
        <ele>774.508</ele>
        <time>2021-04-06T08:23:18Z</time>
      </trkpt>
      <trkpt lat="43.117172" lon="-2.293202">
        <ele>771.318</ele>
        <time>2021-04-06T08:23:21Z</time>
      </trkpt>
      <trkpt lat="43.117201" lon="-2.293213">
        <ele>770.441</ele>
        <time>2021-04-06T08:23:23Z</time>
      </trkpt>
      <trkpt lat="43.117233" lon="-2.293224">
        <ele>769.682</ele>
        <time>2021-04-06T08:23:24Z</time>
      </trkpt>
      <trkpt lat="43.117287" lon="-2.293234">
        <ele>768.527</ele>
        <time>2021-04-06T08:23:25Z</time>
      </trkpt>
      <trkpt lat="43.117315" lon="-2.293237">
        <ele>767.982</ele>
        <time>2021-04-06T08:23:27Z</time>
      </trkpt>
      <trkpt lat="43.117363" lon="-2.293244">
        <ele>766.980</ele>
        <time>2021-04-06T08:23:28Z</time>
      </trkpt>
      <trkpt lat="43.117387" lon="-2.293252">
        <ele>766.477</ele>
        <time>2021-04-06T08:23:30Z</time>
      </trkpt>
      <trkpt lat="43.117436" lon="-2.293275">
        <ele>765.465</ele>
        <time>2021-04-06T08:23:31Z</time>
      </trkpt>
      <trkpt lat="43.117461" lon="-2.293295">
        <ele>764.916</ele>
        <time>2021-04-06T08:23:33Z</time>
      </trkpt>
      <trkpt lat="43.117486" lon="-2.293315">
        <ele>764.376</ele>
        <time>2021-04-06T08:23:34Z</time>
      </trkpt>
      <trkpt lat="43.117534" lon="-2.293360">
        <ele>763.113</ele>
        <time>2021-04-06T08:23:35Z</time>
      </trkpt>
      <trkpt lat="43.117555" lon="-2.293383">
        <ele>762.508</ele>
        <time>2021-04-06T08:23:37Z</time>
      </trkpt>
      <trkpt lat="43.117578" lon="-2.293404">
        <ele>761.988</ele>
        <time>2021-04-06T08:23:38Z</time>
      </trkpt>
      <trkpt lat="43.117602" lon="-2.293427">
        <ele>761.351</ele>
        <time>2021-04-06T08:23:39Z</time>
      </trkpt>
      <trkpt lat="43.117629" lon="-2.293452">
        <ele>760.632</ele>
        <time>2021-04-06T08:23:40Z</time>
      </trkpt>
      <trkpt lat="43.117652" lon="-2.293475">
        <ele>760.027</ele>
        <time>2021-04-06T08:23:41Z</time>
      </trkpt>
      <trkpt lat="43.117672" lon="-2.293503">
        <ele>759.512</ele>
        <time>2021-04-06T08:23:42Z</time>
      </trkpt>
      <trkpt lat="43.117692" lon="-2.293529">
        <ele>758.920</ele>
        <time>2021-04-06T08:23:43Z</time>
      </trkpt>
      <trkpt lat="43.117745" lon="-2.293571">
        <ele>757.877</ele>
        <time>2021-04-06T08:23:45Z</time>
      </trkpt>
      <trkpt lat="43.117774" lon="-2.293583">
        <ele>757.395</ele>
        <time>2021-04-06T08:23:46Z</time>
      </trkpt>
      <trkpt lat="43.117805" lon="-2.293596">
        <ele>757.014</ele>
        <time>2021-04-06T08:23:47Z</time>
      </trkpt>
      <trkpt lat="43.117861" lon="-2.293636">
        <ele>755.954</ele>
        <time>2021-04-06T08:23:48Z</time>
      </trkpt>
      <trkpt lat="43.117890" lon="-2.293657">
        <ele>755.409</ele>
        <time>2021-04-06T08:23:50Z</time>
      </trkpt>
      <trkpt lat="43.117918" lon="-2.293677">
        <ele>754.908</ele>
        <time>2021-04-06T08:23:51Z</time>
      </trkpt>
      <trkpt lat="43.117946" lon="-2.293693">
        <ele>754.638</ele>
        <time>2021-04-06T08:23:52Z</time>
      </trkpt>
      <trkpt lat="43.117971" lon="-2.293709">
        <ele>754.231</ele>
        <time>2021-04-06T08:23:53Z</time>
      </trkpt>
      <trkpt lat="43.117999" lon="-2.293727">
        <ele>753.922</ele>
        <time>2021-04-06T08:23:54Z</time>
      </trkpt>
      <trkpt lat="43.118028" lon="-2.293745">
        <ele>753.617</ele>
        <time>2021-04-06T08:23:55Z</time>
      </trkpt>
      <trkpt lat="43.118056" lon="-2.293761">
        <ele>753.462</ele>
        <time>2021-04-06T08:23:56Z</time>
      </trkpt>
      <trkpt lat="43.118085" lon="-2.293774">
        <ele>753.020</ele>
        <time>2021-04-06T08:23:57Z</time>
      </trkpt>
      <trkpt lat="43.118108" lon="-2.293792">
        <ele>752.767</ele>
        <time>2021-04-06T08:23:58Z</time>
      </trkpt>
      <trkpt lat="43.118131" lon="-2.293807">
        <ele>752.525</ele>
        <time>2021-04-06T08:23:59Z</time>
      </trkpt>
      <trkpt lat="43.118155" lon="-2.293826">
        <ele>752.253</ele>
        <time>2021-04-06T08:24:00Z</time>
      </trkpt>
      <trkpt lat="43.118179" lon="-2.293846">
        <ele>751.904</ele>
        <time>2021-04-06T08:24:01Z</time>
      </trkpt>
      <trkpt lat="43.118231" lon="-2.293895">
        <ele>751.314</ele>
        <time>2021-04-06T08:24:02Z</time>
      </trkpt>
      <trkpt lat="43.118257" lon="-2.293922">
        <ele>751.108</ele>
        <time>2021-04-06T08:24:03Z</time>
      </trkpt>
      <trkpt lat="43.118271" lon="-2.293951">
        <ele>751.012</ele>
        <time>2021-04-06T08:24:05Z</time>
      </trkpt>
      <trkpt lat="43.118288" lon="-2.293979">
        <ele>751.035</ele>
        <time>2021-04-06T08:24:06Z</time>
      </trkpt>
      <trkpt lat="43.118303" lon="-2.294007">
        <ele>750.996</ele>
        <time>2021-04-06T08:24:07Z</time>
      </trkpt>
      <trkpt lat="43.118321" lon="-2.294036">
        <ele>751.061</ele>
        <time>2021-04-06T08:24:08Z</time>
      </trkpt>
      <trkpt lat="43.118332" lon="-2.294065">
        <ele>751.086</ele>
        <time>2021-04-06T08:24:09Z</time>
      </trkpt>
      <trkpt lat="43.118338" lon="-2.294091">
        <ele>751.034</ele>
        <time>2021-04-06T08:24:10Z</time>
      </trkpt>
      <trkpt lat="43.118346" lon="-2.294124">
        <ele>751.051</ele>
        <time>2021-04-06T08:24:11Z</time>
      </trkpt>
      <trkpt lat="43.118355" lon="-2.294152">
        <ele>751.159</ele>
        <time>2021-04-06T08:24:12Z</time>
      </trkpt>
      <trkpt lat="43.118363" lon="-2.294177">
        <ele>751.225</ele>
        <time>2021-04-06T08:24:13Z</time>
      </trkpt>
      <trkpt lat="43.118371" lon="-2.294205">
        <ele>751.326</ele>
        <time>2021-04-06T08:24:14Z</time>
      </trkpt>
      <trkpt lat="43.118377" lon="-2.294232">
        <ele>751.508</ele>
        <time>2021-04-06T08:24:15Z</time>
      </trkpt>
      <trkpt lat="43.118391" lon="-2.294295">
        <ele>752.008</ele>
        <time>2021-04-06T08:24:16Z</time>
      </trkpt>
      <trkpt lat="43.118395" lon="-2.294326">
        <ele>752.249</ele>
        <time>2021-04-06T08:24:18Z</time>
      </trkpt>
      <trkpt lat="43.118400" lon="-2.294359">
        <ele>752.412</ele>
        <time>2021-04-06T08:24:19Z</time>
      </trkpt>
      <trkpt lat="43.118406" lon="-2.294394">
        <ele>752.743</ele>
        <time>2021-04-06T08:24:20Z</time>
      </trkpt>
      <trkpt lat="43.118413" lon="-2.294427">
        <ele>753.068</ele>
        <time>2021-04-06T08:24:21Z</time>
      </trkpt>
      <trkpt lat="43.118420" lon="-2.294460">
        <ele>753.263</ele>
        <time>2021-04-06T08:24:22Z</time>
      </trkpt>
      <trkpt lat="43.118429" lon="-2.294488">
        <ele>753.311</ele>
        <time>2021-04-06T08:24:23Z</time>
      </trkpt>
      <trkpt lat="43.118441" lon="-2.294515">
        <ele>753.418</ele>
        <time>2021-04-06T08:24:24Z</time>
      </trkpt>
      <trkpt lat="43.118452" lon="-2.294549">
        <ele>753.516</ele>
        <time>2021-04-06T08:24:25Z</time>
      </trkpt>
      <trkpt lat="43.118466" lon="-2.294582">
        <ele>753.729</ele>
        <time>2021-04-06T08:24:26Z</time>
      </trkpt>
      <trkpt lat="43.118480" lon="-2.294615">
        <ele>753.800</ele>
        <time>2021-04-06T08:24:27Z</time>
      </trkpt>
      <trkpt lat="43.118494" lon="-2.294646">
        <ele>754.020</ele>
        <time>2021-04-06T08:24:28Z</time>
      </trkpt>
      <trkpt lat="43.118512" lon="-2.294678">
        <ele>754.308</ele>
        <time>2021-04-06T08:24:29Z</time>
      </trkpt>
      <trkpt lat="43.118528" lon="-2.294709">
        <ele>754.559</ele>
        <time>2021-04-06T08:24:30Z</time>
      </trkpt>
      <trkpt lat="43.118545" lon="-2.294744">
        <ele>754.612</ele>
        <time>2021-04-06T08:24:31Z</time>
      </trkpt>
      <trkpt lat="43.118562" lon="-2.294778">
        <ele>754.533</ele>
        <time>2021-04-06T08:24:32Z</time>
      </trkpt>
      <trkpt lat="43.118579" lon="-2.294811">
        <ele>754.518</ele>
        <time>2021-04-06T08:24:33Z</time>
      </trkpt>
      <trkpt lat="43.118596" lon="-2.294840">
        <ele>754.573</ele>
        <time>2021-04-06T08:24:34Z</time>
      </trkpt>
      <trkpt lat="43.118614" lon="-2.294867">
        <ele>754.591</ele>
        <time>2021-04-06T08:24:35Z</time>
      </trkpt>
      <trkpt lat="43.118631" lon="-2.294891">
        <ele>754.648</ele>
        <time>2021-04-06T08:24:36Z</time>
      </trkpt>
      <trkpt lat="43.118653" lon="-2.294919">
        <ele>754.776</ele>
        <time>2021-04-06T08:24:37Z</time>
      </trkpt>
      <trkpt lat="43.118671" lon="-2.294945">
        <ele>754.844</ele>
        <time>2021-04-06T08:24:38Z</time>
      </trkpt>
      <trkpt lat="43.118689" lon="-2.294968">
        <ele>755.005</ele>
        <time>2021-04-06T08:24:39Z</time>
      </trkpt>
      <trkpt lat="43.118706" lon="-2.294987">
        <ele>755.215</ele>
        <time>2021-04-06T08:24:40Z</time>
      </trkpt>
      <trkpt lat="43.118721" lon="-2.295007">
        <ele>755.208</ele>
        <time>2021-04-06T08:24:41Z</time>
      </trkpt>
      <trkpt lat="43.118735" lon="-2.295025">
        <ele>755.171</ele>
        <time>2021-04-06T08:24:42Z</time>
      </trkpt>
      <trkpt lat="43.118752" lon="-2.295048">
        <ele>755.074</ele>
        <time>2021-04-06T08:24:43Z</time>
      </trkpt>
      <trkpt lat="43.118770" lon="-2.295072">
        <ele>754.965</ele>
        <time>2021-04-06T08:24:44Z</time>
      </trkpt>
      <trkpt lat="43.118787" lon="-2.295096">
        <ele>754.720</ele>
        <time>2021-04-06T08:24:45Z</time>
      </trkpt>
      <trkpt lat="43.118806" lon="-2.295119">
        <ele>754.635</ele>
        <time>2021-04-06T08:24:46Z</time>
      </trkpt>
      <trkpt lat="43.118827" lon="-2.295143">
        <ele>754.673</ele>
        <time>2021-04-06T08:24:47Z</time>
      </trkpt>
      <trkpt lat="43.118847" lon="-2.295169">
        <ele>754.410</ele>
        <time>2021-04-06T08:24:48Z</time>
      </trkpt>
      <trkpt lat="43.118865" lon="-2.295192">
        <ele>754.398</ele>
        <time>2021-04-06T08:24:49Z</time>
      </trkpt>
      <trkpt lat="43.118877" lon="-2.295212">
        <ele>754.276</ele>
        <time>2021-04-06T08:24:50Z</time>
      </trkpt>
      <trkpt lat="43.118895" lon="-2.295235">
        <ele>753.990</ele>
        <time>2021-04-06T08:24:51Z</time>
      </trkpt>
      <trkpt lat="43.118918" lon="-2.295258">
        <ele>753.619</ele>
        <time>2021-04-06T08:24:52Z</time>
      </trkpt>
      <trkpt lat="43.118944" lon="-2.295279">
        <ele>753.408</ele>
        <time>2021-04-06T08:24:53Z</time>
      </trkpt>
      <trkpt lat="43.118968" lon="-2.295300">
        <ele>753.124</ele>
        <time>2021-04-06T08:24:54Z</time>
      </trkpt>
      <trkpt lat="43.118993" lon="-2.295315">
        <ele>752.977</ele>
        <time>2021-04-06T08:24:55Z</time>
      </trkpt>
      <trkpt lat="43.119018" lon="-2.295328">
        <ele>752.818</ele>
        <time>2021-04-06T08:24:56Z</time>
      </trkpt>
      <trkpt lat="43.119046" lon="-2.295339">
        <ele>752.873</ele>
        <time>2021-04-06T08:24:57Z</time>
      </trkpt>
      <trkpt lat="43.119074" lon="-2.295337">
        <ele>753.158</ele>
        <time>2021-04-06T08:24:58Z</time>
      </trkpt>
      <trkpt lat="43.119133" lon="-2.295322">
        <ele>753.986</ele>
        <time>2021-04-06T08:24:59Z</time>
      </trkpt>
      <trkpt lat="43.119161" lon="-2.295311">
        <ele>754.493</ele>
        <time>2021-04-06T08:25:00Z</time>
      </trkpt>
      <trkpt lat="43.119193" lon="-2.295300">
        <ele>754.241</ele>
        <time>2021-04-06T08:25:02Z</time>
      </trkpt>
      <trkpt lat="43.119226" lon="-2.295286">
        <ele>753.844</ele>
        <time>2021-04-06T08:25:03Z</time>
      </trkpt>
      <trkpt lat="43.119256" lon="-2.295276">
        <ele>753.405</ele>
        <time>2021-04-06T08:25:04Z</time>
      </trkpt>
      <trkpt lat="43.119290" lon="-2.295265">
        <ele>752.815</ele>
        <time>2021-04-06T08:25:05Z</time>
      </trkpt>
      <trkpt lat="43.119319" lon="-2.295258">
        <ele>752.208</ele>
        <time>2021-04-06T08:25:06Z</time>
      </trkpt>
      <trkpt lat="43.119348" lon="-2.295249">
        <ele>751.751</ele>
        <time>2021-04-06T08:25:07Z</time>
      </trkpt>
      <trkpt lat="43.119379" lon="-2.295248">
        <ele>751.114</ele>
        <time>2021-04-06T08:25:08Z</time>
      </trkpt>
      <trkpt lat="43.119417" lon="-2.295255">
        <ele>750.445</ele>
        <time>2021-04-06T08:25:09Z</time>
      </trkpt>
      <trkpt lat="43.119451" lon="-2.295263">
        <ele>749.970</ele>
        <time>2021-04-06T08:25:10Z</time>
      </trkpt>
      <trkpt lat="43.119480" lon="-2.295275">
        <ele>749.715</ele>
        <time>2021-04-06T08:25:11Z</time>
      </trkpt>
      <trkpt lat="43.119509" lon="-2.295289">
        <ele>749.553</ele>
        <time>2021-04-06T08:25:12Z</time>
      </trkpt>
      <trkpt lat="43.119537" lon="-2.295306">
        <ele>749.280</ele>
        <time>2021-04-06T08:25:13Z</time>
      </trkpt>
      <trkpt lat="43.119563" lon="-2.295320">
        <ele>749.058</ele>
        <time>2021-04-06T08:25:14Z</time>
      </trkpt>
      <trkpt lat="43.119586" lon="-2.295335">
        <ele>748.811</ele>
        <time>2021-04-06T08:25:15Z</time>
      </trkpt>
      <trkpt lat="43.119612" lon="-2.295351">
        <ele>748.521</ele>
        <time>2021-04-06T08:25:16Z</time>
      </trkpt>
      <trkpt lat="43.119639" lon="-2.295365">
        <ele>748.303</ele>
        <time>2021-04-06T08:25:17Z</time>
      </trkpt>
      <trkpt lat="43.119665" lon="-2.295378">
        <ele>748.108</ele>
        <time>2021-04-06T08:25:18Z</time>
      </trkpt>
      <trkpt lat="43.119710" lon="-2.295407">
        <ele>747.668</ele>
        <time>2021-04-06T08:25:19Z</time>
      </trkpt>
      <trkpt lat="43.119734" lon="-2.295424">
        <ele>747.611</ele>
        <time>2021-04-06T08:25:21Z</time>
      </trkpt>
      <trkpt lat="43.119758" lon="-2.295441">
        <ele>747.762</ele>
        <time>2021-04-06T08:25:22Z</time>
      </trkpt>
      <trkpt lat="43.119779" lon="-2.295460">
        <ele>747.837</ele>
        <time>2021-04-06T08:25:23Z</time>
      </trkpt>
      <trkpt lat="43.119796" lon="-2.295479">
        <ele>747.942</ele>
        <time>2021-04-06T08:25:24Z</time>
      </trkpt>
      <trkpt lat="43.119811" lon="-2.295496">
        <ele>748.080</ele>
        <time>2021-04-06T08:25:25Z</time>
      </trkpt>
      <trkpt lat="43.119826" lon="-2.295514">
        <ele>748.267</ele>
        <time>2021-04-06T08:25:26Z</time>
      </trkpt>
      <trkpt lat="43.119851" lon="-2.295542">
        <ele>748.485</ele>
        <time>2021-04-06T08:25:28Z</time>
      </trkpt>
      <trkpt lat="43.119868" lon="-2.295565">
        <ele>748.594</ele>
        <time>2021-04-06T08:25:30Z</time>
      </trkpt>
      <trkpt lat="43.119892" lon="-2.295591">
        <ele>748.557</ele>
        <time>2021-04-06T08:25:32Z</time>
      </trkpt>
      <trkpt lat="43.119912" lon="-2.295608">
        <ele>748.622</ele>
        <time>2021-04-06T08:25:34Z</time>
      </trkpt>
      <trkpt lat="43.119932" lon="-2.295635">
        <ele>748.608</ele>
        <time>2021-04-06T08:25:36Z</time>
      </trkpt>
      <trkpt lat="43.119958" lon="-2.295663">
        <ele>748.766</ele>
        <time>2021-04-06T08:25:38Z</time>
      </trkpt>
      <trkpt lat="43.119981" lon="-2.295693">
        <ele>748.739</ele>
        <time>2021-04-06T08:25:40Z</time>
      </trkpt>
      <trkpt lat="43.120003" lon="-2.295719">
        <ele>748.920</ele>
        <time>2021-04-06T08:25:42Z</time>
      </trkpt>
      <trkpt lat="43.120036" lon="-2.295741">
        <ele>749.415</ele>
        <time>2021-04-06T08:25:44Z</time>
      </trkpt>
      <trkpt lat="43.120066" lon="-2.295751">
        <ele>750.050</ele>
        <time>2021-04-06T08:25:46Z</time>
      </trkpt>
      <trkpt lat="43.120096" lon="-2.295756">
        <ele>750.758</ele>
        <time>2021-04-06T08:25:48Z</time>
      </trkpt>
      <trkpt lat="43.120124" lon="-2.295754">
        <ele>751.365</ele>
        <time>2021-04-06T08:25:50Z</time>
      </trkpt>
      <trkpt lat="43.120152" lon="-2.295756">
        <ele>751.983</ele>
        <time>2021-04-06T08:25:52Z</time>
      </trkpt>
      <trkpt lat="43.120182" lon="-2.295764">
        <ele>752.691</ele>
        <time>2021-04-06T08:25:54Z</time>
      </trkpt>
      <trkpt lat="43.120207" lon="-2.295771">
        <ele>753.281</ele>
        <time>2021-04-06T08:25:56Z</time>
      </trkpt>
      <trkpt lat="43.120234" lon="-2.295781">
        <ele>753.819</ele>
        <time>2021-04-06T08:25:58Z</time>
      </trkpt>
      <trkpt lat="43.120263" lon="-2.295795">
        <ele>754.508</ele>
        <time>2021-04-06T08:26:00Z</time>
      </trkpt>
      <trkpt lat="43.120292" lon="-2.295814">
        <ele>755.096</ele>
        <time>2021-04-06T08:26:02Z</time>
      </trkpt>
      <trkpt lat="43.120318" lon="-2.295840">
        <ele>755.159</ele>
        <time>2021-04-06T08:26:04Z</time>
      </trkpt>
      <trkpt lat="43.120340" lon="-2.295863">
        <ele>755.210</ele>
        <time>2021-04-06T08:26:06Z</time>
      </trkpt>
      <trkpt lat="43.120362" lon="-2.295887">
        <ele>755.315</ele>
        <time>2021-04-06T08:26:08Z</time>
      </trkpt>
      <trkpt lat="43.120384" lon="-2.295914">
        <ele>755.520</ele>
        <time>2021-04-06T08:26:10Z</time>
      </trkpt>
      <trkpt lat="43.120403" lon="-2.295939">
        <ele>755.898</ele>
        <time>2021-04-06T08:26:12Z</time>
      </trkpt>
      <trkpt lat="43.120421" lon="-2.295971">
        <ele>756.095</ele>
        <time>2021-04-06T08:26:14Z</time>
      </trkpt>
      <trkpt lat="43.120439" lon="-2.295997">
        <ele>756.483</ele>
        <time>2021-04-06T08:26:16Z</time>
      </trkpt>
      <trkpt lat="43.120455" lon="-2.296028">
        <ele>756.794</ele>
        <time>2021-04-06T08:26:18Z</time>
      </trkpt>
      <trkpt lat="43.120467" lon="-2.296063">
        <ele>757.157</ele>
        <time>2021-04-06T08:26:20Z</time>
      </trkpt>
      <trkpt lat="43.120480" lon="-2.296096">
        <ele>757.522</ele>
        <time>2021-04-06T08:26:22Z</time>
      </trkpt>
      <trkpt lat="43.120496" lon="-2.296126">
        <ele>757.908</ele>
        <time>2021-04-06T08:26:24Z</time>
      </trkpt>
      <trkpt lat="43.120513" lon="-2.296158">
        <ele>758.126</ele>
        <time>2021-04-06T08:26:26Z</time>
      </trkpt>
      <trkpt lat="43.120529" lon="-2.296191">
        <ele>758.499</ele>
        <time>2021-04-06T08:26:28Z</time>
      </trkpt>
      <trkpt lat="43.120548" lon="-2.296222">
        <ele>758.880</ele>
        <time>2021-04-06T08:26:30Z</time>
      </trkpt>
      <trkpt lat="43.120572" lon="-2.296242">
        <ele>759.325</ele>
        <time>2021-04-06T08:26:32Z</time>
      </trkpt>
      <trkpt lat="43.120593" lon="-2.296264">
        <ele>759.670</ele>
        <time>2021-04-06T08:26:34Z</time>
      </trkpt>
      <trkpt lat="43.120617" lon="-2.296273">
        <ele>760.198</ele>
        <time>2021-04-06T08:26:36Z</time>
      </trkpt>
      <trkpt lat="43.120642" lon="-2.296283">
        <ele>760.665</ele>
        <time>2021-04-06T08:26:38Z</time>
      </trkpt>
      <trkpt lat="43.120668" lon="-2.296297">
        <ele>761.233</ele>
        <time>2021-04-06T08:26:40Z</time>
      </trkpt>
      <trkpt lat="43.120692" lon="-2.296312">
        <ele>761.826</ele>
        <time>2021-04-06T08:26:42Z</time>
      </trkpt>
      <trkpt lat="43.120718" lon="-2.296321">
        <ele>762.447</ele>
        <time>2021-04-06T08:26:44Z</time>
      </trkpt>
      <trkpt lat="43.120734" lon="-2.296341">
        <ele>762.911</ele>
        <time>2021-04-06T08:26:46Z</time>
      </trkpt>
      <trkpt lat="43.120750" lon="-2.296366">
        <ele>763.608</ele>
        <time>2021-04-06T08:26:48Z</time>
      </trkpt>
      <trkpt lat="43.120767" lon="-2.296392">
        <ele>764.459</ele>
        <time>2021-04-06T08:26:49Z</time>
      </trkpt>
      <trkpt lat="43.120784" lon="-2.296409">
        <ele>764.942</ele>
        <time>2021-04-06T08:26:52Z</time>
      </trkpt>
      <trkpt lat="43.120800" lon="-2.296425">
        <ele>765.563</ele>
        <time>2021-04-06T08:26:54Z</time>
      </trkpt>
      <trkpt lat="43.120819" lon="-2.296444">
        <ele>766.228</ele>
        <time>2021-04-06T08:26:56Z</time>
      </trkpt>
      <trkpt lat="43.120836" lon="-2.296468">
        <ele>766.973</ele>
        <time>2021-04-06T08:26:58Z</time>
      </trkpt>
      <trkpt lat="43.120851" lon="-2.296489">
        <ele>767.441</ele>
        <time>2021-04-06T08:27:00Z</time>
      </trkpt>
      <trkpt lat="43.120862" lon="-2.296518">
        <ele>767.948</ele>
        <time>2021-04-06T08:27:02Z</time>
      </trkpt>
      <trkpt lat="43.120873" lon="-2.296545">
        <ele>768.566</ele>
        <time>2021-04-06T08:27:04Z</time>
      </trkpt>
      <trkpt lat="43.120884" lon="-2.296578">
        <ele>769.237</ele>
        <time>2021-04-06T08:27:06Z</time>
      </trkpt>
      <trkpt lat="43.120895" lon="-2.296601">
        <ele>769.849</ele>
        <time>2021-04-06T08:27:08Z</time>
      </trkpt>
      <trkpt lat="43.120906" lon="-2.296625">
        <ele>770.413</ele>
        <time>2021-04-06T08:27:10Z</time>
      </trkpt>
      <trkpt lat="43.120919" lon="-2.296645">
        <ele>771.108</ele>
        <time>2021-04-06T08:27:12Z</time>
      </trkpt>
      <trkpt lat="43.120935" lon="-2.296667">
        <ele>771.980</ele>
        <time>2021-04-06T08:27:14Z</time>
      </trkpt>
      <trkpt lat="43.120945" lon="-2.296691">
        <ele>772.563</ele>
        <time>2021-04-06T08:27:16Z</time>
      </trkpt>
      <trkpt lat="43.120955" lon="-2.296710">
        <ele>773.044</ele>
        <time>2021-04-06T08:27:18Z</time>
      </trkpt>
      <trkpt lat="43.120964" lon="-2.296730">
        <ele>773.559</ele>
        <time>2021-04-06T08:27:20Z</time>
      </trkpt>
      <trkpt lat="43.120975" lon="-2.296755">
        <ele>774.254</ele>
        <time>2021-04-06T08:27:22Z</time>
      </trkpt>
      <trkpt lat="43.120985" lon="-2.296784">
        <ele>774.972</ele>
        <time>2021-04-06T08:27:24Z</time>
      </trkpt>
      <trkpt lat="43.120988" lon="-2.296814">
        <ele>775.429</ele>
        <time>2021-04-06T08:27:26Z</time>
      </trkpt>
      <trkpt lat="43.120993" lon="-2.296839">
        <ele>775.927</ele>
        <time>2021-04-06T08:27:28Z</time>
      </trkpt>
      <trkpt lat="43.121001" lon="-2.296867">
        <ele>776.642</ele>
        <time>2021-04-06T08:27:30Z</time>
      </trkpt>
      <trkpt lat="43.121005" lon="-2.296901">
        <ele>777.222</ele>
        <time>2021-04-06T08:27:32Z</time>
      </trkpt>
      <trkpt lat="43.121014" lon="-2.296926">
        <ele>777.914</ele>
        <time>2021-04-06T08:27:34Z</time>
      </trkpt>
      <trkpt lat="43.121029" lon="-2.296950">
        <ele>778.808</ele>
        <time>2021-04-06T08:27:36Z</time>
      </trkpt>
      <trkpt lat="43.121045" lon="-2.296967">
        <ele>779.631</ele>
        <time>2021-04-06T08:27:38Z</time>
      </trkpt>
      <trkpt lat="43.121064" lon="-2.296979">
        <ele>780.434</ele>
        <time>2021-04-06T08:27:41Z</time>
      </trkpt>
      <trkpt lat="43.121079" lon="-2.296998">
        <ele>781.275</ele>
        <time>2021-04-06T08:27:44Z</time>
      </trkpt>
      <trkpt lat="43.121091" lon="-2.297024">
        <ele>782.040</ele>
        <time>2021-04-06T08:27:47Z</time>
      </trkpt>
      <trkpt lat="43.121097" lon="-2.297054">
        <ele>782.655</ele>
        <time>2021-04-06T08:27:50Z</time>
      </trkpt>
      <trkpt lat="43.121106" lon="-2.297078">
        <ele>783.263</ele>
        <time>2021-04-06T08:27:52Z</time>
      </trkpt>
      <trkpt lat="43.121119" lon="-2.297106">
        <ele>783.750</ele>
        <time>2021-04-06T08:27:55Z</time>
      </trkpt>
      <trkpt lat="43.121130" lon="-2.297125">
        <ele>783.888</ele>
        <time>2021-04-06T08:27:57Z</time>
      </trkpt>
      <trkpt lat="43.121146" lon="-2.297149">
        <ele>784.034</ele>
        <time>2021-04-06T08:28:00Z</time>
      </trkpt>
      <trkpt lat="43.121162" lon="-2.297168">
        <ele>784.155</ele>
        <time>2021-04-06T08:28:03Z</time>
      </trkpt>
      <trkpt lat="43.121180" lon="-2.297168">
        <ele>784.010</ele>
        <time>2021-04-06T08:28:06Z</time>
      </trkpt>
      <trkpt lat="43.121200" lon="-2.297177">
        <ele>784.008</ele>
        <time>2021-04-06T08:28:09Z</time>
      </trkpt>
      <trkpt lat="43.121215" lon="-2.297191">
        <ele>784.150</ele>
        <time>2021-04-06T08:28:11Z</time>
      </trkpt>
      <trkpt lat="43.121225" lon="-2.297209">
        <ele>784.443</ele>
        <time>2021-04-06T08:28:13Z</time>
      </trkpt>
      <trkpt lat="43.121216" lon="-2.297236">
        <ele>784.714</ele>
        <time>2021-04-06T08:28:16Z</time>
      </trkpt>
      <trkpt lat="43.121216" lon="-2.297271">
        <ele>784.839</ele>
        <time>2021-04-06T08:28:18Z</time>
      </trkpt>
      <trkpt lat="43.121218" lon="-2.297305">
        <ele>785.084</ele>
        <time>2021-04-06T08:28:20Z</time>
      </trkpt>
      <trkpt lat="43.121218" lon="-2.297342">
        <ele>785.182</ele>
        <time>2021-04-06T08:28:22Z</time>
      </trkpt>
      <trkpt lat="43.121220" lon="-2.297380">
        <ele>785.369</ele>
        <time>2021-04-06T08:28:24Z</time>
      </trkpt>
      <trkpt lat="43.121221" lon="-2.297420">
        <ele>785.467</ele>
        <time>2021-04-06T08:28:26Z</time>
      </trkpt>
      <trkpt lat="43.121225" lon="-2.297476">
        <ele>785.739</ele>
        <time>2021-04-06T08:28:27Z</time>
      </trkpt>
      <trkpt lat="43.121239" lon="-2.297539">
        <ele>785.801</ele>
        <time>2021-04-06T08:28:29Z</time>
      </trkpt>
      <trkpt lat="43.121253" lon="-2.297567">
        <ele>785.921</ele>
        <time>2021-04-06T08:28:31Z</time>
      </trkpt>
      <trkpt lat="43.121271" lon="-2.297599">
        <ele>786.208</ele>
        <time>2021-04-06T08:28:32Z</time>
      </trkpt>
      <trkpt lat="43.121292" lon="-2.297630">
        <ele>786.660</ele>
        <time>2021-04-06T08:28:33Z</time>
      </trkpt>
      <trkpt lat="43.121316" lon="-2.297660">
        <ele>787.123</ele>
        <time>2021-04-06T08:28:34Z</time>
      </trkpt>
      <trkpt lat="43.121345" lon="-2.297681">
        <ele>787.934</ele>
        <time>2021-04-06T08:28:35Z</time>
      </trkpt>
      <trkpt lat="43.121377" lon="-2.297691">
        <ele>788.829</ele>
        <time>2021-04-06T08:28:36Z</time>
      </trkpt>
      <trkpt lat="43.121406" lon="-2.297697">
        <ele>789.144</ele>
        <time>2021-04-06T08:28:37Z</time>
      </trkpt>
      <trkpt lat="43.121432" lon="-2.297699">
        <ele>789.282</ele>
        <time>2021-04-06T08:28:38Z</time>
      </trkpt>
      <trkpt lat="43.121475" lon="-2.297704">
        <ele>789.329</ele>
        <time>2021-04-06T08:28:39Z</time>
      </trkpt>
      <trkpt lat="43.121499" lon="-2.297706">
        <ele>789.387</ele>
        <time>2021-04-06T08:28:41Z</time>
      </trkpt>
      <trkpt lat="43.121525" lon="-2.297707">
        <ele>789.415</ele>
        <time>2021-04-06T08:28:42Z</time>
      </trkpt>
      <trkpt lat="43.121576" lon="-2.297708">
        <ele>789.465</ele>
        <time>2021-04-06T08:28:43Z</time>
      </trkpt>
      <trkpt lat="43.121600" lon="-2.297706">
        <ele>789.411</ele>
        <time>2021-04-06T08:28:45Z</time>
      </trkpt>
      <trkpt lat="43.121621" lon="-2.297700">
        <ele>789.408</ele>
        <time>2021-04-06T08:28:46Z</time>
      </trkpt>
      <trkpt lat="43.121640" lon="-2.297697">
        <ele>789.428</ele>
        <time>2021-04-06T08:28:47Z</time>
      </trkpt>
      <trkpt lat="43.121680" lon="-2.297692">
        <ele>789.531</ele>
        <time>2021-04-06T08:28:48Z</time>
      </trkpt>
      <trkpt lat="43.121711" lon="-2.297685">
        <ele>789.952</ele>
        <time>2021-04-06T08:28:51Z</time>
      </trkpt>
      <trkpt lat="43.121736" lon="-2.297683">
        <ele>790.157</ele>
        <time>2021-04-06T08:28:53Z</time>
      </trkpt>
      <trkpt lat="43.121759" lon="-2.297682">
        <ele>790.422</ele>
        <time>2021-04-06T08:28:55Z</time>
      </trkpt>
      <trkpt lat="43.121785" lon="-2.297683">
        <ele>790.770</ele>
        <time>2021-04-06T08:28:57Z</time>
      </trkpt>
      <trkpt lat="43.121816" lon="-2.297689">
        <ele>791.237</ele>
        <time>2021-04-06T08:28:59Z</time>
      </trkpt>
      <trkpt lat="43.121835" lon="-2.297695">
        <ele>791.565</ele>
        <time>2021-04-06T08:29:00Z</time>
      </trkpt>
      <trkpt lat="43.121864" lon="-2.297711">
        <ele>792.058</ele>
        <time>2021-04-06T08:29:02Z</time>
      </trkpt>
      <trkpt lat="43.121888" lon="-2.297738">
        <ele>792.752</ele>
        <time>2021-04-06T08:29:04Z</time>
      </trkpt>
      <trkpt lat="43.121910" lon="-2.297759">
        <ele>793.217</ele>
        <time>2021-04-06T08:29:06Z</time>
      </trkpt>
      <trkpt lat="43.121933" lon="-2.297777">
        <ele>793.808</ele>
        <time>2021-04-06T08:29:08Z</time>
      </trkpt>
      <trkpt lat="43.121953" lon="-2.297797">
        <ele>793.992</ele>
        <time>2021-04-06T08:29:10Z</time>
      </trkpt>
      <trkpt lat="43.121976" lon="-2.297821">
        <ele>793.885</ele>
        <time>2021-04-06T08:29:12Z</time>
      </trkpt>
      <trkpt lat="43.121996" lon="-2.297850">
        <ele>793.826</ele>
        <time>2021-04-06T08:29:14Z</time>
      </trkpt>
      <trkpt lat="43.122013" lon="-2.297875">
        <ele>793.951</ele>
        <time>2021-04-06T08:29:16Z</time>
      </trkpt>
      <trkpt lat="43.122025" lon="-2.297902">
        <ele>793.996</ele>
        <time>2021-04-06T08:29:18Z</time>
      </trkpt>
      <trkpt lat="43.122031" lon="-2.297933">
        <ele>794.144</ele>
        <time>2021-04-06T08:29:20Z</time>
      </trkpt>
      <trkpt lat="43.122040" lon="-2.297969">
        <ele>794.331</ele>
        <time>2021-04-06T08:29:22Z</time>
      </trkpt>
      <trkpt lat="43.122061" lon="-2.298002">
        <ele>794.529</ele>
        <time>2021-04-06T08:29:24Z</time>
      </trkpt>
      <trkpt lat="43.122070" lon="-2.298021">
        <ele>794.795</ele>
        <time>2021-04-06T08:29:25Z</time>
      </trkpt>
      <trkpt lat="43.122085" lon="-2.298058">
        <ele>795.049</ele>
        <time>2021-04-06T08:29:27Z</time>
      </trkpt>
      <trkpt lat="43.122106" lon="-2.298096">
        <ele>794.923</ele>
        <time>2021-04-06T08:29:29Z</time>
      </trkpt>
      <trkpt lat="43.122121" lon="-2.298116">
        <ele>794.908</ele>
        <time>2021-04-06T08:29:30Z</time>
      </trkpt>
      <trkpt lat="43.122130" lon="-2.298141">
        <ele>794.966</ele>
        <time>2021-04-06T08:29:31Z</time>
      </trkpt>
      <trkpt lat="43.122140" lon="-2.298165">
        <ele>795.089</ele>
        <time>2021-04-06T08:29:32Z</time>
      </trkpt>
      <trkpt lat="43.122150" lon="-2.298187">
        <ele>795.120</ele>
        <time>2021-04-06T08:29:33Z</time>
      </trkpt>
      <trkpt lat="43.122164" lon="-2.298212">
        <ele>795.335</ele>
        <time>2021-04-06T08:29:34Z</time>
      </trkpt>
      <trkpt lat="43.122179" lon="-2.298238">
        <ele>795.690</ele>
        <time>2021-04-06T08:29:35Z</time>
      </trkpt>
      <trkpt lat="43.122196" lon="-2.298256">
        <ele>796.158</ele>
        <time>2021-04-06T08:29:36Z</time>
      </trkpt>
      <trkpt lat="43.122215" lon="-2.298269">
        <ele>796.695</ele>
        <time>2021-04-06T08:29:37Z</time>
      </trkpt>
      <trkpt lat="43.122240" lon="-2.298281">
        <ele>796.993</ele>
        <time>2021-04-06T08:29:38Z</time>
      </trkpt>
      <trkpt lat="43.122288" lon="-2.298302">
        <ele>797.465</ele>
        <time>2021-04-06T08:29:39Z</time>
      </trkpt>
      <trkpt lat="43.122308" lon="-2.298319">
        <ele>797.868</ele>
        <time>2021-04-06T08:29:41Z</time>
      </trkpt>
      <trkpt lat="43.122329" lon="-2.298333">
        <ele>798.114</ele>
        <time>2021-04-06T08:29:42Z</time>
      </trkpt>
      <trkpt lat="43.122347" lon="-2.298349">
        <ele>798.308</ele>
        <time>2021-04-06T08:29:43Z</time>
      </trkpt>
      <trkpt lat="43.122366" lon="-2.298373">
        <ele>798.463</ele>
        <time>2021-04-06T08:29:44Z</time>
      </trkpt>
      <trkpt lat="43.122380" lon="-2.298400">
        <ele>798.626</ele>
        <time>2021-04-06T08:29:45Z</time>
      </trkpt>
      <trkpt lat="43.122389" lon="-2.298432">
        <ele>798.777</ele>
        <time>2021-04-06T08:29:46Z</time>
      </trkpt>
      <trkpt lat="43.122399" lon="-2.298464">
        <ele>798.852</ele>
        <time>2021-04-06T08:29:47Z</time>
      </trkpt>
      <trkpt lat="43.122409" lon="-2.298495">
        <ele>799.027</ele>
        <time>2021-04-06T08:29:48Z</time>
      </trkpt>
      <trkpt lat="43.122419" lon="-2.298523">
        <ele>799.395</ele>
        <time>2021-04-06T08:29:49Z</time>
      </trkpt>
      <trkpt lat="43.122431" lon="-2.298552">
        <ele>799.782</ele>
        <time>2021-04-06T08:29:50Z</time>
      </trkpt>
      <trkpt lat="43.122445" lon="-2.298575">
        <ele>800.160</ele>
        <time>2021-04-06T08:29:51Z</time>
      </trkpt>
      <trkpt lat="43.122459" lon="-2.298595">
        <ele>800.694</ele>
        <time>2021-04-06T08:29:52Z</time>
      </trkpt>
      <trkpt lat="43.122472" lon="-2.298619">
        <ele>801.057</ele>
        <time>2021-04-06T08:29:53Z</time>
      </trkpt>
      <trkpt lat="43.122481" lon="-2.298651">
        <ele>801.122</ele>
        <time>2021-04-06T08:29:54Z</time>
      </trkpt>
      <trkpt lat="43.122488" lon="-2.298684">
        <ele>801.008</ele>
        <time>2021-04-06T08:29:55Z</time>
      </trkpt>
      <trkpt lat="43.122496" lon="-2.298719">
        <ele>801.116</ele>
        <time>2021-04-06T08:29:56Z</time>
      </trkpt>
      <trkpt lat="43.122503" lon="-2.298754">
        <ele>801.039</ele>
        <time>2021-04-06T08:29:57Z</time>
      </trkpt>
      <trkpt lat="43.122522" lon="-2.298816">
        <ele>800.840</ele>
        <time>2021-04-06T08:29:59Z</time>
      </trkpt>
      <trkpt lat="43.122535" lon="-2.298846">
        <ele>800.885</ele>
        <time>2021-04-06T08:30:00Z</time>
      </trkpt>
      <trkpt lat="43.122548" lon="-2.298873">
        <ele>800.950</ele>
        <time>2021-04-06T08:30:01Z</time>
      </trkpt>
      <trkpt lat="43.122562" lon="-2.298902">
        <ele>801.028</ele>
        <time>2021-04-06T08:30:02Z</time>
      </trkpt>
      <trkpt lat="43.122577" lon="-2.298926">
        <ele>801.165</ele>
        <time>2021-04-06T08:30:03Z</time>
      </trkpt>
      <trkpt lat="43.122592" lon="-2.298947">
        <ele>801.373</ele>
        <time>2021-04-06T08:30:04Z</time>
      </trkpt>
      <trkpt lat="43.122619" lon="-2.299001">
        <ele>801.692</ele>
        <time>2021-04-06T08:30:05Z</time>
      </trkpt>
      <trkpt lat="43.122630" lon="-2.299024">
        <ele>801.873</ele>
        <time>2021-04-06T08:30:07Z</time>
      </trkpt>
      <trkpt lat="43.122644" lon="-2.299048">
        <ele>802.120</ele>
        <time>2021-04-06T08:30:08Z</time>
      </trkpt>
      <trkpt lat="43.122655" lon="-2.299075">
        <ele>802.308</ele>
        <time>2021-04-06T08:30:09Z</time>
      </trkpt>
      <trkpt lat="43.122664" lon="-2.299100">
        <ele>802.556</ele>
        <time>2021-04-06T08:30:10Z</time>
      </trkpt>
      <trkpt lat="43.122677" lon="-2.299125">
        <ele>802.819</ele>
        <time>2021-04-06T08:30:11Z</time>
      </trkpt>
      <trkpt lat="43.122689" lon="-2.299149">
        <ele>803.150</ele>
        <time>2021-04-06T08:30:12Z</time>
      </trkpt>
      <trkpt lat="43.122701" lon="-2.299168">
        <ele>803.555</ele>
        <time>2021-04-06T08:30:13Z</time>
      </trkpt>
      <trkpt lat="43.122715" lon="-2.299190">
        <ele>803.950</ele>
        <time>2021-04-06T08:30:14Z</time>
      </trkpt>
      <trkpt lat="43.122728" lon="-2.299212">
        <ele>804.338</ele>
        <time>2021-04-06T08:30:15Z</time>
      </trkpt>
      <trkpt lat="43.122737" lon="-2.299236">
        <ele>804.665</ele>
        <time>2021-04-06T08:30:16Z</time>
      </trkpt>
      <trkpt lat="43.122749" lon="-2.299263">
        <ele>805.093</ele>
        <time>2021-04-06T08:30:17Z</time>
      </trkpt>
      <trkpt lat="43.122759" lon="-2.299286">
        <ele>805.326</ele>
        <time>2021-04-06T08:30:18Z</time>
      </trkpt>
      <trkpt lat="43.122769" lon="-2.299306">
        <ele>805.747</ele>
        <time>2021-04-06T08:30:19Z</time>
      </trkpt>
      <trkpt lat="43.122785" lon="-2.299343">
        <ele>806.011</ele>
        <time>2021-04-06T08:30:21Z</time>
      </trkpt>
      <trkpt lat="43.122800" lon="-2.299378">
        <ele>805.908</ele>
        <time>2021-04-06T08:30:23Z</time>
      </trkpt>
      <trkpt lat="43.122814" lon="-2.299414">
        <ele>806.029</ele>
        <time>2021-04-06T08:30:25Z</time>
      </trkpt>
      <trkpt lat="43.122828" lon="-2.299451">
        <ele>806.272</ele>
        <time>2021-04-06T08:30:27Z</time>
      </trkpt>
      <trkpt lat="43.122839" lon="-2.299492">
        <ele>806.443</ele>
        <time>2021-04-06T08:30:28Z</time>
      </trkpt>
      <trkpt lat="43.122853" lon="-2.299528">
        <ele>806.758</ele>
        <time>2021-04-06T08:30:31Z</time>
      </trkpt>
      <trkpt lat="43.122868" lon="-2.299560">
        <ele>807.083</ele>
        <time>2021-04-06T08:30:33Z</time>
      </trkpt>
      <trkpt lat="43.122884" lon="-2.299590">
        <ele>807.441</ele>
        <time>2021-04-06T08:30:35Z</time>
      </trkpt>
      <trkpt lat="43.122902" lon="-2.299626">
        <ele>807.998</ele>
        <time>2021-04-06T08:30:37Z</time>
      </trkpt>
      <trkpt lat="43.122917" lon="-2.299655">
        <ele>808.486</ele>
        <time>2021-04-06T08:30:39Z</time>
      </trkpt>
      <trkpt lat="43.122935" lon="-2.299685">
        <ele>809.016</ele>
        <time>2021-04-06T08:30:41Z</time>
      </trkpt>
      <trkpt lat="43.122951" lon="-2.299713">
        <ele>809.676</ele>
        <time>2021-04-06T08:30:42Z</time>
      </trkpt>
      <trkpt lat="43.122967" lon="-2.299747">
        <ele>810.313</ele>
        <time>2021-04-06T08:30:45Z</time>
      </trkpt>
      <trkpt lat="43.122981" lon="-2.299781">
        <ele>810.908</ele>
        <time>2021-04-06T08:30:47Z</time>
      </trkpt>
      <trkpt lat="43.122995" lon="-2.299814">
        <ele>811.538</ele>
        <time>2021-04-06T08:30:49Z</time>
      </trkpt>
      <trkpt lat="43.123011" lon="-2.299849">
        <ele>812.331</ele>
        <time>2021-04-06T08:30:51Z</time>
      </trkpt>
      <trkpt lat="43.123023" lon="-2.299882">
        <ele>812.922</ele>
        <time>2021-04-06T08:30:53Z</time>
      </trkpt>
      <trkpt lat="43.123036" lon="-2.299912">
        <ele>813.547</ele>
        <time>2021-04-06T08:30:55Z</time>
      </trkpt>
      <trkpt lat="43.123053" lon="-2.299944">
        <ele>814.342</ele>
        <time>2021-04-06T08:30:57Z</time>
      </trkpt>
      <trkpt lat="43.123067" lon="-2.299975">
        <ele>814.760</ele>
        <time>2021-04-06T08:30:59Z</time>
      </trkpt>
      <trkpt lat="43.123082" lon="-2.300009">
        <ele>815.047</ele>
        <time>2021-04-06T08:31:01Z</time>
      </trkpt>
      <trkpt lat="43.123093" lon="-2.300042">
        <ele>815.235</ele>
        <time>2021-04-06T08:31:03Z</time>
      </trkpt>
      <trkpt lat="43.123104" lon="-2.300078">
        <ele>815.523</ele>
        <time>2021-04-06T08:31:05Z</time>
      </trkpt>
      <trkpt lat="43.123118" lon="-2.300113">
        <ele>815.983</ele>
        <time>2021-04-06T08:31:07Z</time>
      </trkpt>
      <trkpt lat="43.123134" lon="-2.300146">
        <ele>816.211</ele>
        <time>2021-04-06T08:31:09Z</time>
      </trkpt>
      <trkpt lat="43.123152" lon="-2.300173">
        <ele>816.508</ele>
        <time>2021-04-06T08:31:11Z</time>
      </trkpt>
      <trkpt lat="43.123172" lon="-2.300201">
        <ele>816.959</ele>
        <time>2021-04-06T08:31:13Z</time>
      </trkpt>
      <trkpt lat="43.123188" lon="-2.300234">
        <ele>817.412</ele>
        <time>2021-04-06T08:31:15Z</time>
      </trkpt>
      <trkpt lat="43.123205" lon="-2.300264">
        <ele>817.973</ele>
        <time>2021-04-06T08:31:17Z</time>
      </trkpt>
      <trkpt lat="43.123225" lon="-2.300292">
        <ele>818.218</ele>
        <time>2021-04-06T08:31:19Z</time>
      </trkpt>
      <trkpt lat="43.123248" lon="-2.300314">
        <ele>818.393</ele>
        <time>2021-04-06T08:31:21Z</time>
      </trkpt>
      <trkpt lat="43.123273" lon="-2.300338">
        <ele>818.511</ele>
        <time>2021-04-06T08:31:23Z</time>
      </trkpt>
      <trkpt lat="43.123291" lon="-2.300363">
        <ele>818.678</ele>
        <time>2021-04-06T08:31:25Z</time>
      </trkpt>
      <trkpt lat="43.123307" lon="-2.300393">
        <ele>818.736</ele>
        <time>2021-04-06T08:31:27Z</time>
      </trkpt>
      <trkpt lat="43.123328" lon="-2.300417">
        <ele>818.941</ele>
        <time>2021-04-06T08:31:29Z</time>
      </trkpt>
      <trkpt lat="43.123349" lon="-2.300441">
        <ele>818.781</ele>
        <time>2021-04-06T08:31:31Z</time>
      </trkpt>
      <trkpt lat="43.123365" lon="-2.300469">
        <ele>818.409</ele>
        <time>2021-04-06T08:31:33Z</time>
      </trkpt>
      <trkpt lat="43.123384" lon="-2.300497">
        <ele>818.208</ele>
        <time>2021-04-06T08:31:35Z</time>
      </trkpt>
      <trkpt lat="43.123405" lon="-2.300524">
        <ele>817.981</ele>
        <time>2021-04-06T08:31:37Z</time>
      </trkpt>
      <trkpt lat="43.123425" lon="-2.300551">
        <ele>817.784</ele>
        <time>2021-04-06T08:31:39Z</time>
      </trkpt>
      <trkpt lat="43.123451" lon="-2.300571">
        <ele>817.055</ele>
        <time>2021-04-06T08:31:41Z</time>
      </trkpt>
      <trkpt lat="43.123480" lon="-2.300585">
        <ele>816.470</ele>
        <time>2021-04-06T08:31:42Z</time>
      </trkpt>
      <trkpt lat="43.123496" lon="-2.300591">
        <ele>816.095</ele>
        <time>2021-04-06T08:31:44Z</time>
      </trkpt>
      <trkpt lat="43.123530" lon="-2.300603">
        <ele>815.413</ele>
        <time>2021-04-06T08:31:46Z</time>
      </trkpt>
      <trkpt lat="43.123550" lon="-2.300608">
        <ele>815.070</ele>
        <time>2021-04-06T08:31:47Z</time>
      </trkpt>
      <trkpt lat="43.123570" lon="-2.300615">
        <ele>814.788</ele>
        <time>2021-04-06T08:31:48Z</time>
      </trkpt>
      <trkpt lat="43.123593" lon="-2.300625">
        <ele>814.297</ele>
        <time>2021-04-06T08:31:49Z</time>
      </trkpt>
      <trkpt lat="43.123622" lon="-2.300637">
        <ele>813.623</ele>
        <time>2021-04-06T08:31:50Z</time>
      </trkpt>
      <trkpt lat="43.123650" lon="-2.300646">
        <ele>813.025</ele>
        <time>2021-04-06T08:31:51Z</time>
      </trkpt>
      <trkpt lat="43.123676" lon="-2.300656">
        <ele>812.408</ele>
        <time>2021-04-06T08:31:52Z</time>
      </trkpt>
      <trkpt lat="43.123702" lon="-2.300666">
        <ele>811.866</ele>
        <time>2021-04-06T08:31:53Z</time>
      </trkpt>
      <trkpt lat="43.123731" lon="-2.300680">
        <ele>811.239</ele>
        <time>2021-04-06T08:31:54Z</time>
      </trkpt>
      <trkpt lat="43.123763" lon="-2.300695">
        <ele>810.540</ele>
        <time>2021-04-06T08:31:55Z</time>
      </trkpt>
      <trkpt lat="43.123796" lon="-2.300709">
        <ele>809.915</ele>
        <time>2021-04-06T08:31:56Z</time>
      </trkpt>
      <trkpt lat="43.123831" lon="-2.300721">
        <ele>809.310</ele>
        <time>2021-04-06T08:31:57Z</time>
      </trkpt>
      <trkpt lat="43.123860" lon="-2.300735">
        <ele>808.878</ele>
        <time>2021-04-06T08:31:58Z</time>
      </trkpt>
      <trkpt lat="43.123890" lon="-2.300754">
        <ele>808.395</ele>
        <time>2021-04-06T08:31:59Z</time>
      </trkpt>
      <trkpt lat="43.123946" lon="-2.300795">
        <ele>806.693</ele>
        <time>2021-04-06T08:32:00Z</time>
      </trkpt>
      <trkpt lat="43.123973" lon="-2.300811">
        <ele>805.913</ele>
        <time>2021-04-06T08:32:02Z</time>
      </trkpt>
      <trkpt lat="43.123999" lon="-2.300827">
        <ele>805.243</ele>
        <time>2021-04-06T08:32:03Z</time>
      </trkpt>
      <trkpt lat="43.124026" lon="-2.300842">
        <ele>804.407</ele>
        <time>2021-04-06T08:32:04Z</time>
      </trkpt>
      <trkpt lat="43.124050" lon="-2.300851">
        <ele>803.608</ele>
        <time>2021-04-06T08:32:05Z</time>
      </trkpt>
      <trkpt lat="43.124077" lon="-2.300865">
        <ele>802.718</ele>
        <time>2021-04-06T08:32:06Z</time>
      </trkpt>
      <trkpt lat="43.124103" lon="-2.300876">
        <ele>801.961</ele>
        <time>2021-04-06T08:32:07Z</time>
      </trkpt>
      <trkpt lat="43.124130" lon="-2.300883">
        <ele>801.252</ele>
        <time>2021-04-06T08:32:08Z</time>
      </trkpt>
      <trkpt lat="43.124159" lon="-2.300892">
        <ele>800.357</ele>
        <time>2021-04-06T08:32:09Z</time>
      </trkpt>
      <trkpt lat="43.124189" lon="-2.300902">
        <ele>799.622</ele>
        <time>2021-04-06T08:32:10Z</time>
      </trkpt>
      <trkpt lat="43.124221" lon="-2.300913">
        <ele>799.060</ele>
        <time>2021-04-06T08:32:11Z</time>
      </trkpt>
      <trkpt lat="43.124256" lon="-2.300928">
        <ele>798.257</ele>
        <time>2021-04-06T08:32:12Z</time>
      </trkpt>
      <trkpt lat="43.124293" lon="-2.300948">
        <ele>797.585</ele>
        <time>2021-04-06T08:32:13Z</time>
      </trkpt>
      <trkpt lat="43.124329" lon="-2.300966">
        <ele>796.769</ele>
        <time>2021-04-06T08:32:14Z</time>
      </trkpt>
      <trkpt lat="43.124366" lon="-2.300985">
        <ele>796.004</ele>
        <time>2021-04-06T08:32:15Z</time>
      </trkpt>
      <trkpt lat="43.124402" lon="-2.301005">
        <ele>795.324</ele>
        <time>2021-04-06T08:32:16Z</time>
      </trkpt>
      <trkpt lat="43.124465" lon="-2.301052">
        <ele>794.508</ele>
        <time>2021-04-06T08:32:17Z</time>
      </trkpt>
      <trkpt lat="43.124493" lon="-2.301076">
        <ele>794.523</ele>
        <time>2021-04-06T08:32:19Z</time>
      </trkpt>
      <trkpt lat="43.124518" lon="-2.301099">
        <ele>794.676</ele>
        <time>2021-04-06T08:32:20Z</time>
      </trkpt>
      <trkpt lat="43.124529" lon="-2.301124">
        <ele>794.537</ele>
        <time>2021-04-06T08:32:21Z</time>
      </trkpt>
      <trkpt lat="43.124552" lon="-2.301147">
        <ele>794.682</ele>
        <time>2021-04-06T08:32:22Z</time>
      </trkpt>
      <trkpt lat="43.124573" lon="-2.301170">
        <ele>794.727</ele>
        <time>2021-04-06T08:32:23Z</time>
      </trkpt>
      <trkpt lat="43.124593" lon="-2.301195">
        <ele>794.845</ele>
        <time>2021-04-06T08:32:24Z</time>
      </trkpt>
      <trkpt lat="43.124609" lon="-2.301220">
        <ele>794.942</ele>
        <time>2021-04-06T08:32:25Z</time>
      </trkpt>
      <trkpt lat="43.124622" lon="-2.301251">
        <ele>795.110</ele>
        <time>2021-04-06T08:32:26Z</time>
      </trkpt>
      <trkpt lat="43.124634" lon="-2.301282">
        <ele>795.279</ele>
        <time>2021-04-06T08:32:27Z</time>
      </trkpt>
      <trkpt lat="43.124645" lon="-2.301313">
        <ele>795.405</ele>
        <time>2021-04-06T08:32:28Z</time>
      </trkpt>
      <trkpt lat="43.124657" lon="-2.301347">
        <ele>795.625</ele>
        <time>2021-04-06T08:32:29Z</time>
      </trkpt>
      <trkpt lat="43.124669" lon="-2.301377">
        <ele>795.808</ele>
        <time>2021-04-06T08:32:30Z</time>
      </trkpt>
      <trkpt lat="43.124680" lon="-2.301407">
        <ele>795.934</ele>
        <time>2021-04-06T08:32:31Z</time>
      </trkpt>
      <trkpt lat="43.124692" lon="-2.301437">
        <ele>796.067</ele>
        <time>2021-04-06T08:32:32Z</time>
      </trkpt>
      <trkpt lat="43.124707" lon="-2.301467">
        <ele>796.128</ele>
        <time>2021-04-06T08:32:33Z</time>
      </trkpt>
      <trkpt lat="43.124722" lon="-2.301499">
        <ele>796.293</ele>
        <time>2021-04-06T08:32:34Z</time>
      </trkpt>
      <trkpt lat="43.124732" lon="-2.301532">
        <ele>795.988</ele>
        <time>2021-04-06T08:32:35Z</time>
      </trkpt>
      <trkpt lat="43.124745" lon="-2.301565">
        <ele>795.786</ele>
        <time>2021-04-06T08:32:36Z</time>
      </trkpt>
      <trkpt lat="43.124758" lon="-2.301600">
        <ele>795.553</ele>
        <time>2021-04-06T08:32:37Z</time>
      </trkpt>
      <trkpt lat="43.124772" lon="-2.301633">
        <ele>795.371</ele>
        <time>2021-04-06T08:32:38Z</time>
      </trkpt>
      <trkpt lat="43.124789" lon="-2.301664">
        <ele>795.239</ele>
        <time>2021-04-06T08:32:39Z</time>
      </trkpt>
      <trkpt lat="43.124806" lon="-2.301696">
        <ele>795.201</ele>
        <time>2021-04-06T08:32:40Z</time>
      </trkpt>
      <trkpt lat="43.124837" lon="-2.301763">
        <ele>795.121</ele>
        <time>2021-04-06T08:32:41Z</time>
      </trkpt>
      <trkpt lat="43.124853" lon="-2.301793">
        <ele>795.208</ele>
        <time>2021-04-06T08:32:43Z</time>
      </trkpt>
      <trkpt lat="43.124867" lon="-2.301823">
        <ele>795.330</ele>
        <time>2021-04-06T08:32:44Z</time>
      </trkpt>
      <trkpt lat="43.124885" lon="-2.301857">
        <ele>795.413</ele>
        <time>2021-04-06T08:32:45Z</time>
      </trkpt>
      <trkpt lat="43.124905" lon="-2.301887">
        <ele>795.644</ele>
        <time>2021-04-06T08:32:46Z</time>
      </trkpt>
      <trkpt lat="43.124923" lon="-2.301912">
        <ele>795.969</ele>
        <time>2021-04-06T08:32:47Z</time>
      </trkpt>
      <trkpt lat="43.124943" lon="-2.301940">
        <ele>796.254</ele>
        <time>2021-04-06T08:32:48Z</time>
      </trkpt>
      <trkpt lat="43.124959" lon="-2.301968">
        <ele>796.582</ele>
        <time>2021-04-06T08:32:49Z</time>
      </trkpt>
      <trkpt lat="43.124992" lon="-2.302029">
        <ele>797.219</ele>
        <time>2021-04-06T08:32:50Z</time>
      </trkpt>
      <trkpt lat="43.125009" lon="-2.302061">
        <ele>797.217</ele>
        <time>2021-04-06T08:32:52Z</time>
      </trkpt>
      <trkpt lat="43.125026" lon="-2.302090">
        <ele>797.099</ele>
        <time>2021-04-06T08:32:53Z</time>
      </trkpt>
      <trkpt lat="43.125043" lon="-2.302117">
        <ele>796.807</ele>
        <time>2021-04-06T08:32:54Z</time>
      </trkpt>
      <trkpt lat="43.125074" lon="-2.302180">
        <ele>796.527</ele>
        <time>2021-04-06T08:32:56Z</time>
      </trkpt>
      <trkpt lat="43.125086" lon="-2.302215">
        <ele>796.408</ele>
        <time>2021-04-06T08:32:57Z</time>
      </trkpt>
      <trkpt lat="43.125110" lon="-2.302286">
        <ele>795.766</ele>
        <time>2021-04-06T08:32:58Z</time>
      </trkpt>
      <trkpt lat="43.125124" lon="-2.302325">
        <ele>795.339</ele>
        <time>2021-04-06T08:33:00Z</time>
      </trkpt>
      <trkpt lat="43.125139" lon="-2.302358">
        <ele>795.080</ele>
        <time>2021-04-06T08:33:01Z</time>
      </trkpt>
      <trkpt lat="43.125153" lon="-2.302391">
        <ele>794.835</ele>
        <time>2021-04-06T08:33:02Z</time>
      </trkpt>
      <trkpt lat="43.125169" lon="-2.302429">
        <ele>794.580</ele>
        <time>2021-04-06T08:33:03Z</time>
      </trkpt>
      <trkpt lat="43.125185" lon="-2.302461">
        <ele>794.438</ele>
        <time>2021-04-06T08:33:04Z</time>
      </trkpt>
      <trkpt lat="43.125250" lon="-2.302556">
        <ele>793.665</ele>
        <time>2021-04-06T08:33:07Z</time>
      </trkpt>
      <trkpt lat="43.125320" lon="-2.302675">
        <ele>792.563</ele>
        <time>2021-04-06T08:33:10Z</time>
      </trkpt>
      <trkpt lat="43.125370" lon="-2.302750">
        <ele>792.156</ele>
        <time>2021-04-06T08:33:12Z</time>
      </trkpt>
      <trkpt lat="43.125392" lon="-2.302784">
        <ele>792.059</ele>
        <time>2021-04-06T08:33:13Z</time>
      </trkpt>
      <trkpt lat="43.125412" lon="-2.302819">
        <ele>791.814</ele>
        <time>2021-04-06T08:33:14Z</time>
      </trkpt>
      <trkpt lat="43.125431" lon="-2.302850">
        <ele>791.808</ele>
        <time>2021-04-06T08:33:15Z</time>
      </trkpt>
      <trkpt lat="43.125452" lon="-2.302882">
        <ele>791.852</ele>
        <time>2021-04-06T08:33:16Z</time>
      </trkpt>
      <trkpt lat="43.125468" lon="-2.302910">
        <ele>791.965</ele>
        <time>2021-04-06T08:33:17Z</time>
      </trkpt>
      <trkpt lat="43.125485" lon="-2.302939">
        <ele>792.026</ele>
        <time>2021-04-06T08:33:18Z</time>
      </trkpt>
      <trkpt lat="43.125506" lon="-2.302966">
        <ele>792.281</ele>
        <time>2021-04-06T08:33:19Z</time>
      </trkpt>
      <trkpt lat="43.125526" lon="-2.302994">
        <ele>792.436</ele>
        <time>2021-04-06T08:33:20Z</time>
      </trkpt>
      <trkpt lat="43.125544" lon="-2.303025">
        <ele>792.784</ele>
        <time>2021-04-06T08:33:21Z</time>
      </trkpt>
      <trkpt lat="43.125566" lon="-2.303051">
        <ele>792.981</ele>
        <time>2021-04-06T08:33:22Z</time>
      </trkpt>
      <trkpt lat="43.125583" lon="-2.303078">
        <ele>792.639</ele>
        <time>2021-04-06T08:33:23Z</time>
      </trkpt>
      <trkpt lat="43.125599" lon="-2.303104">
        <ele>792.356</ele>
        <time>2021-04-06T08:33:24Z</time>
      </trkpt>
      <trkpt lat="43.125614" lon="-2.303130">
        <ele>792.159</ele>
        <time>2021-04-06T08:33:25Z</time>
      </trkpt>
      <trkpt lat="43.125634" lon="-2.303151">
        <ele>792.014</ele>
        <time>2021-04-06T08:33:26Z</time>
      </trkpt>
      <trkpt lat="43.125654" lon="-2.303174">
        <ele>791.808</ele>
        <time>2021-04-06T08:33:27Z</time>
      </trkpt>
      <trkpt lat="43.125676" lon="-2.303199">
        <ele>791.892</ele>
        <time>2021-04-06T08:33:28Z</time>
      </trkpt>
      <trkpt lat="43.125696" lon="-2.303223">
        <ele>791.845</ele>
        <time>2021-04-06T08:33:29Z</time>
      </trkpt>
      <trkpt lat="43.125721" lon="-2.303246">
        <ele>791.976</ele>
        <time>2021-04-06T08:33:30Z</time>
      </trkpt>
      <trkpt lat="43.125749" lon="-2.303268">
        <ele>792.021</ele>
        <time>2021-04-06T08:33:31Z</time>
      </trkpt>
      <trkpt lat="43.125776" lon="-2.303294">
        <ele>792.376</ele>
        <time>2021-04-06T08:33:32Z</time>
      </trkpt>
      <trkpt lat="43.125816" lon="-2.303358">
        <ele>792.974</ele>
        <time>2021-04-06T08:33:33Z</time>
      </trkpt>
      <trkpt lat="43.125834" lon="-2.303394">
        <ele>793.271</ele>
        <time>2021-04-06T08:33:35Z</time>
      </trkpt>
      <trkpt lat="43.125855" lon="-2.303426">
        <ele>793.119</ele>
        <time>2021-04-06T08:33:36Z</time>
      </trkpt>
      <trkpt lat="43.125873" lon="-2.303457">
        <ele>793.027</ele>
        <time>2021-04-06T08:33:37Z</time>
      </trkpt>
      <trkpt lat="43.125894" lon="-2.303484">
        <ele>792.968</ele>
        <time>2021-04-06T08:33:38Z</time>
      </trkpt>
      <trkpt lat="43.125914" lon="-2.303510">
        <ele>792.814</ele>
        <time>2021-04-06T08:33:39Z</time>
      </trkpt>
      <trkpt lat="43.125934" lon="-2.303534">
        <ele>792.808</ele>
        <time>2021-04-06T08:33:40Z</time>
      </trkpt>
      <trkpt lat="43.125955" lon="-2.303556">
        <ele>792.889</ele>
        <time>2021-04-06T08:33:41Z</time>
      </trkpt>
      <trkpt lat="43.125982" lon="-2.303576">
        <ele>792.722</ele>
        <time>2021-04-06T08:33:42Z</time>
      </trkpt>
      <trkpt lat="43.126007" lon="-2.303595">
        <ele>792.673</ele>
        <time>2021-04-06T08:33:43Z</time>
      </trkpt>
      <trkpt lat="43.126037" lon="-2.303610">
        <ele>792.568</ele>
        <time>2021-04-06T08:33:44Z</time>
      </trkpt>
      <trkpt lat="43.126066" lon="-2.303622">
        <ele>792.493</ele>
        <time>2021-04-06T08:33:45Z</time>
      </trkpt>
      <trkpt lat="43.126093" lon="-2.303629">
        <ele>792.351</ele>
        <time>2021-04-06T08:33:46Z</time>
      </trkpt>
      <trkpt lat="43.126119" lon="-2.303638">
        <ele>792.288</ele>
        <time>2021-04-06T08:33:47Z</time>
      </trkpt>
      <trkpt lat="43.126143" lon="-2.303645">
        <ele>792.116</ele>
        <time>2021-04-06T08:33:48Z</time>
      </trkpt>
      <trkpt lat="43.126188" lon="-2.303657">
        <ele>791.913</ele>
        <time>2021-04-06T08:33:49Z</time>
      </trkpt>
      <trkpt lat="43.126207" lon="-2.303661">
        <ele>791.843</ele>
        <time>2021-04-06T08:33:51Z</time>
      </trkpt>
      <trkpt lat="43.126247" lon="-2.303666">
        <ele>791.607</ele>
        <time>2021-04-06T08:33:52Z</time>
      </trkpt>
      <trkpt lat="43.126267" lon="-2.303674">
        <ele>791.608</ele>
        <time>2021-04-06T08:33:54Z</time>
      </trkpt>
      <trkpt lat="43.126289" lon="-2.303682">
        <ele>791.558</ele>
        <time>2021-04-06T08:33:55Z</time>
      </trkpt>
      <trkpt lat="43.126310" lon="-2.303691">
        <ele>791.441</ele>
        <time>2021-04-06T08:33:56Z</time>
      </trkpt>
      <trkpt lat="43.126332" lon="-2.303700">
        <ele>791.432</ele>
        <time>2021-04-06T08:33:57Z</time>
      </trkpt>
      <trkpt lat="43.126355" lon="-2.303714">
        <ele>791.497</ele>
        <time>2021-04-06T08:33:58Z</time>
      </trkpt>
      <trkpt lat="43.126378" lon="-2.303733">
        <ele>791.492</ele>
        <time>2021-04-06T08:33:59Z</time>
      </trkpt>
      <trkpt lat="43.126423" lon="-2.303782">
        <ele>791.150</ele>
        <time>2021-04-06T08:34:00Z</time>
      </trkpt>
      <trkpt lat="43.126445" lon="-2.303814">
        <ele>791.017</ele>
        <time>2021-04-06T08:34:02Z</time>
      </trkpt>
      <trkpt lat="43.126467" lon="-2.303847">
        <ele>790.985</ele>
        <time>2021-04-06T08:34:03Z</time>
      </trkpt>
      <trkpt lat="43.126487" lon="-2.303882">
        <ele>790.855</ele>
        <time>2021-04-06T08:34:04Z</time>
      </trkpt>
      <trkpt lat="43.126507" lon="-2.303917">
        <ele>790.707</ele>
        <time>2021-04-06T08:34:05Z</time>
      </trkpt>
      <trkpt lat="43.126524" lon="-2.303951">
        <ele>790.517</ele>
        <time>2021-04-06T08:34:06Z</time>
      </trkpt>
      <trkpt lat="43.126544" lon="-2.303978">
        <ele>790.308</ele>
        <time>2021-04-06T08:34:07Z</time>
      </trkpt>
      <trkpt lat="43.126566" lon="-2.304004">
        <ele>790.082</ele>
        <time>2021-04-06T08:34:08Z</time>
      </trkpt>
      <trkpt lat="43.126585" lon="-2.304031">
        <ele>789.875</ele>
        <time>2021-04-06T08:34:09Z</time>
      </trkpt>
      <trkpt lat="43.126604" lon="-2.304060">
        <ele>789.646</ele>
        <time>2021-04-06T08:34:10Z</time>
      </trkpt>
      <trkpt lat="43.126647" lon="-2.304116">
        <ele>789.191</ele>
        <time>2021-04-06T08:34:11Z</time>
      </trkpt>
      <trkpt lat="43.126668" lon="-2.304141">
        <ele>788.866</ele>
        <time>2021-04-06T08:34:13Z</time>
      </trkpt>
      <trkpt lat="43.126692" lon="-2.304167">
        <ele>789.144</ele>
        <time>2021-04-06T08:34:14Z</time>
      </trkpt>
      <trkpt lat="43.126717" lon="-2.304193">
        <ele>789.091</ele>
        <time>2021-04-06T08:34:15Z</time>
      </trkpt>
      <trkpt lat="43.126742" lon="-2.304219">
        <ele>789.019</ele>
        <time>2021-04-06T08:34:16Z</time>
      </trkpt>
      <trkpt lat="43.126768" lon="-2.304242">
        <ele>789.059</ele>
        <time>2021-04-06T08:34:17Z</time>
      </trkpt>
      <trkpt lat="43.126791" lon="-2.304263">
        <ele>789.103</ele>
        <time>2021-04-06T08:34:18Z</time>
      </trkpt>
      <trkpt lat="43.126808" lon="-2.304282">
        <ele>789.123</ele>
        <time>2021-04-06T08:34:19Z</time>
      </trkpt>
      <trkpt lat="43.126830" lon="-2.304305">
        <ele>789.208</ele>
        <time>2021-04-06T08:34:21Z</time>
      </trkpt>
      <trkpt lat="43.126853" lon="-2.304327">
        <ele>789.372</ele>
        <time>2021-04-06T08:34:23Z</time>
      </trkpt>
      <trkpt lat="43.126871" lon="-2.304349">
        <ele>789.485</ele>
        <time>2021-04-06T08:34:25Z</time>
      </trkpt>
      <trkpt lat="43.126889" lon="-2.304379">
        <ele>789.586</ele>
        <time>2021-04-06T08:34:27Z</time>
      </trkpt>
      <trkpt lat="43.126907" lon="-2.304407">
        <ele>789.681</ele>
        <time>2021-04-06T08:34:29Z</time>
      </trkpt>
      <trkpt lat="43.126930" lon="-2.304424">
        <ele>789.926</ele>
        <time>2021-04-06T08:34:31Z</time>
      </trkpt>
      <trkpt lat="43.126956" lon="-2.304440">
        <ele>790.394</ele>
        <time>2021-04-06T08:34:33Z</time>
      </trkpt>
      <trkpt lat="43.126982" lon="-2.304450">
        <ele>790.971</ele>
        <time>2021-04-06T08:34:35Z</time>
      </trkpt>
      <trkpt lat="43.127003" lon="-2.304449">
        <ele>791.529</ele>
        <time>2021-04-06T08:34:37Z</time>
      </trkpt>
      <trkpt lat="43.127029" lon="-2.304448">
        <ele>792.195</ele>
        <time>2021-04-06T08:34:39Z</time>
      </trkpt>
      <trkpt lat="43.127054" lon="-2.304451">
        <ele>792.749</ele>
        <time>2021-04-06T08:34:41Z</time>
      </trkpt>
      <trkpt lat="43.127077" lon="-2.304458">
        <ele>793.323</ele>
        <time>2021-04-06T08:34:43Z</time>
      </trkpt>
      <trkpt lat="43.127103" lon="-2.304465">
        <ele>794.008</ele>
        <time>2021-04-06T08:34:45Z</time>
      </trkpt>
      <trkpt lat="43.127127" lon="-2.304474">
        <ele>794.656</ele>
        <time>2021-04-06T08:34:47Z</time>
      </trkpt>
      <trkpt lat="43.127160" lon="-2.304484">
        <ele>795.489</ele>
        <time>2021-04-06T08:34:49Z</time>
      </trkpt>
      <trkpt lat="43.127183" lon="-2.304493">
        <ele>796.090</ele>
        <time>2021-04-06T08:34:52Z</time>
      </trkpt>
      <trkpt lat="43.127200" lon="-2.304507">
        <ele>796.475</ele>
        <time>2021-04-06T08:34:54Z</time>
      </trkpt>
      <trkpt lat="43.127216" lon="-2.304525">
        <ele>796.860</ele>
        <time>2021-04-06T08:34:56Z</time>
      </trkpt>
      <trkpt lat="43.127233" lon="-2.304535">
        <ele>797.478</ele>
        <time>2021-04-06T08:34:58Z</time>
      </trkpt>
      <trkpt lat="43.127253" lon="-2.304536">
        <ele>798.255</ele>
        <time>2021-04-06T08:35:00Z</time>
      </trkpt>
      <trkpt lat="43.127271" lon="-2.304544">
        <ele>798.953</ele>
        <time>2021-04-06T08:35:02Z</time>
      </trkpt>
      <trkpt lat="43.127292" lon="-2.304549">
        <ele>799.874</ele>
        <time>2021-04-06T08:35:05Z</time>
      </trkpt>
      <trkpt lat="43.127310" lon="-2.304556">
        <ele>800.556</ele>
        <time>2021-04-06T08:35:06Z</time>
      </trkpt>
      <trkpt lat="43.127328" lon="-2.304564">
        <ele>801.221</ele>
        <time>2021-04-06T08:35:08Z</time>
      </trkpt>
      <trkpt lat="43.127351" lon="-2.304576">
        <ele>802.108</ele>
        <time>2021-04-06T08:35:12Z</time>
      </trkpt>
      <trkpt lat="43.127367" lon="-2.304584">
        <ele>802.794</ele>
        <time>2021-04-06T08:35:14Z</time>
      </trkpt>
      <trkpt lat="43.127387" lon="-2.304592">
        <ele>803.517</ele>
        <time>2021-04-06T08:35:17Z</time>
      </trkpt>
      <trkpt lat="43.127403" lon="-2.304600">
        <ele>804.218</ele>
        <time>2021-04-06T08:35:19Z</time>
      </trkpt>
      <trkpt lat="43.127422" lon="-2.304608">
        <ele>804.983</ele>
        <time>2021-04-06T08:35:21Z</time>
      </trkpt>
      <trkpt lat="43.127448" lon="-2.304613">
        <ele>805.938</ele>
        <time>2021-04-06T08:35:24Z</time>
      </trkpt>
      <trkpt lat="43.127468" lon="-2.304619">
        <ele>806.726</ele>
        <time>2021-04-06T08:35:26Z</time>
      </trkpt>
      <trkpt lat="43.127495" lon="-2.304620">
        <ele>807.853</ele>
        <time>2021-04-06T08:35:29Z</time>
      </trkpt>
      <trkpt lat="43.127511" lon="-2.304630">
        <ele>808.311</ele>
        <time>2021-04-06T08:35:31Z</time>
      </trkpt>
      <trkpt lat="43.127534" lon="-2.304643">
        <ele>808.983</ele>
        <time>2021-04-06T08:35:34Z</time>
      </trkpt>
      <trkpt lat="43.127550" lon="-2.304659">
        <ele>809.425</ele>
        <time>2021-04-06T08:35:36Z</time>
      </trkpt>
      <trkpt lat="43.127571" lon="-2.304670">
        <ele>810.017</ele>
        <time>2021-04-06T08:35:38Z</time>
      </trkpt>
      <trkpt lat="43.127590" lon="-2.304676">
        <ele>810.508</ele>
        <time>2021-04-06T08:35:40Z</time>
      </trkpt>
      <trkpt lat="43.127609" lon="-2.304681">
        <ele>811.195</ele>
        <time>2021-04-06T08:35:41Z</time>
      </trkpt>
      <trkpt lat="43.127636" lon="-2.304684">
        <ele>811.868</ele>
        <time>2021-04-06T08:35:44Z</time>
      </trkpt>
      <trkpt lat="43.127657" lon="-2.304689">
        <ele>812.549</ele>
        <time>2021-04-06T08:35:46Z</time>
      </trkpt>
      <trkpt lat="43.127683" lon="-2.304695">
        <ele>813.274</ele>
        <time>2021-04-06T08:35:48Z</time>
      </trkpt>
      <trkpt lat="43.127704" lon="-2.304702">
        <ele>813.839</ele>
        <time>2021-04-06T08:35:50Z</time>
      </trkpt>
      <trkpt lat="43.127724" lon="-2.304711">
        <ele>814.477</ele>
        <time>2021-04-06T08:35:52Z</time>
      </trkpt>
      <trkpt lat="43.127746" lon="-2.304719">
        <ele>815.174</ele>
        <time>2021-04-06T08:35:54Z</time>
      </trkpt>
      <trkpt lat="43.127768" lon="-2.304728">
        <ele>815.782</ele>
        <time>2021-04-06T08:35:56Z</time>
      </trkpt>
      <trkpt lat="43.127797" lon="-2.304735">
        <ele>816.449</ele>
        <time>2021-04-06T08:35:59Z</time>
      </trkpt>
      <trkpt lat="43.127818" lon="-2.304741">
        <ele>816.902</ele>
        <time>2021-04-06T08:36:00Z</time>
      </trkpt>
      <trkpt lat="43.127843" lon="-2.304750">
        <ele>817.522</ele>
        <time>2021-04-06T08:36:03Z</time>
      </trkpt>
      <trkpt lat="43.127864" lon="-2.304759">
        <ele>818.008</ele>
        <time>2021-04-06T08:36:05Z</time>
      </trkpt>
      <trkpt lat="43.127882" lon="-2.304766">
        <ele>818.541</ele>
        <time>2021-04-06T08:36:07Z</time>
      </trkpt>
      <trkpt lat="43.127898" lon="-2.304771">
        <ele>818.974</ele>
        <time>2021-04-06T08:36:09Z</time>
      </trkpt>
      <trkpt lat="43.127918" lon="-2.304781">
        <ele>819.465</ele>
        <time>2021-04-06T08:36:12Z</time>
      </trkpt>
      <trkpt lat="43.127939" lon="-2.304788">
        <ele>820.070</ele>
        <time>2021-04-06T08:36:14Z</time>
      </trkpt>
      <trkpt lat="43.127955" lon="-2.304795">
        <ele>820.495</ele>
        <time>2021-04-06T08:36:16Z</time>
      </trkpt>
      <trkpt lat="43.127978" lon="-2.304807">
        <ele>821.113</ele>
        <time>2021-04-06T08:36:19Z</time>
      </trkpt>
      <trkpt lat="43.127997" lon="-2.304812">
        <ele>821.630</ele>
        <time>2021-04-06T08:36:21Z</time>
      </trkpt>
      <trkpt lat="43.128015" lon="-2.304821">
        <ele>822.278</ele>
        <time>2021-04-06T08:36:23Z</time>
      </trkpt>
      <trkpt lat="43.128041" lon="-2.304835">
        <ele>823.078</ele>
        <time>2021-04-06T08:36:26Z</time>
      </trkpt>
      <trkpt lat="43.128060" lon="-2.304845">
        <ele>823.533</ele>
        <time>2021-04-06T08:36:27Z</time>
      </trkpt>
      <trkpt lat="43.128083" lon="-2.304859">
        <ele>824.126</ele>
        <time>2021-04-06T08:36:30Z</time>
      </trkpt>
      <trkpt lat="43.128100" lon="-2.304870">
        <ele>824.608</ele>
        <time>2021-04-06T08:36:32Z</time>
      </trkpt>
      <trkpt lat="43.128110" lon="-2.304887">
        <ele>824.984</ele>
        <time>2021-04-06T08:36:36Z</time>
      </trkpt>
      <trkpt lat="43.128126" lon="-2.304899">
        <ele>825.317</ele>
        <time>2021-04-06T08:36:38Z</time>
      </trkpt>
      <trkpt lat="43.128146" lon="-2.304911">
        <ele>825.938</ele>
        <time>2021-04-06T08:36:40Z</time>
      </trkpt>
      <trkpt lat="43.128168" lon="-2.304922">
        <ele>826.433</ele>
        <time>2021-04-06T08:36:42Z</time>
      </trkpt>
      <trkpt lat="43.128184" lon="-2.304932">
        <ele>826.998</ele>
        <time>2021-04-06T08:36:43Z</time>
      </trkpt>
      <trkpt lat="43.128199" lon="-2.304947">
        <ele>827.336</ele>
        <time>2021-04-06T08:36:45Z</time>
      </trkpt>
      <trkpt lat="43.128214" lon="-2.304965">
        <ele>827.833</ele>
        <time>2021-04-06T08:36:47Z</time>
      </trkpt>
      <trkpt lat="43.128239" lon="-2.304972">
        <ele>828.581</ele>
        <time>2021-04-06T08:36:49Z</time>
      </trkpt>
      <trkpt lat="43.128261" lon="-2.304981">
        <ele>829.197</ele>
        <time>2021-04-06T08:36:51Z</time>
      </trkpt>
      <trkpt lat="43.128282" lon="-2.304999">
        <ele>829.723</ele>
        <time>2021-04-06T08:36:53Z</time>
      </trkpt>
      <trkpt lat="43.128308" lon="-2.305009">
        <ele>830.425</ele>
        <time>2021-04-06T08:36:57Z</time>
      </trkpt>
      <trkpt lat="43.128321" lon="-2.305014">
        <ele>830.708</ele>
        <time>2021-04-06T08:36:58Z</time>
      </trkpt>
      <trkpt lat="43.128346" lon="-2.305019">
        <ele>831.456</ele>
        <time>2021-04-06T08:37:00Z</time>
      </trkpt>
      <trkpt lat="43.128364" lon="-2.305024">
        <ele>831.889</ele>
        <time>2021-04-06T08:37:01Z</time>
      </trkpt>
      <trkpt lat="43.128389" lon="-2.305029">
        <ele>832.480</ele>
        <time>2021-04-06T08:37:02Z</time>
      </trkpt>
      <trkpt lat="43.128407" lon="-2.305037">
        <ele>832.975</ele>
        <time>2021-04-06T08:37:05Z</time>
      </trkpt>
      <trkpt lat="43.128431" lon="-2.305041">
        <ele>833.560</ele>
        <time>2021-04-06T08:37:07Z</time>
      </trkpt>
      <trkpt lat="43.128453" lon="-2.305052">
        <ele>834.178</ele>
        <time>2021-04-06T08:37:09Z</time>
      </trkpt>
      <trkpt lat="43.128477" lon="-2.305061">
        <ele>834.825</ele>
        <time>2021-04-06T08:37:11Z</time>
      </trkpt>
      <trkpt lat="43.128499" lon="-2.305070">
        <ele>835.473</ele>
        <time>2021-04-06T08:37:13Z</time>
      </trkpt>
      <trkpt lat="43.128519" lon="-2.305080">
        <ele>836.147</ele>
        <time>2021-04-06T08:37:15Z</time>
      </trkpt>
      <trkpt lat="43.128540" lon="-2.305083">
        <ele>836.729</ele>
        <time>2021-04-06T08:37:17Z</time>
      </trkpt>
      <trkpt lat="43.128565" lon="-2.305087">
        <ele>837.421</ele>
        <time>2021-04-06T08:37:19Z</time>
      </trkpt>
      <trkpt lat="43.128598" lon="-2.305096">
        <ele>838.408</ele>
        <time>2021-04-06T08:37:21Z</time>
      </trkpt>
      <trkpt lat="43.128623" lon="-2.305099">
        <ele>838.961</ele>
        <time>2021-04-06T08:37:24Z</time>
      </trkpt>
      <trkpt lat="43.128646" lon="-2.305111">
        <ele>839.314</ele>
        <time>2021-04-06T08:37:26Z</time>
      </trkpt>
      <trkpt lat="43.128667" lon="-2.305123">
        <ele>839.615</ele>
        <time>2021-04-06T08:37:28Z</time>
      </trkpt>
      <trkpt lat="43.128687" lon="-2.305136">
        <ele>840.050</ele>
        <time>2021-04-06T08:37:30Z</time>
      </trkpt>
      <trkpt lat="43.128704" lon="-2.305145">
        <ele>840.325</ele>
        <time>2021-04-06T08:37:32Z</time>
      </trkpt>
      <trkpt lat="43.128727" lon="-2.305152">
        <ele>840.543</ele>
        <time>2021-04-06T08:37:34Z</time>
      </trkpt>
      <trkpt lat="43.128751" lon="-2.305168">
        <ele>840.930</ele>
        <time>2021-04-06T08:37:36Z</time>
      </trkpt>
      <trkpt lat="43.128774" lon="-2.305182">
        <ele>841.328</ele>
        <time>2021-04-06T08:37:38Z</time>
      </trkpt>
      <trkpt lat="43.128801" lon="-2.305193">
        <ele>841.621</ele>
        <time>2021-04-06T08:37:40Z</time>
      </trkpt>
      <trkpt lat="43.128828" lon="-2.305199">
        <ele>841.841</ele>
        <time>2021-04-06T08:37:42Z</time>
      </trkpt>
      <trkpt lat="43.128855" lon="-2.305208">
        <ele>842.105</ele>
        <time>2021-04-06T08:37:44Z</time>
      </trkpt>
      <trkpt lat="43.128882" lon="-2.305225">
        <ele>842.408</ele>
        <time>2021-04-06T08:37:46Z</time>
      </trkpt>
      <trkpt lat="43.128912" lon="-2.305238">
        <ele>842.889</ele>
        <time>2021-04-06T08:37:48Z</time>
      </trkpt>
      <trkpt lat="43.128941" lon="-2.305253">
        <ele>843.312</ele>
        <time>2021-04-06T08:37:50Z</time>
      </trkpt>
      <trkpt lat="43.128965" lon="-2.305263">
        <ele>843.613</ele>
        <time>2021-04-06T08:37:52Z</time>
      </trkpt>
      <trkpt lat="43.128988" lon="-2.305274">
        <ele>844.058</ele>
        <time>2021-04-06T08:37:54Z</time>
      </trkpt>
      <trkpt lat="43.129008" lon="-2.305283">
        <ele>844.373</ele>
        <time>2021-04-06T08:37:56Z</time>
      </trkpt>
      <trkpt lat="43.129030" lon="-2.305297">
        <ele>844.691</ele>
        <time>2021-04-06T08:37:58Z</time>
      </trkpt>
      <trkpt lat="43.129053" lon="-2.305306">
        <ele>844.998</ele>
        <time>2021-04-06T08:38:00Z</time>
      </trkpt>
      <trkpt lat="43.129074" lon="-2.305318">
        <ele>845.266</ele>
        <time>2021-04-06T08:38:02Z</time>
      </trkpt>
      <trkpt lat="43.129095" lon="-2.305330">
        <ele>845.653</ele>
        <time>2021-04-06T08:38:04Z</time>
      </trkpt>
      <trkpt lat="43.129120" lon="-2.305338">
        <ele>845.904</ele>
        <time>2021-04-06T08:38:06Z</time>
      </trkpt>
      <trkpt lat="43.129146" lon="-2.305345">
        <ele>846.214</ele>
        <time>2021-04-06T08:38:08Z</time>
      </trkpt>
      <trkpt lat="43.129171" lon="-2.305349">
        <ele>846.608</ele>
        <time>2021-04-06T08:38:10Z</time>
      </trkpt>
      <trkpt lat="43.129196" lon="-2.305352">
        <ele>847.382</ele>
        <time>2021-04-06T08:38:12Z</time>
      </trkpt>
      <trkpt lat="43.129217" lon="-2.305363">
        <ele>847.925</ele>
        <time>2021-04-06T08:38:14Z</time>
      </trkpt>
      <trkpt lat="43.129244" lon="-2.305372">
        <ele>848.656</ele>
        <time>2021-04-06T08:38:16Z</time>
      </trkpt>
      <trkpt lat="43.129275" lon="-2.305386">
        <ele>849.541</ele>
        <time>2021-04-06T08:38:18Z</time>
      </trkpt>
      <trkpt lat="43.129293" lon="-2.305399">
        <ele>850.186</ele>
        <time>2021-04-06T08:38:21Z</time>
      </trkpt>
      <trkpt lat="43.129315" lon="-2.305410">
        <ele>850.744</ele>
        <time>2021-04-06T08:38:23Z</time>
      </trkpt>
      <trkpt lat="43.129339" lon="-2.305414">
        <ele>851.381</ele>
        <time>2021-04-06T08:38:25Z</time>
      </trkpt>
      <trkpt lat="43.129357" lon="-2.305421">
        <ele>851.849</ele>
        <time>2021-04-06T08:38:27Z</time>
      </trkpt>
      <trkpt lat="43.129374" lon="-2.305428">
        <ele>852.339</ele>
        <time>2021-04-06T08:38:29Z</time>
      </trkpt>
      <trkpt lat="43.129390" lon="-2.305433">
        <ele>852.701</ele>
        <time>2021-04-06T08:38:31Z</time>
      </trkpt>
      <trkpt lat="43.129408" lon="-2.305446">
        <ele>853.321</ele>
        <time>2021-04-06T08:38:33Z</time>
      </trkpt>
      <trkpt lat="43.129431" lon="-2.305455">
        <ele>853.908</ele>
        <time>2021-04-06T08:38:36Z</time>
      </trkpt>
      <trkpt lat="43.129446" lon="-2.305464">
        <ele>854.470</ele>
        <time>2021-04-06T08:38:38Z</time>
      </trkpt>
      <trkpt lat="43.129470" lon="-2.305475">
        <ele>855.493</ele>
        <time>2021-04-06T08:38:41Z</time>
      </trkpt>
      <trkpt lat="43.129487" lon="-2.305482">
        <ele>856.294</ele>
        <time>2021-04-06T08:38:43Z</time>
      </trkpt>
      <trkpt lat="43.129510" lon="-2.305484">
        <ele>857.149</ele>
        <time>2021-04-06T08:38:46Z</time>
      </trkpt>
      <trkpt lat="43.129530" lon="-2.305494">
        <ele>858.054</ele>
        <time>2021-04-06T08:38:49Z</time>
      </trkpt>
      <trkpt lat="43.129549" lon="-2.305506">
        <ele>859.032</ele>
        <time>2021-04-06T08:38:52Z</time>
      </trkpt>
      <trkpt lat="43.129570" lon="-2.305513">
        <ele>859.989</ele>
        <time>2021-04-06T08:38:55Z</time>
      </trkpt>
      <trkpt lat="43.129592" lon="-2.305524">
        <ele>861.017</ele>
        <time>2021-04-06T08:38:58Z</time>
      </trkpt>
      <trkpt lat="43.129605" lon="-2.305538">
        <ele>861.753</ele>
        <time>2021-04-06T08:39:01Z</time>
      </trkpt>
      <trkpt lat="43.129619" lon="-2.305543">
        <ele>862.404</ele>
        <time>2021-04-06T08:39:03Z</time>
      </trkpt>
      <trkpt lat="43.129638" lon="-2.305551">
        <ele>863.314</ele>
        <time>2021-04-06T08:39:06Z</time>
      </trkpt>
      <trkpt lat="43.129659" lon="-2.305561">
        <ele>864.308</ele>
        <time>2021-04-06T08:39:09Z</time>
      </trkpt>
      <trkpt lat="43.129675" lon="-2.305574">
        <ele>865.022</ele>
        <time>2021-04-06T08:39:12Z</time>
      </trkpt>
      <trkpt lat="43.129689" lon="-2.305582">
        <ele>865.695</ele>
        <time>2021-04-06T08:39:14Z</time>
      </trkpt>
      <trkpt lat="43.129709" lon="-2.305584">
        <ele>866.516</ele>
        <time>2021-04-06T08:39:17Z</time>
      </trkpt>
      <trkpt lat="43.129725" lon="-2.305592">
        <ele>867.211</ele>
        <time>2021-04-06T08:39:20Z</time>
      </trkpt>
      <trkpt lat="43.129743" lon="-2.305599">
        <ele>867.896</ele>
        <time>2021-04-06T08:39:23Z</time>
      </trkpt>
      <trkpt lat="43.129759" lon="-2.305603">
        <ele>868.444</ele>
        <time>2021-04-06T08:39:26Z</time>
      </trkpt>
      <trkpt lat="43.129777" lon="-2.305613">
        <ele>869.041</ele>
        <time>2021-04-06T08:39:29Z</time>
      </trkpt>
      <trkpt lat="43.129795" lon="-2.305619">
        <ele>869.659</ele>
        <time>2021-04-06T08:39:32Z</time>
      </trkpt>
      <trkpt lat="43.129813" lon="-2.305626">
        <ele>870.293</ele>
        <time>2021-04-06T08:39:35Z</time>
      </trkpt>
      <trkpt lat="43.129831" lon="-2.305639">
        <ele>870.865</ele>
        <time>2021-04-06T08:39:39Z</time>
      </trkpt>
      <trkpt lat="43.129849" lon="-2.305644">
        <ele>871.421</ele>
        <time>2021-04-06T08:39:42Z</time>
      </trkpt>
      <trkpt lat="43.129864" lon="-2.305645">
        <ele>871.908</ele>
        <time>2021-04-06T08:39:44Z</time>
      </trkpt>
      <trkpt lat="43.129882" lon="-2.305656">
        <ele>872.566</ele>
        <time>2021-04-06T08:39:50Z</time>
      </trkpt>
      <trkpt lat="43.129895" lon="-2.305684">
        <ele>873.129</ele>
        <time>2021-04-06T08:39:53Z</time>
      </trkpt>
      <trkpt lat="43.129910" lon="-2.305690">
        <ele>873.620</ele>
        <time>2021-04-06T08:39:57Z</time>
      </trkpt>
      <trkpt lat="43.129929" lon="-2.305687">
        <ele>874.285</ele>
        <time>2021-04-06T08:40:00Z</time>
      </trkpt>
      <trkpt lat="43.129945" lon="-2.305693">
        <ele>874.710</ele>
        <time>2021-04-06T08:40:02Z</time>
      </trkpt>
      <trkpt lat="43.129967" lon="-2.305705">
        <ele>875.518</ele>
        <time>2021-04-06T08:40:05Z</time>
      </trkpt>
      <trkpt lat="43.129986" lon="-2.305719">
        <ele>876.175</ele>
        <time>2021-04-06T08:40:07Z</time>
      </trkpt>
      <trkpt lat="43.130010" lon="-2.305729">
        <ele>876.763</ele>
        <time>2021-04-06T08:40:09Z</time>
      </trkpt>
      <trkpt lat="43.130037" lon="-2.305737">
        <ele>876.833</ele>
        <time>2021-04-06T08:40:11Z</time>
      </trkpt>
      <trkpt lat="43.130064" lon="-2.305751">
        <ele>877.023</ele>
        <time>2021-04-06T08:40:12Z</time>
      </trkpt>
      <trkpt lat="43.130094" lon="-2.305766">
        <ele>877.215</ele>
        <time>2021-04-06T08:40:15Z</time>
      </trkpt>
      <trkpt lat="43.130125" lon="-2.305779">
        <ele>877.408</ele>
        <time>2021-04-06T08:40:16Z</time>
      </trkpt>
      <trkpt lat="43.130151" lon="-2.305791">
        <ele>877.780</ele>
        <time>2021-04-06T08:40:19Z</time>
      </trkpt>
      <trkpt lat="43.130179" lon="-2.305801">
        <ele>877.963</ele>
        <time>2021-04-06T08:40:21Z</time>
      </trkpt>
      <trkpt lat="43.130207" lon="-2.305812">
        <ele>878.274</ele>
        <time>2021-04-06T08:40:23Z</time>
      </trkpt>
      <trkpt lat="43.130229" lon="-2.305824">
        <ele>878.559</ele>
        <time>2021-04-06T08:40:25Z</time>
      </trkpt>
      <trkpt lat="43.130254" lon="-2.305834">
        <ele>878.884</ele>
        <time>2021-04-06T08:40:27Z</time>
      </trkpt>
      <trkpt lat="43.130278" lon="-2.305842">
        <ele>879.072</ele>
        <time>2021-04-06T08:40:29Z</time>
      </trkpt>
      <trkpt lat="43.130301" lon="-2.305850">
        <ele>879.769</ele>
        <time>2021-04-06T08:40:31Z</time>
      </trkpt>
      <trkpt lat="43.130325" lon="-2.305855">
        <ele>880.347</ele>
        <time>2021-04-06T08:40:33Z</time>
      </trkpt>
      <trkpt lat="43.130346" lon="-2.305864">
        <ele>880.983</ele>
        <time>2021-04-06T08:40:35Z</time>
      </trkpt>
      <trkpt lat="43.130364" lon="-2.305877">
        <ele>881.525</ele>
        <time>2021-04-06T08:40:37Z</time>
      </trkpt>
      <trkpt lat="43.130373" lon="-2.305882">
        <ele>881.817</ele>
        <time>2021-04-06T08:40:38Z</time>
      </trkpt>
      <trkpt lat="43.130392" lon="-2.305886">
        <ele>882.408</ele>
        <time>2021-04-06T08:40:40Z</time>
      </trkpt>
      <trkpt lat="43.130409" lon="-2.305894">
        <ele>882.945</ele>
        <time>2021-04-06T08:40:42Z</time>
      </trkpt>
      <trkpt lat="43.130426" lon="-2.305902">
        <ele>883.578</ele>
        <time>2021-04-06T08:40:44Z</time>
      </trkpt>
      <trkpt lat="43.130444" lon="-2.305910">
        <ele>884.179</ele>
        <time>2021-04-06T08:40:46Z</time>
      </trkpt>
      <trkpt lat="43.130462" lon="-2.305918">
        <ele>884.864</ele>
        <time>2021-04-06T08:40:48Z</time>
      </trkpt>
      <trkpt lat="43.130479" lon="-2.305924">
        <ele>885.329</ele>
        <time>2021-04-06T08:40:50Z</time>
      </trkpt>
      <trkpt lat="43.130502" lon="-2.305937">
        <ele>886.277</ele>
        <time>2021-04-06T08:40:53Z</time>
      </trkpt>
      <trkpt lat="43.130519" lon="-2.305941">
        <ele>886.814</ele>
        <time>2021-04-06T08:40:55Z</time>
      </trkpt>
      <trkpt lat="43.130541" lon="-2.305946">
        <ele>887.612</ele>
        <time>2021-04-06T08:40:58Z</time>
      </trkpt>
      <trkpt lat="43.130557" lon="-2.305949">
        <ele>888.165</ele>
        <time>2021-04-06T08:41:00Z</time>
      </trkpt>
      <trkpt lat="43.130581" lon="-2.305960">
        <ele>888.968</ele>
        <time>2021-04-06T08:41:03Z</time>
      </trkpt>
      <trkpt lat="43.130598" lon="-2.305964">
        <ele>889.314</ele>
        <time>2021-04-06T08:41:05Z</time>
      </trkpt>
      <trkpt lat="43.130615" lon="-2.305973">
        <ele>889.908</ele>
        <time>2021-04-06T08:41:07Z</time>
      </trkpt>
      <trkpt lat="43.130632" lon="-2.305987">
        <ele>890.693</ele>
        <time>2021-04-06T08:41:09Z</time>
      </trkpt>
      <trkpt lat="43.130656" lon="-2.305995">
        <ele>891.346</ele>
        <time>2021-04-06T08:41:12Z</time>
      </trkpt>
      <trkpt lat="43.130684" lon="-2.306007">
        <ele>892.327</ele>
        <time>2021-04-06T08:41:15Z</time>
      </trkpt>
      <trkpt lat="43.130705" lon="-2.306015">
        <ele>893.092</ele>
        <time>2021-04-06T08:41:17Z</time>
      </trkpt>
      <trkpt lat="43.130725" lon="-2.306020">
        <ele>893.687</ele>
        <time>2021-04-06T08:41:19Z</time>
      </trkpt>
      <trkpt lat="43.130744" lon="-2.306026">
        <ele>894.355</ele>
        <time>2021-04-06T08:41:20Z</time>
      </trkpt>
      <trkpt lat="43.130762" lon="-2.306032">
        <ele>894.912</ele>
        <time>2021-04-06T08:41:23Z</time>
      </trkpt>
      <trkpt lat="43.130779" lon="-2.306039">
        <ele>895.570</ele>
        <time>2021-04-06T08:41:25Z</time>
      </trkpt>
      <trkpt lat="43.130802" lon="-2.306046">
        <ele>896.352</ele>
        <time>2021-04-06T08:41:27Z</time>
      </trkpt>
      <trkpt lat="43.130822" lon="-2.306052">
        <ele>897.053</ele>
        <time>2021-04-06T08:41:29Z</time>
      </trkpt>
      <trkpt lat="43.130838" lon="-2.306059">
        <ele>897.608</ele>
        <time>2021-04-06T08:41:31Z</time>
      </trkpt>
      <trkpt lat="43.130864" lon="-2.306066">
        <ele>898.308</ele>
        <time>2021-04-06T08:41:33Z</time>
      </trkpt>
      <trkpt lat="43.130883" lon="-2.306074">
        <ele>899.062</ele>
        <time>2021-04-06T08:41:35Z</time>
      </trkpt>
      <trkpt lat="43.130900" lon="-2.306082">
        <ele>899.695</ele>
        <time>2021-04-06T08:41:37Z</time>
      </trkpt>
      <trkpt lat="43.130924" lon="-2.306087">
        <ele>900.476</ele>
        <time>2021-04-06T08:41:40Z</time>
      </trkpt>
      <trkpt lat="43.130942" lon="-2.306095">
        <ele>901.161</ele>
        <time>2021-04-06T08:41:42Z</time>
      </trkpt>
      <trkpt lat="43.130958" lon="-2.306105">
        <ele>901.986</ele>
        <time>2021-04-06T08:41:44Z</time>
      </trkpt>
      <trkpt lat="43.130983" lon="-2.306117">
        <ele>902.964</ele>
        <time>2021-04-06T08:41:47Z</time>
      </trkpt>
      <trkpt lat="43.131006" lon="-2.306122">
        <ele>903.741</ele>
        <time>2021-04-06T08:41:50Z</time>
      </trkpt>
      <trkpt lat="43.131026" lon="-2.306135">
        <ele>904.659</ele>
        <time>2021-04-06T08:41:53Z</time>
      </trkpt>
      <trkpt lat="43.131046" lon="-2.306136">
        <ele>905.229</ele>
        <time>2021-04-06T08:41:56Z</time>
      </trkpt>
      <trkpt lat="43.131073" lon="-2.306135">
        <ele>905.900</ele>
        <time>2021-04-06T08:42:01Z</time>
      </trkpt>
      <trkpt lat="43.131095" lon="-2.306137">
        <ele>906.620</ele>
        <time>2021-04-06T08:42:03Z</time>
      </trkpt>
      <trkpt lat="43.131117" lon="-2.306150">
        <ele>907.708</ele>
        <time>2021-04-06T08:42:05Z</time>
      </trkpt>
      <trkpt lat="43.131131" lon="-2.306163">
        <ele>908.589</ele>
        <time>2021-04-06T08:42:07Z</time>
      </trkpt>
      <trkpt lat="43.131154" lon="-2.306166">
        <ele>909.282</ele>
        <time>2021-04-06T08:42:09Z</time>
      </trkpt>
      <trkpt lat="43.131180" lon="-2.306166">
        <ele>909.873</ele>
        <time>2021-04-06T08:42:12Z</time>
      </trkpt>
      <trkpt lat="43.131193" lon="-2.306169">
        <ele>910.228</ele>
        <time>2021-04-06T08:42:13Z</time>
      </trkpt>
      <trkpt lat="43.131210" lon="-2.306172">
        <ele>910.793</ele>
        <time>2021-04-06T08:42:15Z</time>
      </trkpt>
      <trkpt lat="43.131228" lon="-2.306173">
        <ele>911.251</ele>
        <time>2021-04-06T08:42:18Z</time>
      </trkpt>
      <trkpt lat="43.131249" lon="-2.306179">
        <ele>911.958</ele>
        <time>2021-04-06T08:42:21Z</time>
      </trkpt>
      <trkpt lat="43.131263" lon="-2.306190">
        <ele>912.616</ele>
        <time>2021-04-06T08:42:24Z</time>
      </trkpt>
      <trkpt lat="43.131278" lon="-2.306211">
        <ele>913.775</ele>
        <time>2021-04-06T08:42:27Z</time>
      </trkpt>
      <trkpt lat="43.131271" lon="-2.306235">
        <ele>914.428</ele>
        <time>2021-04-06T08:42:30Z</time>
      </trkpt>
      <trkpt lat="43.131253" lon="-2.306248">
        <ele>914.520</ele>
        <time>2021-04-06T08:42:34Z</time>
      </trkpt>
      <trkpt lat="43.131246" lon="-2.306263">
        <ele>914.908</ele>
        <time>2021-04-06T08:42:36Z</time>
      </trkpt>
      <trkpt lat="43.131247" lon="-2.306295">
        <ele>916.194</ele>
        <time>2021-04-06T08:42:39Z</time>
      </trkpt>
      <trkpt lat="43.131250" lon="-2.306314">
        <ele>916.897</ele>
        <time>2021-04-06T08:42:41Z</time>
      </trkpt>
      <trkpt lat="43.131255" lon="-2.306336">
        <ele>917.758</ele>
        <time>2021-04-06T08:42:43Z</time>
      </trkpt>
      <trkpt lat="43.131249" lon="-2.306362">
        <ele>918.523</ele>
        <time>2021-04-06T08:42:46Z</time>
      </trkpt>
      <trkpt lat="43.131237" lon="-2.306390">
        <ele>919.318</ele>
        <time>2021-04-06T08:42:49Z</time>
      </trkpt>
      <trkpt lat="43.131239" lon="-2.306421">
        <ele>919.966</ele>
        <time>2021-04-06T08:42:52Z</time>
      </trkpt>
      <trkpt lat="43.131236" lon="-2.306448">
        <ele>920.463</ele>
        <time>2021-04-06T08:42:55Z</time>
      </trkpt>
      <trkpt lat="43.131223" lon="-2.306476">
        <ele>920.861</ele>
        <time>2021-04-06T08:42:58Z</time>
      </trkpt>
      <trkpt lat="43.131219" lon="-2.306502">
        <ele>921.259</ele>
        <time>2021-04-06T08:43:01Z</time>
      </trkpt>
      <trkpt lat="43.131199" lon="-2.306502">
        <ele>920.903</ele>
        <time>2021-04-06T08:43:09Z</time>
      </trkpt>
      <trkpt lat="43.131178" lon="-2.306522">
        <ele>921.023</ele>
        <time>2021-04-06T08:43:11Z</time>
      </trkpt>
      <trkpt lat="43.131156" lon="-2.306545">
        <ele>921.108</ele>
        <time>2021-04-06T08:43:13Z</time>
      </trkpt>
      <trkpt lat="43.131141" lon="-2.306575">
        <ele>921.582</ele>
        <time>2021-04-06T08:43:15Z</time>
      </trkpt>
      <trkpt lat="43.131130" lon="-2.306599">
        <ele>921.865</ele>
        <time>2021-04-06T08:43:17Z</time>
      </trkpt>
      <trkpt lat="43.131117" lon="-2.306624">
        <ele>922.216</ele>
        <time>2021-04-06T08:43:19Z</time>
      </trkpt>
      <trkpt lat="43.131105" lon="-2.306649">
        <ele>922.311</ele>
        <time>2021-04-06T08:43:21Z</time>
      </trkpt>
      <trkpt lat="43.131096" lon="-2.306680">
        <ele>922.276</ele>
        <time>2021-04-06T08:43:24Z</time>
      </trkpt>
      <trkpt lat="43.131088" lon="-2.306704">
        <ele>921.984</ele>
        <time>2021-04-06T08:43:27Z</time>
      </trkpt>
      <trkpt lat="43.131076" lon="-2.306677">
        <ele>921.141</ele>
        <time>2021-04-06T08:43:53Z</time>
      </trkpt>
      <trkpt lat="43.131088" lon="-2.306650">
        <ele>921.439</ele>
        <time>2021-04-06T08:44:09Z</time>
      </trkpt>
      <trkpt lat="43.131111" lon="-2.306636">
        <ele>922.349</ele>
        <time>2021-04-06T08:44:12Z</time>
      </trkpt>
      <trkpt lat="43.131131" lon="-2.306628">
        <ele>922.502</ele>
        <time>2021-04-06T08:44:14Z</time>
      </trkpt>
      <trkpt lat="43.131154" lon="-2.306630">
        <ele>922.822</ele>
        <time>2021-04-06T08:44:16Z</time>
      </trkpt>
      <trkpt lat="43.131172" lon="-2.306640">
        <ele>923.308</ele>
        <time>2021-04-06T08:44:18Z</time>
      </trkpt>
      <trkpt lat="43.131178" lon="-2.306676">
        <ele>924.011</ele>
        <time>2021-04-06T08:44:20Z</time>
      </trkpt>
      <trkpt lat="43.131179" lon="-2.306718">
        <ele>924.224</ele>
        <time>2021-04-06T08:44:22Z</time>
      </trkpt>
      <trkpt lat="43.131192" lon="-2.306751">
        <ele>924.695</ele>
        <time>2021-04-06T08:44:24Z</time>
      </trkpt>
      <trkpt lat="43.131204" lon="-2.306783">
        <ele>924.960</ele>
        <time>2021-04-06T08:44:26Z</time>
      </trkpt>
      <trkpt lat="43.131220" lon="-2.306813">
        <ele>925.315</ele>
        <time>2021-04-06T08:44:28Z</time>
      </trkpt>
      <trkpt lat="43.131239" lon="-2.306842">
        <ele>925.883</ele>
        <time>2021-04-06T08:44:30Z</time>
      </trkpt>
      <trkpt lat="43.131258" lon="-2.306864">
        <ele>926.260</ele>
        <time>2021-04-06T08:44:32Z</time>
      </trkpt>
      <trkpt lat="43.131280" lon="-2.306873">
        <ele>926.628</ele>
        <time>2021-04-06T08:44:34Z</time>
      </trkpt>
      <trkpt lat="43.131300" lon="-2.306887">
        <ele>927.124</ele>
        <time>2021-04-06T08:44:36Z</time>
      </trkpt>
      <trkpt lat="43.131317" lon="-2.306908">
        <ele>927.504</ele>
        <time>2021-04-06T08:44:38Z</time>
      </trkpt>
      <trkpt lat="43.131336" lon="-2.306934">
        <ele>928.014</ele>
        <time>2021-04-06T08:44:40Z</time>
      </trkpt>
      <trkpt lat="43.131353" lon="-2.306962">
        <ele>928.408</ele>
        <time>2021-04-06T08:44:42Z</time>
      </trkpt>
      <trkpt lat="43.131373" lon="-2.306981">
        <ele>928.849</ele>
        <time>2021-04-06T08:44:44Z</time>
      </trkpt>
      <trkpt lat="43.131394" lon="-2.307000">
        <ele>929.262</ele>
        <time>2021-04-06T08:44:46Z</time>
      </trkpt>
      <trkpt lat="43.131411" lon="-2.307033">
        <ele>929.113</ele>
        <time>2021-04-06T08:44:48Z</time>
      </trkpt>
      <trkpt lat="43.131427" lon="-2.307058">
        <ele>929.028</ele>
        <time>2021-04-06T08:44:50Z</time>
      </trkpt>
      <trkpt lat="43.131439" lon="-2.307092">
        <ele>929.083</ele>
        <time>2021-04-06T08:44:52Z</time>
      </trkpt>
      <trkpt lat="43.131443" lon="-2.307125">
        <ele>929.061</ele>
        <time>2021-04-06T08:44:54Z</time>
      </trkpt>
      <trkpt lat="43.131449" lon="-2.307157">
        <ele>929.048</ele>
        <time>2021-04-06T08:44:56Z</time>
      </trkpt>
      <trkpt lat="43.131453" lon="-2.307191">
        <ele>929.086</ele>
        <time>2021-04-06T08:44:58Z</time>
      </trkpt>
      <trkpt lat="43.131461" lon="-2.307222">
        <ele>929.053</ele>
        <time>2021-04-06T08:45:00Z</time>
      </trkpt>
      <trkpt lat="43.131465" lon="-2.307260">
        <ele>928.604</ele>
        <time>2021-04-06T08:45:02Z</time>
      </trkpt>
      <trkpt lat="43.131469" lon="-2.307298">
        <ele>928.314</ele>
        <time>2021-04-06T08:45:04Z</time>
      </trkpt>
      <trkpt lat="43.131474" lon="-2.307338">
        <ele>927.908</ele>
        <time>2021-04-06T08:45:06Z</time>
      </trkpt>
      <trkpt lat="43.131482" lon="-2.307386">
        <ele>927.532</ele>
        <time>2021-04-06T08:45:08Z</time>
      </trkpt>
      <trkpt lat="43.131487" lon="-2.307419">
        <ele>927.275</ele>
        <time>2021-04-06T08:45:09Z</time>
      </trkpt>
      <trkpt lat="43.131491" lon="-2.307454">
        <ele>926.956</ele>
        <time>2021-04-06T08:45:10Z</time>
      </trkpt>
      <trkpt lat="43.131495" lon="-2.307490">
        <ele>926.591</ele>
        <time>2021-04-06T08:45:11Z</time>
      </trkpt>
      <trkpt lat="43.131494" lon="-2.307526">
        <ele>926.166</ele>
        <time>2021-04-06T08:45:12Z</time>
      </trkpt>
      <trkpt lat="43.131491" lon="-2.307565">
        <ele>925.694</ele>
        <time>2021-04-06T08:45:13Z</time>
      </trkpt>
      <trkpt lat="43.131490" lon="-2.307604">
        <ele>925.121</ele>
        <time>2021-04-06T08:45:14Z</time>
      </trkpt>
      <trkpt lat="43.131495" lon="-2.307642">
        <ele>924.569</ele>
        <time>2021-04-06T08:45:15Z</time>
      </trkpt>
      <trkpt lat="43.131505" lon="-2.307684">
        <ele>923.853</ele>
        <time>2021-04-06T08:45:16Z</time>
      </trkpt>
      <trkpt lat="43.131515" lon="-2.307726">
        <ele>923.204</ele>
        <time>2021-04-06T08:45:17Z</time>
      </trkpt>
      <trkpt lat="43.131526" lon="-2.307768">
        <ele>922.614</ele>
        <time>2021-04-06T08:45:18Z</time>
      </trkpt>
      <trkpt lat="43.131537" lon="-2.307810">
        <ele>922.008</ele>
        <time>2021-04-06T08:45:19Z</time>
      </trkpt>
      <trkpt lat="43.131546" lon="-2.307849">
        <ele>921.562</ele>
        <time>2021-04-06T08:45:20Z</time>
      </trkpt>
      <trkpt lat="43.131547" lon="-2.307885">
        <ele>921.045</ele>
        <time>2021-04-06T08:45:21Z</time>
      </trkpt>
      <trkpt lat="43.131546" lon="-2.307915">
        <ele>920.666</ele>
        <time>2021-04-06T08:45:22Z</time>
      </trkpt>
      <trkpt lat="43.131541" lon="-2.307941">
        <ele>920.221</ele>
        <time>2021-04-06T08:45:23Z</time>
      </trkpt>
      <trkpt lat="43.131532" lon="-2.307971">
        <ele>919.756</ele>
        <time>2021-04-06T08:45:24Z</time>
      </trkpt>
      <trkpt lat="43.131531" lon="-2.308005">
        <ele>919.324</ele>
        <time>2021-04-06T08:45:25Z</time>
      </trkpt>
      <trkpt lat="43.131534" lon="-2.308041">
        <ele>918.811</ele>
        <time>2021-04-06T08:45:26Z</time>
      </trkpt>
      <trkpt lat="43.131540" lon="-2.308077">
        <ele>918.399</ele>
        <time>2021-04-06T08:45:27Z</time>
      </trkpt>
      <trkpt lat="43.131542" lon="-2.308110">
        <ele>917.863</ele>
        <time>2021-04-06T08:45:28Z</time>
      </trkpt>
      <trkpt lat="43.131540" lon="-2.308146">
        <ele>917.244</ele>
        <time>2021-04-06T08:45:29Z</time>
      </trkpt>
      <trkpt lat="43.131543" lon="-2.308184">
        <ele>916.718</ele>
        <time>2021-04-06T08:45:30Z</time>
      </trkpt>
      <trkpt lat="43.131545" lon="-2.308222">
        <ele>916.208</ele>
        <time>2021-04-06T08:45:31Z</time>
      </trkpt>
      <trkpt lat="43.131550" lon="-2.308263">
        <ele>915.763</ele>
        <time>2021-04-06T08:45:32Z</time>
      </trkpt>
      <trkpt lat="43.131563" lon="-2.308304">
        <ele>915.416</ele>
        <time>2021-04-06T08:45:33Z</time>
      </trkpt>
      <trkpt lat="43.131579" lon="-2.308338">
        <ele>915.457</ele>
        <time>2021-04-06T08:45:34Z</time>
      </trkpt>
      <trkpt lat="43.131592" lon="-2.308369">
        <ele>915.422</ele>
        <time>2021-04-06T08:45:35Z</time>
      </trkpt>
      <trkpt lat="43.131605" lon="-2.308403">
        <ele>915.317</ele>
        <time>2021-04-06T08:45:36Z</time>
      </trkpt>
      <trkpt lat="43.131618" lon="-2.308440">
        <ele>915.235</ele>
        <time>2021-04-06T08:45:37Z</time>
      </trkpt>
      <trkpt lat="43.131628" lon="-2.308474">
        <ele>915.232</ele>
        <time>2021-04-06T08:45:38Z</time>
      </trkpt>
      <trkpt lat="43.131633" lon="-2.308506">
        <ele>914.980</ele>
        <time>2021-04-06T08:45:39Z</time>
      </trkpt>
      <trkpt lat="43.131632" lon="-2.308541">
        <ele>914.523</ele>
        <time>2021-04-06T08:45:40Z</time>
      </trkpt>
      <trkpt lat="43.131633" lon="-2.308582">
        <ele>914.083</ele>
        <time>2021-04-06T08:45:41Z</time>
      </trkpt>
      <trkpt lat="43.131640" lon="-2.308622">
        <ele>913.811</ele>
        <time>2021-04-06T08:45:42Z</time>
      </trkpt>
      <trkpt lat="43.131646" lon="-2.308663">
        <ele>913.408</ele>
        <time>2021-04-06T08:45:43Z</time>
      </trkpt>
      <trkpt lat="43.131652" lon="-2.308705">
        <ele>913.049</ele>
        <time>2021-04-06T08:45:44Z</time>
      </trkpt>
      <trkpt lat="43.131658" lon="-2.308739">
        <ele>912.822</ele>
        <time>2021-04-06T08:45:45Z</time>
      </trkpt>
      <trkpt lat="43.131656" lon="-2.308767">
        <ele>912.363</ele>
        <time>2021-04-06T08:45:46Z</time>
      </trkpt>
      <trkpt lat="43.131650" lon="-2.308792">
        <ele>911.738</ele>
        <time>2021-04-06T08:45:47Z</time>
      </trkpt>
      <trkpt lat="43.131649" lon="-2.308821">
        <ele>911.253</ele>
        <time>2021-04-06T08:45:48Z</time>
      </trkpt>
      <trkpt lat="43.131647" lon="-2.308855">
        <ele>910.661</ele>
        <time>2021-04-06T08:45:49Z</time>
      </trkpt>
      <trkpt lat="43.131650" lon="-2.308889">
        <ele>910.338</ele>
        <time>2021-04-06T08:45:50Z</time>
      </trkpt>
      <trkpt lat="43.131655" lon="-2.308927">
        <ele>909.926</ele>
        <time>2021-04-06T08:45:51Z</time>
      </trkpt>
      <trkpt lat="43.131663" lon="-2.308960">
        <ele>909.892</ele>
        <time>2021-04-06T08:45:52Z</time>
      </trkpt>
      <trkpt lat="43.131676" lon="-2.308994">
        <ele>909.473</ele>
        <time>2021-04-06T08:45:53Z</time>
      </trkpt>
      <trkpt lat="43.131690" lon="-2.309030">
        <ele>908.720</ele>
        <time>2021-04-06T08:45:54Z</time>
      </trkpt>
      <trkpt lat="43.131702" lon="-2.309063">
        <ele>908.108</ele>
        <time>2021-04-06T08:45:55Z</time>
      </trkpt>
      <trkpt lat="43.131714" lon="-2.309096">
        <ele>907.626</ele>
        <time>2021-04-06T08:45:56Z</time>
      </trkpt>
      <trkpt lat="43.131724" lon="-2.309129">
        <ele>907.199</ele>
        <time>2021-04-06T08:45:57Z</time>
      </trkpt>
      <trkpt lat="43.131733" lon="-2.309164">
        <ele>906.610</ele>
        <time>2021-04-06T08:45:58Z</time>
      </trkpt>
      <trkpt lat="43.131746" lon="-2.309207">
        <ele>905.955</ele>
        <time>2021-04-06T08:45:59Z</time>
      </trkpt>
      <trkpt lat="43.131756" lon="-2.309249">
        <ele>905.390</ele>
        <time>2021-04-06T08:46:00Z</time>
      </trkpt>
      <trkpt lat="43.131758" lon="-2.309291">
        <ele>904.778</ele>
        <time>2021-04-06T08:46:01Z</time>
      </trkpt>
      <trkpt lat="43.131758" lon="-2.309331">
        <ele>904.295</ele>
        <time>2021-04-06T08:46:02Z</time>
      </trkpt>
      <trkpt lat="43.131755" lon="-2.309366">
        <ele>903.713</ele>
        <time>2021-04-06T08:46:03Z</time>
      </trkpt>
      <trkpt lat="43.131752" lon="-2.309405">
        <ele>903.231</ele>
        <time>2021-04-06T08:46:04Z</time>
      </trkpt>
      <trkpt lat="43.131749" lon="-2.309439">
        <ele>902.861</ele>
        <time>2021-04-06T08:46:05Z</time>
      </trkpt>
      <trkpt lat="43.131749" lon="-2.309474">
        <ele>902.307</ele>
        <time>2021-04-06T08:46:06Z</time>
      </trkpt>
      <trkpt lat="43.131753" lon="-2.309508">
        <ele>901.808</ele>
        <time>2021-04-06T08:46:07Z</time>
      </trkpt>
      <trkpt lat="43.131761" lon="-2.309538">
        <ele>901.420</ele>
        <time>2021-04-06T08:46:08Z</time>
      </trkpt>
      <trkpt lat="43.131775" lon="-2.309568">
        <ele>901.073</ele>
        <time>2021-04-06T08:46:09Z</time>
      </trkpt>
      <trkpt lat="43.131795" lon="-2.309599">
        <ele>900.664</ele>
        <time>2021-04-06T08:46:10Z</time>
      </trkpt>
      <trkpt lat="43.131814" lon="-2.309628">
        <ele>900.229</ele>
        <time>2021-04-06T08:46:11Z</time>
      </trkpt>
      <trkpt lat="43.131828" lon="-2.309657">
        <ele>899.834</ele>
        <time>2021-04-06T08:46:12Z</time>
      </trkpt>
      <trkpt lat="43.131834" lon="-2.309687">
        <ele>899.412</ele>
        <time>2021-04-06T08:46:13Z</time>
      </trkpt>
      <trkpt lat="43.131841" lon="-2.309722">
        <ele>899.039</ele>
        <time>2021-04-06T08:46:14Z</time>
      </trkpt>
      <trkpt lat="43.131856" lon="-2.309757">
        <ele>898.667</ele>
        <time>2021-04-06T08:46:15Z</time>
      </trkpt>
      <trkpt lat="43.131875" lon="-2.309788">
        <ele>898.249</ele>
        <time>2021-04-06T08:46:16Z</time>
      </trkpt>
      <trkpt lat="43.131897" lon="-2.309817">
        <ele>897.902</ele>
        <time>2021-04-06T08:46:17Z</time>
      </trkpt>
      <trkpt lat="43.131913" lon="-2.309847">
        <ele>897.622</ele>
        <time>2021-04-06T08:46:18Z</time>
      </trkpt>
      <trkpt lat="43.131917" lon="-2.309875">
        <ele>897.308</ele>
        <time>2021-04-06T08:46:19Z</time>
      </trkpt>
      <trkpt lat="43.131915" lon="-2.309906">
        <ele>896.911</ele>
        <time>2021-04-06T08:46:20Z</time>
      </trkpt>
      <trkpt lat="43.131918" lon="-2.309944">
        <ele>896.534</ele>
        <time>2021-04-06T08:46:21Z</time>
      </trkpt>
      <trkpt lat="43.131931" lon="-2.309978">
        <ele>896.265</ele>
        <time>2021-04-06T08:46:22Z</time>
      </trkpt>
      <trkpt lat="43.131944" lon="-2.310013">
        <ele>895.910</ele>
        <time>2021-04-06T08:46:23Z</time>
      </trkpt>
      <trkpt lat="43.131956" lon="-2.310045">
        <ele>895.525</ele>
        <time>2021-04-06T08:46:24Z</time>
      </trkpt>
      <trkpt lat="43.131968" lon="-2.310073">
        <ele>895.113</ele>
        <time>2021-04-06T08:46:25Z</time>
      </trkpt>
      <trkpt lat="43.131969" lon="-2.310107">
        <ele>894.890</ele>
        <time>2021-04-06T08:46:27Z</time>
      </trkpt>
      <trkpt lat="43.131985" lon="-2.310125">
        <ele>894.538</ele>
        <time>2021-04-06T08:46:29Z</time>
      </trkpt>
      <trkpt lat="43.132021" lon="-2.310123">
        <ele>893.999</ele>
        <time>2021-04-06T08:46:31Z</time>
      </trkpt>
      <trkpt lat="43.132073" lon="-2.310087">
        <ele>893.407</ele>
        <time>2021-04-06T08:46:33Z</time>
      </trkpt>
      <trkpt lat="43.132101" lon="-2.310062">
        <ele>893.227</ele>
        <time>2021-04-06T08:46:34Z</time>
      </trkpt>
      <trkpt lat="43.132128" lon="-2.310034">
        <ele>893.008</ele>
        <time>2021-04-06T08:46:35Z</time>
      </trkpt>
      <trkpt lat="43.132160" lon="-2.310004">
        <ele>892.996</ele>
        <time>2021-04-06T08:46:36Z</time>
      </trkpt>
      <trkpt lat="43.132192" lon="-2.309978">
        <ele>892.689</ele>
        <time>2021-04-06T08:46:37Z</time>
      </trkpt>
      <trkpt lat="43.132223" lon="-2.309955">
        <ele>892.380</ele>
        <time>2021-04-06T08:46:38Z</time>
      </trkpt>
      <trkpt lat="43.132252" lon="-2.309928">
        <ele>891.725</ele>
        <time>2021-04-06T08:46:39Z</time>
      </trkpt>
      <trkpt lat="43.132281" lon="-2.309901">
        <ele>891.110</ele>
        <time>2021-04-06T08:46:40Z</time>
      </trkpt>
      <trkpt lat="43.132310" lon="-2.309878">
        <ele>890.528</ele>
        <time>2021-04-06T08:46:41Z</time>
      </trkpt>
      <trkpt lat="43.132337" lon="-2.309855">
        <ele>890.015</ele>
        <time>2021-04-06T08:46:42Z</time>
      </trkpt>
      <trkpt lat="43.132363" lon="-2.309827">
        <ele>889.513</ele>
        <time>2021-04-06T08:46:43Z</time>
      </trkpt>
      <trkpt lat="43.132390" lon="-2.309801">
        <ele>889.065</ele>
        <time>2021-04-06T08:46:44Z</time>
      </trkpt>
      <trkpt lat="43.132418" lon="-2.309773">
        <ele>888.668</ele>
        <time>2021-04-06T08:46:45Z</time>
      </trkpt>
      <trkpt lat="43.132447" lon="-2.309752">
        <ele>888.014</ele>
        <time>2021-04-06T08:46:46Z</time>
      </trkpt>
      <trkpt lat="43.132479" lon="-2.309730">
        <ele>887.408</ele>
        <time>2021-04-06T08:46:47Z</time>
      </trkpt>
      <trkpt lat="43.132509" lon="-2.309701">
        <ele>886.943</ele>
        <time>2021-04-06T08:46:48Z</time>
      </trkpt>
      <trkpt lat="43.132539" lon="-2.309672">
        <ele>886.236</ele>
        <time>2021-04-06T08:46:49Z</time>
      </trkpt>
      <trkpt lat="43.132571" lon="-2.309642">
        <ele>885.517</ele>
        <time>2021-04-06T08:46:50Z</time>
      </trkpt>
      <trkpt lat="43.132631" lon="-2.309583">
        <ele>884.032</ele>
        <time>2021-04-06T08:46:52Z</time>
      </trkpt>
      <trkpt lat="43.132663" lon="-2.309552">
        <ele>883.277</ele>
        <time>2021-04-06T08:46:53Z</time>
      </trkpt>
      <trkpt lat="43.132693" lon="-2.309519">
        <ele>882.415</ele>
        <time>2021-04-06T08:46:54Z</time>
      </trkpt>
      <trkpt lat="43.132727" lon="-2.309486">
        <ele>881.532</ele>
        <time>2021-04-06T08:46:55Z</time>
      </trkpt>
      <trkpt lat="43.132759" lon="-2.309455">
        <ele>880.680</ele>
        <time>2021-04-06T08:46:56Z</time>
      </trkpt>
      <trkpt lat="43.132792" lon="-2.309428">
        <ele>879.716</ele>
        <time>2021-04-06T08:46:57Z</time>
      </trkpt>
      <trkpt lat="43.132824" lon="-2.309400">
        <ele>878.976</ele>
        <time>2021-04-06T08:46:58Z</time>
      </trkpt>
      <trkpt lat="43.132856" lon="-2.309372">
        <ele>878.113</ele>
        <time>2021-04-06T08:46:59Z</time>
      </trkpt>
      <trkpt lat="43.132894" lon="-2.309346">
        <ele>877.208</ele>
        <time>2021-04-06T08:47:00Z</time>
      </trkpt>
      <trkpt lat="43.132938" lon="-2.309320">
        <ele>876.178</ele>
        <time>2021-04-06T08:47:01Z</time>
      </trkpt>
      <trkpt lat="43.132975" lon="-2.309290">
        <ele>875.381</ele>
        <time>2021-04-06T08:47:02Z</time>
      </trkpt>
      <trkpt lat="43.133011" lon="-2.309257">
        <ele>874.542</ele>
        <time>2021-04-06T08:47:03Z</time>
      </trkpt>
      <trkpt lat="43.133050" lon="-2.309221">
        <ele>873.877</ele>
        <time>2021-04-06T08:47:04Z</time>
      </trkpt>
      <trkpt lat="43.133081" lon="-2.309188">
        <ele>873.882</ele>
        <time>2021-04-06T08:47:05Z</time>
      </trkpt>
      <trkpt lat="43.133116" lon="-2.309154">
        <ele>874.190</ele>
        <time>2021-04-06T08:47:06Z</time>
      </trkpt>
      <trkpt lat="43.133211" lon="-2.309085">
        <ele>874.977</ele>
        <time>2021-04-06T08:47:09Z</time>
      </trkpt>
      <trkpt lat="43.133308" lon="-2.309085">
        <ele>874.965</ele>
        <time>2021-04-06T08:47:12Z</time>
      </trkpt>
      <trkpt lat="43.133339" lon="-2.309094">
        <ele>874.799</ele>
        <time>2021-04-06T08:47:13Z</time>
      </trkpt>
      <trkpt lat="43.133445" lon="-2.309097">
        <ele>873.907</ele>
        <time>2021-04-06T08:47:17Z</time>
      </trkpt>
      <trkpt lat="43.133483" lon="-2.309068">
        <ele>874.027</ele>
        <time>2021-04-06T08:47:21Z</time>
      </trkpt>
      <trkpt lat="43.133502" lon="-2.309057">
        <ele>874.008</ele>
        <time>2021-04-06T08:47:22Z</time>
      </trkpt>
      <trkpt lat="43.133530" lon="-2.309054">
        <ele>873.816</ele>
        <time>2021-04-06T08:47:23Z</time>
      </trkpt>
      <trkpt lat="43.133554" lon="-2.309049">
        <ele>873.729</ele>
        <time>2021-04-06T08:47:24Z</time>
      </trkpt>
      <trkpt lat="43.133588" lon="-2.309046">
        <ele>873.540</ele>
        <time>2021-04-06T08:47:25Z</time>
      </trkpt>
      <trkpt lat="43.133620" lon="-2.309040">
        <ele>873.255</ele>
        <time>2021-04-06T08:47:26Z</time>
      </trkpt>
      <trkpt lat="43.133652" lon="-2.309030">
        <ele>872.730</ele>
        <time>2021-04-06T08:47:27Z</time>
      </trkpt>
      <trkpt lat="43.133685" lon="-2.309024">
        <ele>872.128</ele>
        <time>2021-04-06T08:47:28Z</time>
      </trkpt>
      <trkpt lat="43.133720" lon="-2.309017">
        <ele>871.555</ele>
        <time>2021-04-06T08:47:29Z</time>
      </trkpt>
      <trkpt lat="43.133752" lon="-2.309011">
        <ele>870.983</ele>
        <time>2021-04-06T08:47:30Z</time>
      </trkpt>
      <trkpt lat="43.133783" lon="-2.309006">
        <ele>870.433</ele>
        <time>2021-04-06T08:47:31Z</time>
      </trkpt>
      <trkpt lat="43.133815" lon="-2.308998">
        <ele>869.923</ele>
        <time>2021-04-06T08:47:32Z</time>
      </trkpt>
      <trkpt lat="43.133847" lon="-2.308984">
        <ele>869.415</ele>
        <time>2021-04-06T08:47:33Z</time>
      </trkpt>
      <trkpt lat="43.133880" lon="-2.308969">
        <ele>869.008</ele>
        <time>2021-04-06T08:47:34Z</time>
      </trkpt>
      <trkpt lat="43.133913" lon="-2.308961">
        <ele>868.480</ele>
        <time>2021-04-06T08:47:35Z</time>
      </trkpt>
      <trkpt lat="43.133945" lon="-2.308949">
        <ele>867.963</ele>
        <time>2021-04-06T08:47:36Z</time>
      </trkpt>
      <trkpt lat="43.133978" lon="-2.308933">
        <ele>867.474</ele>
        <time>2021-04-06T08:47:37Z</time>
      </trkpt>
      <trkpt lat="43.134014" lon="-2.308913">
        <ele>867.079</ele>
        <time>2021-04-06T08:47:38Z</time>
      </trkpt>
      <trkpt lat="43.134048" lon="-2.308893">
        <ele>866.544</ele>
        <time>2021-04-06T08:47:39Z</time>
      </trkpt>
      <trkpt lat="43.134085" lon="-2.308870">
        <ele>866.192</ele>
        <time>2021-04-06T08:47:40Z</time>
      </trkpt>
      <trkpt lat="43.134121" lon="-2.308851">
        <ele>865.719</ele>
        <time>2021-04-06T08:47:41Z</time>
      </trkpt>
      <trkpt lat="43.134156" lon="-2.308833">
        <ele>865.297</ele>
        <time>2021-04-06T08:47:42Z</time>
      </trkpt>
      <trkpt lat="43.134192" lon="-2.308814">
        <ele>864.715</ele>
        <time>2021-04-06T08:47:43Z</time>
      </trkpt>
      <trkpt lat="43.134227" lon="-2.308792">
        <ele>864.165</ele>
        <time>2021-04-06T08:47:44Z</time>
      </trkpt>
      <trkpt lat="43.134261" lon="-2.308773">
        <ele>863.611</ele>
        <time>2021-04-06T08:47:45Z</time>
      </trkpt>
      <trkpt lat="43.134292" lon="-2.308748">
        <ele>863.108</ele>
        <time>2021-04-06T08:47:46Z</time>
      </trkpt>
      <trkpt lat="43.134324" lon="-2.308721">
        <ele>862.768</ele>
        <time>2021-04-06T08:47:47Z</time>
      </trkpt>
      <trkpt lat="43.134355" lon="-2.308690">
        <ele>862.351</ele>
        <time>2021-04-06T08:47:48Z</time>
      </trkpt>
      <trkpt lat="43.134383" lon="-2.308661">
        <ele>862.072</ele>
        <time>2021-04-06T08:47:49Z</time>
      </trkpt>
      <trkpt lat="43.134408" lon="-2.308628">
        <ele>861.887</ele>
        <time>2021-04-06T08:47:50Z</time>
      </trkpt>
      <trkpt lat="43.134434" lon="-2.308588">
        <ele>861.682</ele>
        <time>2021-04-06T08:47:51Z</time>
      </trkpt>
      <trkpt lat="43.134456" lon="-2.308549">
        <ele>861.510</ele>
        <time>2021-04-06T08:47:52Z</time>
      </trkpt>
      <trkpt lat="43.134474" lon="-2.308512">
        <ele>861.547</ele>
        <time>2021-04-06T08:47:53Z</time>
      </trkpt>
      <trkpt lat="43.134489" lon="-2.308472">
        <ele>861.685</ele>
        <time>2021-04-06T08:47:54Z</time>
      </trkpt>
      <trkpt lat="43.134507" lon="-2.308432">
        <ele>861.645</ele>
        <time>2021-04-06T08:47:55Z</time>
      </trkpt>
      <trkpt lat="43.134522" lon="-2.308398">
        <ele>861.647</ele>
        <time>2021-04-06T08:47:56Z</time>
      </trkpt>
      <trkpt lat="43.134542" lon="-2.308361">
        <ele>861.411</ele>
        <time>2021-04-06T08:47:57Z</time>
      </trkpt>
      <trkpt lat="43.134563" lon="-2.308325">
        <ele>861.308</ele>
        <time>2021-04-06T08:47:58Z</time>
      </trkpt>
      <trkpt lat="43.134580" lon="-2.308291">
        <ele>861.341</ele>
        <time>2021-04-06T08:47:59Z</time>
      </trkpt>
      <trkpt lat="43.134597" lon="-2.308262">
        <ele>861.244</ele>
        <time>2021-04-06T08:48:00Z</time>
      </trkpt>
      <trkpt lat="43.134615" lon="-2.308232">
        <ele>861.245</ele>
        <time>2021-04-06T08:48:01Z</time>
      </trkpt>
      <trkpt lat="43.134640" lon="-2.308202">
        <ele>860.960</ele>
        <time>2021-04-06T08:48:02Z</time>
      </trkpt>
      <trkpt lat="43.134670" lon="-2.308174">
        <ele>860.525</ele>
        <time>2021-04-06T08:48:03Z</time>
      </trkpt>
      <trkpt lat="43.134694" lon="-2.308147">
        <ele>860.263</ele>
        <time>2021-04-06T08:48:04Z</time>
      </trkpt>
      <trkpt lat="43.134717" lon="-2.308118">
        <ele>860.080</ele>
        <time>2021-04-06T08:48:05Z</time>
      </trkpt>
      <trkpt lat="43.134740" lon="-2.308090">
        <ele>859.948</ele>
        <time>2021-04-06T08:48:06Z</time>
      </trkpt>
      <trkpt lat="43.134761" lon="-2.308060">
        <ele>859.816</ele>
        <time>2021-04-06T08:48:07Z</time>
      </trkpt>
      <trkpt lat="43.134780" lon="-2.308027">
        <ele>859.876</ele>
        <time>2021-04-06T08:48:08Z</time>
      </trkpt>
      <trkpt lat="43.134797" lon="-2.307997">
        <ele>859.813</ele>
        <time>2021-04-06T08:48:09Z</time>
      </trkpt>
      <trkpt lat="43.134814" lon="-2.307963">
        <ele>859.908</ele>
        <time>2021-04-06T08:48:10Z</time>
      </trkpt>
      <trkpt lat="43.134833" lon="-2.307930">
        <ele>859.948</ele>
        <time>2021-04-06T08:48:11Z</time>
      </trkpt>
      <trkpt lat="43.134853" lon="-2.307895">
        <ele>859.971</ele>
        <time>2021-04-06T08:48:12Z</time>
      </trkpt>
      <trkpt lat="43.134872" lon="-2.307860">
        <ele>859.852</ele>
        <time>2021-04-06T08:48:13Z</time>
      </trkpt>
      <trkpt lat="43.134890" lon="-2.307824">
        <ele>859.857</ele>
        <time>2021-04-06T08:48:14Z</time>
      </trkpt>
      <trkpt lat="43.134908" lon="-2.307788">
        <ele>859.852</ele>
        <time>2021-04-06T08:48:15Z</time>
      </trkpt>
      <trkpt lat="43.134923" lon="-2.307749">
        <ele>860.150</ele>
        <time>2021-04-06T08:48:16Z</time>
      </trkpt>
      <trkpt lat="43.134937" lon="-2.307712">
        <ele>860.497</ele>
        <time>2021-04-06T08:48:17Z</time>
      </trkpt>
      <trkpt lat="43.134954" lon="-2.307675">
        <ele>860.615</ele>
        <time>2021-04-06T08:48:18Z</time>
      </trkpt>
      <trkpt lat="43.134966" lon="-2.307640">
        <ele>861.053</ele>
        <time>2021-04-06T08:48:19Z</time>
      </trkpt>
      <trkpt lat="43.134984" lon="-2.307611">
        <ele>861.104</ele>
        <time>2021-04-06T08:48:20Z</time>
      </trkpt>
      <trkpt lat="43.135004" lon="-2.307590">
        <ele>861.014</ele>
        <time>2021-04-06T08:48:21Z</time>
      </trkpt>
      <trkpt lat="43.135023" lon="-2.307576">
        <ele>860.808</ele>
        <time>2021-04-06T08:48:22Z</time>
      </trkpt>
      <trkpt lat="43.135041" lon="-2.307564">
        <ele>860.662</ele>
        <time>2021-04-06T08:48:23Z</time>
      </trkpt>
      <trkpt lat="43.135085" lon="-2.307538">
        <ele>860.055</ele>
        <time>2021-04-06T08:48:25Z</time>
      </trkpt>
      <trkpt lat="43.135113" lon="-2.307524">
        <ele>859.636</ele>
        <time>2021-04-06T08:48:26Z</time>
      </trkpt>
      <trkpt lat="43.135142" lon="-2.307510">
        <ele>859.211</ele>
        <time>2021-04-06T08:48:27Z</time>
      </trkpt>
      <trkpt lat="43.135172" lon="-2.307496">
        <ele>858.776</ele>
        <time>2021-04-06T08:48:28Z</time>
      </trkpt>
      <trkpt lat="43.135201" lon="-2.307479">
        <ele>858.414</ele>
        <time>2021-04-06T08:48:29Z</time>
      </trkpt>
      <trkpt lat="43.135230" lon="-2.307458">
        <ele>858.131</ele>
        <time>2021-04-06T08:48:30Z</time>
      </trkpt>
      <trkpt lat="43.135255" lon="-2.307436">
        <ele>857.979</ele>
        <time>2021-04-06T08:48:31Z</time>
      </trkpt>
      <trkpt lat="43.135280" lon="-2.307417">
        <ele>857.731</ele>
        <time>2021-04-06T08:48:32Z</time>
      </trkpt>
      <trkpt lat="43.135304" lon="-2.307398">
        <ele>857.461</ele>
        <time>2021-04-06T08:48:33Z</time>
      </trkpt>
      <trkpt lat="43.135416" lon="-2.307336">
        <ele>855.407</ele>
        <time>2021-04-06T08:48:37Z</time>
      </trkpt>
      <trkpt lat="43.135520" lon="-2.307274">
        <ele>853.708</ele>
        <time>2021-04-06T08:48:40Z</time>
      </trkpt>
      <trkpt lat="43.135553" lon="-2.307257">
        <ele>853.270</ele>
        <time>2021-04-06T08:48:41Z</time>
      </trkpt>
      <trkpt lat="43.135590" lon="-2.307239">
        <ele>852.653</ele>
        <time>2021-04-06T08:48:42Z</time>
      </trkpt>
      <trkpt lat="43.135623" lon="-2.307222">
        <ele>852.174</ele>
        <time>2021-04-06T08:48:43Z</time>
      </trkpt>
      <trkpt lat="43.135654" lon="-2.307205">
        <ele>851.679</ele>
        <time>2021-04-06T08:48:44Z</time>
      </trkpt>
      <trkpt lat="43.135684" lon="-2.307187">
        <ele>851.184</ele>
        <time>2021-04-06T08:48:45Z</time>
      </trkpt>
      <trkpt lat="43.135719" lon="-2.307169">
        <ele>850.692</ele>
        <time>2021-04-06T08:48:46Z</time>
      </trkpt>
      <trkpt lat="43.135755" lon="-2.307149">
        <ele>850.099</ele>
        <time>2021-04-06T08:48:47Z</time>
      </trkpt>
      <trkpt lat="43.135792" lon="-2.307130">
        <ele>849.517</ele>
        <time>2021-04-06T08:48:48Z</time>
      </trkpt>
      <trkpt lat="43.135826" lon="-2.307109">
        <ele>849.173</ele>
        <time>2021-04-06T08:48:49Z</time>
      </trkpt>
      <trkpt lat="43.135857" lon="-2.307089">
        <ele>848.785</ele>
        <time>2021-04-06T08:48:50Z</time>
      </trkpt>
      <trkpt lat="43.135892" lon="-2.307071">
        <ele>848.213</ele>
        <time>2021-04-06T08:48:51Z</time>
      </trkpt>
      <trkpt lat="43.135926" lon="-2.307052">
        <ele>847.808</ele>
        <time>2021-04-06T08:48:52Z</time>
      </trkpt>
      <trkpt lat="43.135962" lon="-2.307035">
        <ele>847.314</ele>
        <time>2021-04-06T08:48:53Z</time>
      </trkpt>
      <trkpt lat="43.135997" lon="-2.307017">
        <ele>846.967</ele>
        <time>2021-04-06T08:48:54Z</time>
      </trkpt>
      <trkpt lat="43.136026" lon="-2.306996">
        <ele>846.768</ele>
        <time>2021-04-06T08:48:55Z</time>
      </trkpt>
      <trkpt lat="43.136060" lon="-2.306974">
        <ele>846.533</ele>
        <time>2021-04-06T08:48:56Z</time>
      </trkpt>
      <trkpt lat="43.136091" lon="-2.306952">
        <ele>846.348</ele>
        <time>2021-04-06T08:48:57Z</time>
      </trkpt>
      <trkpt lat="43.136122" lon="-2.306930">
        <ele>846.156</ele>
        <time>2021-04-06T08:48:58Z</time>
      </trkpt>
      <trkpt lat="43.136149" lon="-2.306909">
        <ele>846.163</ele>
        <time>2021-04-06T08:48:59Z</time>
      </trkpt>
      <trkpt lat="43.136178" lon="-2.306890">
        <ele>845.921</ele>
        <time>2021-04-06T08:49:00Z</time>
      </trkpt>
      <trkpt lat="43.136206" lon="-2.306872">
        <ele>845.873</ele>
        <time>2021-04-06T08:49:01Z</time>
      </trkpt>
      <trkpt lat="43.136234" lon="-2.306855">
        <ele>845.685</ele>
        <time>2021-04-06T08:49:02Z</time>
      </trkpt>
      <trkpt lat="43.136263" lon="-2.306836">
        <ele>845.513</ele>
        <time>2021-04-06T08:49:03Z</time>
      </trkpt>
      <trkpt lat="43.136292" lon="-2.306819">
        <ele>845.308</ele>
        <time>2021-04-06T08:49:04Z</time>
      </trkpt>
      <trkpt lat="43.136319" lon="-2.306801">
        <ele>845.144</ele>
        <time>2021-04-06T08:49:05Z</time>
      </trkpt>
      <trkpt lat="43.136350" lon="-2.306784">
        <ele>844.937</ele>
        <time>2021-04-06T08:49:06Z</time>
      </trkpt>
      <trkpt lat="43.136444" lon="-2.306734">
        <ele>844.558</ele>
        <time>2021-04-06T08:49:09Z</time>
      </trkpt>
      <trkpt lat="43.136472" lon="-2.306717">
        <ele>844.583</ele>
        <time>2021-04-06T08:49:10Z</time>
      </trkpt>
      <trkpt lat="43.136534" lon="-2.306691">
        <ele>844.358</ele>
        <time>2021-04-06T08:49:12Z</time>
      </trkpt>
      <trkpt lat="43.136650" lon="-2.306651">
        <ele>843.596</ele>
        <time>2021-04-06T08:49:16Z</time>
      </trkpt>
      <trkpt lat="43.136715" lon="-2.306630">
        <ele>842.153</ele>
        <time>2021-04-06T08:49:18Z</time>
      </trkpt>
      <trkpt lat="43.136749" lon="-2.306617">
        <ele>841.311</ele>
        <time>2021-04-06T08:49:19Z</time>
      </trkpt>
      <trkpt lat="43.136779" lon="-2.306605">
        <ele>840.697</ele>
        <time>2021-04-06T08:49:20Z</time>
      </trkpt>
      <trkpt lat="43.136814" lon="-2.306589">
        <ele>839.823</ele>
        <time>2021-04-06T08:49:21Z</time>
      </trkpt>
      <trkpt lat="43.136842" lon="-2.306572">
        <ele>839.225</ele>
        <time>2021-04-06T08:49:22Z</time>
      </trkpt>
      <trkpt lat="43.136872" lon="-2.306549">
        <ele>838.808</ele>
        <time>2021-04-06T08:49:23Z</time>
      </trkpt>
      <trkpt lat="43.136897" lon="-2.306524">
        <ele>838.516</ele>
        <time>2021-04-06T08:49:24Z</time>
      </trkpt>
      <trkpt lat="43.136923" lon="-2.306503">
        <ele>838.239</ele>
        <time>2021-04-06T08:49:25Z</time>
      </trkpt>
      <trkpt lat="43.136947" lon="-2.306478">
        <ele>838.020</ele>
        <time>2021-04-06T08:49:26Z</time>
      </trkpt>
      <trkpt lat="43.136971" lon="-2.306453">
        <ele>837.845</ele>
        <time>2021-04-06T08:49:27Z</time>
      </trkpt>
      <trkpt lat="43.136996" lon="-2.306421">
        <ele>837.620</ele>
        <time>2021-04-06T08:49:28Z</time>
      </trkpt>
      <trkpt lat="43.137020" lon="-2.306387">
        <ele>837.648</ele>
        <time>2021-04-06T08:49:29Z</time>
      </trkpt>
      <trkpt lat="43.137045" lon="-2.306352">
        <ele>837.385</ele>
        <time>2021-04-06T08:49:30Z</time>
      </trkpt>
      <trkpt lat="43.137068" lon="-2.306324">
        <ele>837.093</ele>
        <time>2021-04-06T08:49:31Z</time>
      </trkpt>
      <trkpt lat="43.137091" lon="-2.306301">
        <ele>836.775</ele>
        <time>2021-04-06T08:49:32Z</time>
      </trkpt>
      <trkpt lat="43.137113" lon="-2.306283">
        <ele>836.328</ele>
        <time>2021-04-06T08:49:33Z</time>
      </trkpt>
      <trkpt lat="43.137135" lon="-2.306268">
        <ele>835.920</ele>
        <time>2021-04-06T08:49:34Z</time>
      </trkpt>
      <trkpt lat="43.137220" lon="-2.306236">
        <ele>833.808</ele>
        <time>2021-04-06T08:49:37Z</time>
      </trkpt>
      <trkpt lat="43.137249" lon="-2.306222">
        <ele>833.144</ele>
        <time>2021-04-06T08:49:38Z</time>
      </trkpt>
      <trkpt lat="43.137286" lon="-2.306210">
        <ele>832.157</ele>
        <time>2021-04-06T08:49:39Z</time>
      </trkpt>
      <trkpt lat="43.137322" lon="-2.306198">
        <ele>831.188</ele>
        <time>2021-04-06T08:49:40Z</time>
      </trkpt>
      <trkpt lat="43.137353" lon="-2.306180">
        <ele>830.413</ele>
        <time>2021-04-06T08:49:41Z</time>
      </trkpt>
      <trkpt lat="43.137413" lon="-2.306137">
        <ele>829.358</ele>
        <time>2021-04-06T08:49:43Z</time>
      </trkpt>
      <trkpt lat="43.137494" lon="-2.306076">
        <ele>828.026</ele>
        <time>2021-04-06T08:49:46Z</time>
      </trkpt>
      <trkpt lat="43.137591" lon="-2.305976">
        <ele>826.693</ele>
        <time>2021-04-06T08:49:50Z</time>
      </trkpt>
      <trkpt lat="43.137674" lon="-2.305886">
        <ele>825.621</ele>
        <time>2021-04-06T08:49:53Z</time>
      </trkpt>
      <trkpt lat="43.137717" lon="-2.305818">
        <ele>825.573</ele>
        <time>2021-04-06T08:49:55Z</time>
      </trkpt>
      <trkpt lat="43.137783" lon="-2.305731">
        <ele>824.785</ele>
        <time>2021-04-06T08:49:58Z</time>
      </trkpt>
      <trkpt lat="43.137808" lon="-2.305712">
        <ele>824.113</ele>
        <time>2021-04-06T08:49:59Z</time>
      </trkpt>
      <trkpt lat="43.137837" lon="-2.305694">
        <ele>823.508</ele>
        <time>2021-04-06T08:50:00Z</time>
      </trkpt>
      <trkpt lat="43.137893" lon="-2.305667">
        <ele>822.194</ele>
        <time>2021-04-06T08:50:02Z</time>
      </trkpt>
      <trkpt lat="43.137916" lon="-2.305652">
        <ele>821.617</ele>
        <time>2021-04-06T08:50:03Z</time>
      </trkpt>
      <trkpt lat="43.137943" lon="-2.305628">
        <ele>821.248</ele>
        <time>2021-04-06T08:50:04Z</time>
      </trkpt>
      <trkpt lat="43.137964" lon="-2.305601">
        <ele>821.043</ele>
        <time>2021-04-06T08:50:05Z</time>
      </trkpt>
      <trkpt lat="43.137981" lon="-2.305572">
        <ele>821.178</ele>
        <time>2021-04-06T08:50:06Z</time>
      </trkpt>
      <trkpt lat="43.137999" lon="-2.305548">
        <ele>820.996</ele>
        <time>2021-04-06T08:50:07Z</time>
      </trkpt>
      <trkpt lat="43.138020" lon="-2.305523">
        <ele>820.613</ele>
        <time>2021-04-06T08:50:08Z</time>
      </trkpt>
      <trkpt lat="43.138035" lon="-2.305504">
        <ele>820.461</ele>
        <time>2021-04-06T08:50:09Z</time>
      </trkpt>
      <trkpt lat="43.138051" lon="-2.305487">
        <ele>820.146</ele>
        <time>2021-04-06T08:50:10Z</time>
      </trkpt>
      <trkpt lat="43.138073" lon="-2.305463">
        <ele>819.788</ele>
        <time>2021-04-06T08:50:12Z</time>
      </trkpt>
      <trkpt lat="43.138103" lon="-2.305438">
        <ele>819.016</ele>
        <time>2021-04-06T08:50:14Z</time>
      </trkpt>
      <trkpt lat="43.138121" lon="-2.305424">
        <ele>818.508</ele>
        <time>2021-04-06T08:50:15Z</time>
      </trkpt>
      <trkpt lat="43.138137" lon="-2.305411">
        <ele>818.221</ele>
        <time>2021-04-06T08:50:16Z</time>
      </trkpt>
      <trkpt lat="43.138153" lon="-2.305399">
        <ele>817.894</ele>
        <time>2021-04-06T08:50:17Z</time>
      </trkpt>
      <trkpt lat="43.138178" lon="-2.305378">
        <ele>817.375</ele>
        <time>2021-04-06T08:50:19Z</time>
      </trkpt>
      <trkpt lat="43.138206" lon="-2.305378">
        <ele>816.350</ele>
        <time>2021-04-06T08:50:21Z</time>
      </trkpt>
      <trkpt lat="43.138223" lon="-2.305380">
        <ele>815.785</ele>
        <time>2021-04-06T08:50:23Z</time>
      </trkpt>
      <trkpt lat="43.138236" lon="-2.305353">
        <ele>815.773</ele>
        <time>2021-04-06T08:50:25Z</time>
      </trkpt>
      <trkpt lat="43.138251" lon="-2.305335">
        <ele>815.690</ele>
        <time>2021-04-06T08:50:26Z</time>
      </trkpt>
      <trkpt lat="43.138272" lon="-2.305320">
        <ele>815.148</ele>
        <time>2021-04-06T08:50:27Z</time>
      </trkpt>
      <trkpt lat="43.138297" lon="-2.305302">
        <ele>814.794</ele>
        <time>2021-04-06T08:50:28Z</time>
      </trkpt>
      <trkpt lat="43.138325" lon="-2.305279">
        <ele>814.257</ele>
        <time>2021-04-06T08:50:29Z</time>
      </trkpt>
      <trkpt lat="43.138350" lon="-2.305259">
        <ele>813.722</ele>
        <time>2021-04-06T08:50:30Z</time>
      </trkpt>
      <trkpt lat="43.138378" lon="-2.305236">
        <ele>813.208</ele>
        <time>2021-04-06T08:50:31Z</time>
      </trkpt>
      <trkpt lat="43.138404" lon="-2.305210">
        <ele>812.736</ele>
        <time>2021-04-06T08:50:32Z</time>
      </trkpt>
      <trkpt lat="43.138432" lon="-2.305185">
        <ele>812.189</ele>
        <time>2021-04-06T08:50:33Z</time>
      </trkpt>
      <trkpt lat="43.138457" lon="-2.305153">
        <ele>811.870</ele>
        <time>2021-04-06T08:50:34Z</time>
      </trkpt>
      <trkpt lat="43.138484" lon="-2.305123">
        <ele>811.355</ele>
        <time>2021-04-06T08:50:35Z</time>
      </trkpt>
      <trkpt lat="43.138512" lon="-2.305098">
        <ele>810.890</ele>
        <time>2021-04-06T08:50:36Z</time>
      </trkpt>
      <trkpt lat="43.138545" lon="-2.305074">
        <ele>810.178</ele>
        <time>2021-04-06T08:50:37Z</time>
      </trkpt>
      <trkpt lat="43.138576" lon="-2.305055">
        <ele>809.345</ele>
        <time>2021-04-06T08:50:38Z</time>
      </trkpt>
      <trkpt lat="43.138633" lon="-2.305007">
        <ele>808.373</ele>
        <time>2021-04-06T08:50:40Z</time>
      </trkpt>
      <trkpt lat="43.138658" lon="-2.304983">
        <ele>808.158</ele>
        <time>2021-04-06T08:50:41Z</time>
      </trkpt>
      <trkpt lat="43.138688" lon="-2.304959">
        <ele>807.752</ele>
        <time>2021-04-06T08:50:42Z</time>
      </trkpt>
      <trkpt lat="43.138717" lon="-2.304940">
        <ele>807.217</ele>
        <time>2021-04-06T08:50:43Z</time>
      </trkpt>
      <trkpt lat="43.138750" lon="-2.304922">
        <ele>806.608</ele>
        <time>2021-04-06T08:50:44Z</time>
      </trkpt>
      <trkpt lat="43.138783" lon="-2.304903">
        <ele>806.122</ele>
        <time>2021-04-06T08:50:45Z</time>
      </trkpt>
      <trkpt lat="43.138812" lon="-2.304882">
        <ele>805.685</ele>
        <time>2021-04-06T08:50:46Z</time>
      </trkpt>
      <trkpt lat="43.138839" lon="-2.304860">
        <ele>805.386</ele>
        <time>2021-04-06T08:50:47Z</time>
      </trkpt>
      <trkpt lat="43.138867" lon="-2.304839">
        <ele>804.931</ele>
        <time>2021-04-06T08:50:48Z</time>
      </trkpt>
      <trkpt lat="43.138892" lon="-2.304820">
        <ele>804.526</ele>
        <time>2021-04-06T08:50:49Z</time>
      </trkpt>
      <trkpt lat="43.138913" lon="-2.304802">
        <ele>804.394</ele>
        <time>2021-04-06T08:50:50Z</time>
      </trkpt>
      <trkpt lat="43.138936" lon="-2.304789">
        <ele>804.091</ele>
        <time>2021-04-06T08:50:51Z</time>
      </trkpt>
      <trkpt lat="43.138960" lon="-2.304774">
        <ele>803.729</ele>
        <time>2021-04-06T08:50:52Z</time>
      </trkpt>
      <trkpt lat="43.138989" lon="-2.304754">
        <ele>803.462</ele>
        <time>2021-04-06T08:50:53Z</time>
      </trkpt>
      <trkpt lat="43.139023" lon="-2.304733">
        <ele>802.983</ele>
        <time>2021-04-06T08:50:54Z</time>
      </trkpt>
      <trkpt lat="43.139061" lon="-2.304719">
        <ele>802.311</ele>
        <time>2021-04-06T08:50:55Z</time>
      </trkpt>
      <trkpt lat="43.139094" lon="-2.304706">
        <ele>801.808</ele>
        <time>2021-04-06T08:50:56Z</time>
      </trkpt>
      <trkpt lat="43.139121" lon="-2.304697">
        <ele>801.353</ele>
        <time>2021-04-06T08:50:57Z</time>
      </trkpt>
      <trkpt lat="43.139155" lon="-2.304685">
        <ele>800.866</ele>
        <time>2021-04-06T08:50:58Z</time>
      </trkpt>
      <trkpt lat="43.139188" lon="-2.304671">
        <ele>800.497</ele>
        <time>2021-04-06T08:50:59Z</time>
      </trkpt>
      <trkpt lat="43.139221" lon="-2.304657">
        <ele>800.192</ele>
        <time>2021-04-06T08:51:00Z</time>
      </trkpt>
      <trkpt lat="43.139250" lon="-2.304646">
        <ele>799.827</ele>
        <time>2021-04-06T08:51:01Z</time>
      </trkpt>
      <trkpt lat="43.139284" lon="-2.304633">
        <ele>799.585</ele>
        <time>2021-04-06T08:51:02Z</time>
      </trkpt>
      <trkpt lat="43.139321" lon="-2.304621">
        <ele>799.082</ele>
        <time>2021-04-06T08:51:03Z</time>
      </trkpt>
      <trkpt lat="43.139356" lon="-2.304606">
        <ele>798.730</ele>
        <time>2021-04-06T08:51:04Z</time>
      </trkpt>
      <trkpt lat="43.139390" lon="-2.304596">
        <ele>798.225</ele>
        <time>2021-04-06T08:51:05Z</time>
      </trkpt>
      <trkpt lat="43.139422" lon="-2.304587">
        <ele>797.826</ele>
        <time>2021-04-06T08:51:06Z</time>
      </trkpt>
      <trkpt lat="43.139453" lon="-2.304577">
        <ele>797.408</ele>
        <time>2021-04-06T08:51:07Z</time>
      </trkpt>
      <trkpt lat="43.139485" lon="-2.304567">
        <ele>797.008</ele>
        <time>2021-04-06T08:51:08Z</time>
      </trkpt>
      <trkpt lat="43.139522" lon="-2.304557">
        <ele>796.659</ele>
        <time>2021-04-06T08:51:09Z</time>
      </trkpt>
      <trkpt lat="43.139558" lon="-2.304545">
        <ele>796.192</ele>
        <time>2021-04-06T08:51:10Z</time>
      </trkpt>
      <trkpt lat="43.139589" lon="-2.304535">
        <ele>795.853</ele>
        <time>2021-04-06T08:51:11Z</time>
      </trkpt>
      <trkpt lat="43.139624" lon="-2.304526">
        <ele>795.328</ele>
        <time>2021-04-06T08:51:12Z</time>
      </trkpt>
      <trkpt lat="43.139660" lon="-2.304520">
        <ele>794.953</ele>
        <time>2021-04-06T08:51:13Z</time>
      </trkpt>
      <trkpt lat="43.139695" lon="-2.304512">
        <ele>794.481</ele>
        <time>2021-04-06T08:51:14Z</time>
      </trkpt>
      <trkpt lat="43.139732" lon="-2.304501">
        <ele>794.168</ele>
        <time>2021-04-06T08:51:15Z</time>
      </trkpt>
      <trkpt lat="43.139765" lon="-2.304489">
        <ele>793.996</ele>
        <time>2021-04-06T08:51:16Z</time>
      </trkpt>
      <trkpt lat="43.139803" lon="-2.304478">
        <ele>793.623</ele>
        <time>2021-04-06T08:51:17Z</time>
      </trkpt>
      <trkpt lat="43.139835" lon="-2.304467">
        <ele>793.483</ele>
        <time>2021-04-06T08:51:18Z</time>
      </trkpt>
      <trkpt lat="43.139866" lon="-2.304456">
        <ele>793.311</ele>
        <time>2021-04-06T08:51:19Z</time>
      </trkpt>
      <trkpt lat="43.139891" lon="-2.304445">
        <ele>793.208</ele>
        <time>2021-04-06T08:51:20Z</time>
      </trkpt>
      <trkpt lat="43.139921" lon="-2.304436">
        <ele>792.929</ele>
        <time>2021-04-06T08:51:21Z</time>
      </trkpt>
      <trkpt lat="43.139950" lon="-2.304431">
        <ele>792.782</ele>
        <time>2021-04-06T08:51:22Z</time>
      </trkpt>
      <trkpt lat="43.139974" lon="-2.304430">
        <ele>792.423</ele>
        <time>2021-04-06T08:51:23Z</time>
      </trkpt>
      <trkpt lat="43.139998" lon="-2.304424">
        <ele>792.298</ele>
        <time>2021-04-06T08:51:24Z</time>
      </trkpt>
      <trkpt lat="43.140025" lon="-2.304422">
        <ele>792.143</ele>
        <time>2021-04-06T08:51:25Z</time>
      </trkpt>
      <trkpt lat="43.140058" lon="-2.304416">
        <ele>791.941</ele>
        <time>2021-04-06T08:51:26Z</time>
      </trkpt>
      <trkpt lat="43.140085" lon="-2.304415">
        <ele>791.718</ele>
        <time>2021-04-06T08:51:27Z</time>
      </trkpt>
      <trkpt lat="43.140118" lon="-2.304411">
        <ele>791.546</ele>
        <time>2021-04-06T08:51:28Z</time>
      </trkpt>
      <trkpt lat="43.140152" lon="-2.304408">
        <ele>791.364</ele>
        <time>2021-04-06T08:51:29Z</time>
      </trkpt>
      <trkpt lat="43.140182" lon="-2.304406">
        <ele>791.106</ele>
        <time>2021-04-06T08:51:30Z</time>
      </trkpt>
      <trkpt lat="43.140212" lon="-2.304408">
        <ele>790.916</ele>
        <time>2021-04-06T08:51:31Z</time>
      </trkpt>
      <trkpt lat="43.140242" lon="-2.304407">
        <ele>790.708</ele>
        <time>2021-04-06T08:51:32Z</time>
      </trkpt>
      <trkpt lat="43.140272" lon="-2.304406">
        <ele>790.563</ele>
        <time>2021-04-06T08:51:33Z</time>
      </trkpt>
      <trkpt lat="43.140300" lon="-2.304410">
        <ele>790.216</ele>
        <time>2021-04-06T08:51:34Z</time>
      </trkpt>
      <trkpt lat="43.140329" lon="-2.304409">
        <ele>790.077</ele>
        <time>2021-04-06T08:51:35Z</time>
      </trkpt>
      <trkpt lat="43.140357" lon="-2.304411">
        <ele>789.852</ele>
        <time>2021-04-06T08:51:36Z</time>
      </trkpt>
      <trkpt lat="43.140386" lon="-2.304410">
        <ele>789.647</ele>
        <time>2021-04-06T08:51:37Z</time>
      </trkpt>
      <trkpt lat="43.140416" lon="-2.304400">
        <ele>789.675</ele>
        <time>2021-04-06T08:51:38Z</time>
      </trkpt>
      <trkpt lat="43.140442" lon="-2.304389">
        <ele>789.542</ele>
        <time>2021-04-06T08:51:39Z</time>
      </trkpt>
      <trkpt lat="43.140466" lon="-2.304362">
        <ele>789.780</ele>
        <time>2021-04-06T08:51:40Z</time>
      </trkpt>
      <trkpt lat="43.140485" lon="-2.304330">
        <ele>790.193</ele>
        <time>2021-04-06T08:51:41Z</time>
      </trkpt>
      <trkpt lat="43.140500" lon="-2.304296">
        <ele>790.465</ele>
        <time>2021-04-06T08:51:42Z</time>
      </trkpt>
      <trkpt lat="43.140511" lon="-2.304263">
        <ele>790.821</ele>
        <time>2021-04-06T08:51:43Z</time>
      </trkpt>
      <trkpt lat="43.140519" lon="-2.304232">
        <ele>791.208</ele>
        <time>2021-04-06T08:51:44Z</time>
      </trkpt>
      <trkpt lat="43.140524" lon="-2.304203">
        <ele>791.616</ele>
        <time>2021-04-06T08:51:45Z</time>
      </trkpt>
      <trkpt lat="43.140528" lon="-2.304179">
        <ele>791.939</ele>
        <time>2021-04-06T08:51:46Z</time>
      </trkpt>
      <trkpt lat="43.140538" lon="-2.304158">
        <ele>792.240</ele>
        <time>2021-04-06T08:51:47Z</time>
      </trkpt>
      <trkpt lat="43.140542" lon="-2.304122">
        <ele>792.555</ele>
        <time>2021-04-06T08:51:49Z</time>
      </trkpt>
      <trkpt lat="43.140544" lon="-2.304087">
        <ele>792.960</ele>
        <time>2021-04-06T08:51:51Z</time>
      </trkpt>
      <trkpt lat="43.140549" lon="-2.304053">
        <ele>793.378</ele>
        <time>2021-04-06T08:51:53Z</time>
      </trkpt>
      <trkpt lat="43.140552" lon="-2.304018">
        <ele>793.665</ele>
        <time>2021-04-06T08:51:55Z</time>
      </trkpt>
      <trkpt lat="43.140552" lon="-2.303982">
        <ele>794.033</ele>
        <time>2021-04-06T08:51:57Z</time>
      </trkpt>
      <trkpt lat="43.140553" lon="-2.303951">
        <ele>794.397</ele>
        <time>2021-04-06T08:51:59Z</time>
      </trkpt>
      <trkpt lat="43.140549" lon="-2.303914">
        <ele>794.823</ele>
        <time>2021-04-06T08:52:01Z</time>
      </trkpt>
      <trkpt lat="43.140546" lon="-2.303878">
        <ele>795.125</ele>
        <time>2021-04-06T08:52:03Z</time>
      </trkpt>
      <trkpt lat="43.140547" lon="-2.303847">
        <ele>795.408</ele>
        <time>2021-04-06T08:52:05Z</time>
      </trkpt>
      <trkpt lat="43.140540" lon="-2.303818">
        <ele>795.796</ele>
        <time>2021-04-06T08:52:07Z</time>
      </trkpt>
      <trkpt lat="43.140535" lon="-2.303788">
        <ele>795.959</ele>
        <time>2021-04-06T08:52:09Z</time>
      </trkpt>
      <trkpt lat="43.140534" lon="-2.303753">
        <ele>796.230</ele>
        <time>2021-04-06T08:52:11Z</time>
      </trkpt>
      <trkpt lat="43.140531" lon="-2.303720">
        <ele>796.575</ele>
        <time>2021-04-06T08:52:13Z</time>
      </trkpt>
      <trkpt lat="43.140524" lon="-2.303692">
        <ele>796.830</ele>
        <time>2021-04-06T08:52:15Z</time>
      </trkpt>
      <trkpt lat="43.140511" lon="-2.303664">
        <ele>797.298</ele>
        <time>2021-04-06T08:52:17Z</time>
      </trkpt>
      <trkpt lat="43.140493" lon="-2.303635">
        <ele>797.785</ele>
        <time>2021-04-06T08:52:19Z</time>
      </trkpt>
      <trkpt lat="43.140479" lon="-2.303620">
        <ele>798.013</ele>
        <time>2021-04-06T08:52:29Z</time>
      </trkpt>
      <trkpt lat="43.140489" lon="-2.303598">
        <ele>797.586</ele>
        <time>2021-04-06T08:52:37Z</time>
      </trkpt>
      <trkpt lat="43.140485" lon="-2.303562">
        <ele>796.460</ele>
        <time>2021-04-06T08:52:39Z</time>
      </trkpt>
      <trkpt lat="43.140481" lon="-2.303518">
        <ele>795.026</ele>
        <time>2021-04-06T08:52:41Z</time>
      </trkpt>
      <trkpt lat="43.140480" lon="-2.303491">
        <ele>794.108</ele>
        <time>2021-04-06T08:52:42Z</time>
      </trkpt>
      <trkpt lat="43.140473" lon="-2.303464">
        <ele>793.475</ele>
        <time>2021-04-06T08:52:43Z</time>
      </trkpt>
      <trkpt lat="43.140463" lon="-2.303440">
        <ele>792.888</ele>
        <time>2021-04-06T08:52:44Z</time>
      </trkpt>
      <trkpt lat="43.140450" lon="-2.303417">
        <ele>792.349</ele>
        <time>2021-04-06T08:52:45Z</time>
      </trkpt>
      <trkpt lat="43.140435" lon="-2.303395">
        <ele>792.074</ele>
        <time>2021-04-06T08:52:46Z</time>
      </trkpt>
      <trkpt lat="43.140419" lon="-2.303370">
        <ele>791.639</ele>
        <time>2021-04-06T08:52:47Z</time>
      </trkpt>
      <trkpt lat="43.140404" lon="-2.303343">
        <ele>791.197</ele>
        <time>2021-04-06T08:52:48Z</time>
      </trkpt>
      <trkpt lat="43.140388" lon="-2.303317">
        <ele>790.554</ele>
        <time>2021-04-06T08:52:49Z</time>
      </trkpt>
      <trkpt lat="43.140369" lon="-2.303291">
        <ele>789.912</ele>
        <time>2021-04-06T08:52:50Z</time>
      </trkpt>
      <trkpt lat="43.140345" lon="-2.303270">
        <ele>789.625</ele>
        <time>2021-04-06T08:52:51Z</time>
      </trkpt>
      <trkpt lat="43.140323" lon="-2.303249">
        <ele>789.326</ele>
        <time>2021-04-06T08:52:52Z</time>
      </trkpt>
      <trkpt lat="43.140304" lon="-2.303223">
        <ele>788.608</ele>
        <time>2021-04-06T08:52:53Z</time>
      </trkpt>
      <trkpt lat="43.140287" lon="-2.303195">
        <ele>787.808</ele>
        <time>2021-04-06T08:52:54Z</time>
      </trkpt>
      <trkpt lat="43.140269" lon="-2.303169">
        <ele>787.089</ele>
        <time>2021-04-06T08:52:55Z</time>
      </trkpt>
      <trkpt lat="43.140248" lon="-2.303150">
        <ele>786.532</ele>
        <time>2021-04-06T08:52:56Z</time>
      </trkpt>
      <trkpt lat="43.140231" lon="-2.303128">
        <ele>785.833</ele>
        <time>2021-04-06T08:52:57Z</time>
      </trkpt>
      <trkpt lat="43.140215" lon="-2.303097">
        <ele>784.728</ele>
        <time>2021-04-06T08:52:58Z</time>
      </trkpt>
      <trkpt lat="43.140196" lon="-2.303070">
        <ele>783.823</ele>
        <time>2021-04-06T08:52:59Z</time>
      </trkpt>
      <trkpt lat="43.140176" lon="-2.303046">
        <ele>783.171</ele>
        <time>2021-04-06T08:53:00Z</time>
      </trkpt>
      <trkpt lat="43.140153" lon="-2.303022">
        <ele>782.638</ele>
        <time>2021-04-06T08:53:01Z</time>
      </trkpt>
      <trkpt lat="43.140129" lon="-2.303004">
        <ele>782.416</ele>
        <time>2021-04-06T08:53:02Z</time>
      </trkpt>
      <trkpt lat="43.140106" lon="-2.302986">
        <ele>782.166</ele>
        <time>2021-04-06T08:53:03Z</time>
      </trkpt>
      <trkpt lat="43.140083" lon="-2.302964">
        <ele>781.729</ele>
        <time>2021-04-06T08:53:04Z</time>
      </trkpt>
      <trkpt lat="43.140059" lon="-2.302937">
        <ele>781.221</ele>
        <time>2021-04-06T08:53:05Z</time>
      </trkpt>
      <trkpt lat="43.140039" lon="-2.302911">
        <ele>780.708</ele>
        <time>2021-04-06T08:53:06Z</time>
      </trkpt>
      <trkpt lat="43.140024" lon="-2.302888">
        <ele>780.283</ele>
        <time>2021-04-06T08:53:07Z</time>
      </trkpt>
      <trkpt lat="43.140009" lon="-2.302865">
        <ele>779.776</ele>
        <time>2021-04-06T08:53:08Z</time>
      </trkpt>
      <trkpt lat="43.139993" lon="-2.302844">
        <ele>779.267</ele>
        <time>2021-04-06T08:53:09Z</time>
      </trkpt>
      <trkpt lat="43.139978" lon="-2.302819">
        <ele>778.682</ele>
        <time>2021-04-06T08:53:10Z</time>
      </trkpt>
      <trkpt lat="43.139948" lon="-2.302771">
        <ele>777.497</ele>
        <time>2021-04-06T08:53:12Z</time>
      </trkpt>
      <trkpt lat="43.139930" lon="-2.302743">
        <ele>776.835</ele>
        <time>2021-04-06T08:53:13Z</time>
      </trkpt>
      <trkpt lat="43.139918" lon="-2.302712">
        <ele>776.122</ele>
        <time>2021-04-06T08:53:14Z</time>
      </trkpt>
      <trkpt lat="43.139909" lon="-2.302679">
        <ele>775.370</ele>
        <time>2021-04-06T08:53:15Z</time>
      </trkpt>
      <trkpt lat="43.139897" lon="-2.302649">
        <ele>774.531</ele>
        <time>2021-04-06T08:53:16Z</time>
      </trkpt>
      <trkpt lat="43.139883" lon="-2.302618">
        <ele>773.861</ele>
        <time>2021-04-06T08:53:17Z</time>
      </trkpt>
      <trkpt lat="43.139867" lon="-2.302589">
        <ele>773.007</ele>
        <time>2021-04-06T08:53:18Z</time>
      </trkpt>
      <trkpt lat="43.139845" lon="-2.302562">
        <ele>772.408</ele>
        <time>2021-04-06T08:53:19Z</time>
      </trkpt>
      <trkpt lat="43.139821" lon="-2.302536">
        <ele>771.760</ele>
        <time>2021-04-06T08:53:20Z</time>
      </trkpt>
      <trkpt lat="43.139797" lon="-2.302509">
        <ele>771.023</ele>
        <time>2021-04-06T08:53:21Z</time>
      </trkpt>
      <trkpt lat="43.139774" lon="-2.302485">
        <ele>770.384</ele>
        <time>2021-04-06T08:53:22Z</time>
      </trkpt>
      <trkpt lat="43.139756" lon="-2.302466">
        <ele>769.879</ele>
        <time>2021-04-06T08:53:23Z</time>
      </trkpt>
      <trkpt lat="43.139737" lon="-2.302448">
        <ele>769.374</ele>
        <time>2021-04-06T08:53:24Z</time>
      </trkpt>
      <trkpt lat="43.139717" lon="-2.302430">
        <ele>768.722</ele>
        <time>2021-04-06T08:53:25Z</time>
      </trkpt>
      <trkpt lat="43.139696" lon="-2.302413">
        <ele>768.259</ele>
        <time>2021-04-06T08:53:26Z</time>
      </trkpt>
      <trkpt lat="43.139679" lon="-2.302400">
        <ele>767.717</ele>
        <time>2021-04-06T08:53:27Z</time>
      </trkpt>
      <trkpt lat="43.139665" lon="-2.302388">
        <ele>767.328</ele>
        <time>2021-04-06T08:53:28Z</time>
      </trkpt>
      <trkpt lat="43.139660" lon="-2.302365">
        <ele>766.589</ele>
        <time>2021-04-06T08:53:30Z</time>
      </trkpt>
      <trkpt lat="43.139651" lon="-2.302329">
        <ele>765.317</ele>
        <time>2021-04-06T08:53:32Z</time>
      </trkpt>
      <trkpt lat="43.139633" lon="-2.302322">
        <ele>765.008</ele>
        <time>2021-04-06T08:53:33Z</time>
      </trkpt>
      <trkpt lat="43.139614" lon="-2.302317">
        <ele>764.829</ele>
        <time>2021-04-06T08:53:34Z</time>
      </trkpt>
      <trkpt lat="43.139590" lon="-2.302308">
        <ele>764.572</ele>
        <time>2021-04-06T08:53:35Z</time>
      </trkpt>
      <trkpt lat="43.139565" lon="-2.302299">
        <ele>764.193</ele>
        <time>2021-04-06T08:53:36Z</time>
      </trkpt>
      <trkpt lat="43.139540" lon="-2.302287">
        <ele>763.678</ele>
        <time>2021-04-06T08:53:37Z</time>
      </trkpt>
      <trkpt lat="43.139512" lon="-2.302274">
        <ele>763.163</ele>
        <time>2021-04-06T08:53:38Z</time>
      </trkpt>
      <trkpt lat="43.139486" lon="-2.302261">
        <ele>762.511</ele>
        <time>2021-04-06T08:53:39Z</time>
      </trkpt>
      <trkpt lat="43.139460" lon="-2.302247">
        <ele>761.918</ele>
        <time>2021-04-06T08:53:40Z</time>
      </trkpt>
      <trkpt lat="43.139434" lon="-2.302234">
        <ele>761.366</ele>
        <time>2021-04-06T08:53:41Z</time>
      </trkpt>
      <trkpt lat="43.139408" lon="-2.302220">
        <ele>760.464</ele>
        <time>2021-04-06T08:53:42Z</time>
      </trkpt>
      <trkpt lat="43.139381" lon="-2.302217">
        <ele>759.806</ele>
        <time>2021-04-06T08:53:43Z</time>
      </trkpt>
      <trkpt lat="43.139353" lon="-2.302214">
        <ele>759.316</ele>
        <time>2021-04-06T08:53:44Z</time>
      </trkpt>
      <trkpt lat="43.139323" lon="-2.302215">
        <ele>758.908</ele>
        <time>2021-04-06T08:53:45Z</time>
      </trkpt>
      <trkpt lat="43.139291" lon="-2.302211">
        <ele>758.383</ele>
        <time>2021-04-06T08:53:46Z</time>
      </trkpt>
      <trkpt lat="43.139261" lon="-2.302208">
        <ele>757.796</ele>
        <time>2021-04-06T08:53:47Z</time>
      </trkpt>
      <trkpt lat="43.139232" lon="-2.302207">
        <ele>757.337</ele>
        <time>2021-04-06T08:53:48Z</time>
      </trkpt>
      <trkpt lat="43.139205" lon="-2.302213">
        <ele>757.152</ele>
        <time>2021-04-06T08:53:49Z</time>
      </trkpt>
      <trkpt lat="43.139182" lon="-2.302223">
        <ele>757.347</ele>
        <time>2021-04-06T08:53:50Z</time>
      </trkpt>
      <trkpt lat="43.139161" lon="-2.302222">
        <ele>756.895</ele>
        <time>2021-04-06T08:53:51Z</time>
      </trkpt>
      <trkpt lat="43.139143" lon="-2.302215">
        <ele>756.162</ele>
        <time>2021-04-06T08:53:52Z</time>
      </trkpt>
      <trkpt lat="43.139124" lon="-2.302208">
        <ele>755.320</ele>
        <time>2021-04-06T08:53:53Z</time>
      </trkpt>
      <trkpt lat="43.139105" lon="-2.302207">
        <ele>754.898</ele>
        <time>2021-04-06T08:53:54Z</time>
      </trkpt>
      <trkpt lat="43.139082" lon="-2.302212">
        <ele>754.415</ele>
        <time>2021-04-06T08:53:55Z</time>
      </trkpt>
      <trkpt lat="43.139057" lon="-2.302221">
        <ele>754.226</ele>
        <time>2021-04-06T08:53:56Z</time>
      </trkpt>
      <trkpt lat="43.139029" lon="-2.302234">
        <ele>754.008</ele>
        <time>2021-04-06T08:53:57Z</time>
      </trkpt>
      <trkpt lat="43.139004" lon="-2.302248">
        <ele>753.976</ele>
        <time>2021-04-06T08:53:58Z</time>
      </trkpt>
      <trkpt lat="43.138981" lon="-2.302265">
        <ele>754.019</ele>
        <time>2021-04-06T08:53:59Z</time>
      </trkpt>
      <trkpt lat="43.138961" lon="-2.302283">
        <ele>754.220</ele>
        <time>2021-04-06T08:54:00Z</time>
      </trkpt>
      <trkpt lat="43.138938" lon="-2.302295">
        <ele>754.125</ele>
        <time>2021-04-06T08:54:01Z</time>
      </trkpt>
      <trkpt lat="43.138912" lon="-2.302300">
        <ele>753.770</ele>
        <time>2021-04-06T08:54:02Z</time>
      </trkpt>
      <trkpt lat="43.138894" lon="-2.302292">
        <ele>752.958</ele>
        <time>2021-04-06T08:54:03Z</time>
      </trkpt>
      <trkpt lat="43.138897" lon="-2.302247">
        <ele>751.275</ele>
        <time>2021-04-06T08:54:05Z</time>
      </trkpt>
      <trkpt lat="43.138910" lon="-2.302220">
        <ele>750.493</ele>
        <time>2021-04-06T08:54:06Z</time>
      </trkpt>
      <trkpt lat="43.138923" lon="-2.302189">
        <ele>749.493</ele>
        <time>2021-04-06T08:54:07Z</time>
      </trkpt>
      <trkpt lat="43.138938" lon="-2.302157">
        <ele>748.465</ele>
        <time>2021-04-06T08:54:08Z</time>
      </trkpt>
      <trkpt lat="43.138953" lon="-2.302127">
        <ele>747.521</ele>
        <time>2021-04-06T08:54:09Z</time>
      </trkpt>
      <trkpt lat="43.138971" lon="-2.302099">
        <ele>746.708</ele>
        <time>2021-04-06T08:54:10Z</time>
      </trkpt>
      <trkpt lat="43.138987" lon="-2.302071">
        <ele>745.986</ele>
        <time>2021-04-06T08:54:11Z</time>
      </trkpt>
      <trkpt lat="43.139005" lon="-2.302042">
        <ele>745.119</ele>
        <time>2021-04-06T08:54:12Z</time>
      </trkpt>
      <trkpt lat="43.139022" lon="-2.302014">
        <ele>744.440</ele>
        <time>2021-04-06T08:54:13Z</time>
      </trkpt>
      <trkpt lat="43.139040" lon="-2.301988">
        <ele>743.735</ele>
        <time>2021-04-06T08:54:14Z</time>
      </trkpt>
      <trkpt lat="43.139064" lon="-2.301964">
        <ele>743.390</ele>
        <time>2021-04-06T08:54:15Z</time>
      </trkpt>
      <trkpt lat="43.139086" lon="-2.301940">
        <ele>742.898</ele>
        <time>2021-04-06T08:54:16Z</time>
      </trkpt>
      <trkpt lat="43.139112" lon="-2.301919">
        <ele>742.665</ele>
        <time>2021-04-06T08:54:17Z</time>
      </trkpt>
      <trkpt lat="43.139139" lon="-2.301897">
        <ele>742.383</ele>
        <time>2021-04-06T08:54:18Z</time>
      </trkpt>
      <trkpt lat="43.139165" lon="-2.301875">
        <ele>742.094</ele>
        <time>2021-04-06T08:54:19Z</time>
      </trkpt>
      <trkpt lat="43.139188" lon="-2.301854">
        <ele>741.357</ele>
        <time>2021-04-06T08:54:20Z</time>
      </trkpt>
      <trkpt lat="43.139213" lon="-2.301835">
        <ele>740.822</ele>
        <time>2021-04-06T08:54:21Z</time>
      </trkpt>
      <trkpt lat="43.139237" lon="-2.301815">
        <ele>740.308</ele>
        <time>2021-04-06T08:54:22Z</time>
      </trkpt>
      <trkpt lat="43.139262" lon="-2.301797">
        <ele>739.896</ele>
        <time>2021-04-06T08:54:23Z</time>
      </trkpt>
      <trkpt lat="43.139286" lon="-2.301773">
        <ele>739.119</ele>
        <time>2021-04-06T08:54:24Z</time>
      </trkpt>
      <trkpt lat="43.139311" lon="-2.301748">
        <ele>738.470</ele>
        <time>2021-04-06T08:54:25Z</time>
      </trkpt>
      <trkpt lat="43.139332" lon="-2.301724">
        <ele>737.715</ele>
        <time>2021-04-06T08:54:26Z</time>
      </trkpt>
      <trkpt lat="43.139357" lon="-2.301699">
        <ele>737.130</ele>
        <time>2021-04-06T08:54:27Z</time>
      </trkpt>
      <trkpt lat="43.139381" lon="-2.301676">
        <ele>736.548</ele>
        <time>2021-04-06T08:54:28Z</time>
      </trkpt>
      <trkpt lat="43.139394" lon="-2.301652">
        <ele>735.885</ele>
        <time>2021-04-06T08:54:29Z</time>
      </trkpt>
      <trkpt lat="43.139403" lon="-2.301625">
        <ele>734.933</ele>
        <time>2021-04-06T08:54:30Z</time>
      </trkpt>
      <trkpt lat="43.139410" lon="-2.301599">
        <ele>734.119</ele>
        <time>2021-04-06T08:54:31Z</time>
      </trkpt>
      <trkpt lat="43.139422" lon="-2.301564">
        <ele>733.009</ele>
        <time>2021-04-06T08:54:33Z</time>
      </trkpt>
      <trkpt lat="43.139445" lon="-2.301541">
        <ele>732.519</ele>
        <time>2021-04-06T08:54:35Z</time>
      </trkpt>
      <trkpt lat="43.139465" lon="-2.301517">
        <ele>731.808</ele>
        <time>2021-04-06T08:54:37Z</time>
      </trkpt>
      <trkpt lat="43.139480" lon="-2.301508">
        <ele>731.518</ele>
        <time>2021-04-06T08:54:39Z</time>
      </trkpt>
      <trkpt lat="43.139500" lon="-2.301482">
        <ele>730.731</ele>
        <time>2021-04-06T08:54:41Z</time>
      </trkpt>
      <trkpt lat="43.139529" lon="-2.301456">
        <ele>729.942</ele>
        <time>2021-04-06T08:54:43Z</time>
      </trkpt>
      <trkpt lat="43.139553" lon="-2.301453">
        <ele>729.947</ele>
        <time>2021-04-06T08:54:44Z</time>
      </trkpt>
      <trkpt lat="43.139579" lon="-2.301451">
        <ele>729.922</ele>
        <time>2021-04-06T08:54:45Z</time>
      </trkpt>
      <trkpt lat="43.139603" lon="-2.301449">
        <ele>730.080</ele>
        <time>2021-04-06T08:54:46Z</time>
      </trkpt>
      <trkpt lat="43.139628" lon="-2.301441">
        <ele>729.867</ele>
        <time>2021-04-06T08:54:47Z</time>
      </trkpt>
      <trkpt lat="43.139648" lon="-2.301426">
        <ele>729.395</ele>
        <time>2021-04-06T08:54:48Z</time>
      </trkpt>
      <trkpt lat="43.139669" lon="-2.301411">
        <ele>728.736</ele>
        <time>2021-04-06T08:54:49Z</time>
      </trkpt>
      <trkpt lat="43.139684" lon="-2.301403">
        <ele>728.517</ele>
        <time>2021-04-06T08:54:50Z</time>
      </trkpt>
      <trkpt lat="43.139714" lon="-2.301383">
        <ele>727.818</ele>
        <time>2021-04-06T08:54:52Z</time>
      </trkpt>
      <trkpt lat="43.139729" lon="-2.301367">
        <ele>727.308</ele>
        <time>2021-04-06T08:54:53Z</time>
      </trkpt>
      <trkpt lat="43.139745" lon="-2.301354">
        <ele>726.980</ele>
        <time>2021-04-06T08:54:54Z</time>
      </trkpt>
      <trkpt lat="43.139762" lon="-2.301342">
        <ele>726.533</ele>
        <time>2021-04-06T08:54:55Z</time>
      </trkpt>
      <trkpt lat="43.139789" lon="-2.301331">
        <ele>726.164</ele>
        <time>2021-04-06T08:54:57Z</time>
      </trkpt>
      <trkpt lat="43.139815" lon="-2.301312">
        <ele>725.429</ele>
        <time>2021-04-06T08:54:59Z</time>
      </trkpt>
      <trkpt lat="43.139843" lon="-2.301299">
        <ele>724.914</ele>
        <time>2021-04-06T08:55:01Z</time>
      </trkpt>
      <trkpt lat="43.139859" lon="-2.301286">
        <ele>724.582</ele>
        <time>2021-04-06T08:55:04Z</time>
      </trkpt>
      <trkpt lat="43.139878" lon="-2.301278">
        <ele>724.229</ele>
        <time>2021-04-06T08:55:12Z</time>
      </trkpt>
      <trkpt lat="43.139887" lon="-2.301259">
        <ele>723.527</ele>
        <time>2021-04-06T08:55:14Z</time>
      </trkpt>
      <trkpt lat="43.139915" lon="-2.301242">
        <ele>722.916</ele>
        <time>2021-04-06T08:55:16Z</time>
      </trkpt>
      <trkpt lat="43.139941" lon="-2.301230">
        <ele>722.476</ele>
        <time>2021-04-06T08:55:18Z</time>
      </trkpt>
      <trkpt lat="43.139966" lon="-2.301221">
        <ele>722.013</ele>
        <time>2021-04-06T08:55:20Z</time>
      </trkpt>
      <trkpt lat="43.139981" lon="-2.301206">
        <ele>721.508</ele>
        <time>2021-04-06T08:55:22Z</time>
      </trkpt>
      <trkpt lat="43.139999" lon="-2.301195">
        <ele>721.048</ele>
        <time>2021-04-06T08:55:24Z</time>
      </trkpt>
      <trkpt lat="43.140017" lon="-2.301173">
        <ele>720.011</ele>
        <time>2021-04-06T08:55:27Z</time>
      </trkpt>
      <trkpt lat="43.140032" lon="-2.301163">
        <ele>719.492</ele>
        <time>2021-04-06T08:55:29Z</time>
      </trkpt>
      <trkpt lat="43.140050" lon="-2.301155">
        <ele>718.927</ele>
        <time>2021-04-06T08:55:31Z</time>
      </trkpt>
      <trkpt lat="43.140069" lon="-2.301138">
        <ele>718.042</ele>
        <time>2021-04-06T08:55:33Z</time>
      </trkpt>
      <trkpt lat="43.140096" lon="-2.301117">
        <ele>716.880</ele>
        <time>2021-04-06T08:55:35Z</time>
      </trkpt>
      <trkpt lat="43.140123" lon="-2.301097">
        <ele>715.897</ele>
        <time>2021-04-06T08:55:37Z</time>
      </trkpt>
      <trkpt lat="43.140157" lon="-2.301076">
        <ele>714.715</ele>
        <time>2021-04-06T08:55:39Z</time>
      </trkpt>
      <trkpt lat="43.140183" lon="-2.301053">
        <ele>713.662</ele>
        <time>2021-04-06T08:55:41Z</time>
      </trkpt>
      <trkpt lat="43.140201" lon="-2.301023">
        <ele>712.583</ele>
        <time>2021-04-06T08:55:43Z</time>
      </trkpt>
      <trkpt lat="43.140211" lon="-2.301002">
        <ele>711.711</ele>
        <time>2021-04-06T08:55:45Z</time>
      </trkpt>
      <trkpt lat="43.140229" lon="-2.300973">
        <ele>710.608</ele>
        <time>2021-04-06T08:55:47Z</time>
      </trkpt>
      <trkpt lat="43.140239" lon="-2.300951">
        <ele>709.943</ele>
        <time>2021-04-06T08:55:48Z</time>
      </trkpt>
      <trkpt lat="43.140251" lon="-2.300926">
        <ele>709.026</ele>
        <time>2021-04-06T08:55:49Z</time>
      </trkpt>
      <trkpt lat="43.140265" lon="-2.300902">
        <ele>708.147</ele>
        <time>2021-04-06T08:55:50Z</time>
      </trkpt>
      <trkpt lat="43.140279" lon="-2.300879">
        <ele>707.392</ele>
        <time>2021-04-06T08:55:51Z</time>
      </trkpt>
      <trkpt lat="43.140290" lon="-2.300855">
        <ele>706.457</ele>
        <time>2021-04-06T08:55:52Z</time>
      </trkpt>
      <trkpt lat="43.140301" lon="-2.300831">
        <ele>705.555</ele>
        <time>2021-04-06T08:55:53Z</time>
      </trkpt>
      <trkpt lat="43.140316" lon="-2.300809">
        <ele>704.622</ele>
        <time>2021-04-06T08:55:54Z</time>
      </trkpt>
      <trkpt lat="43.140331" lon="-2.300787">
        <ele>703.740</ele>
        <time>2021-04-06T08:55:55Z</time>
      </trkpt>
      <trkpt lat="43.140346" lon="-2.300762">
        <ele>702.864</ele>
        <time>2021-04-06T08:55:56Z</time>
      </trkpt>
      <trkpt lat="43.140354" lon="-2.300734">
        <ele>701.906</ele>
        <time>2021-04-06T08:55:57Z</time>
      </trkpt>
      <trkpt lat="43.140361" lon="-2.300707">
        <ele>701.016</ele>
        <time>2021-04-06T08:55:58Z</time>
      </trkpt>
      <trkpt lat="43.140366" lon="-2.300683">
        <ele>700.308</ele>
        <time>2021-04-06T08:55:59Z</time>
      </trkpt>
      <trkpt lat="43.140372" lon="-2.300660">
        <ele>699.513</ele>
        <time>2021-04-06T08:56:00Z</time>
      </trkpt>
      <trkpt lat="43.140383" lon="-2.300631">
        <ele>698.616</ele>
        <time>2021-04-06T08:56:02Z</time>
      </trkpt>
      <trkpt lat="43.140402" lon="-2.300603">
        <ele>697.567</ele>
        <time>2021-04-06T08:56:04Z</time>
      </trkpt>
      <trkpt lat="43.140399" lon="-2.300581">
        <ele>696.922</ele>
        <time>2021-04-06T08:56:05Z</time>
      </trkpt>
      <trkpt lat="43.140392" lon="-2.300555">
        <ele>696.357</ele>
        <time>2021-04-06T08:56:07Z</time>
      </trkpt>
      <trkpt lat="43.140405" lon="-2.300523">
        <ele>695.425</ele>
        <time>2021-04-06T08:56:10Z</time>
      </trkpt>
      <trkpt lat="43.140390" lon="-2.300497">
        <ele>695.082</ele>
        <time>2021-04-06T08:56:12Z</time>
      </trkpt>
      <trkpt lat="43.140375" lon="-2.300471">
        <ele>694.720</ele>
        <time>2021-04-06T08:56:15Z</time>
      </trkpt>
      <trkpt lat="43.140380" lon="-2.300443">
        <ele>693.978</ele>
        <time>2021-04-06T08:56:17Z</time>
      </trkpt>
      <trkpt lat="43.140393" lon="-2.300408">
        <ele>692.933</ele>
        <time>2021-04-06T08:56:19Z</time>
      </trkpt>
      <trkpt lat="43.140386" lon="-2.300370">
        <ele>692.226</ele>
        <time>2021-04-06T08:56:21Z</time>
      </trkpt>
      <trkpt lat="43.140385" lon="-2.300331">
        <ele>691.308</ele>
        <time>2021-04-06T08:56:23Z</time>
      </trkpt>
      <trkpt lat="43.140380" lon="-2.300293">
        <ele>690.574</ele>
        <time>2021-04-06T08:56:25Z</time>
      </trkpt>
      <trkpt lat="43.140373" lon="-2.300255">
        <ele>689.877</ele>
        <time>2021-04-06T08:56:27Z</time>
      </trkpt>
      <trkpt lat="43.140364" lon="-2.300221">
        <ele>689.198</ele>
        <time>2021-04-06T08:56:29Z</time>
      </trkpt>
      <trkpt lat="43.140368" lon="-2.300199">
        <ele>688.683</ele>
        <time>2021-04-06T08:56:31Z</time>
      </trkpt>
      <trkpt lat="43.140376" lon="-2.300179">
        <ele>688.098</ele>
        <time>2021-04-06T08:56:33Z</time>
      </trkpt>
      <trkpt lat="43.140385" lon="-2.300153">
        <ele>687.356</ele>
        <time>2021-04-06T08:56:35Z</time>
      </trkpt>
      <trkpt lat="43.140395" lon="-2.300135">
        <ele>686.753</ele>
        <time>2021-04-06T08:56:37Z</time>
      </trkpt>
      <trkpt lat="43.140402" lon="-2.300114">
        <ele>686.251</ele>
        <time>2021-04-06T08:56:40Z</time>
      </trkpt>
      <trkpt lat="43.140407" lon="-2.300088">
        <ele>685.547</ele>
        <time>2021-04-06T08:56:44Z</time>
      </trkpt>
      <trkpt lat="43.140414" lon="-2.300061">
        <ele>684.929</ele>
        <time>2021-04-06T08:56:46Z</time>
      </trkpt>
      <trkpt lat="43.140406" lon="-2.300032">
        <ele>684.321</ele>
        <time>2021-04-06T08:56:48Z</time>
      </trkpt>
      <trkpt lat="43.140401" lon="-2.300013">
        <ele>684.008</ele>
        <time>2021-04-06T08:56:52Z</time>
      </trkpt>
      <trkpt lat="43.140396" lon="-2.299988">
        <ele>683.551</ele>
        <time>2021-04-06T08:56:59Z</time>
      </trkpt>
      <trkpt lat="43.140389" lon="-2.299964">
        <ele>683.154</ele>
        <time>2021-04-06T08:57:01Z</time>
      </trkpt>
      <trkpt lat="43.140387" lon="-2.299932">
        <ele>682.515</ele>
        <time>2021-04-06T08:57:04Z</time>
      </trkpt>
      <trkpt lat="43.140390" lon="-2.299906">
        <ele>682.040</ele>
        <time>2021-04-06T08:57:09Z</time>
      </trkpt>
      <trkpt lat="43.140383" lon="-2.299880">
        <ele>681.615</ele>
        <time>2021-04-06T08:57:13Z</time>
      </trkpt>
      <trkpt lat="43.140386" lon="-2.299846">
        <ele>680.963</ele>
        <time>2021-04-06T08:57:15Z</time>
      </trkpt>
      <trkpt lat="43.140388" lon="-2.299813">
        <ele>680.310</ele>
        <time>2021-04-06T08:57:17Z</time>
      </trkpt>
      <trkpt lat="43.140391" lon="-2.299789">
        <ele>679.888</ele>
        <time>2021-04-06T08:57:19Z</time>
      </trkpt>
      <trkpt lat="43.140397" lon="-2.299757">
        <ele>679.216</ele>
        <time>2021-04-06T08:57:21Z</time>
      </trkpt>
      <trkpt lat="43.140396" lon="-2.299728">
        <ele>678.776</ele>
        <time>2021-04-06T08:57:23Z</time>
      </trkpt>
      <trkpt lat="43.140385" lon="-2.299706">
        <ele>678.313</ele>
        <time>2021-04-06T08:57:26Z</time>
      </trkpt>
      <trkpt lat="43.140403" lon="-2.299684">
        <ele>677.808</ele>
        <time>2021-04-06T08:57:34Z</time>
      </trkpt>
      <trkpt lat="43.140419" lon="-2.299663">
        <ele>677.318</ele>
        <time>2021-04-06T08:57:36Z</time>
      </trkpt>
      <trkpt lat="43.140447" lon="-2.299625">
        <ele>676.571</ele>
        <time>2021-04-06T08:57:38Z</time>
      </trkpt>
      <trkpt lat="43.140461" lon="-2.299594">
        <ele>675.912</ele>
        <time>2021-04-06T08:57:39Z</time>
      </trkpt>
      <trkpt lat="43.140473" lon="-2.299562">
        <ele>675.237</ele>
        <time>2021-04-06T08:57:40Z</time>
      </trkpt>
      <trkpt lat="43.140483" lon="-2.299530">
        <ele>674.612</ele>
        <time>2021-04-06T08:57:41Z</time>
      </trkpt>
      <trkpt lat="43.140491" lon="-2.299497">
        <ele>674.030</ele>
        <time>2021-04-06T08:57:42Z</time>
      </trkpt>
      <trkpt lat="43.140500" lon="-2.299464">
        <ele>673.477</ele>
        <time>2021-04-06T08:57:43Z</time>
      </trkpt>
      <trkpt lat="43.140510" lon="-2.299428">
        <ele>672.785</ele>
        <time>2021-04-06T08:57:44Z</time>
      </trkpt>
      <trkpt lat="43.140524" lon="-2.299389">
        <ele>672.037</ele>
        <time>2021-04-06T08:57:45Z</time>
      </trkpt>
      <trkpt lat="43.140537" lon="-2.299349">
        <ele>671.349</ele>
        <time>2021-04-06T08:57:46Z</time>
      </trkpt>
      <trkpt lat="43.140548" lon="-2.299305">
        <ele>670.513</ele>
        <time>2021-04-06T08:57:47Z</time>
      </trkpt>
      <trkpt lat="43.140559" lon="-2.299263">
        <ele>669.708</ele>
        <time>2021-04-06T08:57:48Z</time>
      </trkpt>
      <trkpt lat="43.140571" lon="-2.299218">
        <ele>668.820</ele>
        <time>2021-04-06T08:57:49Z</time>
      </trkpt>
      <trkpt lat="43.140583" lon="-2.299174">
        <ele>667.933</ele>
        <time>2021-04-06T08:57:50Z</time>
      </trkpt>
      <trkpt lat="43.140594" lon="-2.299133">
        <ele>667.254</ele>
        <time>2021-04-06T08:57:51Z</time>
      </trkpt>
      <trkpt lat="43.140604" lon="-2.299088">
        <ele>666.539</ele>
        <time>2021-04-06T08:57:52Z</time>
      </trkpt>
      <trkpt lat="43.140614" lon="-2.299043">
        <ele>665.814</ele>
        <time>2021-04-06T08:57:53Z</time>
      </trkpt>
      <trkpt lat="43.140625" lon="-2.299000">
        <ele>665.162</ele>
        <time>2021-04-06T08:57:54Z</time>
      </trkpt>
      <trkpt lat="43.140635" lon="-2.298957">
        <ele>664.479</ele>
        <time>2021-04-06T08:57:55Z</time>
      </trkpt>
      <trkpt lat="43.140646" lon="-2.298916">
        <ele>663.747</ele>
        <time>2021-04-06T08:57:56Z</time>
      </trkpt>
      <trkpt lat="43.140658" lon="-2.298876">
        <ele>663.133</ele>
        <time>2021-04-06T08:57:57Z</time>
      </trkpt>
      <trkpt lat="43.140671" lon="-2.298833">
        <ele>662.623</ele>
        <time>2021-04-06T08:57:58Z</time>
      </trkpt>
      <trkpt lat="43.140683" lon="-2.298791">
        <ele>662.215</ele>
        <time>2021-04-06T08:57:59Z</time>
      </trkpt>
      <trkpt lat="43.140692" lon="-2.298751">
        <ele>661.808</ele>
        <time>2021-04-06T08:58:00Z</time>
      </trkpt>
      <trkpt lat="43.140696" lon="-2.298710">
        <ele>661.420</ele>
        <time>2021-04-06T08:58:01Z</time>
      </trkpt>
      <trkpt lat="43.140701" lon="-2.298671">
        <ele>661.033</ele>
        <time>2021-04-06T08:58:02Z</time>
      </trkpt>
      <trkpt lat="43.140705" lon="-2.298632">
        <ele>660.664</ele>
        <time>2021-04-06T08:58:03Z</time>
      </trkpt>
      <trkpt lat="43.140709" lon="-2.298594">
        <ele>660.319</ele>
        <time>2021-04-06T08:58:04Z</time>
      </trkpt>
      <trkpt lat="43.140712" lon="-2.298555">
        <ele>659.924</ele>
        <time>2021-04-06T08:58:05Z</time>
      </trkpt>
      <trkpt lat="43.140716" lon="-2.298515">
        <ele>659.412</ele>
        <time>2021-04-06T08:58:06Z</time>
      </trkpt>
      <trkpt lat="43.140720" lon="-2.298478">
        <ele>659.189</ele>
        <time>2021-04-06T08:58:07Z</time>
      </trkpt>
      <trkpt lat="43.140723" lon="-2.298437">
        <ele>658.627</ele>
        <time>2021-04-06T08:58:08Z</time>
      </trkpt>
      <trkpt lat="43.140725" lon="-2.298396">
        <ele>658.296</ele>
        <time>2021-04-06T08:58:09Z</time>
      </trkpt>
      <trkpt lat="43.140728" lon="-2.298358">
        <ele>657.931</ele>
        <time>2021-04-06T08:58:10Z</time>
      </trkpt>
      <trkpt lat="43.140731" lon="-2.298320">
        <ele>657.524</ele>
        <time>2021-04-06T08:58:11Z</time>
      </trkpt>
      <trkpt lat="43.140723" lon="-2.298287">
        <ele>657.208</ele>
        <time>2021-04-06T08:58:12Z</time>
      </trkpt>
      <trkpt lat="43.140717" lon="-2.298262">
        <ele>657.096</ele>
        <time>2021-04-06T08:58:13Z</time>
      </trkpt>
      <trkpt lat="43.140707" lon="-2.298217">
        <ele>656.679</ele>
        <time>2021-04-06T08:58:15Z</time>
      </trkpt>
      <trkpt lat="43.140703" lon="-2.298172">
        <ele>656.140</ele>
        <time>2021-04-06T08:58:17Z</time>
      </trkpt>
      <trkpt lat="43.140704" lon="-2.298150">
        <ele>656.025</ele>
        <time>2021-04-06T08:58:18Z</time>
      </trkpt>
      <trkpt lat="43.140705" lon="-2.298126">
        <ele>655.840</ele>
        <time>2021-04-06T08:58:19Z</time>
      </trkpt>
      <trkpt lat="43.140717" lon="-2.298088">
        <ele>655.618</ele>
        <time>2021-04-06T08:58:21Z</time>
      </trkpt>
      <trkpt lat="43.140742" lon="-2.298052">
        <ele>655.615</ele>
        <time>2021-04-06T08:58:23Z</time>
      </trkpt>
      <trkpt lat="43.140758" lon="-2.298027">
        <ele>655.243</ele>
        <time>2021-04-06T08:58:24Z</time>
      </trkpt>
      <trkpt lat="43.140773" lon="-2.298005">
        <ele>655.011</ele>
        <time>2021-04-06T08:58:25Z</time>
      </trkpt>
      <trkpt lat="43.140793" lon="-2.297975">
        <ele>654.621</ele>
        <time>2021-04-06T08:58:27Z</time>
      </trkpt>
      <trkpt lat="43.140772" lon="-2.297987">
        <ele>654.503</ele>
        <time>2021-04-06T08:58:31Z</time>
      </trkpt>
      <trkpt lat="43.140751" lon="-2.298008">
        <ele>654.708</ele>
        <time>2021-04-06T08:58:33Z</time>
      </trkpt>
      <trkpt lat="43.140735" lon="-2.298026">
        <ele>654.968</ele>
        <time>2021-04-06T08:58:34Z</time>
      </trkpt>
      <trkpt lat="43.140715" lon="-2.298053">
        <ele>655.251</ele>
        <time>2021-04-06T08:58:35Z</time>
      </trkpt>
      <trkpt lat="43.140691" lon="-2.298083">
        <ele>655.232</ele>
        <time>2021-04-06T08:58:36Z</time>
      </trkpt>
      <trkpt lat="43.140670" lon="-2.298114">
        <ele>655.247</ele>
        <time>2021-04-06T08:58:37Z</time>
      </trkpt>
      <trkpt lat="43.140659" lon="-2.298150">
        <ele>655.562</ele>
        <time>2021-04-06T08:58:38Z</time>
      </trkpt>
      <trkpt lat="43.140663" lon="-2.298191">
        <ele>655.990</ele>
        <time>2021-04-06T08:58:39Z</time>
      </trkpt>
      <trkpt lat="43.140670" lon="-2.298221">
        <ele>656.317</ele>
        <time>2021-04-06T08:58:40Z</time>
      </trkpt>
      <trkpt lat="43.140685" lon="-2.298247">
        <ele>656.775</ele>
        <time>2021-04-06T08:58:41Z</time>
      </trkpt>
      <trkpt lat="43.140713" lon="-2.298257">
        <ele>656.955</ele>
        <time>2021-04-06T08:58:42Z</time>
      </trkpt>
      <trkpt lat="43.140740" lon="-2.298249">
        <ele>657.107</ele>
        <time>2021-04-06T08:58:43Z</time>
      </trkpt>
      <trkpt lat="43.140767" lon="-2.298237">
        <ele>657.217</ele>
        <time>2021-04-06T08:58:44Z</time>
      </trkpt>
      <trkpt lat="43.140794" lon="-2.298218">
        <ele>657.308</ele>
        <time>2021-04-06T08:58:45Z</time>
      </trkpt>
      <trkpt lat="43.140819" lon="-2.298196">
        <ele>657.412</ele>
        <time>2021-04-06T08:58:46Z</time>
      </trkpt>
      <trkpt lat="43.140840" lon="-2.298175">
        <ele>657.315</ele>
        <time>2021-04-06T08:58:47Z</time>
      </trkpt>
      <trkpt lat="43.140860" lon="-2.298152">
        <ele>656.926</ele>
        <time>2021-04-06T08:58:48Z</time>
      </trkpt>
      <trkpt lat="43.140875" lon="-2.298130">
        <ele>656.661</ele>
        <time>2021-04-06T08:58:49Z</time>
      </trkpt>
      <trkpt lat="43.140885" lon="-2.298109">
        <ele>656.486</ele>
        <time>2021-04-06T08:58:50Z</time>
      </trkpt>
      <trkpt lat="43.140893" lon="-2.298077">
        <ele>656.264</ele>
        <time>2021-04-06T08:58:52Z</time>
      </trkpt>
      <trkpt lat="43.140903" lon="-2.298046">
        <ele>655.851</ele>
        <time>2021-04-06T08:58:54Z</time>
      </trkpt>
      <trkpt lat="43.140914" lon="-2.298022">
        <ele>655.369</ele>
        <time>2021-04-06T08:58:56Z</time>
      </trkpt>
      <trkpt lat="43.140933" lon="-2.298009">
        <ele>654.996</ele>
        <time>2021-04-06T08:58:58Z</time>
      </trkpt>
      <trkpt lat="43.140964" lon="-2.298007">
        <ele>654.531</ele>
        <time>2021-04-06T08:59:00Z</time>
      </trkpt>
      <trkpt lat="43.140985" lon="-2.298003">
        <ele>654.224</ele>
        <time>2021-04-06T08:59:01Z</time>
      </trkpt>
      <trkpt lat="43.141010" lon="-2.297996">
        <ele>653.908</ele>
        <time>2021-04-06T08:59:02Z</time>
      </trkpt>
      <trkpt lat="43.141036" lon="-2.297994">
        <ele>653.676</ele>
        <time>2021-04-06T08:59:03Z</time>
      </trkpt>
      <trkpt lat="43.141067" lon="-2.297989">
        <ele>653.249</ele>
        <time>2021-04-06T08:59:04Z</time>
      </trkpt>
      <trkpt lat="43.141093" lon="-2.297978">
        <ele>652.930</ele>
        <time>2021-04-06T08:59:05Z</time>
      </trkpt>
      <trkpt lat="43.141117" lon="-2.297957">
        <ele>652.585</ele>
        <time>2021-04-06T08:59:06Z</time>
      </trkpt>
      <trkpt lat="43.141132" lon="-2.297927">
        <ele>651.910</ele>
        <time>2021-04-06T08:59:07Z</time>
      </trkpt>
      <trkpt lat="43.141131" lon="-2.297894">
        <ele>651.878</ele>
        <time>2021-04-06T08:59:08Z</time>
      </trkpt>
      <trkpt lat="43.141122" lon="-2.297870">
        <ele>652.015</ele>
        <time>2021-04-06T08:59:09Z</time>
      </trkpt>
      <trkpt lat="43.141107" lon="-2.297851">
        <ele>652.313</ele>
        <time>2021-04-06T08:59:10Z</time>
      </trkpt>
      <trkpt lat="43.141090" lon="-2.297836">
        <ele>652.242</ele>
        <time>2021-04-06T08:59:11Z</time>
      </trkpt>
      <trkpt lat="43.141067" lon="-2.297810">
        <ele>652.022</ele>
        <time>2021-04-06T08:59:13Z</time>
      </trkpt>
      <trkpt lat="43.141078" lon="-2.297765">
        <ele>651.514</ele>
        <time>2021-04-06T08:59:15Z</time>
      </trkpt>
      <trkpt lat="43.141104" lon="-2.297740">
        <ele>650.908</ele>
        <time>2021-04-06T08:59:16Z</time>
      </trkpt>
      <trkpt lat="43.141129" lon="-2.297712">
        <ele>649.751</ele>
        <time>2021-04-06T08:59:17Z</time>
      </trkpt>
      <trkpt lat="43.141154" lon="-2.297686">
        <ele>648.384</ele>
        <time>2021-04-06T08:59:18Z</time>
      </trkpt>
      <trkpt lat="43.141180" lon="-2.297656">
        <ele>646.995</ele>
        <time>2021-04-06T08:59:19Z</time>
      </trkpt>
      <trkpt lat="43.141203" lon="-2.297627">
        <ele>645.770</ele>
        <time>2021-04-06T08:59:20Z</time>
      </trkpt>
      <trkpt lat="43.141220" lon="-2.297599">
        <ele>644.755</ele>
        <time>2021-04-06T08:59:21Z</time>
      </trkpt>
      <trkpt lat="43.141232" lon="-2.297573">
        <ele>643.933</ele>
        <time>2021-04-06T08:59:22Z</time>
      </trkpt>
      <trkpt lat="43.141240" lon="-2.297554">
        <ele>643.370</ele>
        <time>2021-04-06T08:59:23Z</time>
      </trkpt>
      <trkpt lat="43.141225" lon="-2.297528">
        <ele>643.078</ele>
        <time>2021-04-06T08:59:26Z</time>
      </trkpt>
      <trkpt lat="43.141199" lon="-2.297510">
        <ele>643.027</ele>
        <time>2021-04-06T08:59:28Z</time>
      </trkpt>
      <trkpt lat="43.141176" lon="-2.297497">
        <ele>643.068</ele>
        <time>2021-04-06T08:59:30Z</time>
      </trkpt>
      <trkpt lat="43.141146" lon="-2.297483">
        <ele>642.814</ele>
        <time>2021-04-06T08:59:32Z</time>
      </trkpt>
      <trkpt lat="43.141115" lon="-2.297475">
        <ele>643.008</ele>
        <time>2021-04-06T08:59:34Z</time>
      </trkpt>
      <trkpt lat="43.141111" lon="-2.297448">
        <ele>641.939</ele>
        <time>2021-04-06T08:59:36Z</time>
      </trkpt>
      <trkpt lat="43.141123" lon="-2.297415">
        <ele>640.522</ele>
        <time>2021-04-06T08:59:38Z</time>
      </trkpt>
      <trkpt lat="43.141129" lon="-2.297391">
        <ele>639.583</ele>
        <time>2021-04-06T08:59:40Z</time>
      </trkpt>
      <trkpt lat="43.141129" lon="-2.297354">
        <ele>638.088</ele>
        <time>2021-04-06T08:59:42Z</time>
      </trkpt>
      <trkpt lat="43.141132" lon="-2.297321">
        <ele>636.763</ele>
        <time>2021-04-06T08:59:44Z</time>
      </trkpt>
      <trkpt lat="43.141141" lon="-2.297292">
        <ele>635.581</ele>
        <time>2021-04-06T08:59:46Z</time>
      </trkpt>
      <trkpt lat="43.141167" lon="-2.297274">
        <ele>634.658</ele>
        <time>2021-04-06T08:59:48Z</time>
      </trkpt>
      <trkpt lat="43.141195" lon="-2.297254">
        <ele>633.676</ele>
        <time>2021-04-06T08:59:50Z</time>
      </trkpt>
      <trkpt lat="43.141208" lon="-2.297242">
        <ele>633.033</ele>
        <time>2021-04-06T08:59:51Z</time>
      </trkpt>
      <trkpt lat="43.141232" lon="-2.297217">
        <ele>632.023</ele>
        <time>2021-04-06T08:59:53Z</time>
      </trkpt>
      <trkpt lat="43.141258" lon="-2.297201">
        <ele>631.315</ele>
        <time>2021-04-06T08:59:55Z</time>
      </trkpt>
      <trkpt lat="43.141287" lon="-2.297178">
        <ele>630.608</ele>
        <time>2021-04-06T08:59:57Z</time>
      </trkpt>
      <trkpt lat="43.141301" lon="-2.297164">
        <ele>630.280</ele>
        <time>2021-04-06T08:59:58Z</time>
      </trkpt>
      <trkpt lat="43.141336" lon="-2.297146">
        <ele>629.733</ele>
        <time>2021-04-06T09:00:00Z</time>
      </trkpt>
      <trkpt lat="43.141356" lon="-2.297136">
        <ele>629.584</ele>
        <time>2021-04-06T09:00:01Z</time>
      </trkpt>
      <trkpt lat="43.141378" lon="-2.297127">
        <ele>629.379</ele>
        <time>2021-04-06T09:00:02Z</time>
      </trkpt>
      <trkpt lat="43.141394" lon="-2.297116">
        <ele>628.964</ele>
        <time>2021-04-06T09:00:03Z</time>
      </trkpt>
      <trkpt lat="43.141413" lon="-2.297077">
        <ele>627.562</ele>
        <time>2021-04-06T09:00:05Z</time>
      </trkpt>
      <trkpt lat="43.141415" lon="-2.297047">
        <ele>626.939</ele>
        <time>2021-04-06T09:00:06Z</time>
      </trkpt>
      <trkpt lat="43.141407" lon="-2.297018">
        <ele>626.757</ele>
        <time>2021-04-06T09:00:07Z</time>
      </trkpt>
      <trkpt lat="43.141383" lon="-2.296998">
        <ele>626.969</ele>
        <time>2021-04-06T09:00:08Z</time>
      </trkpt>
      <trkpt lat="43.141357" lon="-2.296992">
        <ele>626.504</ele>
        <time>2021-04-06T09:00:09Z</time>
      </trkpt>
      <trkpt lat="43.141326" lon="-2.296982">
        <ele>626.024</ele>
        <time>2021-04-06T09:00:11Z</time>
      </trkpt>
      <trkpt lat="43.141308" lon="-2.296961">
        <ele>625.208</ele>
        <time>2021-04-06T09:00:13Z</time>
      </trkpt>
      <trkpt lat="43.141293" lon="-2.296947">
        <ele>624.743</ele>
        <time>2021-04-06T09:00:14Z</time>
      </trkpt>
      <trkpt lat="43.141273" lon="-2.296936">
        <ele>624.036</ele>
        <time>2021-04-06T09:00:15Z</time>
      </trkpt>
      <trkpt lat="43.141252" lon="-2.296935">
        <ele>623.667</ele>
        <time>2021-04-06T09:00:16Z</time>
      </trkpt>
      <trkpt lat="43.141235" lon="-2.296940">
        <ele>623.672</ele>
        <time>2021-04-06T09:00:17Z</time>
      </trkpt>
      <trkpt lat="43.141207" lon="-2.296936">
        <ele>623.077</ele>
        <time>2021-04-06T09:00:19Z</time>
      </trkpt>
      <trkpt lat="43.141183" lon="-2.296933">
        <ele>622.585</ele>
        <time>2021-04-06T09:00:21Z</time>
      </trkpt>
      <trkpt lat="43.141162" lon="-2.296926">
        <ele>621.972</ele>
        <time>2021-04-06T09:00:23Z</time>
      </trkpt>
      <trkpt lat="43.141131" lon="-2.296923">
        <ele>621.330</ele>
        <time>2021-04-06T09:00:25Z</time>
      </trkpt>
      <trkpt lat="43.141113" lon="-2.296931">
        <ele>621.462</ele>
        <time>2021-04-06T09:00:26Z</time>
      </trkpt>
      <trkpt lat="43.141096" lon="-2.296940">
        <ele>621.383</ele>
        <time>2021-04-06T09:00:27Z</time>
      </trkpt>
      <trkpt lat="43.141079" lon="-2.296947">
        <ele>621.111</ele>
        <time>2021-04-06T09:00:28Z</time>
      </trkpt>
      <trkpt lat="43.141050" lon="-2.296948">
        <ele>620.208</ele>
        <time>2021-04-06T09:00:30Z</time>
      </trkpt>
      <trkpt lat="43.141022" lon="-2.296949">
        <ele>619.313</ele>
        <time>2021-04-06T09:00:32Z</time>
      </trkpt>
      <trkpt lat="43.140998" lon="-2.296951">
        <ele>618.666</ele>
        <time>2021-04-06T09:00:34Z</time>
      </trkpt>
      <trkpt lat="43.140986" lon="-2.296917">
        <ele>616.687</ele>
        <time>2021-04-06T09:00:36Z</time>
      </trkpt>
      <trkpt lat="43.140986" lon="-2.296889">
        <ele>615.312</ele>
        <time>2021-04-06T09:00:38Z</time>
      </trkpt>
      <trkpt lat="43.141005" lon="-2.296861">
        <ele>614.557</ele>
        <time>2021-04-06T09:00:40Z</time>
      </trkpt>
      <trkpt lat="43.141026" lon="-2.296839">
        <ele>614.265</ele>
        <time>2021-04-06T09:00:42Z</time>
      </trkpt>
      <trkpt lat="43.141043" lon="-2.296813">
        <ele>613.562</ele>
        <time>2021-04-06T09:00:44Z</time>
      </trkpt>
      <trkpt lat="43.141057" lon="-2.296802">
        <ele>613.580</ele>
        <time>2021-04-06T09:00:46Z</time>
      </trkpt>
      <trkpt lat="43.141073" lon="-2.296809">
        <ele>614.416</ele>
        <time>2021-04-06T09:00:48Z</time>
      </trkpt>
      <trkpt lat="43.141092" lon="-2.296810">
        <ele>615.176</ele>
        <time>2021-04-06T09:00:50Z</time>
      </trkpt>
      <trkpt lat="43.141112" lon="-2.296802">
        <ele>615.313</ele>
        <time>2021-04-06T09:00:53Z</time>
      </trkpt>
      <trkpt lat="43.141132" lon="-2.296791">
        <ele>615.208</ele>
        <time>2021-04-06T09:00:56Z</time>
      </trkpt>
      <trkpt lat="43.141149" lon="-2.296772">
        <ele>614.638</ele>
        <time>2021-04-06T09:00:59Z</time>
      </trkpt>
      <trkpt lat="43.141162" lon="-2.296752">
        <ele>613.971</ele>
        <time>2021-04-06T09:01:02Z</time>
      </trkpt>
      <trkpt lat="43.141170" lon="-2.296728">
        <ele>612.922</ele>
        <time>2021-04-06T09:01:04Z</time>
      </trkpt>
      <trkpt lat="43.141187" lon="-2.296689">
        <ele>611.467</ele>
        <time>2021-04-06T09:01:07Z</time>
      </trkpt>
      <trkpt lat="43.141200" lon="-2.296658">
        <ele>610.282</ele>
        <time>2021-04-06T09:01:09Z</time>
      </trkpt>
      <trkpt lat="43.141215" lon="-2.296633">
        <ele>609.360</ele>
        <time>2021-04-06T09:01:11Z</time>
      </trkpt>
      <trkpt lat="43.141229" lon="-2.296614">
        <ele>608.757</ele>
        <time>2021-04-06T09:01:13Z</time>
      </trkpt>
      <trkpt lat="43.141239" lon="-2.296592">
        <ele>607.835</ele>
        <time>2021-04-06T09:01:15Z</time>
      </trkpt>
      <trkpt lat="43.141246" lon="-2.296566">
        <ele>606.751</ele>
        <time>2021-04-06T09:01:17Z</time>
      </trkpt>
      <trkpt lat="43.141263" lon="-2.296544">
        <ele>606.001</ele>
        <time>2021-04-06T09:01:19Z</time>
      </trkpt>
      <trkpt lat="43.141277" lon="-2.296515">
        <ele>604.811</ele>
        <time>2021-04-06T09:01:21Z</time>
      </trkpt>
      <trkpt lat="43.141297" lon="-2.296498">
        <ele>604.208</ele>
        <time>2021-04-06T09:01:23Z</time>
      </trkpt>
      <trkpt lat="43.141320" lon="-2.296469">
        <ele>603.272</ele>
        <time>2021-04-06T09:01:25Z</time>
      </trkpt>
      <trkpt lat="43.141334" lon="-2.296453">
        <ele>602.555</ele>
        <time>2021-04-06T09:01:26Z</time>
      </trkpt>
      <trkpt lat="43.141365" lon="-2.296421">
        <ele>601.376</ele>
        <time>2021-04-06T09:01:28Z</time>
      </trkpt>
      <trkpt lat="43.141384" lon="-2.296408">
        <ele>600.931</ele>
        <time>2021-04-06T09:01:29Z</time>
      </trkpt>
      <trkpt lat="43.141396" lon="-2.296391">
        <ele>600.146</ele>
        <time>2021-04-06T09:01:30Z</time>
      </trkpt>
      <trkpt lat="43.141428" lon="-2.296365">
        <ele>598.934</ele>
        <time>2021-04-06T09:01:32Z</time>
      </trkpt>
      <trkpt lat="43.141445" lon="-2.296356">
        <ele>598.551</ele>
        <time>2021-04-06T09:01:33Z</time>
      </trkpt>
      <trkpt lat="43.141462" lon="-2.296344">
        <ele>598.079</ele>
        <time>2021-04-06T09:01:34Z</time>
      </trkpt>
      <trkpt lat="43.141476" lon="-2.296331">
        <ele>597.579</ele>
        <time>2021-04-06T09:01:35Z</time>
      </trkpt>
      <trkpt lat="43.141501" lon="-2.296295">
        <ele>596.005</ele>
        <time>2021-04-06T09:01:37Z</time>
      </trkpt>
      <trkpt lat="43.141526" lon="-2.296262">
        <ele>594.725</ele>
        <time>2021-04-06T09:01:39Z</time>
      </trkpt>
      <trkpt lat="43.141542" lon="-2.296252">
        <ele>594.308</ele>
        <time>2021-04-06T09:01:40Z</time>
      </trkpt>
      <trkpt lat="43.141554" lon="-2.296237">
        <ele>593.794</ele>
        <time>2021-04-06T09:01:41Z</time>
      </trkpt>
      <trkpt lat="43.141573" lon="-2.296201">
        <ele>592.357</ele>
        <time>2021-04-06T09:01:43Z</time>
      </trkpt>
      <trkpt lat="43.141575" lon="-2.296161">
        <ele>590.948</ele>
        <time>2021-04-06T09:01:45Z</time>
      </trkpt>
      <trkpt lat="43.141585" lon="-2.296127">
        <ele>589.643</ele>
        <time>2021-04-06T09:01:47Z</time>
      </trkpt>
      <trkpt lat="43.141591" lon="-2.296085">
        <ele>588.118</ele>
        <time>2021-04-06T09:01:49Z</time>
      </trkpt>
      <trkpt lat="43.141593" lon="-2.296061">
        <ele>587.286</ele>
        <time>2021-04-06T09:01:51Z</time>
      </trkpt>
      <trkpt lat="43.141581" lon="-2.296027">
        <ele>586.123</ele>
        <time>2021-04-06T09:01:53Z</time>
      </trkpt>
      <trkpt lat="43.141570" lon="-2.296009">
        <ele>585.591</ele>
        <time>2021-04-06T09:01:54Z</time>
      </trkpt>
      <trkpt lat="43.141557" lon="-2.295976">
        <ele>584.355</ele>
        <time>2021-04-06T09:01:56Z</time>
      </trkpt>
      <trkpt lat="43.141545" lon="-2.295937">
        <ele>583.007</ele>
        <time>2021-04-06T09:01:58Z</time>
      </trkpt>
      <trkpt lat="43.141522" lon="-2.295901">
        <ele>581.817</ele>
        <time>2021-04-06T09:02:00Z</time>
      </trkpt>
      <trkpt lat="43.141508" lon="-2.295885">
        <ele>581.308</ele>
        <time>2021-04-06T09:02:01Z</time>
      </trkpt>
      <trkpt lat="43.141495" lon="-2.295871">
        <ele>580.992</ele>
        <time>2021-04-06T09:02:02Z</time>
      </trkpt>
      <trkpt lat="43.141480" lon="-2.295839">
        <ele>579.915</ele>
        <time>2021-04-06T09:02:04Z</time>
      </trkpt>
      <trkpt lat="43.141472" lon="-2.295807">
        <ele>578.886</ele>
        <time>2021-04-06T09:02:06Z</time>
      </trkpt>
      <trkpt lat="43.141481" lon="-2.295772">
        <ele>577.551</ele>
        <time>2021-04-06T09:02:08Z</time>
      </trkpt>
      <trkpt lat="43.141493" lon="-2.295751">
        <ele>576.846</ele>
        <time>2021-04-06T09:02:09Z</time>
      </trkpt>
      <trkpt lat="43.141505" lon="-2.295732">
        <ele>576.194</ele>
        <time>2021-04-06T09:02:10Z</time>
      </trkpt>
      <trkpt lat="43.141520" lon="-2.295716">
        <ele>575.561</ele>
        <time>2021-04-06T09:02:11Z</time>
      </trkpt>
      <trkpt lat="43.141536" lon="-2.295701">
        <ele>575.089</ele>
        <time>2021-04-06T09:02:12Z</time>
      </trkpt>
      <trkpt lat="43.141555" lon="-2.295684">
        <ele>574.342</ele>
        <time>2021-04-06T09:02:13Z</time>
      </trkpt>
      <trkpt lat="43.141572" lon="-2.295669">
        <ele>573.822</ele>
        <time>2021-04-06T09:02:14Z</time>
      </trkpt>
      <trkpt lat="43.141589" lon="-2.295656">
        <ele>573.414</ele>
        <time>2021-04-06T09:02:15Z</time>
      </trkpt>
      <trkpt lat="43.141605" lon="-2.295646">
        <ele>573.008</ele>
        <time>2021-04-06T09:02:16Z</time>
      </trkpt>
      <trkpt lat="43.141624" lon="-2.295622">
        <ele>572.261</ele>
        <time>2021-04-06T09:02:18Z</time>
      </trkpt>
      <trkpt lat="43.141640" lon="-2.295585">
        <ele>571.034</ele>
        <time>2021-04-06T09:02:20Z</time>
      </trkpt>
      <trkpt lat="43.141676" lon="-2.295562">
        <ele>569.975</ele>
        <time>2021-04-06T09:02:23Z</time>
      </trkpt>
      <trkpt lat="43.141700" lon="-2.295570">
        <ele>569.420</ele>
        <time>2021-04-06T09:02:25Z</time>
      </trkpt>
      <trkpt lat="43.141720" lon="-2.295577">
        <ele>568.975</ele>
        <time>2021-04-06T09:02:27Z</time>
      </trkpt>
      <trkpt lat="43.141743" lon="-2.295575">
        <ele>568.133</ele>
        <time>2021-04-06T09:02:29Z</time>
      </trkpt>
      <trkpt lat="43.141761" lon="-2.295560">
        <ele>567.150</ele>
        <time>2021-04-06T09:02:31Z</time>
      </trkpt>
      <trkpt lat="43.141784" lon="-2.295544">
        <ele>565.928</ele>
        <time>2021-04-06T09:02:33Z</time>
      </trkpt>
      <trkpt lat="43.141803" lon="-2.295530">
        <ele>564.843</ele>
        <time>2021-04-06T09:02:35Z</time>
      </trkpt>
      <trkpt lat="43.141831" lon="-2.295519">
        <ele>563.664</ele>
        <time>2021-04-06T09:02:37Z</time>
      </trkpt>
      <trkpt lat="43.141849" lon="-2.295489">
        <ele>562.310</ele>
        <time>2021-04-06T09:02:39Z</time>
      </trkpt>
      <trkpt lat="43.141844" lon="-2.295443">
        <ele>561.108</ele>
        <time>2021-04-06T09:02:42Z</time>
      </trkpt>
      <trkpt lat="43.141858" lon="-2.295420">
        <ele>560.141</ele>
        <time>2021-04-06T09:02:44Z</time>
      </trkpt>
      <trkpt lat="43.141867" lon="-2.295387">
        <ele>558.924</ele>
        <time>2021-04-06T09:02:46Z</time>
      </trkpt>
      <trkpt lat="43.141869" lon="-2.295349">
        <ele>557.875</ele>
        <time>2021-04-06T09:02:48Z</time>
      </trkpt>
      <trkpt lat="43.141862" lon="-2.295328">
        <ele>557.520</ele>
        <time>2021-04-06T09:02:49Z</time>
      </trkpt>
      <trkpt lat="43.141854" lon="-2.295283">
        <ele>556.475</ele>
        <time>2021-04-06T09:02:51Z</time>
      </trkpt>
      <trkpt lat="43.141853" lon="-2.295260">
        <ele>555.813</ele>
        <time>2021-04-06T09:02:52Z</time>
      </trkpt>
      <trkpt lat="43.141841" lon="-2.295218">
        <ele>555.030</ele>
        <time>2021-04-06T09:02:54Z</time>
      </trkpt>
      <trkpt lat="43.141831" lon="-2.295183">
        <ele>554.318</ele>
        <time>2021-04-06T09:02:56Z</time>
      </trkpt>
      <trkpt lat="43.141831" lon="-2.295158">
        <ele>553.795</ele>
        <time>2021-04-06T09:02:58Z</time>
      </trkpt>
      <trkpt lat="43.141827" lon="-2.295143">
        <ele>553.449</ele>
        <time>2021-04-06T09:03:06Z</time>
      </trkpt>
      <trkpt lat="43.141822" lon="-2.295114">
        <ele>552.723</ele>
        <time>2021-04-06T09:03:10Z</time>
      </trkpt>
      <trkpt lat="43.141816" lon="-2.295091">
        <ele>552.208</ele>
        <time>2021-04-06T09:03:12Z</time>
      </trkpt>
      <trkpt lat="43.141815" lon="-2.295066">
        <ele>551.656</ele>
        <time>2021-04-06T09:03:15Z</time>
      </trkpt>
      <trkpt lat="43.141805" lon="-2.295039">
        <ele>551.169</ele>
        <time>2021-04-06T09:03:19Z</time>
      </trkpt>
      <trkpt lat="43.141789" lon="-2.295019">
        <ele>550.980</ele>
        <time>2021-04-06T09:03:22Z</time>
      </trkpt>
      <trkpt lat="43.141787" lon="-2.294995">
        <ele>550.355</ele>
        <time>2021-04-06T09:03:24Z</time>
      </trkpt>
      <trkpt lat="43.141814" lon="-2.294982">
        <ele>549.510</ele>
        <time>2021-04-06T09:03:26Z</time>
      </trkpt>
      <trkpt lat="43.141848" lon="-2.294966">
        <ele>548.528</ele>
        <time>2021-04-06T09:03:28Z</time>
      </trkpt>
      <trkpt lat="43.141878" lon="-2.294935">
        <ele>547.315</ele>
        <time>2021-04-06T09:03:30Z</time>
      </trkpt>
      <trkpt lat="43.141892" lon="-2.294908">
        <ele>546.633</ele>
        <time>2021-04-06T09:03:31Z</time>
      </trkpt>
      <trkpt lat="43.141908" lon="-2.294878">
        <ele>545.959</ele>
        <time>2021-04-06T09:03:32Z</time>
      </trkpt>
      <trkpt lat="43.141925" lon="-2.294848">
        <ele>545.103</ele>
        <time>2021-04-06T09:03:33Z</time>
      </trkpt>
      <trkpt lat="43.141943" lon="-2.294817">
        <ele>544.423</ele>
        <time>2021-04-06T09:03:34Z</time>
      </trkpt>
      <trkpt lat="43.141959" lon="-2.294784">
        <ele>543.408</ele>
        <time>2021-04-06T09:03:35Z</time>
      </trkpt>
      <trkpt lat="43.141974" lon="-2.294749">
        <ele>542.352</ele>
        <time>2021-04-06T09:03:36Z</time>
      </trkpt>
      <trkpt lat="43.141988" lon="-2.294717">
        <ele>541.395</ele>
        <time>2021-04-06T09:03:37Z</time>
      </trkpt>
      <trkpt lat="43.141999" lon="-2.294686">
        <ele>540.336</ele>
        <time>2021-04-06T09:03:38Z</time>
      </trkpt>
      <trkpt lat="43.142006" lon="-2.294651">
        <ele>539.451</ele>
        <time>2021-04-06T09:03:39Z</time>
      </trkpt>
      <trkpt lat="43.142003" lon="-2.294615">
        <ele>538.746</ele>
        <time>2021-04-06T09:03:40Z</time>
      </trkpt>
      <trkpt lat="43.141993" lon="-2.294579">
        <ele>538.364</ele>
        <time>2021-04-06T09:03:41Z</time>
      </trkpt>
      <trkpt lat="43.141978" lon="-2.294543">
        <ele>538.121</ele>
        <time>2021-04-06T09:03:42Z</time>
      </trkpt>
      <trkpt lat="43.141967" lon="-2.294507">
        <ele>537.729</ele>
        <time>2021-04-06T09:03:43Z</time>
      </trkpt>
      <trkpt lat="43.141959" lon="-2.294474">
        <ele>537.271</ele>
        <time>2021-04-06T09:03:44Z</time>
      </trkpt>
      <trkpt lat="43.141953" lon="-2.294441">
        <ele>536.741</ele>
        <time>2021-04-06T09:03:45Z</time>
      </trkpt>
      <trkpt lat="43.141949" lon="-2.294409">
        <ele>536.115</ele>
        <time>2021-04-06T09:03:46Z</time>
      </trkpt>
      <trkpt lat="43.141947" lon="-2.294379">
        <ele>535.508</ele>
        <time>2021-04-06T09:03:47Z</time>
      </trkpt>
      <trkpt lat="43.141950" lon="-2.294352">
        <ele>534.964</ele>
        <time>2021-04-06T09:03:48Z</time>
      </trkpt>
      <trkpt lat="43.141960" lon="-2.294327">
        <ele>534.197</ele>
        <time>2021-04-06T09:03:49Z</time>
      </trkpt>
      <trkpt lat="43.141976" lon="-2.294302">
        <ele>533.168</ele>
        <time>2021-04-06T09:03:50Z</time>
      </trkpt>
      <trkpt lat="43.141991" lon="-2.294274">
        <ele>532.293</ele>
        <time>2021-04-06T09:03:51Z</time>
      </trkpt>
      <trkpt lat="43.142004" lon="-2.294243">
        <ele>531.298</ele>
        <time>2021-04-06T09:03:52Z</time>
      </trkpt>
      <trkpt lat="43.142014" lon="-2.294207">
        <ele>530.366</ele>
        <time>2021-04-06T09:03:53Z</time>
      </trkpt>
      <trkpt lat="43.142023" lon="-2.294169">
        <ele>529.323</ele>
        <time>2021-04-06T09:03:54Z</time>
      </trkpt>
      <trkpt lat="43.142033" lon="-2.294129">
        <ele>528.591</ele>
        <time>2021-04-06T09:03:55Z</time>
      </trkpt>
      <trkpt lat="43.142040" lon="-2.294089">
        <ele>527.713</ele>
        <time>2021-04-06T09:03:56Z</time>
      </trkpt>
      <trkpt lat="43.142049" lon="-2.294051">
        <ele>526.943</ele>
        <time>2021-04-06T09:03:57Z</time>
      </trkpt>
      <trkpt lat="43.142058" lon="-2.294010">
        <ele>526.107</ele>
        <time>2021-04-06T09:03:58Z</time>
      </trkpt>
      <trkpt lat="43.142063" lon="-2.293972">
        <ele>525.308</ele>
        <time>2021-04-06T09:03:59Z</time>
      </trkpt>
      <trkpt lat="43.142067" lon="-2.293933">
        <ele>524.648</ele>
        <time>2021-04-06T09:04:00Z</time>
      </trkpt>
      <trkpt lat="43.142072" lon="-2.293892">
        <ele>523.851</ele>
        <time>2021-04-06T09:04:01Z</time>
      </trkpt>
      <trkpt lat="43.142080" lon="-2.293853">
        <ele>523.052</ele>
        <time>2021-04-06T09:04:02Z</time>
      </trkpt>
      <trkpt lat="43.142090" lon="-2.293815">
        <ele>522.177</ele>
        <time>2021-04-06T09:04:03Z</time>
      </trkpt>
      <trkpt lat="43.142099" lon="-2.293775">
        <ele>521.332</ele>
        <time>2021-04-06T09:04:04Z</time>
      </trkpt>
      <trkpt lat="43.142108" lon="-2.293738">
        <ele>520.550</ele>
        <time>2021-04-06T09:04:05Z</time>
      </trkpt>
      <trkpt lat="43.142115" lon="-2.293700">
        <ele>519.747</ele>
        <time>2021-04-06T09:04:06Z</time>
      </trkpt>
      <trkpt lat="43.142122" lon="-2.293663">
        <ele>519.035</ele>
        <time>2021-04-06T09:04:07Z</time>
      </trkpt>
      <trkpt lat="43.142130" lon="-2.293627">
        <ele>518.269</ele>
        <time>2021-04-06T09:04:08Z</time>
      </trkpt>
      <trkpt lat="43.142139" lon="-2.293593">
        <ele>517.504</ele>
        <time>2021-04-06T09:04:09Z</time>
      </trkpt>
      <trkpt lat="43.142147" lon="-2.293561">
        <ele>516.924</ele>
        <time>2021-04-06T09:04:10Z</time>
      </trkpt>
      <trkpt lat="43.142151" lon="-2.293527">
        <ele>516.308</ele>
        <time>2021-04-06T09:04:11Z</time>
      </trkpt>
      <trkpt lat="43.142154" lon="-2.293494">
        <ele>515.873</ele>
        <time>2021-04-06T09:04:12Z</time>
      </trkpt>
      <trkpt lat="43.142159" lon="-2.293463">
        <ele>515.286</ele>
        <time>2021-04-06T09:04:13Z</time>
      </trkpt>
      <trkpt lat="43.142164" lon="-2.293431">
        <ele>514.787</ele>
        <time>2021-04-06T09:04:14Z</time>
      </trkpt>
      <trkpt lat="43.142171" lon="-2.293400">
        <ele>514.192</ele>
        <time>2021-04-06T09:04:15Z</time>
      </trkpt>
      <trkpt lat="43.142178" lon="-2.293370">
        <ele>513.567</ele>
        <time>2021-04-06T09:04:16Z</time>
      </trkpt>
      <trkpt lat="43.142185" lon="-2.293339">
        <ele>512.955</ele>
        <time>2021-04-06T09:04:17Z</time>
      </trkpt>
      <trkpt lat="43.142191" lon="-2.293305">
        <ele>512.382</ele>
        <time>2021-04-06T09:04:18Z</time>
      </trkpt>
      <trkpt lat="43.142193" lon="-2.293269">
        <ele>511.720</ele>
        <time>2021-04-06T09:04:19Z</time>
      </trkpt>
      <trkpt lat="43.142195" lon="-2.293235">
        <ele>511.251</ele>
        <time>2021-04-06T09:04:20Z</time>
      </trkpt>
      <trkpt lat="43.142197" lon="-2.293200">
        <ele>510.601</ele>
        <time>2021-04-06T09:04:21Z</time>
      </trkpt>
      <trkpt lat="43.142200" lon="-2.293167">
        <ele>510.111</ele>
        <time>2021-04-06T09:04:22Z</time>
      </trkpt>
      <trkpt lat="43.142205" lon="-2.293136">
        <ele>509.508</ele>
        <time>2021-04-06T09:04:23Z</time>
      </trkpt>
      <trkpt lat="43.142215" lon="-2.293104">
        <ele>508.962</ele>
        <time>2021-04-06T09:04:24Z</time>
      </trkpt>
      <trkpt lat="43.142226" lon="-2.293073">
        <ele>508.235</ele>
        <time>2021-04-06T09:04:25Z</time>
      </trkpt>
      <trkpt lat="43.142241" lon="-2.293044">
        <ele>507.536</ele>
        <time>2021-04-06T09:04:26Z</time>
      </trkpt>
      <trkpt lat="43.142257" lon="-2.293019">
        <ele>506.991</ele>
        <time>2021-04-06T09:04:27Z</time>
      </trkpt>
      <trkpt lat="43.142272" lon="-2.292994">
        <ele>506.356</ele>
        <time>2021-04-06T09:04:28Z</time>
      </trkpt>
      <trkpt lat="43.142285" lon="-2.292969">
        <ele>505.854</ele>
        <time>2021-04-06T09:04:29Z</time>
      </trkpt>
      <trkpt lat="43.142300" lon="-2.292945">
        <ele>505.261</ele>
        <time>2021-04-06T09:04:30Z</time>
      </trkpt>
      <trkpt lat="43.142316" lon="-2.292922">
        <ele>504.799</ele>
        <time>2021-04-06T09:04:31Z</time>
      </trkpt>
      <trkpt lat="43.142337" lon="-2.292901">
        <ele>504.184</ele>
        <time>2021-04-06T09:04:32Z</time>
      </trkpt>
      <trkpt lat="43.142359" lon="-2.292879">
        <ele>503.507</ele>
        <time>2021-04-06T09:04:33Z</time>
      </trkpt>
      <trkpt lat="43.142379" lon="-2.292858">
        <ele>502.917</ele>
        <time>2021-04-06T09:04:34Z</time>
      </trkpt>
      <trkpt lat="43.142397" lon="-2.292836">
        <ele>502.408</ele>
        <time>2021-04-06T09:04:35Z</time>
      </trkpt>
      <trkpt lat="43.142414" lon="-2.292813">
        <ele>501.835</ele>
        <time>2021-04-06T09:04:36Z</time>
      </trkpt>
      <trkpt lat="43.142425" lon="-2.292788">
        <ele>501.428</ele>
        <time>2021-04-06T09:04:37Z</time>
      </trkpt>
      <trkpt lat="43.142439" lon="-2.292761">
        <ele>501.029</ele>
        <time>2021-04-06T09:04:38Z</time>
      </trkpt>
      <trkpt lat="43.142453" lon="-2.292733">
        <ele>500.574</ele>
        <time>2021-04-06T09:04:39Z</time>
      </trkpt>
      <trkpt lat="43.142467" lon="-2.292706">
        <ele>500.099</ele>
        <time>2021-04-06T09:04:40Z</time>
      </trkpt>
      <trkpt lat="43.142479" lon="-2.292679">
        <ele>499.617</ele>
        <time>2021-04-06T09:04:41Z</time>
      </trkpt>
      <trkpt lat="43.142501" lon="-2.292659">
        <ele>499.134</ele>
        <time>2021-04-06T09:04:42Z</time>
      </trkpt>
      <trkpt lat="43.142521" lon="-2.292644">
        <ele>498.552</ele>
        <time>2021-04-06T09:04:43Z</time>
      </trkpt>
      <trkpt lat="43.142541" lon="-2.292626">
        <ele>498.083</ele>
        <time>2021-04-06T09:04:44Z</time>
      </trkpt>
      <trkpt lat="43.142554" lon="-2.292606">
        <ele>497.525</ele>
        <time>2021-04-06T09:04:45Z</time>
      </trkpt>
      <trkpt lat="43.142571" lon="-2.292576">
        <ele>496.917</ele>
        <time>2021-04-06T09:04:47Z</time>
      </trkpt>
      <trkpt lat="43.142584" lon="-2.292541">
        <ele>496.408</ele>
        <time>2021-04-06T09:04:49Z</time>
      </trkpt>
      <trkpt lat="43.142594" lon="-2.292519">
        <ele>496.165</ele>
        <time>2021-04-06T09:04:51Z</time>
      </trkpt>
      <trkpt lat="43.142592" lon="-2.292499">
        <ele>496.058</ele>
        <time>2021-04-06T09:04:58Z</time>
      </trkpt>
      <trkpt lat="43.142609" lon="-2.292475">
        <ele>495.469</ele>
        <time>2021-04-06T09:05:04Z</time>
      </trkpt>
      <trkpt lat="43.142627" lon="-2.292441">
        <ele>494.694</ele>
        <time>2021-04-06T09:05:06Z</time>
      </trkpt>
      <trkpt lat="43.142627" lon="-2.292415">
        <ele>494.389</ele>
        <time>2021-04-06T09:05:07Z</time>
      </trkpt>
      <trkpt lat="43.142628" lon="-2.292391">
        <ele>494.037</ele>
        <time>2021-04-06T09:05:08Z</time>
      </trkpt>
      <trkpt lat="43.142629" lon="-2.292345">
        <ele>493.564</ele>
        <time>2021-04-06T09:05:10Z</time>
      </trkpt>
      <trkpt lat="43.142630" lon="-2.292319">
        <ele>493.252</ele>
        <time>2021-04-06T09:05:12Z</time>
      </trkpt>
      <trkpt lat="43.142626" lon="-2.292288">
        <ele>492.913</ele>
        <time>2021-04-06T09:05:14Z</time>
      </trkpt>
      <trkpt lat="43.142614" lon="-2.292248">
        <ele>492.743</ele>
        <time>2021-04-06T09:05:15Z</time>
      </trkpt>
      <trkpt lat="43.142602" lon="-2.292201">
        <ele>492.307</ele>
        <time>2021-04-06T09:05:16Z</time>
      </trkpt>
      <trkpt lat="43.142589" lon="-2.292157">
        <ele>492.108</ele>
        <time>2021-04-06T09:05:17Z</time>
      </trkpt>
      <trkpt lat="43.142574" lon="-2.292115">
        <ele>491.948</ele>
        <time>2021-04-06T09:05:18Z</time>
      </trkpt>
      <trkpt lat="43.142556" lon="-2.292075">
        <ele>491.731</ele>
        <time>2021-04-06T09:05:19Z</time>
      </trkpt>
      <trkpt lat="43.142539" lon="-2.292035">
        <ele>491.532</ele>
        <time>2021-04-06T09:05:20Z</time>
      </trkpt>
      <trkpt lat="43.142525" lon="-2.291991">
        <ele>491.237</ele>
        <time>2021-04-06T09:05:21Z</time>
      </trkpt>
      <trkpt lat="43.142508" lon="-2.291945">
        <ele>490.922</ele>
        <time>2021-04-06T09:05:22Z</time>
      </trkpt>
      <trkpt lat="43.142494" lon="-2.291896">
        <ele>490.350</ele>
        <time>2021-04-06T09:05:23Z</time>
      </trkpt>
      <trkpt lat="43.142486" lon="-2.291851">
        <ele>489.627</ele>
        <time>2021-04-06T09:05:24Z</time>
      </trkpt>
      <trkpt lat="43.142486" lon="-2.291808">
        <ele>489.085</ele>
        <time>2021-04-06T09:05:25Z</time>
      </trkpt>
      <trkpt lat="43.142495" lon="-2.291771">
        <ele>488.538</ele>
        <time>2021-04-06T09:05:26Z</time>
      </trkpt>
      <trkpt lat="43.142518" lon="-2.291745">
        <ele>488.070</ele>
        <time>2021-04-06T09:05:27Z</time>
      </trkpt>
      <trkpt lat="43.142541" lon="-2.291715">
        <ele>487.417</ele>
        <time>2021-04-06T09:05:28Z</time>
      </trkpt>
      <trkpt lat="43.142561" lon="-2.291682">
        <ele>486.808</ele>
        <time>2021-04-06T09:05:29Z</time>
      </trkpt>
      <trkpt lat="43.142587" lon="-2.291653">
        <ele>486.230</ele>
        <time>2021-04-06T09:05:30Z</time>
      </trkpt>
      <trkpt lat="43.142610" lon="-2.291620">
        <ele>485.553</ele>
        <time>2021-04-06T09:05:31Z</time>
      </trkpt>
      <trkpt lat="43.142632" lon="-2.291586">
        <ele>484.944</ele>
        <time>2021-04-06T09:05:32Z</time>
      </trkpt>
      <trkpt lat="43.142660" lon="-2.291557">
        <ele>484.379</ele>
        <time>2021-04-06T09:05:33Z</time>
      </trkpt>
      <trkpt lat="43.142687" lon="-2.291524">
        <ele>483.634</ele>
        <time>2021-04-06T09:05:34Z</time>
      </trkpt>
      <trkpt lat="43.142715" lon="-2.291492">
        <ele>482.912</ele>
        <time>2021-04-06T09:05:35Z</time>
      </trkpt>
      <trkpt lat="43.142750" lon="-2.291463">
        <ele>482.359</ele>
        <time>2021-04-06T09:05:36Z</time>
      </trkpt>
      <trkpt lat="43.142783" lon="-2.291433">
        <ele>481.617</ele>
        <time>2021-04-06T09:05:37Z</time>
      </trkpt>
      <trkpt lat="43.142816" lon="-2.291401">
        <ele>480.957</ele>
        <time>2021-04-06T09:05:38Z</time>
      </trkpt>
      <trkpt lat="43.142849" lon="-2.291367">
        <ele>480.300</ele>
        <time>2021-04-06T09:05:39Z</time>
      </trkpt>
      <trkpt lat="43.142879" lon="-2.291338">
        <ele>479.920</ele>
        <time>2021-04-06T09:05:40Z</time>
      </trkpt>
      <trkpt lat="43.142912" lon="-2.291310">
        <ele>479.508</ele>
        <time>2021-04-06T09:05:41Z</time>
      </trkpt>
      <trkpt lat="43.142943" lon="-2.291280">
        <ele>479.182</ele>
        <time>2021-04-06T09:05:42Z</time>
      </trkpt>
      <trkpt lat="43.142974" lon="-2.291249">
        <ele>478.885</ele>
        <time>2021-04-06T09:05:43Z</time>
      </trkpt>
      <trkpt lat="43.143005" lon="-2.291218">
        <ele>478.526</ele>
        <time>2021-04-06T09:05:44Z</time>
      </trkpt>
      <trkpt lat="43.143036" lon="-2.291188">
        <ele>478.321</ele>
        <time>2021-04-06T09:05:45Z</time>
      </trkpt>
      <trkpt lat="43.143063" lon="-2.291161">
        <ele>478.116</ele>
        <time>2021-04-06T09:05:46Z</time>
      </trkpt>
      <trkpt lat="43.143088" lon="-2.291134">
        <ele>477.874</ele>
        <time>2021-04-06T09:05:47Z</time>
      </trkpt>
      <trkpt lat="43.143111" lon="-2.291106">
        <ele>477.651</ele>
        <time>2021-04-06T09:05:48Z</time>
      </trkpt>
      <trkpt lat="43.143139" lon="-2.291074">
        <ele>477.489</ele>
        <time>2021-04-06T09:05:49Z</time>
      </trkpt>
      <trkpt lat="43.143165" lon="-2.291045">
        <ele>477.393</ele>
        <time>2021-04-06T09:05:50Z</time>
      </trkpt>
      <trkpt lat="43.143190" lon="-2.291015">
        <ele>477.265</ele>
        <time>2021-04-06T09:05:51Z</time>
      </trkpt>
      <trkpt lat="43.143215" lon="-2.290987">
        <ele>477.221</ele>
        <time>2021-04-06T09:05:52Z</time>
      </trkpt>
      <trkpt lat="43.143242" lon="-2.290958">
        <ele>477.208</ele>
        <time>2021-04-06T09:05:53Z</time>
      </trkpt>
      <trkpt lat="43.143270" lon="-2.290933">
        <ele>477.326</ele>
        <time>2021-04-06T09:05:54Z</time>
      </trkpt>
      <trkpt lat="43.143296" lon="-2.290906">
        <ele>477.429</ele>
        <time>2021-04-06T09:05:55Z</time>
      </trkpt>
      <trkpt lat="43.143319" lon="-2.290885">
        <ele>477.670</ele>
        <time>2021-04-06T09:05:56Z</time>
      </trkpt>
      <trkpt lat="43.143340" lon="-2.290858">
        <ele>477.735</ele>
        <time>2021-04-06T09:05:57Z</time>
      </trkpt>
      <trkpt lat="43.143362" lon="-2.290835">
        <ele>477.610</ele>
        <time>2021-04-06T09:05:58Z</time>
      </trkpt>
      <trkpt lat="43.143384" lon="-2.290814">
        <ele>477.458</ele>
        <time>2021-04-06T09:05:59Z</time>
      </trkpt>
      <trkpt lat="43.143408" lon="-2.290791">
        <ele>477.235</ele>
        <time>2021-04-06T09:06:00Z</time>
      </trkpt>
      <trkpt lat="43.143432" lon="-2.290772">
        <ele>477.043</ele>
        <time>2021-04-06T09:06:01Z</time>
      </trkpt>
      <trkpt lat="43.143455" lon="-2.290754">
        <ele>476.835</ele>
        <time>2021-04-06T09:06:02Z</time>
      </trkpt>
      <trkpt lat="43.143477" lon="-2.290735">
        <ele>476.786</ele>
        <time>2021-04-06T09:06:03Z</time>
      </trkpt>
      <trkpt lat="43.143499" lon="-2.290717">
        <ele>476.514</ele>
        <time>2021-04-06T09:06:04Z</time>
      </trkpt>
      <trkpt lat="43.143526" lon="-2.290700">
        <ele>476.408</ele>
        <time>2021-04-06T09:06:05Z</time>
      </trkpt>
      <trkpt lat="43.143552" lon="-2.290685">
        <ele>476.220</ele>
        <time>2021-04-06T09:06:06Z</time>
      </trkpt>
      <trkpt lat="43.143577" lon="-2.290671">
        <ele>476.133</ele>
        <time>2021-04-06T09:06:07Z</time>
      </trkpt>
      <trkpt lat="43.143597" lon="-2.290658">
        <ele>476.054</ele>
        <time>2021-04-06T09:06:08Z</time>
      </trkpt>
      <trkpt lat="43.143624" lon="-2.290651">
        <ele>475.659</ele>
        <time>2021-04-06T09:06:09Z</time>
      </trkpt>
      <trkpt lat="43.143649" lon="-2.290638">
        <ele>474.984</ele>
        <time>2021-04-06T09:06:10Z</time>
      </trkpt>
      <trkpt lat="43.143676" lon="-2.290620">
        <ele>474.322</ele>
        <time>2021-04-06T09:06:11Z</time>
      </trkpt>
      <trkpt lat="43.143704" lon="-2.290600">
        <ele>473.799</ele>
        <time>2021-04-06T09:06:12Z</time>
      </trkpt>
      <trkpt lat="43.143732" lon="-2.290577">
        <ele>473.267</ele>
        <time>2021-04-06T09:06:13Z</time>
      </trkpt>
      <trkpt lat="43.143755" lon="-2.290550">
        <ele>472.958</ele>
        <time>2021-04-06T09:06:14Z</time>
      </trkpt>
      <trkpt lat="43.143779" lon="-2.290519">
        <ele>472.552</ele>
        <time>2021-04-06T09:06:15Z</time>
      </trkpt>
      <trkpt lat="43.143803" lon="-2.290490">
        <ele>472.017</ele>
        <time>2021-04-06T09:06:16Z</time>
      </trkpt>
      <trkpt lat="43.143825" lon="-2.290457">
        <ele>471.708</ele>
        <time>2021-04-06T09:06:17Z</time>
      </trkpt>
      <trkpt lat="43.143841" lon="-2.290423">
        <ele>471.672</ele>
        <time>2021-04-06T09:06:18Z</time>
      </trkpt>
      <trkpt lat="43.143853" lon="-2.290384">
        <ele>471.765</ele>
        <time>2021-04-06T09:06:19Z</time>
      </trkpt>
      <trkpt lat="43.143859" lon="-2.290347">
        <ele>472.086</ele>
        <time>2021-04-06T09:06:20Z</time>
      </trkpt>
      <trkpt lat="43.143869" lon="-2.290310">
        <ele>472.181</ele>
        <time>2021-04-06T09:06:21Z</time>
      </trkpt>
      <trkpt lat="43.143879" lon="-2.290278">
        <ele>472.266</ele>
        <time>2021-04-06T09:06:22Z</time>
      </trkpt>
      <trkpt lat="43.143895" lon="-2.290242">
        <ele>471.744</ele>
        <time>2021-04-06T09:06:23Z</time>
      </trkpt>
      <trkpt lat="43.143912" lon="-2.290203">
        <ele>471.041</ele>
        <time>2021-04-06T09:06:24Z</time>
      </trkpt>
      <trkpt lat="43.143926" lon="-2.290154">
        <ele>470.549</ele>
        <time>2021-04-06T09:06:25Z</time>
      </trkpt>
      <trkpt lat="43.143932" lon="-2.290109">
        <ele>470.422</ele>
        <time>2021-04-06T09:06:26Z</time>
      </trkpt>
      <trkpt lat="43.143934" lon="-2.290059">
        <ele>470.462</ele>
        <time>2021-04-06T09:06:27Z</time>
      </trkpt>
      <trkpt lat="43.143937" lon="-2.290010">
        <ele>470.408</ele>
        <time>2021-04-06T09:06:28Z</time>
      </trkpt>
      <trkpt lat="43.143934" lon="-2.289958">
        <ele>470.408</ele>
        <time>2021-04-06T09:06:29Z</time>
      </trkpt>
      <trkpt lat="43.143924" lon="-2.289909">
        <ele>470.439</ele>
        <time>2021-04-06T09:06:30Z</time>
      </trkpt>
      <trkpt lat="43.143903" lon="-2.289862">
        <ele>470.752</ele>
        <time>2021-04-06T09:06:31Z</time>
      </trkpt>
      <trkpt lat="43.143881" lon="-2.289822">
        <ele>470.883</ele>
        <time>2021-04-06T09:06:32Z</time>
      </trkpt>
      <trkpt lat="43.143857" lon="-2.289786">
        <ele>470.758</ele>
        <time>2021-04-06T09:06:33Z</time>
      </trkpt>
      <trkpt lat="43.143832" lon="-2.289751">
        <ele>470.793</ele>
        <time>2021-04-06T09:06:34Z</time>
      </trkpt>
      <trkpt lat="43.143805" lon="-2.289716">
        <ele>470.521</ele>
        <time>2021-04-06T09:06:35Z</time>
      </trkpt>
      <trkpt lat="43.143780" lon="-2.289682">
        <ele>470.378</ele>
        <time>2021-04-06T09:06:36Z</time>
      </trkpt>
      <trkpt lat="43.143757" lon="-2.289648">
        <ele>470.076</ele>
        <time>2021-04-06T09:06:37Z</time>
      </trkpt>
      <trkpt lat="43.143733" lon="-2.289613">
        <ele>469.755</ele>
        <time>2021-04-06T09:06:38Z</time>
      </trkpt>
      <trkpt lat="43.143713" lon="-2.289578">
        <ele>469.207</ele>
        <time>2021-04-06T09:06:39Z</time>
      </trkpt>
      <trkpt lat="43.143698" lon="-2.289536">
        <ele>468.717</ele>
        <time>2021-04-06T09:06:40Z</time>
      </trkpt>
      <trkpt lat="43.143688" lon="-2.289498">
        <ele>468.108</ele>
        <time>2021-04-06T09:06:41Z</time>
      </trkpt>
      <trkpt lat="43.143687" lon="-2.289462">
        <ele>467.522</ele>
        <time>2021-04-06T09:06:42Z</time>
      </trkpt>
      <trkpt lat="43.143694" lon="-2.289430">
        <ele>466.985</ele>
        <time>2021-04-06T09:06:43Z</time>
      </trkpt>
      <trkpt lat="43.143712" lon="-2.289405">
        <ele>466.466</ele>
        <time>2021-04-06T09:06:44Z</time>
      </trkpt>
      <trkpt lat="43.143740" lon="-2.289377">
        <ele>465.941</ele>
        <time>2021-04-06T09:06:45Z</time>
      </trkpt>
      <trkpt lat="43.143767" lon="-2.289354">
        <ele>465.546</ele>
        <time>2021-04-06T09:06:46Z</time>
      </trkpt>
      <trkpt lat="43.143792" lon="-2.289332">
        <ele>465.144</ele>
        <time>2021-04-06T09:06:47Z</time>
      </trkpt>
      <trkpt lat="43.143822" lon="-2.289307">
        <ele>464.761</ele>
        <time>2021-04-06T09:06:48Z</time>
      </trkpt>
      <trkpt lat="43.143851" lon="-2.289283">
        <ele>464.359</ele>
        <time>2021-04-06T09:06:49Z</time>
      </trkpt>
      <trkpt lat="43.143878" lon="-2.289260">
        <ele>464.029</ele>
        <time>2021-04-06T09:06:50Z</time>
      </trkpt>
      <trkpt lat="43.143904" lon="-2.289236">
        <ele>463.500</ele>
        <time>2021-04-06T09:06:51Z</time>
      </trkpt>
      <trkpt lat="43.143929" lon="-2.289208">
        <ele>463.020</ele>
        <time>2021-04-06T09:06:52Z</time>
      </trkpt>
      <trkpt lat="43.143957" lon="-2.289185">
        <ele>462.608</ele>
        <time>2021-04-06T09:06:53Z</time>
      </trkpt>
      <trkpt lat="43.143983" lon="-2.289158">
        <ele>462.129</ele>
        <time>2021-04-06T09:06:54Z</time>
      </trkpt>
      <trkpt lat="43.144013" lon="-2.289128">
        <ele>461.592</ele>
        <time>2021-04-06T09:06:55Z</time>
      </trkpt>
      <trkpt lat="43.144042" lon="-2.289101">
        <ele>461.023</ele>
        <time>2021-04-06T09:06:56Z</time>
      </trkpt>
      <trkpt lat="43.144072" lon="-2.289071">
        <ele>460.518</ele>
        <time>2021-04-06T09:06:57Z</time>
      </trkpt>
      <trkpt lat="43.144103" lon="-2.289041">
        <ele>460.023</ele>
        <time>2021-04-06T09:06:58Z</time>
      </trkpt>
      <trkpt lat="43.144133" lon="-2.289011">
        <ele>459.481</ele>
        <time>2021-04-06T09:06:59Z</time>
      </trkpt>
      <trkpt lat="43.144165" lon="-2.288976">
        <ele>458.988</ele>
        <time>2021-04-06T09:07:00Z</time>
      </trkpt>
      <trkpt lat="43.144194" lon="-2.288944">
        <ele>458.166</ele>
        <time>2021-04-06T09:07:01Z</time>
      </trkpt>
      <trkpt lat="43.144225" lon="-2.288916">
        <ele>457.444</ele>
        <time>2021-04-06T09:07:02Z</time>
      </trkpt>
      <trkpt lat="43.144253" lon="-2.288887">
        <ele>456.705</ele>
        <time>2021-04-06T09:07:03Z</time>
      </trkpt>
      <trkpt lat="43.144280" lon="-2.288857">
        <ele>456.115</ele>
        <time>2021-04-06T09:07:04Z</time>
      </trkpt>
      <trkpt lat="43.144306" lon="-2.288825">
        <ele>455.608</ele>
        <time>2021-04-06T09:07:05Z</time>
      </trkpt>
      <trkpt lat="43.144331" lon="-2.288793">
        <ele>455.151</ele>
        <time>2021-04-06T09:07:06Z</time>
      </trkpt>
      <trkpt lat="43.144383" lon="-2.288731">
        <ele>454.354</ele>
        <time>2021-04-06T09:07:08Z</time>
      </trkpt>
      <trkpt lat="43.144402" lon="-2.288693">
        <ele>453.855</ele>
        <time>2021-04-06T09:07:09Z</time>
      </trkpt>
      <trkpt lat="43.144420" lon="-2.288655">
        <ele>453.440</ele>
        <time>2021-04-06T09:07:10Z</time>
      </trkpt>
      <trkpt lat="43.144441" lon="-2.288614">
        <ele>453.085</ele>
        <time>2021-04-06T09:07:11Z</time>
      </trkpt>
      <trkpt lat="43.144460" lon="-2.288576">
        <ele>452.793</ele>
        <time>2021-04-06T09:07:12Z</time>
      </trkpt>
      <trkpt lat="43.144475" lon="-2.288539">
        <ele>452.430</ele>
        <time>2021-04-06T09:07:13Z</time>
      </trkpt>
      <trkpt lat="43.144487" lon="-2.288498">
        <ele>452.218</ele>
        <time>2021-04-06T09:07:14Z</time>
      </trkpt>
      <trkpt lat="43.144498" lon="-2.288456">
        <ele>451.968</ele>
        <time>2021-04-06T09:07:15Z</time>
      </trkpt>
      <trkpt lat="43.144510" lon="-2.288412">
        <ele>451.742</ele>
        <time>2021-04-06T09:07:16Z</time>
      </trkpt>
      <trkpt lat="43.144521" lon="-2.288371">
        <ele>451.526</ele>
        <time>2021-04-06T09:07:17Z</time>
      </trkpt>
      <trkpt lat="43.144532" lon="-2.288328">
        <ele>451.308</ele>
        <time>2021-04-06T09:07:18Z</time>
      </trkpt>
      <trkpt lat="43.144541" lon="-2.288285">
        <ele>451.413</ele>
        <time>2021-04-06T09:07:19Z</time>
      </trkpt>
      <trkpt lat="43.144550" lon="-2.288243">
        <ele>451.526</ele>
        <time>2021-04-06T09:07:20Z</time>
      </trkpt>
      <trkpt lat="43.144561" lon="-2.288202">
        <ele>451.617</ele>
        <time>2021-04-06T09:07:21Z</time>
      </trkpt>
      <trkpt lat="43.144570" lon="-2.288159">
        <ele>451.772</ele>
        <time>2021-04-06T09:07:22Z</time>
      </trkpt>
      <trkpt lat="43.144577" lon="-2.288120">
        <ele>451.897</ele>
        <time>2021-04-06T09:07:23Z</time>
      </trkpt>
      <trkpt lat="43.144588" lon="-2.288081">
        <ele>452.085</ele>
        <time>2021-04-06T09:07:24Z</time>
      </trkpt>
      <trkpt lat="43.144599" lon="-2.288041">
        <ele>452.132</ele>
        <time>2021-04-06T09:07:25Z</time>
      </trkpt>
      <trkpt lat="43.144606" lon="-2.288006">
        <ele>452.340</ele>
        <time>2021-04-06T09:07:26Z</time>
      </trkpt>
      <trkpt lat="43.144617" lon="-2.287972">
        <ele>452.562</ele>
        <time>2021-04-06T09:07:27Z</time>
      </trkpt>
      <trkpt lat="43.144627" lon="-2.287948">
        <ele>452.783</ele>
        <time>2021-04-06T09:07:28Z</time>
      </trkpt>
      <trkpt lat="43.144635" lon="-2.287928">
        <ele>452.911</ele>
        <time>2021-04-06T09:07:29Z</time>
      </trkpt>
      <trkpt lat="43.144647" lon="-2.287888">
        <ele>453.208</ele>
        <time>2021-04-06T09:07:31Z</time>
      </trkpt>
      <trkpt lat="43.144657" lon="-2.287850">
        <ele>453.533</ele>
        <time>2021-04-06T09:07:33Z</time>
      </trkpt>
      <trkpt lat="43.144670" lon="-2.287813">
        <ele>453.986</ele>
        <time>2021-04-06T09:07:35Z</time>
      </trkpt>
      <trkpt lat="43.144683" lon="-2.287779">
        <ele>454.317</ele>
        <time>2021-04-06T09:07:37Z</time>
      </trkpt>
      <trkpt lat="43.144697" lon="-2.287747">
        <ele>454.722</ele>
        <time>2021-04-06T09:07:39Z</time>
      </trkpt>
      <trkpt lat="43.144708" lon="-2.287710">
        <ele>455.257</ele>
        <time>2021-04-06T09:07:41Z</time>
      </trkpt>
      <trkpt lat="43.144719" lon="-2.287676">
        <ele>455.725</ele>
        <time>2021-04-06T09:07:43Z</time>
      </trkpt>
      <trkpt lat="43.144729" lon="-2.287640">
        <ele>456.012</ele>
        <time>2021-04-06T09:07:45Z</time>
      </trkpt>
      <trkpt lat="43.144738" lon="-2.287607">
        <ele>456.320</ele>
        <time>2021-04-06T09:07:47Z</time>
      </trkpt>
      <trkpt lat="43.144745" lon="-2.287573">
        <ele>456.612</ele>
        <time>2021-04-06T09:07:49Z</time>
      </trkpt>
      <trkpt lat="43.144751" lon="-2.287538">
        <ele>456.832</ele>
        <time>2021-04-06T09:07:51Z</time>
      </trkpt>
      <trkpt lat="43.144760" lon="-2.287508">
        <ele>457.105</ele>
        <time>2021-04-06T09:07:53Z</time>
      </trkpt>
      <trkpt lat="43.144772" lon="-2.287477">
        <ele>457.308</ele>
        <time>2021-04-06T09:07:55Z</time>
      </trkpt>
      <trkpt lat="43.144781" lon="-2.287446">
        <ele>457.438</ele>
        <time>2021-04-06T09:07:57Z</time>
      </trkpt>
      <trkpt lat="43.144789" lon="-2.287413">
        <ele>457.681</ele>
        <time>2021-04-06T09:07:59Z</time>
      </trkpt>
      <trkpt lat="43.144798" lon="-2.287381">
        <ele>457.762</ele>
        <time>2021-04-06T09:08:01Z</time>
      </trkpt>
      <trkpt lat="43.144808" lon="-2.287350">
        <ele>457.897</ele>
        <time>2021-04-06T09:08:03Z</time>
      </trkpt>
      <trkpt lat="43.144816" lon="-2.287318">
        <ele>458.022</ele>
        <time>2021-04-06T09:08:05Z</time>
      </trkpt>
      <trkpt lat="43.144824" lon="-2.287290">
        <ele>458.120</ele>
        <time>2021-04-06T09:08:07Z</time>
      </trkpt>
      <trkpt lat="43.144829" lon="-2.287258">
        <ele>458.387</ele>
        <time>2021-04-06T09:08:09Z</time>
      </trkpt>
      <trkpt lat="43.144835" lon="-2.287227">
        <ele>458.465</ele>
        <time>2021-04-06T09:08:11Z</time>
      </trkpt>
      <trkpt lat="43.144843" lon="-2.287201">
        <ele>458.415</ele>
        <time>2021-04-06T09:08:13Z</time>
      </trkpt>
      <trkpt lat="43.144856" lon="-2.287171">
        <ele>458.465</ele>
        <time>2021-04-06T09:08:15Z</time>
      </trkpt>
      <trkpt lat="43.144872" lon="-2.287141">
        <ele>458.311</ele>
        <time>2021-04-06T09:08:17Z</time>
      </trkpt>
      <trkpt lat="43.144899" lon="-2.287143">
        <ele>458.308</ele>
        <time>2021-04-06T09:08:20Z</time>
      </trkpt>
      <trkpt lat="43.144916" lon="-2.287167">
        <ele>458.478</ele>
        <time>2021-04-06T09:08:22Z</time>
      </trkpt>
      <trkpt lat="43.144929" lon="-2.287207">
        <ele>458.611</ele>
        <time>2021-04-06T09:08:24Z</time>
      </trkpt>
      <trkpt lat="43.144943" lon="-2.287245">
        <ele>458.772</ele>
        <time>2021-04-06T09:08:26Z</time>
      </trkpt>
      <trkpt lat="43.144956" lon="-2.287284">
        <ele>458.667</ele>
        <time>2021-04-06T09:08:28Z</time>
      </trkpt>
      <trkpt lat="43.144970" lon="-2.287323">
        <ele>458.542</ele>
        <time>2021-04-06T09:08:30Z</time>
      </trkpt>
      <trkpt lat="43.144985" lon="-2.287361">
        <ele>458.460</ele>
        <time>2021-04-06T09:08:32Z</time>
      </trkpt>
      <trkpt lat="43.144997" lon="-2.287398">
        <ele>458.447</ele>
        <time>2021-04-06T09:08:34Z</time>
      </trkpt>
      <trkpt lat="43.145011" lon="-2.287432">
        <ele>458.285</ele>
        <time>2021-04-06T09:08:36Z</time>
      </trkpt>
      <trkpt lat="43.145020" lon="-2.287469">
        <ele>458.167</ele>
        <time>2021-04-06T09:08:38Z</time>
      </trkpt>
      <trkpt lat="43.145034" lon="-2.287503">
        <ele>458.081</ele>
        <time>2021-04-06T09:08:40Z</time>
      </trkpt>
      <trkpt lat="43.145049" lon="-2.287536">
        <ele>457.819</ele>
        <time>2021-04-06T09:08:42Z</time>
      </trkpt>
      <trkpt lat="43.145063" lon="-2.287568">
        <ele>457.708</ele>
        <time>2021-04-06T09:08:44Z</time>
      </trkpt>
      <trkpt lat="43.145078" lon="-2.287600">
        <ele>457.553</ele>
        <time>2021-04-06T09:08:46Z</time>
      </trkpt>
      <trkpt lat="43.145088" lon="-2.287637">
        <ele>457.496</ele>
        <time>2021-04-06T09:08:48Z</time>
      </trkpt>
      <trkpt lat="43.145103" lon="-2.287677">
        <ele>457.177</ele>
        <time>2021-04-06T09:08:50Z</time>
      </trkpt>
      <trkpt lat="43.145111" lon="-2.287701">
        <ele>457.012</ele>
        <time>2021-04-06T09:08:51Z</time>
      </trkpt>
      <trkpt lat="43.145122" lon="-2.287731">
        <ele>456.857</ele>
        <time>2021-04-06T09:08:52Z</time>
      </trkpt>
      <trkpt lat="43.145135" lon="-2.287764">
        <ele>456.625</ele>
        <time>2021-04-06T09:08:53Z</time>
      </trkpt>
      <trkpt lat="43.145148" lon="-2.287799">
        <ele>456.242</ele>
        <time>2021-04-06T09:08:54Z</time>
      </trkpt>
      <trkpt lat="43.145163" lon="-2.287835">
        <ele>455.730</ele>
        <time>2021-04-06T09:08:55Z</time>
      </trkpt>
      <trkpt lat="43.145183" lon="-2.287871">
        <ele>455.167</ele>
        <time>2021-04-06T09:08:56Z</time>
      </trkpt>
      <trkpt lat="43.145204" lon="-2.287902">
        <ele>454.681</ele>
        <time>2021-04-06T09:08:57Z</time>
      </trkpt>
      <trkpt lat="43.145229" lon="-2.287927">
        <ele>454.119</ele>
        <time>2021-04-06T09:08:58Z</time>
      </trkpt>
      <trkpt lat="43.145261" lon="-2.287946">
        <ele>453.708</ele>
        <time>2021-04-06T09:08:59Z</time>
      </trkpt>
      <trkpt lat="43.145296" lon="-2.287959">
        <ele>453.133</ele>
        <time>2021-04-06T09:09:00Z</time>
      </trkpt>
      <trkpt lat="43.145331" lon="-2.287965">
        <ele>452.336</ele>
        <time>2021-04-06T09:09:01Z</time>
      </trkpt>
      <trkpt lat="43.145368" lon="-2.287967">
        <ele>451.757</ele>
        <time>2021-04-06T09:09:02Z</time>
      </trkpt>
      <trkpt lat="43.145405" lon="-2.287967">
        <ele>451.042</ele>
        <time>2021-04-06T09:09:03Z</time>
      </trkpt>
      <trkpt lat="43.145442" lon="-2.287968">
        <ele>450.327</ele>
        <time>2021-04-06T09:09:04Z</time>
      </trkpt>
      <trkpt lat="43.145480" lon="-2.287966">
        <ele>449.625</ele>
        <time>2021-04-06T09:09:05Z</time>
      </trkpt>
      <trkpt lat="43.145517" lon="-2.287961">
        <ele>449.112</ele>
        <time>2021-04-06T09:09:06Z</time>
      </trkpt>
      <trkpt lat="43.145552" lon="-2.287956">
        <ele>448.570</ele>
        <time>2021-04-06T09:09:07Z</time>
      </trkpt>
      <trkpt lat="43.145586" lon="-2.287946">
        <ele>447.957</ele>
        <time>2021-04-06T09:09:08Z</time>
      </trkpt>
      <trkpt lat="43.145620" lon="-2.287932">
        <ele>447.300</ele>
        <time>2021-04-06T09:09:09Z</time>
      </trkpt>
      <trkpt lat="43.145655" lon="-2.287914">
        <ele>446.720</ele>
        <time>2021-04-06T09:09:10Z</time>
      </trkpt>
      <trkpt lat="43.145689" lon="-2.287895">
        <ele>446.208</ele>
        <time>2021-04-06T09:09:11Z</time>
      </trkpt>
      <trkpt lat="43.145718" lon="-2.287872">
        <ele>445.762</ele>
        <time>2021-04-06T09:09:12Z</time>
      </trkpt>
      <trkpt lat="43.145748" lon="-2.287845">
        <ele>445.465</ele>
        <time>2021-04-06T09:09:13Z</time>
      </trkpt>
      <trkpt lat="43.145777" lon="-2.287815">
        <ele>445.026</ele>
        <time>2021-04-06T09:09:14Z</time>
      </trkpt>
      <trkpt lat="43.145805" lon="-2.287782">
        <ele>444.751</ele>
        <time>2021-04-06T09:09:15Z</time>
      </trkpt>
      <trkpt lat="43.145835" lon="-2.287754">
        <ele>443.966</ele>
        <time>2021-04-06T09:09:16Z</time>
      </trkpt>
      <trkpt lat="43.145864" lon="-2.287727">
        <ele>443.264</ele>
        <time>2021-04-06T09:09:17Z</time>
      </trkpt>
      <trkpt lat="43.145895" lon="-2.287701">
        <ele>442.451</ele>
        <time>2021-04-06T09:09:18Z</time>
      </trkpt>
      <trkpt lat="43.145928" lon="-2.287689">
        <ele>441.519</ele>
        <time>2021-04-06T09:09:19Z</time>
      </trkpt>
      <trkpt lat="43.145946" lon="-2.287696">
        <ele>441.283</ele>
        <time>2021-04-06T09:09:20Z</time>
      </trkpt>
      <trkpt lat="43.145964" lon="-2.287720">
        <ele>441.025</ele>
        <time>2021-04-06T09:09:21Z</time>
      </trkpt>
      <trkpt lat="43.145974" lon="-2.287751">
        <ele>441.217</ele>
        <time>2021-04-06T09:09:22Z</time>
      </trkpt>
      <trkpt lat="43.145979" lon="-2.287792">
        <ele>441.308</ele>
        <time>2021-04-06T09:09:23Z</time>
      </trkpt>
      <trkpt lat="43.145977" lon="-2.287836">
        <ele>440.965</ele>
        <time>2021-04-06T09:09:24Z</time>
      </trkpt>
      <trkpt lat="43.145971" lon="-2.287881">
        <ele>440.698</ele>
        <time>2021-04-06T09:09:25Z</time>
      </trkpt>
      <trkpt lat="43.145963" lon="-2.287927">
        <ele>440.359</ele>
        <time>2021-04-06T09:09:26Z</time>
      </trkpt>
      <trkpt lat="43.145950" lon="-2.287969">
        <ele>440.184</ele>
        <time>2021-04-06T09:09:27Z</time>
      </trkpt>
      <trkpt lat="43.145933" lon="-2.288008">
        <ele>440.049</ele>
        <time>2021-04-06T09:09:28Z</time>
      </trkpt>
      <trkpt lat="43.145912" lon="-2.288048">
        <ele>439.987</ele>
        <time>2021-04-06T09:09:29Z</time>
      </trkpt>
      <trkpt lat="43.145889" lon="-2.288085">
        <ele>439.714</ele>
        <time>2021-04-06T09:09:30Z</time>
      </trkpt>
      <trkpt lat="43.145865" lon="-2.288124">
        <ele>439.372</ele>
        <time>2021-04-06T09:09:31Z</time>
      </trkpt>
      <trkpt lat="43.145843" lon="-2.288163">
        <ele>438.963</ele>
        <time>2021-04-06T09:09:32Z</time>
      </trkpt>
      <trkpt lat="43.145821" lon="-2.288201">
        <ele>438.644</ele>
        <time>2021-04-06T09:09:33Z</time>
      </trkpt>
      <trkpt lat="43.145797" lon="-2.288240">
        <ele>438.418</ele>
        <time>2021-04-06T09:09:34Z</time>
      </trkpt>
      <trkpt lat="43.145773" lon="-2.288277">
        <ele>438.108</ele>
        <time>2021-04-06T09:09:35Z</time>
      </trkpt>
      <trkpt lat="43.145752" lon="-2.288317">
        <ele>437.843</ele>
        <time>2021-04-06T09:09:36Z</time>
      </trkpt>
      <trkpt lat="43.145731" lon="-2.288355">
        <ele>437.396</ele>
        <time>2021-04-06T09:09:37Z</time>
      </trkpt>
      <trkpt lat="43.145709" lon="-2.288394">
        <ele>436.757</ele>
        <time>2021-04-06T09:09:38Z</time>
      </trkpt>
      <trkpt lat="43.145673" lon="-2.288472">
        <ele>435.552</ele>
        <time>2021-04-06T09:09:40Z</time>
      </trkpt>
      <trkpt lat="43.145654" lon="-2.288513">
        <ele>434.927</ele>
        <time>2021-04-06T09:09:41Z</time>
      </trkpt>
      <trkpt lat="43.145630" lon="-2.288546">
        <ele>434.745</ele>
        <time>2021-04-06T09:09:42Z</time>
      </trkpt>
      <trkpt lat="43.145603" lon="-2.288579">
        <ele>434.582</ele>
        <time>2021-04-06T09:09:43Z</time>
      </trkpt>
      <trkpt lat="43.145578" lon="-2.288614">
        <ele>434.440</ele>
        <time>2021-04-06T09:09:44Z</time>
      </trkpt>
      <trkpt lat="43.145553" lon="-2.288645">
        <ele>434.141</ele>
        <time>2021-04-06T09:09:45Z</time>
      </trkpt>
      <trkpt lat="43.145526" lon="-2.288674">
        <ele>433.981</ele>
        <time>2021-04-06T09:09:46Z</time>
      </trkpt>
      <trkpt lat="43.145500" lon="-2.288696">
        <ele>433.909</ele>
        <time>2021-04-06T09:09:47Z</time>
      </trkpt>
      <trkpt lat="43.145471" lon="-2.288717">
        <ele>434.108</ele>
        <time>2021-04-06T09:09:48Z</time>
      </trkpt>
      <trkpt lat="43.145442" lon="-2.288736">
        <ele>434.481</ele>
        <time>2021-04-06T09:09:49Z</time>
      </trkpt>
      <trkpt lat="43.145414" lon="-2.288753">
        <ele>434.854</ele>
        <time>2021-04-06T09:09:50Z</time>
      </trkpt>
      <trkpt lat="43.145386" lon="-2.288774">
        <ele>435.035</ele>
        <time>2021-04-06T09:09:51Z</time>
      </trkpt>
      <trkpt lat="43.145360" lon="-2.288804">
        <ele>435.150</ele>
        <time>2021-04-06T09:09:52Z</time>
      </trkpt>
      <trkpt lat="43.145341" lon="-2.288840">
        <ele>435.035</ele>
        <time>2021-04-06T09:09:53Z</time>
      </trkpt>
      <trkpt lat="43.145328" lon="-2.288887">
        <ele>434.473</ele>
        <time>2021-04-06T09:09:54Z</time>
      </trkpt>
      <trkpt lat="43.145322" lon="-2.288935">
        <ele>434.820</ele>
        <time>2021-04-06T09:09:55Z</time>
      </trkpt>
      <trkpt lat="43.145325" lon="-2.288984">
        <ele>434.958</ele>
        <time>2021-04-06T09:09:56Z</time>
      </trkpt>
      <trkpt lat="43.145325" lon="-2.289023">
        <ele>435.022</ele>
        <time>2021-04-06T09:09:57Z</time>
      </trkpt>
      <trkpt lat="43.145335" lon="-2.289057">
        <ele>434.762</ele>
        <time>2021-04-06T09:09:58Z</time>
      </trkpt>
      <trkpt lat="43.145340" lon="-2.289093">
        <ele>434.608</ele>
        <time>2021-04-06T09:09:59Z</time>
      </trkpt>
      <trkpt lat="43.145347" lon="-2.289130">
        <ele>434.408</ele>
        <time>2021-04-06T09:10:00Z</time>
      </trkpt>
      <trkpt lat="43.145351" lon="-2.289164">
        <ele>434.369</ele>
        <time>2021-04-06T09:10:01Z</time>
      </trkpt>
      <trkpt lat="43.145353" lon="-2.289200">
        <ele>434.272</ele>
        <time>2021-04-06T09:10:02Z</time>
      </trkpt>
      <trkpt lat="43.145354" lon="-2.289239">
        <ele>434.253</ele>
        <time>2021-04-06T09:10:03Z</time>
      </trkpt>
      <trkpt lat="43.145353" lon="-2.289276">
        <ele>434.368</ele>
        <time>2021-04-06T09:10:04Z</time>
      </trkpt>
      <trkpt lat="43.145352" lon="-2.289311">
        <ele>434.463</ele>
        <time>2021-04-06T09:10:05Z</time>
      </trkpt>
      <trkpt lat="43.145348" lon="-2.289339">
        <ele>434.651</ele>
        <time>2021-04-06T09:10:06Z</time>
      </trkpt>
      <trkpt lat="43.145336" lon="-2.289373">
        <ele>435.218</ele>
        <time>2021-04-06T09:10:07Z</time>
      </trkpt>
      <trkpt lat="43.145324" lon="-2.289406">
        <ele>435.826</ele>
        <time>2021-04-06T09:10:08Z</time>
      </trkpt>
      <trkpt lat="43.145316" lon="-2.289435">
        <ele>436.255</ele>
        <time>2021-04-06T09:10:09Z</time>
      </trkpt>
      <trkpt lat="43.145310" lon="-2.289468">
        <ele>436.307</ele>
        <time>2021-04-06T09:10:10Z</time>
      </trkpt>
      <trkpt lat="43.145305" lon="-2.289501">
        <ele>436.217</ele>
        <time>2021-04-06T09:10:11Z</time>
      </trkpt>
      <trkpt lat="43.145298" lon="-2.289535">
        <ele>436.108</ele>
        <time>2021-04-06T09:10:12Z</time>
      </trkpt>
      <trkpt lat="43.145288" lon="-2.289570">
        <ele>436.222</ele>
        <time>2021-04-06T09:10:13Z</time>
      </trkpt>
      <trkpt lat="43.145279" lon="-2.289605">
        <ele>436.265</ele>
        <time>2021-04-06T09:10:14Z</time>
      </trkpt>
      <trkpt lat="43.145272" lon="-2.289638">
        <ele>436.186</ele>
        <time>2021-04-06T09:10:15Z</time>
      </trkpt>
      <trkpt lat="43.145262" lon="-2.289668">
        <ele>436.291</ele>
        <time>2021-04-06T09:10:16Z</time>
      </trkpt>
      <trkpt lat="43.145235" lon="-2.289733">
        <ele>436.666</ele>
        <time>2021-04-06T09:10:18Z</time>
      </trkpt>
      <trkpt lat="43.145226" lon="-2.289764">
        <ele>436.584</ele>
        <time>2021-04-06T09:10:19Z</time>
      </trkpt>
      <trkpt lat="43.145215" lon="-2.289797">
        <ele>436.521</ele>
        <time>2021-04-06T09:10:20Z</time>
      </trkpt>
      <trkpt lat="43.145205" lon="-2.289832">
        <ele>436.439</ele>
        <time>2021-04-06T09:10:21Z</time>
      </trkpt>
      <trkpt lat="43.145195" lon="-2.289865">
        <ele>436.377</ele>
        <time>2021-04-06T09:10:22Z</time>
      </trkpt>
      <trkpt lat="43.145189" lon="-2.289891">
        <ele>436.161</ele>
        <time>2021-04-06T09:10:23Z</time>
      </trkpt>
      <trkpt lat="43.145172" lon="-2.289925">
        <ele>436.227</ele>
        <time>2021-04-06T09:10:25Z</time>
      </trkpt>
      <trkpt lat="43.145162" lon="-2.289949">
        <ele>436.108</ele>
        <time>2021-04-06T09:10:27Z</time>
      </trkpt>
      <trkpt lat="43.145178" lon="-2.289965">
        <ele>435.464</ele>
        <time>2021-04-06T09:10:43Z</time>
      </trkpt>
      <trkpt lat="43.145160" lon="-2.289993">
        <ele>435.547</ele>
        <time>2021-04-06T09:10:50Z</time>
      </trkpt>
      <trkpt lat="43.145138" lon="-2.290023">
        <ele>435.438</ele>
        <time>2021-04-06T09:10:52Z</time>
      </trkpt>
      <trkpt lat="43.145122" lon="-2.290043">
        <ele>435.483</ele>
        <time>2021-04-06T09:10:53Z</time>
      </trkpt>
      <trkpt lat="43.145104" lon="-2.290061">
        <ele>435.528</ele>
        <time>2021-04-06T09:10:54Z</time>
      </trkpt>
      <trkpt lat="43.145085" lon="-2.290077">
        <ele>435.626</ele>
        <time>2021-04-06T09:10:55Z</time>
      </trkpt>
      <trkpt lat="43.145066" lon="-2.290100">
        <ele>435.673</ele>
        <time>2021-04-06T09:10:56Z</time>
      </trkpt>
      <trkpt lat="43.145048" lon="-2.290126">
        <ele>435.461</ele>
        <time>2021-04-06T09:10:57Z</time>
      </trkpt>
      <trkpt lat="43.145028" lon="-2.290151">
        <ele>435.473</ele>
        <time>2021-04-06T09:10:58Z</time>
      </trkpt>
      <trkpt lat="43.145008" lon="-2.290181">
        <ele>435.285</ele>
        <time>2021-04-06T09:10:59Z</time>
      </trkpt>
      <trkpt lat="43.144984" lon="-2.290218">
        <ele>434.913</ele>
        <time>2021-04-06T09:11:00Z</time>
      </trkpt>
      <trkpt lat="43.144958" lon="-2.290251">
        <ele>434.808</ele>
        <time>2021-04-06T09:11:01Z</time>
      </trkpt>
      <trkpt lat="43.144932" lon="-2.290287">
        <ele>434.414</ele>
        <time>2021-04-06T09:11:02Z</time>
      </trkpt>
      <trkpt lat="43.144906" lon="-2.290327">
        <ele>434.077</ele>
        <time>2021-04-06T09:11:03Z</time>
      </trkpt>
      <trkpt lat="43.144885" lon="-2.290359">
        <ele>433.628</ele>
        <time>2021-04-06T09:11:04Z</time>
      </trkpt>
      <trkpt lat="43.144865" lon="-2.290394">
        <ele>433.193</ele>
        <time>2021-04-06T09:11:05Z</time>
      </trkpt>
      <trkpt lat="43.144842" lon="-2.290435">
        <ele>432.558</ele>
        <time>2021-04-06T09:11:06Z</time>
      </trkpt>
      <trkpt lat="43.144817" lon="-2.290471">
        <ele>432.046</ele>
        <time>2021-04-06T09:11:07Z</time>
      </trkpt>
      <trkpt lat="43.144799" lon="-2.290509">
        <ele>431.493</ele>
        <time>2021-04-06T09:11:08Z</time>
      </trkpt>
      <trkpt lat="43.144784" lon="-2.290543">
        <ele>430.811</ele>
        <time>2021-04-06T09:11:09Z</time>
      </trkpt>
      <trkpt lat="43.144769" lon="-2.290582">
        <ele>430.334</ele>
        <time>2021-04-06T09:11:10Z</time>
      </trkpt>
      <trkpt lat="43.144754" lon="-2.290618">
        <ele>430.055</ele>
        <time>2021-04-06T09:11:11Z</time>
      </trkpt>
      <trkpt lat="43.144745" lon="-2.290654">
        <ele>429.610</ele>
        <time>2021-04-06T09:11:12Z</time>
      </trkpt>
      <trkpt lat="43.144735" lon="-2.290689">
        <ele>429.208</ele>
        <time>2021-04-06T09:11:13Z</time>
      </trkpt>
      <trkpt lat="43.144725" lon="-2.290725">
        <ele>428.910</ele>
        <time>2021-04-06T09:11:14Z</time>
      </trkpt>
      <trkpt lat="43.144717" lon="-2.290765">
        <ele>428.433</ele>
        <time>2021-04-06T09:11:15Z</time>
      </trkpt>
      <trkpt lat="43.144708" lon="-2.290810">
        <ele>427.994</ele>
        <time>2021-04-06T09:11:16Z</time>
      </trkpt>
      <trkpt lat="43.144699" lon="-2.290856">
        <ele>427.429</ele>
        <time>2021-04-06T09:11:17Z</time>
      </trkpt>
      <trkpt lat="43.144686" lon="-2.290904">
        <ele>427.074</ele>
        <time>2021-04-06T09:11:18Z</time>
      </trkpt>
      <trkpt lat="43.144672" lon="-2.290946">
        <ele>426.822</ele>
        <time>2021-04-06T09:11:19Z</time>
      </trkpt>
      <trkpt lat="43.144664" lon="-2.290989">
        <ele>426.459</ele>
        <time>2021-04-06T09:11:20Z</time>
      </trkpt>
      <trkpt lat="43.144659" lon="-2.291035">
        <ele>425.987</ele>
        <time>2021-04-06T09:11:21Z</time>
      </trkpt>
      <trkpt lat="43.144652" lon="-2.291080">
        <ele>425.565</ele>
        <time>2021-04-06T09:11:22Z</time>
      </trkpt>
      <trkpt lat="43.144648" lon="-2.291125">
        <ele>425.168</ele>
        <time>2021-04-06T09:11:23Z</time>
      </trkpt>
      <trkpt lat="43.144643" lon="-2.291176">
        <ele>424.814</ele>
        <time>2021-04-06T09:11:24Z</time>
      </trkpt>
      <trkpt lat="43.144638" lon="-2.291223">
        <ele>424.508</ele>
        <time>2021-04-06T09:11:25Z</time>
      </trkpt>
      <trkpt lat="43.144631" lon="-2.291267">
        <ele>424.493</ele>
        <time>2021-04-06T09:11:26Z</time>
      </trkpt>
      <trkpt lat="43.144628" lon="-2.291315">
        <ele>424.146</ele>
        <time>2021-04-06T09:11:27Z</time>
      </trkpt>
      <trkpt lat="43.144631" lon="-2.291364">
        <ele>423.567</ele>
        <time>2021-04-06T09:11:28Z</time>
      </trkpt>
      <trkpt lat="43.144642" lon="-2.291407">
        <ele>422.732</ele>
        <time>2021-04-06T09:11:29Z</time>
      </trkpt>
      <trkpt lat="43.144651" lon="-2.291442">
        <ele>422.287</ele>
        <time>2021-04-06T09:11:30Z</time>
      </trkpt>
      <trkpt lat="43.144669" lon="-2.291480">
        <ele>421.315</ele>
        <time>2021-04-06T09:11:31Z</time>
      </trkpt>
      <trkpt lat="43.144688" lon="-2.291519">
        <ele>420.192</ele>
        <time>2021-04-06T09:11:32Z</time>
      </trkpt>
      <trkpt lat="43.144704" lon="-2.291555">
        <ele>419.290</ele>
        <time>2021-04-06T09:11:33Z</time>
      </trkpt>
      <trkpt lat="43.144714" lon="-2.291590">
        <ele>418.528</ele>
        <time>2021-04-06T09:11:34Z</time>
      </trkpt>
      <trkpt lat="43.144726" lon="-2.291625">
        <ele>417.889</ele>
        <time>2021-04-06T09:11:35Z</time>
      </trkpt>
      <trkpt lat="43.144733" lon="-2.291663">
        <ele>417.417</ele>
        <time>2021-04-06T09:11:36Z</time>
      </trkpt>
      <trkpt lat="43.144744" lon="-2.291701">
        <ele>416.508</ele>
        <time>2021-04-06T09:11:37Z</time>
      </trkpt>
      <trkpt lat="43.144750" lon="-2.291735">
        <ele>415.969</ele>
        <time>2021-04-06T09:11:38Z</time>
      </trkpt>
      <trkpt lat="43.144757" lon="-2.291772">
        <ele>415.272</ele>
        <time>2021-04-06T09:11:39Z</time>
      </trkpt>
      <trkpt lat="43.144766" lon="-2.291813">
        <ele>414.423</ele>
        <time>2021-04-06T09:11:40Z</time>
      </trkpt>
      <trkpt lat="43.144774" lon="-2.291850">
        <ele>413.798</ele>
        <time>2021-04-06T09:11:41Z</time>
      </trkpt>
      <trkpt lat="43.144779" lon="-2.291886">
        <ele>413.123</ele>
        <time>2021-04-06T09:11:42Z</time>
      </trkpt>
      <trkpt lat="43.144781" lon="-2.291928">
        <ele>412.761</ele>
        <time>2021-04-06T09:11:43Z</time>
      </trkpt>
      <trkpt lat="43.144780" lon="-2.291971">
        <ele>412.078</ele>
        <time>2021-04-06T09:11:44Z</time>
      </trkpt>
      <trkpt lat="43.144782" lon="-2.292016">
        <ele>410.856</ele>
        <time>2021-04-06T09:11:45Z</time>
      </trkpt>
      <trkpt lat="43.144785" lon="-2.292055">
        <ele>409.649</ele>
        <time>2021-04-06T09:11:46Z</time>
      </trkpt>
      <trkpt lat="43.144782" lon="-2.292095">
        <ele>408.802</ele>
        <time>2021-04-06T09:11:47Z</time>
      </trkpt>
      <trkpt lat="43.144780" lon="-2.292147">
        <ele>407.622</ele>
        <time>2021-04-06T09:11:48Z</time>
      </trkpt>
      <trkpt lat="43.144768" lon="-2.292191">
        <ele>407.108</ele>
        <time>2021-04-06T09:11:49Z</time>
      </trkpt>
      <trkpt lat="43.144749" lon="-2.292228">
        <ele>407.341</ele>
        <time>2021-04-06T09:11:50Z</time>
      </trkpt>
      <trkpt lat="43.144692" lon="-2.292339">
        <ele>408.174</ele>
        <time>2021-04-06T09:11:53Z</time>
      </trkpt>
      <trkpt lat="43.144644" lon="-2.292449">
        <ele>408.655</ele>
        <time>2021-04-06T09:11:56Z</time>
      </trkpt>
      <trkpt lat="43.144612" lon="-2.292581">
        <ele>409.680</ele>
        <time>2021-04-06T09:12:00Z</time>
      </trkpt>
      <trkpt lat="43.144586" lon="-2.292711">
        <ele>411.025</ele>
        <time>2021-04-06T09:12:05Z</time>
      </trkpt>
      <trkpt lat="43.144494" lon="-2.292769">
        <ele>414.973</ele>
        <time>2021-04-06T09:12:09Z</time>
      </trkpt>
      <trkpt lat="43.144417" lon="-2.292833">
        <ele>416.640</ele>
        <time>2021-04-06T09:12:12Z</time>
      </trkpt>
      <trkpt lat="43.144335" lon="-2.292945">
        <ele>416.968</ele>
        <time>2021-04-06T09:12:16Z</time>
      </trkpt>
      <trkpt lat="43.144257" lon="-2.293048">
        <ele>417.348</ele>
        <time>2021-04-06T09:12:20Z</time>
      </trkpt>
      <trkpt lat="43.144190" lon="-2.293181">
        <ele>419.461</ele>
        <time>2021-04-06T09:12:24Z</time>
      </trkpt>
      <trkpt lat="43.144178" lon="-2.293305">
        <ele>419.517</ele>
        <time>2021-04-06T09:12:28Z</time>
      </trkpt>
      <trkpt lat="43.144231" lon="-2.293432">
        <ele>419.608</ele>
        <time>2021-04-06T09:12:32Z</time>
      </trkpt>
      <trkpt lat="43.144302" lon="-2.293527">
        <ele>418.891</ele>
        <time>2021-04-06T09:12:36Z</time>
      </trkpt>
      <trkpt lat="43.144361" lon="-2.293621">
        <ele>418.854</ele>
        <time>2021-04-06T09:12:40Z</time>
      </trkpt>
      <trkpt lat="43.144417" lon="-2.293743">
        <ele>420.185</ele>
        <time>2021-04-06T09:12:45Z</time>
      </trkpt>
      <trkpt lat="43.144489" lon="-2.293872">
        <ele>420.920</ele>
        <time>2021-04-06T09:12:49Z</time>
      </trkpt>
      <trkpt lat="43.144515" lon="-2.293996">
        <ele>419.555</ele>
        <time>2021-04-06T09:12:54Z</time>
      </trkpt>
      <trkpt lat="43.144523" lon="-2.294143">
        <ele>418.393</ele>
        <time>2021-04-06T09:12:58Z</time>
      </trkpt>
      <trkpt lat="43.144504" lon="-2.294271">
        <ele>418.260</ele>
        <time>2021-04-06T09:13:01Z</time>
      </trkpt>
      <trkpt lat="43.144483" lon="-2.294399">
        <ele>418.198</ele>
        <time>2021-04-06T09:13:04Z</time>
      </trkpt>
      <trkpt lat="43.144470" lon="-2.294526">
        <ele>417.874</ele>
        <time>2021-04-06T09:13:07Z</time>
      </trkpt>
      <trkpt lat="43.144479" lon="-2.294657">
        <ele>416.356</ele>
        <time>2021-04-06T09:13:10Z</time>
      </trkpt>
      <trkpt lat="43.144476" lon="-2.294804">
        <ele>415.721</ele>
        <time>2021-04-06T09:13:13Z</time>
      </trkpt>
      <trkpt lat="43.144494" lon="-2.294934">
        <ele>414.308</ele>
        <time>2021-04-06T09:13:16Z</time>
      </trkpt>
      <trkpt lat="43.144515" lon="-2.295058">
        <ele>412.784</ele>
        <time>2021-04-06T09:13:19Z</time>
      </trkpt>
      <trkpt lat="43.144528" lon="-2.295203">
        <ele>411.647</ele>
        <time>2021-04-06T09:13:23Z</time>
      </trkpt>
      <trkpt lat="43.144576" lon="-2.295327">
        <ele>409.868</ele>
        <time>2021-04-06T09:13:27Z</time>
      </trkpt>
      <trkpt lat="43.144594" lon="-2.295472">
        <ele>410.333</ele>
        <time>2021-04-06T09:13:31Z</time>
      </trkpt>
      <trkpt lat="43.144601" lon="-2.295596">
        <ele>411.438</ele>
        <time>2021-04-06T09:13:34Z</time>
      </trkpt>
      <trkpt lat="43.144627" lon="-2.295754">
        <ele>412.996</ele>
        <time>2021-04-06T09:13:38Z</time>
      </trkpt>
      <trkpt lat="43.144731" lon="-2.295822">
        <ele>410.983</ele>
        <time>2021-04-06T09:13:42Z</time>
      </trkpt>
      <trkpt lat="43.144820" lon="-2.295775">
        <ele>410.991</ele>
        <time>2021-04-06T09:13:44Z</time>
      </trkpt>
      <trkpt lat="43.144909" lon="-2.295672">
        <ele>409.765</ele>
        <time>2021-04-06T09:13:47Z</time>
      </trkpt>
      <trkpt lat="43.144988" lon="-2.295606">
        <ele>409.068</ele>
        <time>2021-04-06T09:13:50Z</time>
      </trkpt>
      <trkpt lat="43.145077" lon="-2.295572">
        <ele>410.114</ele>
        <time>2021-04-06T09:13:54Z</time>
      </trkpt>
      <trkpt lat="43.145154" lon="-2.295499">
        <ele>409.508</ele>
        <time>2021-04-06T09:14:00Z</time>
      </trkpt>
      <trkpt lat="43.145215" lon="-2.295385">
        <ele>406.853</ele>
        <time>2021-04-06T09:14:04Z</time>
      </trkpt>
      <trkpt lat="43.145286" lon="-2.295262">
        <ele>403.946</ele>
        <time>2021-04-06T09:14:08Z</time>
      </trkpt>
      <trkpt lat="43.145314" lon="-2.295141">
        <ele>401.647</ele>
        <time>2021-04-06T09:14:11Z</time>
      </trkpt>
      <trkpt lat="43.145329" lon="-2.295014">
        <ele>398.752</ele>
        <time>2021-04-06T09:14:14Z</time>
      </trkpt>
      <trkpt lat="43.145373" lon="-2.294890">
        <ele>396.137</ele>
        <time>2021-04-06T09:14:17Z</time>
      </trkpt>
      <trkpt lat="43.145411" lon="-2.294757">
        <ele>392.995</ele>
        <time>2021-04-06T09:14:20Z</time>
      </trkpt>
      <trkpt lat="43.145455" lon="-2.294624">
        <ele>390.762</ele>
        <time>2021-04-06T09:14:23Z</time>
      </trkpt>
      <trkpt lat="43.145512" lon="-2.294509">
        <ele>389.520</ele>
        <time>2021-04-06T09:14:26Z</time>
      </trkpt>
      <trkpt lat="43.145576" lon="-2.294413">
        <ele>389.042</ele>
        <time>2021-04-06T09:14:29Z</time>
      </trkpt>
      <trkpt lat="43.145638" lon="-2.294311">
        <ele>388.822</ele>
        <time>2021-04-06T09:14:32Z</time>
      </trkpt>
      <trkpt lat="43.145720" lon="-2.294221">
        <ele>389.214</ele>
        <time>2021-04-06T09:14:35Z</time>
      </trkpt>
      <trkpt lat="43.145799" lon="-2.294117">
        <ele>388.908</ele>
        <time>2021-04-06T09:14:38Z</time>
      </trkpt>
      <trkpt lat="43.145851" lon="-2.294005">
        <ele>387.131</ele>
        <time>2021-04-06T09:14:41Z</time>
      </trkpt>
      <trkpt lat="43.145906" lon="-2.293869">
        <ele>384.164</ele>
        <time>2021-04-06T09:14:45Z</time>
      </trkpt>
      <trkpt lat="43.145921" lon="-2.293836">
        <ele>383.465</ele>
        <time>2021-04-06T09:14:46Z</time>
      </trkpt>
      <trkpt lat="43.145935" lon="-2.293803">
        <ele>382.850</ele>
        <time>2021-04-06T09:14:47Z</time>
      </trkpt>
      <trkpt lat="43.145950" lon="-2.293772">
        <ele>382.165</ele>
        <time>2021-04-06T09:14:48Z</time>
      </trkpt>
      <trkpt lat="43.145967" lon="-2.293741">
        <ele>381.523</ele>
        <time>2021-04-06T09:14:49Z</time>
      </trkpt>
      <trkpt lat="43.145988" lon="-2.293716">
        <ele>381.020</ele>
        <time>2021-04-06T09:14:50Z</time>
      </trkpt>
      <trkpt lat="43.146014" lon="-2.293697">
        <ele>380.778</ele>
        <time>2021-04-06T09:14:51Z</time>
      </trkpt>
      <trkpt lat="43.146040" lon="-2.293684">
        <ele>380.522</ele>
        <time>2021-04-06T09:14:52Z</time>
      </trkpt>
      <trkpt lat="43.146066" lon="-2.293673">
        <ele>380.462</ele>
        <time>2021-04-06T09:14:53Z</time>
      </trkpt>
      <trkpt lat="43.146092" lon="-2.293667">
        <ele>380.308</ele>
        <time>2021-04-06T09:14:54Z</time>
      </trkpt>
      <trkpt lat="43.146114" lon="-2.293666">
        <ele>380.408</ele>
        <time>2021-04-06T09:14:55Z</time>
      </trkpt>
      <trkpt lat="43.146149" lon="-2.293671">
        <ele>380.189</ele>
        <time>2021-04-06T09:14:57Z</time>
      </trkpt>
      <trkpt lat="43.146182" lon="-2.293675">
        <ele>379.862</ele>
        <time>2021-04-06T09:14:59Z</time>
      </trkpt>
      <trkpt lat="43.146212" lon="-2.293671">
        <ele>379.443</ele>
        <time>2021-04-06T09:15:01Z</time>
      </trkpt>
      <trkpt lat="43.146236" lon="-2.293661">
        <ele>378.868</ele>
        <time>2021-04-06T09:15:03Z</time>
      </trkpt>
      <trkpt lat="43.146260" lon="-2.293655">
        <ele>378.313</ele>
        <time>2021-04-06T09:15:05Z</time>
      </trkpt>
      <trkpt lat="43.146284" lon="-2.293650">
        <ele>377.821</ele>
        <time>2021-04-06T09:15:07Z</time>
      </trkpt>
      <trkpt lat="43.146310" lon="-2.293641">
        <ele>377.288</ele>
        <time>2021-04-06T09:15:09Z</time>
      </trkpt>
      <trkpt lat="43.146340" lon="-2.293637">
        <ele>376.716</ele>
        <time>2021-04-06T09:15:11Z</time>
      </trkpt>
      <trkpt lat="43.146369" lon="-2.293637">
        <ele>376.373</ele>
        <time>2021-04-06T09:15:13Z</time>
      </trkpt>
      <trkpt lat="43.146416" lon="-2.293635">
        <ele>375.585</ele>
        <time>2021-04-06T09:15:16Z</time>
      </trkpt>
      <trkpt lat="43.146447" lon="-2.293634">
        <ele>374.913</ele>
        <time>2021-04-06T09:15:18Z</time>
      </trkpt>
      <trkpt lat="43.146480" lon="-2.293632">
        <ele>374.208</ele>
        <time>2021-04-06T09:15:20Z</time>
      </trkpt>
      <trkpt lat="43.146515" lon="-2.293633">
        <ele>373.674</ele>
        <time>2021-04-06T09:15:22Z</time>
      </trkpt>
      <trkpt lat="43.146536" lon="-2.293633">
        <ele>373.297</ele>
        <time>2021-04-06T09:15:23Z</time>
      </trkpt>
      <trkpt lat="43.146554" lon="-2.293632">
        <ele>372.928</ele>
        <time>2021-04-06T09:15:24Z</time>
      </trkpt>
      <trkpt lat="43.146573" lon="-2.293632">
        <ele>372.533</ele>
        <time>2021-04-06T09:15:25Z</time>
      </trkpt>
      <trkpt lat="43.146592" lon="-2.293632">
        <ele>372.218</ele>
        <time>2021-04-06T09:15:26Z</time>
      </trkpt>
      <trkpt lat="43.146612" lon="-2.293638">
        <ele>372.096</ele>
        <time>2021-04-06T09:15:27Z</time>
      </trkpt>
      <trkpt lat="43.146636" lon="-2.293646">
        <ele>371.993</ele>
        <time>2021-04-06T09:15:28Z</time>
      </trkpt>
      <trkpt lat="43.146658" lon="-2.293654">
        <ele>371.911</ele>
        <time>2021-04-06T09:15:29Z</time>
      </trkpt>
      <trkpt lat="43.146678" lon="-2.293665">
        <ele>371.918</ele>
        <time>2021-04-06T09:15:30Z</time>
      </trkpt>
      <trkpt lat="43.146698" lon="-2.293678">
        <ele>372.198</ele>
        <time>2021-04-06T09:15:31Z</time>
      </trkpt>
      <trkpt lat="43.146718" lon="-2.293687">
        <ele>372.017</ele>
        <time>2021-04-06T09:15:32Z</time>
      </trkpt>
      <trkpt lat="43.146743" lon="-2.293693">
        <ele>371.808</ele>
        <time>2021-04-06T09:15:33Z</time>
      </trkpt>
      <trkpt lat="43.146761" lon="-2.293701">
        <ele>371.938</ele>
        <time>2021-04-06T09:15:34Z</time>
      </trkpt>
      <trkpt lat="43.146782" lon="-2.293720">
        <ele>372.321</ele>
        <time>2021-04-06T09:15:35Z</time>
      </trkpt>
      <trkpt lat="43.146799" lon="-2.293739">
        <ele>372.962</ele>
        <time>2021-04-06T09:15:36Z</time>
      </trkpt>
      <trkpt lat="43.146816" lon="-2.293747">
        <ele>372.937</ele>
        <time>2021-04-06T09:15:37Z</time>
      </trkpt>
      <trkpt lat="43.146835" lon="-2.293748">
        <ele>372.722</ele>
        <time>2021-04-06T09:15:38Z</time>
      </trkpt>
      <trkpt lat="43.146866" lon="-2.293752">
        <ele>372.420</ele>
        <time>2021-04-06T09:15:40Z</time>
      </trkpt>
      <trkpt lat="43.146896" lon="-2.293758">
        <ele>372.297</ele>
        <time>2021-04-06T09:15:42Z</time>
      </trkpt>
      <trkpt lat="43.146920" lon="-2.293763">
        <ele>372.055</ele>
        <time>2021-04-06T09:15:44Z</time>
      </trkpt>
      <trkpt lat="43.146941" lon="-2.293767">
        <ele>371.971</ele>
        <time>2021-04-06T09:15:46Z</time>
      </trkpt>
      <trkpt lat="43.146961" lon="-2.293775">
        <ele>371.941</ele>
        <time>2021-04-06T09:15:48Z</time>
      </trkpt>
      <trkpt lat="43.146990" lon="-2.293787">
        <ele>371.815</ele>
        <time>2021-04-06T09:15:50Z</time>
      </trkpt>
      <trkpt lat="43.147013" lon="-2.293798">
        <ele>371.908</ele>
        <time>2021-04-06T09:15:52Z</time>
      </trkpt>
      <trkpt lat="43.147035" lon="-2.293810">
        <ele>372.064</ele>
        <time>2021-04-06T09:15:54Z</time>
      </trkpt>
      <trkpt lat="43.147060" lon="-2.293827">
        <ele>372.397</ele>
        <time>2021-04-06T09:15:56Z</time>
      </trkpt>
      <trkpt lat="43.147091" lon="-2.293839">
        <ele>372.278</ele>
        <time>2021-04-06T09:15:58Z</time>
      </trkpt>
      <trkpt lat="43.147118" lon="-2.293849">
        <ele>372.263</ele>
        <time>2021-04-06T09:16:00Z</time>
      </trkpt>
      <trkpt lat="43.147140" lon="-2.293858">
        <ele>372.168</ele>
        <time>2021-04-06T09:16:02Z</time>
      </trkpt>
      <trkpt lat="43.147158" lon="-2.293865">
        <ele>372.116</ele>
        <time>2021-04-06T09:16:04Z</time>
      </trkpt>
      <trkpt lat="43.147183" lon="-2.293876">
        <ele>372.243</ele>
        <time>2021-04-06T09:16:06Z</time>
      </trkpt>
      <trkpt lat="43.147205" lon="-2.293884">
        <ele>372.171</ele>
        <time>2021-04-06T09:16:08Z</time>
      </trkpt>
      <trkpt lat="43.147227" lon="-2.293888">
        <ele>371.815</ele>
        <time>2021-04-06T09:16:10Z</time>
      </trkpt>
      <trkpt lat="43.147246" lon="-2.293892">
        <ele>371.565</ele>
        <time>2021-04-06T09:16:12Z</time>
      </trkpt>
      <trkpt lat="43.147275" lon="-2.293902">
        <ele>371.311</ele>
        <time>2021-04-06T09:16:14Z</time>
      </trkpt>
      <trkpt lat="43.147309" lon="-2.293916">
        <ele>371.008</ele>
        <time>2021-04-06T09:16:16Z</time>
      </trkpt>
      <trkpt lat="43.147330" lon="-2.293935">
        <ele>371.318</ele>
        <time>2021-04-06T09:16:24Z</time>
      </trkpt>
      <trkpt lat="43.147352" lon="-2.293948">
        <ele>371.371</ele>
        <time>2021-04-06T09:16:26Z</time>
      </trkpt>
      <trkpt lat="43.147385" lon="-2.293955">
        <ele>370.762</ele>
        <time>2021-04-06T09:16:28Z</time>
      </trkpt>
      <trkpt lat="43.147410" lon="-2.293959">
        <ele>370.277</ele>
        <time>2021-04-06T09:16:30Z</time>
      </trkpt>
      <trkpt lat="43.147437" lon="-2.293961">
        <ele>369.662</ele>
        <time>2021-04-06T09:16:32Z</time>
      </trkpt>
      <trkpt lat="43.147461" lon="-2.293973">
        <ele>369.490</ele>
        <time>2021-04-06T09:16:34Z</time>
      </trkpt>
      <trkpt lat="43.147488" lon="-2.293979">
        <ele>368.917</ele>
        <time>2021-04-06T09:16:36Z</time>
      </trkpt>
      <trkpt lat="43.147519" lon="-2.293982">
        <ele>368.095</ele>
        <time>2021-04-06T09:16:38Z</time>
      </trkpt>
      <trkpt lat="43.147551" lon="-2.293991">
        <ele>367.343</ele>
        <time>2021-04-06T09:16:40Z</time>
      </trkpt>
      <trkpt lat="43.147575" lon="-2.294009">
        <ele>367.364</ele>
        <time>2021-04-06T09:16:42Z</time>
      </trkpt>
      <trkpt lat="43.147609" lon="-2.294018">
        <ele>366.610</ele>
        <time>2021-04-06T09:16:44Z</time>
      </trkpt>
      <trkpt lat="43.147629" lon="-2.294026">
        <ele>366.208</ele>
        <time>2021-04-06T09:16:46Z</time>
      </trkpt>
      <trkpt lat="43.147661" lon="-2.294046">
        <ele>366.151</ele>
        <time>2021-04-06T09:16:48Z</time>
      </trkpt>
      <trkpt lat="43.147689" lon="-2.294053">
        <ele>365.544</ele>
        <time>2021-04-06T09:16:50Z</time>
      </trkpt>
      <trkpt lat="43.147717" lon="-2.294059">
        <ele>364.985</ele>
        <time>2021-04-06T09:16:52Z</time>
      </trkpt>
      <trkpt lat="43.147742" lon="-2.294056">
        <ele>364.040</ele>
        <time>2021-04-06T09:16:53Z</time>
      </trkpt>
      <trkpt lat="43.147768" lon="-2.294051">
        <ele>362.925</ele>
        <time>2021-04-06T09:16:54Z</time>
      </trkpt>
      <trkpt lat="43.147790" lon="-2.294048">
        <ele>362.083</ele>
        <time>2021-04-06T09:16:55Z</time>
      </trkpt>
      <trkpt lat="43.147815" lon="-2.294042">
        <ele>360.970</ele>
        <time>2021-04-06T09:16:56Z</time>
      </trkpt>
      <trkpt lat="43.147841" lon="-2.294037">
        <ele>359.878</ele>
        <time>2021-04-06T09:16:57Z</time>
      </trkpt>
      <trkpt lat="43.147871" lon="-2.294037">
        <ele>358.817</ele>
        <time>2021-04-06T09:16:58Z</time>
      </trkpt>
      <trkpt lat="43.147899" lon="-2.294039">
        <ele>358.087</ele>
        <time>2021-04-06T09:16:59Z</time>
      </trkpt>
      <trkpt lat="43.147929" lon="-2.294043">
        <ele>357.115</ele>
        <time>2021-04-06T09:17:00Z</time>
      </trkpt>
      <trkpt lat="43.147956" lon="-2.294051">
        <ele>356.508</ele>
        <time>2021-04-06T09:17:01Z</time>
      </trkpt>
      <trkpt lat="43.147980" lon="-2.294063">
        <ele>356.098</ele>
        <time>2021-04-06T09:17:02Z</time>
      </trkpt>
      <trkpt lat="43.148008" lon="-2.294075">
        <ele>355.451</ele>
        <time>2021-04-06T09:17:03Z</time>
      </trkpt>
      <trkpt lat="43.148038" lon="-2.294088">
        <ele>354.792</ele>
        <time>2021-04-06T09:17:04Z</time>
      </trkpt>
      <trkpt lat="43.148063" lon="-2.294104">
        <ele>354.197</ele>
        <time>2021-04-06T09:17:05Z</time>
      </trkpt>
      <trkpt lat="43.148089" lon="-2.294118">
        <ele>353.342</ele>
        <time>2021-04-06T09:17:06Z</time>
      </trkpt>
      <trkpt lat="43.148110" lon="-2.294129">
        <ele>352.710</ele>
        <time>2021-04-06T09:17:07Z</time>
      </trkpt>
      <trkpt lat="43.148124" lon="-2.294144">
        <ele>352.537</ele>
        <time>2021-04-06T09:17:08Z</time>
      </trkpt>
      <trkpt lat="43.148149" lon="-2.294177">
        <ele>352.215</ele>
        <time>2021-04-06T09:17:10Z</time>
      </trkpt>
      <trkpt lat="43.148171" lon="-2.294205">
        <ele>352.022</ele>
        <time>2021-04-06T09:17:11Z</time>
      </trkpt>
      <trkpt lat="43.148188" lon="-2.294243">
        <ele>352.362</ele>
        <time>2021-04-06T09:17:12Z</time>
      </trkpt>
      <trkpt lat="43.148201" lon="-2.294280">
        <ele>352.808</ele>
        <time>2021-04-06T09:17:13Z</time>
      </trkpt>
      <trkpt lat="43.148217" lon="-2.294317">
        <ele>353.408</ele>
        <time>2021-04-06T09:17:14Z</time>
      </trkpt>
      <trkpt lat="43.148233" lon="-2.294355">
        <ele>354.129</ele>
        <time>2021-04-06T09:17:15Z</time>
      </trkpt>
      <trkpt lat="43.148251" lon="-2.294390">
        <ele>354.792</ele>
        <time>2021-04-06T09:17:16Z</time>
      </trkpt>
      <trkpt lat="43.148275" lon="-2.294418">
        <ele>355.173</ele>
        <time>2021-04-06T09:17:17Z</time>
      </trkpt>
      <trkpt lat="43.148298" lon="-2.294435">
        <ele>355.388</ele>
        <time>2021-04-06T09:17:18Z</time>
      </trkpt>
      <trkpt lat="43.148329" lon="-2.294444">
        <ele>355.183</ele>
        <time>2021-04-06T09:17:19Z</time>
      </trkpt>
      <trkpt lat="43.148359" lon="-2.294440">
        <ele>355.221</ele>
        <time>2021-04-06T09:17:20Z</time>
      </trkpt>
      <trkpt lat="43.148387" lon="-2.294435">
        <ele>355.488</ele>
        <time>2021-04-06T09:17:21Z</time>
      </trkpt>
      <trkpt lat="43.148415" lon="-2.294429">
        <ele>355.586</ele>
        <time>2021-04-06T09:17:22Z</time>
      </trkpt>
      <trkpt lat="43.148438" lon="-2.294423">
        <ele>355.692</ele>
        <time>2021-04-06T09:17:23Z</time>
      </trkpt>
      <trkpt lat="43.148462" lon="-2.294416">
        <ele>355.773</ele>
        <time>2021-04-06T09:17:24Z</time>
      </trkpt>
      <trkpt lat="43.148487" lon="-2.294409">
        <ele>355.720</ele>
        <time>2021-04-06T09:17:25Z</time>
      </trkpt>
      <trkpt lat="43.148510" lon="-2.294405">
        <ele>355.908</ele>
        <time>2021-04-06T09:17:26Z</time>
      </trkpt>
      <trkpt lat="43.148536" lon="-2.294401">
        <ele>356.136</ele>
        <time>2021-04-06T09:17:27Z</time>
      </trkpt>
      <trkpt lat="43.148558" lon="-2.294395">
        <ele>356.119</ele>
        <time>2021-04-06T09:17:28Z</time>
      </trkpt>
      <trkpt lat="43.148586" lon="-2.294389">
        <ele>356.330</ele>
        <time>2021-04-06T09:17:29Z</time>
      </trkpt>
      <trkpt lat="43.148617" lon="-2.294381">
        <ele>356.335</ele>
        <time>2021-04-06T09:17:30Z</time>
      </trkpt>
      <trkpt lat="43.148645" lon="-2.294373">
        <ele>356.470</ele>
        <time>2021-04-06T09:17:31Z</time>
      </trkpt>
      <trkpt lat="43.148668" lon="-2.294368">
        <ele>356.528</ele>
        <time>2021-04-06T09:17:32Z</time>
      </trkpt>
      <trkpt lat="43.148696" lon="-2.294361">
        <ele>356.645</ele>
        <time>2021-04-06T09:17:33Z</time>
      </trkpt>
      <trkpt lat="43.148726" lon="-2.294349">
        <ele>356.583</ele>
        <time>2021-04-06T09:17:34Z</time>
      </trkpt>
      <trkpt lat="43.148751" lon="-2.294338">
        <ele>356.417</ele>
        <time>2021-04-06T09:17:35Z</time>
      </trkpt>
      <trkpt lat="43.148778" lon="-2.294327">
        <ele>356.387</ele>
        <time>2021-04-06T09:17:36Z</time>
      </trkpt>
      <trkpt lat="43.148804" lon="-2.294316">
        <ele>356.215</ele>
        <time>2021-04-06T09:17:37Z</time>
      </trkpt>
      <trkpt lat="43.148834" lon="-2.294301">
        <ele>356.008</ele>
        <time>2021-04-06T09:17:38Z</time>
      </trkpt>
      <trkpt lat="43.148859" lon="-2.294287">
        <ele>355.828</ele>
        <time>2021-04-06T09:17:39Z</time>
      </trkpt>
      <trkpt lat="43.148886" lon="-2.294275">
        <ele>355.671</ele>
        <time>2021-04-06T09:17:40Z</time>
      </trkpt>
      <trkpt lat="43.148911" lon="-2.294265">
        <ele>355.182</ele>
        <time>2021-04-06T09:17:41Z</time>
      </trkpt>
      <trkpt lat="43.148940" lon="-2.294257">
        <ele>354.537</ele>
        <time>2021-04-06T09:17:42Z</time>
      </trkpt>
      <trkpt lat="43.148968" lon="-2.294251">
        <ele>354.122</ele>
        <time>2021-04-06T09:17:43Z</time>
      </trkpt>
      <trkpt lat="43.149001" lon="-2.294247">
        <ele>353.780</ele>
        <time>2021-04-06T09:17:44Z</time>
      </trkpt>
      <trkpt lat="43.149036" lon="-2.294242">
        <ele>353.327</ele>
        <time>2021-04-06T09:17:45Z</time>
      </trkpt>
      <trkpt lat="43.149069" lon="-2.294239">
        <ele>353.045</ele>
        <time>2021-04-06T09:17:46Z</time>
      </trkpt>
      <trkpt lat="43.149103" lon="-2.294239">
        <ele>352.831</ele>
        <time>2021-04-06T09:17:47Z</time>
      </trkpt>
      <trkpt lat="43.149134" lon="-2.294242">
        <ele>352.761</ele>
        <time>2021-04-06T09:17:48Z</time>
      </trkpt>
      <trkpt lat="43.149163" lon="-2.294244">
        <ele>352.507</ele>
        <time>2021-04-06T09:17:49Z</time>
      </trkpt>
      <trkpt lat="43.149193" lon="-2.294249">
        <ele>352.108</ele>
        <time>2021-04-06T09:17:50Z</time>
      </trkpt>
      <trkpt lat="43.149226" lon="-2.294252">
        <ele>351.530</ele>
        <time>2021-04-06T09:17:51Z</time>
      </trkpt>
      <trkpt lat="43.149258" lon="-2.294254">
        <ele>350.943</ele>
        <time>2021-04-06T09:17:52Z</time>
      </trkpt>
      <trkpt lat="43.149319" lon="-2.294254">
        <ele>349.614</ele>
        <time>2021-04-06T09:17:54Z</time>
      </trkpt>
      <trkpt lat="43.149353" lon="-2.294252">
        <ele>348.829</ele>
        <time>2021-04-06T09:17:55Z</time>
      </trkpt>
      <trkpt lat="43.149385" lon="-2.294248">
        <ele>348.054</ele>
        <time>2021-04-06T09:17:56Z</time>
      </trkpt>
      <trkpt lat="43.149419" lon="-2.294240">
        <ele>347.162</ele>
        <time>2021-04-06T09:17:57Z</time>
      </trkpt>
      <trkpt lat="43.149453" lon="-2.294234">
        <ele>346.129</ele>
        <time>2021-04-06T09:17:58Z</time>
      </trkpt>
      <trkpt lat="43.149489" lon="-2.294233">
        <ele>344.417</ele>
        <time>2021-04-06T09:17:59Z</time>
      </trkpt>
      <trkpt lat="43.149526" lon="-2.294233">
        <ele>342.893</ele>
        <time>2021-04-06T09:18:00Z</time>
      </trkpt>
      <trkpt lat="43.149566" lon="-2.294237">
        <ele>341.165</ele>
        <time>2021-04-06T09:18:01Z</time>
      </trkpt>
      <trkpt lat="43.149602" lon="-2.294242">
        <ele>339.621</ele>
        <time>2021-04-06T09:18:02Z</time>
      </trkpt>
      <trkpt lat="43.149638" lon="-2.294258">
        <ele>338.408</ele>
        <time>2021-04-06T09:18:03Z</time>
      </trkpt>
      <trkpt lat="43.149672" lon="-2.294282">
        <ele>337.536</ele>
        <time>2021-04-06T09:18:04Z</time>
      </trkpt>
      <trkpt lat="43.149704" lon="-2.294308">
        <ele>336.999</ele>
        <time>2021-04-06T09:18:05Z</time>
      </trkpt>
      <trkpt lat="43.149734" lon="-2.294333">
        <ele>336.280</ele>
        <time>2021-04-06T09:18:06Z</time>
      </trkpt>
      <trkpt lat="43.149762" lon="-2.294359">
        <ele>335.415</ele>
        <time>2021-04-06T09:18:07Z</time>
      </trkpt>
      <trkpt lat="43.149787" lon="-2.294385">
        <ele>334.890</ele>
        <time>2021-04-06T09:18:08Z</time>
      </trkpt>
      <trkpt lat="43.149820" lon="-2.294414">
        <ele>333.868</ele>
        <time>2021-04-06T09:18:09Z</time>
      </trkpt>
      <trkpt lat="43.149849" lon="-2.294445">
        <ele>333.265</ele>
        <time>2021-04-06T09:18:10Z</time>
      </trkpt>
      <trkpt lat="43.149865" lon="-2.294480">
        <ele>333.033</ele>
        <time>2021-04-06T09:18:11Z</time>
      </trkpt>
      <trkpt lat="43.149891" lon="-2.294509">
        <ele>332.269</ele>
        <time>2021-04-06T09:18:12Z</time>
      </trkpt>
      <trkpt lat="43.149911" lon="-2.294539">
        <ele>331.704</ele>
        <time>2021-04-06T09:18:13Z</time>
      </trkpt>
      <trkpt lat="43.149934" lon="-2.294567">
        <ele>331.124</ele>
        <time>2021-04-06T09:18:14Z</time>
      </trkpt>
      <trkpt lat="43.149957" lon="-2.294595">
        <ele>330.508</ele>
        <time>2021-04-06T09:18:15Z</time>
      </trkpt>
      <trkpt lat="43.149973" lon="-2.294627">
        <ele>330.313</ele>
        <time>2021-04-06T09:18:16Z</time>
      </trkpt>
      <trkpt lat="43.149980" lon="-2.294665">
        <ele>330.896</ele>
        <time>2021-04-06T09:18:17Z</time>
      </trkpt>
      <trkpt lat="43.149997" lon="-2.294815">
        <ele>333.147</ele>
        <time>2021-04-06T09:18:21Z</time>
      </trkpt>
      <trkpt lat="43.150037" lon="-2.294936">
        <ele>335.332</ele>
        <time>2021-04-06T09:18:25Z</time>
      </trkpt>
      <trkpt lat="43.150118" lon="-2.294992">
        <ele>336.077</ele>
        <time>2021-04-06T09:18:28Z</time>
      </trkpt>
      <trkpt lat="43.150225" lon="-2.295028">
        <ele>336.115</ele>
        <time>2021-04-06T09:18:31Z</time>
      </trkpt>
      <trkpt lat="43.150328" lon="-2.295031">
        <ele>335.762</ele>
        <time>2021-04-06T09:18:34Z</time>
      </trkpt>
      <trkpt lat="43.150422" lon="-2.295052">
        <ele>335.920</ele>
        <time>2021-04-06T09:18:37Z</time>
      </trkpt>
      <trkpt lat="43.150452" lon="-2.295054">
        <ele>335.989</ele>
        <time>2021-04-06T09:18:38Z</time>
      </trkpt>
      <trkpt lat="43.150476" lon="-2.295047">
        <ele>335.706</ele>
        <time>2021-04-06T09:18:39Z</time>
      </trkpt>
      <trkpt lat="43.150496" lon="-2.295037">
        <ele>335.526</ele>
        <time>2021-04-06T09:18:40Z</time>
      </trkpt>
      <trkpt lat="43.150518" lon="-2.295019">
        <ele>335.208</ele>
        <time>2021-04-06T09:18:41Z</time>
      </trkpt>
      <trkpt lat="43.150546" lon="-2.294968">
        <ele>334.685</ele>
        <time>2021-04-06T09:18:43Z</time>
      </trkpt>
      <trkpt lat="43.150559" lon="-2.294940">
        <ele>334.378</ele>
        <time>2021-04-06T09:18:44Z</time>
      </trkpt>
      <trkpt lat="43.150580" lon="-2.294909">
        <ele>333.729</ele>
        <time>2021-04-06T09:18:45Z</time>
      </trkpt>
      <trkpt lat="43.150606" lon="-2.294872">
        <ele>333.074</ele>
        <time>2021-04-06T09:18:46Z</time>
      </trkpt>
      <trkpt lat="43.150628" lon="-2.294839">
        <ele>332.429</ele>
        <time>2021-04-06T09:18:47Z</time>
      </trkpt>
      <trkpt lat="43.150649" lon="-2.294813">
        <ele>332.017</ele>
        <time>2021-04-06T09:18:48Z</time>
      </trkpt>
      <trkpt lat="43.150740" lon="-2.294850">
        <ele>331.194</ele>
        <time>2021-04-06T09:18:53Z</time>
      </trkpt>
      <trkpt lat="43.150729" lon="-2.294830">
        <ele>331.272</ele>
        <time>2021-04-06T09:19:02Z</time>
      </trkpt>
      <trkpt lat="43.150730" lon="-2.294854">
        <ele>331.397</ele>
        <time>2021-04-06T09:19:31Z</time>
      </trkpt>
      <trkpt lat="43.150752" lon="-2.294878">
        <ele>331.123</ele>
        <time>2021-04-06T09:19:33Z</time>
      </trkpt>
      <trkpt lat="43.150780" lon="-2.294907">
        <ele>330.825</ele>
        <time>2021-04-06T09:19:35Z</time>
      </trkpt>
      <trkpt lat="43.150801" lon="-2.294937">
        <ele>330.508</ele>
        <time>2021-04-06T09:19:37Z</time>
      </trkpt>
      <trkpt lat="43.150818" lon="-2.294975">
        <ele>330.396</ele>
        <time>2021-04-06T09:19:39Z</time>
      </trkpt>
      <trkpt lat="43.150830" lon="-2.295021">
        <ele>330.199</ele>
        <time>2021-04-06T09:19:41Z</time>
      </trkpt>
      <trkpt lat="43.150838" lon="-2.295048">
        <ele>329.820</ele>
        <time>2021-04-06T09:19:42Z</time>
      </trkpt>
      <trkpt lat="43.150847" lon="-2.295076">
        <ele>329.565</ele>
        <time>2021-04-06T09:19:43Z</time>
      </trkpt>
      <trkpt lat="43.150858" lon="-2.295105">
        <ele>329.190</ele>
        <time>2021-04-06T09:19:44Z</time>
      </trkpt>
      <trkpt lat="43.150869" lon="-2.295141">
        <ele>328.818</ele>
        <time>2021-04-06T09:19:45Z</time>
      </trkpt>
      <trkpt lat="43.150872" lon="-2.295183">
        <ele>328.795</ele>
        <time>2021-04-06T09:19:46Z</time>
      </trkpt>
      <trkpt lat="43.150873" lon="-2.295229">
        <ele>328.783</ele>
        <time>2021-04-06T09:19:47Z</time>
      </trkpt>
      <trkpt lat="43.150875" lon="-2.295282">
        <ele>328.711</ele>
        <time>2021-04-06T09:19:48Z</time>
      </trkpt>
      <trkpt lat="43.150887" lon="-2.295331">
        <ele>328.921</ele>
        <time>2021-04-06T09:19:49Z</time>
      </trkpt>
      <trkpt lat="43.150899" lon="-2.295380">
        <ele>329.103</ele>
        <time>2021-04-06T09:19:50Z</time>
      </trkpt>
      <trkpt lat="43.150970" lon="-2.295499">
        <ele>328.408</ele>
        <time>2021-04-06T09:19:53Z</time>
      </trkpt>
      <trkpt lat="43.151058" lon="-2.295575">
        <ele>327.168</ele>
        <time>2021-04-06T09:19:56Z</time>
      </trkpt>
      <trkpt lat="43.151156" lon="-2.295630">
        <ele>326.591</ele>
        <time>2021-04-06T09:19:59Z</time>
      </trkpt>
      <trkpt lat="43.151189" lon="-2.295644">
        <ele>326.362</ele>
        <time>2021-04-06T09:20:00Z</time>
      </trkpt>
      <trkpt lat="43.151276" lon="-2.295660">
        <ele>325.477</ele>
        <time>2021-04-06T09:20:02Z</time>
      </trkpt>
      <trkpt lat="43.151320" lon="-2.295666">
        <ele>324.932</ele>
        <time>2021-04-06T09:20:03Z</time>
      </trkpt>
      <trkpt lat="43.151356" lon="-2.295671">
        <ele>324.450</ele>
        <time>2021-04-06T09:20:04Z</time>
      </trkpt>
      <trkpt lat="43.151391" lon="-2.295679">
        <ele>324.167</ele>
        <time>2021-04-06T09:20:05Z</time>
      </trkpt>
      <trkpt lat="43.151429" lon="-2.295684">
        <ele>323.665</ele>
        <time>2021-04-06T09:20:06Z</time>
      </trkpt>
      <trkpt lat="43.151465" lon="-2.295689">
        <ele>323.129</ele>
        <time>2021-04-06T09:20:07Z</time>
      </trkpt>
      <trkpt lat="43.151499" lon="-2.295694">
        <ele>322.700</ele>
        <time>2021-04-06T09:20:08Z</time>
      </trkpt>
      <trkpt lat="43.151539" lon="-2.295699">
        <ele>322.220</ele>
        <time>2021-04-06T09:20:09Z</time>
      </trkpt>
      <trkpt lat="43.151574" lon="-2.295709">
        <ele>321.808</ele>
        <time>2021-04-06T09:20:10Z</time>
      </trkpt>
      <trkpt lat="43.151612" lon="-2.295717">
        <ele>321.499</ele>
        <time>2021-04-06T09:20:11Z</time>
      </trkpt>
      <trkpt lat="43.151646" lon="-2.295723">
        <ele>321.032</ele>
        <time>2021-04-06T09:20:12Z</time>
      </trkpt>
      <trkpt lat="43.151682" lon="-2.295730">
        <ele>320.643</ele>
        <time>2021-04-06T09:20:13Z</time>
      </trkpt>
      <trkpt lat="43.151714" lon="-2.295737">
        <ele>320.588</ele>
        <time>2021-04-06T09:20:14Z</time>
      </trkpt>
      <trkpt lat="43.151819" lon="-2.295763">
        <ele>320.023</ele>
        <time>2021-04-06T09:20:17Z</time>
      </trkpt>
      <trkpt lat="43.151874" lon="-2.295797">
        <ele>320.141</ele>
        <time>2021-04-06T09:20:19Z</time>
      </trkpt>
      <trkpt lat="43.151906" lon="-2.295812">
        <ele>320.018</ele>
        <time>2021-04-06T09:20:20Z</time>
      </trkpt>
      <trkpt lat="43.151929" lon="-2.295814">
        <ele>319.896</ele>
        <time>2021-04-06T09:20:21Z</time>
      </trkpt>
      <trkpt lat="43.151956" lon="-2.295815">
        <ele>319.663</ele>
        <time>2021-04-06T09:20:22Z</time>
      </trkpt>
      <trkpt lat="43.152020" lon="-2.295790">
        <ele>318.844</ele>
        <time>2021-04-06T09:20:24Z</time>
      </trkpt>
      <trkpt lat="43.152057" lon="-2.295767">
        <ele>318.218</ele>
        <time>2021-04-06T09:20:25Z</time>
      </trkpt>
      <trkpt lat="43.152090" lon="-2.295735">
        <ele>317.608</ele>
        <time>2021-04-06T09:20:26Z</time>
      </trkpt>
      <trkpt lat="43.152126" lon="-2.295707">
        <ele>317.053</ele>
        <time>2021-04-06T09:20:27Z</time>
      </trkpt>
      <trkpt lat="43.152164" lon="-2.295677">
        <ele>316.576</ele>
        <time>2021-04-06T09:20:28Z</time>
      </trkpt>
      <trkpt lat="43.152198" lon="-2.295649">
        <ele>316.117</ele>
        <time>2021-04-06T09:20:29Z</time>
      </trkpt>
      <trkpt lat="43.152230" lon="-2.295626">
        <ele>315.782</ele>
        <time>2021-04-06T09:20:30Z</time>
      </trkpt>
      <trkpt lat="43.152259" lon="-2.295598">
        <ele>315.377</ele>
        <time>2021-04-06T09:20:31Z</time>
      </trkpt>
      <trkpt lat="43.152288" lon="-2.295570">
        <ele>314.985</ele>
        <time>2021-04-06T09:20:32Z</time>
      </trkpt>
      <trkpt lat="43.152313" lon="-2.295546">
        <ele>314.422</ele>
        <time>2021-04-06T09:20:33Z</time>
      </trkpt>
      <trkpt lat="43.152338" lon="-2.295524">
        <ele>313.810</ele>
        <time>2021-04-06T09:20:34Z</time>
      </trkpt>
      <trkpt lat="43.152364" lon="-2.295506">
        <ele>313.239</ele>
        <time>2021-04-06T09:20:35Z</time>
      </trkpt>
      <trkpt lat="43.152399" lon="-2.295489">
        <ele>312.801</ele>
        <time>2021-04-06T09:20:36Z</time>
      </trkpt>
      <trkpt lat="43.152431" lon="-2.295469">
        <ele>312.221</ele>
        <time>2021-04-06T09:20:37Z</time>
      </trkpt>
      <trkpt lat="43.152459" lon="-2.295447">
        <ele>311.708</ele>
        <time>2021-04-06T09:20:38Z</time>
      </trkpt>
      <trkpt lat="43.152488" lon="-2.295424">
        <ele>311.270</ele>
        <time>2021-04-06T09:20:39Z</time>
      </trkpt>
      <trkpt lat="43.152519" lon="-2.295403">
        <ele>310.633</ele>
        <time>2021-04-06T09:20:40Z</time>
      </trkpt>
      <trkpt lat="43.152548" lon="-2.295385">
        <ele>310.154</ele>
        <time>2021-04-06T09:20:41Z</time>
      </trkpt>
      <trkpt lat="43.152575" lon="-2.295355">
        <ele>309.499</ele>
        <time>2021-04-06T09:20:42Z</time>
      </trkpt>
      <trkpt lat="43.152601" lon="-2.295328">
        <ele>308.994</ele>
        <time>2021-04-06T09:20:43Z</time>
      </trkpt>
      <trkpt lat="43.152654" lon="-2.295278">
        <ele>308.032</ele>
        <time>2021-04-06T09:20:45Z</time>
      </trkpt>
      <trkpt lat="43.152675" lon="-2.295253">
        <ele>307.249</ele>
        <time>2021-04-06T09:20:46Z</time>
      </trkpt>
      <trkpt lat="43.152701" lon="-2.295228">
        <ele>306.447</ele>
        <time>2021-04-06T09:20:47Z</time>
      </trkpt>
      <trkpt lat="43.152728" lon="-2.295204">
        <ele>305.699</ele>
        <time>2021-04-06T09:20:48Z</time>
      </trkpt>
      <trkpt lat="43.152759" lon="-2.295187">
        <ele>305.107</ele>
        <time>2021-04-06T09:20:49Z</time>
      </trkpt>
      <trkpt lat="43.152790" lon="-2.295171">
        <ele>304.427</ele>
        <time>2021-04-06T09:20:50Z</time>
      </trkpt>
      <trkpt lat="43.152819" lon="-2.295156">
        <ele>303.508</ele>
        <time>2021-04-06T09:20:51Z</time>
      </trkpt>
      <trkpt lat="43.152847" lon="-2.295140">
        <ele>302.726</ele>
        <time>2021-04-06T09:20:52Z</time>
      </trkpt>
      <trkpt lat="43.152875" lon="-2.295127">
        <ele>301.939</ele>
        <time>2021-04-06T09:20:53Z</time>
      </trkpt>
      <trkpt lat="43.152904" lon="-2.295112">
        <ele>301.270</ele>
        <time>2021-04-06T09:20:54Z</time>
      </trkpt>
      <trkpt lat="43.152937" lon="-2.295100">
        <ele>300.515</ele>
        <time>2021-04-06T09:20:55Z</time>
      </trkpt>
      <trkpt lat="43.152974" lon="-2.295091">
        <ele>299.810</ele>
        <time>2021-04-06T09:20:56Z</time>
      </trkpt>
      <trkpt lat="43.153015" lon="-2.295079">
        <ele>299.178</ele>
        <time>2021-04-06T09:20:57Z</time>
      </trkpt>
      <trkpt lat="43.153059" lon="-2.295067">
        <ele>298.495</ele>
        <time>2021-04-06T09:20:58Z</time>
      </trkpt>
      <trkpt lat="43.153100" lon="-2.295044">
        <ele>297.743</ele>
        <time>2021-04-06T09:20:59Z</time>
      </trkpt>
      <trkpt lat="43.153138" lon="-2.295021">
        <ele>297.082</ele>
        <time>2021-04-06T09:21:00Z</time>
      </trkpt>
      <trkpt lat="43.153174" lon="-2.294994">
        <ele>296.443</ele>
        <time>2021-04-06T09:21:01Z</time>
      </trkpt>
      <trkpt lat="43.153210" lon="-2.294969">
        <ele>295.717</ele>
        <time>2021-04-06T09:21:02Z</time>
      </trkpt>
      <trkpt lat="43.153268" lon="-2.294928">
        <ele>294.808</ele>
        <time>2021-04-06T09:21:04Z</time>
      </trkpt>
      <trkpt lat="43.153301" lon="-2.294908">
        <ele>294.315</ele>
        <time>2021-04-06T09:21:05Z</time>
      </trkpt>
      <trkpt lat="43.153332" lon="-2.294892">
        <ele>294.198</ele>
        <time>2021-04-06T09:21:06Z</time>
      </trkpt>
      <trkpt lat="43.153361" lon="-2.294874">
        <ele>293.739</ele>
        <time>2021-04-06T09:21:07Z</time>
      </trkpt>
      <trkpt lat="43.153391" lon="-2.294855">
        <ele>293.354</ele>
        <time>2021-04-06T09:21:08Z</time>
      </trkpt>
      <trkpt lat="43.153418" lon="-2.294839">
        <ele>293.049</ele>
        <time>2021-04-06T09:21:09Z</time>
      </trkpt>
      <trkpt lat="43.153443" lon="-2.294828">
        <ele>292.877</ele>
        <time>2021-04-06T09:21:10Z</time>
      </trkpt>
      <trkpt lat="43.153472" lon="-2.294816">
        <ele>292.714</ele>
        <time>2021-04-06T09:21:11Z</time>
      </trkpt>
      <trkpt lat="43.153504" lon="-2.294802">
        <ele>292.582</ele>
        <time>2021-04-06T09:21:12Z</time>
      </trkpt>
      <trkpt lat="43.153533" lon="-2.294786">
        <ele>292.443</ele>
        <time>2021-04-06T09:21:13Z</time>
      </trkpt>
      <trkpt lat="43.153564" lon="-2.294770">
        <ele>292.364</ele>
        <time>2021-04-06T09:21:14Z</time>
      </trkpt>
      <trkpt lat="43.153593" lon="-2.294755">
        <ele>292.210</ele>
        <time>2021-04-06T09:21:15Z</time>
      </trkpt>
      <trkpt lat="43.153625" lon="-2.294739">
        <ele>292.108</ele>
        <time>2021-04-06T09:21:16Z</time>
      </trkpt>
      <trkpt lat="43.153655" lon="-2.294724">
        <ele>291.981</ele>
        <time>2021-04-06T09:21:17Z</time>
      </trkpt>
      <trkpt lat="43.153686" lon="-2.294706">
        <ele>291.244</ele>
        <time>2021-04-06T09:21:18Z</time>
      </trkpt>
      <trkpt lat="43.153720" lon="-2.294692">
        <ele>290.785</ele>
        <time>2021-04-06T09:21:19Z</time>
      </trkpt>
      <trkpt lat="43.153753" lon="-2.294677">
        <ele>290.360</ele>
        <time>2021-04-06T09:21:20Z</time>
      </trkpt>
      <trkpt lat="43.153785" lon="-2.294661">
        <ele>289.945</ele>
        <time>2021-04-06T09:21:21Z</time>
      </trkpt>
      <trkpt lat="43.153817" lon="-2.294644">
        <ele>289.543</ele>
        <time>2021-04-06T09:21:22Z</time>
      </trkpt>
      <trkpt lat="43.153849" lon="-2.294631">
        <ele>289.370</ele>
        <time>2021-04-06T09:21:23Z</time>
      </trkpt>
      <trkpt lat="43.153878" lon="-2.294619">
        <ele>289.138</ele>
        <time>2021-04-06T09:21:24Z</time>
      </trkpt>
      <trkpt lat="43.153909" lon="-2.294603">
        <ele>288.867</ele>
        <time>2021-04-06T09:21:25Z</time>
      </trkpt>
      <trkpt lat="43.153938" lon="-2.294589">
        <ele>288.581</ele>
        <time>2021-04-06T09:21:26Z</time>
      </trkpt>
      <trkpt lat="43.153968" lon="-2.294573">
        <ele>288.219</ele>
        <time>2021-04-06T09:21:27Z</time>
      </trkpt>
      <trkpt lat="43.153998" lon="-2.294558">
        <ele>288.008</ele>
        <time>2021-04-06T09:21:28Z</time>
      </trkpt>
      <trkpt lat="43.154030" lon="-2.294537">
        <ele>287.863</ele>
        <time>2021-04-06T09:21:29Z</time>
      </trkpt>
      <trkpt lat="43.154061" lon="-2.294521">
        <ele>287.836</ele>
        <time>2021-04-06T09:21:30Z</time>
      </trkpt>
      <trkpt lat="43.154092" lon="-2.294504">
        <ele>287.837</ele>
        <time>2021-04-06T09:21:31Z</time>
      </trkpt>
      <trkpt lat="43.154123" lon="-2.294486">
        <ele>287.852</ele>
        <time>2021-04-06T09:21:32Z</time>
      </trkpt>
      <trkpt lat="43.154152" lon="-2.294468">
        <ele>287.917</ele>
        <time>2021-04-06T09:21:33Z</time>
      </trkpt>
      <trkpt lat="43.154179" lon="-2.294446">
        <ele>288.095</ele>
        <time>2021-04-06T09:21:34Z</time>
      </trkpt>
      <trkpt lat="43.154207" lon="-2.294428">
        <ele>287.642</ele>
        <time>2021-04-06T09:21:35Z</time>
      </trkpt>
      <trkpt lat="43.154236" lon="-2.294411">
        <ele>287.210</ele>
        <time>2021-04-06T09:21:36Z</time>
      </trkpt>
      <trkpt lat="43.154264" lon="-2.294396">
        <ele>287.087</ele>
        <time>2021-04-06T09:21:37Z</time>
      </trkpt>
      <trkpt lat="43.154291" lon="-2.294383">
        <ele>286.742</ele>
        <time>2021-04-06T09:21:38Z</time>
      </trkpt>
      <trkpt lat="43.154322" lon="-2.294364">
        <ele>286.526</ele>
        <time>2021-04-06T09:21:39Z</time>
      </trkpt>
      <trkpt lat="43.154352" lon="-2.294348">
        <ele>286.308</ele>
        <time>2021-04-06T09:21:40Z</time>
      </trkpt>
      <trkpt lat="43.154379" lon="-2.294331">
        <ele>286.115</ele>
        <time>2021-04-06T09:21:41Z</time>
      </trkpt>
      <trkpt lat="43.154405" lon="-2.294318">
        <ele>286.088</ele>
        <time>2021-04-06T09:21:42Z</time>
      </trkpt>
      <trkpt lat="43.154433" lon="-2.294308">
        <ele>286.039</ele>
        <time>2021-04-06T09:21:43Z</time>
      </trkpt>
      <trkpt lat="43.154461" lon="-2.294296">
        <ele>285.874</ele>
        <time>2021-04-06T09:21:44Z</time>
      </trkpt>
      <trkpt lat="43.154489" lon="-2.294285">
        <ele>285.759</ele>
        <time>2021-04-06T09:21:45Z</time>
      </trkpt>
      <trkpt lat="43.154519" lon="-2.294276">
        <ele>285.577</ele>
        <time>2021-04-06T09:21:46Z</time>
      </trkpt>
      <trkpt lat="43.154550" lon="-2.294262">
        <ele>285.434</ele>
        <time>2021-04-06T09:21:47Z</time>
      </trkpt>
      <trkpt lat="43.154582" lon="-2.294249">
        <ele>285.242</ele>
        <time>2021-04-06T09:21:48Z</time>
      </trkpt>
      <trkpt lat="43.154615" lon="-2.294239">
        <ele>285.293</ele>
        <time>2021-04-06T09:21:49Z</time>
      </trkpt>
      <trkpt lat="43.154644" lon="-2.294226">
        <ele>285.165</ele>
        <time>2021-04-06T09:21:50Z</time>
      </trkpt>
      <trkpt lat="43.154673" lon="-2.294214">
        <ele>285.121</ele>
        <time>2021-04-06T09:21:51Z</time>
      </trkpt>
      <trkpt lat="43.154704" lon="-2.294202">
        <ele>285.108</ele>
        <time>2021-04-06T09:21:52Z</time>
      </trkpt>
      <trkpt lat="43.154735" lon="-2.294188">
        <ele>285.196</ele>
        <time>2021-04-06T09:21:53Z</time>
      </trkpt>
      <trkpt lat="43.154763" lon="-2.294176">
        <ele>285.019</ele>
        <time>2021-04-06T09:21:54Z</time>
      </trkpt>
      <trkpt lat="43.154795" lon="-2.294162">
        <ele>284.920</ele>
        <time>2021-04-06T09:21:55Z</time>
      </trkpt>
      <trkpt lat="43.154826" lon="-2.294146">
        <ele>284.575</ele>
        <time>2021-04-06T09:21:56Z</time>
      </trkpt>
      <trkpt lat="43.154854" lon="-2.294132">
        <ele>284.290</ele>
        <time>2021-04-06T09:21:57Z</time>
      </trkpt>
      <trkpt lat="43.154886" lon="-2.294112">
        <ele>283.938</ele>
        <time>2021-04-06T09:21:58Z</time>
      </trkpt>
      <trkpt lat="43.154916" lon="-2.294094">
        <ele>283.555</ele>
        <time>2021-04-06T09:21:59Z</time>
      </trkpt>
      <trkpt lat="43.154949" lon="-2.294071">
        <ele>283.213</ele>
        <time>2021-04-06T09:22:00Z</time>
      </trkpt>
      <trkpt lat="43.154978" lon="-2.294050">
        <ele>282.886</ele>
        <time>2021-04-06T09:22:01Z</time>
      </trkpt>
      <trkpt lat="43.155008" lon="-2.294034">
        <ele>282.660</ele>
        <time>2021-04-06T09:22:02Z</time>
      </trkpt>
      <trkpt lat="43.155039" lon="-2.294021">
        <ele>282.326</ele>
        <time>2021-04-06T09:22:03Z</time>
      </trkpt>
      <trkpt lat="43.155070" lon="-2.294009">
        <ele>282.008</ele>
        <time>2021-04-06T09:22:04Z</time>
      </trkpt>
      <trkpt lat="43.155100" lon="-2.294000">
        <ele>281.845</ele>
        <time>2021-04-06T09:22:05Z</time>
      </trkpt>
      <trkpt lat="43.155131" lon="-2.293990">
        <ele>281.588</ele>
        <time>2021-04-06T09:22:06Z</time>
      </trkpt>
      <trkpt lat="43.155162" lon="-2.293979">
        <ele>281.279</ele>
        <time>2021-04-06T09:22:07Z</time>
      </trkpt>
      <trkpt lat="43.155196" lon="-2.293972">
        <ele>281.034</ele>
        <time>2021-04-06T09:22:08Z</time>
      </trkpt>
      <trkpt lat="43.155229" lon="-2.293966">
        <ele>280.839</ele>
        <time>2021-04-06T09:22:09Z</time>
      </trkpt>
      <trkpt lat="43.155257" lon="-2.293966">
        <ele>280.737</ele>
        <time>2021-04-06T09:22:10Z</time>
      </trkpt>
      <trkpt lat="43.155291" lon="-2.293965">
        <ele>280.444</ele>
        <time>2021-04-06T09:22:11Z</time>
      </trkpt>
      <trkpt lat="43.155323" lon="-2.293970">
        <ele>279.842</ele>
        <time>2021-04-06T09:22:12Z</time>
      </trkpt>
      <trkpt lat="43.155352" lon="-2.293977">
        <ele>279.392</ele>
        <time>2021-04-06T09:22:13Z</time>
      </trkpt>
      <trkpt lat="43.155383" lon="-2.293987">
        <ele>278.973</ele>
        <time>2021-04-06T09:22:14Z</time>
      </trkpt>
      <trkpt lat="43.155413" lon="-2.293994">
        <ele>278.420</ele>
        <time>2021-04-06T09:22:15Z</time>
      </trkpt>
      <trkpt lat="43.155442" lon="-2.294006">
        <ele>278.108</ele>
        <time>2021-04-06T09:22:16Z</time>
      </trkpt>
      <trkpt lat="43.155469" lon="-2.294023">
        <ele>278.166</ele>
        <time>2021-04-06T09:22:17Z</time>
      </trkpt>
      <trkpt lat="43.155498" lon="-2.294038">
        <ele>277.989</ele>
        <time>2021-04-06T09:22:18Z</time>
      </trkpt>
      <trkpt lat="43.155521" lon="-2.294049">
        <ele>277.880</ele>
        <time>2021-04-06T09:22:19Z</time>
      </trkpt>
      <trkpt lat="43.155547" lon="-2.294065">
        <ele>277.915</ele>
        <time>2021-04-06T09:22:20Z</time>
      </trkpt>
      <trkpt lat="43.155571" lon="-2.294076">
        <ele>277.920</ele>
        <time>2021-04-06T09:22:21Z</time>
      </trkpt>
      <trkpt lat="43.155599" lon="-2.294087">
        <ele>277.968</ele>
        <time>2021-04-06T09:22:22Z</time>
      </trkpt>
      <trkpt lat="43.155628" lon="-2.294098">
        <ele>278.095</ele>
        <time>2021-04-06T09:22:23Z</time>
      </trkpt>
      <trkpt lat="43.155657" lon="-2.294108">
        <ele>278.053</ele>
        <time>2021-04-06T09:22:24Z</time>
      </trkpt>
      <trkpt lat="43.155690" lon="-2.294120">
        <ele>278.077</ele>
        <time>2021-04-06T09:22:25Z</time>
      </trkpt>
      <trkpt lat="43.155721" lon="-2.294129">
        <ele>278.061</ele>
        <time>2021-04-06T09:22:26Z</time>
      </trkpt>
      <trkpt lat="43.155752" lon="-2.294139">
        <ele>278.027</ele>
        <time>2021-04-06T09:22:27Z</time>
      </trkpt>
      <trkpt lat="43.155782" lon="-2.294144">
        <ele>277.808</ele>
        <time>2021-04-06T09:22:28Z</time>
      </trkpt>
      <trkpt lat="43.155812" lon="-2.294156">
        <ele>277.934</ele>
        <time>2021-04-06T09:22:29Z</time>
      </trkpt>
      <trkpt lat="43.155840" lon="-2.294171">
        <ele>278.097</ele>
        <time>2021-04-06T09:22:30Z</time>
      </trkpt>
      <trkpt lat="43.155868" lon="-2.294183">
        <ele>278.048</ele>
        <time>2021-04-06T09:22:31Z</time>
      </trkpt>
      <trkpt lat="43.155895" lon="-2.294189">
        <ele>278.013</ele>
        <time>2021-04-06T09:22:32Z</time>
      </trkpt>
      <trkpt lat="43.155918" lon="-2.294196">
        <ele>278.038</ele>
        <time>2021-04-06T09:22:33Z</time>
      </trkpt>
      <trkpt lat="43.155950" lon="-2.294195">
        <ele>278.026</ele>
        <time>2021-04-06T09:22:34Z</time>
      </trkpt>
      <trkpt lat="43.155990" lon="-2.294178">
        <ele>278.073</ele>
        <time>2021-04-06T09:22:35Z</time>
      </trkpt>
      <trkpt lat="43.156020" lon="-2.294163">
        <ele>277.971</ele>
        <time>2021-04-06T09:22:36Z</time>
      </trkpt>
      <trkpt lat="43.156056" lon="-2.294148">
        <ele>277.497</ele>
        <time>2021-04-06T09:22:37Z</time>
      </trkpt>
      <trkpt lat="43.156109" lon="-2.294134">
        <ele>277.123</ele>
        <time>2021-04-06T09:22:39Z</time>
      </trkpt>
      <trkpt lat="43.156136" lon="-2.294133">
        <ele>277.025</ele>
        <time>2021-04-06T09:22:40Z</time>
      </trkpt>
      <trkpt lat="43.156157" lon="-2.294134">
        <ele>277.008</ele>
        <time>2021-04-06T09:22:41Z</time>
      </trkpt>
      <trkpt lat="43.156185" lon="-2.294131">
        <ele>276.916</ele>
        <time>2021-04-06T09:22:42Z</time>
      </trkpt>
      <trkpt lat="43.156210" lon="-2.294127">
        <ele>276.869</ele>
        <time>2021-04-06T09:22:43Z</time>
      </trkpt>
      <trkpt lat="43.156235" lon="-2.294120">
        <ele>276.560</ele>
        <time>2021-04-06T09:22:44Z</time>
      </trkpt>
      <trkpt lat="43.156266" lon="-2.294117">
        <ele>276.485</ele>
        <time>2021-04-06T09:22:45Z</time>
      </trkpt>
      <trkpt lat="43.156301" lon="-2.294118">
        <ele>276.420</ele>
        <time>2021-04-06T09:22:46Z</time>
      </trkpt>
      <trkpt lat="43.156333" lon="-2.294123">
        <ele>276.538</ele>
        <time>2021-04-06T09:22:47Z</time>
      </trkpt>
      <trkpt lat="43.156365" lon="-2.294127">
        <ele>276.655</ele>
        <time>2021-04-06T09:22:48Z</time>
      </trkpt>
      <trkpt lat="43.156400" lon="-2.294132">
        <ele>276.723</ele>
        <time>2021-04-06T09:22:49Z</time>
      </trkpt>
      <trkpt lat="43.156436" lon="-2.294131">
        <ele>276.656</ele>
        <time>2021-04-06T09:22:50Z</time>
      </trkpt>
      <trkpt lat="43.156469" lon="-2.294123">
        <ele>276.259</ele>
        <time>2021-04-06T09:22:51Z</time>
      </trkpt>
      <trkpt lat="43.156490" lon="-2.294110">
        <ele>275.714</ele>
        <time>2021-04-06T09:22:52Z</time>
      </trkpt>
      <trkpt lat="43.156514" lon="-2.294094">
        <ele>275.108</ele>
        <time>2021-04-06T09:22:53Z</time>
      </trkpt>
      <trkpt lat="43.156536" lon="-2.294083">
        <ele>274.642</ele>
        <time>2021-04-06T09:22:54Z</time>
      </trkpt>
      <trkpt lat="43.156560" lon="-2.294075">
        <ele>274.315</ele>
        <time>2021-04-06T09:22:55Z</time>
      </trkpt>
      <trkpt lat="43.156589" lon="-2.294067">
        <ele>273.916</ele>
        <time>2021-04-06T09:22:56Z</time>
      </trkpt>
      <trkpt lat="43.156613" lon="-2.294061">
        <ele>273.761</ele>
        <time>2021-04-06T09:22:57Z</time>
      </trkpt>
      <trkpt lat="43.156639" lon="-2.294057">
        <ele>273.566</ele>
        <time>2021-04-06T09:22:58Z</time>
      </trkpt>
      <trkpt lat="43.156667" lon="-2.294052">
        <ele>273.354</ele>
        <time>2021-04-06T09:22:59Z</time>
      </trkpt>
      <trkpt lat="43.156696" lon="-2.294053">
        <ele>273.161</ele>
        <time>2021-04-06T09:23:00Z</time>
      </trkpt>
      <trkpt lat="43.156726" lon="-2.294052">
        <ele>272.969</ele>
        <time>2021-04-06T09:23:01Z</time>
      </trkpt>
      <trkpt lat="43.156759" lon="-2.294054">
        <ele>272.715</ele>
        <time>2021-04-06T09:23:02Z</time>
      </trkpt>
      <trkpt lat="43.156791" lon="-2.294047">
        <ele>272.365</ele>
        <time>2021-04-06T09:23:03Z</time>
      </trkpt>
      <trkpt lat="43.156821" lon="-2.294045">
        <ele>272.011</ele>
        <time>2021-04-06T09:23:04Z</time>
      </trkpt>
      <trkpt lat="43.156848" lon="-2.294052">
        <ele>272.108</ele>
        <time>2021-04-06T09:23:05Z</time>
      </trkpt>
      <trkpt lat="43.156882" lon="-2.294057">
        <ele>272.188</ele>
        <time>2021-04-06T09:23:06Z</time>
      </trkpt>
      <trkpt lat="43.156920" lon="-2.294064">
        <ele>272.171</ele>
        <time>2021-04-06T09:23:07Z</time>
      </trkpt>
      <trkpt lat="43.156954" lon="-2.294069">
        <ele>272.112</ele>
        <time>2021-04-06T09:23:08Z</time>
      </trkpt>
      <trkpt lat="43.156987" lon="-2.294075">
        <ele>272.017</ele>
        <time>2021-04-06T09:23:09Z</time>
      </trkpt>
      <trkpt lat="43.157024" lon="-2.294084">
        <ele>272.192</ele>
        <time>2021-04-06T09:23:10Z</time>
      </trkpt>
      <trkpt lat="43.157063" lon="-2.294102">
        <ele>272.590</ele>
        <time>2021-04-06T09:23:11Z</time>
      </trkpt>
      <trkpt lat="43.157102" lon="-2.294117">
        <ele>272.817</ele>
        <time>2021-04-06T09:23:12Z</time>
      </trkpt>
      <trkpt lat="43.157131" lon="-2.294133">
        <ele>273.285</ele>
        <time>2021-04-06T09:23:13Z</time>
      </trkpt>
      <trkpt lat="43.157158" lon="-2.294147">
        <ele>273.683</ele>
        <time>2021-04-06T09:23:14Z</time>
      </trkpt>
      <trkpt lat="43.157186" lon="-2.294157">
        <ele>273.825</ele>
        <time>2021-04-06T09:23:15Z</time>
      </trkpt>
      <trkpt lat="43.157210" lon="-2.294164">
        <ele>274.017</ele>
        <time>2021-04-06T09:23:16Z</time>
      </trkpt>
      <trkpt lat="43.157236" lon="-2.294175">
        <ele>274.108</ele>
        <time>2021-04-06T09:23:17Z</time>
      </trkpt>
      <trkpt lat="43.157258" lon="-2.294185">
        <ele>274.265</ele>
        <time>2021-04-06T09:23:18Z</time>
      </trkpt>
      <trkpt lat="43.157275" lon="-2.294198">
        <ele>274.318</ele>
        <time>2021-04-06T09:23:19Z</time>
      </trkpt>
      <trkpt lat="43.157298" lon="-2.294204">
        <ele>274.419</ele>
        <time>2021-04-06T09:23:20Z</time>
      </trkpt>
      <trkpt lat="43.157323" lon="-2.294209">
        <ele>274.584</ele>
        <time>2021-04-06T09:23:21Z</time>
      </trkpt>
      <trkpt lat="43.157345" lon="-2.294213">
        <ele>274.519</ele>
        <time>2021-04-06T09:23:22Z</time>
      </trkpt>
      <trkpt lat="43.157365" lon="-2.294216">
        <ele>274.677</ele>
        <time>2021-04-06T09:23:23Z</time>
      </trkpt>
      <trkpt lat="43.157384" lon="-2.294219">
        <ele>274.614</ele>
        <time>2021-04-06T09:23:24Z</time>
      </trkpt>
      <trkpt lat="43.157407" lon="-2.294224">
        <ele>274.792</ele>
        <time>2021-04-06T09:23:25Z</time>
      </trkpt>
      <trkpt lat="43.157433" lon="-2.294229">
        <ele>274.812</ele>
        <time>2021-04-06T09:23:26Z</time>
      </trkpt>
      <trkpt lat="43.157456" lon="-2.294232">
        <ele>274.932</ele>
        <time>2021-04-06T09:23:27Z</time>
      </trkpt>
      <trkpt lat="43.157482" lon="-2.294236">
        <ele>275.005</ele>
        <time>2021-04-06T09:23:28Z</time>
      </trkpt>
      <trkpt lat="43.157512" lon="-2.294241">
        <ele>275.108</ele>
        <time>2021-04-06T09:23:29Z</time>
      </trkpt>
      <trkpt lat="43.157542" lon="-2.294244">
        <ele>275.188</ele>
        <time>2021-04-06T09:23:30Z</time>
      </trkpt>
      <trkpt lat="43.157570" lon="-2.294248">
        <ele>275.161</ele>
        <time>2021-04-06T09:23:31Z</time>
      </trkpt>
      <trkpt lat="43.157593" lon="-2.294258">
        <ele>275.332</ele>
        <time>2021-04-06T09:23:32Z</time>
      </trkpt>
      <trkpt lat="43.157613" lon="-2.294272">
        <ele>275.797</ele>
        <time>2021-04-06T09:23:33Z</time>
      </trkpt>
      <trkpt lat="43.157630" lon="-2.294283">
        <ele>276.062</ele>
        <time>2021-04-06T09:23:34Z</time>
      </trkpt>
      <trkpt lat="43.157652" lon="-2.294295">
        <ele>276.480</ele>
        <time>2021-04-06T09:23:35Z</time>
      </trkpt>
      <trkpt lat="43.157673" lon="-2.294310">
        <ele>276.887</ele>
        <time>2021-04-06T09:23:36Z</time>
      </trkpt>
      <trkpt lat="43.157694" lon="-2.294322">
        <ele>277.275</ele>
        <time>2021-04-06T09:23:37Z</time>
      </trkpt>
      <trkpt lat="43.157710" lon="-2.294332">
        <ele>277.669</ele>
        <time>2021-04-06T09:23:38Z</time>
      </trkpt>
      <trkpt lat="43.157727" lon="-2.294341">
        <ele>277.904</ele>
        <time>2021-04-06T09:23:39Z</time>
      </trkpt>
      <trkpt lat="43.157760" lon="-2.294351">
        <ele>278.324</ele>
        <time>2021-04-06T09:23:41Z</time>
      </trkpt>
      <trkpt lat="43.157778" lon="-2.294354">
        <ele>278.408</ele>
        <time>2021-04-06T09:23:42Z</time>
      </trkpt>
      <trkpt lat="43.157794" lon="-2.294359">
        <ele>278.883</ele>
        <time>2021-04-06T09:23:43Z</time>
      </trkpt>
      <trkpt lat="43.157825" lon="-2.294375">
        <ele>279.746</ele>
        <time>2021-04-06T09:23:45Z</time>
      </trkpt>
      <trkpt lat="43.157855" lon="-2.294383">
        <ele>280.327</ele>
        <time>2021-04-06T09:23:47Z</time>
      </trkpt>
      <trkpt lat="43.157885" lon="-2.294391">
        <ele>280.982</ele>
        <time>2021-04-06T09:23:49Z</time>
      </trkpt>
      <trkpt lat="43.157913" lon="-2.294394">
        <ele>281.287</ele>
        <time>2021-04-06T09:23:51Z</time>
      </trkpt>
      <trkpt lat="43.157940" lon="-2.294400">
        <ele>281.715</ele>
        <time>2021-04-06T09:23:53Z</time>
      </trkpt>
      <trkpt lat="43.157967" lon="-2.294404">
        <ele>282.142</ele>
        <time>2021-04-06T09:23:55Z</time>
      </trkpt>
      <trkpt lat="43.157989" lon="-2.294405">
        <ele>282.360</ele>
        <time>2021-04-06T09:23:57Z</time>
      </trkpt>
      <trkpt lat="43.158015" lon="-2.294409">
        <ele>282.622</ele>
        <time>2021-04-06T09:23:59Z</time>
      </trkpt>
      <trkpt lat="43.158044" lon="-2.294415">
        <ele>283.162</ele>
        <time>2021-04-06T09:24:01Z</time>
      </trkpt>
      <trkpt lat="43.158074" lon="-2.294412">
        <ele>283.308</ele>
        <time>2021-04-06T09:24:03Z</time>
      </trkpt>
      <trkpt lat="43.158097" lon="-2.294411">
        <ele>283.708</ele>
        <time>2021-04-06T09:24:05Z</time>
      </trkpt>
      <trkpt lat="43.158123" lon="-2.294417">
        <ele>284.219</ele>
        <time>2021-04-06T09:24:07Z</time>
      </trkpt>
      <trkpt lat="43.158149" lon="-2.294414">
        <ele>284.522</ele>
        <time>2021-04-06T09:24:09Z</time>
      </trkpt>
      <trkpt lat="43.158174" lon="-2.294418">
        <ele>285.083</ele>
        <time>2021-04-06T09:24:11Z</time>
      </trkpt>
      <trkpt lat="43.158199" lon="-2.294430">
        <ele>285.748</ele>
        <time>2021-04-06T09:24:13Z</time>
      </trkpt>
      <trkpt lat="43.158219" lon="-2.294442">
        <ele>286.343</ele>
        <time>2021-04-06T09:24:15Z</time>
      </trkpt>
      <trkpt lat="43.158239" lon="-2.294456">
        <ele>286.761</ele>
        <time>2021-04-06T09:24:17Z</time>
      </trkpt>
      <trkpt lat="43.158264" lon="-2.294469">
        <ele>287.118</ele>
        <time>2021-04-06T09:24:19Z</time>
      </trkpt>
      <trkpt lat="43.158289" lon="-2.294487">
        <ele>287.586</ele>
        <time>2021-04-06T09:24:21Z</time>
      </trkpt>
      <trkpt lat="43.158314" lon="-2.294504">
        <ele>287.974</ele>
        <time>2021-04-06T09:24:23Z</time>
      </trkpt>
      <trkpt lat="43.158342" lon="-2.294521">
        <ele>288.456</ele>
        <time>2021-04-06T09:24:25Z</time>
      </trkpt>
      <trkpt lat="43.158367" lon="-2.294535">
        <ele>288.921</ele>
        <time>2021-04-06T09:24:27Z</time>
      </trkpt>
      <trkpt lat="43.158390" lon="-2.294555">
        <ele>289.408</ele>
        <time>2021-04-06T09:24:29Z</time>
      </trkpt>
      <trkpt lat="43.158414" lon="-2.294573">
        <ele>289.954</ele>
        <time>2021-04-06T09:24:31Z</time>
      </trkpt>
      <trkpt lat="43.158440" lon="-2.294586">
        <ele>290.487</ele>
        <time>2021-04-06T09:24:33Z</time>
      </trkpt>
      <trkpt lat="43.158465" lon="-2.294597">
        <ele>290.968</ele>
        <time>2021-04-06T09:24:35Z</time>
      </trkpt>
      <trkpt lat="43.158489" lon="-2.294605">
        <ele>291.493</ele>
        <time>2021-04-06T09:24:37Z</time>
      </trkpt>
      <trkpt lat="43.158518" lon="-2.294598">
        <ele>291.918</ele>
        <time>2021-04-06T09:24:39Z</time>
      </trkpt>
      <trkpt lat="43.158540" lon="-2.294581">
        <ele>292.276</ele>
        <time>2021-04-06T09:24:41Z</time>
      </trkpt>
      <trkpt lat="43.158557" lon="-2.294553">
        <ele>292.483</ele>
        <time>2021-04-06T09:24:43Z</time>
      </trkpt>
      <trkpt lat="43.158575" lon="-2.294531">
        <ele>292.711</ele>
        <time>2021-04-06T09:24:45Z</time>
      </trkpt>
      <trkpt lat="43.158593" lon="-2.294514">
        <ele>292.971</ele>
        <time>2021-04-06T09:24:47Z</time>
      </trkpt>
      <trkpt lat="43.158615" lon="-2.294501">
        <ele>293.241</ele>
        <time>2021-04-06T09:24:49Z</time>
      </trkpt>
      <trkpt lat="43.158644" lon="-2.294491">
        <ele>293.515</ele>
        <time>2021-04-06T09:24:51Z</time>
      </trkpt>
      <trkpt lat="43.158671" lon="-2.294484">
        <ele>293.808</ele>
        <time>2021-04-06T09:24:53Z</time>
      </trkpt>
      <trkpt lat="43.158696" lon="-2.294478">
        <ele>294.094</ele>
        <time>2021-04-06T09:24:55Z</time>
      </trkpt>
      <trkpt lat="43.158720" lon="-2.294478">
        <ele>294.287</ele>
        <time>2021-04-06T09:24:57Z</time>
      </trkpt>
      <trkpt lat="43.158747" lon="-2.294479">
        <ele>294.528</ele>
        <time>2021-04-06T09:24:59Z</time>
      </trkpt>
      <trkpt lat="43.158775" lon="-2.294482">
        <ele>294.893</ele>
        <time>2021-04-06T09:25:01Z</time>
      </trkpt>
      <trkpt lat="43.158804" lon="-2.294479">
        <ele>295.088</ele>
        <time>2021-04-06T09:25:03Z</time>
      </trkpt>
      <trkpt lat="43.158831" lon="-2.294483">
        <ele>295.476</ele>
        <time>2021-04-06T09:25:05Z</time>
      </trkpt>
      <trkpt lat="43.158857" lon="-2.294492">
        <ele>295.933</ele>
        <time>2021-04-06T09:25:07Z</time>
      </trkpt>
      <trkpt lat="43.158884" lon="-2.294498">
        <ele>296.371</ele>
        <time>2021-04-06T09:25:09Z</time>
      </trkpt>
      <trkpt lat="43.158914" lon="-2.294508">
        <ele>296.963</ele>
        <time>2021-04-06T09:25:11Z</time>
      </trkpt>
      <trkpt lat="43.158948" lon="-2.294518">
        <ele>297.744</ele>
        <time>2021-04-06T09:25:13Z</time>
      </trkpt>
      <trkpt lat="43.158972" lon="-2.294521">
        <ele>298.118</ele>
        <time>2021-04-06T09:25:14Z</time>
      </trkpt>
      <trkpt lat="43.158999" lon="-2.294522">
        <ele>298.508</ele>
        <time>2021-04-06T09:25:15Z</time>
      </trkpt>
      <trkpt lat="43.159030" lon="-2.294522">
        <ele>298.943</ele>
        <time>2021-04-06T09:25:16Z</time>
      </trkpt>
      <trkpt lat="43.159063" lon="-2.294518">
        <ele>299.286</ele>
        <time>2021-04-06T09:25:17Z</time>
      </trkpt>
      <trkpt lat="43.159093" lon="-2.294511">
        <ele>299.447</ele>
        <time>2021-04-06T09:25:18Z</time>
      </trkpt>
      <trkpt lat="43.159121" lon="-2.294501">
        <ele>299.452</ele>
        <time>2021-04-06T09:25:19Z</time>
      </trkpt>
      <trkpt lat="43.159143" lon="-2.294492">
        <ele>299.427</ele>
        <time>2021-04-06T09:25:20Z</time>
      </trkpt>
      <trkpt lat="43.159162" lon="-2.294481">
        <ele>299.325</ele>
        <time>2021-04-06T09:25:21Z</time>
      </trkpt>
      <trkpt lat="43.159191" lon="-2.294458">
        <ele>299.422</ele>
        <time>2021-04-06T09:25:23Z</time>
      </trkpt>
      <trkpt lat="43.159208" lon="-2.294441">
        <ele>299.440</ele>
        <time>2021-04-06T09:25:24Z</time>
      </trkpt>
      <trkpt lat="43.159228" lon="-2.294422">
        <ele>299.612</ele>
        <time>2021-04-06T09:25:25Z</time>
      </trkpt>
      <trkpt lat="43.159245" lon="-2.294401">
        <ele>299.632</ele>
        <time>2021-04-06T09:25:26Z</time>
      </trkpt>
      <trkpt lat="43.159259" lon="-2.294378">
        <ele>299.405</ele>
        <time>2021-04-06T09:25:27Z</time>
      </trkpt>
      <trkpt lat="43.159275" lon="-2.294355">
        <ele>299.308</ele>
        <time>2021-04-06T09:25:28Z</time>
      </trkpt>
      <trkpt lat="43.159291" lon="-2.294335">
        <ele>299.258</ele>
        <time>2021-04-06T09:25:29Z</time>
      </trkpt>
      <trkpt lat="43.159307" lon="-2.294322">
        <ele>299.351</ele>
        <time>2021-04-06T09:25:30Z</time>
      </trkpt>
      <trkpt lat="43.159328" lon="-2.294309">
        <ele>299.552</ele>
        <time>2021-04-06T09:25:31Z</time>
      </trkpt>
      <trkpt lat="43.159347" lon="-2.294301">
        <ele>299.917</ele>
        <time>2021-04-06T09:25:32Z</time>
      </trkpt>
      <trkpt lat="43.159365" lon="-2.294293">
        <ele>300.242</ele>
        <time>2021-04-06T09:25:33Z</time>
      </trkpt>
      <trkpt lat="43.159386" lon="-2.294284">
        <ele>300.570</ele>
        <time>2021-04-06T09:25:34Z</time>
      </trkpt>
      <trkpt lat="43.159408" lon="-2.294274">
        <ele>300.877</ele>
        <time>2021-04-06T09:25:35Z</time>
      </trkpt>
      <trkpt lat="43.159428" lon="-2.294267">
        <ele>301.135</ele>
        <time>2021-04-06T09:25:36Z</time>
      </trkpt>
      <trkpt lat="43.159451" lon="-2.294257">
        <ele>301.479</ele>
        <time>2021-04-06T09:25:37Z</time>
      </trkpt>
      <trkpt lat="43.159471" lon="-2.294249">
        <ele>301.805</ele>
        <time>2021-04-06T09:25:38Z</time>
      </trkpt>
      <trkpt lat="43.159490" lon="-2.294241">
        <ele>302.025</ele>
        <time>2021-04-06T09:25:39Z</time>
      </trkpt>
      <trkpt lat="43.159510" lon="-2.294233">
        <ele>302.308</ele>
        <time>2021-04-06T09:25:40Z</time>
      </trkpt>
      <trkpt lat="43.159532" lon="-2.294224">
        <ele>302.734</ele>
        <time>2021-04-06T09:25:41Z</time>
      </trkpt>
      <trkpt lat="43.159562" lon="-2.294213">
        <ele>303.137</ele>
        <time>2021-04-06T09:25:43Z</time>
      </trkpt>
      <trkpt lat="43.159582" lon="-2.294204">
        <ele>303.418</ele>
        <time>2021-04-06T09:25:45Z</time>
      </trkpt>
      <trkpt lat="43.159610" lon="-2.294196">
        <ele>303.993</ele>
        <time>2021-04-06T09:25:47Z</time>
      </trkpt>
      <trkpt lat="43.159639" lon="-2.294186">
        <ele>304.348</ele>
        <time>2021-04-06T09:25:49Z</time>
      </trkpt>
      <trkpt lat="43.159670" lon="-2.294173">
        <ele>304.756</ele>
        <time>2021-04-06T09:25:51Z</time>
      </trkpt>
      <trkpt lat="43.159687" lon="-2.294164">
        <ele>304.943</ele>
        <time>2021-04-06T09:25:52Z</time>
      </trkpt>
      <trkpt lat="43.159702" lon="-2.294150">
        <ele>304.711</ele>
        <time>2021-04-06T09:25:53Z</time>
      </trkpt>
      <trkpt lat="43.159720" lon="-2.294135">
        <ele>304.681</ele>
        <time>2021-04-06T09:25:54Z</time>
      </trkpt>
      <trkpt lat="43.159740" lon="-2.294123">
        <ele>304.861</ele>
        <time>2021-04-06T09:25:55Z</time>
      </trkpt>
      <trkpt lat="43.159761" lon="-2.294106">
        <ele>304.917</ele>
        <time>2021-04-06T09:25:56Z</time>
      </trkpt>
      <trkpt lat="43.159784" lon="-2.294086">
        <ele>305.008</ele>
        <time>2021-04-06T09:25:57Z</time>
      </trkpt>
      <trkpt lat="43.159805" lon="-2.294066">
        <ele>304.965</ele>
        <time>2021-04-06T09:25:58Z</time>
      </trkpt>
      <trkpt lat="43.159828" lon="-2.294042">
        <ele>304.868</ele>
        <time>2021-04-06T09:25:59Z</time>
      </trkpt>
      <trkpt lat="43.159848" lon="-2.294015">
        <ele>304.439</ele>
        <time>2021-04-06T09:26:00Z</time>
      </trkpt>
      <trkpt lat="43.159866" lon="-2.293989">
        <ele>304.034</ele>
        <time>2021-04-06T09:26:01Z</time>
      </trkpt>
      <trkpt lat="43.159883" lon="-2.293961">
        <ele>303.569</ele>
        <time>2021-04-06T09:26:02Z</time>
      </trkpt>
      <trkpt lat="43.159901" lon="-2.293932">
        <ele>302.937</ele>
        <time>2021-04-06T09:26:03Z</time>
      </trkpt>
      <trkpt lat="43.159919" lon="-2.293903">
        <ele>302.444</ele>
        <time>2021-04-06T09:26:04Z</time>
      </trkpt>
      <trkpt lat="43.159939" lon="-2.293879">
        <ele>302.262</ele>
        <time>2021-04-06T09:26:05Z</time>
      </trkpt>
      <trkpt lat="43.159958" lon="-2.293852">
        <ele>301.832</ele>
        <time>2021-04-06T09:26:06Z</time>
      </trkpt>
      <trkpt lat="43.159979" lon="-2.293825">
        <ele>301.692</ele>
        <time>2021-04-06T09:26:07Z</time>
      </trkpt>
      <trkpt lat="43.159999" lon="-2.293801">
        <ele>301.511</ele>
        <time>2021-04-06T09:26:08Z</time>
      </trkpt>
      <trkpt lat="43.160022" lon="-2.293777">
        <ele>300.908</ele>
        <time>2021-04-06T09:26:09Z</time>
      </trkpt>
      <trkpt lat="43.160046" lon="-2.293753">
        <ele>300.440</ele>
        <time>2021-04-06T09:26:10Z</time>
      </trkpt>
      <trkpt lat="43.160071" lon="-2.293733">
        <ele>300.043</ele>
        <time>2021-04-06T09:26:11Z</time>
      </trkpt>
      <trkpt lat="43.160093" lon="-2.293713">
        <ele>299.534</ele>
        <time>2021-04-06T09:26:12Z</time>
      </trkpt>
      <trkpt lat="43.160117" lon="-2.293694">
        <ele>299.179</ele>
        <time>2021-04-06T09:26:13Z</time>
      </trkpt>
      <trkpt lat="43.160143" lon="-2.293684">
        <ele>299.124</ele>
        <time>2021-04-06T09:26:14Z</time>
      </trkpt>
      <trkpt lat="43.160175" lon="-2.293678">
        <ele>299.392</ele>
        <time>2021-04-06T09:26:15Z</time>
      </trkpt>
      <trkpt lat="43.160202" lon="-2.293674">
        <ele>299.629</ele>
        <time>2021-04-06T09:26:16Z</time>
      </trkpt>
      <trkpt lat="43.160224" lon="-2.293676">
        <ele>300.027</ele>
        <time>2021-04-06T09:26:17Z</time>
      </trkpt>
      <trkpt lat="43.160254" lon="-2.293681">
        <ele>300.748</ele>
        <time>2021-04-06T09:26:18Z</time>
      </trkpt>
      <trkpt lat="43.160279" lon="-2.293685">
        <ele>301.261</ele>
        <time>2021-04-06T09:26:19Z</time>
      </trkpt>
      <trkpt lat="43.160302" lon="-2.293689">
        <ele>301.617</ele>
        <time>2021-04-06T09:26:20Z</time>
      </trkpt>
      <trkpt lat="43.160327" lon="-2.293693">
        <ele>301.908</ele>
        <time>2021-04-06T09:26:21Z</time>
      </trkpt>
      <trkpt lat="43.160351" lon="-2.293698">
        <ele>302.331</ele>
        <time>2021-04-06T09:26:22Z</time>
      </trkpt>
      <trkpt lat="43.160374" lon="-2.293702">
        <ele>302.674</ele>
        <time>2021-04-06T09:26:23Z</time>
      </trkpt>
      <trkpt lat="43.160406" lon="-2.293707">
        <ele>303.095</ele>
        <time>2021-04-06T09:26:25Z</time>
      </trkpt>
      <trkpt lat="43.160437" lon="-2.293713">
        <ele>303.510</ele>
        <time>2021-04-06T09:26:27Z</time>
      </trkpt>
      <trkpt lat="43.160468" lon="-2.293721">
        <ele>304.095</ele>
        <time>2021-04-06T09:26:29Z</time>
      </trkpt>
      <trkpt lat="43.160500" lon="-2.293727">
        <ele>304.473</ele>
        <time>2021-04-06T09:26:31Z</time>
      </trkpt>
      <trkpt lat="43.160532" lon="-2.293737">
        <ele>304.920</ele>
        <time>2021-04-06T09:26:33Z</time>
      </trkpt>
      <trkpt lat="43.160563" lon="-2.293745">
        <ele>305.518</ele>
        <time>2021-04-06T09:26:35Z</time>
      </trkpt>
      <trkpt lat="43.160590" lon="-2.293753">
        <ele>306.215</ele>
        <time>2021-04-06T09:26:37Z</time>
      </trkpt>
      <trkpt lat="43.160618" lon="-2.293751">
        <ele>306.765</ele>
        <time>2021-04-06T09:26:39Z</time>
      </trkpt>
      <trkpt lat="43.160645" lon="-2.293751">
        <ele>307.111</ele>
        <time>2021-04-06T09:26:41Z</time>
      </trkpt>
      <trkpt lat="43.160676" lon="-2.293750">
        <ele>307.708</ele>
        <time>2021-04-06T09:26:43Z</time>
      </trkpt>
      <trkpt lat="43.160707" lon="-2.293750">
        <ele>308.218</ele>
        <time>2021-04-06T09:26:45Z</time>
      </trkpt>
      <trkpt lat="43.160733" lon="-2.293749">
        <ele>308.711</ele>
        <time>2021-04-06T09:26:47Z</time>
      </trkpt>
      <trkpt lat="43.160757" lon="-2.293749">
        <ele>309.152</ele>
        <time>2021-04-06T09:26:49Z</time>
      </trkpt>
      <trkpt lat="43.160783" lon="-2.293746">
        <ele>309.567</ele>
        <time>2021-04-06T09:26:51Z</time>
      </trkpt>
      <trkpt lat="43.160809" lon="-2.293736">
        <ele>309.742</ele>
        <time>2021-04-06T09:26:53Z</time>
      </trkpt>
      <trkpt lat="43.160835" lon="-2.293721">
        <ele>309.850</ele>
        <time>2021-04-06T09:26:55Z</time>
      </trkpt>
      <trkpt lat="43.160856" lon="-2.293697">
        <ele>309.827</ele>
        <time>2021-04-06T09:26:57Z</time>
      </trkpt>
      <trkpt lat="43.160876" lon="-2.293670">
        <ele>309.745</ele>
        <time>2021-04-06T09:26:59Z</time>
      </trkpt>
      <trkpt lat="43.160895" lon="-2.293643">
        <ele>309.447</ele>
        <time>2021-04-06T09:27:01Z</time>
      </trkpt>
      <trkpt lat="43.160905" lon="-2.293620">
        <ele>309.129</ele>
        <time>2021-04-06T09:27:03Z</time>
      </trkpt>
      <trkpt lat="43.160917" lon="-2.293607">
        <ele>309.021</ele>
        <time>2021-04-06T09:27:34Z</time>
      </trkpt>
      <trkpt lat="43.160940" lon="-2.293583">
        <ele>308.908</ele>
        <time>2021-04-06T09:27:36Z</time>
      </trkpt>
      <trkpt lat="43.160965" lon="-2.293551">
        <ele>308.521</ele>
        <time>2021-04-06T09:27:38Z</time>
      </trkpt>
      <trkpt lat="43.160989" lon="-2.293521">
        <ele>308.184</ele>
        <time>2021-04-06T09:27:40Z</time>
      </trkpt>
      <trkpt lat="43.161017" lon="-2.293501">
        <ele>307.915</ele>
        <time>2021-04-06T09:27:42Z</time>
      </trkpt>
      <trkpt lat="43.161045" lon="-2.293483">
        <ele>307.830</ele>
        <time>2021-04-06T09:27:44Z</time>
      </trkpt>
      <trkpt lat="43.161077" lon="-2.293464">
        <ele>307.615</ele>
        <time>2021-04-06T09:27:46Z</time>
      </trkpt>
      <trkpt lat="43.161096" lon="-2.293455">
        <ele>307.663</ele>
        <time>2021-04-06T09:27:47Z</time>
      </trkpt>
      <trkpt lat="43.161120" lon="-2.293447">
        <ele>307.610</ele>
        <time>2021-04-06T09:27:48Z</time>
      </trkpt>
      <trkpt lat="43.161145" lon="-2.293444">
        <ele>307.718</ele>
        <time>2021-04-06T09:27:49Z</time>
      </trkpt>
      <trkpt lat="43.161171" lon="-2.293446">
        <ele>307.958</ele>
        <time>2021-04-06T09:27:50Z</time>
      </trkpt>
      <trkpt lat="43.161199" lon="-2.293451">
        <ele>308.352</ele>
        <time>2021-04-06T09:27:51Z</time>
      </trkpt>
      <trkpt lat="43.161229" lon="-2.293455">
        <ele>308.717</ele>
        <time>2021-04-06T09:27:52Z</time>
      </trkpt>
      <trkpt lat="43.161258" lon="-2.293460">
        <ele>309.108</ele>
        <time>2021-04-06T09:27:53Z</time>
      </trkpt>
      <trkpt lat="43.161284" lon="-2.293464">
        <ele>309.582</ele>
        <time>2021-04-06T09:27:54Z</time>
      </trkpt>
      <trkpt lat="43.161303" lon="-2.293466">
        <ele>309.725</ele>
        <time>2021-04-06T09:27:55Z</time>
      </trkpt>
      <trkpt lat="43.161323" lon="-2.293469">
        <ele>309.986</ele>
        <time>2021-04-06T09:27:56Z</time>
      </trkpt>
      <trkpt lat="43.161344" lon="-2.293470">
        <ele>310.191</ele>
        <time>2021-04-06T09:27:57Z</time>
      </trkpt>
      <trkpt lat="43.161366" lon="-2.293476">
        <ele>310.596</ele>
        <time>2021-04-06T09:27:58Z</time>
      </trkpt>
      <trkpt lat="43.161389" lon="-2.293478">
        <ele>310.794</ele>
        <time>2021-04-06T09:27:59Z</time>
      </trkpt>
      <trkpt lat="43.161413" lon="-2.293477">
        <ele>311.581</ele>
        <time>2021-04-06T09:28:00Z</time>
      </trkpt>
      <trkpt lat="43.161438" lon="-2.293475">
        <ele>312.359</ele>
        <time>2021-04-06T09:28:02Z</time>
      </trkpt>
      <trkpt lat="43.161456" lon="-2.293484">
        <ele>313.242</ele>
        <time>2021-04-06T09:28:12Z</time>
      </trkpt>
      <trkpt lat="43.161474" lon="-2.293463">
        <ele>313.322</ele>
        <time>2021-04-06T09:28:15Z</time>
      </trkpt>
      <trkpt lat="43.161488" lon="-2.293428">
        <ele>313.014</ele>
        <time>2021-04-06T09:28:17Z</time>
      </trkpt>
      <trkpt lat="43.161503" lon="-2.293383">
        <ele>312.508</ele>
        <time>2021-04-06T09:28:19Z</time>
      </trkpt>
      <trkpt lat="43.161508" lon="-2.293357">
        <ele>312.131</ele>
        <time>2021-04-06T09:28:20Z</time>
      </trkpt>
      <trkpt lat="43.161517" lon="-2.293333">
        <ele>312.034</ele>
        <time>2021-04-06T09:28:21Z</time>
      </trkpt>
      <trkpt lat="43.161522" lon="-2.293305">
        <ele>312.145</ele>
        <time>2021-04-06T09:28:22Z</time>
      </trkpt>
      <trkpt lat="43.161527" lon="-2.293278">
        <ele>312.310</ele>
        <time>2021-04-06T09:28:23Z</time>
      </trkpt>
      <trkpt lat="43.161532" lon="-2.293251">
        <ele>312.445</ele>
        <time>2021-04-06T09:28:24Z</time>
      </trkpt>
      <trkpt lat="43.161537" lon="-2.293221">
        <ele>312.553</ele>
        <time>2021-04-06T09:28:25Z</time>
      </trkpt>
      <trkpt lat="43.161538" lon="-2.293185">
        <ele>312.470</ele>
        <time>2021-04-06T09:28:26Z</time>
      </trkpt>
      <trkpt lat="43.161536" lon="-2.293150">
        <ele>312.278</ele>
        <time>2021-04-06T09:28:27Z</time>
      </trkpt>
      <trkpt lat="43.161537" lon="-2.293117">
        <ele>312.119</ele>
        <time>2021-04-06T09:28:28Z</time>
      </trkpt>
      <trkpt lat="43.161540" lon="-2.293087">
        <ele>312.109</ele>
        <time>2021-04-06T09:28:29Z</time>
      </trkpt>
      <trkpt lat="43.161543" lon="-2.293058">
        <ele>312.119</ele>
        <time>2021-04-06T09:28:30Z</time>
      </trkpt>
      <trkpt lat="43.161546" lon="-2.293030">
        <ele>311.908</ele>
        <time>2021-04-06T09:28:31Z</time>
      </trkpt>
      <trkpt lat="43.161547" lon="-2.293005">
        <ele>311.788</ele>
        <time>2021-04-06T09:28:32Z</time>
      </trkpt>
      <trkpt lat="43.161549" lon="-2.292979">
        <ele>311.511</ele>
        <time>2021-04-06T09:28:33Z</time>
      </trkpt>
      <trkpt lat="43.161551" lon="-2.292948">
        <ele>311.332</ele>
        <time>2021-04-06T09:28:34Z</time>
      </trkpt>
      <trkpt lat="43.161562" lon="-2.292923">
        <ele>311.427</ele>
        <time>2021-04-06T09:28:35Z</time>
      </trkpt>
      <trkpt lat="43.161573" lon="-2.292892">
        <ele>311.532</ele>
        <time>2021-04-06T09:28:36Z</time>
      </trkpt>
      <trkpt lat="43.161582" lon="-2.292860">
        <ele>311.540</ele>
        <time>2021-04-06T09:28:37Z</time>
      </trkpt>
      <trkpt lat="43.161594" lon="-2.292830">
        <ele>311.767</ele>
        <time>2021-04-06T09:28:38Z</time>
      </trkpt>
      <trkpt lat="43.161599" lon="-2.292801">
        <ele>311.625</ele>
        <time>2021-04-06T09:28:39Z</time>
      </trkpt>
      <trkpt lat="43.161602" lon="-2.292770">
        <ele>311.286</ele>
        <time>2021-04-06T09:28:40Z</time>
      </trkpt>
      <trkpt lat="43.161610" lon="-2.292744">
        <ele>310.960</ele>
        <time>2021-04-06T09:28:41Z</time>
      </trkpt>
      <trkpt lat="43.161620" lon="-2.292714">
        <ele>310.526</ele>
        <time>2021-04-06T09:28:42Z</time>
      </trkpt>
      <trkpt lat="43.161631" lon="-2.292685">
        <ele>310.208</ele>
        <time>2021-04-06T09:28:43Z</time>
      </trkpt>
      <trkpt lat="43.161647" lon="-2.292662">
        <ele>310.345</ele>
        <time>2021-04-06T09:28:44Z</time>
      </trkpt>
      <trkpt lat="43.161664" lon="-2.292643">
        <ele>310.568</ele>
        <time>2021-04-06T09:28:45Z</time>
      </trkpt>
      <trkpt lat="43.161676" lon="-2.292620">
        <ele>310.489</ele>
        <time>2021-04-06T09:28:46Z</time>
      </trkpt>
      <trkpt lat="43.161694" lon="-2.292581">
        <ele>310.164</ele>
        <time>2021-04-06T09:28:48Z</time>
      </trkpt>
      <trkpt lat="43.161716" lon="-2.292552">
        <ele>310.119</ele>
        <time>2021-04-06T09:28:50Z</time>
      </trkpt>
      <trkpt lat="43.161732" lon="-2.292522">
        <ele>309.967</ele>
        <time>2021-04-06T09:28:52Z</time>
      </trkpt>
      <trkpt lat="43.161753" lon="-2.292485">
        <ele>309.794</ele>
        <time>2021-04-06T09:28:54Z</time>
      </trkpt>
      <trkpt lat="43.161766" lon="-2.292464">
        <ele>309.582</ele>
        <time>2021-04-06T09:28:55Z</time>
      </trkpt>
      <trkpt lat="43.161778" lon="-2.292447">
        <ele>309.489</ele>
        <time>2021-04-06T09:28:56Z</time>
      </trkpt>
      <trkpt lat="43.161801" lon="-2.292414">
        <ele>309.106</ele>
        <time>2021-04-06T09:28:58Z</time>
      </trkpt>
      <trkpt lat="43.161820" lon="-2.292383">
        <ele>308.626</ele>
        <time>2021-04-06T09:29:00Z</time>
      </trkpt>
      <trkpt lat="43.161839" lon="-2.292358">
        <ele>308.408</ele>
        <time>2021-04-06T09:29:02Z</time>
      </trkpt>
      <trkpt lat="43.161858" lon="-2.292339">
        <ele>308.255</ele>
        <time>2021-04-06T09:29:04Z</time>
      </trkpt>
      <trkpt lat="43.161883" lon="-2.292325">
        <ele>308.498</ele>
        <time>2021-04-06T09:29:08Z</time>
      </trkpt>
      <trkpt lat="43.161901" lon="-2.292315">
        <ele>308.559</ele>
        <time>2021-04-06T09:29:10Z</time>
      </trkpt>
      <trkpt lat="43.161924" lon="-2.292301">
        <ele>308.644</ele>
        <time>2021-04-06T09:29:12Z</time>
      </trkpt>
      <trkpt lat="43.161939" lon="-2.292281">
        <ele>308.249</ele>
        <time>2021-04-06T09:29:14Z</time>
      </trkpt>
      <trkpt lat="43.161959" lon="-2.292274">
        <ele>308.277</ele>
        <time>2021-04-06T09:29:16Z</time>
      </trkpt>
      <trkpt lat="43.161984" lon="-2.292260">
        <ele>307.974</ele>
        <time>2021-04-06T09:29:18Z</time>
      </trkpt>
      <trkpt lat="43.162014" lon="-2.292250">
        <ele>307.922</ele>
        <time>2021-04-06T09:29:20Z</time>
      </trkpt>
      <trkpt lat="43.162036" lon="-2.292247">
        <ele>308.082</ele>
        <time>2021-04-06T09:29:21Z</time>
      </trkpt>
      <trkpt lat="43.162055" lon="-2.292244">
        <ele>308.143</ele>
        <time>2021-04-06T09:29:22Z</time>
      </trkpt>
      <trkpt lat="43.162087" lon="-2.292242">
        <ele>308.417</ele>
        <time>2021-04-06T09:29:24Z</time>
      </trkpt>
      <trkpt lat="43.162104" lon="-2.292239">
        <ele>308.408</ele>
        <time>2021-04-06T09:29:25Z</time>
      </trkpt>
      <trkpt lat="43.162126" lon="-2.292238">
        <ele>308.695</ele>
        <time>2021-04-06T09:29:26Z</time>
      </trkpt>
      <trkpt lat="43.162148" lon="-2.292241">
        <ele>309.088</ele>
        <time>2021-04-06T09:29:27Z</time>
      </trkpt>
      <trkpt lat="43.162171" lon="-2.292243">
        <ele>309.329</ele>
        <time>2021-04-06T09:29:28Z</time>
      </trkpt>
      <trkpt lat="43.162190" lon="-2.292245">
        <ele>309.664</ele>
        <time>2021-04-06T09:29:29Z</time>
      </trkpt>
      <trkpt lat="43.162219" lon="-2.292252">
        <ele>310.249</ele>
        <time>2021-04-06T09:29:31Z</time>
      </trkpt>
      <trkpt lat="43.162243" lon="-2.292268">
        <ele>310.127</ele>
        <time>2021-04-06T09:29:34Z</time>
      </trkpt>
      <trkpt lat="43.162270" lon="-2.292279">
        <ele>309.414</ele>
        <time>2021-04-06T09:29:37Z</time>
      </trkpt>
      <trkpt lat="43.162291" lon="-2.292301">
        <ele>309.542</ele>
        <time>2021-04-06T09:29:39Z</time>
      </trkpt>
      <trkpt lat="43.162319" lon="-2.292325">
        <ele>309.498</ele>
        <time>2021-04-06T09:29:41Z</time>
      </trkpt>
      <trkpt lat="43.162334" lon="-2.292339">
        <ele>309.415</ele>
        <time>2021-04-06T09:29:42Z</time>
      </trkpt>
      <trkpt lat="43.162356" lon="-2.292355">
        <ele>309.226</ele>
        <time>2021-04-06T09:29:43Z</time>
      </trkpt>
      <trkpt lat="43.162374" lon="-2.292369">
        <ele>309.108</ele>
        <time>2021-04-06T09:29:44Z</time>
      </trkpt>
      <trkpt lat="43.162391" lon="-2.292387">
        <ele>309.296</ele>
        <time>2021-04-06T09:29:45Z</time>
      </trkpt>
      <trkpt lat="43.162410" lon="-2.292414">
        <ele>309.629</ele>
        <time>2021-04-06T09:29:46Z</time>
      </trkpt>
      <trkpt lat="43.162429" lon="-2.292436">
        <ele>309.960</ele>
        <time>2021-04-06T09:29:47Z</time>
      </trkpt>
      <trkpt lat="43.162447" lon="-2.292452">
        <ele>309.925</ele>
        <time>2021-04-06T09:29:48Z</time>
      </trkpt>
      <trkpt lat="43.162475" lon="-2.292489">
        <ele>310.530</ele>
        <time>2021-04-06T09:29:50Z</time>
      </trkpt>
      <trkpt lat="43.162495" lon="-2.292505">
        <ele>310.458</ele>
        <time>2021-04-06T09:29:51Z</time>
      </trkpt>
      <trkpt lat="43.162512" lon="-2.292524">
        <ele>310.975</ele>
        <time>2021-04-06T09:29:52Z</time>
      </trkpt>
      <trkpt lat="43.162531" lon="-2.292545">
        <ele>311.693</ele>
        <time>2021-04-06T09:29:53Z</time>
      </trkpt>
      <trkpt lat="43.162549" lon="-2.292570">
        <ele>312.438</ele>
        <time>2021-04-06T09:29:54Z</time>
      </trkpt>
      <trkpt lat="43.162607" lon="-2.292625">
        <ele>314.170</ele>
        <time>2021-04-06T09:29:57Z</time>
      </trkpt>
      <trkpt lat="43.162630" lon="-2.292627">
        <ele>313.817</ele>
        <time>2021-04-06T09:29:58Z</time>
      </trkpt>
      <trkpt lat="43.162651" lon="-2.292630">
        <ele>313.608</ele>
        <time>2021-04-06T09:29:59Z</time>
      </trkpt>
      <trkpt lat="43.162667" lon="-2.292653">
        <ele>314.590</ele>
        <time>2021-04-06T09:30:01Z</time>
      </trkpt>
      <trkpt lat="43.162702" lon="-2.292658">
        <ele>314.293</ele>
        <time>2021-04-06T09:30:04Z</time>
      </trkpt>
      <trkpt lat="43.162725" lon="-2.292645">
        <ele>313.234</ele>
        <time>2021-04-06T09:30:05Z</time>
      </trkpt>
      <trkpt lat="43.162759" lon="-2.292630">
        <ele>311.939</ele>
        <time>2021-04-06T09:30:07Z</time>
      </trkpt>
      <trkpt lat="43.162781" lon="-2.292623">
        <ele>311.354</ele>
        <time>2021-04-06T09:30:08Z</time>
      </trkpt>
      <trkpt lat="43.162812" lon="-2.292616">
        <ele>312.142</ele>
        <time>2021-04-06T09:30:10Z</time>
      </trkpt>
      <trkpt lat="43.162839" lon="-2.292615">
        <ele>313.059</ele>
        <time>2021-04-06T09:30:12Z</time>
      </trkpt>
      <trkpt lat="43.162866" lon="-2.292591">
        <ele>312.887</ele>
        <time>2021-04-06T09:30:14Z</time>
      </trkpt>
      <trkpt lat="43.162885" lon="-2.292581">
        <ele>312.989</ele>
        <time>2021-04-06T09:30:15Z</time>
      </trkpt>
      <trkpt lat="43.162921" lon="-2.292568">
        <ele>313.606</ele>
        <time>2021-04-06T09:30:17Z</time>
      </trkpt>
      <trkpt lat="43.162940" lon="-2.292556">
        <ele>313.726</ele>
        <time>2021-04-06T09:30:18Z</time>
      </trkpt>
      <trkpt lat="43.162963" lon="-2.292545">
        <ele>313.908</ele>
        <time>2021-04-06T09:30:19Z</time>
      </trkpt>
      <trkpt lat="43.162982" lon="-2.292534">
        <ele>314.175</ele>
        <time>2021-04-06T09:30:20Z</time>
      </trkpt>
      <trkpt lat="43.163003" lon="-2.292525">
        <ele>314.498</ele>
        <time>2021-04-06T09:30:21Z</time>
      </trkpt>
      <trkpt lat="43.163025" lon="-2.292517">
        <ele>314.889</ele>
        <time>2021-04-06T09:30:22Z</time>
      </trkpt>
      <trkpt lat="43.163053" lon="-2.292507">
        <ele>315.324</ele>
        <time>2021-04-06T09:30:23Z</time>
      </trkpt>
      <trkpt lat="43.163079" lon="-2.292494">
        <ele>315.659</ele>
        <time>2021-04-06T09:30:24Z</time>
      </trkpt>
      <trkpt lat="43.163099" lon="-2.292477">
        <ele>315.687</ele>
        <time>2021-04-06T09:30:25Z</time>
      </trkpt>
      <trkpt lat="43.163121" lon="-2.292462">
        <ele>315.874</ele>
        <time>2021-04-06T09:30:27Z</time>
      </trkpt>
      <trkpt lat="43.163141" lon="-2.292454">
        <ele>316.262</ele>
        <time>2021-04-06T09:30:28Z</time>
      </trkpt>
      <trkpt lat="43.163156" lon="-2.292444">
        <ele>316.439</ele>
        <time>2021-04-06T09:30:29Z</time>
      </trkpt>
      <trkpt lat="43.163176" lon="-2.292428">
        <ele>316.401</ele>
        <time>2021-04-06T09:30:30Z</time>
      </trkpt>
      <trkpt lat="43.163196" lon="-2.292413">
        <ele>316.521</ele>
        <time>2021-04-06T09:30:31Z</time>
      </trkpt>
      <trkpt lat="43.163214" lon="-2.292400">
        <ele>316.608</ele>
        <time>2021-04-06T09:30:32Z</time>
      </trkpt>
      <trkpt lat="43.163238" lon="-2.292387">
        <ele>316.950</ele>
        <time>2021-04-06T09:30:33Z</time>
      </trkpt>
      <trkpt lat="43.163257" lon="-2.292371">
        <ele>316.943</ele>
        <time>2021-04-06T09:30:34Z</time>
      </trkpt>
      <trkpt lat="43.163284" lon="-2.292345">
        <ele>316.824</ele>
        <time>2021-04-06T09:30:36Z</time>
      </trkpt>
      <trkpt lat="43.163303" lon="-2.292336">
        <ele>317.199</ele>
        <time>2021-04-06T09:30:37Z</time>
      </trkpt>
      <trkpt lat="43.163319" lon="-2.292329">
        <ele>317.474</ele>
        <time>2021-04-06T09:30:38Z</time>
      </trkpt>
      <trkpt lat="43.163345" lon="-2.292308">
        <ele>317.372</ele>
        <time>2021-04-06T09:30:40Z</time>
      </trkpt>
      <trkpt lat="43.163363" lon="-2.292302">
        <ele>317.579</ele>
        <time>2021-04-06T09:30:41Z</time>
      </trkpt>
      <trkpt lat="43.163380" lon="-2.292292">
        <ele>317.567</ele>
        <time>2021-04-06T09:30:42Z</time>
      </trkpt>
      <trkpt lat="43.163396" lon="-2.292276">
        <ele>317.196</ele>
        <time>2021-04-06T09:30:43Z</time>
      </trkpt>
      <trkpt lat="43.163411" lon="-2.292254">
        <ele>316.531</ele>
        <time>2021-04-06T09:30:44Z</time>
      </trkpt>
      <trkpt lat="43.163427" lon="-2.292230">
        <ele>315.724</ele>
        <time>2021-04-06T09:30:45Z</time>
      </trkpt>
      <trkpt lat="43.163441" lon="-2.292205">
        <ele>314.908</ele>
        <time>2021-04-06T09:30:46Z</time>
      </trkpt>
      <trkpt lat="43.163454" lon="-2.292186">
        <ele>314.336</ele>
        <time>2021-04-06T09:30:47Z</time>
      </trkpt>
      <trkpt lat="43.163477" lon="-2.292152">
        <ele>313.229</ele>
        <time>2021-04-06T09:30:49Z</time>
      </trkpt>
      <trkpt lat="43.163491" lon="-2.292132">
        <ele>312.690</ele>
        <time>2021-04-06T09:30:50Z</time>
      </trkpt>
      <trkpt lat="43.163506" lon="-2.292114">
        <ele>312.055</ele>
        <time>2021-04-06T09:30:51Z</time>
      </trkpt>
      <trkpt lat="43.163523" lon="-2.292095">
        <ele>311.540</ele>
        <time>2021-04-06T09:30:52Z</time>
      </trkpt>
      <trkpt lat="43.163542" lon="-2.292073">
        <ele>310.978</ele>
        <time>2021-04-06T09:30:53Z</time>
      </trkpt>
      <trkpt lat="43.163566" lon="-2.292056">
        <ele>310.625</ele>
        <time>2021-04-06T09:30:54Z</time>
      </trkpt>
      <trkpt lat="43.163591" lon="-2.292041">
        <ele>310.433</ele>
        <time>2021-04-06T09:30:55Z</time>
      </trkpt>
      <trkpt lat="43.163612" lon="-2.292022">
        <ele>309.949</ele>
        <time>2021-04-06T09:30:56Z</time>
      </trkpt>
      <trkpt lat="43.163627" lon="-2.292003">
        <ele>309.102</ele>
        <time>2021-04-06T09:30:57Z</time>
      </trkpt>
      <trkpt lat="43.163647" lon="-2.291982">
        <ele>308.222</ele>
        <time>2021-04-06T09:30:58Z</time>
      </trkpt>
      <trkpt lat="43.163669" lon="-2.291961">
        <ele>307.308</ele>
        <time>2021-04-06T09:30:59Z</time>
      </trkpt>
      <trkpt lat="43.163691" lon="-2.291940">
        <ele>306.431</ele>
        <time>2021-04-06T09:31:00Z</time>
      </trkpt>
      <trkpt lat="43.163709" lon="-2.291924">
        <ele>305.834</ele>
        <time>2021-04-06T09:31:01Z</time>
      </trkpt>
      <trkpt lat="43.163742" lon="-2.291907">
        <ele>305.325</ele>
        <time>2021-04-06T09:31:03Z</time>
      </trkpt>
      <trkpt lat="43.163759" lon="-2.291895">
        <ele>304.820</ele>
        <time>2021-04-06T09:31:04Z</time>
      </trkpt>
      <trkpt lat="43.163778" lon="-2.291881">
        <ele>304.385</ele>
        <time>2021-04-06T09:31:05Z</time>
      </trkpt>
      <trkpt lat="43.163798" lon="-2.291864">
        <ele>303.763</ele>
        <time>2021-04-06T09:31:06Z</time>
      </trkpt>
      <trkpt lat="43.163820" lon="-2.291846">
        <ele>303.040</ele>
        <time>2021-04-06T09:31:07Z</time>
      </trkpt>
      <trkpt lat="43.163846" lon="-2.291832">
        <ele>302.558</ele>
        <time>2021-04-06T09:31:08Z</time>
      </trkpt>
      <trkpt lat="43.163866" lon="-2.291814">
        <ele>301.881</ele>
        <time>2021-04-06T09:31:09Z</time>
      </trkpt>
      <trkpt lat="43.163887" lon="-2.291800">
        <ele>301.261</ele>
        <time>2021-04-06T09:31:10Z</time>
      </trkpt>
      <trkpt lat="43.163909" lon="-2.291785">
        <ele>300.517</ele>
        <time>2021-04-06T09:31:11Z</time>
      </trkpt>
      <trkpt lat="43.163925" lon="-2.291777">
        <ele>300.108</ele>
        <time>2021-04-06T09:31:12Z</time>
      </trkpt>
      <trkpt lat="43.163945" lon="-2.291766">
        <ele>299.665</ele>
        <time>2021-04-06T09:31:13Z</time>
      </trkpt>
      <trkpt lat="43.163963" lon="-2.291750">
        <ele>298.888</ele>
        <time>2021-04-06T09:31:14Z</time>
      </trkpt>
      <trkpt lat="43.163982" lon="-2.291740">
        <ele>298.349</ele>
        <time>2021-04-06T09:31:15Z</time>
      </trkpt>
      <trkpt lat="43.164006" lon="-2.291728">
        <ele>297.844</ele>
        <time>2021-04-06T09:31:16Z</time>
      </trkpt>
      <trkpt lat="43.164030" lon="-2.291713">
        <ele>297.179</ele>
        <time>2021-04-06T09:31:17Z</time>
      </trkpt>
      <trkpt lat="43.164053" lon="-2.291700">
        <ele>296.547</ele>
        <time>2021-04-06T09:31:18Z</time>
      </trkpt>
      <trkpt lat="43.164076" lon="-2.291685">
        <ele>295.814</ele>
        <time>2021-04-06T09:31:19Z</time>
      </trkpt>
      <trkpt lat="43.164091" lon="-2.291675">
        <ele>295.422</ele>
        <time>2021-04-06T09:31:20Z</time>
      </trkpt>
      <trkpt lat="43.164117" lon="-2.291667">
        <ele>295.068</ele>
        <time>2021-04-06T09:31:22Z</time>
      </trkpt>
      <trkpt lat="43.164139" lon="-2.291663">
        <ele>294.842</ele>
        <time>2021-04-06T09:31:23Z</time>
      </trkpt>
      <trkpt lat="43.164157" lon="-2.291657">
        <ele>294.626</ele>
        <time>2021-04-06T09:31:24Z</time>
      </trkpt>
      <trkpt lat="43.164176" lon="-2.291650">
        <ele>294.308</ele>
        <time>2021-04-06T09:31:25Z</time>
      </trkpt>
      <trkpt lat="43.164200" lon="-2.291636">
        <ele>293.773</ele>
        <time>2021-04-06T09:31:26Z</time>
      </trkpt>
      <trkpt lat="43.164229" lon="-2.291625">
        <ele>293.256</ele>
        <time>2021-04-06T09:31:27Z</time>
      </trkpt>
      <trkpt lat="43.164259" lon="-2.291614">
        <ele>292.787</ele>
        <time>2021-04-06T09:31:28Z</time>
      </trkpt>
      <trkpt lat="43.164287" lon="-2.291602">
        <ele>292.232</ele>
        <time>2021-04-06T09:31:29Z</time>
      </trkpt>
      <trkpt lat="43.164342" lon="-2.291580">
        <ele>291.387</ele>
        <time>2021-04-06T09:31:31Z</time>
      </trkpt>
      <trkpt lat="43.164364" lon="-2.291574">
        <ele>291.015</ele>
        <time>2021-04-06T09:31:32Z</time>
      </trkpt>
      <trkpt lat="43.164390" lon="-2.291566">
        <ele>290.722</ele>
        <time>2021-04-06T09:31:33Z</time>
      </trkpt>
      <trkpt lat="43.164419" lon="-2.291550">
        <ele>290.010</ele>
        <time>2021-04-06T09:31:34Z</time>
      </trkpt>
      <trkpt lat="43.164445" lon="-2.291537">
        <ele>289.424</ele>
        <time>2021-04-06T09:31:35Z</time>
      </trkpt>
      <trkpt lat="43.164472" lon="-2.291533">
        <ele>289.204</ele>
        <time>2021-04-06T09:31:36Z</time>
      </trkpt>
      <trkpt lat="43.164498" lon="-2.291526">
        <ele>288.914</ele>
        <time>2021-04-06T09:31:37Z</time>
      </trkpt>
      <trkpt lat="43.164523" lon="-2.291523">
        <ele>288.808</ele>
        <time>2021-04-06T09:31:38Z</time>
      </trkpt>
      <trkpt lat="43.164549" lon="-2.291516">
        <ele>288.559</ele>
        <time>2021-04-06T09:31:39Z</time>
      </trkpt>
      <trkpt lat="43.164578" lon="-2.291508">
        <ele>288.292</ele>
        <time>2021-04-06T09:31:40Z</time>
      </trkpt>
      <trkpt lat="43.164605" lon="-2.291500">
        <ele>287.973</ele>
        <time>2021-04-06T09:31:41Z</time>
      </trkpt>
      <trkpt lat="43.164630" lon="-2.291494">
        <ele>287.718</ele>
        <time>2021-04-06T09:31:42Z</time>
      </trkpt>
      <trkpt lat="43.164655" lon="-2.291484">
        <ele>287.323</ele>
        <time>2021-04-06T09:31:43Z</time>
      </trkpt>
      <trkpt lat="43.164680" lon="-2.291472">
        <ele>286.941</ele>
        <time>2021-04-06T09:31:44Z</time>
      </trkpt>
      <trkpt lat="43.164703" lon="-2.291463">
        <ele>286.638</ele>
        <time>2021-04-06T09:31:45Z</time>
      </trkpt>
      <trkpt lat="43.164728" lon="-2.291457">
        <ele>286.426</ele>
        <time>2021-04-06T09:31:46Z</time>
      </trkpt>
      <trkpt lat="43.164758" lon="-2.291444">
        <ele>286.042</ele>
        <time>2021-04-06T09:31:47Z</time>
      </trkpt>
      <trkpt lat="43.164784" lon="-2.291426">
        <ele>285.322</ele>
        <time>2021-04-06T09:31:48Z</time>
      </trkpt>
      <trkpt lat="43.164809" lon="-2.291406">
        <ele>284.614</ele>
        <time>2021-04-06T09:31:49Z</time>
      </trkpt>
      <trkpt lat="43.164833" lon="-2.291388">
        <ele>284.008</ele>
        <time>2021-04-06T09:31:50Z</time>
      </trkpt>
      <trkpt lat="43.164855" lon="-2.291370">
        <ele>283.491</ele>
        <time>2021-04-06T09:31:51Z</time>
      </trkpt>
      <trkpt lat="43.164875" lon="-2.291358">
        <ele>283.174</ele>
        <time>2021-04-06T09:31:52Z</time>
      </trkpt>
      <trkpt lat="43.164892" lon="-2.291344">
        <ele>282.795</ele>
        <time>2021-04-06T09:31:53Z</time>
      </trkpt>
      <trkpt lat="43.164906" lon="-2.291325">
        <ele>282.250</ele>
        <time>2021-04-06T09:31:54Z</time>
      </trkpt>
      <trkpt lat="43.164927" lon="-2.291305">
        <ele>281.685</ele>
        <time>2021-04-06T09:31:56Z</time>
      </trkpt>
      <trkpt lat="43.164961" lon="-2.291302">
        <ele>281.763</ele>
        <time>2021-04-06T09:31:58Z</time>
      </trkpt>
      <trkpt lat="43.164985" lon="-2.291298">
        <ele>281.750</ele>
        <time>2021-04-06T09:31:59Z</time>
      </trkpt>
      <trkpt lat="43.165012" lon="-2.291285">
        <ele>281.338</ele>
        <time>2021-04-06T09:32:00Z</time>
      </trkpt>
      <trkpt lat="43.165037" lon="-2.291269">
        <ele>280.812</ele>
        <time>2021-04-06T09:32:01Z</time>
      </trkpt>
      <trkpt lat="43.165055" lon="-2.291249">
        <ele>280.232</ele>
        <time>2021-04-06T09:32:02Z</time>
      </trkpt>
      <trkpt lat="43.165069" lon="-2.291221">
        <ele>279.405</ele>
        <time>2021-04-06T09:32:04Z</time>
      </trkpt>
      <trkpt lat="43.165086" lon="-2.291210">
        <ele>279.108</ele>
        <time>2021-04-06T09:32:06Z</time>
      </trkpt>
      <trkpt lat="43.165108" lon="-2.291205">
        <ele>278.848</ele>
        <time>2021-04-06T09:32:09Z</time>
      </trkpt>
      <trkpt lat="43.165139" lon="-2.291190">
        <ele>278.331</ele>
        <time>2021-04-06T09:32:11Z</time>
      </trkpt>
      <trkpt lat="43.165156" lon="-2.291181">
        <ele>278.132</ele>
        <time>2021-04-06T09:32:12Z</time>
      </trkpt>
      <trkpt lat="43.165182" lon="-2.291156">
        <ele>277.447</ele>
        <time>2021-04-06T09:32:14Z</time>
      </trkpt>
      <trkpt lat="43.165197" lon="-2.291140">
        <ele>276.982</ele>
        <time>2021-04-06T09:32:15Z</time>
      </trkpt>
      <trkpt lat="43.165217" lon="-2.291125">
        <ele>276.510</ele>
        <time>2021-04-06T09:32:16Z</time>
      </trkpt>
      <trkpt lat="43.165242" lon="-2.291116">
        <ele>276.277</ele>
        <time>2021-04-06T09:32:18Z</time>
      </trkpt>
      <trkpt lat="43.165262" lon="-2.291103">
        <ele>275.855</ele>
        <time>2021-04-06T09:32:19Z</time>
      </trkpt>
      <trkpt lat="43.165281" lon="-2.291090">
        <ele>275.436</ele>
        <time>2021-04-06T09:32:20Z</time>
      </trkpt>
      <trkpt lat="43.165297" lon="-2.291075">
        <ele>274.717</ele>
        <time>2021-04-06T09:32:21Z</time>
      </trkpt>
      <trkpt lat="43.165312" lon="-2.291057">
        <ele>273.918</ele>
        <time>2021-04-06T09:32:22Z</time>
      </trkpt>
      <trkpt lat="43.165332" lon="-2.291042">
        <ele>273.208</ele>
        <time>2021-04-06T09:32:23Z</time>
      </trkpt>
      <trkpt lat="43.165352" lon="-2.291022">
        <ele>272.310</ele>
        <time>2021-04-06T09:32:24Z</time>
      </trkpt>
      <trkpt lat="43.165375" lon="-2.291008">
        <ele>271.653</ele>
        <time>2021-04-06T09:32:25Z</time>
      </trkpt>
      <trkpt lat="43.165397" lon="-2.290997">
        <ele>270.984</ele>
        <time>2021-04-06T09:32:26Z</time>
      </trkpt>
      <trkpt lat="43.165422" lon="-2.290987">
        <ele>270.239</ele>
        <time>2021-04-06T09:32:27Z</time>
      </trkpt>
      <trkpt lat="43.165448" lon="-2.290978">
        <ele>269.614</ele>
        <time>2021-04-06T09:32:28Z</time>
      </trkpt>
      <trkpt lat="43.165474" lon="-2.290970">
        <ele>268.932</ele>
        <time>2021-04-06T09:32:29Z</time>
      </trkpt>
      <trkpt lat="43.165494" lon="-2.290968">
        <ele>268.539</ele>
        <time>2021-04-06T09:32:30Z</time>
      </trkpt>
      <trkpt lat="43.165514" lon="-2.290967">
        <ele>268.187</ele>
        <time>2021-04-06T09:32:31Z</time>
      </trkpt>
      <trkpt lat="43.165550" lon="-2.290976">
        <ele>267.757</ele>
        <time>2021-04-06T09:32:33Z</time>
      </trkpt>
      <trkpt lat="43.165568" lon="-2.290988">
        <ele>267.400</ele>
        <time>2021-04-06T09:32:34Z</time>
      </trkpt>
      <trkpt lat="43.165590" lon="-2.291006">
        <ele>267.120</ele>
        <time>2021-04-06T09:32:35Z</time>
      </trkpt>
      <trkpt lat="43.165611" lon="-2.291025">
        <ele>266.808</ele>
        <time>2021-04-06T09:32:36Z</time>
      </trkpt>
      <trkpt lat="43.165626" lon="-2.291035">
        <ele>266.542</ele>
        <time>2021-04-06T09:32:37Z</time>
      </trkpt>
      <trkpt lat="43.165644" lon="-2.291045">
        <ele>266.215</ele>
        <time>2021-04-06T09:32:38Z</time>
      </trkpt>
      <trkpt lat="43.165664" lon="-2.291060">
        <ele>265.926</ele>
        <time>2021-04-06T09:32:39Z</time>
      </trkpt>
      <trkpt lat="43.165682" lon="-2.291074">
        <ele>265.691</ele>
        <time>2021-04-06T09:32:41Z</time>
      </trkpt>
      <trkpt lat="43.165702" lon="-2.291094">
        <ele>265.436</ele>
        <time>2021-04-06T09:32:43Z</time>
      </trkpt>
      <trkpt lat="43.165717" lon="-2.291104">
        <ele>265.244</ele>
        <time>2021-04-06T09:32:45Z</time>
      </trkpt>
      <trkpt lat="43.165732" lon="-2.291117">
        <ele>265.031</ele>
        <time>2021-04-06T09:32:47Z</time>
      </trkpt>
      <trkpt lat="43.165760" lon="-2.291135">
        <ele>264.529</ele>
        <time>2021-04-06T09:32:49Z</time>
      </trkpt>
      <trkpt lat="43.165785" lon="-2.291159">
        <ele>264.166</ele>
        <time>2021-04-06T09:32:51Z</time>
      </trkpt>
      <trkpt lat="43.165804" lon="-2.291185">
        <ele>264.029</ele>
        <time>2021-04-06T09:32:53Z</time>
      </trkpt>
      <trkpt lat="43.165831" lon="-2.291215">
        <ele>263.621</ele>
        <time>2021-04-06T09:32:55Z</time>
      </trkpt>
      <trkpt lat="43.165849" lon="-2.291232">
        <ele>263.208</ele>
        <time>2021-04-06T09:32:56Z</time>
      </trkpt>
      <trkpt lat="43.165869" lon="-2.291248">
        <ele>262.783</ele>
        <time>2021-04-06T09:32:57Z</time>
      </trkpt>
      <trkpt lat="43.165890" lon="-2.291264">
        <ele>262.246</ele>
        <time>2021-04-06T09:32:58Z</time>
      </trkpt>
      <trkpt lat="43.165911" lon="-2.291282">
        <ele>261.777</ele>
        <time>2021-04-06T09:32:59Z</time>
      </trkpt>
      <trkpt lat="43.165930" lon="-2.291301">
        <ele>261.362</ele>
        <time>2021-04-06T09:33:00Z</time>
      </trkpt>
      <trkpt lat="43.165946" lon="-2.291323">
        <ele>261.037</ele>
        <time>2021-04-06T09:33:01Z</time>
      </trkpt>
      <trkpt lat="43.165961" lon="-2.291342">
        <ele>260.795</ele>
        <time>2021-04-06T09:33:02Z</time>
      </trkpt>
      <trkpt lat="43.165975" lon="-2.291363">
        <ele>260.532</ele>
        <time>2021-04-06T09:33:03Z</time>
      </trkpt>
      <trkpt lat="43.165989" lon="-2.291380">
        <ele>260.350</ele>
        <time>2021-04-06T09:33:04Z</time>
      </trkpt>
      <trkpt lat="43.166003" lon="-2.291399">
        <ele>260.127</ele>
        <time>2021-04-06T09:33:05Z</time>
      </trkpt>
      <trkpt lat="43.166018" lon="-2.291415">
        <ele>259.968</ele>
        <time>2021-04-06T09:33:06Z</time>
      </trkpt>
      <trkpt lat="43.166029" lon="-2.291441">
        <ele>259.914</ele>
        <time>2021-04-06T09:33:07Z</time>
      </trkpt>
      <trkpt lat="43.166041" lon="-2.291466">
        <ele>260.008</ele>
        <time>2021-04-06T09:33:08Z</time>
      </trkpt>
      <trkpt lat="43.166056" lon="-2.291486">
        <ele>259.849</ele>
        <time>2021-04-06T09:33:09Z</time>
      </trkpt>
      <trkpt lat="43.166078" lon="-2.291523">
        <ele>259.722</ele>
        <time>2021-04-06T09:33:11Z</time>
      </trkpt>
      <trkpt lat="43.166089" lon="-2.291547">
        <ele>259.743</ele>
        <time>2021-04-06T09:33:12Z</time>
      </trkpt>
      <trkpt lat="43.166098" lon="-2.291568">
        <ele>259.768</ele>
        <time>2021-04-06T09:33:13Z</time>
      </trkpt>
      <trkpt lat="43.166114" lon="-2.291592">
        <ele>259.653</ele>
        <time>2021-04-06T09:33:14Z</time>
      </trkpt>
      <trkpt lat="43.166133" lon="-2.291622">
        <ele>259.481</ele>
        <time>2021-04-06T09:33:15Z</time>
      </trkpt>
      <trkpt lat="43.166152" lon="-2.291655">
        <ele>259.368</ele>
        <time>2021-04-06T09:33:16Z</time>
      </trkpt>
      <trkpt lat="43.166174" lon="-2.291690">
        <ele>259.256</ele>
        <time>2021-04-06T09:33:17Z</time>
      </trkpt>
      <trkpt lat="43.166188" lon="-2.291720">
        <ele>259.387</ele>
        <time>2021-04-06T09:33:18Z</time>
      </trkpt>
      <trkpt lat="43.166207" lon="-2.291751">
        <ele>259.342</ele>
        <time>2021-04-06T09:33:19Z</time>
      </trkpt>
      <trkpt lat="43.166221" lon="-2.291779">
        <ele>259.326</ele>
        <time>2021-04-06T09:33:20Z</time>
      </trkpt>
      <trkpt lat="43.166241" lon="-2.291812">
        <ele>259.208</ele>
        <time>2021-04-06T09:33:21Z</time>
      </trkpt>
      <trkpt lat="43.166247" lon="-2.291843">
        <ele>259.685</ele>
        <time>2021-04-06T09:33:22Z</time>
      </trkpt>
      <trkpt lat="43.166256" lon="-2.291872">
        <ele>259.838</ele>
        <time>2021-04-06T09:33:23Z</time>
      </trkpt>
      <trkpt lat="43.166263" lon="-2.291898">
        <ele>260.119</ele>
        <time>2021-04-06T09:33:24Z</time>
      </trkpt>
      <trkpt lat="43.166278" lon="-2.291921">
        <ele>259.954</ele>
        <time>2021-04-06T09:33:25Z</time>
      </trkpt>
      <trkpt lat="43.166295" lon="-2.291952">
        <ele>259.879</ele>
        <time>2021-04-06T09:33:26Z</time>
      </trkpt>
      <trkpt lat="43.166309" lon="-2.291981">
        <ele>259.697</ele>
        <time>2021-04-06T09:33:27Z</time>
      </trkpt>
      <trkpt lat="43.166320" lon="-2.292002">
        <ele>259.554</ele>
        <time>2021-04-06T09:33:28Z</time>
      </trkpt>
      <trkpt lat="43.166326" lon="-2.292034">
        <ele>259.662</ele>
        <time>2021-04-06T09:33:30Z</time>
      </trkpt>
      <trkpt lat="43.166330" lon="-2.292074">
        <ele>259.951</ele>
        <time>2021-04-06T09:33:32Z</time>
      </trkpt>
      <trkpt lat="43.166352" lon="-2.292117">
        <ele>259.501</ele>
        <time>2021-04-06T09:33:34Z</time>
      </trkpt>
      <trkpt lat="43.166362" lon="-2.292139">
        <ele>259.311</ele>
        <time>2021-04-06T09:33:35Z</time>
      </trkpt>
      <trkpt lat="43.166372" lon="-2.292167">
        <ele>259.208</ele>
        <time>2021-04-06T09:33:36Z</time>
      </trkpt>
      <trkpt lat="43.166382" lon="-2.292201">
        <ele>259.152</ele>
        <time>2021-04-06T09:33:37Z</time>
      </trkpt>
      <trkpt lat="43.166398" lon="-2.292235">
        <ele>258.625</ele>
        <time>2021-04-06T09:33:38Z</time>
      </trkpt>
      <trkpt lat="43.166414" lon="-2.292266">
        <ele>257.966</ele>
        <time>2021-04-06T09:33:39Z</time>
      </trkpt>
      <trkpt lat="43.166420" lon="-2.292302">
        <ele>257.741</ele>
        <time>2021-04-06T09:33:40Z</time>
      </trkpt>
      <trkpt lat="43.166431" lon="-2.292331">
        <ele>257.346</ele>
        <time>2021-04-06T09:33:41Z</time>
      </trkpt>
      <trkpt lat="43.166437" lon="-2.292357">
        <ele>257.154</ele>
        <time>2021-04-06T09:33:42Z</time>
      </trkpt>
      <trkpt lat="43.166446" lon="-2.292382">
        <ele>256.731</ele>
        <time>2021-04-06T09:33:43Z</time>
      </trkpt>
      <trkpt lat="43.166459" lon="-2.292415">
        <ele>256.219</ele>
        <time>2021-04-06T09:33:44Z</time>
      </trkpt>
      <trkpt lat="43.166468" lon="-2.292448">
        <ele>255.888</ele>
        <time>2021-04-06T09:33:45Z</time>
      </trkpt>
      <trkpt lat="43.166479" lon="-2.292483">
        <ele>255.424</ele>
        <time>2021-04-06T09:33:46Z</time>
      </trkpt>
      <trkpt lat="43.166492" lon="-2.292519">
        <ele>255.026</ele>
        <time>2021-04-06T09:33:47Z</time>
      </trkpt>
      <trkpt lat="43.166507" lon="-2.292552">
        <ele>254.708</ele>
        <time>2021-04-06T09:33:48Z</time>
      </trkpt>
      <trkpt lat="43.166524" lon="-2.292581">
        <ele>254.275</ele>
        <time>2021-04-06T09:33:49Z</time>
      </trkpt>
      <trkpt lat="43.166547" lon="-2.292597">
        <ele>253.338</ele>
        <time>2021-04-06T09:33:50Z</time>
      </trkpt>
      <trkpt lat="43.166566" lon="-2.292605">
        <ele>252.679</ele>
        <time>2021-04-06T09:33:51Z</time>
      </trkpt>
      <trkpt lat="43.166591" lon="-2.292593">
        <ele>251.284</ele>
        <time>2021-04-06T09:33:52Z</time>
      </trkpt>
      <trkpt lat="43.166609" lon="-2.292568">
        <ele>250.039</ele>
        <time>2021-04-06T09:33:53Z</time>
      </trkpt>
      <trkpt lat="43.166628" lon="-2.292538">
        <ele>248.667</ele>
        <time>2021-04-06T09:33:54Z</time>
      </trkpt>
      <trkpt lat="43.166647" lon="-2.292506">
        <ele>247.164</ele>
        <time>2021-04-06T09:33:55Z</time>
      </trkpt>
      <trkpt lat="43.166666" lon="-2.292474">
        <ele>245.962</ele>
        <time>2021-04-06T09:33:56Z</time>
      </trkpt>
      <trkpt lat="43.166687" lon="-2.292442">
        <ele>245.049</ele>
        <time>2021-04-06T09:33:57Z</time>
      </trkpt>
      <trkpt lat="43.166707" lon="-2.292410">
        <ele>243.902</ele>
        <time>2021-04-06T09:33:58Z</time>
      </trkpt>
      <trkpt lat="43.166726" lon="-2.292379">
        <ele>242.922</ele>
        <time>2021-04-06T09:33:59Z</time>
      </trkpt>
      <trkpt lat="43.166744" lon="-2.292346">
        <ele>241.708</ele>
        <time>2021-04-06T09:34:00Z</time>
      </trkpt>
      <trkpt lat="43.166759" lon="-2.292308">
        <ele>240.691</ele>
        <time>2021-04-06T09:34:01Z</time>
      </trkpt>
      <trkpt lat="43.166776" lon="-2.292273">
        <ele>239.384</ele>
        <time>2021-04-06T09:34:02Z</time>
      </trkpt>
      <trkpt lat="43.166794" lon="-2.292238">
        <ele>237.995</ele>
        <time>2021-04-06T09:34:03Z</time>
      </trkpt>
      <trkpt lat="43.166813" lon="-2.292203">
        <ele>236.580</ele>
        <time>2021-04-06T09:34:04Z</time>
      </trkpt>
      <trkpt lat="43.166837" lon="-2.292169">
        <ele>234.925</ele>
        <time>2021-04-06T09:34:05Z</time>
      </trkpt>
      <trkpt lat="43.166859" lon="-2.292134">
        <ele>233.443</ele>
        <time>2021-04-06T09:34:06Z</time>
      </trkpt>
      <trkpt lat="43.166878" lon="-2.292100">
        <ele>232.170</ele>
        <time>2021-04-06T09:34:07Z</time>
      </trkpt>
      <trkpt lat="43.166892" lon="-2.292062">
        <ele>231.088</ele>
        <time>2021-04-06T09:34:08Z</time>
      </trkpt>
      <trkpt lat="43.166902" lon="-2.292024">
        <ele>230.172</ele>
        <time>2021-04-06T09:34:09Z</time>
      </trkpt>
      <trkpt lat="43.166911" lon="-2.291986">
        <ele>229.313</ele>
        <time>2021-04-06T09:34:10Z</time>
      </trkpt>
      <trkpt lat="43.166918" lon="-2.291944">
        <ele>228.614</ele>
        <time>2021-04-06T09:34:11Z</time>
      </trkpt>
      <trkpt lat="43.166924" lon="-2.291901">
        <ele>228.008</ele>
        <time>2021-04-06T09:34:12Z</time>
      </trkpt>
      <trkpt lat="43.166928" lon="-2.291856">
        <ele>227.654</ele>
        <time>2021-04-06T09:34:13Z</time>
      </trkpt>
      <trkpt lat="43.166931" lon="-2.291813">
        <ele>227.347</ele>
        <time>2021-04-06T09:34:14Z</time>
      </trkpt>
      <trkpt lat="43.166937" lon="-2.291772">
        <ele>226.858</ele>
        <time>2021-04-06T09:34:15Z</time>
      </trkpt>
      <trkpt lat="43.166944" lon="-2.291729">
        <ele>226.233</ele>
        <time>2021-04-06T09:34:16Z</time>
      </trkpt>
      <trkpt lat="43.166951" lon="-2.291690">
        <ele>225.778</ele>
        <time>2021-04-06T09:34:17Z</time>
      </trkpt>
      <trkpt lat="43.166956" lon="-2.291653">
        <ele>225.116</ele>
        <time>2021-04-06T09:34:18Z</time>
      </trkpt>
      <trkpt lat="43.166965" lon="-2.291616">
        <ele>224.293</ele>
        <time>2021-04-06T09:34:19Z</time>
      </trkpt>
      <trkpt lat="43.166973" lon="-2.291582">
        <ele>223.341</ele>
        <time>2021-04-06T09:34:20Z</time>
      </trkpt>
      <trkpt lat="43.166989" lon="-2.291501">
        <ele>221.673</ele>
        <time>2021-04-06T09:34:22Z</time>
      </trkpt>
      <trkpt lat="43.166999" lon="-2.291457">
        <ele>220.685</ele>
        <time>2021-04-06T09:34:23Z</time>
      </trkpt>
      <trkpt lat="43.167013" lon="-2.291409">
        <ele>219.513</ele>
        <time>2021-04-06T09:34:24Z</time>
      </trkpt>
      <trkpt lat="43.167027" lon="-2.291363">
        <ele>218.508</ele>
        <time>2021-04-06T09:34:25Z</time>
      </trkpt>
      <trkpt lat="43.167043" lon="-2.291321">
        <ele>217.584</ele>
        <time>2021-04-06T09:34:26Z</time>
      </trkpt>
      <trkpt lat="43.167054" lon="-2.291278">
        <ele>216.957</ele>
        <time>2021-04-06T09:34:27Z</time>
      </trkpt>
      <trkpt lat="43.167059" lon="-2.291233">
        <ele>216.628</ele>
        <time>2021-04-06T09:34:28Z</time>
      </trkpt>
      <trkpt lat="43.167060" lon="-2.291187">
        <ele>216.553</ele>
        <time>2021-04-06T09:34:29Z</time>
      </trkpt>
      <trkpt lat="43.167061" lon="-2.291140">
        <ele>216.498</ele>
        <time>2021-04-06T09:34:30Z</time>
      </trkpt>
      <trkpt lat="43.167061" lon="-2.291095">
        <ele>216.366</ele>
        <time>2021-04-06T09:34:31Z</time>
      </trkpt>
      <trkpt lat="43.167065" lon="-2.291054">
        <ele>216.143</ele>
        <time>2021-04-06T09:34:32Z</time>
      </trkpt>
      <trkpt lat="43.167063" lon="-2.291010">
        <ele>216.091</ele>
        <time>2021-04-06T09:34:33Z</time>
      </trkpt>
      <trkpt lat="43.167061" lon="-2.290970">
        <ele>216.078</ele>
        <time>2021-04-06T09:34:34Z</time>
      </trkpt>
      <trkpt lat="43.167058" lon="-2.290924">
        <ele>216.033</ele>
        <time>2021-04-06T09:34:35Z</time>
      </trkpt>
      <trkpt lat="43.167062" lon="-2.290881">
        <ele>215.726</ele>
        <time>2021-04-06T09:34:36Z</time>
      </trkpt>
      <trkpt lat="43.167068" lon="-2.290835">
        <ele>215.408</ele>
        <time>2021-04-06T09:34:37Z</time>
      </trkpt>
      <trkpt lat="43.167075" lon="-2.290799">
        <ele>215.164</ele>
        <time>2021-04-06T09:34:38Z</time>
      </trkpt>
      <trkpt lat="43.167148" lon="-2.290687">
        <ele>212.917</ele>
        <time>2021-04-06T09:34:43Z</time>
      </trkpt>
      <trkpt lat="43.167168" lon="-2.290668">
        <ele>212.378</ele>
        <time>2021-04-06T09:34:44Z</time>
      </trkpt>
      <trkpt lat="43.167194" lon="-2.290615">
        <ele>211.773</ele>
        <time>2021-04-06T09:34:47Z</time>
      </trkpt>
      <trkpt lat="43.167205" lon="-2.290508">
        <ele>210.998</ele>
        <time>2021-04-06T09:34:51Z</time>
      </trkpt>
      <trkpt lat="43.167205" lon="-2.290472">
        <ele>210.596</ele>
        <time>2021-04-06T09:34:52Z</time>
      </trkpt>
      <trkpt lat="43.167216" lon="-2.290443">
        <ele>209.943</ele>
        <time>2021-04-06T09:34:53Z</time>
      </trkpt>
      <trkpt lat="43.167226" lon="-2.290409">
        <ele>209.311</ele>
        <time>2021-04-06T09:34:54Z</time>
      </trkpt>
      <trkpt lat="43.167238" lon="-2.290373">
        <ele>208.484</ele>
        <time>2021-04-06T09:34:55Z</time>
      </trkpt>
      <trkpt lat="43.167255" lon="-2.290342">
        <ele>207.407</ele>
        <time>2021-04-06T09:34:56Z</time>
      </trkpt>
      <trkpt lat="43.167269" lon="-2.290310">
        <ele>206.517</ele>
        <time>2021-04-06T09:34:57Z</time>
      </trkpt>
      <trkpt lat="43.167287" lon="-2.290274">
        <ele>205.408</ele>
        <time>2021-04-06T09:34:58Z</time>
      </trkpt>
      <trkpt lat="43.167298" lon="-2.290239">
        <ele>204.745</ele>
        <time>2021-04-06T09:34:59Z</time>
      </trkpt>
      <trkpt lat="43.167306" lon="-2.290204">
        <ele>204.048</ele>
        <time>2021-04-06T09:35:00Z</time>
      </trkpt>
      <trkpt lat="43.167323" lon="-2.290168">
        <ele>203.139</ele>
        <time>2021-04-06T09:35:01Z</time>
      </trkpt>
      <trkpt lat="43.167332" lon="-2.290131">
        <ele>202.514</ele>
        <time>2021-04-06T09:35:02Z</time>
      </trkpt>
      <trkpt lat="43.167341" lon="-2.290098">
        <ele>201.989</ele>
        <time>2021-04-06T09:35:03Z</time>
      </trkpt>
      <trkpt lat="43.167352" lon="-2.290065">
        <ele>201.327</ele>
        <time>2021-04-06T09:35:04Z</time>
      </trkpt>
      <trkpt lat="43.167359" lon="-2.290027">
        <ele>200.864</ele>
        <time>2021-04-06T09:35:05Z</time>
      </trkpt>
      <trkpt lat="43.167366" lon="-2.289979">
        <ele>200.392</ele>
        <time>2021-04-06T09:35:06Z</time>
      </trkpt>
      <trkpt lat="43.167373" lon="-2.289930">
        <ele>199.984</ele>
        <time>2021-04-06T09:35:07Z</time>
      </trkpt>
      <trkpt lat="43.167381" lon="-2.289883">
        <ele>199.507</ele>
        <time>2021-04-06T09:35:08Z</time>
      </trkpt>
      <trkpt lat="43.167390" lon="-2.289836">
        <ele>199.117</ele>
        <time>2021-04-06T09:35:09Z</time>
      </trkpt>
      <trkpt lat="43.167397" lon="-2.289789">
        <ele>198.808</ele>
        <time>2021-04-06T09:35:10Z</time>
      </trkpt>
      <trkpt lat="43.167407" lon="-2.289744">
        <ele>198.475</ele>
        <time>2021-04-06T09:35:11Z</time>
      </trkpt>
      <trkpt lat="43.167417" lon="-2.289700">
        <ele>197.948</ele>
        <time>2021-04-06T09:35:12Z</time>
      </trkpt>
      <trkpt lat="43.167427" lon="-2.289656">
        <ele>197.149</ele>
        <time>2021-04-06T09:35:13Z</time>
      </trkpt>
      <trkpt lat="43.167438" lon="-2.289611">
        <ele>196.414</ele>
        <time>2021-04-06T09:35:14Z</time>
      </trkpt>
      <trkpt lat="43.167441" lon="-2.289565">
        <ele>195.879</ele>
        <time>2021-04-06T09:35:15Z</time>
      </trkpt>
      <trkpt lat="43.167448" lon="-2.289521">
        <ele>195.167</ele>
        <time>2021-04-06T09:35:16Z</time>
      </trkpt>
      <trkpt lat="43.167449" lon="-2.289472">
        <ele>194.624</ele>
        <time>2021-04-06T09:35:17Z</time>
      </trkpt>
      <trkpt lat="43.167447" lon="-2.289429">
        <ele>194.122</ele>
        <time>2021-04-06T09:35:18Z</time>
      </trkpt>
      <trkpt lat="43.167442" lon="-2.289389">
        <ele>193.788</ele>
        <time>2021-04-06T09:35:19Z</time>
      </trkpt>
      <trkpt lat="43.167435" lon="-2.289349">
        <ele>193.324</ele>
        <time>2021-04-06T09:35:20Z</time>
      </trkpt>
      <trkpt lat="43.167428" lon="-2.289308">
        <ele>192.826</ele>
        <time>2021-04-06T09:35:21Z</time>
      </trkpt>
      <trkpt lat="43.167424" lon="-2.289269">
        <ele>192.408</ele>
        <time>2021-04-06T09:35:22Z</time>
      </trkpt>
      <trkpt lat="43.167410" lon="-2.289226">
        <ele>192.115</ele>
        <time>2021-04-06T09:35:23Z</time>
      </trkpt>
      <trkpt lat="43.167401" lon="-2.289179">
        <ele>191.758</ele>
        <time>2021-04-06T09:35:24Z</time>
      </trkpt>
      <trkpt lat="43.167394" lon="-2.289133">
        <ele>191.139</ele>
        <time>2021-04-06T09:35:25Z</time>
      </trkpt>
      <trkpt lat="43.167387" lon="-2.289085">
        <ele>190.474</ele>
        <time>2021-04-06T09:35:26Z</time>
      </trkpt>
      <trkpt lat="43.167379" lon="-2.289044">
        <ele>189.859</ele>
        <time>2021-04-06T09:35:27Z</time>
      </trkpt>
      <trkpt lat="43.167369" lon="-2.289005">
        <ele>189.487</ele>
        <time>2021-04-06T09:35:28Z</time>
      </trkpt>
      <trkpt lat="43.167358" lon="-2.288966">
        <ele>189.054</ele>
        <time>2021-04-06T09:35:29Z</time>
      </trkpt>
      <trkpt lat="43.167346" lon="-2.288923">
        <ele>188.582</ele>
        <time>2021-04-06T09:35:30Z</time>
      </trkpt>
      <trkpt lat="43.167334" lon="-2.288883">
        <ele>188.142</ele>
        <time>2021-04-06T09:35:31Z</time>
      </trkpt>
      <trkpt lat="43.167322" lon="-2.288840">
        <ele>187.722</ele>
        <time>2021-04-06T09:35:32Z</time>
      </trkpt>
      <trkpt lat="43.167304" lon="-2.288792">
        <ele>187.314</ele>
        <time>2021-04-06T09:35:33Z</time>
      </trkpt>
      <trkpt lat="43.167287" lon="-2.288746">
        <ele>186.908</ele>
        <time>2021-04-06T09:35:34Z</time>
      </trkpt>
      <trkpt lat="43.167271" lon="-2.288698">
        <ele>186.551</ele>
        <time>2021-04-06T09:35:35Z</time>
      </trkpt>
      <trkpt lat="43.167257" lon="-2.288655">
        <ele>186.034</ele>
        <time>2021-04-06T09:35:36Z</time>
      </trkpt>
      <trkpt lat="43.167247" lon="-2.288612">
        <ele>185.525</ele>
        <time>2021-04-06T09:35:37Z</time>
      </trkpt>
      <trkpt lat="43.167240" lon="-2.288568">
        <ele>185.110</ele>
        <time>2021-04-06T09:35:38Z</time>
      </trkpt>
      <trkpt lat="43.167237" lon="-2.288526">
        <ele>184.785</ele>
        <time>2021-04-06T09:35:39Z</time>
      </trkpt>
      <trkpt lat="43.167237" lon="-2.288490">
        <ele>184.373</ele>
        <time>2021-04-06T09:35:40Z</time>
      </trkpt>
      <trkpt lat="43.167243" lon="-2.288458">
        <ele>183.840</ele>
        <time>2021-04-06T09:35:41Z</time>
      </trkpt>
      <trkpt lat="43.167263" lon="-2.288437">
        <ele>183.078</ele>
        <time>2021-04-06T09:35:42Z</time>
      </trkpt>
      <trkpt lat="43.167295" lon="-2.288433">
        <ele>182.061</ele>
        <time>2021-04-06T09:35:43Z</time>
      </trkpt>
      <trkpt lat="43.167340" lon="-2.288441">
        <ele>180.821</ele>
        <time>2021-04-06T09:35:44Z</time>
      </trkpt>
      <trkpt lat="43.167373" lon="-2.288457">
        <ele>180.213</ele>
        <time>2021-04-06T09:35:45Z</time>
      </trkpt>
      <trkpt lat="43.167395" lon="-2.288483">
        <ele>180.008</ele>
        <time>2021-04-06T09:35:46Z</time>
      </trkpt>
      <trkpt lat="43.167410" lon="-2.288508">
        <ele>180.183</ele>
        <time>2021-04-06T09:35:47Z</time>
      </trkpt>
      <trkpt lat="43.167428" lon="-2.288529">
        <ele>180.066</ele>
        <time>2021-04-06T09:35:48Z</time>
      </trkpt>
      <trkpt lat="43.167450" lon="-2.288552">
        <ele>179.917</ele>
        <time>2021-04-06T09:35:49Z</time>
      </trkpt>
      <trkpt lat="43.167474" lon="-2.288574">
        <ele>179.862</ele>
        <time>2021-04-06T09:35:50Z</time>
      </trkpt>
      <trkpt lat="43.167494" lon="-2.288604">
        <ele>180.097</ele>
        <time>2021-04-06T09:35:51Z</time>
      </trkpt>
      <trkpt lat="43.167511" lon="-2.288633">
        <ele>180.075</ele>
        <time>2021-04-06T09:35:52Z</time>
      </trkpt>
      <trkpt lat="43.167532" lon="-2.288662">
        <ele>179.892</ele>
        <time>2021-04-06T09:35:53Z</time>
      </trkpt>
      <trkpt lat="43.167547" lon="-2.288693">
        <ele>179.870</ele>
        <time>2021-04-06T09:35:54Z</time>
      </trkpt>
      <trkpt lat="43.167576" lon="-2.288727">
        <ele>179.521</ele>
        <time>2021-04-06T09:35:55Z</time>
      </trkpt>
      <trkpt lat="43.167609" lon="-2.288757">
        <ele>179.041</ele>
        <time>2021-04-06T09:35:56Z</time>
      </trkpt>
      <trkpt lat="43.167647" lon="-2.288778">
        <ele>178.205</ele>
        <time>2021-04-06T09:35:57Z</time>
      </trkpt>
      <trkpt lat="43.167675" lon="-2.288798">
        <ele>177.708</ele>
        <time>2021-04-06T09:35:58Z</time>
      </trkpt>
      <trkpt lat="43.167706" lon="-2.288817">
        <ele>177.039</ele>
        <time>2021-04-06T09:35:59Z</time>
      </trkpt>
      <trkpt lat="43.167727" lon="-2.288846">
        <ele>176.852</ele>
        <time>2021-04-06T09:36:00Z</time>
      </trkpt>
      <trkpt lat="43.167753" lon="-2.288880">
        <ele>176.683</ele>
        <time>2021-04-06T09:36:01Z</time>
      </trkpt>
      <trkpt lat="43.167780" lon="-2.288910">
        <ele>176.288</ele>
        <time>2021-04-06T09:36:02Z</time>
      </trkpt>
      <trkpt lat="43.167809" lon="-2.288938">
        <ele>175.933</ele>
        <time>2021-04-06T09:36:03Z</time>
      </trkpt>
      <trkpt lat="43.167842" lon="-2.288967">
        <ele>175.621</ele>
        <time>2021-04-06T09:36:04Z</time>
      </trkpt>
      <trkpt lat="43.167872" lon="-2.288991">
        <ele>175.288</ele>
        <time>2021-04-06T09:36:05Z</time>
      </trkpt>
      <trkpt lat="43.167903" lon="-2.289010">
        <ele>174.886</ele>
        <time>2021-04-06T09:36:06Z</time>
      </trkpt>
      <trkpt lat="43.167934" lon="-2.289033">
        <ele>174.447</ele>
        <time>2021-04-06T09:36:07Z</time>
      </trkpt>
      <trkpt lat="43.167961" lon="-2.289058">
        <ele>174.229</ele>
        <time>2021-04-06T09:36:08Z</time>
      </trkpt>
      <trkpt lat="43.167991" lon="-2.289081">
        <ele>173.921</ele>
        <time>2021-04-06T09:36:09Z</time>
      </trkpt>
      <trkpt lat="43.168023" lon="-2.289103">
        <ele>173.608</ele>
        <time>2021-04-06T09:36:10Z</time>
      </trkpt>
      <trkpt lat="43.168053" lon="-2.289124">
        <ele>173.391</ele>
        <time>2021-04-06T09:36:11Z</time>
      </trkpt>
      <trkpt lat="43.168084" lon="-2.289147">
        <ele>172.814</ele>
        <time>2021-04-06T09:36:12Z</time>
      </trkpt>
      <trkpt lat="43.168108" lon="-2.289166">
        <ele>172.575</ele>
        <time>2021-04-06T09:36:13Z</time>
      </trkpt>
      <trkpt lat="43.168137" lon="-2.289189">
        <ele>171.760</ele>
        <time>2021-04-06T09:36:14Z</time>
      </trkpt>
      <trkpt lat="43.168166" lon="-2.289210">
        <ele>171.045</ele>
        <time>2021-04-06T09:36:15Z</time>
      </trkpt>
      <trkpt lat="43.168191" lon="-2.289231">
        <ele>170.373</ele>
        <time>2021-04-06T09:36:16Z</time>
      </trkpt>
      <trkpt lat="43.168215" lon="-2.289254">
        <ele>169.720</ele>
        <time>2021-04-06T09:36:17Z</time>
      </trkpt>
      <trkpt lat="43.168240" lon="-2.289278">
        <ele>169.158</ele>
        <time>2021-04-06T09:36:18Z</time>
      </trkpt>
      <trkpt lat="43.168267" lon="-2.289311">
        <ele>168.417</ele>
        <time>2021-04-06T09:36:19Z</time>
      </trkpt>
      <trkpt lat="43.168278" lon="-2.289338">
        <ele>168.287</ele>
        <time>2021-04-06T09:36:20Z</time>
      </trkpt>
      <trkpt lat="43.168295" lon="-2.289372">
        <ele>167.815</ele>
        <time>2021-04-06T09:36:21Z</time>
      </trkpt>
      <trkpt lat="43.168313" lon="-2.289400">
        <ele>167.408</ele>
        <time>2021-04-06T09:36:22Z</time>
      </trkpt>
      <trkpt lat="43.168327" lon="-2.289436">
        <ele>167.238</ele>
        <time>2021-04-06T09:36:23Z</time>
      </trkpt>
      <trkpt lat="43.168339" lon="-2.289471">
        <ele>166.981</ele>
        <time>2021-04-06T09:36:24Z</time>
      </trkpt>
      <trkpt lat="43.168340" lon="-2.289508">
        <ele>166.852</ele>
        <time>2021-04-06T09:36:25Z</time>
      </trkpt>
      <trkpt lat="43.168347" lon="-2.289543">
        <ele>166.667</ele>
        <time>2021-04-06T09:36:26Z</time>
      </trkpt>
      <trkpt lat="43.168356" lon="-2.289585">
        <ele>166.352</ele>
        <time>2021-04-06T09:36:27Z</time>
      </trkpt>
      <trkpt lat="43.168366" lon="-2.289621">
        <ele>166.060</ele>
        <time>2021-04-06T09:36:28Z</time>
      </trkpt>
      <trkpt lat="43.168371" lon="-2.289655">
        <ele>165.857</ele>
        <time>2021-04-06T09:36:29Z</time>
      </trkpt>
      <trkpt lat="43.168380" lon="-2.289691">
        <ele>165.495</ele>
        <time>2021-04-06T09:36:30Z</time>
      </trkpt>
      <trkpt lat="43.168389" lon="-2.289727">
        <ele>164.995</ele>
        <time>2021-04-06T09:36:31Z</time>
      </trkpt>
      <trkpt lat="43.168401" lon="-2.289760">
        <ele>163.949</ele>
        <time>2021-04-06T09:36:32Z</time>
      </trkpt>
      <trkpt lat="43.168431" lon="-2.289796">
        <ele>162.023</ele>
        <time>2021-04-06T09:36:33Z</time>
      </trkpt>
      <trkpt lat="43.168458" lon="-2.289822">
        <ele>160.308</ele>
        <time>2021-04-06T09:36:34Z</time>
      </trkpt>
      <trkpt lat="43.168502" lon="-2.289838">
        <ele>158.056</ele>
        <time>2021-04-06T09:36:35Z</time>
      </trkpt>
      <trkpt lat="43.168548" lon="-2.289824">
        <ele>156.489</ele>
        <time>2021-04-06T09:36:36Z</time>
      </trkpt>
      <trkpt lat="43.168593" lon="-2.289800">
        <ele>155.210</ele>
        <time>2021-04-06T09:36:37Z</time>
      </trkpt>
      <trkpt lat="43.168634" lon="-2.289771">
        <ele>154.575</ele>
        <time>2021-04-06T09:36:38Z</time>
      </trkpt>
      <trkpt lat="43.168669" lon="-2.289741">
        <ele>154.190</ele>
        <time>2021-04-06T09:36:39Z</time>
      </trkpt>
      <trkpt lat="43.168703" lon="-2.289717">
        <ele>153.578</ele>
        <time>2021-04-06T09:36:40Z</time>
      </trkpt>
      <trkpt lat="43.168734" lon="-2.289695">
        <ele>152.785</ele>
        <time>2021-04-06T09:36:41Z</time>
      </trkpt>
      <trkpt lat="43.168765" lon="-2.289667">
        <ele>152.053</ele>
        <time>2021-04-06T09:36:42Z</time>
      </trkpt>
      <trkpt lat="43.168793" lon="-2.289636">
        <ele>151.611</ele>
        <time>2021-04-06T09:36:43Z</time>
      </trkpt>
      <trkpt lat="43.168822" lon="-2.289615">
        <ele>151.121</ele>
        <time>2021-04-06T09:36:44Z</time>
      </trkpt>
      <trkpt lat="43.168854" lon="-2.289596">
        <ele>150.403</ele>
        <time>2021-04-06T09:36:45Z</time>
      </trkpt>
      <trkpt lat="43.168884" lon="-2.289565">
        <ele>150.108</ele>
        <time>2021-04-06T09:36:46Z</time>
      </trkpt>
      <trkpt lat="43.168915" lon="-2.289540">
        <ele>149.628</ele>
        <time>2021-04-06T09:36:47Z</time>
      </trkpt>
      <trkpt lat="43.168948" lon="-2.289513">
        <ele>149.041</ele>
        <time>2021-04-06T09:36:48Z</time>
      </trkpt>
      <trkpt lat="43.169031" lon="-2.289456">
        <ele>147.632</ele>
        <time>2021-04-06T09:36:51Z</time>
      </trkpt>
      <trkpt lat="43.169058" lon="-2.289444">
        <ele>146.987</ele>
        <time>2021-04-06T09:36:52Z</time>
      </trkpt>
      <trkpt lat="43.169135" lon="-2.289369">
        <ele>145.482</ele>
        <time>2021-04-06T09:36:55Z</time>
      </trkpt>
      <trkpt lat="43.169213" lon="-2.289279">
        <ele>144.310</ele>
        <time>2021-04-06T09:36:58Z</time>
      </trkpt>
      <trkpt lat="43.169281" lon="-2.289187">
        <ele>143.817</ele>
        <time>2021-04-06T09:37:01Z</time>
      </trkpt>
      <trkpt lat="43.169349" lon="-2.289140">
        <ele>142.225</ele>
        <time>2021-04-06T09:37:03Z</time>
      </trkpt>
      <trkpt lat="43.169381" lon="-2.289114">
        <ele>141.285</ele>
        <time>2021-04-06T09:37:04Z</time>
      </trkpt>
      <trkpt lat="43.169412" lon="-2.289082">
        <ele>140.389</ele>
        <time>2021-04-06T09:37:05Z</time>
      </trkpt>
      <trkpt lat="43.169439" lon="-2.289043">
        <ele>139.617</ele>
        <time>2021-04-06T09:37:06Z</time>
      </trkpt>
      <trkpt lat="43.169458" lon="-2.289003">
        <ele>139.108</ele>
        <time>2021-04-06T09:37:07Z</time>
      </trkpt>
      <trkpt lat="43.169472" lon="-2.288958">
        <ele>138.825</ele>
        <time>2021-04-06T09:37:08Z</time>
      </trkpt>
      <trkpt lat="43.169481" lon="-2.288907">
        <ele>138.798</ele>
        <time>2021-04-06T09:37:09Z</time>
      </trkpt>
      <trkpt lat="43.169486" lon="-2.288855">
        <ele>138.479</ele>
        <time>2021-04-06T09:37:10Z</time>
      </trkpt>
      <trkpt lat="43.169485" lon="-2.288799">
        <ele>138.154</ele>
        <time>2021-04-06T09:37:11Z</time>
      </trkpt>
      <trkpt lat="43.169479" lon="-2.288748">
        <ele>138.069</ele>
        <time>2021-04-06T09:37:12Z</time>
      </trkpt>
      <trkpt lat="43.169475" lon="-2.288696">
        <ele>137.887</ele>
        <time>2021-04-06T09:37:13Z</time>
      </trkpt>
      <trkpt lat="43.169474" lon="-2.288647">
        <ele>137.554</ele>
        <time>2021-04-06T09:37:14Z</time>
      </trkpt>
      <trkpt lat="43.169481" lon="-2.288509">
        <ele>136.042</ele>
        <time>2021-04-06T09:37:17Z</time>
      </trkpt>
      <trkpt lat="43.169492" lon="-2.288473">
        <ele>135.413</ele>
        <time>2021-04-06T09:37:18Z</time>
      </trkpt>
      <trkpt lat="43.169516" lon="-2.288457">
        <ele>134.743</ele>
        <time>2021-04-06T09:37:19Z</time>
      </trkpt>
      <trkpt lat="43.169542" lon="-2.288453">
        <ele>134.007</ele>
        <time>2021-04-06T09:37:20Z</time>
      </trkpt>
      <trkpt lat="43.169565" lon="-2.288454">
        <ele>133.508</ele>
        <time>2021-04-06T09:37:21Z</time>
      </trkpt>
      <trkpt lat="43.169591" lon="-2.288473">
        <ele>133.178</ele>
        <time>2021-04-06T09:37:22Z</time>
      </trkpt>
      <trkpt lat="43.169616" lon="-2.288497">
        <ele>132.721</ele>
        <time>2021-04-06T09:37:23Z</time>
      </trkpt>
      <trkpt lat="43.169634" lon="-2.288521">
        <ele>132.522</ele>
        <time>2021-04-06T09:37:24Z</time>
      </trkpt>
      <trkpt lat="43.169645" lon="-2.288551">
        <ele>132.527</ele>
        <time>2021-04-06T09:37:25Z</time>
      </trkpt>
      <trkpt lat="43.169661" lon="-2.288583">
        <ele>132.372</ele>
        <time>2021-04-06T09:37:26Z</time>
      </trkpt>
      <trkpt lat="43.169673" lon="-2.288611">
        <ele>132.230</ele>
        <time>2021-04-06T09:37:27Z</time>
      </trkpt>
      <trkpt lat="43.169685" lon="-2.288639">
        <ele>132.027</ele>
        <time>2021-04-06T09:37:28Z</time>
      </trkpt>
      <trkpt lat="43.169703" lon="-2.288673">
        <ele>131.525</ele>
        <time>2021-04-06T09:37:29Z</time>
      </trkpt>
      <trkpt lat="43.169722" lon="-2.288711">
        <ele>131.054</ele>
        <time>2021-04-06T09:37:30Z</time>
      </trkpt>
      <trkpt lat="43.169737" lon="-2.288743">
        <ele>130.256</ele>
        <time>2021-04-06T09:37:31Z</time>
      </trkpt>
      <trkpt lat="43.169747" lon="-2.288778">
        <ele>129.711</ele>
        <time>2021-04-06T09:37:32Z</time>
      </trkpt>
      <trkpt lat="43.169755" lon="-2.288815">
        <ele>129.208</ele>
        <time>2021-04-06T09:37:33Z</time>
      </trkpt>
      <trkpt lat="43.169768" lon="-2.288853">
        <ele>128.562</ele>
        <time>2021-04-06T09:37:34Z</time>
      </trkpt>
      <trkpt lat="43.169780" lon="-2.288894">
        <ele>127.855</ele>
        <time>2021-04-06T09:37:35Z</time>
      </trkpt>
      <trkpt lat="43.169789" lon="-2.288931">
        <ele>126.996</ele>
        <time>2021-04-06T09:37:36Z</time>
      </trkpt>
      <trkpt lat="43.169798" lon="-2.288970">
        <ele>125.941</ele>
        <time>2021-04-06T09:37:37Z</time>
      </trkpt>
      <trkpt lat="43.169800" lon="-2.289004">
        <ele>125.426</ele>
        <time>2021-04-06T09:37:38Z</time>
      </trkpt>
      <trkpt lat="43.169781" lon="-2.289112">
        <ele>124.894</ele>
        <time>2021-04-06T09:37:41Z</time>
      </trkpt>
      <trkpt lat="43.169770" lon="-2.289151">
        <ele>124.791</ele>
        <time>2021-04-06T09:37:42Z</time>
      </trkpt>
      <trkpt lat="43.169759" lon="-2.289191">
        <ele>124.439</ele>
        <time>2021-04-06T09:37:43Z</time>
      </trkpt>
      <trkpt lat="43.169718" lon="-2.289279">
        <ele>123.845</ele>
        <time>2021-04-06T09:37:45Z</time>
      </trkpt>
      <trkpt lat="43.169680" lon="-2.289361">
        <ele>123.647</ele>
        <time>2021-04-06T09:37:47Z</time>
      </trkpt>
      <trkpt lat="43.169665" lon="-2.289403">
        <ele>123.211</ele>
        <time>2021-04-06T09:37:48Z</time>
      </trkpt>
      <trkpt lat="43.169648" lon="-2.289495">
        <ele>123.508</ele>
        <time>2021-04-06T09:37:50Z</time>
      </trkpt>
      <trkpt lat="43.169651" lon="-2.289537">
        <ele>123.861</ele>
        <time>2021-04-06T09:37:51Z</time>
      </trkpt>
      <trkpt lat="43.169663" lon="-2.289567">
        <ele>123.894</ele>
        <time>2021-04-06T09:37:52Z</time>
      </trkpt>
      <trkpt lat="43.169686" lon="-2.289588">
        <ele>123.595</ele>
        <time>2021-04-06T09:37:53Z</time>
      </trkpt>
      <trkpt lat="43.169721" lon="-2.289602">
        <ele>122.970</ele>
        <time>2021-04-06T09:37:54Z</time>
      </trkpt>
      <trkpt lat="43.169791" lon="-2.289627">
        <ele>123.465</ele>
        <time>2021-04-06T09:37:56Z</time>
      </trkpt>
      <trkpt lat="43.169884" lon="-2.289638">
        <ele>123.713</ele>
        <time>2021-04-06T09:37:59Z</time>
      </trkpt>
      <trkpt lat="43.169916" lon="-2.289627">
        <ele>123.510</ele>
        <time>2021-04-06T09:38:00Z</time>
      </trkpt>
      <trkpt lat="43.169949" lon="-2.289607">
        <ele>123.368</ele>
        <time>2021-04-06T09:38:01Z</time>
      </trkpt>
      <trkpt lat="43.169979" lon="-2.289572">
        <ele>122.825</ele>
        <time>2021-04-06T09:38:02Z</time>
      </trkpt>
      <trkpt lat="43.170003" lon="-2.289531">
        <ele>122.426</ele>
        <time>2021-04-06T09:38:03Z</time>
      </trkpt>
      <trkpt lat="43.170021" lon="-2.289490">
        <ele>122.708</ele>
        <time>2021-04-06T09:38:04Z</time>
      </trkpt>
      <trkpt lat="43.170043" lon="-2.289445">
        <ele>123.008</ele>
        <time>2021-04-06T09:38:05Z</time>
      </trkpt>
      <trkpt lat="43.170069" lon="-2.289405">
        <ele>123.639</ele>
        <time>2021-04-06T09:38:06Z</time>
      </trkpt>
      <trkpt lat="43.170094" lon="-2.289365">
        <ele>124.112</ele>
        <time>2021-04-06T09:38:07Z</time>
      </trkpt>
      <trkpt lat="43.170117" lon="-2.289330">
        <ele>124.523</ele>
        <time>2021-04-06T09:38:08Z</time>
      </trkpt>
      <trkpt lat="43.170138" lon="-2.289291">
        <ele>124.758</ele>
        <time>2021-04-06T09:38:09Z</time>
      </trkpt>
      <trkpt lat="43.170155" lon="-2.289250">
        <ele>124.723</ele>
        <time>2021-04-06T09:38:10Z</time>
      </trkpt>
      <trkpt lat="43.170168" lon="-2.289207">
        <ele>124.461</ele>
        <time>2021-04-06T09:38:11Z</time>
      </trkpt>
      <trkpt lat="43.170180" lon="-2.289164">
        <ele>124.198</ele>
        <time>2021-04-06T09:38:12Z</time>
      </trkpt>
      <trkpt lat="43.170192" lon="-2.289123">
        <ele>124.096</ele>
        <time>2021-04-06T09:38:13Z</time>
      </trkpt>
      <trkpt lat="43.170200" lon="-2.289081">
        <ele>123.722</ele>
        <time>2021-04-06T09:38:14Z</time>
      </trkpt>
      <trkpt lat="43.170204" lon="-2.289038">
        <ele>123.362</ele>
        <time>2021-04-06T09:38:15Z</time>
      </trkpt>
      <trkpt lat="43.170210" lon="-2.289002">
        <ele>122.908</ele>
        <time>2021-04-06T09:38:16Z</time>
      </trkpt>
      <trkpt lat="43.170215" lon="-2.288965">
        <ele>122.508</ele>
        <time>2021-04-06T09:38:17Z</time>
      </trkpt>
      <trkpt lat="43.170222" lon="-2.288925">
        <ele>122.179</ele>
        <time>2021-04-06T09:38:18Z</time>
      </trkpt>
      <trkpt lat="43.170231" lon="-2.288885">
        <ele>121.762</ele>
        <time>2021-04-06T09:38:19Z</time>
      </trkpt>
      <trkpt lat="43.170242" lon="-2.288846">
        <ele>121.073</ele>
        <time>2021-04-06T09:38:20Z</time>
      </trkpt>
      <trkpt lat="43.170249" lon="-2.288808">
        <ele>120.278</ele>
        <time>2021-04-06T09:38:21Z</time>
      </trkpt>
      <trkpt lat="43.170256" lon="-2.288772">
        <ele>119.363</ele>
        <time>2021-04-06T09:38:22Z</time>
      </trkpt>
      <trkpt lat="43.170263" lon="-2.288732">
        <ele>118.331</ele>
        <time>2021-04-06T09:38:23Z</time>
      </trkpt>
      <trkpt lat="43.170273" lon="-2.288693">
        <ele>117.348</ele>
        <time>2021-04-06T09:38:24Z</time>
      </trkpt>
      <trkpt lat="43.170284" lon="-2.288656">
        <ele>116.456</ele>
        <time>2021-04-06T09:38:25Z</time>
      </trkpt>
      <trkpt lat="43.170297" lon="-2.288625">
        <ele>115.694</ele>
        <time>2021-04-06T09:38:26Z</time>
      </trkpt>
      <trkpt lat="43.170309" lon="-2.288595">
        <ele>114.957</ele>
        <time>2021-04-06T09:38:27Z</time>
      </trkpt>
      <trkpt lat="43.170345" lon="-2.288547">
        <ele>113.822</ele>
        <time>2021-04-06T09:38:29Z</time>
      </trkpt>
      <trkpt lat="43.170368" lon="-2.288527">
        <ele>113.408</ele>
        <time>2021-04-06T09:38:30Z</time>
      </trkpt>
      <trkpt lat="43.170426" lon="-2.288491">
        <ele>112.466</ele>
        <time>2021-04-06T09:38:32Z</time>
      </trkpt>
      <trkpt lat="43.170451" lon="-2.288483">
        <ele>112.249</ele>
        <time>2021-04-06T09:38:33Z</time>
      </trkpt>
      <trkpt lat="43.170476" lon="-2.288476">
        <ele>112.080</ele>
        <time>2021-04-06T09:38:34Z</time>
      </trkpt>
      <trkpt lat="43.170503" lon="-2.288476">
        <ele>112.155</ele>
        <time>2021-04-06T09:38:35Z</time>
      </trkpt>
      <trkpt lat="43.170528" lon="-2.288475">
        <ele>112.140</ele>
        <time>2021-04-06T09:38:36Z</time>
      </trkpt>
      <trkpt lat="43.170561" lon="-2.288478">
        <ele>112.268</ele>
        <time>2021-04-06T09:38:37Z</time>
      </trkpt>
      <trkpt lat="43.170593" lon="-2.288482">
        <ele>112.485</ele>
        <time>2021-04-06T09:38:38Z</time>
      </trkpt>
      <trkpt lat="43.170624" lon="-2.288486">
        <ele>112.623</ele>
        <time>2021-04-06T09:38:39Z</time>
      </trkpt>
      <trkpt lat="43.170658" lon="-2.288494">
        <ele>113.077</ele>
        <time>2021-04-06T09:38:40Z</time>
      </trkpt>
      <trkpt lat="43.170695" lon="-2.288497">
        <ele>113.261</ele>
        <time>2021-04-06T09:38:41Z</time>
      </trkpt>
      <trkpt lat="43.170726" lon="-2.288496">
        <ele>113.127</ele>
        <time>2021-04-06T09:38:42Z</time>
      </trkpt>
      <trkpt lat="43.170758" lon="-2.288486">
        <ele>112.708</ele>
        <time>2021-04-06T09:38:43Z</time>
      </trkpt>
      <trkpt lat="43.170787" lon="-2.288474">
        <ele>112.114</ele>
        <time>2021-04-06T09:38:44Z</time>
      </trkpt>
      <trkpt lat="43.170811" lon="-2.288463">
        <ele>111.567</ele>
        <time>2021-04-06T09:38:45Z</time>
      </trkpt>
      <trkpt lat="43.170843" lon="-2.288452">
        <ele>110.978</ele>
        <time>2021-04-06T09:38:46Z</time>
      </trkpt>
      <trkpt lat="43.170875" lon="-2.288444">
        <ele>110.363</ele>
        <time>2021-04-06T09:38:47Z</time>
      </trkpt>
      <trkpt lat="43.170905" lon="-2.288436">
        <ele>109.748</ele>
        <time>2021-04-06T09:38:48Z</time>
      </trkpt>
      <trkpt lat="43.170933" lon="-2.288428">
        <ele>109.216</ele>
        <time>2021-04-06T09:38:49Z</time>
      </trkpt>
      <trkpt lat="43.170964" lon="-2.288425">
        <ele>108.813</ele>
        <time>2021-04-06T09:38:50Z</time>
      </trkpt>
      <trkpt lat="43.170995" lon="-2.288426">
        <ele>108.721</ele>
        <time>2021-04-06T09:38:51Z</time>
      </trkpt>
      <trkpt lat="43.171031" lon="-2.288440">
        <ele>109.164</ele>
        <time>2021-04-06T09:38:52Z</time>
      </trkpt>
      <trkpt lat="43.171062" lon="-2.288453">
        <ele>109.506</ele>
        <time>2021-04-06T09:38:53Z</time>
      </trkpt>
      <trkpt lat="43.171088" lon="-2.288467">
        <ele>109.916</ele>
        <time>2021-04-06T09:38:54Z</time>
      </trkpt>
      <trkpt lat="43.171112" lon="-2.288481">
        <ele>110.408</ele>
        <time>2021-04-06T09:38:55Z</time>
      </trkpt>
      <trkpt lat="43.171136" lon="-2.288496">
        <ele>110.963</ele>
        <time>2021-04-06T09:38:56Z</time>
      </trkpt>
      <trkpt lat="43.171158" lon="-2.288514">
        <ele>111.536</ele>
        <time>2021-04-06T09:38:57Z</time>
      </trkpt>
      <trkpt lat="43.171181" lon="-2.288523">
        <ele>111.817</ele>
        <time>2021-04-06T09:38:58Z</time>
      </trkpt>
      <trkpt lat="43.171205" lon="-2.288534">
        <ele>112.052</ele>
        <time>2021-04-06T09:38:59Z</time>
      </trkpt>
      <trkpt lat="43.171231" lon="-2.288542">
        <ele>112.187</ele>
        <time>2021-04-06T09:39:00Z</time>
      </trkpt>
      <trkpt lat="43.171258" lon="-2.288549">
        <ele>112.255</ele>
        <time>2021-04-06T09:39:01Z</time>
      </trkpt>
      <trkpt lat="43.171286" lon="-2.288557">
        <ele>112.342</ele>
        <time>2021-04-06T09:39:02Z</time>
      </trkpt>
      <trkpt lat="43.171316" lon="-2.288562">
        <ele>112.260</ele>
        <time>2021-04-06T09:39:03Z</time>
      </trkpt>
      <trkpt lat="43.171342" lon="-2.288570">
        <ele>112.222</ele>
        <time>2021-04-06T09:39:04Z</time>
      </trkpt>
      <trkpt lat="43.171369" lon="-2.288570">
        <ele>112.062</ele>
        <time>2021-04-06T09:39:05Z</time>
      </trkpt>
      <trkpt lat="43.171397" lon="-2.288562">
        <ele>111.608</ele>
        <time>2021-04-06T09:39:06Z</time>
      </trkpt>
      <trkpt lat="43.171432" lon="-2.288548">
        <ele>111.208</ele>
        <time>2021-04-06T09:39:07Z</time>
      </trkpt>
      <trkpt lat="43.171461" lon="-2.288539">
        <ele>110.989</ele>
        <time>2021-04-06T09:39:08Z</time>
      </trkpt>
      <trkpt lat="43.171490" lon="-2.288527">
        <ele>110.642</ele>
        <time>2021-04-06T09:39:09Z</time>
      </trkpt>
      <trkpt lat="43.171528" lon="-2.288514">
        <ele>110.243</ele>
        <time>2021-04-06T09:39:10Z</time>
      </trkpt>
      <trkpt lat="43.171571" lon="-2.288508">
        <ele>110.048</ele>
        <time>2021-04-06T09:39:11Z</time>
      </trkpt>
      <trkpt lat="43.171611" lon="-2.288500">
        <ele>109.863</ele>
        <time>2021-04-06T09:39:12Z</time>
      </trkpt>
      <trkpt lat="43.171643" lon="-2.288492">
        <ele>109.631</ele>
        <time>2021-04-06T09:39:13Z</time>
      </trkpt>
      <trkpt lat="43.171675" lon="-2.288485">
        <ele>109.528</ele>
        <time>2021-04-06T09:39:14Z</time>
      </trkpt>
      <trkpt lat="43.171707" lon="-2.288473">
        <ele>109.696</ele>
        <time>2021-04-06T09:39:15Z</time>
      </trkpt>
      <trkpt lat="43.171744" lon="-2.288453">
        <ele>109.699</ele>
        <time>2021-04-06T09:39:16Z</time>
      </trkpt>
      <trkpt lat="43.171778" lon="-2.288434">
        <ele>109.607</ele>
        <time>2021-04-06T09:39:17Z</time>
      </trkpt>
      <trkpt lat="43.171807" lon="-2.288413">
        <ele>109.527</ele>
        <time>2021-04-06T09:39:18Z</time>
      </trkpt>
      <trkpt lat="43.171833" lon="-2.288390">
        <ele>109.408</ele>
        <time>2021-04-06T09:39:19Z</time>
      </trkpt>
      <trkpt lat="43.171859" lon="-2.288366">
        <ele>109.256</ele>
        <time>2021-04-06T09:39:20Z</time>
      </trkpt>
      <trkpt lat="43.171883" lon="-2.288335">
        <ele>108.989</ele>
        <time>2021-04-06T09:39:21Z</time>
      </trkpt>
      <trkpt lat="43.171906" lon="-2.288302">
        <ele>108.360</ele>
        <time>2021-04-06T09:39:22Z</time>
      </trkpt>
      <trkpt lat="43.171926" lon="-2.288271">
        <ele>107.785</ele>
        <time>2021-04-06T09:39:23Z</time>
      </trkpt>
      <trkpt lat="43.171947" lon="-2.288241">
        <ele>107.090</ele>
        <time>2021-04-06T09:39:24Z</time>
      </trkpt>
      <trkpt lat="43.171973" lon="-2.288204">
        <ele>105.268</ele>
        <time>2021-04-06T09:39:25Z</time>
      </trkpt>
      <trkpt lat="43.171998" lon="-2.288169">
        <ele>103.745</ele>
        <time>2021-04-06T09:39:26Z</time>
      </trkpt>
      <trkpt lat="43.172022" lon="-2.288139">
        <ele>102.473</ele>
        <time>2021-04-06T09:39:27Z</time>
      </trkpt>
      <trkpt lat="43.172042" lon="-2.288112">
        <ele>101.438</ele>
        <time>2021-04-06T09:39:28Z</time>
      </trkpt>
      <trkpt lat="43.172063" lon="-2.288087">
        <ele>100.570</ele>
        <time>2021-04-06T09:39:29Z</time>
      </trkpt>
      <trkpt lat="43.172088" lon="-2.288064">
        <ele>99.617</ele>
        <time>2021-04-06T09:39:30Z</time>
      </trkpt>
      <trkpt lat="43.172115" lon="-2.288042">
        <ele>99.008</ele>
        <time>2021-04-06T09:39:31Z</time>
      </trkpt>
      <trkpt lat="43.172144" lon="-2.288028">
        <ele>98.620</ele>
        <time>2021-04-06T09:39:32Z</time>
      </trkpt>
      <trkpt lat="43.172176" lon="-2.288019">
        <ele>98.223</ele>
        <time>2021-04-06T09:39:33Z</time>
      </trkpt>
      <trkpt lat="43.172207" lon="-2.288010">
        <ele>97.884</ele>
        <time>2021-04-06T09:39:34Z</time>
      </trkpt>
      <trkpt lat="43.172239" lon="-2.288001">
        <ele>97.599</ele>
        <time>2021-04-06T09:39:35Z</time>
      </trkpt>
      <trkpt lat="43.172275" lon="-2.287996">
        <ele>97.384</ele>
        <time>2021-04-06T09:39:36Z</time>
      </trkpt>
      <trkpt lat="43.172304" lon="-2.287988">
        <ele>97.142</ele>
        <time>2021-04-06T09:39:37Z</time>
      </trkpt>
      <trkpt lat="43.172328" lon="-2.287988">
        <ele>96.929</ele>
        <time>2021-04-06T09:39:38Z</time>
      </trkpt>
      <trkpt lat="43.172350" lon="-2.287988">
        <ele>96.837</ele>
        <time>2021-04-06T09:39:39Z</time>
      </trkpt>
      <trkpt lat="43.172380" lon="-2.287997">
        <ele>96.747</ele>
        <time>2021-04-06T09:39:40Z</time>
      </trkpt>
      <trkpt lat="43.172403" lon="-2.288006">
        <ele>96.629</ele>
        <time>2021-04-06T09:39:41Z</time>
      </trkpt>
      <trkpt lat="43.172422" lon="-2.288020">
        <ele>96.521</ele>
        <time>2021-04-06T09:39:42Z</time>
      </trkpt>
      <trkpt lat="43.172449" lon="-2.288042">
        <ele>96.308</ele>
        <time>2021-04-06T09:39:43Z</time>
      </trkpt>
      <trkpt lat="43.172478" lon="-2.288059">
        <ele>96.231</ele>
        <time>2021-04-06T09:39:44Z</time>
      </trkpt>
      <trkpt lat="43.172503" lon="-2.288080">
        <ele>95.984</ele>
        <time>2021-04-06T09:39:45Z</time>
      </trkpt>
      <trkpt lat="43.172523" lon="-2.288096">
        <ele>95.585</ele>
        <time>2021-04-06T09:39:46Z</time>
      </trkpt>
      <trkpt lat="43.172545" lon="-2.288107">
        <ele>95.090</ele>
        <time>2021-04-06T09:39:47Z</time>
      </trkpt>
      <trkpt lat="43.172573" lon="-2.288112">
        <ele>94.545</ele>
        <time>2021-04-06T09:39:48Z</time>
      </trkpt>
      <trkpt lat="43.172605" lon="-2.288121">
        <ele>94.053</ele>
        <time>2021-04-06T09:39:49Z</time>
      </trkpt>
      <trkpt lat="43.172643" lon="-2.288113">
        <ele>93.350</ele>
        <time>2021-04-06T09:39:50Z</time>
      </trkpt>
      <trkpt lat="43.172689" lon="-2.288084">
        <ele>92.628</ele>
        <time>2021-04-06T09:39:51Z</time>
      </trkpt>
      <trkpt lat="43.172729" lon="-2.288051">
        <ele>91.942</ele>
        <time>2021-04-06T09:39:52Z</time>
      </trkpt>
      <trkpt lat="43.172766" lon="-2.288013">
        <ele>91.522</ele>
        <time>2021-04-06T09:39:53Z</time>
      </trkpt>
      <trkpt lat="43.172798" lon="-2.287976">
        <ele>91.614</ele>
        <time>2021-04-06T09:39:54Z</time>
      </trkpt>
      <trkpt lat="43.172825" lon="-2.287942">
        <ele>91.808</ele>
        <time>2021-04-06T09:39:55Z</time>
      </trkpt>
      <trkpt lat="43.172855" lon="-2.287912">
        <ele>91.961</ele>
        <time>2021-04-06T09:39:56Z</time>
      </trkpt>
      <trkpt lat="43.172886" lon="-2.287883">
        <ele>91.924</ele>
        <time>2021-04-06T09:39:57Z</time>
      </trkpt>
      <trkpt lat="43.172916" lon="-2.287858">
        <ele>91.985</ele>
        <time>2021-04-06T09:39:58Z</time>
      </trkpt>
      <trkpt lat="43.172941" lon="-2.287835">
        <ele>91.810</ele>
        <time>2021-04-06T09:39:59Z</time>
      </trkpt>
      <trkpt lat="43.172974" lon="-2.287808">
        <ele>91.655</ele>
        <time>2021-04-06T09:40:00Z</time>
      </trkpt>
      <trkpt lat="43.172999" lon="-2.287786">
        <ele>91.423</ele>
        <time>2021-04-06T09:40:01Z</time>
      </trkpt>
      <trkpt lat="43.173030" lon="-2.287761">
        <ele>91.230</ele>
        <time>2021-04-06T09:40:02Z</time>
      </trkpt>
      <trkpt lat="43.173085" lon="-2.287712">
        <ele>91.378</ele>
        <time>2021-04-06T09:40:04Z</time>
      </trkpt>
      <trkpt lat="43.173116" lon="-2.287680">
        <ele>91.319</ele>
        <time>2021-04-06T09:40:05Z</time>
      </trkpt>
      <trkpt lat="43.173146" lon="-2.287643">
        <ele>91.309</ele>
        <time>2021-04-06T09:40:06Z</time>
      </trkpt>
      <trkpt lat="43.173175" lon="-2.287600">
        <ele>91.219</ele>
        <time>2021-04-06T09:40:07Z</time>
      </trkpt>
      <trkpt lat="43.173192" lon="-2.287564">
        <ele>91.108</ele>
        <time>2021-04-06T09:40:08Z</time>
      </trkpt>
      <trkpt lat="43.173208" lon="-2.287532">
        <ele>91.058</ele>
        <time>2021-04-06T09:40:09Z</time>
      </trkpt>
      <trkpt lat="43.173228" lon="-2.287496">
        <ele>90.861</ele>
        <time>2021-04-06T09:40:10Z</time>
      </trkpt>
      <trkpt lat="43.173243" lon="-2.287456">
        <ele>90.912</ele>
        <time>2021-04-06T09:40:11Z</time>
      </trkpt>
      <trkpt lat="43.173263" lon="-2.287421">
        <ele>90.927</ele>
        <time>2021-04-06T09:40:12Z</time>
      </trkpt>
      <trkpt lat="43.173281" lon="-2.287388">
        <ele>90.982</ele>
        <time>2021-04-06T09:40:13Z</time>
      </trkpt>
      <trkpt lat="43.173299" lon="-2.287352">
        <ele>90.860</ele>
        <time>2021-04-06T09:40:14Z</time>
      </trkpt>
      <trkpt lat="43.173321" lon="-2.287320">
        <ele>90.877</ele>
        <time>2021-04-06T09:40:15Z</time>
      </trkpt>
      <trkpt lat="43.173338" lon="-2.287289">
        <ele>90.865</ele>
        <time>2021-04-06T09:40:16Z</time>
      </trkpt>
      <trkpt lat="43.173354" lon="-2.287261">
        <ele>90.892</ele>
        <time>2021-04-06T09:40:17Z</time>
      </trkpt>
      <trkpt lat="43.173371" lon="-2.287232">
        <ele>90.873</ele>
        <time>2021-04-06T09:40:18Z</time>
      </trkpt>
      <trkpt lat="43.173385" lon="-2.287204">
        <ele>90.920</ele>
        <time>2021-04-06T09:40:19Z</time>
      </trkpt>
      <trkpt lat="43.173404" lon="-2.287180">
        <ele>91.008</ele>
        <time>2021-04-06T09:40:20Z</time>
      </trkpt>
      <trkpt lat="43.173424" lon="-2.287159">
        <ele>91.146</ele>
        <time>2021-04-06T09:40:21Z</time>
      </trkpt>
      <trkpt lat="43.173447" lon="-2.287139">
        <ele>91.169</ele>
        <time>2021-04-06T09:40:22Z</time>
      </trkpt>
      <trkpt lat="43.173468" lon="-2.287117">
        <ele>91.190</ele>
        <time>2021-04-06T09:40:23Z</time>
      </trkpt>
      <trkpt lat="43.173495" lon="-2.287087">
        <ele>91.195</ele>
        <time>2021-04-06T09:40:24Z</time>
      </trkpt>
      <trkpt lat="43.173520" lon="-2.287067">
        <ele>91.140</ele>
        <time>2021-04-06T09:40:25Z</time>
      </trkpt>
      <trkpt lat="43.173543" lon="-2.287049">
        <ele>91.038</ele>
        <time>2021-04-06T09:40:26Z</time>
      </trkpt>
      <trkpt lat="43.173564" lon="-2.287025">
        <ele>91.065</ele>
        <time>2021-04-06T09:40:27Z</time>
      </trkpt>
      <trkpt lat="43.173596" lon="-2.287011">
        <ele>90.963</ele>
        <time>2021-04-06T09:40:28Z</time>
      </trkpt>
      <trkpt lat="43.173624" lon="-2.286995">
        <ele>90.843</ele>
        <time>2021-04-06T09:40:29Z</time>
      </trkpt>
      <trkpt lat="43.173651" lon="-2.286980">
        <ele>90.664</ele>
        <time>2021-04-06T09:40:30Z</time>
      </trkpt>
      <trkpt lat="43.173681" lon="-2.286963">
        <ele>90.510</ele>
        <time>2021-04-06T09:40:31Z</time>
      </trkpt>
      <trkpt lat="43.173711" lon="-2.286943">
        <ele>90.308</ele>
        <time>2021-04-06T09:40:32Z</time>
      </trkpt>
      <trkpt lat="43.173738" lon="-2.286922">
        <ele>90.231</ele>
        <time>2021-04-06T09:40:33Z</time>
      </trkpt>
      <trkpt lat="43.173763" lon="-2.286901">
        <ele>90.294</ele>
        <time>2021-04-06T09:40:34Z</time>
      </trkpt>
      <trkpt lat="43.173783" lon="-2.286875">
        <ele>90.395</ele>
        <time>2021-04-06T09:40:35Z</time>
      </trkpt>
      <trkpt lat="43.173809" lon="-2.286856">
        <ele>90.360</ele>
        <time>2021-04-06T09:40:36Z</time>
      </trkpt>
      <trkpt lat="43.173832" lon="-2.286832">
        <ele>90.525</ele>
        <time>2021-04-06T09:40:37Z</time>
      </trkpt>
      <trkpt lat="43.173851" lon="-2.286805">
        <ele>90.683</ele>
        <time>2021-04-06T09:40:38Z</time>
      </trkpt>
      <trkpt lat="43.173872" lon="-2.286777">
        <ele>90.970</ele>
        <time>2021-04-06T09:40:39Z</time>
      </trkpt>
      <trkpt lat="43.173896" lon="-2.286747">
        <ele>91.148</ele>
        <time>2021-04-06T09:40:40Z</time>
      </trkpt>
      <trkpt lat="43.173941" lon="-2.286691">
        <ele>91.351</ele>
        <time>2021-04-06T09:40:42Z</time>
      </trkpt>
      <trkpt lat="43.173964" lon="-2.286660">
        <ele>91.201</ele>
        <time>2021-04-06T09:40:43Z</time>
      </trkpt>
      <trkpt lat="43.173983" lon="-2.286621">
        <ele>91.211</ele>
        <time>2021-04-06T09:40:44Z</time>
      </trkpt>
      <trkpt lat="43.173999" lon="-2.286583">
        <ele>91.208</ele>
        <time>2021-04-06T09:40:45Z</time>
      </trkpt>
      <trkpt lat="43.174017" lon="-2.286549">
        <ele>91.212</ele>
        <time>2021-04-06T09:40:46Z</time>
      </trkpt>
      <trkpt lat="43.174039" lon="-2.286518">
        <ele>91.235</ele>
        <time>2021-04-06T09:40:47Z</time>
      </trkpt>
      <trkpt lat="43.174060" lon="-2.286488">
        <ele>91.356</ele>
        <time>2021-04-06T09:40:48Z</time>
      </trkpt>
      <trkpt lat="43.174080" lon="-2.286457">
        <ele>91.511</ele>
        <time>2021-04-06T09:40:49Z</time>
      </trkpt>
      <trkpt lat="43.174101" lon="-2.286427">
        <ele>91.756</ele>
        <time>2021-04-06T09:40:50Z</time>
      </trkpt>
      <trkpt lat="43.174123" lon="-2.286398">
        <ele>91.944</ele>
        <time>2021-04-06T09:40:51Z</time>
      </trkpt>
      <trkpt lat="43.174145" lon="-2.286365">
        <ele>92.041</ele>
        <time>2021-04-06T09:40:52Z</time>
      </trkpt>
      <trkpt lat="43.174165" lon="-2.286336">
        <ele>92.069</ele>
        <time>2021-04-06T09:40:53Z</time>
      </trkpt>
      <trkpt lat="43.174188" lon="-2.286311">
        <ele>91.811</ele>
        <time>2021-04-06T09:40:54Z</time>
      </trkpt>
      <trkpt lat="43.174210" lon="-2.286281">
        <ele>91.721</ele>
        <time>2021-04-06T09:40:55Z</time>
      </trkpt>
      <trkpt lat="43.174230" lon="-2.286250">
        <ele>91.503</ele>
        <time>2021-04-06T09:40:56Z</time>
      </trkpt>
      <trkpt lat="43.174249" lon="-2.286221">
        <ele>91.508</ele>
        <time>2021-04-06T09:40:57Z</time>
      </trkpt>
      <trkpt lat="43.174268" lon="-2.286183">
        <ele>91.418</ele>
        <time>2021-04-06T09:40:58Z</time>
      </trkpt>
      <trkpt lat="43.174282" lon="-2.286149">
        <ele>91.511</ele>
        <time>2021-04-06T09:40:59Z</time>
      </trkpt>
      <trkpt lat="43.174317" lon="-2.286085">
        <ele>91.552</ele>
        <time>2021-04-06T09:41:00Z</time>
      </trkpt>
      <trkpt lat="43.174334" lon="-2.286050">
        <ele>91.527</ele>
        <time>2021-04-06T09:41:02Z</time>
      </trkpt>
      <trkpt lat="43.174346" lon="-2.286012">
        <ele>91.642</ele>
        <time>2021-04-06T09:41:03Z</time>
      </trkpt>
      <trkpt lat="43.174358" lon="-2.285971">
        <ele>91.750</ele>
        <time>2021-04-06T09:41:04Z</time>
      </trkpt>
      <trkpt lat="43.174378" lon="-2.285932">
        <ele>91.747</ele>
        <time>2021-04-06T09:41:05Z</time>
      </trkpt>
      <trkpt lat="43.174392" lon="-2.285891">
        <ele>91.825</ele>
        <time>2021-04-06T09:41:06Z</time>
      </trkpt>
      <trkpt lat="43.174408" lon="-2.285852">
        <ele>91.931</ele>
        <time>2021-04-06T09:41:07Z</time>
      </trkpt>
      <trkpt lat="43.174421" lon="-2.285811">
        <ele>92.061</ele>
        <time>2021-04-06T09:41:08Z</time>
      </trkpt>
      <trkpt lat="43.174432" lon="-2.285772">
        <ele>92.007</ele>
        <time>2021-04-06T09:41:09Z</time>
      </trkpt>
      <trkpt lat="43.174446" lon="-2.285737">
        <ele>92.008</ele>
        <time>2021-04-06T09:41:10Z</time>
      </trkpt>
      <trkpt lat="43.174459" lon="-2.285702">
        <ele>91.970</ele>
        <time>2021-04-06T09:41:11Z</time>
      </trkpt>
      <trkpt lat="43.174472" lon="-2.285664">
        <ele>91.833</ele>
        <time>2021-04-06T09:41:12Z</time>
      </trkpt>
      <trkpt lat="43.174481" lon="-2.285628">
        <ele>91.784</ele>
        <time>2021-04-06T09:41:13Z</time>
      </trkpt>
      <trkpt lat="43.174493" lon="-2.285588">
        <ele>91.659</ele>
        <time>2021-04-06T09:41:14Z</time>
      </trkpt>
      <trkpt lat="43.174508" lon="-2.285553">
        <ele>91.544</ele>
        <time>2021-04-06T09:41:15Z</time>
      </trkpt>
      <trkpt lat="43.174527" lon="-2.285520">
        <ele>91.412</ele>
        <time>2021-04-06T09:41:16Z</time>
      </trkpt>
      <trkpt lat="43.174540" lon="-2.285484">
        <ele>91.269</ele>
        <time>2021-04-06T09:41:17Z</time>
      </trkpt>
      <trkpt lat="43.174558" lon="-2.285447">
        <ele>91.157</ele>
        <time>2021-04-06T09:41:18Z</time>
      </trkpt>
      <trkpt lat="43.174566" lon="-2.285407">
        <ele>91.143</ele>
        <time>2021-04-06T09:41:19Z</time>
      </trkpt>
      <trkpt lat="43.174578" lon="-2.285371">
        <ele>91.064</ele>
        <time>2021-04-06T09:41:20Z</time>
      </trkpt>
      <trkpt lat="43.174588" lon="-2.285334">
        <ele>91.010</ele>
        <time>2021-04-06T09:41:21Z</time>
      </trkpt>
      <trkpt lat="43.174593" lon="-2.285298">
        <ele>91.008</ele>
        <time>2021-04-06T09:41:22Z</time>
      </trkpt>
      <trkpt lat="43.174595" lon="-2.285264">
        <ele>91.091</ele>
        <time>2021-04-06T09:41:23Z</time>
      </trkpt>
      <trkpt lat="43.174600" lon="-2.285230">
        <ele>91.064</ele>
        <time>2021-04-06T09:41:24Z</time>
      </trkpt>
      <trkpt lat="43.174606" lon="-2.285192">
        <ele>91.035</ele>
        <time>2021-04-06T09:41:25Z</time>
      </trkpt>
      <trkpt lat="43.174615" lon="-2.285154">
        <ele>91.010</ele>
        <time>2021-04-06T09:41:26Z</time>
      </trkpt>
      <trkpt lat="43.174620" lon="-2.285115">
        <ele>91.015</ele>
        <time>2021-04-06T09:41:27Z</time>
      </trkpt>
      <trkpt lat="43.174626" lon="-2.285079">
        <ele>91.093</ele>
        <time>2021-04-06T09:41:28Z</time>
      </trkpt>
      <trkpt lat="43.174632" lon="-2.285038">
        <ele>91.040</ele>
        <time>2021-04-06T09:41:29Z</time>
      </trkpt>
      <trkpt lat="43.174638" lon="-2.284997">
        <ele>91.078</ele>
        <time>2021-04-06T09:41:30Z</time>
      </trkpt>
      <trkpt lat="43.174654" lon="-2.284961">
        <ele>91.059</ele>
        <time>2021-04-06T09:41:31Z</time>
      </trkpt>
      <trkpt lat="43.174674" lon="-2.284928">
        <ele>91.003</ele>
        <time>2021-04-06T09:41:32Z</time>
      </trkpt>
      <trkpt lat="43.174694" lon="-2.284897">
        <ele>91.023</ele>
        <time>2021-04-06T09:41:33Z</time>
      </trkpt>
      <trkpt lat="43.174715" lon="-2.284861">
        <ele>91.008</ele>
        <time>2021-04-06T09:41:34Z</time>
      </trkpt>
      <trkpt lat="43.174734" lon="-2.284823">
        <ele>90.942</ele>
        <time>2021-04-06T09:41:35Z</time>
      </trkpt>
      <trkpt lat="43.174758" lon="-2.284790">
        <ele>90.895</ele>
        <time>2021-04-06T09:41:36Z</time>
      </trkpt>
      <trkpt lat="43.174777" lon="-2.284745">
        <ele>90.856</ele>
        <time>2021-04-06T09:41:37Z</time>
      </trkpt>
      <trkpt lat="43.174793" lon="-2.284705">
        <ele>90.851</ele>
        <time>2021-04-06T09:41:38Z</time>
      </trkpt>
      <trkpt lat="43.174811" lon="-2.284665">
        <ele>90.776</ele>
        <time>2021-04-06T09:41:39Z</time>
      </trkpt>
      <trkpt lat="43.174822" lon="-2.284627">
        <ele>90.844</ele>
        <time>2021-04-06T09:41:40Z</time>
      </trkpt>
      <trkpt lat="43.174830" lon="-2.284586">
        <ele>90.831</ele>
        <time>2021-04-06T09:41:41Z</time>
      </trkpt>
      <trkpt lat="43.174841" lon="-2.284549">
        <ele>90.899</ele>
        <time>2021-04-06T09:41:42Z</time>
      </trkpt>
      <trkpt lat="43.174855" lon="-2.284510">
        <ele>90.938</ele>
        <time>2021-04-06T09:41:43Z</time>
      </trkpt>
      <trkpt lat="43.174867" lon="-2.284470">
        <ele>91.070</ele>
        <time>2021-04-06T09:41:44Z</time>
      </trkpt>
      <trkpt lat="43.174875" lon="-2.284432">
        <ele>91.017</ele>
        <time>2021-04-06T09:41:45Z</time>
      </trkpt>
      <trkpt lat="43.174881" lon="-2.284394">
        <ele>91.008</ele>
        <time>2021-04-06T09:41:46Z</time>
      </trkpt>
      <trkpt lat="43.174895" lon="-2.284355">
        <ele>91.050</ele>
        <time>2021-04-06T09:41:47Z</time>
      </trkpt>
      <trkpt lat="43.174907" lon="-2.284316">
        <ele>91.083</ele>
        <time>2021-04-06T09:41:48Z</time>
      </trkpt>
      <trkpt lat="43.174920" lon="-2.284281">
        <ele>91.034</ele>
        <time>2021-04-06T09:41:49Z</time>
      </trkpt>
      <trkpt lat="43.174933" lon="-2.284244">
        <ele>91.059</ele>
        <time>2021-04-06T09:41:50Z</time>
      </trkpt>
      <trkpt lat="43.174941" lon="-2.284206">
        <ele>91.084</ele>
        <time>2021-04-06T09:41:51Z</time>
      </trkpt>
      <trkpt lat="43.174952" lon="-2.284169">
        <ele>91.072</ele>
        <time>2021-04-06T09:41:52Z</time>
      </trkpt>
      <trkpt lat="43.174964" lon="-2.284127">
        <ele>91.019</ele>
        <time>2021-04-06T09:41:53Z</time>
      </trkpt>
      <trkpt lat="43.174977" lon="-2.284086">
        <ele>91.097</ele>
        <time>2021-04-06T09:41:54Z</time>
      </trkpt>
      <trkpt lat="43.174991" lon="-2.284049">
        <ele>91.032</ele>
        <time>2021-04-06T09:41:55Z</time>
      </trkpt>
      <trkpt lat="43.174998" lon="-2.284013">
        <ele>91.092</ele>
        <time>2021-04-06T09:41:56Z</time>
      </trkpt>
      <trkpt lat="43.175005" lon="-2.283976">
        <ele>90.911</ele>
        <time>2021-04-06T09:41:57Z</time>
      </trkpt>
      <trkpt lat="43.175014" lon="-2.283938">
        <ele>90.808</ele>
        <time>2021-04-06T09:41:58Z</time>
      </trkpt>
      <trkpt lat="43.175022" lon="-2.283897">
        <ele>90.880</ele>
        <time>2021-04-06T09:41:59Z</time>
      </trkpt>
      <trkpt lat="43.175028" lon="-2.283859">
        <ele>90.723</ele>
        <time>2021-04-06T09:42:00Z</time>
      </trkpt>
      <trkpt lat="43.175035" lon="-2.283820">
        <ele>90.754</ele>
        <time>2021-04-06T09:42:01Z</time>
      </trkpt>
      <trkpt lat="43.175037" lon="-2.283785">
        <ele>90.719</ele>
        <time>2021-04-06T09:42:02Z</time>
      </trkpt>
      <trkpt lat="43.175043" lon="-2.283751">
        <ele>90.624</ele>
        <time>2021-04-06T09:42:03Z</time>
      </trkpt>
      <trkpt lat="43.175047" lon="-2.283714">
        <ele>90.692</ele>
        <time>2021-04-06T09:42:04Z</time>
      </trkpt>
      <trkpt lat="43.175052" lon="-2.283677">
        <ele>90.699</ele>
        <time>2021-04-06T09:42:05Z</time>
      </trkpt>
      <trkpt lat="43.175055" lon="-2.283635">
        <ele>90.677</ele>
        <time>2021-04-06T09:42:06Z</time>
      </trkpt>
      <trkpt lat="43.175058" lon="-2.283592">
        <ele>90.667</ele>
        <time>2021-04-06T09:42:07Z</time>
      </trkpt>
      <trkpt lat="43.175061" lon="-2.283551">
        <ele>90.681</ele>
        <time>2021-04-06T09:42:08Z</time>
      </trkpt>
      <trkpt lat="43.175071" lon="-2.283511">
        <ele>90.519</ele>
        <time>2021-04-06T09:42:09Z</time>
      </trkpt>
      <trkpt lat="43.175080" lon="-2.283476">
        <ele>90.408</ele>
        <time>2021-04-06T09:42:10Z</time>
      </trkpt>
      <trkpt lat="43.175091" lon="-2.283440">
        <ele>90.333</ele>
        <time>2021-04-06T09:42:11Z</time>
      </trkpt>
      <trkpt lat="43.175103" lon="-2.283404">
        <ele>90.386</ele>
        <time>2021-04-06T09:42:12Z</time>
      </trkpt>
      <trkpt lat="43.175129" lon="-2.283326">
        <ele>90.187</ele>
        <time>2021-04-06T09:42:14Z</time>
      </trkpt>
      <trkpt lat="43.175138" lon="-2.283287">
        <ele>90.222</ele>
        <time>2021-04-06T09:42:15Z</time>
      </trkpt>
      <trkpt lat="43.175140" lon="-2.283251">
        <ele>90.347</ele>
        <time>2021-04-06T09:42:16Z</time>
      </trkpt>
      <trkpt lat="43.175144" lon="-2.283213">
        <ele>90.495</ele>
        <time>2021-04-06T09:42:17Z</time>
      </trkpt>
      <trkpt lat="43.175147" lon="-2.283167">
        <ele>90.582</ele>
        <time>2021-04-06T09:42:18Z</time>
      </trkpt>
      <trkpt lat="43.175150" lon="-2.283128">
        <ele>90.710</ele>
        <time>2021-04-06T09:42:19Z</time>
      </trkpt>
      <trkpt lat="43.175151" lon="-2.283086">
        <ele>90.894</ele>
        <time>2021-04-06T09:42:20Z</time>
      </trkpt>
      <trkpt lat="43.175147" lon="-2.283044">
        <ele>91.057</ele>
        <time>2021-04-06T09:42:21Z</time>
      </trkpt>
      <trkpt lat="43.175136" lon="-2.283004">
        <ele>91.122</ele>
        <time>2021-04-06T09:42:22Z</time>
      </trkpt>
      <trkpt lat="43.175124" lon="-2.282968">
        <ele>91.308</ele>
        <time>2021-04-06T09:42:23Z</time>
      </trkpt>
      <trkpt lat="43.175109" lon="-2.282931">
        <ele>91.516</ele>
        <time>2021-04-06T09:42:24Z</time>
      </trkpt>
      <trkpt lat="43.175097" lon="-2.282894">
        <ele>91.779</ele>
        <time>2021-04-06T09:42:25Z</time>
      </trkpt>
      <trkpt lat="43.175084" lon="-2.282858">
        <ele>91.990</ele>
        <time>2021-04-06T09:42:26Z</time>
      </trkpt>
      <trkpt lat="43.175074" lon="-2.282816">
        <ele>92.135</ele>
        <time>2021-04-06T09:42:27Z</time>
      </trkpt>
      <trkpt lat="43.175070" lon="-2.282778">
        <ele>92.290</ele>
        <time>2021-04-06T09:42:28Z</time>
      </trkpt>
      <trkpt lat="43.175076" lon="-2.282746">
        <ele>92.298</ele>
        <time>2021-04-06T09:42:29Z</time>
      </trkpt>
      <trkpt lat="43.175092" lon="-2.282713">
        <ele>92.185</ele>
        <time>2021-04-06T09:42:30Z</time>
      </trkpt>
      <trkpt lat="43.175109" lon="-2.282685">
        <ele>92.073</ele>
        <time>2021-04-06T09:42:31Z</time>
      </trkpt>
      <trkpt lat="43.175122" lon="-2.282652">
        <ele>91.976</ele>
        <time>2021-04-06T09:42:32Z</time>
      </trkpt>
      <trkpt lat="43.175140" lon="-2.282616">
        <ele>91.890</ele>
        <time>2021-04-06T09:42:33Z</time>
      </trkpt>
      <trkpt lat="43.175159" lon="-2.282581">
        <ele>91.719</ele>
        <time>2021-04-06T09:42:34Z</time>
      </trkpt>
      <trkpt lat="43.175177" lon="-2.282545">
        <ele>91.608</ele>
        <time>2021-04-06T09:42:35Z</time>
      </trkpt>
      <trkpt lat="43.175194" lon="-2.282510">
        <ele>91.624</ele>
        <time>2021-04-06T09:42:36Z</time>
      </trkpt>
      <trkpt lat="43.175208" lon="-2.282476">
        <ele>91.557</ele>
        <time>2021-04-06T09:42:37Z</time>
      </trkpt>
      <trkpt lat="43.175223" lon="-2.282444">
        <ele>91.458</ele>
        <time>2021-04-06T09:42:38Z</time>
      </trkpt>
      <trkpt lat="43.175238" lon="-2.282411">
        <ele>91.253</ele>
        <time>2021-04-06T09:42:39Z</time>
      </trkpt>
      <trkpt lat="43.175257" lon="-2.282377">
        <ele>91.168</ele>
        <time>2021-04-06T09:42:40Z</time>
      </trkpt>
      <trkpt lat="43.175269" lon="-2.282341">
        <ele>91.096</ele>
        <time>2021-04-06T09:42:41Z</time>
      </trkpt>
      <trkpt lat="43.175283" lon="-2.282304">
        <ele>91.053</ele>
        <time>2021-04-06T09:42:42Z</time>
      </trkpt>
      <trkpt lat="43.175288" lon="-2.282261">
        <ele>90.971</ele>
        <time>2021-04-06T09:42:43Z</time>
      </trkpt>
      <trkpt lat="43.175272" lon="-2.282222">
        <ele>91.081</ele>
        <time>2021-04-06T09:42:44Z</time>
      </trkpt>
      <trkpt lat="43.175245" lon="-2.282194">
        <ele>91.161</ele>
        <time>2021-04-06T09:42:45Z</time>
      </trkpt>
      <trkpt lat="43.175222" lon="-2.282168">
        <ele>91.217</ele>
        <time>2021-04-06T09:42:46Z</time>
      </trkpt>
      <trkpt lat="43.175198" lon="-2.282145">
        <ele>91.308</ele>
        <time>2021-04-06T09:42:47Z</time>
      </trkpt>
      <trkpt lat="43.175176" lon="-2.282123">
        <ele>91.415</ele>
        <time>2021-04-06T09:42:48Z</time>
      </trkpt>
      <trkpt lat="43.175156" lon="-2.282098">
        <ele>91.468</ele>
        <time>2021-04-06T09:42:49Z</time>
      </trkpt>
      <trkpt lat="43.175132" lon="-2.282077">
        <ele>91.589</ele>
        <time>2021-04-06T09:42:50Z</time>
      </trkpt>
      <trkpt lat="43.175105" lon="-2.282057">
        <ele>91.664</ele>
        <time>2021-04-06T09:42:51Z</time>
      </trkpt>
      <trkpt lat="43.175077" lon="-2.282033">
        <ele>91.719</ele>
        <time>2021-04-06T09:42:52Z</time>
      </trkpt>
      <trkpt lat="43.175051" lon="-2.282011">
        <ele>91.817</ele>
        <time>2021-04-06T09:42:53Z</time>
      </trkpt>
      <trkpt lat="43.175026" lon="-2.281992">
        <ele>91.944</ele>
        <time>2021-04-06T09:42:54Z</time>
      </trkpt>
      <trkpt lat="43.174998" lon="-2.281972">
        <ele>92.052</ele>
        <time>2021-04-06T09:42:55Z</time>
      </trkpt>
      <trkpt lat="43.174974" lon="-2.281952">
        <ele>92.028</ele>
        <time>2021-04-06T09:42:56Z</time>
      </trkpt>
      <trkpt lat="43.174953" lon="-2.281926">
        <ele>92.089</ele>
        <time>2021-04-06T09:42:57Z</time>
      </trkpt>
      <trkpt lat="43.174943" lon="-2.281891">
        <ele>92.017</ele>
        <time>2021-04-06T09:42:58Z</time>
      </trkpt>
      <trkpt lat="43.174934" lon="-2.281852">
        <ele>92.008</ele>
        <time>2021-04-06T09:42:59Z</time>
      </trkpt>
      <trkpt lat="43.174933" lon="-2.281811">
        <ele>92.029</ele>
        <time>2021-04-06T09:43:00Z</time>
      </trkpt>
      <trkpt lat="43.174940" lon="-2.281771">
        <ele>92.082</ele>
        <time>2021-04-06T09:43:01Z</time>
      </trkpt>
      <trkpt lat="43.174947" lon="-2.281731">
        <ele>92.023</ele>
        <time>2021-04-06T09:43:02Z</time>
      </trkpt>
      <trkpt lat="43.174953" lon="-2.281690">
        <ele>92.098</ele>
        <time>2021-04-06T09:43:03Z</time>
      </trkpt>
      <trkpt lat="43.174957" lon="-2.281654">
        <ele>92.093</ele>
        <time>2021-04-06T09:43:04Z</time>
      </trkpt>
      <trkpt lat="43.174961" lon="-2.281616">
        <ele>92.041</ele>
        <time>2021-04-06T09:43:05Z</time>
      </trkpt>
      <trkpt lat="43.174971" lon="-2.281582">
        <ele>92.048</ele>
        <time>2021-04-06T09:43:06Z</time>
      </trkpt>
      <trkpt lat="43.174983" lon="-2.281550">
        <ele>92.056</ele>
        <time>2021-04-06T09:43:07Z</time>
      </trkpt>
      <trkpt lat="43.174998" lon="-2.281519">
        <ele>92.074</ele>
        <time>2021-04-06T09:43:08Z</time>
      </trkpt>
      <trkpt lat="43.175018" lon="-2.281491">
        <ele>91.956</ele>
        <time>2021-04-06T09:43:09Z</time>
      </trkpt>
      <trkpt lat="43.175041" lon="-2.281464">
        <ele>91.821</ele>
        <time>2021-04-06T09:43:10Z</time>
      </trkpt>
      <trkpt lat="43.175061" lon="-2.281430">
        <ele>91.708</ele>
        <time>2021-04-06T09:43:11Z</time>
      </trkpt>
      <trkpt lat="43.175081" lon="-2.281402">
        <ele>91.724</ele>
        <time>2021-04-06T09:43:12Z</time>
      </trkpt>
      <trkpt lat="43.175101" lon="-2.281368">
        <ele>91.617</ele>
        <time>2021-04-06T09:43:13Z</time>
      </trkpt>
      <trkpt lat="43.175118" lon="-2.281334">
        <ele>91.588</ele>
        <time>2021-04-06T09:43:14Z</time>
      </trkpt>
      <trkpt lat="43.175135" lon="-2.281302">
        <ele>91.433</ele>
        <time>2021-04-06T09:43:15Z</time>
      </trkpt>
      <trkpt lat="43.175159" lon="-2.281272">
        <ele>91.298</ele>
        <time>2021-04-06T09:43:16Z</time>
      </trkpt>
      <trkpt lat="43.175180" lon="-2.281247">
        <ele>91.256</ele>
        <time>2021-04-06T09:43:17Z</time>
      </trkpt>
      <trkpt lat="43.175201" lon="-2.281220">
        <ele>91.193</ele>
        <time>2021-04-06T09:43:18Z</time>
      </trkpt>
      <trkpt lat="43.175217" lon="-2.281185">
        <ele>91.191</ele>
        <time>2021-04-06T09:43:19Z</time>
      </trkpt>
      <trkpt lat="43.175236" lon="-2.281154">
        <ele>91.022</ele>
        <time>2021-04-06T09:43:20Z</time>
      </trkpt>
      <trkpt lat="43.175261" lon="-2.281122">
        <ele>91.062</ele>
        <time>2021-04-06T09:43:21Z</time>
      </trkpt>
      <trkpt lat="43.175285" lon="-2.281093">
        <ele>90.908</ele>
        <time>2021-04-06T09:43:22Z</time>
      </trkpt>
      <trkpt lat="43.175309" lon="-2.281063">
        <ele>90.708</ele>
        <time>2021-04-06T09:43:23Z</time>
      </trkpt>
      <trkpt lat="43.175332" lon="-2.281030">
        <ele>90.449</ele>
        <time>2021-04-06T09:43:24Z</time>
      </trkpt>
      <trkpt lat="43.175351" lon="-2.280997">
        <ele>90.242</ele>
        <time>2021-04-06T09:43:25Z</time>
      </trkpt>
      <trkpt lat="43.175375" lon="-2.280968">
        <ele>90.023</ele>
        <time>2021-04-06T09:43:26Z</time>
      </trkpt>
      <trkpt lat="43.175399" lon="-2.280938">
        <ele>89.748</ele>
        <time>2021-04-06T09:43:27Z</time>
      </trkpt>
      <trkpt lat="43.175410" lon="-2.280899">
        <ele>89.693</ele>
        <time>2021-04-06T09:43:28Z</time>
      </trkpt>
      <trkpt lat="43.175422" lon="-2.280859">
        <ele>89.491</ele>
        <time>2021-04-06T09:43:29Z</time>
      </trkpt>
      <trkpt lat="43.175435" lon="-2.280817">
        <ele>89.358</ele>
        <time>2021-04-06T09:43:30Z</time>
      </trkpt>
      <trkpt lat="43.175451" lon="-2.280772">
        <ele>89.216</ele>
        <time>2021-04-06T09:43:31Z</time>
      </trkpt>
      <trkpt lat="43.175462" lon="-2.280727">
        <ele>89.194</ele>
        <time>2021-04-06T09:43:32Z</time>
      </trkpt>
      <trkpt lat="43.175472" lon="-2.280688">
        <ele>89.157</ele>
        <time>2021-04-06T09:43:33Z</time>
      </trkpt>
      <trkpt lat="43.175491" lon="-2.280654">
        <ele>89.022</ele>
        <time>2021-04-06T09:43:34Z</time>
      </trkpt>
      <trkpt lat="43.175505" lon="-2.280622">
        <ele>89.008</ele>
        <time>2021-04-06T09:43:35Z</time>
      </trkpt>
      <trkpt lat="43.175524" lon="-2.280595">
        <ele>89.036</ele>
        <time>2021-04-06T09:43:36Z</time>
      </trkpt>
      <trkpt lat="43.175544" lon="-2.280569">
        <ele>89.099</ele>
        <time>2021-04-06T09:43:37Z</time>
      </trkpt>
      <trkpt lat="43.175570" lon="-2.280546">
        <ele>89.070</ele>
        <time>2021-04-06T09:43:38Z</time>
      </trkpt>
      <trkpt lat="43.175593" lon="-2.280517">
        <ele>89.125</ele>
        <time>2021-04-06T09:43:39Z</time>
      </trkpt>
      <trkpt lat="43.175611" lon="-2.280486">
        <ele>89.210</ele>
        <time>2021-04-06T09:43:40Z</time>
      </trkpt>
      <trkpt lat="43.175624" lon="-2.280453">
        <ele>89.258</ele>
        <time>2021-04-06T09:43:41Z</time>
      </trkpt>
      <trkpt lat="43.175633" lon="-2.280413">
        <ele>89.115</ele>
        <time>2021-04-06T09:43:42Z</time>
      </trkpt>
      <trkpt lat="43.175640" lon="-2.280374">
        <ele>89.113</ele>
        <time>2021-04-06T09:43:43Z</time>
      </trkpt>
      <trkpt lat="43.175649" lon="-2.280336">
        <ele>89.143</ele>
        <time>2021-04-06T09:43:44Z</time>
      </trkpt>
      <trkpt lat="43.175661" lon="-2.280305">
        <ele>89.064</ele>
        <time>2021-04-06T09:43:45Z</time>
      </trkpt>
      <trkpt lat="43.175668" lon="-2.280268">
        <ele>89.010</ele>
        <time>2021-04-06T09:43:46Z</time>
      </trkpt>
      <trkpt lat="43.175677" lon="-2.280233">
        <ele>89.008</ele>
        <time>2021-04-06T09:43:47Z</time>
      </trkpt>
      <trkpt lat="43.175691" lon="-2.280203">
        <ele>89.021</ele>
        <time>2021-04-06T09:43:48Z</time>
      </trkpt>
      <trkpt lat="43.175706" lon="-2.280168">
        <ele>89.044</ele>
        <time>2021-04-06T09:43:49Z</time>
      </trkpt>
      <trkpt lat="43.175717" lon="-2.280133">
        <ele>89.055</ele>
        <time>2021-04-06T09:43:50Z</time>
      </trkpt>
      <trkpt lat="43.175736" lon="-2.280100">
        <ele>89.010</ele>
        <time>2021-04-06T09:43:51Z</time>
      </trkpt>
      <trkpt lat="43.175759" lon="-2.280069">
        <ele>89.055</ele>
        <time>2021-04-06T09:43:52Z</time>
      </trkpt>
      <trkpt lat="43.175781" lon="-2.280034">
        <ele>89.063</ele>
        <time>2021-04-06T09:43:53Z</time>
      </trkpt>
      <trkpt lat="43.175799" lon="-2.279994">
        <ele>89.050</ele>
        <time>2021-04-06T09:43:54Z</time>
      </trkpt>
      <trkpt lat="43.175821" lon="-2.279960">
        <ele>88.938</ele>
        <time>2021-04-06T09:43:55Z</time>
      </trkpt>
      <trkpt lat="43.175839" lon="-2.279921">
        <ele>88.758</ele>
        <time>2021-04-06T09:43:56Z</time>
      </trkpt>
      <trkpt lat="43.175856" lon="-2.279885">
        <ele>88.752</ele>
        <time>2021-04-06T09:43:57Z</time>
      </trkpt>
      <trkpt lat="43.175874" lon="-2.279850">
        <ele>88.717</ele>
        <time>2021-04-06T09:43:58Z</time>
      </trkpt>
      <trkpt lat="43.175892" lon="-2.279814">
        <ele>88.708</ele>
        <time>2021-04-06T09:43:59Z</time>
      </trkpt>
      <trkpt lat="43.175907" lon="-2.279780">
        <ele>88.742</ele>
        <time>2021-04-06T09:44:00Z</time>
      </trkpt>
      <trkpt lat="43.175921" lon="-2.279746">
        <ele>88.765</ele>
        <time>2021-04-06T09:44:01Z</time>
      </trkpt>
      <trkpt lat="43.175932" lon="-2.279713">
        <ele>88.716</ele>
        <time>2021-04-06T09:44:02Z</time>
      </trkpt>
      <trkpt lat="43.175946" lon="-2.279682">
        <ele>88.751</ele>
        <time>2021-04-06T09:44:03Z</time>
      </trkpt>
      <trkpt lat="43.175958" lon="-2.279656">
        <ele>88.836</ele>
        <time>2021-04-06T09:44:04Z</time>
      </trkpt>
      <trkpt lat="43.175970" lon="-2.279624">
        <ele>88.824</ele>
        <time>2021-04-06T09:44:05Z</time>
      </trkpt>
      <trkpt lat="43.175990" lon="-2.279590">
        <ele>88.941</ele>
        <time>2021-04-06T09:44:06Z</time>
      </trkpt>
      <trkpt lat="43.176011" lon="-2.279557">
        <ele>89.139</ele>
        <time>2021-04-06T09:44:07Z</time>
      </trkpt>
      <trkpt lat="43.176028" lon="-2.279517">
        <ele>89.267</ele>
        <time>2021-04-06T09:44:08Z</time>
      </trkpt>
      <trkpt lat="43.176043" lon="-2.279479">
        <ele>89.381</ele>
        <time>2021-04-06T09:44:09Z</time>
      </trkpt>
      <trkpt lat="43.176059" lon="-2.279441">
        <ele>89.419</ele>
        <time>2021-04-06T09:44:10Z</time>
      </trkpt>
      <trkpt lat="43.176070" lon="-2.279402">
        <ele>89.608</ele>
        <time>2021-04-06T09:44:11Z</time>
      </trkpt>
      <trkpt lat="43.176079" lon="-2.279362">
        <ele>89.753</ele>
        <time>2021-04-06T09:44:12Z</time>
      </trkpt>
      <trkpt lat="43.176088" lon="-2.279324">
        <ele>89.816</ele>
        <time>2021-04-06T09:44:13Z</time>
      </trkpt>
      <trkpt lat="43.176098" lon="-2.279287">
        <ele>89.977</ele>
        <time>2021-04-06T09:44:14Z</time>
      </trkpt>
      <trkpt lat="43.176110" lon="-2.279251">
        <ele>90.012</ele>
        <time>2021-04-06T09:44:15Z</time>
      </trkpt>
      <trkpt lat="43.176123" lon="-2.279212">
        <ele>90.127</ele>
        <time>2021-04-06T09:44:16Z</time>
      </trkpt>
      <trkpt lat="43.176134" lon="-2.279174">
        <ele>90.225</ele>
        <time>2021-04-06T09:44:17Z</time>
      </trkpt>
      <trkpt lat="43.176149" lon="-2.279138">
        <ele>90.212</ele>
        <time>2021-04-06T09:44:18Z</time>
      </trkpt>
      <trkpt lat="43.176167" lon="-2.279102">
        <ele>90.140</ele>
        <time>2021-04-06T09:44:19Z</time>
      </trkpt>
      <trkpt lat="43.176188" lon="-2.279066">
        <ele>90.119</ele>
        <time>2021-04-06T09:44:20Z</time>
      </trkpt>
      <trkpt lat="43.176205" lon="-2.279034">
        <ele>90.009</ele>
        <time>2021-04-06T09:44:21Z</time>
      </trkpt>
      <trkpt lat="43.176223" lon="-2.278998">
        <ele>90.019</ele>
        <time>2021-04-06T09:44:22Z</time>
      </trkpt>
      <trkpt lat="43.176237" lon="-2.278962">
        <ele>89.808</ele>
        <time>2021-04-06T09:44:23Z</time>
      </trkpt>
      <trkpt lat="43.176256" lon="-2.278934">
        <ele>89.848</ele>
        <time>2021-04-06T09:44:24Z</time>
      </trkpt>
      <trkpt lat="43.176274" lon="-2.278902">
        <ele>89.721</ele>
        <time>2021-04-06T09:44:25Z</time>
      </trkpt>
      <trkpt lat="43.176291" lon="-2.278870">
        <ele>89.752</ele>
        <time>2021-04-06T09:44:26Z</time>
      </trkpt>
      <trkpt lat="43.176309" lon="-2.278833">
        <ele>89.877</ele>
        <time>2021-04-06T09:44:27Z</time>
      </trkpt>
      <trkpt lat="43.176329" lon="-2.278801">
        <ele>89.832</ele>
        <time>2021-04-06T09:44:28Z</time>
      </trkpt>
      <trkpt lat="43.176347" lon="-2.278768">
        <ele>89.730</ele>
        <time>2021-04-06T09:44:29Z</time>
      </trkpt>
      <trkpt lat="43.176359" lon="-2.278732">
        <ele>89.627</ele>
        <time>2021-04-06T09:44:30Z</time>
      </trkpt>
      <trkpt lat="43.176372" lon="-2.278702">
        <ele>89.585</ele>
        <time>2021-04-06T09:44:31Z</time>
      </trkpt>
      <trkpt lat="43.176391" lon="-2.278669">
        <ele>89.276</ele>
        <time>2021-04-06T09:44:32Z</time>
      </trkpt>
      <trkpt lat="43.176410" lon="-2.278639">
        <ele>89.390</ele>
        <time>2021-04-06T09:44:33Z</time>
      </trkpt>
      <trkpt lat="43.176427" lon="-2.278606">
        <ele>89.319</ele>
        <time>2021-04-06T09:44:34Z</time>
      </trkpt>
      <trkpt lat="43.176445" lon="-2.278571">
        <ele>89.608</ele>
        <time>2021-04-06T09:44:35Z</time>
      </trkpt>
      <trkpt lat="43.176463" lon="-2.278542">
        <ele>89.894</ele>
        <time>2021-04-06T09:44:36Z</time>
      </trkpt>
      <trkpt lat="43.176480" lon="-2.278511">
        <ele>89.997</ele>
        <time>2021-04-06T09:44:37Z</time>
      </trkpt>
      <trkpt lat="43.176499" lon="-2.278479">
        <ele>90.018</ele>
        <time>2021-04-06T09:44:38Z</time>
      </trkpt>
      <trkpt lat="43.176517" lon="-2.278447">
        <ele>90.053</ele>
        <time>2021-04-06T09:44:39Z</time>
      </trkpt>
      <trkpt lat="43.176535" lon="-2.278415">
        <ele>90.038</ele>
        <time>2021-04-06T09:44:40Z</time>
      </trkpt>
      <trkpt lat="43.176553" lon="-2.278381">
        <ele>89.966</ele>
        <time>2021-04-06T09:44:41Z</time>
      </trkpt>
      <trkpt lat="43.176573" lon="-2.278345">
        <ele>89.713</ele>
        <time>2021-04-06T09:44:42Z</time>
      </trkpt>
      <trkpt lat="43.176589" lon="-2.278311">
        <ele>89.611</ele>
        <time>2021-04-06T09:44:43Z</time>
      </trkpt>
      <trkpt lat="43.176607" lon="-2.278275">
        <ele>89.427</ele>
        <time>2021-04-06T09:44:44Z</time>
      </trkpt>
      <trkpt lat="43.176626" lon="-2.278243">
        <ele>89.368</ele>
        <time>2021-04-06T09:44:45Z</time>
      </trkpt>
      <trkpt lat="43.176642" lon="-2.278210">
        <ele>89.214</ele>
        <time>2021-04-06T09:44:46Z</time>
      </trkpt>
      <trkpt lat="43.176661" lon="-2.278179">
        <ele>89.008</ele>
        <time>2021-04-06T09:44:47Z</time>
      </trkpt>
      <trkpt lat="43.176680" lon="-2.278148">
        <ele>89.169</ele>
        <time>2021-04-06T09:44:48Z</time>
      </trkpt>
      <trkpt lat="43.176700" lon="-2.278118">
        <ele>89.232</ele>
        <time>2021-04-06T09:44:49Z</time>
      </trkpt>
      <trkpt lat="43.176720" lon="-2.278086">
        <ele>89.233</ele>
        <time>2021-04-06T09:44:50Z</time>
      </trkpt>
      <trkpt lat="43.176738" lon="-2.278055">
        <ele>89.338</ele>
        <time>2021-04-06T09:44:51Z</time>
      </trkpt>
      <trkpt lat="43.176756" lon="-2.278023">
        <ele>89.443</ele>
        <time>2021-04-06T09:44:52Z</time>
      </trkpt>
      <trkpt lat="43.176772" lon="-2.277993">
        <ele>89.481</ele>
        <time>2021-04-06T09:44:53Z</time>
      </trkpt>
      <trkpt lat="43.176787" lon="-2.277962">
        <ele>89.568</ele>
        <time>2021-04-06T09:44:54Z</time>
      </trkpt>
      <trkpt lat="43.176804" lon="-2.277932">
        <ele>89.536</ele>
        <time>2021-04-06T09:44:55Z</time>
      </trkpt>
      <trkpt lat="43.176823" lon="-2.277900">
        <ele>89.585</ele>
        <time>2021-04-06T09:44:56Z</time>
      </trkpt>
      <trkpt lat="43.176839" lon="-2.277870">
        <ele>89.589</ele>
        <time>2021-04-06T09:44:57Z</time>
      </trkpt>
      <trkpt lat="43.176856" lon="-2.277839">
        <ele>89.417</ele>
        <time>2021-04-06T09:44:58Z</time>
      </trkpt>
      <trkpt lat="43.176873" lon="-2.277808">
        <ele>89.308</ele>
        <time>2021-04-06T09:44:59Z</time>
      </trkpt>
      <trkpt lat="43.176889" lon="-2.277776">
        <ele>89.235</ele>
        <time>2021-04-06T09:45:00Z</time>
      </trkpt>
      <trkpt lat="43.176904" lon="-2.277740">
        <ele>89.128</ele>
        <time>2021-04-06T09:45:01Z</time>
      </trkpt>
      <trkpt lat="43.176919" lon="-2.277704">
        <ele>89.129</ele>
        <time>2021-04-06T09:45:02Z</time>
      </trkpt>
      <trkpt lat="43.176937" lon="-2.277671">
        <ele>89.014</ele>
        <time>2021-04-06T09:45:03Z</time>
      </trkpt>
      <trkpt lat="43.176954" lon="-2.277637">
        <ele>89.099</ele>
        <time>2021-04-06T09:45:04Z</time>
      </trkpt>
      <trkpt lat="43.176972" lon="-2.277604">
        <ele>89.137</ele>
        <time>2021-04-06T09:45:05Z</time>
      </trkpt>
      <trkpt lat="43.176989" lon="-2.277570">
        <ele>89.174</ele>
        <time>2021-04-06T09:45:06Z</time>
      </trkpt>
      <trkpt lat="43.177007" lon="-2.277534">
        <ele>89.122</ele>
        <time>2021-04-06T09:45:07Z</time>
      </trkpt>
      <trkpt lat="43.177025" lon="-2.277502">
        <ele>89.036</ele>
        <time>2021-04-06T09:45:08Z</time>
      </trkpt>
      <trkpt lat="43.177043" lon="-2.277469">
        <ele>89.017</ele>
        <time>2021-04-06T09:45:09Z</time>
      </trkpt>
      <trkpt lat="43.177061" lon="-2.277436">
        <ele>89.018</ele>
        <time>2021-04-06T09:45:10Z</time>
      </trkpt>
      <trkpt lat="43.177078" lon="-2.277405">
        <ele>89.008</ele>
        <time>2021-04-06T09:45:11Z</time>
      </trkpt>
      <trkpt lat="43.177096" lon="-2.277372">
        <ele>89.090</ele>
        <time>2021-04-06T09:45:12Z</time>
      </trkpt>
      <trkpt lat="43.177113" lon="-2.277343">
        <ele>89.083</ele>
        <time>2021-04-06T09:45:13Z</time>
      </trkpt>
      <trkpt lat="43.177131" lon="-2.277314">
        <ele>89.024</ele>
        <time>2021-04-06T09:45:14Z</time>
      </trkpt>
      <trkpt lat="43.177150" lon="-2.277282">
        <ele>89.029</ele>
        <time>2021-04-06T09:45:15Z</time>
      </trkpt>
      <trkpt lat="43.177168" lon="-2.277251">
        <ele>89.064</ele>
        <time>2021-04-06T09:45:16Z</time>
      </trkpt>
      <trkpt lat="43.177184" lon="-2.277217">
        <ele>89.042</ele>
        <time>2021-04-06T09:45:17Z</time>
      </trkpt>
      <trkpt lat="43.177202" lon="-2.277182">
        <ele>89.089</ele>
        <time>2021-04-06T09:45:18Z</time>
      </trkpt>
      <trkpt lat="43.177218" lon="-2.277149">
        <ele>89.067</ele>
        <time>2021-04-06T09:45:19Z</time>
      </trkpt>
      <trkpt lat="43.177235" lon="-2.277114">
        <ele>89.044</ele>
        <time>2021-04-06T09:45:20Z</time>
      </trkpt>
      <trkpt lat="43.177254" lon="-2.277079">
        <ele>89.105</ele>
        <time>2021-04-06T09:45:21Z</time>
      </trkpt>
      <trkpt lat="43.177271" lon="-2.277039">
        <ele>89.115</ele>
        <time>2021-04-06T09:45:22Z</time>
      </trkpt>
      <trkpt lat="43.177281" lon="-2.276996">
        <ele>89.008</ele>
        <time>2021-04-06T09:45:23Z</time>
      </trkpt>
      <trkpt lat="43.177285" lon="-2.276950">
        <ele>89.091</ele>
        <time>2021-04-06T09:45:24Z</time>
      </trkpt>
      <trkpt lat="43.177283" lon="-2.276904">
        <ele>89.044</ele>
        <time>2021-04-06T09:45:25Z</time>
      </trkpt>
      <trkpt lat="43.177277" lon="-2.276860">
        <ele>88.935</ele>
        <time>2021-04-06T09:45:26Z</time>
      </trkpt>
      <trkpt lat="43.177273" lon="-2.276815">
        <ele>88.920</ele>
        <time>2021-04-06T09:45:27Z</time>
      </trkpt>
      <trkpt lat="43.177272" lon="-2.276770">
        <ele>88.985</ele>
        <time>2021-04-06T09:45:28Z</time>
      </trkpt>
      <trkpt lat="43.177270" lon="-2.276726">
        <ele>88.993</ele>
        <time>2021-04-06T09:45:29Z</time>
      </trkpt>
      <trkpt lat="43.177264" lon="-2.276679">
        <ele>88.970</ele>
        <time>2021-04-06T09:45:30Z</time>
      </trkpt>
      <trkpt lat="43.177249" lon="-2.276640">
        <ele>88.728</ele>
        <time>2021-04-06T09:45:31Z</time>
      </trkpt>
      <trkpt lat="43.177227" lon="-2.276604">
        <ele>88.562</ele>
        <time>2021-04-06T09:45:32Z</time>
      </trkpt>
      <trkpt lat="43.177212" lon="-2.276564">
        <ele>88.383</ele>
        <time>2021-04-06T09:45:33Z</time>
      </trkpt>
      <trkpt lat="43.177207" lon="-2.276524">
        <ele>88.011</ele>
        <time>2021-04-06T09:45:34Z</time>
      </trkpt>
      <trkpt lat="43.177214" lon="-2.276486">
        <ele>87.708</ele>
        <time>2021-04-06T09:45:35Z</time>
      </trkpt>
      <trkpt lat="43.177231" lon="-2.276451">
        <ele>87.433</ele>
        <time>2021-04-06T09:45:36Z</time>
      </trkpt>
      <trkpt lat="43.177251" lon="-2.276422">
        <ele>87.286</ele>
        <time>2021-04-06T09:45:37Z</time>
      </trkpt>
      <trkpt lat="43.177277" lon="-2.276395">
        <ele>87.077</ele>
        <time>2021-04-06T09:45:38Z</time>
      </trkpt>
      <trkpt lat="43.177302" lon="-2.276374">
        <ele>87.082</ele>
        <time>2021-04-06T09:45:39Z</time>
      </trkpt>
      <trkpt lat="43.177327" lon="-2.276368">
        <ele>87.087</ele>
        <time>2021-04-06T09:45:40Z</time>
      </trkpt>
      <trkpt lat="43.177353" lon="-2.276376">
        <ele>87.095</ele>
        <time>2021-04-06T09:45:41Z</time>
      </trkpt>
      <trkpt lat="43.177381" lon="-2.276385">
        <ele>87.022</ele>
        <time>2021-04-06T09:45:42Z</time>
      </trkpt>
      <trkpt lat="43.177412" lon="-2.276389">
        <ele>87.050</ele>
        <time>2021-04-06T09:45:43Z</time>
      </trkpt>
      <trkpt lat="43.177442" lon="-2.276390">
        <ele>87.069</ele>
        <time>2021-04-06T09:45:44Z</time>
      </trkpt>
      <trkpt lat="43.177471" lon="-2.276388">
        <ele>87.004</ele>
        <time>2021-04-06T09:45:45Z</time>
      </trkpt>
      <trkpt lat="43.177499" lon="-2.276384">
        <ele>87.024</ele>
        <time>2021-04-06T09:45:46Z</time>
      </trkpt>
      <trkpt lat="43.177525" lon="-2.276383">
        <ele>87.008</ele>
        <time>2021-04-06T09:45:47Z</time>
      </trkpt>
      <trkpt lat="43.177553" lon="-2.276376">
        <ele>87.013</ele>
        <time>2021-04-06T09:45:48Z</time>
      </trkpt>
      <trkpt lat="43.177580" lon="-2.276364">
        <ele>87.016</ele>
        <time>2021-04-06T09:45:49Z</time>
      </trkpt>
      <trkpt lat="43.177606" lon="-2.276353">
        <ele>87.047</ele>
        <time>2021-04-06T09:45:50Z</time>
      </trkpt>
      <trkpt lat="43.177631" lon="-2.276337">
        <ele>87.042</ele>
        <time>2021-04-06T09:45:51Z</time>
      </trkpt>
      <trkpt lat="43.177655" lon="-2.276322">
        <ele>87.017</ele>
        <time>2021-04-06T09:45:52Z</time>
      </trkpt>
      <trkpt lat="43.177677" lon="-2.276311">
        <ele>87.095</ele>
        <time>2021-04-06T09:45:53Z</time>
      </trkpt>
      <trkpt lat="43.177701" lon="-2.276301">
        <ele>87.042</ele>
        <time>2021-04-06T09:45:54Z</time>
      </trkpt>
      <trkpt lat="43.177723" lon="-2.276292">
        <ele>87.050</ele>
        <time>2021-04-06T09:45:55Z</time>
      </trkpt>
      <trkpt lat="43.177742" lon="-2.276283">
        <ele>87.067</ele>
        <time>2021-04-06T09:45:56Z</time>
      </trkpt>
      <trkpt lat="43.177764" lon="-2.276267">
        <ele>87.081</ele>
        <time>2021-04-06T09:45:58Z</time>
      </trkpt>
      <trkpt lat="43.177787" lon="-2.276285">
        <ele>87.019</ele>
        <time>2021-04-06T09:46:07Z</time>
      </trkpt>
      <trkpt lat="43.177807" lon="-2.276303">
        <ele>87.108</ele>
        <time>2021-04-06T09:46:08Z</time>
      </trkpt>
      <trkpt lat="43.177829" lon="-2.276326">
        <ele>87.293</ele>
        <time>2021-04-06T09:46:09Z</time>
      </trkpt>
      <trkpt lat="43.177851" lon="-2.276356">
        <ele>87.376</ele>
        <time>2021-04-06T09:46:10Z</time>
      </trkpt>
      <trkpt lat="43.177872" lon="-2.276390">
        <ele>87.387</ele>
        <time>2021-04-06T09:46:11Z</time>
      </trkpt>
      <trkpt lat="43.177891" lon="-2.276423">
        <ele>87.542</ele>
        <time>2021-04-06T09:46:12Z</time>
      </trkpt>
      <trkpt lat="43.177912" lon="-2.276454">
        <ele>87.797</ele>
        <time>2021-04-06T09:46:13Z</time>
      </trkpt>
      <trkpt lat="43.177934" lon="-2.276482">
        <ele>87.945</ele>
        <time>2021-04-06T09:46:14Z</time>
      </trkpt>
      <trkpt lat="43.177960" lon="-2.276504">
        <ele>88.192</ele>
        <time>2021-04-06T09:46:15Z</time>
      </trkpt>
      <trkpt lat="43.177986" lon="-2.276522">
        <ele>88.240</ele>
        <time>2021-04-06T09:46:16Z</time>
      </trkpt>
      <trkpt lat="43.178012" lon="-2.276538">
        <ele>88.484</ele>
        <time>2021-04-06T09:46:17Z</time>
      </trkpt>
      <trkpt lat="43.178036" lon="-2.276555">
        <ele>88.507</ele>
        <time>2021-04-06T09:46:18Z</time>
      </trkpt>
      <trkpt lat="43.178060" lon="-2.276575">
        <ele>88.717</ele>
        <time>2021-04-06T09:46:19Z</time>
      </trkpt>
      <trkpt lat="43.178088" lon="-2.276601">
        <ele>88.708</ele>
        <time>2021-04-06T09:46:20Z</time>
      </trkpt>
      <trkpt lat="43.178116" lon="-2.276625">
        <ele>88.735</ele>
        <time>2021-04-06T09:46:21Z</time>
      </trkpt>
      <trkpt lat="43.178142" lon="-2.276646">
        <ele>88.658</ele>
        <time>2021-04-06T09:46:22Z</time>
      </trkpt>
      <trkpt lat="43.178168" lon="-2.276668">
        <ele>88.629</ele>
        <time>2021-04-06T09:46:23Z</time>
      </trkpt>
      <trkpt lat="43.178194" lon="-2.276687">
        <ele>88.554</ele>
        <time>2021-04-06T09:46:24Z</time>
      </trkpt>
      <trkpt lat="43.178221" lon="-2.276705">
        <ele>88.479</ele>
        <time>2021-04-06T09:46:25Z</time>
      </trkpt>
      <trkpt lat="43.178247" lon="-2.276726">
        <ele>88.317</ele>
        <time>2021-04-06T09:46:26Z</time>
      </trkpt>
      <trkpt lat="43.178272" lon="-2.276743">
        <ele>88.284</ele>
        <time>2021-04-06T09:46:27Z</time>
      </trkpt>
      <trkpt lat="43.178303" lon="-2.276762">
        <ele>88.152</ele>
        <time>2021-04-06T09:46:28Z</time>
      </trkpt>
      <trkpt lat="43.178332" lon="-2.276779">
        <ele>88.066</ele>
        <time>2021-04-06T09:46:29Z</time>
      </trkpt>
      <trkpt lat="43.178360" lon="-2.276796">
        <ele>88.029</ele>
        <time>2021-04-06T09:46:30Z</time>
      </trkpt>
      <trkpt lat="43.178387" lon="-2.276814">
        <ele>88.021</ele>
        <time>2021-04-06T09:46:31Z</time>
      </trkpt>
      <trkpt lat="43.178414" lon="-2.276832">
        <ele>88.008</ele>
        <time>2021-04-06T09:46:32Z</time>
      </trkpt>
      <trkpt lat="43.178441" lon="-2.276849">
        <ele>88.043</ele>
        <time>2021-04-06T09:46:33Z</time>
      </trkpt>
      <trkpt lat="43.178466" lon="-2.276866">
        <ele>88.016</ele>
        <time>2021-04-06T09:46:34Z</time>
      </trkpt>
      <trkpt lat="43.178490" lon="-2.276883">
        <ele>88.047</ele>
        <time>2021-04-06T09:46:35Z</time>
      </trkpt>
      <trkpt lat="43.178516" lon="-2.276900">
        <ele>88.022</ele>
        <time>2021-04-06T09:46:36Z</time>
      </trkpt>
      <trkpt lat="43.178542" lon="-2.276918">
        <ele>88.077</ele>
        <time>2021-04-06T09:46:37Z</time>
      </trkpt>
      <trkpt lat="43.178569" lon="-2.276938">
        <ele>88.045</ele>
        <time>2021-04-06T09:46:38Z</time>
      </trkpt>
      <trkpt lat="43.178596" lon="-2.276960">
        <ele>88.182</ele>
        <time>2021-04-06T09:46:39Z</time>
      </trkpt>
      <trkpt lat="43.178620" lon="-2.276980">
        <ele>88.130</ele>
        <time>2021-04-06T09:46:40Z</time>
      </trkpt>
      <trkpt lat="43.178649" lon="-2.276992">
        <ele>88.154</ele>
        <time>2021-04-06T09:46:41Z</time>
      </trkpt>
      <trkpt lat="43.178679" lon="-2.276995">
        <ele>88.156</ele>
        <time>2021-04-06T09:46:42Z</time>
      </trkpt>
      <trkpt lat="43.178708" lon="-2.276987">
        <ele>88.111</ele>
        <time>2021-04-06T09:46:43Z</time>
      </trkpt>
      <trkpt lat="43.178736" lon="-2.276975">
        <ele>88.108</ele>
        <time>2021-04-06T09:46:44Z</time>
      </trkpt>
      <trkpt lat="43.178765" lon="-2.276950">
        <ele>88.022</ele>
        <time>2021-04-06T09:46:45Z</time>
      </trkpt>
      <trkpt lat="43.178790" lon="-2.276918">
        <ele>87.935</ele>
        <time>2021-04-06T09:46:46Z</time>
      </trkpt>
      <trkpt lat="43.178810" lon="-2.276880">
        <ele>87.856</ele>
        <time>2021-04-06T09:46:47Z</time>
      </trkpt>
      <trkpt lat="43.178825" lon="-2.276846">
        <ele>87.711</ele>
        <time>2021-04-06T09:46:48Z</time>
      </trkpt>
      <trkpt lat="43.178840" lon="-2.276815">
        <ele>87.636</ele>
        <time>2021-04-06T09:46:49Z</time>
      </trkpt>
      <trkpt lat="43.178855" lon="-2.276781">
        <ele>87.534</ele>
        <time>2021-04-06T09:46:50Z</time>
      </trkpt>
      <trkpt lat="43.178872" lon="-2.276750">
        <ele>87.371</ele>
        <time>2021-04-06T09:46:51Z</time>
      </trkpt>
      <trkpt lat="43.178887" lon="-2.276715">
        <ele>87.279</ele>
        <time>2021-04-06T09:46:52Z</time>
      </trkpt>
      <trkpt lat="43.178901" lon="-2.276678">
        <ele>87.176</ele>
        <time>2021-04-06T09:46:53Z</time>
      </trkpt>
      <trkpt lat="43.178915" lon="-2.276643">
        <ele>87.190</ele>
        <time>2021-04-06T09:46:54Z</time>
      </trkpt>
      <trkpt lat="43.178932" lon="-2.276610">
        <ele>87.119</ele>
        <time>2021-04-06T09:46:55Z</time>
      </trkpt>
      <trkpt lat="43.178947" lon="-2.276576">
        <ele>87.108</ele>
        <time>2021-04-06T09:46:56Z</time>
      </trkpt>
      <trkpt lat="43.178963" lon="-2.276542">
        <ele>87.124</ele>
        <time>2021-04-06T09:46:57Z</time>
      </trkpt>
      <trkpt lat="43.178980" lon="-2.276507">
        <ele>87.177</ele>
        <time>2021-04-06T09:46:58Z</time>
      </trkpt>
      <trkpt lat="43.178997" lon="-2.276475">
        <ele>87.118</ele>
        <time>2021-04-06T09:46:59Z</time>
      </trkpt>
      <trkpt lat="43.179015" lon="-2.276443">
        <ele>87.113</ele>
        <time>2021-04-06T09:47:00Z</time>
      </trkpt>
      <trkpt lat="43.179028" lon="-2.276409">
        <ele>87.018</ele>
        <time>2021-04-06T09:47:01Z</time>
      </trkpt>
      <trkpt lat="43.179046" lon="-2.276381">
        <ele>87.056</ele>
        <time>2021-04-06T09:47:02Z</time>
      </trkpt>
      <trkpt lat="43.179066" lon="-2.276357">
        <ele>87.063</ele>
        <time>2021-04-06T09:47:03Z</time>
      </trkpt>
      <trkpt lat="43.179086" lon="-2.276333">
        <ele>87.071</ele>
        <time>2021-04-06T09:47:04Z</time>
      </trkpt>
      <trkpt lat="43.179105" lon="-2.276307">
        <ele>87.011</ele>
        <time>2021-04-06T09:47:05Z</time>
      </trkpt>
      <trkpt lat="43.179125" lon="-2.276283">
        <ele>87.021</ele>
        <time>2021-04-06T09:47:06Z</time>
      </trkpt>
      <trkpt lat="43.179146" lon="-2.276265">
        <ele>87.003</ele>
        <time>2021-04-06T09:47:07Z</time>
      </trkpt>
      <trkpt lat="43.179165" lon="-2.276264">
        <ele>87.008</ele>
        <time>2021-04-06T09:47:08Z</time>
      </trkpt>
      <trkpt lat="43.179185" lon="-2.276273">
        <ele>87.078</ele>
        <time>2021-04-06T09:47:09Z</time>
      </trkpt>
      <trkpt lat="43.179205" lon="-2.276282">
        <ele>87.071</ele>
        <time>2021-04-06T09:47:10Z</time>
      </trkpt>
      <trkpt lat="43.179229" lon="-2.276288">
        <ele>87.022</ele>
        <time>2021-04-06T09:47:11Z</time>
      </trkpt>
      <trkpt lat="43.179253" lon="-2.276292">
        <ele>87.047</ele>
        <time>2021-04-06T09:47:12Z</time>
      </trkpt>
      <trkpt lat="43.179277" lon="-2.276292">
        <ele>87.012</ele>
        <time>2021-04-06T09:47:13Z</time>
      </trkpt>
      <trkpt lat="43.179300" lon="-2.276292">
        <ele>87.010</ele>
        <time>2021-04-06T09:47:14Z</time>
      </trkpt>
      <trkpt lat="43.179326" lon="-2.276296">
        <ele>87.087</ele>
        <time>2021-04-06T09:47:15Z</time>
      </trkpt>
      <trkpt lat="43.179351" lon="-2.276304">
        <ele>87.045</ele>
        <time>2021-04-06T09:47:16Z</time>
      </trkpt>
      <trkpt lat="43.179376" lon="-2.276312">
        <ele>87.022</ele>
        <time>2021-04-06T09:47:17Z</time>
      </trkpt>
      <trkpt lat="43.179401" lon="-2.276318">
        <ele>87.062</ele>
        <time>2021-04-06T09:47:18Z</time>
      </trkpt>
      <trkpt lat="43.179424" lon="-2.276324">
        <ele>87.008</ele>
        <time>2021-04-06T09:47:19Z</time>
      </trkpt>
      <trkpt lat="43.179451" lon="-2.276329">
        <ele>87.008</ele>
        <time>2021-04-06T09:47:20Z</time>
      </trkpt>
      <trkpt lat="43.179478" lon="-2.276335">
        <ele>87.059</ele>
        <time>2021-04-06T09:47:21Z</time>
      </trkpt>
      <trkpt lat="43.179503" lon="-2.276342">
        <ele>87.022</ele>
        <time>2021-04-06T09:47:22Z</time>
      </trkpt>
      <trkpt lat="43.179526" lon="-2.276348">
        <ele>87.023</ele>
        <time>2021-04-06T09:47:23Z</time>
      </trkpt>
      <trkpt lat="43.179548" lon="-2.276349">
        <ele>87.078</ele>
        <time>2021-04-06T09:47:24Z</time>
      </trkpt>
      <trkpt lat="43.179580" lon="-2.276339">
        <ele>87.083</ele>
        <time>2021-04-06T09:47:26Z</time>
      </trkpt>
      <trkpt lat="43.179604" lon="-2.276329">
        <ele>87.011</ele>
        <time>2021-04-06T09:47:28Z</time>
      </trkpt>
      <trkpt lat="43.179629" lon="-2.276316">
        <ele>87.048</ele>
        <time>2021-04-06T09:47:30Z</time>
      </trkpt>
      <trkpt lat="43.179653" lon="-2.276308">
        <ele>87.056</ele>
        <time>2021-04-06T09:47:32Z</time>
      </trkpt>
      <trkpt lat="43.179663" lon="-2.276302">
        <ele>87.016</ele>
        <time>2021-04-06T09:47:34Z</time>
      </trkpt>
      <trkpt lat="43.179719" lon="-2.276172">
        <ele>87.027</ele>
        <time>2021-04-06T09:48:04Z</time>
      </trkpt>
      <trkpt lat="43.179733" lon="-2.276137">
        <ele>87.168</ele>
        <time>2021-04-06T09:48:05Z</time>
      </trkpt>
      <trkpt lat="43.179748" lon="-2.276102">
        <ele>87.214</ele>
        <time>2021-04-06T09:48:07Z</time>
      </trkpt>
      <trkpt lat="43.179767" lon="-2.276069">
        <ele>87.308</ele>
        <time>2021-04-06T09:48:09Z</time>
      </trkpt>
      <trkpt lat="43.179782" lon="-2.276035">
        <ele>87.329</ele>
        <time>2021-04-06T09:48:11Z</time>
      </trkpt>
      <trkpt lat="43.179795" lon="-2.276003">
        <ele>87.332</ele>
        <time>2021-04-06T09:48:13Z</time>
      </trkpt>
      <trkpt lat="43.179811" lon="-2.275970">
        <ele>87.393</ele>
        <time>2021-04-06T09:48:15Z</time>
      </trkpt>
      <trkpt lat="43.179827" lon="-2.275947">
        <ele>87.338</ele>
        <time>2021-04-06T09:48:17Z</time>
      </trkpt>
      <trkpt lat="43.179854" lon="-2.275926">
        <ele>87.394</ele>
        <time>2021-04-06T09:48:19Z</time>
      </trkpt>
      <trkpt lat="43.179870" lon="-2.275914">
        <ele>87.371</ele>
        <time>2021-04-06T09:48:20Z</time>
      </trkpt>
      <trkpt lat="43.179899" lon="-2.275895">
        <ele>87.374</ele>
        <time>2021-04-06T09:48:22Z</time>
      </trkpt>
      <trkpt lat="43.179924" lon="-2.275873">
        <ele>87.299</ele>
        <time>2021-04-06T09:48:24Z</time>
      </trkpt>
      <trkpt lat="43.179952" lon="-2.275866">
        <ele>87.266</ele>
        <time>2021-04-06T09:48:26Z</time>
      </trkpt>
      <trkpt lat="43.179981" lon="-2.275866">
        <ele>87.229</ele>
        <time>2021-04-06T09:48:28Z</time>
      </trkpt>
      <trkpt lat="43.180010" lon="-2.275869">
        <ele>87.421</ele>
        <time>2021-04-06T09:48:30Z</time>
      </trkpt>
      <trkpt lat="43.180043" lon="-2.275866">
        <ele>87.908</ele>
        <time>2021-04-06T09:48:32Z</time>
      </trkpt>
      <trkpt lat="43.180074" lon="-2.275862">
        <ele>88.383</ele>
        <time>2021-04-06T09:48:34Z</time>
      </trkpt>
      <trkpt lat="43.180106" lon="-2.275851">
        <ele>88.746</ele>
        <time>2021-04-06T09:48:36Z</time>
      </trkpt>
      <trkpt lat="43.180137" lon="-2.275835">
        <ele>89.057</ele>
        <time>2021-04-06T09:48:38Z</time>
      </trkpt>
      <trkpt lat="43.180166" lon="-2.275820">
        <ele>89.392</ele>
        <time>2021-04-06T09:48:40Z</time>
      </trkpt>
      <trkpt lat="43.180195" lon="-2.275807">
        <ele>89.648</ele>
        <time>2021-04-06T09:48:43Z</time>
      </trkpt>
      <trkpt lat="43.180224" lon="-2.275791">
        <ele>89.985</ele>
        <time>2021-04-06T09:48:44Z</time>
      </trkpt>
      <trkpt lat="43.180252" lon="-2.275778">
        <ele>90.178</ele>
        <time>2021-04-06T09:48:46Z</time>
      </trkpt>
      <trkpt lat="43.180280" lon="-2.275769">
        <ele>90.393</ele>
        <time>2021-04-06T09:48:48Z</time>
      </trkpt>
      <trkpt lat="43.180306" lon="-2.275765">
        <ele>90.743</ele>
        <time>2021-04-06T09:48:50Z</time>
      </trkpt>
      <trkpt lat="43.180330" lon="-2.275752">
        <ele>90.964</ele>
        <time>2021-04-06T09:48:52Z</time>
      </trkpt>
      <trkpt lat="43.180353" lon="-2.275734">
        <ele>91.110</ele>
        <time>2021-04-06T09:48:54Z</time>
      </trkpt>
      <trkpt lat="43.180376" lon="-2.275721">
        <ele>91.308</ele>
        <time>2021-04-06T09:48:56Z</time>
      </trkpt>
      <trkpt lat="43.180400" lon="-2.275706">
        <ele>91.651</ele>
        <time>2021-04-06T09:48:58Z</time>
      </trkpt>
      <trkpt lat="43.180422" lon="-2.275685">
        <ele>91.894</ele>
        <time>2021-04-06T09:49:00Z</time>
      </trkpt>
      <trkpt lat="43.180447" lon="-2.275666">
        <ele>92.085</ele>
        <time>2021-04-06T09:49:02Z</time>
      </trkpt>
      <trkpt lat="43.180471" lon="-2.275649">
        <ele>92.340</ele>
        <time>2021-04-06T09:49:04Z</time>
      </trkpt>
      <trkpt lat="43.180494" lon="-2.275633">
        <ele>92.576</ele>
        <time>2021-04-06T09:49:06Z</time>
      </trkpt>
      <trkpt lat="43.180519" lon="-2.275627">
        <ele>92.913</ele>
        <time>2021-04-06T09:49:08Z</time>
      </trkpt>
      <trkpt lat="43.180542" lon="-2.275611">
        <ele>93.226</ele>
        <time>2021-04-06T09:49:10Z</time>
      </trkpt>
      <trkpt lat="43.180565" lon="-2.275597">
        <ele>93.721</ele>
        <time>2021-04-06T09:49:12Z</time>
      </trkpt>
      <trkpt lat="43.180583" lon="-2.275591">
        <ele>94.518</ele>
        <time>2021-04-06T09:49:15Z</time>
      </trkpt>
      <trkpt lat="43.180599" lon="-2.275606">
        <ele>95.398</ele>
        <time>2021-04-06T09:49:16Z</time>
      </trkpt>
      <trkpt lat="43.180597" lon="-2.275637">
        <ele>95.417</ele>
        <time>2021-04-06T09:49:20Z</time>
      </trkpt>
      <trkpt lat="43.180588" lon="-2.275661">
        <ele>95.208</ele>
        <time>2021-04-06T09:49:22Z</time>
      </trkpt>
      <trkpt lat="43.180580" lon="-2.275699">
        <ele>95.158</ele>
        <time>2021-04-06T09:49:24Z</time>
      </trkpt>
      <trkpt lat="43.180583" lon="-2.275727">
        <ele>95.541</ele>
        <time>2021-04-06T09:49:25Z</time>
      </trkpt>
      <trkpt lat="43.180588" lon="-2.275752">
        <ele>95.982</ele>
        <time>2021-04-06T09:49:26Z</time>
      </trkpt>
      <trkpt lat="43.180591" lon="-2.275779">
        <ele>96.277</ele>
        <time>2021-04-06T09:49:27Z</time>
      </trkpt>
      <trkpt lat="43.180594" lon="-2.275804">
        <ele>96.633</ele>
        <time>2021-04-06T09:49:28Z</time>
      </trkpt>
      <trkpt lat="43.180596" lon="-2.275849">
        <ele>97.180</ele>
        <time>2021-04-06T09:49:30Z</time>
      </trkpt>
      <trkpt lat="43.180602" lon="-2.275885">
        <ele>97.753</ele>
        <time>2021-04-06T09:49:32Z</time>
      </trkpt>
      <trkpt lat="43.180607" lon="-2.275919">
        <ele>98.328</ele>
        <time>2021-04-06T09:49:34Z</time>
      </trkpt>
      <trkpt lat="43.180606" lon="-2.275956">
        <ele>98.794</ele>
        <time>2021-04-06T09:49:36Z</time>
      </trkpt>
      <trkpt lat="43.180602" lon="-2.275993">
        <ele>98.957</ele>
        <time>2021-04-06T09:49:38Z</time>
      </trkpt>
      <trkpt lat="43.180596" lon="-2.276032">
        <ele>99.022</ele>
        <time>2021-04-06T09:49:40Z</time>
      </trkpt>
      <trkpt lat="43.180584" lon="-2.276071">
        <ele>98.908</ele>
        <time>2021-04-06T09:49:42Z</time>
      </trkpt>
      <trkpt lat="43.180575" lon="-2.276111">
        <ele>98.996</ele>
        <time>2021-04-06T09:49:44Z</time>
      </trkpt>
      <trkpt lat="43.180567" lon="-2.276148">
        <ele>98.929</ele>
        <time>2021-04-06T09:49:46Z</time>
      </trkpt>
      <trkpt lat="43.180558" lon="-2.276187">
        <ele>98.940</ele>
        <time>2021-04-06T09:49:48Z</time>
      </trkpt>
      <trkpt lat="43.180548" lon="-2.276229">
        <ele>99.125</ele>
        <time>2021-04-06T09:49:50Z</time>
      </trkpt>
      <trkpt lat="43.180536" lon="-2.276272">
        <ele>99.431</ele>
        <time>2021-04-06T09:49:52Z</time>
      </trkpt>
      <trkpt lat="43.180526" lon="-2.276312">
        <ele>99.618</ele>
        <time>2021-04-06T09:49:54Z</time>
      </trkpt>
      <trkpt lat="43.180520" lon="-2.276353">
        <ele>100.091</ele>
        <time>2021-04-06T09:49:56Z</time>
      </trkpt>
      <trkpt lat="43.180513" lon="-2.276394">
        <ele>100.376</ele>
        <time>2021-04-06T09:49:58Z</time>
      </trkpt>
      <trkpt lat="43.180503" lon="-2.276434">
        <ele>100.491</ele>
        <time>2021-04-06T09:50:00Z</time>
      </trkpt>
      <trkpt lat="43.180493" lon="-2.276474">
        <ele>100.581</ele>
        <time>2021-04-06T09:50:02Z</time>
      </trkpt>
      <trkpt lat="43.180482" lon="-2.276514">
        <ele>100.619</ele>
        <time>2021-04-06T09:50:04Z</time>
      </trkpt>
      <trkpt lat="43.180470" lon="-2.276553">
        <ele>100.608</ele>
        <time>2021-04-06T09:50:06Z</time>
      </trkpt>
      <trkpt lat="43.180456" lon="-2.276589">
        <ele>100.676</ele>
        <time>2021-04-06T09:50:08Z</time>
      </trkpt>
      <trkpt lat="43.180438" lon="-2.276622">
        <ele>100.689</ele>
        <time>2021-04-06T09:50:10Z</time>
      </trkpt>
      <trkpt lat="43.180425" lon="-2.276659">
        <ele>100.660</ele>
        <time>2021-04-06T09:50:12Z</time>
      </trkpt>
      <trkpt lat="43.180413" lon="-2.276694">
        <ele>100.545</ele>
        <time>2021-04-06T09:50:14Z</time>
      </trkpt>
      <trkpt lat="43.180395" lon="-2.276724">
        <ele>100.361</ele>
        <time>2021-04-06T09:50:16Z</time>
      </trkpt>
      <trkpt lat="43.180376" lon="-2.276754">
        <ele>100.218</ele>
        <time>2021-04-06T09:50:18Z</time>
      </trkpt>
      <trkpt lat="43.180358" lon="-2.276787">
        <ele>100.141</ele>
        <time>2021-04-06T09:50:20Z</time>
      </trkpt>
      <trkpt lat="43.180340" lon="-2.276816">
        <ele>100.096</ele>
        <time>2021-04-06T09:50:22Z</time>
      </trkpt>
      <trkpt lat="43.180321" lon="-2.276847">
        <ele>99.961</ele>
        <time>2021-04-06T09:50:24Z</time>
      </trkpt>
      <trkpt lat="43.180301" lon="-2.276877">
        <ele>99.821</ele>
        <time>2021-04-06T09:50:26Z</time>
      </trkpt>
      <trkpt lat="43.180282" lon="-2.276909">
        <ele>99.813</ele>
        <time>2021-04-06T09:50:28Z</time>
      </trkpt>
      <trkpt lat="43.180263" lon="-2.276942">
        <ele>99.808</ele>
        <time>2021-04-06T09:50:30Z</time>
      </trkpt>
      <trkpt lat="43.180243" lon="-2.276973">
        <ele>99.773</ele>
        <time>2021-04-06T09:50:32Z</time>
      </trkpt>
      <trkpt lat="43.180222" lon="-2.276999">
        <ele>99.716</ele>
        <time>2021-04-06T09:50:34Z</time>
      </trkpt>
      <trkpt lat="43.180189" lon="-2.277040">
        <ele>99.667</ele>
        <time>2021-04-06T09:50:37Z</time>
      </trkpt>
      <trkpt lat="43.180167" lon="-2.277066">
        <ele>99.652</ele>
        <time>2021-04-06T09:50:39Z</time>
      </trkpt>
      <trkpt lat="43.180145" lon="-2.277092">
        <ele>99.718</ele>
        <time>2021-04-06T09:50:41Z</time>
      </trkpt>
      <trkpt lat="43.180125" lon="-2.277119">
        <ele>99.715</ele>
        <time>2021-04-06T09:50:43Z</time>
      </trkpt>
      <trkpt lat="43.180101" lon="-2.277144">
        <ele>99.868</ele>
        <time>2021-04-06T09:50:45Z</time>
      </trkpt>
      <trkpt lat="43.180078" lon="-2.277167">
        <ele>99.993</ele>
        <time>2021-04-06T09:50:47Z</time>
      </trkpt>
      <trkpt lat="43.180052" lon="-2.277185">
        <ele>99.979</ele>
        <time>2021-04-06T09:50:49Z</time>
      </trkpt>
      <trkpt lat="43.180027" lon="-2.277206">
        <ele>100.005</ele>
        <time>2021-04-06T09:50:51Z</time>
      </trkpt>
      <trkpt lat="43.180002" lon="-2.277229">
        <ele>100.125</ele>
        <time>2021-04-06T09:50:53Z</time>
      </trkpt>
      <trkpt lat="43.179979" lon="-2.277254">
        <ele>100.308</ele>
        <time>2021-04-06T09:50:55Z</time>
      </trkpt>
      <trkpt lat="43.179954" lon="-2.277277">
        <ele>100.514</ele>
        <time>2021-04-06T09:50:57Z</time>
      </trkpt>
      <trkpt lat="43.179931" lon="-2.277301">
        <ele>100.657</ele>
        <time>2021-04-06T09:50:59Z</time>
      </trkpt>
      <trkpt lat="43.179908" lon="-2.277324">
        <ele>100.718</ele>
        <time>2021-04-06T09:51:01Z</time>
      </trkpt>
      <trkpt lat="43.179885" lon="-2.277351">
        <ele>100.973</ele>
        <time>2021-04-06T09:51:03Z</time>
      </trkpt>
      <trkpt lat="43.179862" lon="-2.277377">
        <ele>101.039</ele>
        <time>2021-04-06T09:51:05Z</time>
      </trkpt>
      <trkpt lat="43.179839" lon="-2.277406">
        <ele>101.236</ele>
        <time>2021-04-06T09:51:07Z</time>
      </trkpt>
      <trkpt lat="43.179816" lon="-2.277433">
        <ele>101.389</ele>
        <time>2021-04-06T09:51:09Z</time>
      </trkpt>
      <trkpt lat="43.179799" lon="-2.277463">
        <ele>101.574</ele>
        <time>2021-04-06T09:51:11Z</time>
      </trkpt>
      <trkpt lat="43.179794" lon="-2.277490">
        <ele>101.945</ele>
        <time>2021-04-06T09:51:13Z</time>
      </trkpt>
      <trkpt lat="43.179785" lon="-2.277502">
        <ele>102.047</ele>
        <time>2021-04-06T09:51:24Z</time>
      </trkpt>
      <trkpt lat="43.179809" lon="-2.277518">
        <ele>102.711</ele>
        <time>2021-04-06T09:51:27Z</time>
      </trkpt>
      <trkpt lat="43.179827" lon="-2.277545">
        <ele>103.608</ele>
        <time>2021-04-06T09:51:29Z</time>
      </trkpt>
      <trkpt lat="43.179841" lon="-2.277554">
        <ele>104.091</ele>
        <time>2021-04-06T09:51:30Z</time>
      </trkpt>
      <trkpt lat="43.179870" lon="-2.277565">
        <ele>104.674</ele>
        <time>2021-04-06T09:51:32Z</time>
      </trkpt>
      <trkpt lat="43.179898" lon="-2.277577">
        <ele>105.385</ele>
        <time>2021-04-06T09:51:34Z</time>
      </trkpt>
      <trkpt lat="43.179925" lon="-2.277590">
        <ele>106.070</ele>
        <time>2021-04-06T09:51:36Z</time>
      </trkpt>
      <trkpt lat="43.179952" lon="-2.277606">
        <ele>106.716</ele>
        <time>2021-04-06T09:51:38Z</time>
      </trkpt>
      <trkpt lat="43.179966" lon="-2.277616">
        <ele>107.173</ele>
        <time>2021-04-06T09:51:39Z</time>
      </trkpt>
      <trkpt lat="43.179993" lon="-2.277637">
        <ele>107.936</ele>
        <time>2021-04-06T09:51:41Z</time>
      </trkpt>
      <trkpt lat="43.179995" lon="-2.277660">
        <ele>108.491</ele>
        <time>2021-04-06T09:51:43Z</time>
      </trkpt>
      <trkpt lat="43.179990" lon="-2.277692">
        <ele>109.096</ele>
        <time>2021-04-06T09:51:45Z</time>
      </trkpt>
      <trkpt lat="43.179987" lon="-2.277721">
        <ele>109.631</ele>
        <time>2021-04-06T09:51:47Z</time>
      </trkpt>
      <trkpt lat="43.179987" lon="-2.277753">
        <ele>110.324</ele>
        <time>2021-04-06T09:51:49Z</time>
      </trkpt>
      <trkpt lat="43.179991" lon="-2.277784">
        <ele>111.008</ele>
        <time>2021-04-06T09:51:51Z</time>
      </trkpt>
      <trkpt lat="43.180009" lon="-2.277808">
        <ele>111.486</ele>
        <time>2021-04-06T09:51:53Z</time>
      </trkpt>
      <trkpt lat="43.180029" lon="-2.277821">
        <ele>111.649</ele>
        <time>2021-04-06T09:51:55Z</time>
      </trkpt>
      <trkpt lat="43.180043" lon="-2.277831">
        <ele>111.890</ele>
        <time>2021-04-06T09:51:57Z</time>
      </trkpt>
      <trkpt lat="43.180063" lon="-2.277838">
        <ele>111.945</ele>
        <time>2021-04-06T09:52:01Z</time>
      </trkpt>
      <trkpt lat="43.180069" lon="-2.277868">
        <ele>112.341</ele>
        <time>2021-04-06T09:52:03Z</time>
      </trkpt>
      <trkpt lat="43.180069" lon="-2.277906">
        <ele>112.778</ele>
        <time>2021-04-06T09:52:05Z</time>
      </trkpt>
      <trkpt lat="43.180071" lon="-2.277948">
        <ele>113.351</ele>
        <time>2021-04-06T09:52:07Z</time>
      </trkpt>
      <trkpt lat="43.180066" lon="-2.277985">
        <ele>113.736</ele>
        <time>2021-04-06T09:52:09Z</time>
      </trkpt>
      <trkpt lat="43.180058" lon="-2.278020">
        <ele>114.045</ele>
        <time>2021-04-06T09:52:11Z</time>
      </trkpt>
      <trkpt lat="43.180047" lon="-2.278055">
        <ele>114.347</ele>
        <time>2021-04-06T09:52:13Z</time>
      </trkpt>
      <trkpt lat="43.180038" lon="-2.278091">
        <ele>114.511</ele>
        <time>2021-04-06T09:52:15Z</time>
      </trkpt>
      <trkpt lat="43.180036" lon="-2.278132">
        <ele>114.808</ele>
        <time>2021-04-06T09:52:17Z</time>
      </trkpt>
      <trkpt lat="43.180036" lon="-2.278172">
        <ele>115.131</ele>
        <time>2021-04-06T09:52:19Z</time>
      </trkpt>
      <trkpt lat="43.180037" lon="-2.278211">
        <ele>115.474</ele>
        <time>2021-04-06T09:52:21Z</time>
      </trkpt>
      <trkpt lat="43.180040" lon="-2.278252">
        <ele>115.735</ele>
        <time>2021-04-06T09:52:23Z</time>
      </trkpt>
      <trkpt lat="43.180043" lon="-2.278293">
        <ele>116.040</ele>
        <time>2021-04-06T09:52:25Z</time>
      </trkpt>
      <trkpt lat="43.180043" lon="-2.278332">
        <ele>116.326</ele>
        <time>2021-04-06T09:52:27Z</time>
      </trkpt>
      <trkpt lat="43.180041" lon="-2.278373">
        <ele>116.353</ele>
        <time>2021-04-06T09:52:29Z</time>
      </trkpt>
      <trkpt lat="43.180045" lon="-2.278412">
        <ele>116.446</ele>
        <time>2021-04-06T09:52:31Z</time>
      </trkpt>
      <trkpt lat="43.180045" lon="-2.278435">
        <ele>116.431</ele>
        <time>2021-04-06T09:52:32Z</time>
      </trkpt>
      <trkpt lat="43.180045" lon="-2.278478">
        <ele>116.438</ele>
        <time>2021-04-06T09:52:34Z</time>
      </trkpt>
      <trkpt lat="43.180047" lon="-2.278522">
        <ele>116.570</ele>
        <time>2021-04-06T09:52:36Z</time>
      </trkpt>
      <trkpt lat="43.180044" lon="-2.278569">
        <ele>116.517</ele>
        <time>2021-04-06T09:52:38Z</time>
      </trkpt>
      <trkpt lat="43.180049" lon="-2.278616">
        <ele>116.508</ele>
        <time>2021-04-06T09:52:40Z</time>
      </trkpt>
      <trkpt lat="43.180053" lon="-2.278640">
        <ele>116.630</ele>
        <time>2021-04-06T09:52:41Z</time>
      </trkpt>
      <trkpt lat="43.180057" lon="-2.278667">
        <ele>116.773</ele>
        <time>2021-04-06T09:52:42Z</time>
      </trkpt>
      <trkpt lat="43.180065" lon="-2.278696">
        <ele>116.874</ele>
        <time>2021-04-06T09:52:43Z</time>
      </trkpt>
      <trkpt lat="43.180069" lon="-2.278727">
        <ele>116.869</ele>
        <time>2021-04-06T09:52:44Z</time>
      </trkpt>
      <trkpt lat="43.180074" lon="-2.278760">
        <ele>116.935</ele>
        <time>2021-04-06T09:52:45Z</time>
      </trkpt>
      <trkpt lat="43.180083" lon="-2.278799">
        <ele>117.112</ele>
        <time>2021-04-06T09:52:46Z</time>
      </trkpt>
      <trkpt lat="43.180093" lon="-2.278834">
        <ele>117.375</ele>
        <time>2021-04-06T09:52:47Z</time>
      </trkpt>
      <trkpt lat="43.180103" lon="-2.278868">
        <ele>117.580</ele>
        <time>2021-04-06T09:52:48Z</time>
      </trkpt>
      <trkpt lat="43.180128" lon="-2.278937">
        <ele>117.966</ele>
        <time>2021-04-06T09:52:50Z</time>
      </trkpt>
      <trkpt lat="43.180142" lon="-2.278976">
        <ele>118.229</ele>
        <time>2021-04-06T09:52:51Z</time>
      </trkpt>
      <trkpt lat="43.180156" lon="-2.279011">
        <ele>118.421</ele>
        <time>2021-04-06T09:52:52Z</time>
      </trkpt>
      <trkpt lat="43.180171" lon="-2.279042">
        <ele>118.708</ele>
        <time>2021-04-06T09:52:53Z</time>
      </trkpt>
      <trkpt lat="43.180189" lon="-2.279073">
        <ele>118.993</ele>
        <time>2021-04-06T09:52:54Z</time>
      </trkpt>
      <trkpt lat="43.180208" lon="-2.279097">
        <ele>119.276</ele>
        <time>2021-04-06T09:52:55Z</time>
      </trkpt>
      <trkpt lat="43.180226" lon="-2.279123">
        <ele>119.487</ele>
        <time>2021-04-06T09:52:56Z</time>
      </trkpt>
      <trkpt lat="43.180244" lon="-2.279150">
        <ele>119.662</ele>
        <time>2021-04-06T09:52:57Z</time>
      </trkpt>
      <trkpt lat="43.180262" lon="-2.279172">
        <ele>119.868</ele>
        <time>2021-04-06T09:52:58Z</time>
      </trkpt>
      <trkpt lat="43.180279" lon="-2.279197">
        <ele>120.065</ele>
        <time>2021-04-06T09:52:59Z</time>
      </trkpt>
      <trkpt lat="43.180298" lon="-2.279221">
        <ele>120.178</ele>
        <time>2021-04-06T09:53:00Z</time>
      </trkpt>
      <trkpt lat="43.180318" lon="-2.279245">
        <ele>120.283</ele>
        <time>2021-04-06T09:53:01Z</time>
      </trkpt>
      <trkpt lat="43.180337" lon="-2.279267">
        <ele>120.385</ele>
        <time>2021-04-06T09:53:02Z</time>
      </trkpt>
      <trkpt lat="43.180357" lon="-2.279289">
        <ele>120.489</ele>
        <time>2021-04-06T09:53:03Z</time>
      </trkpt>
      <trkpt lat="43.180375" lon="-2.279311">
        <ele>120.517</ele>
        <time>2021-04-06T09:53:04Z</time>
      </trkpt>
      <trkpt lat="43.180392" lon="-2.279338">
        <ele>120.708</ele>
        <time>2021-04-06T09:53:05Z</time>
      </trkpt>
      <trkpt lat="43.180414" lon="-2.279353">
        <ele>120.815</ele>
        <time>2021-04-06T09:53:06Z</time>
      </trkpt>
      <trkpt lat="43.180435" lon="-2.279366">
        <ele>121.058</ele>
        <time>2021-04-06T09:53:07Z</time>
      </trkpt>
      <trkpt lat="43.180479" lon="-2.279392">
        <ele>121.369</ele>
        <time>2021-04-06T09:53:09Z</time>
      </trkpt>
      <trkpt lat="43.180502" lon="-2.279408">
        <ele>121.584</ele>
        <time>2021-04-06T09:53:10Z</time>
      </trkpt>
      <trkpt lat="43.180526" lon="-2.279421">
        <ele>121.720</ele>
        <time>2021-04-06T09:53:11Z</time>
      </trkpt>
      <trkpt lat="43.180549" lon="-2.279434">
        <ele>121.997</ele>
        <time>2021-04-06T09:53:12Z</time>
      </trkpt>
      <trkpt lat="43.180573" lon="-2.279443">
        <ele>122.280</ele>
        <time>2021-04-06T09:53:13Z</time>
      </trkpt>
      <trkpt lat="43.180598" lon="-2.279444">
        <ele>122.535</ele>
        <time>2021-04-06T09:53:14Z</time>
      </trkpt>
      <trkpt lat="43.180622" lon="-2.279440">
        <ele>122.738</ele>
        <time>2021-04-06T09:53:15Z</time>
      </trkpt>
      <trkpt lat="43.180644" lon="-2.279433">
        <ele>122.970</ele>
        <time>2021-04-06T09:53:16Z</time>
      </trkpt>
      <trkpt lat="43.180670" lon="-2.279423">
        <ele>123.117</ele>
        <time>2021-04-06T09:53:17Z</time>
      </trkpt>
      <trkpt lat="43.180697" lon="-2.279408">
        <ele>123.308</ele>
        <time>2021-04-06T09:53:18Z</time>
      </trkpt>
      <trkpt lat="43.180719" lon="-2.279392">
        <ele>123.490</ele>
        <time>2021-04-06T09:53:19Z</time>
      </trkpt>
      <trkpt lat="43.180742" lon="-2.279373">
        <ele>123.433</ele>
        <time>2021-04-06T09:53:20Z</time>
      </trkpt>
      <trkpt lat="43.180764" lon="-2.279352">
        <ele>123.474</ele>
        <time>2021-04-06T09:53:21Z</time>
      </trkpt>
      <trkpt lat="43.180786" lon="-2.279331">
        <ele>123.459</ele>
        <time>2021-04-06T09:53:22Z</time>
      </trkpt>
      <trkpt lat="43.180808" lon="-2.279311">
        <ele>123.465</ele>
        <time>2021-04-06T09:53:23Z</time>
      </trkpt>
      <trkpt lat="43.180830" lon="-2.279293">
        <ele>123.392</ele>
        <time>2021-04-06T09:53:24Z</time>
      </trkpt>
      <trkpt lat="43.180853" lon="-2.279274">
        <ele>123.315</ele>
        <time>2021-04-06T09:53:25Z</time>
      </trkpt>
      <trkpt lat="43.180876" lon="-2.279256">
        <ele>123.390</ele>
        <time>2021-04-06T09:53:26Z</time>
      </trkpt>
      <trkpt lat="43.180923" lon="-2.279219">
        <ele>123.275</ele>
        <time>2021-04-06T09:53:28Z</time>
      </trkpt>
      <trkpt lat="43.180946" lon="-2.279201">
        <ele>123.228</ele>
        <time>2021-04-06T09:53:29Z</time>
      </trkpt>
      <trkpt lat="43.180996" lon="-2.279173">
        <ele>123.220</ele>
        <time>2021-04-06T09:53:31Z</time>
      </trkpt>
      <trkpt lat="43.181020" lon="-2.279160">
        <ele>123.208</ele>
        <time>2021-04-06T09:53:32Z</time>
      </trkpt>
      <trkpt lat="43.181045" lon="-2.279148">
        <ele>123.254</ele>
        <time>2021-04-06T09:53:33Z</time>
      </trkpt>
      <trkpt lat="43.181068" lon="-2.279134">
        <ele>123.117</ele>
        <time>2021-04-06T09:53:34Z</time>
      </trkpt>
      <trkpt lat="43.181091" lon="-2.279123">
        <ele>123.118</ele>
        <time>2021-04-06T09:53:35Z</time>
      </trkpt>
      <trkpt lat="43.181116" lon="-2.279113">
        <ele>123.143</ele>
        <time>2021-04-06T09:53:36Z</time>
      </trkpt>
      <trkpt lat="43.181140" lon="-2.279104">
        <ele>123.399</ele>
        <time>2021-04-06T09:53:37Z</time>
      </trkpt>
      <trkpt lat="43.181164" lon="-2.279095">
        <ele>123.536</ele>
        <time>2021-04-06T09:53:38Z</time>
      </trkpt>
      <trkpt lat="43.181189" lon="-2.279088">
        <ele>123.749</ele>
        <time>2021-04-06T09:53:39Z</time>
      </trkpt>
      <trkpt lat="43.181212" lon="-2.279084">
        <ele>124.014</ele>
        <time>2021-04-06T09:53:40Z</time>
      </trkpt>
      <trkpt lat="43.181237" lon="-2.279078">
        <ele>124.216</ele>
        <time>2021-04-06T09:53:41Z</time>
      </trkpt>
      <trkpt lat="43.181261" lon="-2.279073">
        <ele>124.576</ele>
        <time>2021-04-06T09:53:42Z</time>
      </trkpt>
      <trkpt lat="43.181284" lon="-2.279067">
        <ele>124.613</ele>
        <time>2021-04-06T09:53:43Z</time>
      </trkpt>
      <trkpt lat="43.181306" lon="-2.279061">
        <ele>124.808</ele>
        <time>2021-04-06T09:53:44Z</time>
      </trkpt>
      <trkpt lat="43.181328" lon="-2.279056">
        <ele>125.028</ele>
        <time>2021-04-06T09:53:45Z</time>
      </trkpt>
      <trkpt lat="43.181346" lon="-2.279053">
        <ele>125.151</ele>
        <time>2021-04-06T09:53:46Z</time>
      </trkpt>
      <trkpt lat="43.181380" lon="-2.279051">
        <ele>125.532</ele>
        <time>2021-04-06T09:53:48Z</time>
      </trkpt>
      <trkpt lat="43.181411" lon="-2.279045">
        <ele>126.057</ele>
        <time>2021-04-06T09:53:50Z</time>
      </trkpt>
      <trkpt lat="43.181443" lon="-2.279041">
        <ele>126.713</ele>
        <time>2021-04-06T09:53:52Z</time>
      </trkpt>
      <trkpt lat="43.181474" lon="-2.279035">
        <ele>127.240</ele>
        <time>2021-04-06T09:53:54Z</time>
      </trkpt>
      <trkpt lat="43.181503" lon="-2.279028">
        <ele>127.733</ele>
        <time>2021-04-06T09:53:56Z</time>
      </trkpt>
      <trkpt lat="43.181534" lon="-2.279021">
        <ele>128.218</ele>
        <time>2021-04-06T09:53:58Z</time>
      </trkpt>
      <trkpt lat="43.181563" lon="-2.279014">
        <ele>128.639</ele>
        <time>2021-04-06T09:54:00Z</time>
      </trkpt>
      <trkpt lat="43.181594" lon="-2.279008">
        <ele>129.101</ele>
        <time>2021-04-06T09:54:02Z</time>
      </trkpt>
      <trkpt lat="43.181626" lon="-2.279002">
        <ele>129.621</ele>
        <time>2021-04-06T09:54:04Z</time>
      </trkpt>
      <trkpt lat="43.181656" lon="-2.278996">
        <ele>130.008</ele>
        <time>2021-04-06T09:54:06Z</time>
      </trkpt>
      <trkpt lat="43.181686" lon="-2.278993">
        <ele>130.490</ele>
        <time>2021-04-06T09:54:08Z</time>
      </trkpt>
      <trkpt lat="43.181715" lon="-2.278986">
        <ele>130.413</ele>
        <time>2021-04-06T09:54:10Z</time>
      </trkpt>
      <trkpt lat="43.181744" lon="-2.278980">
        <ele>130.594</ele>
        <time>2021-04-06T09:54:12Z</time>
      </trkpt>
      <trkpt lat="43.181774" lon="-2.278976">
        <ele>130.769</ele>
        <time>2021-04-06T09:54:14Z</time>
      </trkpt>
      <trkpt lat="43.181803" lon="-2.278975">
        <ele>131.025</ele>
        <time>2021-04-06T09:54:16Z</time>
      </trkpt>
      <trkpt lat="43.181830" lon="-2.278975">
        <ele>131.492</ele>
        <time>2021-04-06T09:54:18Z</time>
      </trkpt>
      <trkpt lat="43.181860" lon="-2.278973">
        <ele>131.615</ele>
        <time>2021-04-06T09:54:20Z</time>
      </trkpt>
      <trkpt lat="43.181892" lon="-2.278971">
        <ele>131.930</ele>
        <time>2021-04-06T09:54:22Z</time>
      </trkpt>
      <trkpt lat="43.181924" lon="-2.278977">
        <ele>132.655</ele>
        <time>2021-04-06T09:54:24Z</time>
      </trkpt>
      <trkpt lat="43.181954" lon="-2.278982">
        <ele>133.007</ele>
        <time>2021-04-06T09:54:26Z</time>
      </trkpt>
      <trkpt lat="43.181984" lon="-2.278989">
        <ele>133.417</ele>
        <time>2021-04-06T09:54:28Z</time>
      </trkpt>
      <trkpt lat="43.182012" lon="-2.278994">
        <ele>133.608</ele>
        <time>2021-04-06T09:54:30Z</time>
      </trkpt>
      <trkpt lat="43.182041" lon="-2.279003">
        <ele>133.972</ele>
        <time>2021-04-06T09:54:32Z</time>
      </trkpt>
      <trkpt lat="43.182070" lon="-2.279018">
        <ele>134.445</ele>
        <time>2021-04-06T09:54:34Z</time>
      </trkpt>
      <trkpt lat="43.182097" lon="-2.279034">
        <ele>134.916</ele>
        <time>2021-04-06T09:54:36Z</time>
      </trkpt>
      <trkpt lat="43.182124" lon="-2.279051">
        <ele>135.491</ele>
        <time>2021-04-06T09:54:38Z</time>
      </trkpt>
      <trkpt lat="43.182148" lon="-2.279068">
        <ele>135.827</ele>
        <time>2021-04-06T09:54:40Z</time>
      </trkpt>
      <trkpt lat="43.182173" lon="-2.279085">
        <ele>136.244</ele>
        <time>2021-04-06T09:54:42Z</time>
      </trkpt>
      <trkpt lat="43.182199" lon="-2.279108">
        <ele>136.767</ele>
        <time>2021-04-06T09:54:44Z</time>
      </trkpt>
      <trkpt lat="43.182227" lon="-2.279132">
        <ele>137.142</ele>
        <time>2021-04-06T09:54:46Z</time>
      </trkpt>
      <trkpt lat="43.182254" lon="-2.279153">
        <ele>137.499</ele>
        <time>2021-04-06T09:54:48Z</time>
      </trkpt>
      <trkpt lat="43.182277" lon="-2.279179">
        <ele>137.907</ele>
        <time>2021-04-06T09:54:50Z</time>
      </trkpt>
      <trkpt lat="43.182299" lon="-2.279205">
        <ele>138.427</ele>
        <time>2021-04-06T09:54:52Z</time>
      </trkpt>
      <trkpt lat="43.182326" lon="-2.279232">
        <ele>138.908</ele>
        <time>2021-04-06T09:54:54Z</time>
      </trkpt>
      <trkpt lat="43.182351" lon="-2.279253">
        <ele>139.146</ele>
        <time>2021-04-06T09:54:56Z</time>
      </trkpt>
      <trkpt lat="43.182375" lon="-2.279274">
        <ele>139.429</ele>
        <time>2021-04-06T09:54:58Z</time>
      </trkpt>
      <trkpt lat="43.182389" lon="-2.279285">
        <ele>139.450</ele>
        <time>2021-04-06T09:54:59Z</time>
      </trkpt>
      <trkpt lat="43.182417" lon="-2.279304">
        <ele>139.565</ele>
        <time>2021-04-06T09:55:01Z</time>
      </trkpt>
      <trkpt lat="43.182449" lon="-2.279322">
        <ele>139.521</ele>
        <time>2021-04-06T09:55:03Z</time>
      </trkpt>
      <trkpt lat="43.182479" lon="-2.279335">
        <ele>139.338</ele>
        <time>2021-04-06T09:55:05Z</time>
      </trkpt>
      <trkpt lat="43.182513" lon="-2.279348">
        <ele>139.421</ele>
        <time>2021-04-06T09:55:07Z</time>
      </trkpt>
      <trkpt lat="43.182545" lon="-2.279360">
        <ele>139.976</ele>
        <time>2021-04-06T09:55:09Z</time>
      </trkpt>
      <trkpt lat="43.182575" lon="-2.279367">
        <ele>140.318</ele>
        <time>2021-04-06T09:55:11Z</time>
      </trkpt>
      <trkpt lat="43.182611" lon="-2.279366">
        <ele>140.698</ele>
        <time>2021-04-06T09:55:13Z</time>
      </trkpt>
      <trkpt lat="43.182628" lon="-2.279358">
        <ele>140.717</ele>
        <time>2021-04-06T09:55:14Z</time>
      </trkpt>
      <trkpt lat="43.182644" lon="-2.279349">
        <ele>140.708</ele>
        <time>2021-04-06T09:55:15Z</time>
      </trkpt>
      <trkpt lat="43.182660" lon="-2.279339">
        <ele>140.798</ele>
        <time>2021-04-06T09:55:16Z</time>
      </trkpt>
      <trkpt lat="43.182675" lon="-2.279325">
        <ele>140.791</ele>
        <time>2021-04-06T09:55:17Z</time>
      </trkpt>
      <trkpt lat="43.182690" lon="-2.279309">
        <ele>140.672</ele>
        <time>2021-04-06T09:55:18Z</time>
      </trkpt>
      <trkpt lat="43.182718" lon="-2.279277">
        <ele>140.597</ele>
        <time>2021-04-06T09:55:20Z</time>
      </trkpt>
      <trkpt lat="43.182747" lon="-2.279244">
        <ele>140.553</ele>
        <time>2021-04-06T09:55:22Z</time>
      </trkpt>
      <trkpt lat="43.182760" lon="-2.279227">
        <ele>140.450</ele>
        <time>2021-04-06T09:55:23Z</time>
      </trkpt>
      <trkpt lat="43.182786" lon="-2.279196">
        <ele>140.553</ele>
        <time>2021-04-06T09:55:25Z</time>
      </trkpt>
      <trkpt lat="43.182810" lon="-2.279163">
        <ele>140.558</ele>
        <time>2021-04-06T09:55:27Z</time>
      </trkpt>
      <trkpt lat="43.182829" lon="-2.279126">
        <ele>140.539</ele>
        <time>2021-04-06T09:55:29Z</time>
      </trkpt>
      <trkpt lat="43.182849" lon="-2.279089">
        <ele>140.601</ele>
        <time>2021-04-06T09:55:31Z</time>
      </trkpt>
      <trkpt lat="43.182867" lon="-2.279053">
        <ele>140.621</ele>
        <time>2021-04-06T09:55:33Z</time>
      </trkpt>
      <trkpt lat="43.182887" lon="-2.279017">
        <ele>140.808</ele>
        <time>2021-04-06T09:55:35Z</time>
      </trkpt>
      <trkpt lat="43.182910" lon="-2.278982">
        <ele>141.020</ele>
        <time>2021-04-06T09:55:37Z</time>
      </trkpt>
      <trkpt lat="43.182932" lon="-2.278945">
        <ele>141.353</ele>
        <time>2021-04-06T09:55:39Z</time>
      </trkpt>
      <trkpt lat="43.182955" lon="-2.278909">
        <ele>141.644</ele>
        <time>2021-04-06T09:55:41Z</time>
      </trkpt>
      <trkpt lat="43.182973" lon="-2.278871">
        <ele>141.839</ele>
        <time>2021-04-06T09:55:43Z</time>
      </trkpt>
      <trkpt lat="43.182993" lon="-2.278836">
        <ele>142.025</ele>
        <time>2021-04-06T09:55:45Z</time>
      </trkpt>
      <trkpt lat="43.183014" lon="-2.278801">
        <ele>142.362</ele>
        <time>2021-04-06T09:55:47Z</time>
      </trkpt>
      <trkpt lat="43.183033" lon="-2.278769">
        <ele>142.655</ele>
        <time>2021-04-06T09:55:49Z</time>
      </trkpt>
      <trkpt lat="43.183054" lon="-2.278734">
        <ele>142.860</ele>
        <time>2021-04-06T09:55:51Z</time>
      </trkpt>
      <trkpt lat="43.183073" lon="-2.278697">
        <ele>143.181</ele>
        <time>2021-04-06T09:55:53Z</time>
      </trkpt>
      <trkpt lat="43.183089" lon="-2.278661">
        <ele>143.461</ele>
        <time>2021-04-06T09:55:55Z</time>
      </trkpt>
      <trkpt lat="43.183105" lon="-2.278623">
        <ele>143.717</ele>
        <time>2021-04-06T09:55:57Z</time>
      </trkpt>
      <trkpt lat="43.183121" lon="-2.278585">
        <ele>144.008</ele>
        <time>2021-04-06T09:55:59Z</time>
      </trkpt>
      <trkpt lat="43.183137" lon="-2.278546">
        <ele>144.315</ele>
        <time>2021-04-06T09:56:01Z</time>
      </trkpt>
      <trkpt lat="43.183155" lon="-2.278506">
        <ele>144.798</ele>
        <time>2021-04-06T09:56:03Z</time>
      </trkpt>
      <trkpt lat="43.183173" lon="-2.278474">
        <ele>145.229</ele>
        <time>2021-04-06T09:56:05Z</time>
      </trkpt>
      <trkpt lat="43.183197" lon="-2.278443">
        <ele>146.014</ele>
        <time>2021-04-06T09:56:07Z</time>
      </trkpt>
      <trkpt lat="43.183216" lon="-2.278412">
        <ele>146.690</ele>
        <time>2021-04-06T09:56:09Z</time>
      </trkpt>
      <trkpt lat="43.183234" lon="-2.278384">
        <ele>147.247</ele>
        <time>2021-04-06T09:56:11Z</time>
      </trkpt>
      <trkpt lat="43.183255" lon="-2.278358">
        <ele>147.950</ele>
        <time>2021-04-06T09:56:13Z</time>
      </trkpt>
      <trkpt lat="43.183276" lon="-2.278331">
        <ele>148.795</ele>
        <time>2021-04-06T09:56:15Z</time>
      </trkpt>
      <trkpt lat="43.183297" lon="-2.278305">
        <ele>149.175</ele>
        <time>2021-04-06T09:56:17Z</time>
      </trkpt>
      <trkpt lat="43.183316" lon="-2.278282">
        <ele>149.428</ele>
        <time>2021-04-06T09:56:19Z</time>
      </trkpt>
      <trkpt lat="43.183335" lon="-2.278259">
        <ele>149.720</ele>
        <time>2021-04-06T09:56:21Z</time>
      </trkpt>
      <trkpt lat="43.183355" lon="-2.278232">
        <ele>149.708</ele>
        <time>2021-04-06T09:56:23Z</time>
      </trkpt>
      <trkpt lat="43.183372" lon="-2.278210">
        <ele>149.874</ele>
        <time>2021-04-06T09:56:25Z</time>
      </trkpt>
      <trkpt lat="43.183395" lon="-2.278196">
        <ele>150.187</ele>
        <time>2021-04-06T09:56:27Z</time>
      </trkpt>
      <trkpt lat="43.183419" lon="-2.278183">
        <ele>150.418</ele>
        <time>2021-04-06T09:56:29Z</time>
      </trkpt>
      <trkpt lat="43.183442" lon="-2.278173">
        <ele>150.863</ele>
        <time>2021-04-06T09:56:31Z</time>
      </trkpt>
      <trkpt lat="43.183467" lon="-2.278168">
        <ele>151.339</ele>
        <time>2021-04-06T09:56:33Z</time>
      </trkpt>
      <trkpt lat="43.183492" lon="-2.278174">
        <ele>152.046</ele>
        <time>2021-04-06T09:56:35Z</time>
      </trkpt>
      <trkpt lat="43.183529" lon="-2.278189">
        <ele>153.389</ele>
        <time>2021-04-06T09:56:38Z</time>
      </trkpt>
      <trkpt lat="43.183559" lon="-2.278196">
        <ele>154.234</ele>
        <time>2021-04-06T09:56:40Z</time>
      </trkpt>
      <trkpt lat="43.183589" lon="-2.278204">
        <ele>155.285</ele>
        <time>2021-04-06T09:56:42Z</time>
      </trkpt>
      <trkpt lat="43.183621" lon="-2.278200">
        <ele>156.089</ele>
        <time>2021-04-06T09:56:44Z</time>
      </trkpt>
      <trkpt lat="43.183653" lon="-2.278182">
        <ele>156.717</ele>
        <time>2021-04-06T09:56:46Z</time>
      </trkpt>
      <trkpt lat="43.183683" lon="-2.278164">
        <ele>157.408</ele>
        <time>2021-04-06T09:56:48Z</time>
      </trkpt>
      <trkpt lat="43.183709" lon="-2.278140">
        <ele>157.885</ele>
        <time>2021-04-06T09:56:50Z</time>
      </trkpt>
      <trkpt lat="43.183720" lon="-2.278124">
        <ele>157.828</ele>
        <time>2021-04-06T09:56:51Z</time>
      </trkpt>
      <trkpt lat="43.183743" lon="-2.278094">
        <ele>158.139</ele>
        <time>2021-04-06T09:56:53Z</time>
      </trkpt>
      <trkpt lat="43.183764" lon="-2.278061">
        <ele>158.214</ele>
        <time>2021-04-06T09:56:55Z</time>
      </trkpt>
      <trkpt lat="43.183783" lon="-2.278024">
        <ele>158.310</ele>
        <time>2021-04-06T09:56:57Z</time>
      </trkpt>
      <trkpt lat="43.183801" lon="-2.277985">
        <ele>158.377</ele>
        <time>2021-04-06T09:56:59Z</time>
      </trkpt>
      <trkpt lat="43.183818" lon="-2.277945">
        <ele>158.360</ele>
        <time>2021-04-06T09:57:01Z</time>
      </trkpt>
      <trkpt lat="43.183841" lon="-2.277909">
        <ele>158.685</ele>
        <time>2021-04-06T09:57:03Z</time>
      </trkpt>
      <trkpt lat="43.183861" lon="-2.277872">
        <ele>158.718</ele>
        <time>2021-04-06T09:57:05Z</time>
      </trkpt>
      <trkpt lat="43.183878" lon="-2.277834">
        <ele>158.698</ele>
        <time>2021-04-06T09:57:07Z</time>
      </trkpt>
      <trkpt lat="43.183895" lon="-2.277795">
        <ele>158.617</ele>
        <time>2021-04-06T09:57:09Z</time>
      </trkpt>
      <trkpt lat="43.183917" lon="-2.277760">
        <ele>159.108</ele>
        <time>2021-04-06T09:57:11Z</time>
      </trkpt>
      <trkpt lat="43.183934" lon="-2.277725">
        <ele>159.468</ele>
        <time>2021-04-06T09:57:13Z</time>
      </trkpt>
      <trkpt lat="43.183953" lon="-2.277691">
        <ele>159.841</ele>
        <time>2021-04-06T09:57:15Z</time>
      </trkpt>
      <trkpt lat="43.183972" lon="-2.277656">
        <ele>160.222</ele>
        <time>2021-04-06T09:57:17Z</time>
      </trkpt>
      <trkpt lat="43.183988" lon="-2.277621">
        <ele>160.337</ele>
        <time>2021-04-06T09:57:19Z</time>
      </trkpt>
      <trkpt lat="43.184002" lon="-2.277581">
        <ele>160.353</ele>
        <time>2021-04-06T09:57:21Z</time>
      </trkpt>
      <trkpt lat="43.184016" lon="-2.277541">
        <ele>160.290</ele>
        <time>2021-04-06T09:57:23Z</time>
      </trkpt>
      <trkpt lat="43.184030" lon="-2.277502">
        <ele>160.193</ele>
        <time>2021-04-06T09:57:25Z</time>
      </trkpt>
      <trkpt lat="43.184041" lon="-2.277465">
        <ele>160.298</ele>
        <time>2021-04-06T09:57:27Z</time>
      </trkpt>
      <trkpt lat="43.184053" lon="-2.277425">
        <ele>160.488</ele>
        <time>2021-04-06T09:57:29Z</time>
      </trkpt>
      <trkpt lat="43.184067" lon="-2.277387">
        <ele>160.624</ele>
        <time>2021-04-06T09:57:31Z</time>
      </trkpt>
      <trkpt lat="43.184081" lon="-2.277352">
        <ele>160.826</ele>
        <time>2021-04-06T09:57:33Z</time>
      </trkpt>
      <trkpt lat="43.184091" lon="-2.277313">
        <ele>160.908</ele>
        <time>2021-04-06T09:57:35Z</time>
      </trkpt>
      <trkpt lat="43.184100" lon="-2.277276">
        <ele>161.035</ele>
        <time>2021-04-06T09:57:37Z</time>
      </trkpt>
      <trkpt lat="43.184105" lon="-2.277237">
        <ele>160.948</ele>
        <time>2021-04-06T09:57:39Z</time>
      </trkpt>
      <trkpt lat="43.184107" lon="-2.277202">
        <ele>160.859</ele>
        <time>2021-04-06T09:57:41Z</time>
      </trkpt>
      <trkpt lat="43.184113" lon="-2.277161">
        <ele>161.034</ele>
        <time>2021-04-06T09:57:43Z</time>
      </trkpt>
      <trkpt lat="43.184125" lon="-2.277123">
        <ele>161.310</ele>
        <time>2021-04-06T09:57:45Z</time>
      </trkpt>
      <trkpt lat="43.184138" lon="-2.277079">
        <ele>161.647</ele>
        <time>2021-04-06T09:57:47Z</time>
      </trkpt>
      <trkpt lat="43.184156" lon="-2.277041">
        <ele>162.060</ele>
        <time>2021-04-06T09:57:49Z</time>
      </trkpt>
      <trkpt lat="43.184179" lon="-2.277025">
        <ele>162.385</ele>
        <time>2021-04-06T09:57:51Z</time>
      </trkpt>
      <trkpt lat="43.184208" lon="-2.277034">
        <ele>162.381</ele>
        <time>2021-04-06T09:57:53Z</time>
      </trkpt>
      <trkpt lat="43.184223" lon="-2.277056">
        <ele>162.461</ele>
        <time>2021-04-06T09:57:55Z</time>
      </trkpt>
      <trkpt lat="43.184230" lon="-2.277090">
        <ele>162.717</ele>
        <time>2021-04-06T09:57:57Z</time>
      </trkpt>
      <trkpt lat="43.184241" lon="-2.277124">
        <ele>162.908</ele>
        <time>2021-04-06T09:57:59Z</time>
      </trkpt>
      <trkpt lat="43.184253" lon="-2.277155">
        <ele>163.275</ele>
        <time>2021-04-06T09:58:01Z</time>
      </trkpt>
      <trkpt lat="43.184260" lon="-2.277192">
        <ele>163.568</ele>
        <time>2021-04-06T09:58:03Z</time>
      </trkpt>
      <trkpt lat="43.184267" lon="-2.277229">
        <ele>163.899</ele>
        <time>2021-04-06T09:58:05Z</time>
      </trkpt>
      <trkpt lat="43.184273" lon="-2.277262">
        <ele>164.344</ele>
        <time>2021-04-06T09:58:07Z</time>
      </trkpt>
      <trkpt lat="43.184282" lon="-2.277294">
        <ele>164.840</ele>
        <time>2021-04-06T09:58:09Z</time>
      </trkpt>
      <trkpt lat="43.184295" lon="-2.277329">
        <ele>165.467</ele>
        <time>2021-04-06T09:58:11Z</time>
      </trkpt>
      <trkpt lat="43.184305" lon="-2.277364">
        <ele>166.070</ele>
        <time>2021-04-06T09:58:13Z</time>
      </trkpt>
      <trkpt lat="43.184317" lon="-2.277393">
        <ele>166.645</ele>
        <time>2021-04-06T09:58:15Z</time>
      </trkpt>
      <trkpt lat="43.184327" lon="-2.277418">
        <ele>167.295</ele>
        <time>2021-04-06T09:58:17Z</time>
      </trkpt>
      <trkpt lat="43.184338" lon="-2.277444">
        <ele>167.849</ele>
        <time>2021-04-06T09:58:19Z</time>
      </trkpt>
      <trkpt lat="43.184339" lon="-2.277470">
        <ele>168.223</ele>
        <time>2021-04-06T09:58:21Z</time>
      </trkpt>
      <trkpt lat="43.184337" lon="-2.277497">
        <ele>168.608</ele>
        <time>2021-04-06T09:58:23Z</time>
      </trkpt>
      <trkpt lat="43.184321" lon="-2.277520">
        <ele>168.836</ele>
        <time>2021-04-06T09:58:25Z</time>
      </trkpt>
      <trkpt lat="43.184310" lon="-2.277540">
        <ele>169.149</ele>
        <time>2021-04-06T09:58:27Z</time>
      </trkpt>
      <trkpt lat="43.184301" lon="-2.277565">
        <ele>169.570</ele>
        <time>2021-04-06T09:58:29Z</time>
      </trkpt>
      <trkpt lat="43.184302" lon="-2.277595">
        <ele>170.375</ele>
        <time>2021-04-06T09:58:31Z</time>
      </trkpt>
      <trkpt lat="43.184298" lon="-2.277618">
        <ele>170.881</ele>
        <time>2021-04-06T09:58:33Z</time>
      </trkpt>
      <trkpt lat="43.184292" lon="-2.277642">
        <ele>171.228</ele>
        <time>2021-04-06T09:58:35Z</time>
      </trkpt>
      <trkpt lat="43.184286" lon="-2.277664">
        <ele>171.621</ele>
        <time>2021-04-06T09:58:37Z</time>
      </trkpt>
      <trkpt lat="43.184282" lon="-2.277689">
        <ele>172.156</ele>
        <time>2021-04-06T09:58:39Z</time>
      </trkpt>
      <trkpt lat="43.184276" lon="-2.277719">
        <ele>172.759</ele>
        <time>2021-04-06T09:58:41Z</time>
      </trkpt>
      <trkpt lat="43.184277" lon="-2.277748">
        <ele>173.403</ele>
        <time>2021-04-06T09:58:43Z</time>
      </trkpt>
      <trkpt lat="43.184276" lon="-2.277772">
        <ele>174.023</ele>
        <time>2021-04-06T09:58:45Z</time>
      </trkpt>
      <trkpt lat="43.184272" lon="-2.277794">
        <ele>174.508</ele>
        <time>2021-04-06T09:58:47Z</time>
      </trkpt>
      <trkpt lat="43.184265" lon="-2.277816">
        <ele>174.862</ele>
        <time>2021-04-06T09:58:49Z</time>
      </trkpt>
      <trkpt lat="43.184258" lon="-2.277844">
        <ele>175.485</ele>
        <time>2021-04-06T09:58:51Z</time>
      </trkpt>
      <trkpt lat="43.184261" lon="-2.277867">
        <ele>176.126</ele>
        <time>2021-04-06T09:58:53Z</time>
      </trkpt>
      <trkpt lat="43.184261" lon="-2.277892">
        <ele>176.771</ele>
        <time>2021-04-06T09:58:55Z</time>
      </trkpt>
      <trkpt lat="43.184259" lon="-2.277921">
        <ele>177.457</ele>
        <time>2021-04-06T09:58:57Z</time>
      </trkpt>
      <trkpt lat="43.184258" lon="-2.277948">
        <ele>178.154</ele>
        <time>2021-04-06T09:58:59Z</time>
      </trkpt>
      <trkpt lat="43.184252" lon="-2.277983">
        <ele>178.997</ele>
        <time>2021-04-06T09:59:02Z</time>
      </trkpt>
      <trkpt lat="43.184254" lon="-2.278007">
        <ele>179.652</ele>
        <time>2021-04-06T09:59:04Z</time>
      </trkpt>
      <trkpt lat="43.184253" lon="-2.278034">
        <ele>180.232</ele>
        <time>2021-04-06T09:59:06Z</time>
      </trkpt>
      <trkpt lat="43.184253" lon="-2.278059">
        <ele>180.992</ele>
        <time>2021-04-06T09:59:08Z</time>
      </trkpt>
      <trkpt lat="43.184252" lon="-2.278083">
        <ele>181.311</ele>
        <time>2021-04-06T09:59:10Z</time>
      </trkpt>
      <trkpt lat="43.184246" lon="-2.278111">
        <ele>181.608</ele>
        <time>2021-04-06T09:59:12Z</time>
      </trkpt>
      <trkpt lat="43.184244" lon="-2.278138">
        <ele>182.030</ele>
        <time>2021-04-06T09:59:14Z</time>
      </trkpt>
      <trkpt lat="43.184244" lon="-2.278168">
        <ele>182.613</ele>
        <time>2021-04-06T09:59:16Z</time>
      </trkpt>
      <trkpt lat="43.184244" lon="-2.278197">
        <ele>183.184</ele>
        <time>2021-04-06T09:59:18Z</time>
      </trkpt>
      <trkpt lat="43.184245" lon="-2.278231">
        <ele>183.899</ele>
        <time>2021-04-06T09:59:20Z</time>
      </trkpt>
      <trkpt lat="43.184246" lon="-2.278258">
        <ele>184.335</ele>
        <time>2021-04-06T09:59:22Z</time>
      </trkpt>
      <trkpt lat="43.184242" lon="-2.278285">
        <ele>184.672</ele>
        <time>2021-04-06T09:59:24Z</time>
      </trkpt>
      <trkpt lat="43.184239" lon="-2.278312">
        <ele>185.095</ele>
        <time>2021-04-06T09:59:26Z</time>
      </trkpt>
      <trkpt lat="43.184239" lon="-2.278348">
        <ele>185.640</ele>
        <time>2021-04-06T09:59:28Z</time>
      </trkpt>
      <trkpt lat="43.184236" lon="-2.278378">
        <ele>186.085</ele>
        <time>2021-04-06T09:59:30Z</time>
      </trkpt>
      <trkpt lat="43.184238" lon="-2.278404">
        <ele>186.689</ele>
        <time>2021-04-06T09:59:32Z</time>
      </trkpt>
      <trkpt lat="43.184243" lon="-2.278430">
        <ele>187.317</ele>
        <time>2021-04-06T09:59:34Z</time>
      </trkpt>
      <trkpt lat="43.184241" lon="-2.278459">
        <ele>187.708</ele>
        <time>2021-04-06T09:59:36Z</time>
      </trkpt>
      <trkpt lat="43.184241" lon="-2.278493">
        <ele>188.445</ele>
        <time>2021-04-06T09:59:38Z</time>
      </trkpt>
      <trkpt lat="43.184240" lon="-2.278522">
        <ele>188.848</ele>
        <time>2021-04-06T09:59:40Z</time>
      </trkpt>
      <trkpt lat="43.184239" lon="-2.278555">
        <ele>189.429</ele>
        <time>2021-04-06T09:59:42Z</time>
      </trkpt>
      <trkpt lat="43.184236" lon="-2.278585">
        <ele>189.834</ele>
        <time>2021-04-06T09:59:44Z</time>
      </trkpt>
      <trkpt lat="43.184238" lon="-2.278615">
        <ele>190.460</ele>
        <time>2021-04-06T09:59:46Z</time>
      </trkpt>
      <trkpt lat="43.184243" lon="-2.278641">
        <ele>191.037</ele>
        <time>2021-04-06T09:59:48Z</time>
      </trkpt>
      <trkpt lat="43.184245" lon="-2.278667">
        <ele>191.480</ele>
        <time>2021-04-06T09:59:50Z</time>
      </trkpt>
      <trkpt lat="43.184248" lon="-2.278697">
        <ele>192.035</ele>
        <time>2021-04-06T09:59:52Z</time>
      </trkpt>
      <trkpt lat="43.184256" lon="-2.278723">
        <ele>192.733</ele>
        <time>2021-04-06T09:59:54Z</time>
      </trkpt>
      <trkpt lat="43.184262" lon="-2.278755">
        <ele>193.423</ele>
        <time>2021-04-06T09:59:56Z</time>
      </trkpt>
      <trkpt lat="43.184265" lon="-2.278783">
        <ele>193.915</ele>
        <time>2021-04-06T09:59:58Z</time>
      </trkpt>
      <trkpt lat="43.184271" lon="-2.278810">
        <ele>194.508</ele>
        <time>2021-04-06T10:00:00Z</time>
      </trkpt>
      <trkpt lat="43.184270" lon="-2.278836">
        <ele>194.810</ele>
        <time>2021-04-06T10:00:02Z</time>
      </trkpt>
      <trkpt lat="43.184280" lon="-2.278860">
        <ele>195.513</ele>
        <time>2021-04-06T10:00:14Z</time>
      </trkpt>
      <trkpt lat="43.184284" lon="-2.278884">
        <ele>196.094</ele>
        <time>2021-04-06T10:00:16Z</time>
      </trkpt>
      <trkpt lat="43.184291" lon="-2.278918">
        <ele>196.479</ele>
        <time>2021-04-06T10:00:18Z</time>
      </trkpt>
      <trkpt lat="43.184297" lon="-2.278953">
        <ele>196.845</ele>
        <time>2021-04-06T10:00:20Z</time>
      </trkpt>
      <trkpt lat="43.184308" lon="-2.278998">
        <ele>197.342</ele>
        <time>2021-04-06T10:00:22Z</time>
      </trkpt>
      <trkpt lat="43.184321" lon="-2.279036">
        <ele>197.965</ele>
        <time>2021-04-06T10:00:24Z</time>
      </trkpt>
      <trkpt lat="43.184338" lon="-2.279066">
        <ele>198.670</ele>
        <time>2021-04-06T10:00:26Z</time>
      </trkpt>
      <trkpt lat="43.184351" lon="-2.279098">
        <ele>199.288</ele>
        <time>2021-04-06T10:00:28Z</time>
      </trkpt>
      <trkpt lat="43.184356" lon="-2.279134">
        <ele>199.524</ele>
        <time>2021-04-06T10:00:30Z</time>
      </trkpt>
      <trkpt lat="43.184359" lon="-2.279171">
        <ele>199.626</ele>
        <time>2021-04-06T10:00:32Z</time>
      </trkpt>
      <trkpt lat="43.184369" lon="-2.279207">
        <ele>199.708</ele>
        <time>2021-04-06T10:00:34Z</time>
      </trkpt>
      <trkpt lat="43.184379" lon="-2.279243">
        <ele>199.935</ele>
        <time>2021-04-06T10:00:36Z</time>
      </trkpt>
      <trkpt lat="43.184396" lon="-2.279274">
        <ele>200.348</ele>
        <time>2021-04-06T10:00:38Z</time>
      </trkpt>
      <trkpt lat="43.184413" lon="-2.279300">
        <ele>200.889</ele>
        <time>2021-04-06T10:00:40Z</time>
      </trkpt>
      <trkpt lat="43.184434" lon="-2.279325">
        <ele>201.484</ele>
        <time>2021-04-06T10:00:42Z</time>
      </trkpt>
      <trkpt lat="43.184454" lon="-2.279358">
        <ele>202.190</ele>
        <time>2021-04-06T10:00:44Z</time>
      </trkpt>
      <trkpt lat="43.184475" lon="-2.279386">
        <ele>203.177</ele>
        <time>2021-04-06T10:00:46Z</time>
      </trkpt>
      <trkpt lat="43.184496" lon="-2.279411">
        <ele>204.090</ele>
        <time>2021-04-06T10:00:48Z</time>
      </trkpt>
      <trkpt lat="43.184515" lon="-2.279435">
        <ele>204.935</ele>
        <time>2021-04-06T10:00:50Z</time>
      </trkpt>
      <trkpt lat="43.184536" lon="-2.279458">
        <ele>205.778</ele>
        <time>2021-04-06T10:00:52Z</time>
      </trkpt>
      <trkpt lat="43.184555" lon="-2.279480">
        <ele>206.233</ele>
        <time>2021-04-06T10:00:54Z</time>
      </trkpt>
      <trkpt lat="43.184573" lon="-2.279502">
        <ele>206.726</ele>
        <time>2021-04-06T10:00:56Z</time>
      </trkpt>
      <trkpt lat="43.184594" lon="-2.279520">
        <ele>207.408</ele>
        <time>2021-04-06T10:00:58Z</time>
      </trkpt>
      <trkpt lat="43.184611" lon="-2.279543">
        <ele>207.884</ele>
        <time>2021-04-06T10:01:00Z</time>
      </trkpt>
      <trkpt lat="43.184628" lon="-2.279560">
        <ele>208.387</ele>
        <time>2021-04-06T10:01:02Z</time>
      </trkpt>
      <trkpt lat="43.184647" lon="-2.279581">
        <ele>208.898</ele>
        <time>2021-04-06T10:01:04Z</time>
      </trkpt>
      <trkpt lat="43.184664" lon="-2.279602">
        <ele>209.173</ele>
        <time>2021-04-06T10:01:06Z</time>
      </trkpt>
      <trkpt lat="43.184680" lon="-2.279622">
        <ele>209.439</ele>
        <time>2021-04-06T10:01:08Z</time>
      </trkpt>
      <trkpt lat="43.184695" lon="-2.279649">
        <ele>209.516</ele>
        <time>2021-04-06T10:01:10Z</time>
      </trkpt>
      <trkpt lat="43.184712" lon="-2.279668">
        <ele>209.949</ele>
        <time>2021-04-06T10:01:12Z</time>
      </trkpt>
      <trkpt lat="43.184727" lon="-2.279685">
        <ele>210.174</ele>
        <time>2021-04-06T10:01:14Z</time>
      </trkpt>
      <trkpt lat="43.184743" lon="-2.279699">
        <ele>210.364</ele>
        <time>2021-04-06T10:01:16Z</time>
      </trkpt>
      <trkpt lat="43.184764" lon="-2.279712">
        <ele>210.606</ele>
        <time>2021-04-06T10:01:18Z</time>
      </trkpt>
      <trkpt lat="43.184783" lon="-2.279732">
        <ele>210.816</ele>
        <time>2021-04-06T10:01:20Z</time>
      </trkpt>
      <trkpt lat="43.184804" lon="-2.279748">
        <ele>211.308</ele>
        <time>2021-04-06T10:01:22Z</time>
      </trkpt>
      <trkpt lat="43.184823" lon="-2.279757">
        <ele>211.993</ele>
        <time>2021-04-06T10:01:24Z</time>
      </trkpt>
      <trkpt lat="43.184841" lon="-2.279767">
        <ele>212.346</ele>
        <time>2021-04-06T10:01:27Z</time>
      </trkpt>
      <trkpt lat="43.184862" lon="-2.279783">
        <ele>212.927</ele>
        <time>2021-04-06T10:01:29Z</time>
      </trkpt>
      <trkpt lat="43.184883" lon="-2.279797">
        <ele>213.492</ele>
        <time>2021-04-06T10:01:31Z</time>
      </trkpt>
      <trkpt lat="43.184905" lon="-2.279809">
        <ele>214.118</ele>
        <time>2021-04-06T10:01:33Z</time>
      </trkpt>
      <trkpt lat="43.184926" lon="-2.279827">
        <ele>214.635</ele>
        <time>2021-04-06T10:01:35Z</time>
      </trkpt>
      <trkpt lat="43.184942" lon="-2.279838">
        <ele>215.178</ele>
        <time>2021-04-06T10:01:37Z</time>
      </trkpt>
      <trkpt lat="43.184959" lon="-2.279851">
        <ele>215.623</ele>
        <time>2021-04-06T10:01:39Z</time>
      </trkpt>
      <trkpt lat="43.184981" lon="-2.279862">
        <ele>216.357</ele>
        <time>2021-04-06T10:01:41Z</time>
      </trkpt>
      <trkpt lat="43.185002" lon="-2.279871">
        <ele>217.000</ele>
        <time>2021-04-06T10:01:43Z</time>
      </trkpt>
      <trkpt lat="43.185021" lon="-2.279873">
        <ele>217.820</ele>
        <time>2021-04-06T10:01:45Z</time>
      </trkpt>
      <trkpt lat="43.185041" lon="-2.279878">
        <ele>218.508</ele>
        <time>2021-04-06T10:01:47Z</time>
      </trkpt>
      <trkpt lat="43.185058" lon="-2.279877">
        <ele>219.272</ele>
        <time>2021-04-06T10:01:49Z</time>
      </trkpt>
      <trkpt lat="43.185081" lon="-2.279881">
        <ele>220.125</ele>
        <time>2021-04-06T10:01:51Z</time>
      </trkpt>
      <trkpt lat="43.185099" lon="-2.279880">
        <ele>220.996</ele>
        <time>2021-04-06T10:01:53Z</time>
      </trkpt>
      <trkpt lat="43.185117" lon="-2.279869">
        <ele>221.611</ele>
        <time>2021-04-06T10:01:55Z</time>
      </trkpt>
      <trkpt lat="43.185141" lon="-2.279852">
        <ele>222.657</ele>
        <time>2021-04-06T10:01:58Z</time>
      </trkpt>
      <trkpt lat="43.185152" lon="-2.279832">
        <ele>223.054</ele>
        <time>2021-04-06T10:02:00Z</time>
      </trkpt>
      <trkpt lat="43.185154" lon="-2.279801">
        <ele>223.117</ele>
        <time>2021-04-06T10:02:02Z</time>
      </trkpt>
      <trkpt lat="43.185152" lon="-2.279779">
        <ele>223.092</ele>
        <time>2021-04-06T10:02:04Z</time>
      </trkpt>
      <trkpt lat="43.185157" lon="-2.279746">
        <ele>223.198</ele>
        <time>2021-04-06T10:02:07Z</time>
      </trkpt>
      <trkpt lat="43.185154" lon="-2.279712">
        <ele>223.215</ele>
        <time>2021-04-06T10:02:09Z</time>
      </trkpt>
      <trkpt lat="43.185153" lon="-2.279678">
        <ele>223.926</ele>
        <time>2021-04-06T10:02:11Z</time>
      </trkpt>
      <trkpt lat="43.185152" lon="-2.279652">
        <ele>224.408</ele>
        <time>2021-04-06T10:02:13Z</time>
      </trkpt>
      <trkpt lat="43.185151" lon="-2.279622">
        <ele>225.076</ele>
        <time>2021-04-06T10:02:15Z</time>
      </trkpt>
      <trkpt lat="43.185135" lon="-2.279588">
        <ele>225.329</ele>
        <time>2021-04-06T10:02:17Z</time>
      </trkpt>
      <trkpt lat="43.185123" lon="-2.279558">
        <ele>225.630</ele>
        <time>2021-04-06T10:02:19Z</time>
      </trkpt>
      <trkpt lat="43.185116" lon="-2.279518">
        <ele>226.335</ele>
        <time>2021-04-06T10:02:21Z</time>
      </trkpt>
      <trkpt lat="43.185109" lon="-2.279480">
        <ele>227.041</ele>
        <time>2021-04-06T10:02:23Z</time>
      </trkpt>
      <trkpt lat="43.185103" lon="-2.279438">
        <ele>227.718</ele>
        <time>2021-04-06T10:02:25Z</time>
      </trkpt>
      <trkpt lat="43.185097" lon="-2.279405">
        <ele>227.841</ele>
        <time>2021-04-06T10:02:27Z</time>
      </trkpt>
      <trkpt lat="43.185100" lon="-2.279372">
        <ele>228.286</ele>
        <time>2021-04-06T10:02:29Z</time>
      </trkpt>
      <trkpt lat="43.185098" lon="-2.279342">
        <ele>228.411</ele>
        <time>2021-04-06T10:02:31Z</time>
      </trkpt>
      <trkpt lat="43.185093" lon="-2.279313">
        <ele>228.621</ele>
        <time>2021-04-06T10:02:33Z</time>
      </trkpt>
      <trkpt lat="43.185093" lon="-2.279288">
        <ele>228.803</ele>
        <time>2021-04-06T10:02:35Z</time>
      </trkpt>
      <trkpt lat="43.185088" lon="-2.279259">
        <ele>229.008</ele>
        <time>2021-04-06T10:02:37Z</time>
      </trkpt>
      <trkpt lat="43.185088" lon="-2.279224">
        <ele>229.378</ele>
        <time>2021-04-06T10:02:40Z</time>
      </trkpt>
      <trkpt lat="43.185092" lon="-2.279195">
        <ele>229.791</ele>
        <time>2021-04-06T10:02:42Z</time>
      </trkpt>
      <trkpt lat="43.185095" lon="-2.279166">
        <ele>230.012</ele>
        <time>2021-04-06T10:02:43Z</time>
      </trkpt>
      <trkpt lat="43.185110" lon="-2.279137">
        <ele>229.937</ele>
        <time>2021-04-06T10:02:45Z</time>
      </trkpt>
      <trkpt lat="43.185129" lon="-2.279116">
        <ele>230.033</ele>
        <time>2021-04-06T10:02:47Z</time>
      </trkpt>
      <trkpt lat="43.185150" lon="-2.279104">
        <ele>230.230</ele>
        <time>2021-04-06T10:02:49Z</time>
      </trkpt>
      <trkpt lat="43.185173" lon="-2.279096">
        <ele>230.593</ele>
        <time>2021-04-06T10:02:51Z</time>
      </trkpt>
      <trkpt lat="43.185200" lon="-2.279094">
        <ele>231.088</ele>
        <time>2021-04-06T10:02:53Z</time>
      </trkpt>
      <trkpt lat="43.185225" lon="-2.279087">
        <ele>231.356</ele>
        <time>2021-04-06T10:02:55Z</time>
      </trkpt>
      <trkpt lat="43.185251" lon="-2.279089">
        <ele>231.859</ele>
        <time>2021-04-06T10:02:57Z</time>
      </trkpt>
      <trkpt lat="43.185274" lon="-2.279095">
        <ele>232.414</ele>
        <time>2021-04-06T10:02:59Z</time>
      </trkpt>
      <trkpt lat="43.185298" lon="-2.279105">
        <ele>232.508</ele>
        <time>2021-04-06T10:03:01Z</time>
      </trkpt>
      <trkpt lat="43.185323" lon="-2.279117">
        <ele>232.662</ele>
        <time>2021-04-06T10:03:03Z</time>
      </trkpt>
      <trkpt lat="43.185343" lon="-2.279127">
        <ele>232.715</ele>
        <time>2021-04-06T10:03:05Z</time>
      </trkpt>
      <trkpt lat="43.185361" lon="-2.279140">
        <ele>233.066</ele>
        <time>2021-04-06T10:03:07Z</time>
      </trkpt>
      <trkpt lat="43.185385" lon="-2.279156">
        <ele>233.341</ele>
        <time>2021-04-06T10:03:09Z</time>
      </trkpt>
      <trkpt lat="43.185406" lon="-2.279171">
        <ele>233.627</ele>
        <time>2021-04-06T10:03:11Z</time>
      </trkpt>
      <trkpt lat="43.185429" lon="-2.279180">
        <ele>233.664</ele>
        <time>2021-04-06T10:03:13Z</time>
      </trkpt>
      <trkpt lat="43.185453" lon="-2.279193">
        <ele>233.737</ele>
        <time>2021-04-06T10:03:15Z</time>
      </trkpt>
      <trkpt lat="43.185476" lon="-2.279208">
        <ele>233.862</ele>
        <time>2021-04-06T10:03:17Z</time>
      </trkpt>
      <trkpt lat="43.185500" lon="-2.279224">
        <ele>234.134</ele>
        <time>2021-04-06T10:03:19Z</time>
      </trkpt>
      <trkpt lat="43.185522" lon="-2.279237">
        <ele>234.455</ele>
        <time>2021-04-06T10:03:21Z</time>
      </trkpt>
      <trkpt lat="43.185537" lon="-2.279252">
        <ele>234.710</ele>
        <time>2021-04-06T10:03:24Z</time>
      </trkpt>
      <trkpt lat="43.185560" lon="-2.279252">
        <ele>234.808</ele>
        <time>2021-04-06T10:03:28Z</time>
      </trkpt>
      <trkpt lat="43.185585" lon="-2.279264">
        <ele>234.980</ele>
        <time>2021-04-06T10:03:30Z</time>
      </trkpt>
      <trkpt lat="43.185609" lon="-2.279281">
        <ele>235.213</ele>
        <time>2021-04-06T10:03:32Z</time>
      </trkpt>
      <trkpt lat="43.185634" lon="-2.279297">
        <ele>235.594</ele>
        <time>2021-04-06T10:03:34Z</time>
      </trkpt>
      <trkpt lat="43.185656" lon="-2.279313">
        <ele>235.999</ele>
        <time>2021-04-06T10:03:36Z</time>
      </trkpt>
      <trkpt lat="43.185678" lon="-2.279334">
        <ele>236.455</ele>
        <time>2021-04-06T10:03:38Z</time>
      </trkpt>
      <trkpt lat="43.185701" lon="-2.279355">
        <ele>237.132</ele>
        <time>2021-04-06T10:03:40Z</time>
      </trkpt>
      <trkpt lat="43.185725" lon="-2.279376">
        <ele>237.875</ele>
        <time>2021-04-06T10:03:42Z</time>
      </trkpt>
      <trkpt lat="43.185749" lon="-2.279392">
        <ele>238.540</ele>
        <time>2021-04-06T10:03:44Z</time>
      </trkpt>
      <trkpt lat="43.185775" lon="-2.279402">
        <ele>238.948</ele>
        <time>2021-04-06T10:03:46Z</time>
      </trkpt>
      <trkpt lat="43.185800" lon="-2.279415">
        <ele>239.661</ele>
        <time>2021-04-06T10:03:48Z</time>
      </trkpt>
      <trkpt lat="43.185828" lon="-2.279428">
        <ele>240.317</ele>
        <time>2021-04-06T10:03:50Z</time>
      </trkpt>
      <trkpt lat="43.185856" lon="-2.279440">
        <ele>240.408</ele>
        <time>2021-04-06T10:03:52Z</time>
      </trkpt>
      <trkpt lat="43.185882" lon="-2.279454">
        <ele>240.481</ele>
        <time>2021-04-06T10:03:54Z</time>
      </trkpt>
      <trkpt lat="43.185906" lon="-2.279471">
        <ele>240.524</ele>
        <time>2021-04-06T10:03:56Z</time>
      </trkpt>
      <trkpt lat="43.185932" lon="-2.279492">
        <ele>240.725</ele>
        <time>2021-04-06T10:03:58Z</time>
      </trkpt>
      <trkpt lat="43.185957" lon="-2.279507">
        <ele>240.960</ele>
        <time>2021-04-06T10:04:00Z</time>
      </trkpt>
      <trkpt lat="43.185981" lon="-2.279522">
        <ele>241.016</ele>
        <time>2021-04-06T10:04:02Z</time>
      </trkpt>
      <trkpt lat="43.186007" lon="-2.279540">
        <ele>241.413</ele>
        <time>2021-04-06T10:04:04Z</time>
      </trkpt>
      <trkpt lat="43.186036" lon="-2.279559">
        <ele>241.796</ele>
        <time>2021-04-06T10:04:06Z</time>
      </trkpt>
      <trkpt lat="43.186061" lon="-2.279577">
        <ele>242.271</ele>
        <time>2021-04-06T10:04:08Z</time>
      </trkpt>
      <trkpt lat="43.186086" lon="-2.279601">
        <ele>243.081</ele>
        <time>2021-04-06T10:04:10Z</time>
      </trkpt>
      <trkpt lat="43.186110" lon="-2.279622">
        <ele>243.761</ele>
        <time>2021-04-06T10:04:12Z</time>
      </trkpt>
      <trkpt lat="43.186131" lon="-2.279645">
        <ele>244.317</ele>
        <time>2021-04-06T10:04:14Z</time>
      </trkpt>
      <trkpt lat="43.186154" lon="-2.279669">
        <ele>245.008</ele>
        <time>2021-04-06T10:04:16Z</time>
      </trkpt>
      <trkpt lat="43.186179" lon="-2.279689">
        <ele>245.575</ele>
        <time>2021-04-06T10:04:18Z</time>
      </trkpt>
      <trkpt lat="43.186202" lon="-2.279709">
        <ele>246.158</ele>
        <time>2021-04-06T10:04:20Z</time>
      </trkpt>
      <trkpt lat="43.186221" lon="-2.279727">
        <ele>246.679</ele>
        <time>2021-04-06T10:04:22Z</time>
      </trkpt>
      <trkpt lat="43.186241" lon="-2.279743">
        <ele>246.954</ele>
        <time>2021-04-06T10:04:24Z</time>
      </trkpt>
      <trkpt lat="43.186262" lon="-2.279759">
        <ele>247.240</ele>
        <time>2021-04-06T10:04:26Z</time>
      </trkpt>
      <trkpt lat="43.186280" lon="-2.279774">
        <ele>247.567</ele>
        <time>2021-04-06T10:04:28Z</time>
      </trkpt>
      <trkpt lat="43.186301" lon="-2.279789">
        <ele>247.830</ele>
        <time>2021-04-06T10:04:30Z</time>
      </trkpt>
      <trkpt lat="43.186322" lon="-2.279797">
        <ele>247.835</ele>
        <time>2021-04-06T10:04:32Z</time>
      </trkpt>
      <trkpt lat="43.186346" lon="-2.279804">
        <ele>247.835</ele>
        <time>2021-04-06T10:04:34Z</time>
      </trkpt>
      <trkpt lat="43.186372" lon="-2.279819">
        <ele>248.086</ele>
        <time>2021-04-06T10:04:36Z</time>
      </trkpt>
      <trkpt lat="43.186400" lon="-2.279837">
        <ele>248.714</ele>
        <time>2021-04-06T10:04:38Z</time>
      </trkpt>
      <trkpt lat="43.186436" lon="-2.279845">
        <ele>249.408</ele>
        <time>2021-04-06T10:04:40Z</time>
      </trkpt>
      <trkpt lat="43.186456" lon="-2.279851">
        <ele>249.890</ele>
        <time>2021-04-06T10:04:41Z</time>
      </trkpt>
      <trkpt lat="43.186474" lon="-2.279855">
        <ele>250.223</ele>
        <time>2021-04-06T10:04:42Z</time>
      </trkpt>
      <trkpt lat="43.186496" lon="-2.279858">
        <ele>250.584</ele>
        <time>2021-04-06T10:04:43Z</time>
      </trkpt>
      <trkpt lat="43.186516" lon="-2.279857">
        <ele>250.799</ele>
        <time>2021-04-06T10:04:44Z</time>
      </trkpt>
      <trkpt lat="43.186537" lon="-2.279849">
        <ele>250.695</ele>
        <time>2021-04-06T10:04:45Z</time>
      </trkpt>
      <trkpt lat="43.186556" lon="-2.279838">
        <ele>250.372</ele>
        <time>2021-04-06T10:04:46Z</time>
      </trkpt>
      <trkpt lat="43.186574" lon="-2.279822">
        <ele>249.825</ele>
        <time>2021-04-06T10:04:47Z</time>
      </trkpt>
      <trkpt lat="43.186594" lon="-2.279804">
        <ele>249.270</ele>
        <time>2021-04-06T10:04:48Z</time>
      </trkpt>
      <trkpt lat="43.186616" lon="-2.279789">
        <ele>248.711</ele>
        <time>2021-04-06T10:04:49Z</time>
      </trkpt>
      <trkpt lat="43.186635" lon="-2.279777">
        <ele>248.321</ele>
        <time>2021-04-06T10:04:50Z</time>
      </trkpt>
      <trkpt lat="43.186664" lon="-2.279758">
        <ele>247.703</ele>
        <time>2021-04-06T10:04:52Z</time>
      </trkpt>
      <trkpt lat="43.186685" lon="-2.279752">
        <ele>248.008</ele>
        <time>2021-04-06T10:04:54Z</time>
      </trkpt>
      <trkpt lat="43.186702" lon="-2.279751">
        <ele>248.698</ele>
        <time>2021-04-06T10:04:58Z</time>
      </trkpt>
      <trkpt lat="43.186716" lon="-2.279737">
        <ele>248.461</ele>
        <time>2021-04-06T10:05:05Z</time>
      </trkpt>
      <trkpt lat="43.186728" lon="-2.279715">
        <ele>248.022</ele>
        <time>2021-04-06T10:05:14Z</time>
      </trkpt>
      <trkpt lat="43.186751" lon="-2.279718">
        <ele>248.967</ele>
        <time>2021-04-06T10:05:24Z</time>
      </trkpt>
      <trkpt lat="43.186769" lon="-2.279720">
        <ele>249.683</ele>
        <time>2021-04-06T10:05:26Z</time>
      </trkpt>
      <trkpt lat="43.186788" lon="-2.279716">
        <ele>250.260</ele>
        <time>2021-04-06T10:05:28Z</time>
      </trkpt>
      <trkpt lat="43.186797" lon="-2.279686">
        <ele>249.773</ele>
        <time>2021-04-06T10:05:31Z</time>
      </trkpt>
      <trkpt lat="43.186806" lon="-2.279662">
        <ele>249.428</ele>
        <time>2021-04-06T10:05:34Z</time>
      </trkpt>
      <trkpt lat="43.186818" lon="-2.279642">
        <ele>249.431</ele>
        <time>2021-04-06T10:05:40Z</time>
      </trkpt>
      <trkpt lat="43.186838" lon="-2.279648">
        <ele>250.461</ele>
        <time>2021-04-06T10:05:44Z</time>
      </trkpt>
      <trkpt lat="43.186861" lon="-2.279636">
        <ele>251.107</ele>
        <time>2021-04-06T10:05:46Z</time>
      </trkpt>
      <trkpt lat="43.186878" lon="-2.279615">
        <ele>251.408</ele>
        <time>2021-04-06T10:05:48Z</time>
      </trkpt>
      <trkpt lat="43.186893" lon="-2.279590">
        <ele>251.630</ele>
        <time>2021-04-06T10:05:50Z</time>
      </trkpt>
      <trkpt lat="43.186907" lon="-2.279568">
        <ele>251.993</ele>
        <time>2021-04-06T10:05:55Z</time>
      </trkpt>
      <trkpt lat="43.186911" lon="-2.279533">
        <ele>251.564</ele>
        <time>2021-04-06T10:05:58Z</time>
      </trkpt>
      <trkpt lat="43.186917" lon="-2.279503">
        <ele>251.329</ele>
        <time>2021-04-06T10:06:00Z</time>
      </trkpt>
      <trkpt lat="43.186925" lon="-2.279475">
        <ele>251.385</ele>
        <time>2021-04-06T10:06:02Z</time>
      </trkpt>
      <trkpt lat="43.186933" lon="-2.279445">
        <ele>251.312</ele>
        <time>2021-04-06T10:06:04Z</time>
      </trkpt>
      <trkpt lat="43.186941" lon="-2.279417">
        <ele>251.375</ele>
        <time>2021-04-06T10:06:06Z</time>
      </trkpt>
      <trkpt lat="43.186955" lon="-2.279391">
        <ele>251.850</ele>
        <time>2021-04-06T10:06:08Z</time>
      </trkpt>
      <trkpt lat="43.186962" lon="-2.279363">
        <ele>251.867</ele>
        <time>2021-04-06T10:06:10Z</time>
      </trkpt>
      <trkpt lat="43.186966" lon="-2.279334">
        <ele>251.581</ele>
        <time>2021-04-06T10:06:12Z</time>
      </trkpt>
      <trkpt lat="43.186970" lon="-2.279304">
        <ele>251.319</ele>
        <time>2021-04-06T10:06:15Z</time>
      </trkpt>
      <trkpt lat="43.186988" lon="-2.279292">
        <ele>252.308</ele>
        <time>2021-04-06T10:06:22Z</time>
      </trkpt>
      <trkpt lat="43.187001" lon="-2.279277">
        <ele>252.963</ele>
        <time>2021-04-06T10:06:29Z</time>
      </trkpt>
      <trkpt lat="43.187014" lon="-2.279254">
        <ele>253.486</ele>
        <time>2021-04-06T10:06:32Z</time>
      </trkpt>
      <trkpt lat="43.187022" lon="-2.279223">
        <ele>253.447</ele>
        <time>2021-04-06T10:06:35Z</time>
      </trkpt>
      <trkpt lat="43.187036" lon="-2.279206">
        <ele>254.082</ele>
        <time>2021-04-06T10:06:37Z</time>
      </trkpt>
      <trkpt lat="43.187055" lon="-2.279186">
        <ele>254.928</ele>
        <time>2021-04-06T10:06:39Z</time>
      </trkpt>
      <trkpt lat="43.187072" lon="-2.279158">
        <ele>255.525</ele>
        <time>2021-04-06T10:06:42Z</time>
      </trkpt>
      <trkpt lat="43.187090" lon="-2.279151">
        <ele>256.698</ele>
        <time>2021-04-06T10:06:44Z</time>
      </trkpt>
      <trkpt lat="43.187112" lon="-2.279138">
        <ele>257.853</ele>
        <time>2021-04-06T10:06:47Z</time>
      </trkpt>
      <trkpt lat="43.187131" lon="-2.279118">
        <ele>258.647</ele>
        <time>2021-04-06T10:06:49Z</time>
      </trkpt>
      <trkpt lat="43.187142" lon="-2.279093">
        <ele>258.729</ele>
        <time>2021-04-06T10:06:51Z</time>
      </trkpt>
      <trkpt lat="43.187155" lon="-2.279079">
        <ele>259.321</ele>
        <time>2021-04-06T10:06:54Z</time>
      </trkpt>
      <trkpt lat="43.187172" lon="-2.279061">
        <ele>260.008</ele>
        <time>2021-04-06T10:06:57Z</time>
      </trkpt>
      <trkpt lat="43.187188" lon="-2.279043">
        <ele>260.611</ele>
        <time>2021-04-06T10:06:59Z</time>
      </trkpt>
      <trkpt lat="43.187196" lon="-2.279020">
        <ele>260.674</ele>
        <time>2021-04-06T10:07:01Z</time>
      </trkpt>
      <trkpt lat="43.187205" lon="-2.279001">
        <ele>260.735</ele>
        <time>2021-04-06T10:07:03Z</time>
      </trkpt>
      <trkpt lat="43.187224" lon="-2.278986">
        <ele>261.540</ele>
        <time>2021-04-06T10:07:05Z</time>
      </trkpt>
      <trkpt lat="43.187241" lon="-2.278964">
        <ele>261.676</ele>
        <time>2021-04-06T10:07:08Z</time>
      </trkpt>
      <trkpt lat="43.187254" lon="-2.278948">
        <ele>261.763</ele>
        <time>2021-04-06T10:07:10Z</time>
      </trkpt>
      <trkpt lat="43.187263" lon="-2.278923">
        <ele>261.466</ele>
        <time>2021-04-06T10:07:12Z</time>
      </trkpt>
      <trkpt lat="43.187273" lon="-2.278899">
        <ele>261.171</ele>
        <time>2021-04-06T10:07:14Z</time>
      </trkpt>
      <trkpt lat="43.187283" lon="-2.278875">
        <ele>260.874</ele>
        <time>2021-04-06T10:07:16Z</time>
      </trkpt>
      <trkpt lat="43.187304" lon="-2.278845">
        <ele>260.556</ele>
        <time>2021-04-06T10:07:18Z</time>
      </trkpt>
      <trkpt lat="43.187325" lon="-2.278824">
        <ele>260.621</ele>
        <time>2021-04-06T10:07:20Z</time>
      </trkpt>
      <trkpt lat="43.187343" lon="-2.278814">
        <ele>260.808</ele>
        <time>2021-04-06T10:07:22Z</time>
      </trkpt>
      <trkpt lat="43.187364" lon="-2.278807">
        <ele>261.334</ele>
        <time>2021-04-06T10:07:24Z</time>
      </trkpt>
      <trkpt lat="43.187386" lon="-2.278801">
        <ele>261.837</ele>
        <time>2021-04-06T10:07:27Z</time>
      </trkpt>
      <trkpt lat="43.187403" lon="-2.278792">
        <ele>262.048</ele>
        <time>2021-04-06T10:07:29Z</time>
      </trkpt>
      <trkpt lat="43.187422" lon="-2.278784">
        <ele>262.493</ele>
        <time>2021-04-06T10:07:32Z</time>
      </trkpt>
      <trkpt lat="43.187442" lon="-2.278779">
        <ele>262.899</ele>
        <time>2021-04-06T10:07:34Z</time>
      </trkpt>
      <trkpt lat="43.187468" lon="-2.278771">
        <ele>263.366</ele>
        <time>2021-04-06T10:07:36Z</time>
      </trkpt>
      <trkpt lat="43.187494" lon="-2.278767">
        <ele>264.099</ele>
        <time>2021-04-06T10:07:38Z</time>
      </trkpt>
      <trkpt lat="43.187522" lon="-2.278764">
        <ele>263.444</ele>
        <time>2021-04-06T10:07:40Z</time>
      </trkpt>
      <trkpt lat="43.187552" lon="-2.278756">
        <ele>262.292</ele>
        <time>2021-04-06T10:07:42Z</time>
      </trkpt>
      <trkpt lat="43.187580" lon="-2.278753">
        <ele>261.373</ele>
        <time>2021-04-06T10:07:44Z</time>
      </trkpt>
      <trkpt lat="43.187605" lon="-2.278762">
        <ele>261.020</ele>
        <time>2021-04-06T10:07:46Z</time>
      </trkpt>
      <trkpt lat="43.187621" lon="-2.278774">
        <ele>261.008</ele>
        <time>2021-04-06T10:07:48Z</time>
      </trkpt>
      <trkpt lat="43.187643" lon="-2.278782">
        <ele>260.626</ele>
        <time>2021-04-06T10:07:50Z</time>
      </trkpt>
      <trkpt lat="43.187659" lon="-2.278798">
        <ele>260.869</ele>
        <time>2021-04-06T10:07:52Z</time>
      </trkpt>
      <trkpt lat="43.187681" lon="-2.278818">
        <ele>261.080</ele>
        <time>2021-04-06T10:07:56Z</time>
      </trkpt>
      <trkpt lat="43.187696" lon="-2.278831">
        <ele>261.155</ele>
        <time>2021-04-06T10:07:58Z</time>
      </trkpt>
      <trkpt lat="43.187712" lon="-2.278846">
        <ele>261.251</ele>
        <time>2021-04-06T10:08:00Z</time>
      </trkpt>
      <trkpt lat="43.187734" lon="-2.278849">
        <ele>260.758</ele>
        <time>2021-04-06T10:08:02Z</time>
      </trkpt>
      <trkpt lat="43.187751" lon="-2.278859">
        <ele>260.651</ele>
        <time>2021-04-06T10:08:04Z</time>
      </trkpt>
      <trkpt lat="43.187772" lon="-2.278874">
        <ele>260.646</ele>
        <time>2021-04-06T10:08:06Z</time>
      </trkpt>
      <trkpt lat="43.187789" lon="-2.278889">
        <ele>261.252</ele>
        <time>2021-04-06T10:08:08Z</time>
      </trkpt>
      <trkpt lat="43.187810" lon="-2.278902">
        <ele>262.153</ele>
        <time>2021-04-06T10:08:10Z</time>
      </trkpt>
      <trkpt lat="43.187830" lon="-2.278914">
        <ele>262.908</ele>
        <time>2021-04-06T10:08:12Z</time>
      </trkpt>
      <trkpt lat="43.187852" lon="-2.278920">
        <ele>263.508</ele>
        <time>2021-04-06T10:08:14Z</time>
      </trkpt>
      <trkpt lat="43.187870" lon="-2.278929">
        <ele>264.172</ele>
        <time>2021-04-06T10:08:17Z</time>
      </trkpt>
      <trkpt lat="43.187894" lon="-2.278929">
        <ele>264.445</ele>
        <time>2021-04-06T10:08:22Z</time>
      </trkpt>
      <trkpt lat="43.187918" lon="-2.278932">
        <ele>264.976</ele>
        <time>2021-04-06T10:08:26Z</time>
      </trkpt>
      <trkpt lat="43.187938" lon="-2.278940">
        <ele>265.581</ele>
        <time>2021-04-06T10:08:28Z</time>
      </trkpt>
      <trkpt lat="43.187959" lon="-2.278938">
        <ele>265.747</ele>
        <time>2021-04-06T10:08:30Z</time>
      </trkpt>
      <trkpt lat="43.187984" lon="-2.278932">
        <ele>265.894</ele>
        <time>2021-04-06T10:08:32Z</time>
      </trkpt>
      <trkpt lat="43.188007" lon="-2.278930">
        <ele>266.057</ele>
        <time>2021-04-06T10:08:34Z</time>
      </trkpt>
      <trkpt lat="43.188026" lon="-2.278925">
        <ele>266.012</ele>
        <time>2021-04-06T10:08:36Z</time>
      </trkpt>
      <trkpt lat="43.188049" lon="-2.278919">
        <ele>266.166</ele>
        <time>2021-04-06T10:08:39Z</time>
      </trkpt>
      <trkpt lat="43.188068" lon="-2.278918">
        <ele>266.629</ele>
        <time>2021-04-06T10:08:42Z</time>
      </trkpt>
      <trkpt lat="43.188091" lon="-2.278918">
        <ele>267.621</ele>
        <time>2021-04-06T10:08:45Z</time>
      </trkpt>
      <trkpt lat="43.188116" lon="-2.278915">
        <ele>268.408</ele>
        <time>2021-04-06T10:08:48Z</time>
      </trkpt>
      <trkpt lat="43.188132" lon="-2.278910">
        <ele>268.943</ele>
        <time>2021-04-06T10:08:51Z</time>
      </trkpt>
      <trkpt lat="43.188151" lon="-2.278891">
        <ele>268.956</ele>
        <time>2021-04-06T10:08:54Z</time>
      </trkpt>
      <trkpt lat="43.188162" lon="-2.278873">
        <ele>268.767</ele>
        <time>2021-04-06T10:08:56Z</time>
      </trkpt>
      <trkpt lat="43.188174" lon="-2.278851">
        <ele>268.492</ele>
        <time>2021-04-06T10:08:59Z</time>
      </trkpt>
      <trkpt lat="43.188192" lon="-2.278840">
        <ele>268.728</ele>
        <time>2021-04-06T10:09:01Z</time>
      </trkpt>
      <trkpt lat="43.188208" lon="-2.278833">
        <ele>269.115</ele>
        <time>2021-04-06T10:09:03Z</time>
      </trkpt>
      <trkpt lat="43.188225" lon="-2.278824">
        <ele>269.598</ele>
        <time>2021-04-06T10:09:05Z</time>
      </trkpt>
      <trkpt lat="43.188243" lon="-2.278814">
        <ele>269.983</ele>
        <time>2021-04-06T10:09:07Z</time>
      </trkpt>
      <trkpt lat="43.188264" lon="-2.278801">
        <ele>270.387</ele>
        <time>2021-04-06T10:09:09Z</time>
      </trkpt>
      <trkpt lat="43.188290" lon="-2.278800">
        <ele>271.442</ele>
        <time>2021-04-06T10:09:11Z</time>
      </trkpt>
      <trkpt lat="43.188309" lon="-2.278801">
        <ele>272.226</ele>
        <time>2021-04-06T10:09:13Z</time>
      </trkpt>
      <trkpt lat="43.188327" lon="-2.278809">
        <ele>273.208</ele>
        <time>2021-04-06T10:09:15Z</time>
      </trkpt>
      <trkpt lat="43.188356" lon="-2.278814">
        <ele>273.585</ele>
        <time>2021-04-06T10:09:18Z</time>
      </trkpt>
      <trkpt lat="43.188374" lon="-2.278820">
        <ele>273.748</ele>
        <time>2021-04-06T10:09:20Z</time>
      </trkpt>
      <trkpt lat="43.188403" lon="-2.278820">
        <ele>273.679</ele>
        <time>2021-04-06T10:09:22Z</time>
      </trkpt>
      <trkpt lat="43.188421" lon="-2.278821">
        <ele>273.674</ele>
        <time>2021-04-06T10:09:23Z</time>
      </trkpt>
      <trkpt lat="43.188442" lon="-2.278834">
        <ele>274.140</ele>
        <time>2021-04-06T10:09:25Z</time>
      </trkpt>
      <trkpt lat="43.188470" lon="-2.278846">
        <ele>274.597</ele>
        <time>2021-04-06T10:09:27Z</time>
      </trkpt>
      <trkpt lat="43.188503" lon="-2.278844">
        <ele>274.320</ele>
        <time>2021-04-06T10:09:29Z</time>
      </trkpt>
      <trkpt lat="43.188529" lon="-2.278846">
        <ele>274.415</ele>
        <time>2021-04-06T10:09:31Z</time>
      </trkpt>
      <trkpt lat="43.188549" lon="-2.278841">
        <ele>274.224</ele>
        <time>2021-04-06T10:09:34Z</time>
      </trkpt>
      <trkpt lat="43.188571" lon="-2.278843">
        <ele>274.204</ele>
        <time>2021-04-06T10:09:36Z</time>
      </trkpt>
      <trkpt lat="43.188595" lon="-2.278853">
        <ele>274.614</ele>
        <time>2021-04-06T10:09:38Z</time>
      </trkpt>
      <trkpt lat="43.188617" lon="-2.278858">
        <ele>274.808</ele>
        <time>2021-04-06T10:09:40Z</time>
      </trkpt>
      <trkpt lat="43.188638" lon="-2.278874">
        <ele>275.479</ele>
        <time>2021-04-06T10:09:42Z</time>
      </trkpt>
      <trkpt lat="43.188661" lon="-2.278892">
        <ele>276.122</ele>
        <time>2021-04-06T10:09:44Z</time>
      </trkpt>
      <trkpt lat="43.188681" lon="-2.278913">
        <ele>276.913</ele>
        <time>2021-04-06T10:09:46Z</time>
      </trkpt>
      <trkpt lat="43.188697" lon="-2.278935">
        <ele>277.728</ele>
        <time>2021-04-06T10:09:48Z</time>
      </trkpt>
      <trkpt lat="43.188715" lon="-2.278954">
        <ele>278.434</ele>
        <time>2021-04-06T10:09:50Z</time>
      </trkpt>
      <trkpt lat="43.188736" lon="-2.278959">
        <ele>278.671</ele>
        <time>2021-04-06T10:09:52Z</time>
      </trkpt>
      <trkpt lat="43.188760" lon="-2.278944">
        <ele>278.194</ele>
        <time>2021-04-06T10:09:55Z</time>
      </trkpt>
      <trkpt lat="43.188781" lon="-2.278952">
        <ele>278.459</ele>
        <time>2021-04-06T10:09:58Z</time>
      </trkpt>
      <trkpt lat="43.188793" lon="-2.278973">
        <ele>279.295</ele>
        <time>2021-04-06T10:10:00Z</time>
      </trkpt>
      <trkpt lat="43.188812" lon="-2.278991">
        <ele>279.949</ele>
        <time>2021-04-06T10:10:02Z</time>
      </trkpt>
      <trkpt lat="43.188831" lon="-2.278997">
        <ele>280.223</ele>
        <time>2021-04-06T10:10:05Z</time>
      </trkpt>
      <trkpt lat="43.188860" lon="-2.278993">
        <ele>280.108</ele>
        <time>2021-04-06T10:10:09Z</time>
      </trkpt>
      <trkpt lat="43.188878" lon="-2.278991">
        <ele>280.066</ele>
        <time>2021-04-06T10:10:12Z</time>
      </trkpt>
      <trkpt lat="43.188903" lon="-2.278982">
        <ele>279.489</ele>
        <time>2021-04-06T10:10:14Z</time>
      </trkpt>
      <trkpt lat="43.188926" lon="-2.278984">
        <ele>279.020</ele>
        <time>2021-04-06T10:10:16Z</time>
      </trkpt>
      <trkpt lat="43.188961" lon="-2.278993">
        <ele>278.785</ele>
        <time>2021-04-06T10:10:19Z</time>
      </trkpt>
      <trkpt lat="43.188980" lon="-2.278998">
        <ele>278.591</ele>
        <time>2021-04-06T10:10:20Z</time>
      </trkpt>
      <trkpt lat="43.189015" lon="-2.279011">
        <ele>278.348</ele>
        <time>2021-04-06T10:10:22Z</time>
      </trkpt>
      <trkpt lat="43.189039" lon="-2.279019">
        <ele>278.251</ele>
        <time>2021-04-06T10:10:23Z</time>
      </trkpt>
      <trkpt lat="43.189060" lon="-2.279026">
        <ele>278.056</ele>
        <time>2021-04-06T10:10:24Z</time>
      </trkpt>
      <trkpt lat="43.189082" lon="-2.279033">
        <ele>277.917</ele>
        <time>2021-04-06T10:10:25Z</time>
      </trkpt>
      <trkpt lat="43.189106" lon="-2.279039">
        <ele>277.787</ele>
        <time>2021-04-06T10:10:26Z</time>
      </trkpt>
      <trkpt lat="43.189128" lon="-2.279042">
        <ele>277.415</ele>
        <time>2021-04-06T10:10:27Z</time>
      </trkpt>
      <trkpt lat="43.189165" lon="-2.279046">
        <ele>276.808</ele>
        <time>2021-04-06T10:10:29Z</time>
      </trkpt>
      <trkpt lat="43.189183" lon="-2.279044">
        <ele>276.588</ele>
        <time>2021-04-06T10:10:30Z</time>
      </trkpt>
      <trkpt lat="43.189199" lon="-2.279039">
        <ele>276.181</ele>
        <time>2021-04-06T10:10:31Z</time>
      </trkpt>
      <trkpt lat="43.189246" lon="-2.279001">
        <ele>273.972</ele>
        <time>2021-04-06T10:10:33Z</time>
      </trkpt>
      <trkpt lat="43.189269" lon="-2.278982">
        <ele>272.897</ele>
        <time>2021-04-06T10:10:34Z</time>
      </trkpt>
      <trkpt lat="43.189291" lon="-2.278962">
        <ele>271.643</ele>
        <time>2021-04-06T10:10:35Z</time>
      </trkpt>
      <trkpt lat="43.189367" lon="-2.278884">
        <ele>266.980</ele>
        <time>2021-04-06T10:10:39Z</time>
      </trkpt>
      <trkpt lat="43.189445" lon="-2.278846">
        <ele>264.363</ele>
        <time>2021-04-06T10:10:45Z</time>
      </trkpt>
      <trkpt lat="43.189462" lon="-2.278841">
        <ele>264.488</ele>
        <time>2021-04-06T10:10:46Z</time>
      </trkpt>
      <trkpt lat="43.189481" lon="-2.278839">
        <ele>264.636</ele>
        <time>2021-04-06T10:10:47Z</time>
      </trkpt>
      <trkpt lat="43.189497" lon="-2.278835">
        <ele>264.717</ele>
        <time>2021-04-06T10:10:48Z</time>
      </trkpt>
      <trkpt lat="43.189516" lon="-2.278829">
        <ele>264.818</ele>
        <time>2021-04-06T10:10:49Z</time>
      </trkpt>
      <trkpt lat="43.189536" lon="-2.278824">
        <ele>264.808</ele>
        <time>2021-04-06T10:10:50Z</time>
      </trkpt>
      <trkpt lat="43.189555" lon="-2.278822">
        <ele>265.140</ele>
        <time>2021-04-06T10:10:51Z</time>
      </trkpt>
      <trkpt lat="43.189644" lon="-2.278792">
        <ele>265.053</ele>
        <time>2021-04-06T10:10:58Z</time>
      </trkpt>
      <trkpt lat="43.189736" lon="-2.278785">
        <ele>266.164</ele>
        <time>2021-04-06T10:11:16Z</time>
      </trkpt>
      <trkpt lat="43.189748" lon="-2.278807">
        <ele>267.579</ele>
        <time>2021-04-06T10:11:21Z</time>
      </trkpt>
      <trkpt lat="43.189771" lon="-2.278821">
        <ele>268.785</ele>
        <time>2021-04-06T10:11:24Z</time>
      </trkpt>
      <trkpt lat="43.189788" lon="-2.278848">
        <ele>270.312</ele>
        <time>2021-04-06T10:11:27Z</time>
      </trkpt>
      <trkpt lat="43.189809" lon="-2.278823">
        <ele>269.745</ele>
        <time>2021-04-06T10:11:34Z</time>
      </trkpt>
      <trkpt lat="43.189826" lon="-2.278768">
        <ele>267.860</ele>
        <time>2021-04-06T10:11:46Z</time>
      </trkpt>
      <trkpt lat="43.189834" lon="-2.278723">
        <ele>266.136</ele>
        <time>2021-04-06T10:11:51Z</time>
      </trkpt>
      <trkpt lat="43.189856" lon="-2.278734">
        <ele>267.217</ele>
        <time>2021-04-06T10:11:53Z</time>
      </trkpt>
      <trkpt lat="43.189872" lon="-2.278759">
        <ele>268.718</ele>
        <time>2021-04-06T10:11:55Z</time>
      </trkpt>
      <trkpt lat="43.189891" lon="-2.278790">
        <ele>270.408</ele>
        <time>2021-04-06T10:11:58Z</time>
      </trkpt>
      <trkpt lat="43.189920" lon="-2.278842">
        <ele>272.950</ele>
        <time>2021-04-06T10:12:02Z</time>
      </trkpt>
      <trkpt lat="43.189964" lon="-2.278868">
        <ele>274.763</ele>
        <time>2021-04-06T10:12:07Z</time>
      </trkpt>
      <trkpt lat="43.189983" lon="-2.278882">
        <ele>275.544</ele>
        <time>2021-04-06T10:12:10Z</time>
      </trkpt>
      <trkpt lat="43.189998" lon="-2.278895">
        <ele>276.419</ele>
        <time>2021-04-06T10:12:12Z</time>
      </trkpt>
      <trkpt lat="43.190013" lon="-2.278911">
        <ele>277.915</ele>
        <time>2021-04-06T10:12:14Z</time>
      </trkpt>
      <trkpt lat="43.190029" lon="-2.278923">
        <ele>279.262</ele>
        <time>2021-04-06T10:12:16Z</time>
      </trkpt>
      <trkpt lat="43.190048" lon="-2.278935">
        <ele>280.515</ele>
        <time>2021-04-06T10:12:19Z</time>
      </trkpt>
      <trkpt lat="43.190067" lon="-2.278944">
        <ele>281.630</ele>
        <time>2021-04-06T10:12:21Z</time>
      </trkpt>
      <trkpt lat="43.190087" lon="-2.278954">
        <ele>282.897</ele>
        <time>2021-04-06T10:12:23Z</time>
      </trkpt>
      <trkpt lat="43.190109" lon="-2.278957">
        <ele>283.623</ele>
        <time>2021-04-06T10:12:25Z</time>
      </trkpt>
      <trkpt lat="43.190150" lon="-2.278968">
        <ele>285.225</ele>
        <time>2021-04-06T10:12:29Z</time>
      </trkpt>
      <trkpt lat="43.190202" lon="-2.278865">
        <ele>284.008</ele>
        <time>2021-04-06T10:12:38Z</time>
      </trkpt>
      <trkpt lat="43.190214" lon="-2.278781">
        <ele>284.716</ele>
        <time>2021-04-06T10:12:45Z</time>
      </trkpt>
      <trkpt lat="43.190234" lon="-2.278756">
        <ele>285.979</ele>
        <time>2021-04-06T10:12:47Z</time>
      </trkpt>
      <trkpt lat="43.190248" lon="-2.278726">
        <ele>286.990</ele>
        <time>2021-04-06T10:12:49Z</time>
      </trkpt>
      <trkpt lat="43.190256" lon="-2.278699">
        <ele>287.615</ele>
        <time>2021-04-06T10:12:51Z</time>
      </trkpt>
      <trkpt lat="43.190262" lon="-2.278662">
        <ele>288.341</ele>
        <time>2021-04-06T10:12:54Z</time>
      </trkpt>
      <trkpt lat="43.190268" lon="-2.278636">
        <ele>289.098</ele>
        <time>2021-04-06T10:12:55Z</time>
      </trkpt>
      <trkpt lat="43.190276" lon="-2.278607">
        <ele>289.841</ele>
        <time>2021-04-06T10:12:57Z</time>
      </trkpt>
      <trkpt lat="43.190282" lon="-2.278579">
        <ele>289.926</ele>
        <time>2021-04-06T10:12:59Z</time>
      </trkpt>
      <trkpt lat="43.190286" lon="-2.278547">
        <ele>289.736</ele>
        <time>2021-04-06T10:13:01Z</time>
      </trkpt>
      <trkpt lat="43.190294" lon="-2.278519">
        <ele>289.817</ele>
        <time>2021-04-06T10:13:03Z</time>
      </trkpt>
      <trkpt lat="43.190307" lon="-2.278491">
        <ele>290.018</ele>
        <time>2021-04-06T10:13:05Z</time>
      </trkpt>
      <trkpt lat="43.190320" lon="-2.278460">
        <ele>290.108</ele>
        <time>2021-04-06T10:13:08Z</time>
      </trkpt>
      <trkpt lat="43.190332" lon="-2.278440">
        <ele>290.360</ele>
        <time>2021-04-06T10:13:10Z</time>
      </trkpt>
      <trkpt lat="43.190360" lon="-2.278422">
        <ele>291.053</ele>
        <time>2021-04-06T10:13:13Z</time>
      </trkpt>
      <trkpt lat="43.190381" lon="-2.278416">
        <ele>291.684</ele>
        <time>2021-04-06T10:13:15Z</time>
      </trkpt>
      <trkpt lat="43.190400" lon="-2.278411">
        <ele>292.159</ele>
        <time>2021-04-06T10:13:17Z</time>
      </trkpt>
      <trkpt lat="43.190424" lon="-2.278396">
        <ele>292.515</ele>
        <time>2021-04-06T10:13:19Z</time>
      </trkpt>
      <trkpt lat="43.190445" lon="-2.278392">
        <ele>293.132</ele>
        <time>2021-04-06T10:13:21Z</time>
      </trkpt>
      <trkpt lat="43.190466" lon="-2.278396">
        <ele>293.995</ele>
        <time>2021-04-06T10:13:24Z</time>
      </trkpt>
      <trkpt lat="43.190487" lon="-2.278383">
        <ele>294.230</ele>
        <time>2021-04-06T10:13:27Z</time>
      </trkpt>
      <trkpt lat="43.190506" lon="-2.278382">
        <ele>294.724</ele>
        <time>2021-04-06T10:13:30Z</time>
      </trkpt>
      <trkpt lat="43.190526" lon="-2.278373">
        <ele>295.004</ele>
        <time>2021-04-06T10:13:36Z</time>
      </trkpt>
      <trkpt lat="43.190546" lon="-2.278362">
        <ele>295.114</ele>
        <time>2021-04-06T10:13:39Z</time>
      </trkpt>
      <trkpt lat="43.190569" lon="-2.278357">
        <ele>295.608</ele>
        <time>2021-04-06T10:13:42Z</time>
      </trkpt>
      <trkpt lat="43.190589" lon="-2.278346">
        <ele>295.729</ele>
        <time>2021-04-06T10:13:46Z</time>
      </trkpt>
      <trkpt lat="43.190609" lon="-2.278338">
        <ele>296.072</ele>
        <time>2021-04-06T10:13:50Z</time>
      </trkpt>
      <trkpt lat="43.190625" lon="-2.278327">
        <ele>295.993</ele>
        <time>2021-04-06T10:13:53Z</time>
      </trkpt>
      <trkpt lat="43.190645" lon="-2.278317">
        <ele>296.198</ele>
        <time>2021-04-06T10:13:56Z</time>
      </trkpt>
      <trkpt lat="43.190669" lon="-2.278312">
        <ele>296.754</ele>
        <time>2021-04-06T10:13:59Z</time>
      </trkpt>
      <trkpt lat="43.190693" lon="-2.278306">
        <ele>297.261</ele>
        <time>2021-04-06T10:14:02Z</time>
      </trkpt>
      <trkpt lat="43.190710" lon="-2.278298">
        <ele>297.494</ele>
        <time>2021-04-06T10:14:04Z</time>
      </trkpt>
      <trkpt lat="43.190733" lon="-2.278288">
        <ele>297.889</ele>
        <time>2021-04-06T10:14:07Z</time>
      </trkpt>
      <trkpt lat="43.190752" lon="-2.278282">
        <ele>298.298</ele>
        <time>2021-04-06T10:14:09Z</time>
      </trkpt>
      <trkpt lat="43.190777" lon="-2.278268">
        <ele>298.415</ele>
        <time>2021-04-06T10:14:12Z</time>
      </trkpt>
      <trkpt lat="43.190800" lon="-2.278262">
        <ele>299.026</ele>
        <time>2021-04-06T10:14:14Z</time>
      </trkpt>
      <trkpt lat="43.190823" lon="-2.278256">
        <ele>299.608</ele>
        <time>2021-04-06T10:14:16Z</time>
      </trkpt>
      <trkpt lat="43.190848" lon="-2.278249">
        <ele>300.286</ele>
        <time>2021-04-06T10:14:18Z</time>
      </trkpt>
      <trkpt lat="43.190868" lon="-2.278239">
        <ele>300.619</ele>
        <time>2021-04-06T10:14:20Z</time>
      </trkpt>
      <trkpt lat="43.190892" lon="-2.278216">
        <ele>300.730</ele>
        <time>2021-04-06T10:14:22Z</time>
      </trkpt>
      <trkpt lat="43.190919" lon="-2.278198">
        <ele>301.225</ele>
        <time>2021-04-06T10:14:24Z</time>
      </trkpt>
      <trkpt lat="43.190938" lon="-2.278188">
        <ele>301.631</ele>
        <time>2021-04-06T10:14:26Z</time>
      </trkpt>
      <trkpt lat="43.190957" lon="-2.278174">
        <ele>301.938</ele>
        <time>2021-04-06T10:14:28Z</time>
      </trkpt>
      <trkpt lat="43.190978" lon="-2.278166">
        <ele>302.561</ele>
        <time>2021-04-06T10:14:30Z</time>
      </trkpt>
      <trkpt lat="43.190999" lon="-2.278157">
        <ele>303.136</ele>
        <time>2021-04-06T10:14:32Z</time>
      </trkpt>
      <trkpt lat="43.191029" lon="-2.278142">
        <ele>303.931</ele>
        <time>2021-04-06T10:14:34Z</time>
      </trkpt>
      <trkpt lat="43.191052" lon="-2.278129">
        <ele>304.561</ele>
        <time>2021-04-06T10:14:37Z</time>
      </trkpt>
      <trkpt lat="43.191074" lon="-2.278107">
        <ele>304.807</ele>
        <time>2021-04-06T10:14:39Z</time>
      </trkpt>
      <trkpt lat="43.191092" lon="-2.278085">
        <ele>305.008</ele>
        <time>2021-04-06T10:14:41Z</time>
      </trkpt>
      <trkpt lat="43.191112" lon="-2.278070">
        <ele>305.560</ele>
        <time>2021-04-06T10:14:43Z</time>
      </trkpt>
      <trkpt lat="43.191131" lon="-2.278049">
        <ele>306.343</ele>
        <time>2021-04-06T10:14:45Z</time>
      </trkpt>
      <trkpt lat="43.191151" lon="-2.278028">
        <ele>307.584</ele>
        <time>2021-04-06T10:14:47Z</time>
      </trkpt>
      <trkpt lat="43.191164" lon="-2.278003">
        <ele>308.179</ele>
        <time>2021-04-06T10:14:49Z</time>
      </trkpt>
      <trkpt lat="43.191184" lon="-2.277984">
        <ele>309.235</ele>
        <time>2021-04-06T10:14:51Z</time>
      </trkpt>
      <trkpt lat="43.191203" lon="-2.277963">
        <ele>310.252</ele>
        <time>2021-04-06T10:14:53Z</time>
      </trkpt>
      <trkpt lat="43.191217" lon="-2.277938">
        <ele>310.845</ele>
        <time>2021-04-06T10:14:55Z</time>
      </trkpt>
      <trkpt lat="43.191239" lon="-2.277910">
        <ele>311.740</ele>
        <time>2021-04-06T10:14:57Z</time>
      </trkpt>
      <trkpt lat="43.191260" lon="-2.277865">
        <ele>312.318</ele>
        <time>2021-04-06T10:15:00Z</time>
      </trkpt>
      <trkpt lat="43.191270" lon="-2.277824">
        <ele>312.398</ele>
        <time>2021-04-06T10:15:02Z</time>
      </trkpt>
      <trkpt lat="43.191277" lon="-2.277785">
        <ele>312.117</ele>
        <time>2021-04-06T10:15:04Z</time>
      </trkpt>
      <trkpt lat="43.191280" lon="-2.277745">
        <ele>312.308</ele>
        <time>2021-04-06T10:15:06Z</time>
      </trkpt>
      <trkpt lat="43.191276" lon="-2.277705">
        <ele>312.228</ele>
        <time>2021-04-06T10:15:08Z</time>
      </trkpt>
      <trkpt lat="43.191273" lon="-2.277669">
        <ele>312.251</ele>
        <time>2021-04-06T10:15:10Z</time>
      </trkpt>
      <trkpt lat="43.191268" lon="-2.277634">
        <ele>312.142</ele>
        <time>2021-04-06T10:15:12Z</time>
      </trkpt>
      <trkpt lat="43.191260" lon="-2.277596">
        <ele>312.027</ele>
        <time>2021-04-06T10:15:14Z</time>
      </trkpt>
      <trkpt lat="43.191259" lon="-2.277557">
        <ele>312.193</ele>
        <time>2021-04-06T10:15:16Z</time>
      </trkpt>
      <trkpt lat="43.191263" lon="-2.277517">
        <ele>312.510</ele>
        <time>2021-04-06T10:15:19Z</time>
      </trkpt>
      <trkpt lat="43.191268" lon="-2.277475">
        <ele>313.383</ele>
        <time>2021-04-06T10:15:20Z</time>
      </trkpt>
      <trkpt lat="43.191271" lon="-2.277438">
        <ele>314.218</ele>
        <time>2021-04-06T10:15:22Z</time>
      </trkpt>
      <trkpt lat="43.191265" lon="-2.277400">
        <ele>314.878</ele>
        <time>2021-04-06T10:15:24Z</time>
      </trkpt>
      <trkpt lat="43.191255" lon="-2.277370">
        <ele>315.033</ele>
        <time>2021-04-06T10:15:26Z</time>
      </trkpt>
      <trkpt lat="43.191241" lon="-2.277343">
        <ele>315.026</ele>
        <time>2021-04-06T10:15:28Z</time>
      </trkpt>
      <trkpt lat="43.191233" lon="-2.277313">
        <ele>315.308</ele>
        <time>2021-04-06T10:15:30Z</time>
      </trkpt>
      <trkpt lat="43.191228" lon="-2.277284">
        <ele>315.794</ele>
        <time>2021-04-06T10:15:32Z</time>
      </trkpt>
      <trkpt lat="43.191223" lon="-2.277253">
        <ele>316.257</ele>
        <time>2021-04-06T10:15:34Z</time>
      </trkpt>
      <trkpt lat="43.191217" lon="-2.277222">
        <ele>316.628</ele>
        <time>2021-04-06T10:15:36Z</time>
      </trkpt>
      <trkpt lat="43.191213" lon="-2.277190">
        <ele>317.053</ele>
        <time>2021-04-06T10:15:38Z</time>
      </trkpt>
      <trkpt lat="43.191211" lon="-2.277161">
        <ele>317.459</ele>
        <time>2021-04-06T10:15:40Z</time>
      </trkpt>
      <trkpt lat="43.191208" lon="-2.277133">
        <ele>317.866</ele>
        <time>2021-04-06T10:15:42Z</time>
      </trkpt>
      <trkpt lat="43.191210" lon="-2.277106">
        <ele>318.419</ele>
        <time>2021-04-06T10:15:44Z</time>
      </trkpt>
      <trkpt lat="43.191211" lon="-2.277074">
        <ele>319.074</ele>
        <time>2021-04-06T10:15:46Z</time>
      </trkpt>
      <trkpt lat="43.191209" lon="-2.277039">
        <ele>319.585</ele>
        <time>2021-04-06T10:15:48Z</time>
      </trkpt>
      <trkpt lat="43.191206" lon="-2.277007">
        <ele>320.089</ele>
        <time>2021-04-06T10:15:50Z</time>
      </trkpt>
      <trkpt lat="43.191201" lon="-2.276971">
        <ele>320.417</ele>
        <time>2021-04-06T10:15:52Z</time>
      </trkpt>
      <trkpt lat="43.191193" lon="-2.276933">
        <ele>320.808</ele>
        <time>2021-04-06T10:15:54Z</time>
      </trkpt>
      <trkpt lat="43.191190" lon="-2.276905">
        <ele>321.355</ele>
        <time>2021-04-06T10:15:56Z</time>
      </trkpt>
      <trkpt lat="43.191185" lon="-2.276868">
        <ele>321.988</ele>
        <time>2021-04-06T10:15:58Z</time>
      </trkpt>
      <trkpt lat="43.191188" lon="-2.276832">
        <ele>322.939</ele>
        <time>2021-04-06T10:16:00Z</time>
      </trkpt>
      <trkpt lat="43.191186" lon="-2.276804">
        <ele>323.494</ele>
        <time>2021-04-06T10:16:02Z</time>
      </trkpt>
      <trkpt lat="43.191188" lon="-2.276777">
        <ele>324.130</ele>
        <time>2021-04-06T10:16:04Z</time>
      </trkpt>
      <trkpt lat="43.191191" lon="-2.276754">
        <ele>324.857</ele>
        <time>2021-04-06T10:16:06Z</time>
      </trkpt>
      <trkpt lat="43.191189" lon="-2.276724">
        <ele>325.370</ele>
        <time>2021-04-06T10:16:08Z</time>
      </trkpt>
      <trkpt lat="43.191186" lon="-2.276699">
        <ele>325.835</ele>
        <time>2021-04-06T10:16:10Z</time>
      </trkpt>
      <trkpt lat="43.191187" lon="-2.276661">
        <ele>326.637</ele>
        <time>2021-04-06T10:16:13Z</time>
      </trkpt>
      <trkpt lat="43.191190" lon="-2.276632">
        <ele>327.049</ele>
        <time>2021-04-06T10:16:15Z</time>
      </trkpt>
      <trkpt lat="43.191195" lon="-2.276593">
        <ele>327.613</ele>
        <time>2021-04-06T10:16:18Z</time>
      </trkpt>
      <trkpt lat="43.191198" lon="-2.276567">
        <ele>328.008</ele>
        <time>2021-04-06T10:16:20Z</time>
      </trkpt>
      <trkpt lat="43.191202" lon="-2.276538">
        <ele>328.570</ele>
        <time>2021-04-06T10:16:22Z</time>
      </trkpt>
      <trkpt lat="43.191208" lon="-2.276511">
        <ele>329.023</ele>
        <time>2021-04-06T10:16:24Z</time>
      </trkpt>
      <trkpt lat="43.191214" lon="-2.276482">
        <ele>329.664</ele>
        <time>2021-04-06T10:16:26Z</time>
      </trkpt>
      <trkpt lat="43.191226" lon="-2.276445">
        <ele>330.679</ele>
        <time>2021-04-06T10:16:29Z</time>
      </trkpt>
      <trkpt lat="43.191233" lon="-2.276416">
        <ele>331.375</ele>
        <time>2021-04-06T10:16:31Z</time>
      </trkpt>
      <trkpt lat="43.191242" lon="-2.276385">
        <ele>332.032</ele>
        <time>2021-04-06T10:16:34Z</time>
      </trkpt>
      <trkpt lat="43.191245" lon="-2.276355">
        <ele>332.075</ele>
        <time>2021-04-06T10:16:37Z</time>
      </trkpt>
      <trkpt lat="43.191251" lon="-2.276330">
        <ele>332.220</ele>
        <time>2021-04-06T10:16:40Z</time>
      </trkpt>
      <trkpt lat="43.191266" lon="-2.276312">
        <ele>333.042</ele>
        <time>2021-04-06T10:16:43Z</time>
      </trkpt>
      <trkpt lat="43.191285" lon="-2.276338">
        <ele>334.222</ele>
        <time>2021-04-06T10:16:46Z</time>
      </trkpt>
      <trkpt lat="43.191293" lon="-2.276369">
        <ele>334.714</ele>
        <time>2021-04-06T10:16:48Z</time>
      </trkpt>
      <trkpt lat="43.191298" lon="-2.276405">
        <ele>334.908</ele>
        <time>2021-04-06T10:16:50Z</time>
      </trkpt>
      <trkpt lat="43.191309" lon="-2.276435">
        <ele>335.171</ele>
        <time>2021-04-06T10:16:52Z</time>
      </trkpt>
      <trkpt lat="43.191316" lon="-2.276473">
        <ele>335.014</ele>
        <time>2021-04-06T10:16:54Z</time>
      </trkpt>
      <trkpt lat="43.191325" lon="-2.276501">
        <ele>335.155</ele>
        <time>2021-04-06T10:16:56Z</time>
      </trkpt>
      <trkpt lat="43.191342" lon="-2.276523">
        <ele>335.770</ele>
        <time>2021-04-06T10:16:59Z</time>
      </trkpt>
      <trkpt lat="43.191351" lon="-2.276534">
        <ele>336.026</ele>
        <time>2021-04-06T10:17:01Z</time>
      </trkpt>
      <trkpt lat="43.191366" lon="-2.276549">
        <ele>336.623</ele>
        <time>2021-04-06T10:17:05Z</time>
      </trkpt>
      <trkpt lat="43.191375" lon="-2.276581">
        <ele>336.626</ele>
        <time>2021-04-06T10:17:08Z</time>
      </trkpt>
      <trkpt lat="43.191395" lon="-2.276597">
        <ele>337.331</ele>
        <time>2021-04-06T10:17:10Z</time>
      </trkpt>
      <trkpt lat="43.191414" lon="-2.276601">
        <ele>338.132</ele>
        <time>2021-04-06T10:17:12Z</time>
      </trkpt>
      <trkpt lat="43.191430" lon="-2.276596">
        <ele>338.992</ele>
        <time>2021-04-06T10:17:15Z</time>
      </trkpt>
      <trkpt lat="43.191432" lon="-2.276566">
        <ele>339.511</ele>
        <time>2021-04-06T10:17:18Z</time>
      </trkpt>
      <trkpt lat="43.191435" lon="-2.276535">
        <ele>340.108</ele>
        <time>2021-04-06T10:17:22Z</time>
      </trkpt>
      <trkpt lat="43.191437" lon="-2.276503">
        <ele>340.720</ele>
        <time>2021-04-06T10:17:25Z</time>
      </trkpt>
      <trkpt lat="43.191437" lon="-2.276475">
        <ele>341.293</ele>
        <time>2021-04-06T10:17:29Z</time>
      </trkpt>
      <trkpt lat="43.191428" lon="-2.276461">
        <ele>341.064</ele>
        <time>2021-04-06T10:17:35Z</time>
      </trkpt>
      <trkpt lat="43.191448" lon="-2.276447">
        <ele>342.229</ele>
        <time>2021-04-06T10:17:48Z</time>
      </trkpt>
      <trkpt lat="43.191468" lon="-2.276457">
        <ele>343.195</ele>
        <time>2021-04-06T10:17:50Z</time>
      </trkpt>
      <trkpt lat="43.191484" lon="-2.276485">
        <ele>343.492</ele>
        <time>2021-04-06T10:17:53Z</time>
      </trkpt>
      <trkpt lat="43.191494" lon="-2.276506">
        <ele>343.585</ele>
        <time>2021-04-06T10:17:55Z</time>
      </trkpt>
      <trkpt lat="43.191505" lon="-2.276526">
        <ele>343.730</ele>
        <time>2021-04-06T10:17:57Z</time>
      </trkpt>
      <trkpt lat="43.191520" lon="-2.276545">
        <ele>344.075</ele>
        <time>2021-04-06T10:18:02Z</time>
      </trkpt>
      <trkpt lat="43.191540" lon="-2.276540">
        <ele>345.128</ele>
        <time>2021-04-06T10:18:06Z</time>
      </trkpt>
      <trkpt lat="43.191562" lon="-2.276552">
        <ele>345.920</ele>
        <time>2021-04-06T10:18:10Z</time>
      </trkpt>
      <trkpt lat="43.191581" lon="-2.276561">
        <ele>346.608</ele>
        <time>2021-04-06T10:18:12Z</time>
      </trkpt>
      <trkpt lat="43.191601" lon="-2.276579">
        <ele>347.114</ele>
        <time>2021-04-06T10:18:15Z</time>
      </trkpt>
      <trkpt lat="43.191616" lon="-2.276589">
        <ele>347.637</ele>
        <time>2021-04-06T10:18:17Z</time>
      </trkpt>
      <trkpt lat="43.191635" lon="-2.276598">
        <ele>348.368</ele>
        <time>2021-04-06T10:18:22Z</time>
      </trkpt>
      <trkpt lat="43.191652" lon="-2.276610">
        <ele>348.823</ele>
        <time>2021-04-06T10:18:25Z</time>
      </trkpt>
      <trkpt lat="43.191670" lon="-2.276635">
        <ele>349.019</ele>
        <time>2021-04-06T10:18:28Z</time>
      </trkpt>
      <trkpt lat="43.191687" lon="-2.276643">
        <ele>349.736</ele>
        <time>2021-04-06T10:18:30Z</time>
      </trkpt>
      <trkpt lat="43.191711" lon="-2.276638">
        <ele>351.149</ele>
        <time>2021-04-06T10:18:33Z</time>
      </trkpt>
      <trkpt lat="43.191730" lon="-2.276639">
        <ele>352.214</ele>
        <time>2021-04-06T10:18:36Z</time>
      </trkpt>
      <trkpt lat="43.191748" lon="-2.276642">
        <ele>353.171</ele>
        <time>2021-04-06T10:18:38Z</time>
      </trkpt>
      <trkpt lat="43.191765" lon="-2.276650">
        <ele>353.841</ele>
        <time>2021-04-06T10:18:41Z</time>
      </trkpt>
      <trkpt lat="43.191785" lon="-2.276659">
        <ele>354.615</ele>
        <time>2021-04-06T10:18:43Z</time>
      </trkpt>
      <trkpt lat="43.191807" lon="-2.276664">
        <ele>355.708</ele>
        <time>2021-04-06T10:18:47Z</time>
      </trkpt>
      <trkpt lat="43.191827" lon="-2.276669">
        <ele>356.624</ele>
        <time>2021-04-06T10:18:50Z</time>
      </trkpt>
      <trkpt lat="43.191844" lon="-2.276662">
        <ele>357.747</ele>
        <time>2021-04-06T10:18:53Z</time>
      </trkpt>
      <trkpt lat="43.191861" lon="-2.276656">
        <ele>358.888</ele>
        <time>2021-04-06T10:18:56Z</time>
      </trkpt>
      <trkpt lat="43.191881" lon="-2.276654">
        <ele>360.083</ele>
        <time>2021-04-06T10:18:59Z</time>
      </trkpt>
      <trkpt lat="43.191897" lon="-2.276642">
        <ele>361.239</ele>
        <time>2021-04-06T10:19:02Z</time>
      </trkpt>
      <trkpt lat="43.191914" lon="-2.276649">
        <ele>361.966</ele>
        <time>2021-04-06T10:19:07Z</time>
      </trkpt>
      <trkpt lat="43.191925" lon="-2.276644">
        <ele>362.759</ele>
        <time>2021-04-06T10:19:14Z</time>
      </trkpt>
      <trkpt lat="43.191948" lon="-2.276647">
        <ele>363.914</ele>
        <time>2021-04-06T10:19:17Z</time>
      </trkpt>
      <trkpt lat="43.191971" lon="-2.276650">
        <ele>365.771</ele>
        <time>2021-04-06T10:19:20Z</time>
      </trkpt>
      <trkpt lat="43.191982" lon="-2.276657">
        <ele>366.441</ele>
        <time>2021-04-06T10:19:23Z</time>
      </trkpt>
      <trkpt lat="43.191999" lon="-2.276641">
        <ele>368.315</ele>
        <time>2021-04-06T10:19:26Z</time>
      </trkpt>
      <trkpt lat="43.192006" lon="-2.276632">
        <ele>369.208</ele>
        <time>2021-04-06T10:19:29Z</time>
      </trkpt>
      <trkpt lat="43.192022" lon="-2.276622">
        <ele>370.894</ele>
        <time>2021-04-06T10:19:35Z</time>
      </trkpt>
      <trkpt lat="43.192035" lon="-2.276605">
        <ele>372.417</ele>
        <time>2021-04-06T10:19:40Z</time>
      </trkpt>
      <trkpt lat="43.192051" lon="-2.276617">
        <ele>373.378</ele>
        <time>2021-04-06T10:19:43Z</time>
      </trkpt>
      <trkpt lat="43.192062" lon="-2.276641">
        <ele>373.533</ele>
        <time>2021-04-06T10:19:45Z</time>
      </trkpt>
      <trkpt lat="43.192076" lon="-2.276657">
        <ele>374.239</ele>
        <time>2021-04-06T10:19:47Z</time>
      </trkpt>
      <trkpt lat="43.192091" lon="-2.276646">
        <ele>375.796</ele>
        <time>2021-04-06T10:19:52Z</time>
      </trkpt>
      <trkpt lat="43.192101" lon="-2.276639">
        <ele>376.789</ele>
        <time>2021-04-06T10:19:56Z</time>
      </trkpt>
      <trkpt lat="43.192113" lon="-2.276636">
        <ele>377.864</ele>
        <time>2021-04-06T10:19:59Z</time>
      </trkpt>
      <trkpt lat="43.192120" lon="-2.276610">
        <ele>379.194</ele>
        <time>2021-04-06T10:20:04Z</time>
      </trkpt>
      <trkpt lat="43.192131" lon="-2.276589">
        <ele>380.657</ele>
        <time>2021-04-06T10:20:10Z</time>
      </trkpt>
      <trkpt lat="43.192141" lon="-2.276596">
        <ele>381.222</ele>
        <time>2021-04-06T10:20:17Z</time>
      </trkpt>
      <trkpt lat="43.192150" lon="-2.276586">
        <ele>382.208</ele>
        <time>2021-04-06T10:20:21Z</time>
      </trkpt>
      <trkpt lat="43.192163" lon="-2.276571">
        <ele>383.756</ele>
        <time>2021-04-06T10:20:27Z</time>
      </trkpt>
      <trkpt lat="43.192173" lon="-2.276557">
        <ele>384.819</ele>
        <time>2021-04-06T10:20:30Z</time>
      </trkpt>
      <trkpt lat="43.192188" lon="-2.276546">
        <ele>386.370</ele>
        <time>2021-04-06T10:20:34Z</time>
      </trkpt>
      <trkpt lat="43.192202" lon="-2.276532">
        <ele>387.815</ele>
        <time>2021-04-06T10:20:42Z</time>
      </trkpt>
      <trkpt lat="43.192206" lon="-2.276509">
        <ele>388.751</ele>
        <time>2021-04-06T10:20:46Z</time>
      </trkpt>
      <trkpt lat="43.192216" lon="-2.276489">
        <ele>390.098</ele>
        <time>2021-04-06T10:20:51Z</time>
      </trkpt>
      <trkpt lat="43.192221" lon="-2.276465">
        <ele>391.091</ele>
        <time>2021-04-06T10:20:55Z</time>
      </trkpt>
      <trkpt lat="43.192229" lon="-2.276445">
        <ele>392.276</ele>
        <time>2021-04-06T10:21:01Z</time>
      </trkpt>
      <trkpt lat="43.192231" lon="-2.276428">
        <ele>392.856</ele>
        <time>2021-04-06T10:21:05Z</time>
      </trkpt>
      <trkpt lat="43.192240" lon="-2.276405">
        <ele>394.159</ele>
        <time>2021-04-06T10:21:13Z</time>
      </trkpt>
      <trkpt lat="43.192253" lon="-2.276387">
        <ele>395.714</ele>
        <time>2021-04-06T10:21:17Z</time>
      </trkpt>
      <trkpt lat="43.192264" lon="-2.276375">
        <ele>396.908</ele>
        <time>2021-04-06T10:21:21Z</time>
      </trkpt>
      <trkpt lat="43.192272" lon="-2.276355">
        <ele>398.012</ele>
        <time>2021-04-06T10:21:25Z</time>
      </trkpt>
      <trkpt lat="43.192286" lon="-2.276342">
        <ele>399.465</ele>
        <time>2021-04-06T10:21:29Z</time>
      </trkpt>
      <trkpt lat="43.192296" lon="-2.276326">
        <ele>400.616</ele>
        <time>2021-04-06T10:21:34Z</time>
      </trkpt>
      <trkpt lat="43.192311" lon="-2.276324">
        <ele>401.891</ele>
        <time>2021-04-06T10:21:39Z</time>
      </trkpt>
      <trkpt lat="43.192326" lon="-2.276315">
        <ele>403.397</ele>
        <time>2021-04-06T10:21:44Z</time>
      </trkpt>
      <trkpt lat="43.192334" lon="-2.276305">
        <ele>404.184</ele>
        <time>2021-04-06T10:21:49Z</time>
      </trkpt>
      <trkpt lat="43.192351" lon="-2.276301">
        <ele>405.637</ele>
        <time>2021-04-06T10:21:52Z</time>
      </trkpt>
      <trkpt lat="43.192369" lon="-2.276305">
        <ele>407.032</ele>
        <time>2021-04-06T10:21:57Z</time>
      </trkpt>
      <trkpt lat="43.192385" lon="-2.276294">
        <ele>408.555</ele>
        <time>2021-04-06T10:22:01Z</time>
      </trkpt>
      <trkpt lat="43.192395" lon="-2.276285">
        <ele>409.507</ele>
        <time>2021-04-06T10:22:05Z</time>
      </trkpt>
      <trkpt lat="43.192415" lon="-2.276274">
        <ele>411.317</ele>
        <time>2021-04-06T10:22:11Z</time>
      </trkpt>
      <trkpt lat="43.192433" lon="-2.276264">
        <ele>412.908</ele>
        <time>2021-04-06T10:22:16Z</time>
      </trkpt>
      <trkpt lat="43.192445" lon="-2.276260">
        <ele>413.992</ele>
        <time>2021-04-06T10:22:19Z</time>
      </trkpt>
      <trkpt lat="43.192458" lon="-2.276241">
        <ele>415.215</ele>
        <time>2021-04-06T10:22:23Z</time>
      </trkpt>
      <trkpt lat="43.192476" lon="-2.276242">
        <ele>416.686</ele>
        <time>2021-04-06T10:22:30Z</time>
      </trkpt>
      <trkpt lat="43.192485" lon="-2.276252">
        <ele>417.351</ele>
        <time>2021-04-06T10:22:33Z</time>
      </trkpt>
      <trkpt lat="43.192501" lon="-2.276245">
        <ele>418.627</ele>
        <time>2021-04-06T10:22:36Z</time>
      </trkpt>
      <trkpt lat="43.192508" lon="-2.276218">
        <ele>419.434</ele>
        <time>2021-04-06T10:22:41Z</time>
      </trkpt>
      <trkpt lat="43.192519" lon="-2.276209">
        <ele>420.497</ele>
        <time>2021-04-06T10:22:46Z</time>
      </trkpt>
      <trkpt lat="43.192532" lon="-2.276214">
        <ele>421.332</ele>
        <time>2021-04-06T10:22:50Z</time>
      </trkpt>
      <trkpt lat="43.192552" lon="-2.276223">
        <ele>422.674</ele>
        <time>2021-04-06T10:22:55Z</time>
      </trkpt>
      <trkpt lat="43.192570" lon="-2.276218">
        <ele>424.056</ele>
        <time>2021-04-06T10:23:00Z</time>
      </trkpt>
      <trkpt lat="43.192587" lon="-2.276207">
        <ele>425.421</ele>
        <time>2021-04-06T10:23:05Z</time>
      </trkpt>
      <trkpt lat="43.192601" lon="-2.276196">
        <ele>426.608</ele>
        <time>2021-04-06T10:23:11Z</time>
      </trkpt>
      <trkpt lat="43.192615" lon="-2.276180">
        <ele>427.894</ele>
        <time>2021-04-06T10:23:17Z</time>
      </trkpt>
      <trkpt lat="43.192635" lon="-2.276186">
        <ele>429.387</ele>
        <time>2021-04-06T10:23:22Z</time>
      </trkpt>
      <trkpt lat="43.192650" lon="-2.276182">
        <ele>430.448</ele>
        <time>2021-04-06T10:23:26Z</time>
      </trkpt>
      <trkpt lat="43.192666" lon="-2.276163">
        <ele>431.963</ele>
        <time>2021-04-06T10:23:31Z</time>
      </trkpt>
      <trkpt lat="43.192679" lon="-2.276145">
        <ele>433.169</ele>
        <time>2021-04-06T10:23:35Z</time>
      </trkpt>
      <trkpt lat="43.192693" lon="-2.276138">
        <ele>434.246</ele>
        <time>2021-04-06T10:23:40Z</time>
      </trkpt>
      <trkpt lat="43.192712" lon="-2.276138">
        <ele>435.719</ele>
        <time>2021-04-06T10:23:46Z</time>
      </trkpt>
      <trkpt lat="43.192728" lon="-2.276129">
        <ele>437.034</ele>
        <time>2021-04-06T10:23:50Z</time>
      </trkpt>
      <trkpt lat="43.192742" lon="-2.276115">
        <ele>438.228</ele>
        <time>2021-04-06T10:23:54Z</time>
      </trkpt>
      <trkpt lat="43.192759" lon="-2.276115">
        <ele>439.589</ele>
        <time>2021-04-06T10:23:58Z</time>
      </trkpt>
      <trkpt lat="43.192779" lon="-2.276113">
        <ele>441.117</ele>
        <time>2021-04-06T10:24:05Z</time>
      </trkpt>
      <trkpt lat="43.192793" lon="-2.276114">
        <ele>442.208</ele>
        <time>2021-04-06T10:24:09Z</time>
      </trkpt>
      <trkpt lat="43.192808" lon="-2.276113">
        <ele>443.419</ele>
        <time>2021-04-06T10:24:13Z</time>
      </trkpt>
      <trkpt lat="43.192827" lon="-2.276091">
        <ele>445.012</ele>
        <time>2021-04-06T10:24:24Z</time>
      </trkpt>
      <trkpt lat="43.192842" lon="-2.276093">
        <ele>446.123</ele>
        <time>2021-04-06T10:24:28Z</time>
      </trkpt>
      <trkpt lat="43.192859" lon="-2.276085">
        <ele>447.518</ele>
        <time>2021-04-06T10:24:32Z</time>
      </trkpt>
      <trkpt lat="43.192868" lon="-2.276076">
        <ele>448.264</ele>
        <time>2021-04-06T10:24:35Z</time>
      </trkpt>
      <trkpt lat="43.192887" lon="-2.276076">
        <ele>449.741</ele>
        <time>2021-04-06T10:24:40Z</time>
      </trkpt>
      <trkpt lat="43.192904" lon="-2.276081">
        <ele>451.114</ele>
        <time>2021-04-06T10:24:46Z</time>
      </trkpt>
      <trkpt lat="43.192913" lon="-2.276097">
        <ele>451.769</ele>
        <time>2021-04-06T10:24:49Z</time>
      </trkpt>
      <trkpt lat="43.192924" lon="-2.276115">
        <ele>452.574</ele>
        <time>2021-04-06T10:25:04Z</time>
      </trkpt>
      <trkpt lat="43.192936" lon="-2.276140">
        <ele>453.156</ele>
        <time>2021-04-06T10:26:10Z</time>
      </trkpt>
      <trkpt lat="43.192952" lon="-2.276152">
        <ele>454.221</ele>
        <time>2021-04-06T10:26:14Z</time>
      </trkpt>
      <trkpt lat="43.192957" lon="-2.276167">
        <ele>454.408</ele>
        <time>2021-04-06T10:26:20Z</time>
      </trkpt>
      <trkpt lat="43.192971" lon="-2.276184">
        <ele>455.394</ele>
        <time>2021-04-06T10:26:23Z</time>
      </trkpt>
      <trkpt lat="43.192990" lon="-2.276181">
        <ele>456.897</ele>
        <time>2021-04-06T10:26:26Z</time>
      </trkpt>
      <trkpt lat="43.193002" lon="-2.276188">
        <ele>457.768</ele>
        <time>2021-04-06T10:26:29Z</time>
      </trkpt>
      <trkpt lat="43.193017" lon="-2.276174">
        <ele>459.013</ele>
        <time>2021-04-06T10:26:32Z</time>
      </trkpt>
      <trkpt lat="43.193028" lon="-2.276175">
        <ele>459.999</ele>
        <time>2021-04-06T10:26:35Z</time>
      </trkpt>
      <trkpt lat="43.193048" lon="-2.276178">
        <ele>461.436</ele>
        <time>2021-04-06T10:26:39Z</time>
      </trkpt>
      <trkpt lat="43.193067" lon="-2.276168">
        <ele>463.179</ele>
        <time>2021-04-06T10:26:42Z</time>
      </trkpt>
      <trkpt lat="43.193081" lon="-2.276172">
        <ele>464.164</ele>
        <time>2021-04-06T10:26:47Z</time>
      </trkpt>
      <trkpt lat="43.193101" lon="-2.276174">
        <ele>465.638</ele>
        <time>2021-04-06T10:26:51Z</time>
      </trkpt>
      <trkpt lat="43.193117" lon="-2.276178">
        <ele>466.870</ele>
        <time>2021-04-06T10:26:57Z</time>
      </trkpt>
      <trkpt lat="43.193138" lon="-2.276181">
        <ele>468.417</ele>
        <time>2021-04-06T10:27:03Z</time>
      </trkpt>
      <trkpt lat="43.193151" lon="-2.276179">
        <ele>469.408</ele>
        <time>2021-04-06T10:27:06Z</time>
      </trkpt>
      <trkpt lat="43.193164" lon="-2.276182">
        <ele>470.450</ele>
        <time>2021-04-06T10:27:10Z</time>
      </trkpt>
      <trkpt lat="43.193181" lon="-2.276189">
        <ele>471.653</ele>
        <time>2021-04-06T10:27:14Z</time>
      </trkpt>
      <trkpt lat="43.193197" lon="-2.276184">
        <ele>472.944</ele>
        <time>2021-04-06T10:27:19Z</time>
      </trkpt>
      <trkpt lat="43.193217" lon="-2.276181">
        <ele>474.579</ele>
        <time>2021-04-06T10:27:26Z</time>
      </trkpt>
      <trkpt lat="43.193231" lon="-2.276179">
        <ele>475.685</ele>
        <time>2021-04-06T10:27:31Z</time>
      </trkpt>
      <trkpt lat="43.193246" lon="-2.276170">
        <ele>476.862</ele>
        <time>2021-04-06T10:27:35Z</time>
      </trkpt>
      <trkpt lat="43.193268" lon="-2.276174">
        <ele>478.525</ele>
        <time>2021-04-06T10:27:41Z</time>
      </trkpt>
      <trkpt lat="43.193283" lon="-2.276175">
        <ele>479.750</ele>
        <time>2021-04-06T10:27:44Z</time>
      </trkpt>
      <trkpt lat="43.193300" lon="-2.276193">
        <ele>480.893</ele>
        <time>2021-04-06T10:27:49Z</time>
      </trkpt>
      <trkpt lat="43.193319" lon="-2.276195">
        <ele>482.365</ele>
        <time>2021-04-06T10:27:54Z</time>
      </trkpt>
      <trkpt lat="43.193338" lon="-2.276198">
        <ele>483.721</ele>
        <time>2021-04-06T10:27:59Z</time>
      </trkpt>
      <trkpt lat="43.193356" lon="-2.276201">
        <ele>485.008</ele>
        <time>2021-04-06T10:28:03Z</time>
      </trkpt>
      <trkpt lat="43.193377" lon="-2.276197">
        <ele>486.596</ele>
        <time>2021-04-06T10:28:08Z</time>
      </trkpt>
      <trkpt lat="43.193388" lon="-2.276190">
        <ele>487.469</ele>
        <time>2021-04-06T10:28:11Z</time>
      </trkpt>
      <trkpt lat="43.193402" lon="-2.276176">
        <ele>488.540</ele>
        <time>2021-04-06T10:28:16Z</time>
      </trkpt>
      <trkpt lat="43.193413" lon="-2.276174">
        <ele>489.365</ele>
        <time>2021-04-06T10:28:20Z</time>
      </trkpt>
      <trkpt lat="43.193431" lon="-2.276170">
        <ele>490.651</ele>
        <time>2021-04-06T10:28:27Z</time>
      </trkpt>
      <trkpt lat="43.193440" lon="-2.276161">
        <ele>491.398</ele>
        <time>2021-04-06T10:28:30Z</time>
      </trkpt>
      <trkpt lat="43.193457" lon="-2.276149">
        <ele>492.611</ele>
        <time>2021-04-06T10:28:34Z</time>
      </trkpt>
      <trkpt lat="43.193475" lon="-2.276151">
        <ele>493.956</ele>
        <time>2021-04-06T10:28:39Z</time>
      </trkpt>
      <trkpt lat="43.193491" lon="-2.276167">
        <ele>494.953</ele>
        <time>2021-04-06T10:28:43Z</time>
      </trkpt>
      <trkpt lat="43.193509" lon="-2.276162">
        <ele>496.304</ele>
        <time>2021-04-06T10:28:47Z</time>
      </trkpt>
      <trkpt lat="43.193526" lon="-2.276167">
        <ele>497.514</ele>
        <time>2021-04-06T10:28:51Z</time>
      </trkpt>
      <trkpt lat="43.193538" lon="-2.276173">
        <ele>498.308</ele>
        <time>2021-04-06T10:28:53Z</time>
      </trkpt>
      <trkpt lat="43.193551" lon="-2.276190">
        <ele>499.142</ele>
        <time>2021-04-06T10:28:59Z</time>
      </trkpt>
      <trkpt lat="43.193568" lon="-2.276205">
        <ele>500.245</ele>
        <time>2021-04-06T10:29:03Z</time>
      </trkpt>
      <trkpt lat="43.193586" lon="-2.276210">
        <ele>501.526</ele>
        <time>2021-04-06T10:29:09Z</time>
      </trkpt>
      <trkpt lat="43.193603" lon="-2.276226">
        <ele>502.681</ele>
        <time>2021-04-06T10:29:15Z</time>
      </trkpt>
      <trkpt lat="43.193613" lon="-2.276204">
        <ele>503.597</ele>
        <time>2021-04-06T10:29:22Z</time>
      </trkpt>
      <trkpt lat="43.193630" lon="-2.276194">
        <ele>504.824</ele>
        <time>2021-04-06T10:29:27Z</time>
      </trkpt>
      <trkpt lat="43.193647" lon="-2.276177">
        <ele>506.177</ele>
        <time>2021-04-06T10:29:32Z</time>
      </trkpt>
      <trkpt lat="43.193658" lon="-2.276174">
        <ele>506.942</ele>
        <time>2021-04-06T10:29:34Z</time>
      </trkpt>
      <trkpt lat="43.193677" lon="-2.276160">
        <ele>508.481</ele>
        <time>2021-04-06T10:29:38Z</time>
      </trkpt>
      <trkpt lat="43.193689" lon="-2.276159">
        <ele>509.361</ele>
        <time>2021-04-06T10:29:42Z</time>
      </trkpt>
      <trkpt lat="43.193700" lon="-2.276155">
        <ele>510.117</ele>
        <time>2021-04-06T10:29:45Z</time>
      </trkpt>
      <trkpt lat="43.193718" lon="-2.276151">
        <ele>511.408</ele>
        <time>2021-04-06T10:29:48Z</time>
      </trkpt>
      <trkpt lat="43.193736" lon="-2.276155">
        <ele>512.715</ele>
        <time>2021-04-06T10:29:52Z</time>
      </trkpt>
      <trkpt lat="43.193753" lon="-2.276143">
        <ele>514.068</ele>
        <time>2021-04-06T10:29:56Z</time>
      </trkpt>
      <trkpt lat="43.193768" lon="-2.276141">
        <ele>515.119</ele>
        <time>2021-04-06T10:30:00Z</time>
      </trkpt>
      <trkpt lat="43.193780" lon="-2.276124">
        <ele>516.174</ele>
        <time>2021-04-06T10:30:04Z</time>
      </trkpt>
      <trkpt lat="43.193796" lon="-2.276108">
        <ele>517.350</ele>
        <time>2021-04-06T10:30:08Z</time>
      </trkpt>
      <trkpt lat="43.193813" lon="-2.276120">
        <ele>518.537</ele>
        <time>2021-04-06T10:30:21Z</time>
      </trkpt>
      <trkpt lat="43.193833" lon="-2.276118">
        <ele>519.930</ele>
        <time>2021-04-06T10:30:24Z</time>
      </trkpt>
      <trkpt lat="43.193844" lon="-2.276113">
        <ele>520.875</ele>
        <time>2021-04-06T10:30:27Z</time>
      </trkpt>
      <trkpt lat="43.193864" lon="-2.276114">
        <ele>522.221</ele>
        <time>2021-04-06T10:30:30Z</time>
      </trkpt>
      <trkpt lat="43.193880" lon="-2.276102">
        <ele>523.341</ele>
        <time>2021-04-06T10:30:36Z</time>
      </trkpt>
      <trkpt lat="43.193898" lon="-2.276104">
        <ele>524.605</ele>
        <time>2021-04-06T10:30:40Z</time>
      </trkpt>
      <trkpt lat="43.193916" lon="-2.276106">
        <ele>525.908</ele>
        <time>2021-04-06T10:30:45Z</time>
      </trkpt>
      <trkpt lat="43.193929" lon="-2.276104">
        <ele>526.949</ele>
        <time>2021-04-06T10:30:48Z</time>
      </trkpt>
      <trkpt lat="43.193944" lon="-2.276119">
        <ele>527.942</ele>
        <time>2021-04-06T10:30:52Z</time>
      </trkpt>
      <trkpt lat="43.193966" lon="-2.276118">
        <ele>529.543</ele>
        <time>2021-04-06T10:30:57Z</time>
      </trkpt>
      <trkpt lat="43.193975" lon="-2.276115">
        <ele>530.298</ele>
        <time>2021-04-06T10:30:59Z</time>
      </trkpt>
      <trkpt lat="43.193993" lon="-2.276109">
        <ele>531.544</ele>
        <time>2021-04-06T10:31:04Z</time>
      </trkpt>
      <trkpt lat="43.194011" lon="-2.276100">
        <ele>532.711</ele>
        <time>2021-04-06T10:31:09Z</time>
      </trkpt>
      <trkpt lat="43.194026" lon="-2.276105">
        <ele>533.814</ele>
        <time>2021-04-06T10:31:14Z</time>
      </trkpt>
      <trkpt lat="43.194042" lon="-2.276105">
        <ele>535.039</ele>
        <time>2021-04-06T10:31:19Z</time>
      </trkpt>
      <trkpt lat="43.194060" lon="-2.276091">
        <ele>536.214</ele>
        <time>2021-04-06T10:31:23Z</time>
      </trkpt>
      <trkpt lat="43.194077" lon="-2.276089">
        <ele>537.454</ele>
        <time>2021-04-06T10:31:27Z</time>
      </trkpt>
      <trkpt lat="43.194098" lon="-2.276088">
        <ele>538.909</ele>
        <time>2021-04-06T10:31:32Z</time>
      </trkpt>
      <trkpt lat="43.194112" lon="-2.276090">
        <ele>539.908</ele>
        <time>2021-04-06T10:31:36Z</time>
      </trkpt>
      <trkpt lat="43.194130" lon="-2.276091">
        <ele>541.248</ele>
        <time>2021-04-06T10:31:40Z</time>
      </trkpt>
      <trkpt lat="43.194146" lon="-2.276086">
        <ele>542.351</ele>
        <time>2021-04-06T10:31:44Z</time>
      </trkpt>
      <trkpt lat="43.194166" lon="-2.276078">
        <ele>543.792</ele>
        <time>2021-04-06T10:31:50Z</time>
      </trkpt>
      <trkpt lat="43.194174" lon="-2.276085">
        <ele>544.317</ele>
        <time>2021-04-06T10:31:54Z</time>
      </trkpt>
      <trkpt lat="43.194189" lon="-2.276097">
        <ele>545.413</ele>
        <time>2021-04-06T10:31:57Z</time>
      </trkpt>
      <trkpt lat="43.194208" lon="-2.276102">
        <ele>546.880</ele>
        <time>2021-04-06T10:32:02Z</time>
      </trkpt>
      <trkpt lat="43.194224" lon="-2.276110">
        <ele>547.953</ele>
        <time>2021-04-06T10:32:07Z</time>
      </trkpt>
      <trkpt lat="43.194235" lon="-2.276119">
        <ele>548.688</ele>
        <time>2021-04-06T10:32:11Z</time>
      </trkpt>
      <trkpt lat="43.194254" lon="-2.276126">
        <ele>549.926</ele>
        <time>2021-04-06T10:32:15Z</time>
      </trkpt>
      <trkpt lat="43.194268" lon="-2.276140">
        <ele>550.847</ele>
        <time>2021-04-06T10:32:20Z</time>
      </trkpt>
      <trkpt lat="43.194279" lon="-2.276162">
        <ele>551.411</ele>
        <time>2021-04-06T10:32:25Z</time>
      </trkpt>
      <trkpt lat="43.194290" lon="-2.276179">
        <ele>552.108</ele>
        <time>2021-04-06T10:32:28Z</time>
      </trkpt>
      <trkpt lat="43.194312" lon="-2.276187">
        <ele>553.589</ele>
        <time>2021-04-06T10:32:33Z</time>
      </trkpt>
      <trkpt lat="43.194327" lon="-2.276197">
        <ele>554.512</ele>
        <time>2021-04-06T10:32:37Z</time>
      </trkpt>
      <trkpt lat="43.194346" lon="-2.276200">
        <ele>555.813</ele>
        <time>2021-04-06T10:32:40Z</time>
      </trkpt>
      <trkpt lat="43.194364" lon="-2.276193">
        <ele>557.148</ele>
        <time>2021-04-06T10:32:43Z</time>
      </trkpt>
      <trkpt lat="43.194380" lon="-2.276184">
        <ele>558.374</ele>
        <time>2021-04-06T10:32:47Z</time>
      </trkpt>
      <trkpt lat="43.194400" lon="-2.276191">
        <ele>559.631</ele>
        <time>2021-04-06T10:32:52Z</time>
      </trkpt>
      <trkpt lat="43.194416" lon="-2.276196">
        <ele>560.794</ele>
        <time>2021-04-06T10:32:57Z</time>
      </trkpt>
      <trkpt lat="43.194425" lon="-2.276198">
        <ele>561.359</ele>
        <time>2021-04-06T10:33:01Z</time>
      </trkpt>
      <trkpt lat="43.194443" lon="-2.276193">
        <ele>562.686</ele>
        <time>2021-04-06T10:33:06Z</time>
      </trkpt>
      <trkpt lat="43.194456" lon="-2.276202">
        <ele>563.560</ele>
        <time>2021-04-06T10:33:11Z</time>
      </trkpt>
      <trkpt lat="43.194473" lon="-2.276215">
        <ele>564.626</ele>
        <time>2021-04-06T10:33:15Z</time>
      </trkpt>
      <trkpt lat="43.194497" lon="-2.276217">
        <ele>566.308</ele>
        <time>2021-04-06T10:33:22Z</time>
      </trkpt>
      <trkpt lat="43.194509" lon="-2.276218">
        <ele>567.145</ele>
        <time>2021-04-06T10:33:24Z</time>
      </trkpt>
      <trkpt lat="43.194525" lon="-2.276217">
        <ele>568.248</ele>
        <time>2021-04-06T10:33:30Z</time>
      </trkpt>
      <trkpt lat="43.194545" lon="-2.276222">
        <ele>569.629</ele>
        <time>2021-04-06T10:33:34Z</time>
      </trkpt>
      <trkpt lat="43.194563" lon="-2.276220">
        <ele>570.964</ele>
        <time>2021-04-06T10:33:39Z</time>
      </trkpt>
      <trkpt lat="43.194579" lon="-2.276218">
        <ele>572.080</ele>
        <time>2021-04-06T10:33:43Z</time>
      </trkpt>
      <trkpt lat="43.194588" lon="-2.276220">
        <ele>572.667</ele>
        <time>2021-04-06T10:33:46Z</time>
      </trkpt>
      <trkpt lat="43.194605" lon="-2.276233">
        <ele>573.830</ele>
        <time>2021-04-06T10:33:51Z</time>
      </trkpt>
      <trkpt lat="43.194625" lon="-2.276230">
        <ele>575.285</ele>
        <time>2021-04-06T10:33:55Z</time>
      </trkpt>
      <trkpt lat="43.194641" lon="-2.276239">
        <ele>576.392</ele>
        <time>2021-04-06T10:34:00Z</time>
      </trkpt>
      <trkpt lat="43.194660" lon="-2.276232">
        <ele>577.673</ele>
        <time>2021-04-06T10:34:04Z</time>
      </trkpt>
      <trkpt lat="43.194676" lon="-2.276241">
        <ele>578.820</ele>
        <time>2021-04-06T10:34:09Z</time>
      </trkpt>
      <trkpt lat="43.194688" lon="-2.276250">
        <ele>579.608</ele>
        <time>2021-04-06T10:34:13Z</time>
      </trkpt>
      <trkpt lat="43.194705" lon="-2.276250">
        <ele>580.896</ele>
        <time>2021-04-06T10:34:17Z</time>
      </trkpt>
      <trkpt lat="43.194721" lon="-2.276245">
        <ele>581.929</ele>
        <time>2021-04-06T10:34:22Z</time>
      </trkpt>
      <trkpt lat="43.194734" lon="-2.276241">
        <ele>583.050</ele>
        <time>2021-04-06T10:34:28Z</time>
      </trkpt>
      <trkpt lat="43.194749" lon="-2.276252">
        <ele>584.385</ele>
        <time>2021-04-06T10:34:33Z</time>
      </trkpt>
      <trkpt lat="43.194767" lon="-2.276251">
        <ele>585.841</ele>
        <time>2021-04-06T10:34:37Z</time>
      </trkpt>
      <trkpt lat="43.194791" lon="-2.276251">
        <ele>587.868</ele>
        <time>2021-04-06T10:34:46Z</time>
      </trkpt>
      <trkpt lat="43.194806" lon="-2.276251">
        <ele>589.141</ele>
        <time>2021-04-06T10:34:51Z</time>
      </trkpt>
      <trkpt lat="43.194823" lon="-2.276263">
        <ele>590.526</ele>
        <time>2021-04-06T10:34:56Z</time>
      </trkpt>
      <trkpt lat="43.194831" lon="-2.276285">
        <ele>591.246</ele>
        <time>2021-04-06T10:35:00Z</time>
      </trkpt>
      <trkpt lat="43.194839" lon="-2.276307">
        <ele>591.888</ele>
        <time>2021-04-06T10:35:04Z</time>
      </trkpt>
      <trkpt lat="43.194856" lon="-2.276316">
        <ele>593.216</ele>
        <time>2021-04-06T10:35:07Z</time>
      </trkpt>
      <trkpt lat="43.194873" lon="-2.276312">
        <ele>594.608</ele>
        <time>2021-04-06T10:35:11Z</time>
      </trkpt>
      <trkpt lat="43.194889" lon="-2.276330">
        <ele>595.961</ele>
        <time>2021-04-06T10:35:17Z</time>
      </trkpt>
      <trkpt lat="43.194897" lon="-2.276328">
        <ele>596.644</ele>
        <time>2021-04-06T10:35:20Z</time>
      </trkpt>
      <trkpt lat="43.194917" lon="-2.276336">
        <ele>598.385</ele>
        <time>2021-04-06T10:35:27Z</time>
      </trkpt>
      <trkpt lat="43.194924" lon="-2.276363">
        <ele>598.890</ele>
        <time>2021-04-06T10:35:32Z</time>
      </trkpt>
      <trkpt lat="43.194936" lon="-2.276374">
        <ele>599.766</ele>
        <time>2021-04-06T10:35:37Z</time>
      </trkpt>
      <trkpt lat="43.194951" lon="-2.276395">
        <ele>600.923</ele>
        <time>2021-04-06T10:35:42Z</time>
      </trkpt>
      <trkpt lat="43.194952" lon="-2.276400">
        <ele>600.946</ele>
        <time>2021-04-06T10:35:46Z</time>
      </trkpt>
      <trkpt lat="43.194970" lon="-2.276406">
        <ele>602.331</ele>
        <time>2021-04-06T10:36:14Z</time>
      </trkpt>
      <trkpt lat="43.194986" lon="-2.276409">
        <ele>603.619</ele>
        <time>2021-04-06T10:36:17Z</time>
      </trkpt>
      <trkpt lat="43.194998" lon="-2.276391">
        <ele>604.809</ele>
        <time>2021-04-06T10:36:21Z</time>
      </trkpt>
      <trkpt lat="43.195006" lon="-2.276388">
        <ele>605.519</ele>
        <time>2021-04-06T10:36:24Z</time>
      </trkpt>
      <trkpt lat="43.195020" lon="-2.276369">
        <ele>606.608</ele>
        <time>2021-04-06T10:36:30Z</time>
      </trkpt>
      <trkpt lat="43.195031" lon="-2.276347">
        <ele>607.538</ele>
        <time>2021-04-06T10:36:34Z</time>
      </trkpt>
      <trkpt lat="43.195036" lon="-2.276341">
        <ele>607.841</ele>
        <time>2021-04-06T10:36:36Z</time>
      </trkpt>
      <trkpt lat="43.195046" lon="-2.276323">
        <ele>608.682</ele>
        <time>2021-04-06T10:36:41Z</time>
      </trkpt>
      <trkpt lat="43.195063" lon="-2.276312">
        <ele>609.957</ele>
        <time>2021-04-06T10:36:46Z</time>
      </trkpt>
      <trkpt lat="43.195070" lon="-2.276305">
        <ele>610.483</ele>
        <time>2021-04-06T10:36:48Z</time>
      </trkpt>
      <trkpt lat="43.195090" lon="-2.276297">
        <ele>611.930</ele>
        <time>2021-04-06T10:36:52Z</time>
      </trkpt>
      <trkpt lat="43.195097" lon="-2.276321">
        <ele>612.453</ele>
        <time>2021-04-06T10:36:56Z</time>
      </trkpt>
      <trkpt lat="43.195102" lon="-2.276346">
        <ele>612.818</ele>
        <time>2021-04-06T10:37:16Z</time>
      </trkpt>
      <trkpt lat="43.195104" lon="-2.276341">
        <ele>612.946</ele>
        <time>2021-04-06T10:37:26Z</time>
      </trkpt>
      <trkpt lat="43.195120" lon="-2.276335">
        <ele>614.188</ele>
        <time>2021-04-06T10:37:51Z</time>
      </trkpt>
      <trkpt lat="43.195136" lon="-2.276343">
        <ele>615.316</ele>
        <time>2021-04-06T10:37:54Z</time>
      </trkpt>
      <trkpt lat="43.195151" lon="-2.276355">
        <ele>616.408</ele>
        <time>2021-04-06T10:37:57Z</time>
      </trkpt>
      <trkpt lat="43.195164" lon="-2.276367">
        <ele>617.491</ele>
        <time>2021-04-06T10:38:00Z</time>
      </trkpt>
      <trkpt lat="43.195178" lon="-2.276358">
        <ele>618.424</ele>
        <time>2021-04-06T10:38:04Z</time>
      </trkpt>
      <trkpt lat="43.195185" lon="-2.276326">
        <ele>618.995</ele>
        <time>2021-04-06T10:38:07Z</time>
      </trkpt>
      <trkpt lat="43.195197" lon="-2.276305">
        <ele>619.830</ele>
        <time>2021-04-06T10:38:10Z</time>
      </trkpt>
      <trkpt lat="43.195216" lon="-2.276309">
        <ele>621.256</ele>
        <time>2021-04-06T10:38:16Z</time>
      </trkpt>
      <trkpt lat="43.195224" lon="-2.276317">
        <ele>621.843</ele>
        <time>2021-04-06T10:38:19Z</time>
      </trkpt>
      <trkpt lat="43.195235" lon="-2.276324">
        <ele>622.666</ele>
        <time>2021-04-06T10:38:21Z</time>
      </trkpt>
      <trkpt lat="43.195256" lon="-2.276316">
        <ele>624.161</ele>
        <time>2021-04-06T10:38:25Z</time>
      </trkpt>
      <trkpt lat="43.195267" lon="-2.276322">
        <ele>625.047</ele>
        <time>2021-04-06T10:38:28Z</time>
      </trkpt>
      <trkpt lat="43.195287" lon="-2.276324">
        <ele>626.429</ele>
        <time>2021-04-06T10:38:32Z</time>
      </trkpt>
      <trkpt lat="43.195304" lon="-2.276324">
        <ele>627.521</ele>
        <time>2021-04-06T10:38:37Z</time>
      </trkpt>
      <trkpt lat="43.195303" lon="-2.276335">
        <ele>627.408</ele>
        <time>2021-04-06T10:38:42Z</time>
      </trkpt>
      <trkpt lat="43.195318" lon="-2.276313">
        <ele>628.321</ele>
        <time>2021-04-06T10:38:48Z</time>
      </trkpt>
      <trkpt lat="43.195338" lon="-2.276306">
        <ele>629.674</ele>
        <time>2021-04-06T10:38:52Z</time>
      </trkpt>
      <trkpt lat="43.195353" lon="-2.276315">
        <ele>630.645</ele>
        <time>2021-04-06T10:38:56Z</time>
      </trkpt>
      <trkpt lat="43.195364" lon="-2.276325">
        <ele>631.460</ele>
        <time>2021-04-06T10:38:59Z</time>
      </trkpt>
      <trkpt lat="43.195374" lon="-2.276342">
        <ele>632.126</ele>
        <time>2021-04-06T10:39:03Z</time>
      </trkpt>
      <trkpt lat="43.195366" lon="-2.276373">
        <ele>631.753</ele>
        <time>2021-04-06T10:39:11Z</time>
      </trkpt>
      <trkpt lat="43.195383" lon="-2.276364">
        <ele>632.756</ele>
        <time>2021-04-06T10:39:19Z</time>
      </trkpt>
      <trkpt lat="43.195390" lon="-2.276355">
        <ele>633.111</ele>
        <time>2021-04-06T10:39:21Z</time>
      </trkpt>
      <trkpt lat="43.195403" lon="-2.276340">
        <ele>633.997</ele>
        <time>2021-04-06T10:39:24Z</time>
      </trkpt>
      <trkpt lat="43.195424" lon="-2.276344">
        <ele>635.323</ele>
        <time>2021-04-06T10:39:28Z</time>
      </trkpt>
      <trkpt lat="43.195444" lon="-2.276352">
        <ele>636.625</ele>
        <time>2021-04-06T10:39:31Z</time>
      </trkpt>
      <trkpt lat="43.195463" lon="-2.276365">
        <ele>637.908</ele>
        <time>2021-04-06T10:39:38Z</time>
      </trkpt>
      <trkpt lat="43.195475" lon="-2.276387">
        <ele>638.876</ele>
        <time>2021-04-06T10:39:42Z</time>
      </trkpt>
      <trkpt lat="43.195481" lon="-2.276397">
        <ele>639.229</ele>
        <time>2021-04-06T10:39:45Z</time>
      </trkpt>
      <trkpt lat="43.195490" lon="-2.276423">
        <ele>639.720</ele>
        <time>2021-04-06T10:39:49Z</time>
      </trkpt>
      <trkpt lat="43.195485" lon="-2.276396">
        <ele>639.435</ele>
        <time>2021-04-06T10:39:58Z</time>
      </trkpt>
      <trkpt lat="43.195487" lon="-2.276427">
        <ele>639.541</ele>
        <time>2021-04-06T10:40:06Z</time>
      </trkpt>
      <trkpt lat="43.195502" lon="-2.276438">
        <ele>640.518</ele>
        <time>2021-04-06T10:40:08Z</time>
      </trkpt>
      <trkpt lat="43.195517" lon="-2.276451">
        <ele>641.441</ele>
        <time>2021-04-06T10:40:12Z</time>
      </trkpt>
      <trkpt lat="43.195536" lon="-2.276456">
        <ele>642.716</ele>
        <time>2021-04-06T10:40:17Z</time>
      </trkpt>
      <trkpt lat="43.195550" lon="-2.276464">
        <ele>643.664</ele>
        <time>2021-04-06T10:40:20Z</time>
      </trkpt>
      <trkpt lat="43.195566" lon="-2.276456">
        <ele>644.806</ele>
        <time>2021-04-06T10:40:22Z</time>
      </trkpt>
      <trkpt lat="43.195582" lon="-2.276443">
        <ele>646.116</ele>
        <time>2021-04-06T10:40:25Z</time>
      </trkpt>
      <trkpt lat="43.195598" lon="-2.276446">
        <ele>647.408</ele>
        <time>2021-04-06T10:40:28Z</time>
      </trkpt>
      <trkpt lat="43.195614" lon="-2.276436">
        <ele>648.743</ele>
        <time>2021-04-06T10:40:33Z</time>
      </trkpt>
      <trkpt lat="43.195626" lon="-2.276433">
        <ele>649.666</ele>
        <time>2021-04-06T10:40:36Z</time>
      </trkpt>
      <trkpt lat="43.195643" lon="-2.276440">
        <ele>651.067</ele>
        <time>2021-04-06T10:40:40Z</time>
      </trkpt>
      <trkpt lat="43.195658" lon="-2.276458">
        <ele>652.282</ele>
        <time>2021-04-06T10:40:45Z</time>
      </trkpt>
      <trkpt lat="43.195673" lon="-2.276452">
        <ele>653.438</ele>
        <time>2021-04-06T10:40:51Z</time>
      </trkpt>
      <trkpt lat="43.195687" lon="-2.276436">
        <ele>654.595</ele>
        <time>2021-04-06T10:40:58Z</time>
      </trkpt>
      <trkpt lat="43.195705" lon="-2.276439">
        <ele>655.928</ele>
        <time>2021-04-06T10:41:04Z</time>
      </trkpt>
      <trkpt lat="43.195722" lon="-2.276434">
        <ele>657.343</ele>
        <time>2021-04-06T10:41:11Z</time>
      </trkpt>
      <trkpt lat="43.195740" lon="-2.276425">
        <ele>658.779</ele>
        <time>2021-04-06T10:41:15Z</time>
      </trkpt>
      <trkpt lat="43.195758" lon="-2.276424">
        <ele>660.105</ele>
        <time>2021-04-06T10:41:20Z</time>
      </trkpt>
      <trkpt lat="43.195772" lon="-2.276428">
        <ele>661.325</ele>
        <time>2021-04-06T10:41:26Z</time>
      </trkpt>
      <trkpt lat="43.195786" lon="-2.276430">
        <ele>662.408</ele>
        <time>2021-04-06T10:41:31Z</time>
      </trkpt>
      <trkpt lat="43.195801" lon="-2.276412">
        <ele>663.544</ele>
        <time>2021-04-06T10:41:36Z</time>
      </trkpt>
      <trkpt lat="43.195819" lon="-2.276406">
        <ele>664.957</ele>
        <time>2021-04-06T10:41:43Z</time>
      </trkpt>
      <trkpt lat="43.195833" lon="-2.276407">
        <ele>666.058</ele>
        <time>2021-04-06T10:41:46Z</time>
      </trkpt>
      <trkpt lat="43.195849" lon="-2.276407">
        <ele>667.333</ele>
        <time>2021-04-06T10:42:00Z</time>
      </trkpt>
      <trkpt lat="43.195853" lon="-2.276418">
        <ele>667.669</ele>
        <time>2021-04-06T10:42:04Z</time>
      </trkpt>
      <trkpt lat="43.195862" lon="-2.276425">
        <ele>668.356</ele>
        <time>2021-04-06T10:42:06Z</time>
      </trkpt>
      <trkpt lat="43.195883" lon="-2.276419">
        <ele>669.999</ele>
        <time>2021-04-06T10:42:10Z</time>
      </trkpt>
      <trkpt lat="43.195897" lon="-2.276401">
        <ele>670.954</ele>
        <time>2021-04-06T10:42:14Z</time>
      </trkpt>
      <trkpt lat="43.195915" lon="-2.276387">
        <ele>672.237</ele>
        <time>2021-04-06T10:42:18Z</time>
      </trkpt>
      <trkpt lat="43.195928" lon="-2.276388">
        <ele>673.149</ele>
        <time>2021-04-06T10:42:22Z</time>
      </trkpt>
      <trkpt lat="43.195940" lon="-2.276392">
        <ele>674.113</ele>
        <time>2021-04-06T10:42:28Z</time>
      </trkpt>
      <trkpt lat="43.195959" lon="-2.276389">
        <ele>675.508</ele>
        <time>2021-04-06T10:42:33Z</time>
      </trkpt>
      <trkpt lat="43.195977" lon="-2.276388">
        <ele>676.950</ele>
        <time>2021-04-06T10:42:37Z</time>
      </trkpt>
      <trkpt lat="43.195990" lon="-2.276387">
        <ele>677.873</ele>
        <time>2021-04-06T10:42:45Z</time>
      </trkpt>
      <trkpt lat="43.196002" lon="-2.276377">
        <ele>678.674</ele>
        <time>2021-04-06T10:42:48Z</time>
      </trkpt>
      <trkpt lat="43.196013" lon="-2.276371">
        <ele>679.499</ele>
        <time>2021-04-06T10:42:50Z</time>
      </trkpt>
      <trkpt lat="43.196032" lon="-2.276370">
        <ele>680.895</ele>
        <time>2021-04-06T10:42:54Z</time>
      </trkpt>
      <trkpt lat="43.196045" lon="-2.276366">
        <ele>681.812</ele>
        <time>2021-04-06T10:42:58Z</time>
      </trkpt>
      <trkpt lat="43.196061" lon="-2.276385">
        <ele>683.225</ele>
        <time>2021-04-06T10:43:04Z</time>
      </trkpt>
      <trkpt lat="43.196071" lon="-2.276405">
        <ele>684.180</ele>
        <time>2021-04-06T10:43:07Z</time>
      </trkpt>
      <trkpt lat="43.196079" lon="-2.276422">
        <ele>684.981</ele>
        <time>2021-04-06T10:43:11Z</time>
      </trkpt>
      <trkpt lat="43.196080" lon="-2.276450">
        <ele>685.361</ele>
        <time>2021-04-06T10:43:17Z</time>
      </trkpt>
      <trkpt lat="43.196089" lon="-2.276485">
        <ele>686.317</ele>
        <time>2021-04-06T10:43:21Z</time>
      </trkpt>
      <trkpt lat="43.196094" lon="-2.276506">
        <ele>686.908</ele>
        <time>2021-04-06T10:43:23Z</time>
      </trkpt>
      <trkpt lat="43.196107" lon="-2.276523">
        <ele>688.125</ele>
        <time>2021-04-06T10:43:27Z</time>
      </trkpt>
      <trkpt lat="43.196115" lon="-2.276548">
        <ele>689.038</ele>
        <time>2021-04-06T10:43:30Z</time>
      </trkpt>
      <trkpt lat="43.196128" lon="-2.276569">
        <ele>690.259</ele>
        <time>2021-04-06T10:43:33Z</time>
      </trkpt>
      <trkpt lat="43.196139" lon="-2.276595">
        <ele>691.374</ele>
        <time>2021-04-06T10:43:37Z</time>
      </trkpt>
      <trkpt lat="43.196144" lon="-2.276627">
        <ele>692.150</ele>
        <time>2021-04-06T10:43:40Z</time>
      </trkpt>
      <trkpt lat="43.196146" lon="-2.276655">
        <ele>692.557</ele>
        <time>2021-04-06T10:43:43Z</time>
      </trkpt>
      <trkpt lat="43.196149" lon="-2.276692">
        <ele>693.030</ele>
        <time>2021-04-06T10:43:46Z</time>
      </trkpt>
      <trkpt lat="43.196156" lon="-2.276726">
        <ele>693.685</ele>
        <time>2021-04-06T10:43:49Z</time>
      </trkpt>
      <trkpt lat="43.196163" lon="-2.276759">
        <ele>694.398</ele>
        <time>2021-04-06T10:43:52Z</time>
      </trkpt>
      <trkpt lat="43.196172" lon="-2.276787">
        <ele>695.115</ele>
        <time>2021-04-06T10:43:55Z</time>
      </trkpt>
      <trkpt lat="43.196188" lon="-2.276801">
        <ele>696.426</ele>
        <time>2021-04-06T10:43:58Z</time>
      </trkpt>
      <trkpt lat="43.196204" lon="-2.276810">
        <ele>697.708</ele>
        <time>2021-04-06T10:44:02Z</time>
      </trkpt>
      <trkpt lat="43.196214" lon="-2.276816">
        <ele>698.596</ele>
        <time>2021-04-06T10:44:04Z</time>
      </trkpt>
      <trkpt lat="43.196227" lon="-2.276818">
        <ele>699.589</ele>
        <time>2021-04-06T10:44:08Z</time>
      </trkpt>
      <trkpt lat="43.196231" lon="-2.276843">
        <ele>700.080</ele>
        <time>2021-04-06T10:44:14Z</time>
      </trkpt>
      <trkpt lat="43.196248" lon="-2.276855">
        <ele>701.455</ele>
        <time>2021-04-06T10:44:17Z</time>
      </trkpt>
      <trkpt lat="43.196260" lon="-2.276853">
        <ele>702.321</ele>
        <time>2021-04-06T10:44:21Z</time>
      </trkpt>
      <trkpt lat="43.196271" lon="-2.276848">
        <ele>703.178</ele>
        <time>2021-04-06T10:44:24Z</time>
      </trkpt>
      <trkpt lat="43.196281" lon="-2.276865">
        <ele>704.091</ele>
        <time>2021-04-06T10:44:28Z</time>
      </trkpt>
      <trkpt lat="43.196301" lon="-2.276866">
        <ele>705.646</ele>
        <time>2021-04-06T10:44:34Z</time>
      </trkpt>
      <trkpt lat="43.196319" lon="-2.276874">
        <ele>707.069</ele>
        <time>2021-04-06T10:44:40Z</time>
      </trkpt>
      <trkpt lat="43.196325" lon="-2.276866">
        <ele>707.404</ele>
        <time>2021-04-06T10:44:44Z</time>
      </trkpt>
      <trkpt lat="43.196342" lon="-2.276861">
        <ele>708.724</ele>
        <time>2021-04-06T10:44:49Z</time>
      </trkpt>
      <trkpt lat="43.196359" lon="-2.276874">
        <ele>710.208</ele>
        <time>2021-04-06T10:44:59Z</time>
      </trkpt>
      <trkpt lat="43.196367" lon="-2.276871">
        <ele>710.833</ele>
        <time>2021-04-06T10:45:02Z</time>
      </trkpt>
      <trkpt lat="43.196377" lon="-2.276889">
        <ele>711.796</ele>
        <time>2021-04-06T10:45:06Z</time>
      </trkpt>
      <trkpt lat="43.196390" lon="-2.276896">
        <ele>712.777</ele>
        <time>2021-04-06T10:45:09Z</time>
      </trkpt>
      <trkpt lat="43.196397" lon="-2.276897">
        <ele>713.312</ele>
        <time>2021-04-06T10:45:12Z</time>
      </trkpt>
      <trkpt lat="43.196410" lon="-2.276911">
        <ele>714.418</ele>
        <time>2021-04-06T10:45:18Z</time>
      </trkpt>
      <trkpt lat="43.196425" lon="-2.276925">
        <ele>715.715</ele>
        <time>2021-04-06T10:45:22Z</time>
      </trkpt>
      <trkpt lat="43.196440" lon="-2.276921">
        <ele>716.918</ele>
        <time>2021-04-06T10:45:27Z</time>
      </trkpt>
      <trkpt lat="43.196451" lon="-2.276934">
        <ele>717.893</ele>
        <time>2021-04-06T10:45:31Z</time>
      </trkpt>
      <trkpt lat="43.196465" lon="-2.276955">
        <ele>719.165</ele>
        <time>2021-04-06T10:45:36Z</time>
      </trkpt>
      <trkpt lat="43.196473" lon="-2.276977">
        <ele>719.968</ele>
        <time>2021-04-06T10:45:40Z</time>
      </trkpt>
      <trkpt lat="43.196488" lon="-2.276994">
        <ele>721.114</ele>
        <time>2021-04-06T10:45:45Z</time>
      </trkpt>
      <trkpt lat="43.196501" lon="-2.277014">
        <ele>722.308</ele>
        <time>2021-04-06T10:45:49Z</time>
      </trkpt>
      <trkpt lat="43.196518" lon="-2.277017">
        <ele>723.623</ele>
        <time>2021-04-06T10:45:55Z</time>
      </trkpt>
      <trkpt lat="43.196527" lon="-2.277018">
        <ele>724.356</ele>
        <time>2021-04-06T10:45:57Z</time>
      </trkpt>
      <trkpt lat="43.196543" lon="-2.277009">
        <ele>725.597</ele>
        <time>2021-04-06T10:46:01Z</time>
      </trkpt>
      <trkpt lat="43.196558" lon="-2.277016">
        <ele>726.852</ele>
        <time>2021-04-06T10:46:07Z</time>
      </trkpt>
      <trkpt lat="43.196573" lon="-2.277026">
        <ele>728.088</ele>
        <time>2021-04-06T10:46:10Z</time>
      </trkpt>
      <trkpt lat="43.196591" lon="-2.277031">
        <ele>729.415</ele>
        <time>2021-04-06T10:46:15Z</time>
      </trkpt>
      <trkpt lat="43.196606" lon="-2.277039">
        <ele>730.638</ele>
        <time>2021-04-06T10:46:20Z</time>
      </trkpt>
      <trkpt lat="43.196611" lon="-2.277063">
        <ele>731.193</ele>
        <time>2021-04-06T10:46:23Z</time>
      </trkpt>
      <trkpt lat="43.196624" lon="-2.277080">
        <ele>732.272</ele>
        <time>2021-04-06T10:46:28Z</time>
      </trkpt>
      <trkpt lat="43.196637" lon="-2.277099">
        <ele>733.313</ele>
        <time>2021-04-06T10:46:33Z</time>
      </trkpt>
      <trkpt lat="43.196656" lon="-2.277104">
        <ele>734.814</ele>
        <time>2021-04-06T10:46:37Z</time>
      </trkpt>
      <trkpt lat="43.196673" lon="-2.277123">
        <ele>736.208</ele>
        <time>2021-04-06T10:46:42Z</time>
      </trkpt>
      <trkpt lat="43.196689" lon="-2.277132">
        <ele>737.694</ele>
        <time>2021-04-06T10:46:47Z</time>
      </trkpt>
      <trkpt lat="43.196694" lon="-2.277141">
        <ele>738.117</ele>
        <time>2021-04-06T10:47:00Z</time>
      </trkpt>
      <trkpt lat="43.196693" lon="-2.277143">
        <ele>738.098</ele>
        <time>2021-04-06T10:47:07Z</time>
      </trkpt>
      <trkpt lat="43.196698" lon="-2.277174">
        <ele>738.593</ele>
        <time>2021-04-06T10:47:11Z</time>
      </trkpt>
      <trkpt lat="43.196708" lon="-2.277191">
        <ele>739.569</ele>
        <time>2021-04-06T10:47:14Z</time>
      </trkpt>
      <trkpt lat="43.196726" lon="-2.277202">
        <ele>741.136</ele>
        <time>2021-04-06T10:47:17Z</time>
      </trkpt>
      <trkpt lat="43.196747" lon="-2.277207">
        <ele>742.949</ele>
        <time>2021-04-06T10:47:21Z</time>
      </trkpt>
      <trkpt lat="43.196761" lon="-2.277221">
        <ele>744.124</ele>
        <time>2021-04-06T10:47:26Z</time>
      </trkpt>
      <trkpt lat="43.196771" lon="-2.277243">
        <ele>745.184</ele>
        <time>2021-04-06T10:47:29Z</time>
      </trkpt>
      <trkpt lat="43.196786" lon="-2.277257">
        <ele>746.507</ele>
        <time>2021-04-06T10:47:32Z</time>
      </trkpt>
      <trkpt lat="43.196795" lon="-2.277257">
        <ele>747.317</ele>
        <time>2021-04-06T10:47:35Z</time>
      </trkpt>
      <trkpt lat="43.196811" lon="-2.277250">
        <ele>748.608</ele>
        <time>2021-04-06T10:47:40Z</time>
      </trkpt>
      <trkpt lat="43.196821" lon="-2.277268">
        <ele>749.675</ele>
        <time>2021-04-06T10:47:44Z</time>
      </trkpt>
      <trkpt lat="43.196835" lon="-2.277287">
        <ele>750.988</ele>
        <time>2021-04-06T10:47:49Z</time>
      </trkpt>
      <trkpt lat="43.196846" lon="-2.277284">
        <ele>751.819</ele>
        <time>2021-04-06T10:47:51Z</time>
      </trkpt>
      <trkpt lat="43.196857" lon="-2.277306">
        <ele>752.874</ele>
        <time>2021-04-06T10:47:58Z</time>
      </trkpt>
      <trkpt lat="43.196873" lon="-2.277314">
        <ele>754.210</ele>
        <time>2021-04-06T10:48:05Z</time>
      </trkpt>
      <trkpt lat="43.196888" lon="-2.277314">
        <ele>755.547</ele>
        <time>2021-04-06T10:48:12Z</time>
      </trkpt>
      <trkpt lat="43.196902" lon="-2.277331">
        <ele>756.830</ele>
        <time>2021-04-06T10:48:17Z</time>
      </trkpt>
      <trkpt lat="43.196916" lon="-2.277350">
        <ele>758.015</ele>
        <time>2021-04-06T10:48:22Z</time>
      </trkpt>
      <trkpt lat="43.196918" lon="-2.277365">
        <ele>758.397</ele>
        <time>2021-04-06T10:48:24Z</time>
      </trkpt>
      <trkpt lat="43.196921" lon="-2.277381">
        <ele>758.623</ele>
        <time>2021-04-06T10:48:26Z</time>
      </trkpt>
      <trkpt lat="43.196933" lon="-2.277410">
        <ele>759.725</ele>
        <time>2021-04-06T10:48:30Z</time>
      </trkpt>
      <trkpt lat="43.196954" lon="-2.277401">
        <ele>761.408</ele>
        <time>2021-04-06T10:48:36Z</time>
      </trkpt>
      <trkpt lat="43.196966" lon="-2.277405">
        <ele>762.546</ele>
        <time>2021-04-06T10:48:40Z</time>
      </trkpt>
      <trkpt lat="43.196985" lon="-2.277411">
        <ele>764.149</ele>
        <time>2021-04-06T10:48:45Z</time>
      </trkpt>
      <trkpt lat="43.197002" lon="-2.277408">
        <ele>765.530</ele>
        <time>2021-04-06T10:48:51Z</time>
      </trkpt>
      <trkpt lat="43.197016" lon="-2.277417">
        <ele>766.745</ele>
        <time>2021-04-06T10:48:58Z</time>
      </trkpt>
      <trkpt lat="43.197034" lon="-2.277423">
        <ele>768.391</ele>
        <time>2021-04-06T10:49:10Z</time>
      </trkpt>
      <trkpt lat="43.197054" lon="-2.277430">
        <ele>770.088</ele>
        <time>2021-04-06T10:49:15Z</time>
      </trkpt>
      <trkpt lat="43.197069" lon="-2.277416">
        <ele>771.251</ele>
        <time>2021-04-06T10:49:19Z</time>
      </trkpt>
      <trkpt lat="43.197088" lon="-2.277406">
        <ele>772.776</ele>
        <time>2021-04-06T10:49:25Z</time>
      </trkpt>
      <trkpt lat="43.197105" lon="-2.277411">
        <ele>774.268</ele>
        <time>2021-04-06T10:49:30Z</time>
      </trkpt>
      <trkpt lat="43.197122" lon="-2.277411">
        <ele>775.642</ele>
        <time>2021-04-06T10:49:33Z</time>
      </trkpt>
      <trkpt lat="43.197134" lon="-2.277400">
        <ele>776.526</ele>
        <time>2021-04-06T10:49:37Z</time>
      </trkpt>
      <trkpt lat="43.197142" lon="-2.277391">
        <ele>777.108</ele>
        <time>2021-04-06T10:49:40Z</time>
      </trkpt>
      <trkpt lat="43.197151" lon="-2.277395">
        <ele>777.963</ele>
        <time>2021-04-06T10:49:49Z</time>
      </trkpt>
      <trkpt lat="43.197163" lon="-2.277400">
        <ele>779.016</ele>
        <time>2021-04-06T10:49:54Z</time>
      </trkpt>
      <trkpt lat="43.197173" lon="-2.277411">
        <ele>779.977</ele>
        <time>2021-04-06T10:49:56Z</time>
      </trkpt>
      <trkpt lat="43.197186" lon="-2.277401">
        <ele>780.912</ele>
        <time>2021-04-06T10:50:03Z</time>
      </trkpt>
      <trkpt lat="43.197204" lon="-2.277390">
        <ele>782.358</ele>
        <time>2021-04-06T10:50:09Z</time>
      </trkpt>
      <trkpt lat="43.197211" lon="-2.277390">
        <ele>782.935</ele>
        <time>2021-04-06T10:50:12Z</time>
      </trkpt>
      <trkpt lat="43.197216" lon="-2.277389">
        <ele>783.388</ele>
        <time>2021-04-06T10:50:14Z</time>
      </trkpt>
      <trkpt lat="43.197233" lon="-2.277400">
        <ele>784.843</ele>
        <time>2021-04-06T10:50:19Z</time>
      </trkpt>
      <trkpt lat="43.197242" lon="-2.277395">
        <ele>785.575</ele>
        <time>2021-04-06T10:50:22Z</time>
      </trkpt>
      <trkpt lat="43.197252" lon="-2.277417">
        <ele>786.628</ele>
        <time>2021-04-06T10:50:29Z</time>
      </trkpt>
      <trkpt lat="43.197258" lon="-2.277429">
        <ele>787.220</ele>
        <time>2021-04-06T10:50:31Z</time>
      </trkpt>
      <trkpt lat="43.197266" lon="-2.277455">
        <ele>788.108</ele>
        <time>2021-04-06T10:50:36Z</time>
      </trkpt>
      <trkpt lat="43.197274" lon="-2.277480">
        <ele>789.154</ele>
        <time>2021-04-06T10:50:39Z</time>
      </trkpt>
      <trkpt lat="43.197282" lon="-2.277502">
        <ele>790.027</ele>
        <time>2021-04-06T10:50:42Z</time>
      </trkpt>
      <trkpt lat="43.197289" lon="-2.277529">
        <ele>790.728</ele>
        <time>2021-04-06T10:50:46Z</time>
      </trkpt>
      <trkpt lat="43.197305" lon="-2.277533">
        <ele>792.043</ele>
        <time>2021-04-06T10:50:50Z</time>
      </trkpt>
      <trkpt lat="43.197322" lon="-2.277537">
        <ele>793.559</ele>
        <time>2021-04-06T10:50:56Z</time>
      </trkpt>
      <trkpt lat="43.197331" lon="-2.277548">
        <ele>794.366</ele>
        <time>2021-04-06T10:51:00Z</time>
      </trkpt>
      <trkpt lat="43.197343" lon="-2.277574">
        <ele>795.549</ele>
        <time>2021-04-06T10:51:04Z</time>
      </trkpt>
      <trkpt lat="43.197363" lon="-2.277583">
        <ele>797.314</ele>
        <time>2021-04-06T10:51:10Z</time>
      </trkpt>
      <trkpt lat="43.197382" lon="-2.277593">
        <ele>799.014</ele>
        <time>2021-04-06T10:51:20Z</time>
      </trkpt>
      <trkpt lat="43.197388" lon="-2.277605">
        <ele>799.654</ele>
        <time>2021-04-06T10:51:24Z</time>
      </trkpt>
      <trkpt lat="43.197394" lon="-2.277589">
        <ele>799.909</ele>
        <time>2021-04-06T10:51:36Z</time>
      </trkpt>
      <trkpt lat="43.197403" lon="-2.277568">
        <ele>800.508</ele>
        <time>2021-04-06T10:51:40Z</time>
      </trkpt>
      <trkpt lat="43.197418" lon="-2.277559">
        <ele>801.718</ele>
        <time>2021-04-06T10:51:43Z</time>
      </trkpt>
      <trkpt lat="43.197436" lon="-2.277557">
        <ele>803.221</ele>
        <time>2021-04-06T10:51:48Z</time>
      </trkpt>
      <trkpt lat="43.197453" lon="-2.277565">
        <ele>804.712</ele>
        <time>2021-04-06T10:52:05Z</time>
      </trkpt>
      <trkpt lat="43.197460" lon="-2.277572">
        <ele>805.447</ele>
        <time>2021-04-06T10:52:19Z</time>
      </trkpt>
      <trkpt lat="43.197478" lon="-2.277574">
        <ele>806.923</ele>
        <time>2021-04-06T10:52:27Z</time>
      </trkpt>
      <trkpt lat="43.197496" lon="-2.277577">
        <ele>808.560</ele>
        <time>2021-04-06T10:52:36Z</time>
      </trkpt>
      <trkpt lat="43.197505" lon="-2.277589">
        <ele>809.113</ele>
        <time>2021-04-06T10:52:43Z</time>
      </trkpt>
      <trkpt lat="43.197525" lon="-2.277582">
        <ele>809.638</ele>
        <time>2021-04-06T10:52:47Z</time>
      </trkpt>
      <trkpt lat="43.197536" lon="-2.277585">
        <ele>810.058</ele>
        <time>2021-04-06T10:52:52Z</time>
      </trkpt>
      <trkpt lat="43.197542" lon="-2.277584">
        <ele>810.252</ele>
        <time>2021-04-06T10:53:02Z</time>
      </trkpt>
      <trkpt lat="43.197549" lon="-2.277610">
        <ele>810.717</ele>
        <time>2021-04-06T10:53:06Z</time>
      </trkpt>
      <trkpt lat="43.197562" lon="-2.277630">
        <ele>811.308</ele>
        <time>2021-04-06T10:53:11Z</time>
      </trkpt>
      <trkpt lat="43.197578" lon="-2.277642">
        <ele>811.992</ele>
        <time>2021-04-06T10:53:22Z</time>
      </trkpt>
      <trkpt lat="43.197587" lon="-2.277672">
        <ele>812.635</ele>
        <time>2021-04-06T10:53:30Z</time>
      </trkpt>
      <trkpt lat="43.197599" lon="-2.277685">
        <ele>813.196</ele>
        <time>2021-04-06T10:53:32Z</time>
      </trkpt>
      <trkpt lat="43.197618" lon="-2.277703">
        <ele>813.911</ele>
        <time>2021-04-06T10:53:35Z</time>
      </trkpt>
      <trkpt lat="43.197636" lon="-2.277720">
        <ele>814.747</ele>
        <time>2021-04-06T10:53:39Z</time>
      </trkpt>
      <trkpt lat="43.197639" lon="-2.277734">
        <ele>815.054</ele>
        <time>2021-04-06T10:53:40Z</time>
      </trkpt>
      <trkpt lat="43.197646" lon="-2.277761">
        <ele>815.557</ele>
        <time>2021-04-06T10:53:42Z</time>
      </trkpt>
      <trkpt lat="43.197654" lon="-2.277784">
        <ele>816.042</ele>
        <time>2021-04-06T10:53:44Z</time>
      </trkpt>
      <trkpt lat="43.197657" lon="-2.277808">
        <ele>816.324</ele>
        <time>2021-04-06T10:53:46Z</time>
      </trkpt>
      <trkpt lat="43.197665" lon="-2.277837">
        <ele>816.704</ele>
        <time>2021-04-06T10:53:49Z</time>
      </trkpt>
      <trkpt lat="43.197675" lon="-2.277854">
        <ele>817.114</ele>
        <time>2021-04-06T10:53:52Z</time>
      </trkpt>
      <trkpt lat="43.197669" lon="-2.277881">
        <ele>817.108</ele>
        <time>2021-04-06T10:53:57Z</time>
      </trkpt>
      <trkpt lat="43.197674" lon="-2.277906">
        <ele>817.419</ele>
        <time>2021-04-06T10:54:00Z</time>
      </trkpt>
      <trkpt lat="43.197679" lon="-2.277927">
        <ele>817.712</ele>
        <time>2021-04-06T10:54:06Z</time>
      </trkpt>
      <trkpt lat="43.197681" lon="-2.277957">
        <ele>817.973</ele>
        <time>2021-04-06T10:54:09Z</time>
      </trkpt>
      <trkpt lat="43.197694" lon="-2.277982">
        <ele>818.588</ele>
        <time>2021-04-06T10:54:12Z</time>
      </trkpt>
      <trkpt lat="43.197701" lon="-2.277987">
        <ele>818.894</ele>
        <time>2021-04-06T10:54:14Z</time>
      </trkpt>
      <trkpt lat="43.197704" lon="-2.278017">
        <ele>819.181</ele>
        <time>2021-04-06T10:54:17Z</time>
      </trkpt>
      <trkpt lat="43.197704" lon="-2.278053">
        <ele>819.334</ele>
        <time>2021-04-06T10:54:20Z</time>
      </trkpt>
      <trkpt lat="43.197701" lon="-2.278083">
        <ele>819.379</ele>
        <time>2021-04-06T10:54:22Z</time>
      </trkpt>
      <trkpt lat="43.197703" lon="-2.278115">
        <ele>819.426</ele>
        <time>2021-04-06T10:54:24Z</time>
      </trkpt>
      <trkpt lat="43.197702" lon="-2.278135">
        <ele>819.447</ele>
        <time>2021-04-06T10:54:26Z</time>
      </trkpt>
      <trkpt lat="43.197710" lon="-2.278164">
        <ele>819.811</ele>
        <time>2021-04-06T10:54:28Z</time>
      </trkpt>
      <trkpt lat="43.197716" lon="-2.278188">
        <ele>820.008</ele>
        <time>2021-04-06T10:54:30Z</time>
      </trkpt>
      <trkpt lat="43.197726" lon="-2.278215">
        <ele>820.489</ele>
        <time>2021-04-06T10:54:32Z</time>
      </trkpt>
      <trkpt lat="43.197743" lon="-2.278242">
        <ele>820.972</ele>
        <time>2021-04-06T10:54:34Z</time>
      </trkpt>
      <trkpt lat="43.197751" lon="-2.278267">
        <ele>821.263</ele>
        <time>2021-04-06T10:54:36Z</time>
      </trkpt>
      <trkpt lat="43.197753" lon="-2.278299">
        <ele>821.348</ele>
        <time>2021-04-06T10:54:38Z</time>
      </trkpt>
      <trkpt lat="43.197760" lon="-2.278333">
        <ele>821.544</ele>
        <time>2021-04-06T10:54:40Z</time>
      </trkpt>
      <trkpt lat="43.197764" lon="-2.278363">
        <ele>821.541</ele>
        <time>2021-04-06T10:54:42Z</time>
      </trkpt>
      <trkpt lat="43.197760" lon="-2.278392">
        <ele>821.394</ele>
        <time>2021-04-06T10:54:44Z</time>
      </trkpt>
      <trkpt lat="43.197755" lon="-2.278423">
        <ele>821.149</ele>
        <time>2021-04-06T10:54:46Z</time>
      </trkpt>
      <trkpt lat="43.197748" lon="-2.278455">
        <ele>820.869</ele>
        <time>2021-04-06T10:54:48Z</time>
      </trkpt>
      <trkpt lat="43.197738" lon="-2.278482">
        <ele>820.504</ele>
        <time>2021-04-06T10:54:50Z</time>
      </trkpt>
      <trkpt lat="43.197731" lon="-2.278508">
        <ele>820.224</ele>
        <time>2021-04-06T10:54:52Z</time>
      </trkpt>
      <trkpt lat="43.197727" lon="-2.278535">
        <ele>820.108</ele>
        <time>2021-04-06T10:54:55Z</time>
      </trkpt>
      <trkpt lat="43.197723" lon="-2.278563">
        <ele>819.963</ele>
        <time>2021-04-06T10:55:00Z</time>
      </trkpt>
      <trkpt lat="43.197718" lon="-2.278595">
        <ele>819.786</ele>
        <time>2021-04-06T10:55:03Z</time>
      </trkpt>
      <trkpt lat="43.197718" lon="-2.278619">
        <ele>819.837</ele>
        <time>2021-04-06T10:55:05Z</time>
      </trkpt>
      <trkpt lat="43.197705" lon="-2.278646">
        <ele>819.892</ele>
        <time>2021-04-06T10:55:08Z</time>
      </trkpt>
      <trkpt lat="43.197694" lon="-2.278672">
        <ele>819.868</ele>
        <time>2021-04-06T10:55:10Z</time>
      </trkpt>
      <trkpt lat="43.197685" lon="-2.278704">
        <ele>820.075</ele>
        <time>2021-04-06T10:55:13Z</time>
      </trkpt>
      <trkpt lat="43.197676" lon="-2.278731">
        <ele>820.158</ele>
        <time>2021-04-06T10:55:14Z</time>
      </trkpt>
      <trkpt lat="43.197659" lon="-2.278755">
        <ele>820.083</ele>
        <time>2021-04-06T10:55:16Z</time>
      </trkpt>
      <trkpt lat="43.197643" lon="-2.278775">
        <ele>819.933</ele>
        <time>2021-04-06T10:55:18Z</time>
      </trkpt>
      <trkpt lat="43.197632" lon="-2.278797">
        <ele>819.923</ele>
        <time>2021-04-06T10:55:20Z</time>
      </trkpt>
      <trkpt lat="43.197628" lon="-2.278823">
        <ele>820.115</ele>
        <time>2021-04-06T10:55:22Z</time>
      </trkpt>
      <trkpt lat="43.197630" lon="-2.278853">
        <ele>820.408</ele>
        <time>2021-04-06T10:55:24Z</time>
      </trkpt>
      <trkpt lat="43.197635" lon="-2.278879">
        <ele>820.820</ele>
        <time>2021-04-06T10:55:26Z</time>
      </trkpt>
      <trkpt lat="43.197637" lon="-2.278906">
        <ele>821.063</ele>
        <time>2021-04-06T10:55:28Z</time>
      </trkpt>
      <trkpt lat="43.197643" lon="-2.278932">
        <ele>821.334</ele>
        <time>2021-04-06T10:55:30Z</time>
      </trkpt>
      <trkpt lat="43.197648" lon="-2.278958">
        <ele>821.679</ele>
        <time>2021-04-06T10:55:32Z</time>
      </trkpt>
      <trkpt lat="43.197654" lon="-2.278995">
        <ele>822.075</ele>
        <time>2021-04-06T10:55:34Z</time>
      </trkpt>
      <trkpt lat="43.197663" lon="-2.279026">
        <ele>822.572</ele>
        <time>2021-04-06T10:55:36Z</time>
      </trkpt>
      <trkpt lat="43.197674" lon="-2.279062">
        <ele>823.165</ele>
        <time>2021-04-06T10:55:38Z</time>
      </trkpt>
      <trkpt lat="43.197676" lon="-2.279105">
        <ele>823.530</ele>
        <time>2021-04-06T10:55:40Z</time>
      </trkpt>
      <trkpt lat="43.197683" lon="-2.279151">
        <ele>824.129</ele>
        <time>2021-04-06T10:55:42Z</time>
      </trkpt>
      <trkpt lat="43.197689" lon="-2.279186">
        <ele>824.700</ele>
        <time>2021-04-06T10:55:44Z</time>
      </trkpt>
      <trkpt lat="43.197693" lon="-2.279217">
        <ele>825.220</ele>
        <time>2021-04-06T10:55:46Z</time>
      </trkpt>
      <trkpt lat="43.197698" lon="-2.279247">
        <ele>825.708</ele>
        <time>2021-04-06T10:55:48Z</time>
      </trkpt>
      <trkpt lat="43.197703" lon="-2.279279">
        <ele>826.369</ele>
        <time>2021-04-06T10:55:50Z</time>
      </trkpt>
      <trkpt lat="43.197709" lon="-2.279310">
        <ele>827.082</ele>
        <time>2021-04-06T10:55:52Z</time>
      </trkpt>
      <trkpt lat="43.197713" lon="-2.279338">
        <ele>827.563</ele>
        <time>2021-04-06T10:55:54Z</time>
      </trkpt>
      <trkpt lat="43.197714" lon="-2.279370">
        <ele>827.968</ele>
        <time>2021-04-06T10:55:56Z</time>
      </trkpt>
      <trkpt lat="43.197713" lon="-2.279403">
        <ele>828.214</ele>
        <time>2021-04-06T10:55:58Z</time>
      </trkpt>
      <trkpt lat="43.197714" lon="-2.279435">
        <ele>828.711</ele>
        <time>2021-04-06T10:56:00Z</time>
      </trkpt>
      <trkpt lat="43.197720" lon="-2.279464">
        <ele>829.214</ele>
        <time>2021-04-06T10:56:02Z</time>
      </trkpt>
      <trkpt lat="43.197726" lon="-2.279495">
        <ele>829.869</ele>
        <time>2021-04-06T10:56:04Z</time>
      </trkpt>
      <trkpt lat="43.197728" lon="-2.279526">
        <ele>830.173</ele>
        <time>2021-04-06T10:56:06Z</time>
      </trkpt>
      <trkpt lat="43.197734" lon="-2.279553">
        <ele>830.685</ele>
        <time>2021-04-06T10:56:08Z</time>
      </trkpt>
      <trkpt lat="43.197740" lon="-2.279582">
        <ele>831.213</ele>
        <time>2021-04-06T10:56:10Z</time>
      </trkpt>
      <trkpt lat="43.197746" lon="-2.279615">
        <ele>831.708</ele>
        <time>2021-04-06T10:56:12Z</time>
      </trkpt>
      <trkpt lat="43.197752" lon="-2.279641">
        <ele>832.244</ele>
        <time>2021-04-06T10:56:14Z</time>
      </trkpt>
      <trkpt lat="43.197756" lon="-2.279669">
        <ele>832.647</ele>
        <time>2021-04-06T10:56:16Z</time>
      </trkpt>
      <trkpt lat="43.197765" lon="-2.279692">
        <ele>833.218</ele>
        <time>2021-04-06T10:56:18Z</time>
      </trkpt>
      <trkpt lat="43.197770" lon="-2.279715">
        <ele>833.683</ele>
        <time>2021-04-06T10:56:21Z</time>
      </trkpt>
      <trkpt lat="43.197768" lon="-2.279745">
        <ele>833.599</ele>
        <time>2021-04-06T10:56:23Z</time>
      </trkpt>
      <trkpt lat="43.197766" lon="-2.279778">
        <ele>833.466</ele>
        <time>2021-04-06T10:56:25Z</time>
      </trkpt>
      <trkpt lat="43.197769" lon="-2.279816">
        <ele>833.699</ele>
        <time>2021-04-06T10:56:27Z</time>
      </trkpt>
      <trkpt lat="43.197772" lon="-2.279845">
        <ele>833.784</ele>
        <time>2021-04-06T10:56:29Z</time>
      </trkpt>
      <trkpt lat="43.197774" lon="-2.279878">
        <ele>833.832</ele>
        <time>2021-04-06T10:56:31Z</time>
      </trkpt>
      <trkpt lat="43.197777" lon="-2.279912">
        <ele>834.092</ele>
        <time>2021-04-06T10:56:33Z</time>
      </trkpt>
      <trkpt lat="43.197783" lon="-2.279947">
        <ele>834.111</ele>
        <time>2021-04-06T10:56:35Z</time>
      </trkpt>
      <trkpt lat="43.197783" lon="-2.279980">
        <ele>834.108</ele>
        <time>2021-04-06T10:56:37Z</time>
      </trkpt>
      <trkpt lat="43.197785" lon="-2.280022">
        <ele>834.070</ele>
        <time>2021-04-06T10:56:39Z</time>
      </trkpt>
      <trkpt lat="43.197794" lon="-2.280053">
        <ele>834.093</ele>
        <time>2021-04-06T10:56:41Z</time>
      </trkpt>
      <trkpt lat="43.197809" lon="-2.280080">
        <ele>834.264</ele>
        <time>2021-04-06T10:56:43Z</time>
      </trkpt>
      <trkpt lat="43.197828" lon="-2.280100">
        <ele>834.529</ele>
        <time>2021-04-06T10:56:45Z</time>
      </trkpt>
      <trkpt lat="43.197846" lon="-2.280119">
        <ele>834.825</ele>
        <time>2021-04-06T10:56:47Z</time>
      </trkpt>
      <trkpt lat="43.197871" lon="-2.280140">
        <ele>835.362</ele>
        <time>2021-04-06T10:56:49Z</time>
      </trkpt>
      <trkpt lat="43.197883" lon="-2.280149">
        <ele>835.615</ele>
        <time>2021-04-06T10:56:50Z</time>
      </trkpt>
      <trkpt lat="43.197901" lon="-2.280169">
        <ele>836.030</ele>
        <time>2021-04-06T10:56:52Z</time>
      </trkpt>
      <trkpt lat="43.197915" lon="-2.280191">
        <ele>836.323</ele>
        <time>2021-04-06T10:56:54Z</time>
      </trkpt>
      <trkpt lat="43.197933" lon="-2.280213">
        <ele>836.783</ele>
        <time>2021-04-06T10:56:56Z</time>
      </trkpt>
      <trkpt lat="43.197953" lon="-2.280229">
        <ele>837.211</ele>
        <time>2021-04-06T10:56:58Z</time>
      </trkpt>
      <trkpt lat="43.197962" lon="-2.280252">
        <ele>837.408</ele>
        <time>2021-04-06T10:57:00Z</time>
      </trkpt>
      <trkpt lat="43.197973" lon="-2.280280">
        <ele>837.639</ele>
        <time>2021-04-06T10:57:02Z</time>
      </trkpt>
      <trkpt lat="43.197983" lon="-2.280315">
        <ele>837.572</ele>
        <time>2021-04-06T10:57:04Z</time>
      </trkpt>
      <trkpt lat="43.197987" lon="-2.280357">
        <ele>837.263</ele>
        <time>2021-04-06T10:57:06Z</time>
      </trkpt>
      <trkpt lat="43.197996" lon="-2.280398">
        <ele>837.118</ele>
        <time>2021-04-06T10:57:08Z</time>
      </trkpt>
      <trkpt lat="43.198002" lon="-2.280436">
        <ele>836.924</ele>
        <time>2021-04-06T10:57:10Z</time>
      </trkpt>
      <trkpt lat="43.198006" lon="-2.280478">
        <ele>836.541</ele>
        <time>2021-04-06T10:57:12Z</time>
      </trkpt>
      <trkpt lat="43.198016" lon="-2.280518">
        <ele>836.474</ele>
        <time>2021-04-06T10:57:14Z</time>
      </trkpt>
      <trkpt lat="43.198031" lon="-2.280547">
        <ele>836.549</ele>
        <time>2021-04-06T10:57:16Z</time>
      </trkpt>
      <trkpt lat="43.198047" lon="-2.280578">
        <ele>836.334</ele>
        <time>2021-04-06T10:57:18Z</time>
      </trkpt>
      <trkpt lat="43.198061" lon="-2.280605">
        <ele>835.855</ele>
        <time>2021-04-06T10:57:20Z</time>
      </trkpt>
      <trkpt lat="43.198074" lon="-2.280634">
        <ele>835.010</ele>
        <time>2021-04-06T10:57:22Z</time>
      </trkpt>
      <trkpt lat="43.198090" lon="-2.280656">
        <ele>834.408</ele>
        <time>2021-04-06T10:57:24Z</time>
      </trkpt>
      <trkpt lat="43.198110" lon="-2.280674">
        <ele>833.990</ele>
        <time>2021-04-06T10:57:26Z</time>
      </trkpt>
      <trkpt lat="43.198122" lon="-2.280697">
        <ele>833.573</ele>
        <time>2021-04-06T10:57:28Z</time>
      </trkpt>
      <trkpt lat="43.198136" lon="-2.280721">
        <ele>833.194</ele>
        <time>2021-04-06T10:57:30Z</time>
      </trkpt>
      <trkpt lat="43.198150" lon="-2.280746">
        <ele>832.819</ele>
        <time>2021-04-06T10:57:32Z</time>
      </trkpt>
      <trkpt lat="43.198159" lon="-2.280778">
        <ele>832.625</ele>
        <time>2021-04-06T10:57:34Z</time>
      </trkpt>
      <trkpt lat="43.198172" lon="-2.280820">
        <ele>832.322</ele>
        <time>2021-04-06T10:57:36Z</time>
      </trkpt>
      <trkpt lat="43.198183" lon="-2.280837">
        <ele>832.355</ele>
        <time>2021-04-06T10:57:37Z</time>
      </trkpt>
      <trkpt lat="43.198197" lon="-2.280860">
        <ele>832.230</ele>
        <time>2021-04-06T10:57:39Z</time>
      </trkpt>
      <trkpt lat="43.198202" lon="-2.280883">
        <ele>832.119</ele>
        <time>2021-04-06T10:57:41Z</time>
      </trkpt>
      <trkpt lat="43.198204" lon="-2.280908">
        <ele>831.909</ele>
        <time>2021-04-06T10:57:43Z</time>
      </trkpt>
      <trkpt lat="43.198198" lon="-2.280899">
        <ele>831.919</ele>
        <time>2021-04-06T10:57:55Z</time>
      </trkpt>
      <trkpt lat="43.198192" lon="-2.280874">
        <ele>832.008</ele>
        <time>2021-04-06T10:59:23Z</time>
      </trkpt>
      <trkpt lat="43.198170" lon="-2.280855">
        <ele>831.928</ele>
        <time>2021-04-06T10:59:25Z</time>
      </trkpt>
      <trkpt lat="43.198150" lon="-2.280842">
        <ele>831.921</ele>
        <time>2021-04-06T10:59:27Z</time>
      </trkpt>
      <trkpt lat="43.198129" lon="-2.280831">
        <ele>831.882</ele>
        <time>2021-04-06T10:59:31Z</time>
      </trkpt>
      <trkpt lat="43.198110" lon="-2.280819">
        <ele>831.837</ele>
        <time>2021-04-06T10:59:33Z</time>
      </trkpt>
      <trkpt lat="43.198084" lon="-2.280809">
        <ele>831.713</ele>
        <time>2021-04-06T10:59:35Z</time>
      </trkpt>
      <trkpt lat="43.198051" lon="-2.280805">
        <ele>831.630</ele>
        <time>2021-04-06T10:59:37Z</time>
      </trkpt>
      <trkpt lat="43.198022" lon="-2.280822">
        <ele>830.983</ele>
        <time>2021-04-06T10:59:39Z</time>
      </trkpt>
      <trkpt lat="43.197995" lon="-2.280837">
        <ele>830.328</ele>
        <time>2021-04-06T10:59:41Z</time>
      </trkpt>
      <trkpt lat="43.197962" lon="-2.280848">
        <ele>829.713</ele>
        <time>2021-04-06T10:59:43Z</time>
      </trkpt>
      <trkpt lat="43.197945" lon="-2.280855">
        <ele>829.443</ele>
        <time>2021-04-06T10:59:44Z</time>
      </trkpt>
      <trkpt lat="43.197913" lon="-2.280873">
        <ele>828.907</ele>
        <time>2021-04-06T10:59:46Z</time>
      </trkpt>
      <trkpt lat="43.197896" lon="-2.280886">
        <ele>828.608</ele>
        <time>2021-04-06T10:59:47Z</time>
      </trkpt>
      <trkpt lat="43.197879" lon="-2.280904">
        <ele>828.368</ele>
        <time>2021-04-06T10:59:48Z</time>
      </trkpt>
      <trkpt lat="43.197865" lon="-2.280923">
        <ele>828.011</ele>
        <time>2021-04-06T10:59:49Z</time>
      </trkpt>
      <trkpt lat="43.197852" lon="-2.280944">
        <ele>827.882</ele>
        <time>2021-04-06T10:59:50Z</time>
      </trkpt>
      <trkpt lat="43.197840" lon="-2.280962">
        <ele>827.657</ele>
        <time>2021-04-06T10:59:51Z</time>
      </trkpt>
      <trkpt lat="43.197817" lon="-2.280991">
        <ele>827.453</ele>
        <time>2021-04-06T10:59:53Z</time>
      </trkpt>
      <trkpt lat="43.197795" lon="-2.281009">
        <ele>827.360</ele>
        <time>2021-04-06T10:59:55Z</time>
      </trkpt>
      <trkpt lat="43.197771" lon="-2.281051">
        <ele>827.043</ele>
        <time>2021-04-06T10:59:58Z</time>
      </trkpt>
      <trkpt lat="43.197755" lon="-2.281091">
        <ele>826.458</ele>
        <time>2021-04-06T11:00:00Z</time>
      </trkpt>
      <trkpt lat="43.197752" lon="-2.281133">
        <ele>826.457</ele>
        <time>2021-04-06T11:00:02Z</time>
      </trkpt>
      <trkpt lat="43.197751" lon="-2.281170">
        <ele>826.600</ele>
        <time>2021-04-06T11:00:04Z</time>
      </trkpt>
      <trkpt lat="43.197753" lon="-2.281206">
        <ele>826.920</ele>
        <time>2021-04-06T11:00:06Z</time>
      </trkpt>
      <trkpt lat="43.197757" lon="-2.281242">
        <ele>827.308</ele>
        <time>2021-04-06T11:00:08Z</time>
      </trkpt>
      <trkpt lat="43.197765" lon="-2.281267">
        <ele>827.732</ele>
        <time>2021-04-06T11:00:10Z</time>
      </trkpt>
      <trkpt lat="43.197761" lon="-2.281308">
        <ele>827.825</ele>
        <time>2021-04-06T11:00:12Z</time>
      </trkpt>
      <trkpt lat="43.197766" lon="-2.281344">
        <ele>828.346</ele>
        <time>2021-04-06T11:00:14Z</time>
      </trkpt>
      <trkpt lat="43.197771" lon="-2.281367">
        <ele>828.631</ele>
        <time>2021-04-06T11:00:16Z</time>
      </trkpt>
      <trkpt lat="43.197773" lon="-2.281398">
        <ele>828.987</ele>
        <time>2021-04-06T11:00:19Z</time>
      </trkpt>
      <trkpt lat="43.197777" lon="-2.281434">
        <ele>829.524</ele>
        <time>2021-04-06T11:00:22Z</time>
      </trkpt>
      <trkpt lat="43.197786" lon="-2.281462">
        <ele>829.757</ele>
        <time>2021-04-06T11:00:24Z</time>
      </trkpt>
      <trkpt lat="43.197795" lon="-2.281487">
        <ele>829.892</ele>
        <time>2021-04-06T11:00:26Z</time>
      </trkpt>
      <trkpt lat="43.197803" lon="-2.281515">
        <ele>830.069</ele>
        <time>2021-04-06T11:00:28Z</time>
      </trkpt>
      <trkpt lat="43.197805" lon="-2.281551">
        <ele>830.404</ele>
        <time>2021-04-06T11:00:30Z</time>
      </trkpt>
      <trkpt lat="43.197808" lon="-2.281587">
        <ele>830.724</ele>
        <time>2021-04-06T11:00:32Z</time>
      </trkpt>
      <trkpt lat="43.197809" lon="-2.281624">
        <ele>831.108</ele>
        <time>2021-04-06T11:00:34Z</time>
      </trkpt>
      <trkpt lat="43.197814" lon="-2.281661">
        <ele>831.433</ele>
        <time>2021-04-06T11:00:36Z</time>
      </trkpt>
      <trkpt lat="43.197820" lon="-2.281697">
        <ele>831.226</ele>
        <time>2021-04-06T11:00:38Z</time>
      </trkpt>
      <trkpt lat="43.197813" lon="-2.281732">
        <ele>831.187</ele>
        <time>2021-04-06T11:00:40Z</time>
      </trkpt>
      <trkpt lat="43.197799" lon="-2.281767">
        <ele>831.032</ele>
        <time>2021-04-06T11:00:42Z</time>
      </trkpt>
      <trkpt lat="43.197787" lon="-2.281800">
        <ele>830.998</ele>
        <time>2021-04-06T11:00:44Z</time>
      </trkpt>
      <trkpt lat="43.197779" lon="-2.281830">
        <ele>830.815</ele>
        <time>2021-04-06T11:00:46Z</time>
      </trkpt>
      <trkpt lat="43.197774" lon="-2.281859">
        <ele>830.568</ele>
        <time>2021-04-06T11:00:48Z</time>
      </trkpt>
      <trkpt lat="43.197763" lon="-2.281892">
        <ele>829.863</ele>
        <time>2021-04-06T11:00:50Z</time>
      </trkpt>
      <trkpt lat="43.197758" lon="-2.281920">
        <ele>829.417</ele>
        <time>2021-04-06T11:00:52Z</time>
      </trkpt>
      <trkpt lat="43.197754" lon="-2.281951">
        <ele>829.287</ele>
        <time>2021-04-06T11:00:54Z</time>
      </trkpt>
      <trkpt lat="43.197743" lon="-2.281986">
        <ele>829.215</ele>
        <time>2021-04-06T11:00:56Z</time>
      </trkpt>
      <trkpt lat="43.197741" lon="-2.282019">
        <ele>829.408</ele>
        <time>2021-04-06T11:00:58Z</time>
      </trkpt>
      <trkpt lat="43.197742" lon="-2.282051">
        <ele>829.858</ele>
        <time>2021-04-06T11:01:00Z</time>
      </trkpt>
      <trkpt lat="43.197746" lon="-2.282083">
        <ele>830.381</ele>
        <time>2021-04-06T11:01:02Z</time>
      </trkpt>
      <trkpt lat="43.197746" lon="-2.282112">
        <ele>830.692</ele>
        <time>2021-04-06T11:01:04Z</time>
      </trkpt>
      <trkpt lat="43.197751" lon="-2.282137">
        <ele>831.067</ele>
        <time>2021-04-06T11:01:06Z</time>
      </trkpt>
      <trkpt lat="43.197758" lon="-2.282161">
        <ele>831.663</ele>
        <time>2021-04-06T11:01:08Z</time>
      </trkpt>
      <trkpt lat="43.197765" lon="-2.282183">
        <ele>832.130</ele>
        <time>2021-04-06T11:01:10Z</time>
      </trkpt>
      <trkpt lat="43.197774" lon="-2.282208">
        <ele>832.753</ele>
        <time>2021-04-06T11:01:12Z</time>
      </trkpt>
      <trkpt lat="43.197785" lon="-2.282236">
        <ele>833.218</ele>
        <time>2021-04-06T11:01:14Z</time>
      </trkpt>
      <trkpt lat="43.197799" lon="-2.282262">
        <ele>833.649</ele>
        <time>2021-04-06T11:01:16Z</time>
      </trkpt>
      <trkpt lat="43.197808" lon="-2.282287">
        <ele>834.002</ele>
        <time>2021-04-06T11:01:18Z</time>
      </trkpt>
      <trkpt lat="43.197814" lon="-2.282312">
        <ele>834.422</ele>
        <time>2021-04-06T11:01:20Z</time>
      </trkpt>
      <trkpt lat="43.197820" lon="-2.282337">
        <ele>834.908</ele>
        <time>2021-04-06T11:01:22Z</time>
      </trkpt>
      <trkpt lat="43.197827" lon="-2.282360">
        <ele>835.391</ele>
        <time>2021-04-06T11:01:24Z</time>
      </trkpt>
      <trkpt lat="43.197830" lon="-2.282390">
        <ele>835.964</ele>
        <time>2021-04-06T11:01:26Z</time>
      </trkpt>
      <trkpt lat="43.197829" lon="-2.282425">
        <ele>836.535</ele>
        <time>2021-04-06T11:01:29Z</time>
      </trkpt>
      <trkpt lat="43.197835" lon="-2.282461">
        <ele>837.290</ele>
        <time>2021-04-06T11:01:32Z</time>
      </trkpt>
      <trkpt lat="43.197842" lon="-2.282490">
        <ele>837.826</ele>
        <time>2021-04-06T11:01:34Z</time>
      </trkpt>
      <trkpt lat="43.197843" lon="-2.282525">
        <ele>838.293</ele>
        <time>2021-04-06T11:01:36Z</time>
      </trkpt>
      <trkpt lat="43.197844" lon="-2.282563">
        <ele>838.576</ele>
        <time>2021-04-06T11:01:38Z</time>
      </trkpt>
      <trkpt lat="43.197849" lon="-2.282596">
        <ele>838.741</ele>
        <time>2021-04-06T11:01:40Z</time>
      </trkpt>
      <trkpt lat="43.197850" lon="-2.282628">
        <ele>838.948</ele>
        <time>2021-04-06T11:01:42Z</time>
      </trkpt>
      <trkpt lat="43.197853" lon="-2.282662">
        <ele>839.261</ele>
        <time>2021-04-06T11:01:44Z</time>
      </trkpt>
      <trkpt lat="43.197862" lon="-2.282694">
        <ele>839.417</ele>
        <time>2021-04-06T11:01:46Z</time>
      </trkpt>
      <trkpt lat="43.197877" lon="-2.282719">
        <ele>839.608</ele>
        <time>2021-04-06T11:01:48Z</time>
      </trkpt>
      <trkpt lat="43.197886" lon="-2.282746">
        <ele>839.871</ele>
        <time>2021-04-06T11:01:50Z</time>
      </trkpt>
      <trkpt lat="43.197882" lon="-2.282774">
        <ele>840.044</ele>
        <time>2021-04-06T11:01:52Z</time>
      </trkpt>
      <trkpt lat="43.197871" lon="-2.282805">
        <ele>840.675</ele>
        <time>2021-04-06T11:01:54Z</time>
      </trkpt>
      <trkpt lat="43.197868" lon="-2.282833">
        <ele>841.160</ele>
        <time>2021-04-06T11:01:56Z</time>
      </trkpt>
      <trkpt lat="43.197868" lon="-2.282861">
        <ele>841.786</ele>
        <time>2021-04-06T11:01:58Z</time>
      </trkpt>
      <trkpt lat="43.197870" lon="-2.282897">
        <ele>842.413</ele>
        <time>2021-04-06T11:02:01Z</time>
      </trkpt>
      <trkpt lat="43.197871" lon="-2.282924">
        <ele>843.056</ele>
        <time>2021-04-06T11:02:03Z</time>
      </trkpt>
      <trkpt lat="43.197873" lon="-2.282950">
        <ele>843.521</ele>
        <time>2021-04-06T11:02:05Z</time>
      </trkpt>
      <trkpt lat="43.197875" lon="-2.282976">
        <ele>844.143</ele>
        <time>2021-04-06T11:02:07Z</time>
      </trkpt>
      <trkpt lat="43.197876" lon="-2.283004">
        <ele>844.764</ele>
        <time>2021-04-06T11:02:09Z</time>
      </trkpt>
      <trkpt lat="43.197878" lon="-2.283029">
        <ele>845.210</ele>
        <time>2021-04-06T11:02:11Z</time>
      </trkpt>
      <trkpt lat="43.197881" lon="-2.283062">
        <ele>846.008</ele>
        <time>2021-04-06T11:02:14Z</time>
      </trkpt>
      <trkpt lat="43.197881" lon="-2.283088">
        <ele>846.421</ele>
        <time>2021-04-06T11:02:16Z</time>
      </trkpt>
      <trkpt lat="43.197884" lon="-2.283112">
        <ele>846.984</ele>
        <time>2021-04-06T11:02:18Z</time>
      </trkpt>
      <trkpt lat="43.197888" lon="-2.283138">
        <ele>847.555</ele>
        <time>2021-04-06T11:02:20Z</time>
      </trkpt>
      <trkpt lat="43.197894" lon="-2.283168">
        <ele>848.210</ele>
        <time>2021-04-06T11:02:23Z</time>
      </trkpt>
      <trkpt lat="43.197905" lon="-2.283192">
        <ele>848.936</ele>
        <time>2021-04-06T11:02:26Z</time>
      </trkpt>
      <trkpt lat="43.197921" lon="-2.283206">
        <ele>849.623</ele>
        <time>2021-04-06T11:02:28Z</time>
      </trkpt>
      <trkpt lat="43.197927" lon="-2.283230">
        <ele>850.316</ele>
        <time>2021-04-06T11:02:31Z</time>
      </trkpt>
      <trkpt lat="43.197937" lon="-2.283255">
        <ele>851.151</ele>
        <time>2021-04-06T11:02:36Z</time>
      </trkpt>
      <trkpt lat="43.197954" lon="-2.283263">
        <ele>851.897</ele>
        <time>2021-04-06T11:02:44Z</time>
      </trkpt>
      <trkpt lat="43.197969" lon="-2.283278">
        <ele>852.623</ele>
        <time>2021-04-06T11:02:49Z</time>
      </trkpt>
      <trkpt lat="43.197980" lon="-2.283299">
        <ele>853.525</ele>
        <time>2021-04-06T11:02:52Z</time>
      </trkpt>
      <trkpt lat="43.197994" lon="-2.283315">
        <ele>854.308</ele>
        <time>2021-04-06T11:02:55Z</time>
      </trkpt>
      <trkpt lat="43.198011" lon="-2.283338">
        <ele>855.436</ele>
        <time>2021-04-06T11:02:59Z</time>
      </trkpt>
      <trkpt lat="43.198020" lon="-2.283361">
        <ele>855.949</ele>
        <time>2021-04-06T11:03:01Z</time>
      </trkpt>
      <trkpt lat="43.198033" lon="-2.283386">
        <ele>856.640</ele>
        <time>2021-04-06T11:03:03Z</time>
      </trkpt>
      <trkpt lat="43.198045" lon="-2.283409">
        <ele>857.235</ele>
        <time>2021-04-06T11:03:05Z</time>
      </trkpt>
      <trkpt lat="43.198060" lon="-2.283429">
        <ele>857.851</ele>
        <time>2021-04-06T11:03:07Z</time>
      </trkpt>
      <trkpt lat="43.198078" lon="-2.283447">
        <ele>858.498</ele>
        <time>2021-04-06T11:03:09Z</time>
      </trkpt>
      <trkpt lat="43.198099" lon="-2.283463">
        <ele>859.171</ele>
        <time>2021-04-06T11:03:11Z</time>
      </trkpt>
      <trkpt lat="43.198112" lon="-2.283487">
        <ele>859.746</ele>
        <time>2021-04-06T11:03:13Z</time>
      </trkpt>
      <trkpt lat="43.198116" lon="-2.283515">
        <ele>860.034</ele>
        <time>2021-04-06T11:03:15Z</time>
      </trkpt>
      <trkpt lat="43.198119" lon="-2.283549">
        <ele>860.555</ele>
        <time>2021-04-06T11:03:17Z</time>
      </trkpt>
      <trkpt lat="43.198122" lon="-2.283582">
        <ele>860.910</ele>
        <time>2021-04-06T11:03:19Z</time>
      </trkpt>
      <trkpt lat="43.198134" lon="-2.283615">
        <ele>861.608</ele>
        <time>2021-04-06T11:03:21Z</time>
      </trkpt>
      <trkpt lat="43.198151" lon="-2.283635">
        <ele>862.360</ele>
        <time>2021-04-06T11:03:23Z</time>
      </trkpt>
      <trkpt lat="43.198163" lon="-2.283652">
        <ele>862.833</ele>
        <time>2021-04-06T11:03:25Z</time>
      </trkpt>
      <trkpt lat="43.198176" lon="-2.283670">
        <ele>863.484</ele>
        <time>2021-04-06T11:03:27Z</time>
      </trkpt>
      <trkpt lat="43.198196" lon="-2.283690">
        <ele>864.349</ele>
        <time>2021-04-06T11:03:30Z</time>
      </trkpt>
      <trkpt lat="43.198206" lon="-2.283710">
        <ele>864.855</ele>
        <time>2021-04-06T11:03:32Z</time>
      </trkpt>
      <trkpt lat="43.198217" lon="-2.283739">
        <ele>865.422</ele>
        <time>2021-04-06T11:03:34Z</time>
      </trkpt>
      <trkpt lat="43.198226" lon="-2.283764">
        <ele>866.025</ele>
        <time>2021-04-06T11:03:36Z</time>
      </trkpt>
      <trkpt lat="43.198234" lon="-2.283785">
        <ele>866.480</ele>
        <time>2021-04-06T11:03:38Z</time>
      </trkpt>
      <trkpt lat="43.198240" lon="-2.283815">
        <ele>866.949</ele>
        <time>2021-04-06T11:03:40Z</time>
      </trkpt>
      <trkpt lat="43.198247" lon="-2.283841">
        <ele>867.402</ele>
        <time>2021-04-06T11:03:42Z</time>
      </trkpt>
      <trkpt lat="43.198247" lon="-2.283874">
        <ele>867.722</ele>
        <time>2021-04-06T11:03:44Z</time>
      </trkpt>
      <trkpt lat="43.198247" lon="-2.283910">
        <ele>868.208</ele>
        <time>2021-04-06T11:03:46Z</time>
      </trkpt>
      <trkpt lat="43.198247" lon="-2.283944">
        <ele>868.731</ele>
        <time>2021-04-06T11:03:48Z</time>
      </trkpt>
      <trkpt lat="43.198252" lon="-2.283974">
        <ele>869.434</ele>
        <time>2021-04-06T11:03:50Z</time>
      </trkpt>
      <trkpt lat="43.198258" lon="-2.284001">
        <ele>870.075</ele>
        <time>2021-04-06T11:03:52Z</time>
      </trkpt>
      <trkpt lat="43.198263" lon="-2.284027">
        <ele>870.640</ele>
        <time>2021-04-06T11:03:54Z</time>
      </trkpt>
      <trkpt lat="43.198268" lon="-2.284053">
        <ele>871.116</ele>
        <time>2021-04-06T11:03:56Z</time>
      </trkpt>
      <trkpt lat="43.198269" lon="-2.284080">
        <ele>871.623</ele>
        <time>2021-04-06T11:03:58Z</time>
      </trkpt>
      <trkpt lat="43.198266" lon="-2.284114">
        <ele>872.096</ele>
        <time>2021-04-06T11:04:00Z</time>
      </trkpt>
      <trkpt lat="43.198261" lon="-2.284142">
        <ele>872.311</ele>
        <time>2021-04-06T11:04:02Z</time>
      </trkpt>
      <trkpt lat="43.198251" lon="-2.284174">
        <ele>872.519</ele>
        <time>2021-04-06T11:04:04Z</time>
      </trkpt>
      <trkpt lat="43.198249" lon="-2.284201">
        <ele>873.109</ele>
        <time>2021-04-06T11:04:06Z</time>
      </trkpt>
      <trkpt lat="43.198245" lon="-2.284230">
        <ele>873.719</ele>
        <time>2021-04-06T11:04:09Z</time>
      </trkpt>
      <trkpt lat="43.198254" lon="-2.284245">
        <ele>874.308</ele>
        <time>2021-04-06T11:04:11Z</time>
      </trkpt>
      <trkpt lat="43.198260" lon="-2.284272">
        <ele>875.268</ele>
        <time>2021-04-06T11:04:15Z</time>
      </trkpt>
      <trkpt lat="43.198266" lon="-2.284298">
        <ele>876.031</ele>
        <time>2021-04-06T11:04:18Z</time>
      </trkpt>
      <trkpt lat="43.198270" lon="-2.284324">
        <ele>876.812</ele>
        <time>2021-04-06T11:04:21Z</time>
      </trkpt>
      <trkpt lat="43.198276" lon="-2.284348">
        <ele>877.637</ele>
        <time>2021-04-06T11:04:24Z</time>
      </trkpt>
      <trkpt lat="43.198278" lon="-2.284376">
        <ele>878.353</ele>
        <time>2021-04-06T11:04:27Z</time>
      </trkpt>
      <trkpt lat="43.198287" lon="-2.284402">
        <ele>879.390</ele>
        <time>2021-04-06T11:04:30Z</time>
      </trkpt>
      <trkpt lat="43.198300" lon="-2.284425">
        <ele>880.353</ele>
        <time>2021-04-06T11:04:33Z</time>
      </trkpt>
      <trkpt lat="43.198307" lon="-2.284455">
        <ele>881.158</ele>
        <time>2021-04-06T11:04:36Z</time>
      </trkpt>
      <trkpt lat="43.198317" lon="-2.284474">
        <ele>881.681</ele>
        <time>2021-04-06T11:04:39Z</time>
      </trkpt>
      <trkpt lat="43.198329" lon="-2.284491">
        <ele>882.261</ele>
        <time>2021-04-06T11:04:41Z</time>
      </trkpt>
      <trkpt lat="43.198349" lon="-2.284498">
        <ele>883.117</ele>
        <time>2021-04-06T11:04:44Z</time>
      </trkpt>
      <trkpt lat="43.198367" lon="-2.284514">
        <ele>884.008</ele>
        <time>2021-04-06T11:04:47Z</time>
      </trkpt>
      <trkpt lat="43.198380" lon="-2.284531">
        <ele>884.745</ele>
        <time>2021-04-06T11:04:50Z</time>
      </trkpt>
      <trkpt lat="43.198395" lon="-2.284551">
        <ele>885.428</ele>
        <time>2021-04-06T11:04:54Z</time>
      </trkpt>
      <trkpt lat="43.198409" lon="-2.284557">
        <ele>886.189</ele>
        <time>2021-04-06T11:04:57Z</time>
      </trkpt>
      <trkpt lat="43.198425" lon="-2.284567">
        <ele>886.874</ele>
        <time>2021-04-06T11:05:02Z</time>
      </trkpt>
      <trkpt lat="43.198443" lon="-2.284575">
        <ele>887.570</ele>
        <time>2021-04-06T11:05:06Z</time>
      </trkpt>
      <trkpt lat="43.198446" lon="-2.284589">
        <ele>887.737</ele>
        <time>2021-04-06T11:05:09Z</time>
      </trkpt>
      <trkpt lat="43.198455" lon="-2.284613">
        <ele>888.060</ele>
        <time>2021-04-06T11:05:12Z</time>
      </trkpt>
      <trkpt lat="43.198451" lon="-2.284636">
        <ele>887.885</ele>
        <time>2021-04-06T11:05:18Z</time>
      </trkpt>
      <trkpt lat="43.198469" lon="-2.284642">
        <ele>888.574</ele>
        <time>2021-04-06T11:05:21Z</time>
      </trkpt>
      <trkpt lat="43.198487" lon="-2.284637">
        <ele>889.256</ele>
        <time>2021-04-06T11:05:27Z</time>
      </trkpt>
      <trkpt lat="43.198508" lon="-2.284625">
        <ele>890.121</ele>
        <time>2021-04-06T11:05:30Z</time>
      </trkpt>
      <trkpt lat="43.198531" lon="-2.284622">
        <ele>891.008</ele>
        <time>2021-04-06T11:05:33Z</time>
      </trkpt>
      <trkpt lat="43.198550" lon="-2.284626">
        <ele>891.764</ele>
        <time>2021-04-06T11:05:35Z</time>
      </trkpt>
      <trkpt lat="43.198550" lon="-2.284593">
        <ele>891.987</ele>
        <time>2021-04-06T11:05:40Z</time>
      </trkpt>
      <trkpt lat="43.198533" lon="-2.284569">
        <ele>891.318</ele>
        <time>2021-04-06T11:05:43Z</time>
      </trkpt>
      <trkpt lat="43.198513" lon="-2.284559">
        <ele>890.533</ele>
        <time>2021-04-06T11:05:46Z</time>
      </trkpt>
      <trkpt lat="43.198530" lon="-2.284554">
        <ele>891.329</ele>
        <time>2021-04-06T11:05:50Z</time>
      </trkpt>
      <trkpt lat="43.198554" lon="-2.284550">
        <ele>892.496</ele>
        <time>2021-04-06T11:05:52Z</time>
      </trkpt>
      <trkpt lat="43.198577" lon="-2.284546">
        <ele>893.449</ele>
        <time>2021-04-06T11:05:55Z</time>
      </trkpt>
      <trkpt lat="43.198596" lon="-2.284554">
        <ele>894.234</ele>
        <time>2021-04-06T11:05:57Z</time>
      </trkpt>
      <trkpt lat="43.198616" lon="-2.284557">
        <ele>894.973</ele>
        <time>2021-04-06T11:05:59Z</time>
      </trkpt>
      <trkpt lat="43.198640" lon="-2.284541">
        <ele>895.485</ele>
        <time>2021-04-06T11:06:02Z</time>
      </trkpt>
      <trkpt lat="43.198659" lon="-2.284530">
        <ele>895.913</ele>
        <time>2021-04-06T11:06:04Z</time>
      </trkpt>
      <trkpt lat="43.198684" lon="-2.284517">
        <ele>896.508</ele>
        <time>2021-04-06T11:06:06Z</time>
      </trkpt>
      <trkpt lat="43.198709" lon="-2.284514">
        <ele>897.044</ele>
        <time>2021-04-06T11:06:08Z</time>
      </trkpt>
      <trkpt lat="43.198732" lon="-2.284499">
        <ele>897.717</ele>
        <time>2021-04-06T11:06:10Z</time>
      </trkpt>
      <trkpt lat="43.198750" lon="-2.284493">
        <ele>898.158</ele>
        <time>2021-04-06T11:06:12Z</time>
      </trkpt>
      <trkpt lat="43.198774" lon="-2.284495">
        <ele>898.593</ele>
        <time>2021-04-06T11:06:14Z</time>
      </trkpt>
      <trkpt lat="43.198796" lon="-2.284494">
        <ele>899.039</ele>
        <time>2021-04-06T11:06:16Z</time>
      </trkpt>
      <trkpt lat="43.198819" lon="-2.284482">
        <ele>899.796</ele>
        <time>2021-04-06T11:06:19Z</time>
      </trkpt>
      <trkpt lat="43.198826" lon="-2.284476">
        <ele>899.939</ele>
        <time>2021-04-06T11:06:20Z</time>
      </trkpt>
      <trkpt lat="43.198841" lon="-2.284444">
        <ele>901.064</ele>
        <time>2021-04-06T11:06:23Z</time>
      </trkpt>
      <trkpt lat="43.198854" lon="-2.284430">
        <ele>901.337</ele>
        <time>2021-04-06T11:06:25Z</time>
      </trkpt>
      <trkpt lat="43.198872" lon="-2.284424">
        <ele>901.749</ele>
        <time>2021-04-06T11:06:28Z</time>
      </trkpt>
      <trkpt lat="43.198887" lon="-2.284404">
        <ele>902.213</ele>
        <time>2021-04-06T11:06:32Z</time>
      </trkpt>
      <trkpt lat="43.198898" lon="-2.284382">
        <ele>902.208</ele>
        <time>2021-04-06T11:06:36Z</time>
      </trkpt>
      <trkpt lat="43.198904" lon="-2.284347">
        <ele>902.330</ele>
        <time>2021-04-06T11:06:38Z</time>
      </trkpt>
      <trkpt lat="43.198908" lon="-2.284324">
        <ele>902.423</ele>
        <time>2021-04-06T11:06:40Z</time>
      </trkpt>
      <trkpt lat="43.198913" lon="-2.284298">
        <ele>902.434</ele>
        <time>2021-04-06T11:06:44Z</time>
      </trkpt>
      <trkpt lat="43.198913" lon="-2.284274">
        <ele>902.629</ele>
        <time>2021-04-06T11:06:46Z</time>
      </trkpt>
      <trkpt lat="43.198913" lon="-2.284238">
        <ele>902.955</ele>
        <time>2021-04-06T11:06:49Z</time>
      </trkpt>
      <trkpt lat="43.198922" lon="-2.284211">
        <ele>902.822</ele>
        <time>2021-04-06T11:06:52Z</time>
      </trkpt>
      <trkpt lat="43.198930" lon="-2.284183">
        <ele>902.885</ele>
        <time>2021-04-06T11:06:55Z</time>
      </trkpt>
      <trkpt lat="43.198933" lon="-2.284153">
        <ele>902.620</ele>
        <time>2021-04-06T11:06:58Z</time>
      </trkpt>
      <trkpt lat="43.198935" lon="-2.284143">
        <ele>902.358</ele>
        <time>2021-04-06T11:07:01Z</time>
      </trkpt>
      <trkpt lat="43.198944" lon="-2.284140">
        <ele>902.052</ele>
        <time>2021-04-06T11:07:32Z</time>
      </trkpt>
      <trkpt lat="43.198942" lon="-2.284142">
        <ele>902.117</ele>
        <time>2021-04-06T11:07:37Z</time>
      </trkpt>
      <trkpt lat="43.198945" lon="-2.284134">
        <ele>901.808</ele>
        <time>2021-04-06T11:08:14Z</time>
      </trkpt>
      <trkpt lat="43.198950" lon="-2.284141">
        <ele>901.922</ele>
        <time>2021-04-06T11:08:28Z</time>
      </trkpt>
      <trkpt lat="43.198953" lon="-2.284133">
        <ele>901.615</ele>
        <time>2021-04-06T11:08:43Z</time>
      </trkpt>
      <trkpt lat="43.198952" lon="-2.284134">
        <ele>901.786</ele>
        <time>2021-04-06T11:08:50Z</time>
      </trkpt>
      <trkpt lat="43.198955" lon="-2.284131">
        <ele>901.551</ele>
        <time>2021-04-06T11:08:57Z</time>
      </trkpt>
      <trkpt lat="43.198961" lon="-2.284152">
        <ele>901.867</ele>
        <time>2021-04-06T11:10:15Z</time>
      </trkpt>
      <trkpt lat="43.198970" lon="-2.284180">
        <ele>901.994</ele>
        <time>2021-04-06T11:10:18Z</time>
      </trkpt>
      <trkpt lat="43.198971" lon="-2.284192">
        <ele>901.747</ele>
        <time>2021-04-06T11:10:19Z</time>
      </trkpt>
      <trkpt lat="43.198979" lon="-2.284215">
        <ele>901.472</ele>
        <time>2021-04-06T11:10:21Z</time>
      </trkpt>
      <trkpt lat="43.198999" lon="-2.284223">
        <ele>900.819</ele>
        <time>2021-04-06T11:10:24Z</time>
      </trkpt>
      <trkpt lat="43.199023" lon="-2.284235">
        <ele>900.109</ele>
        <time>2021-04-06T11:10:28Z</time>
      </trkpt>
      <trkpt lat="43.199040" lon="-2.284250">
        <ele>899.619</ele>
        <time>2021-04-06T11:10:31Z</time>
      </trkpt>
      <trkpt lat="43.199050" lon="-2.284264">
        <ele>899.208</ele>
        <time>2021-04-06T11:10:33Z</time>
      </trkpt>
      <trkpt lat="43.199061" lon="-2.284285">
        <ele>898.868</ele>
        <time>2021-04-06T11:10:35Z</time>
      </trkpt>
      <trkpt lat="43.199080" lon="-2.284302">
        <ele>898.221</ele>
        <time>2021-04-06T11:10:37Z</time>
      </trkpt>
      <trkpt lat="43.199095" lon="-2.284292">
        <ele>897.972</ele>
        <time>2021-04-06T11:10:39Z</time>
      </trkpt>
      <trkpt lat="43.199110" lon="-2.284284">
        <ele>897.667</ele>
        <time>2021-04-06T11:10:41Z</time>
      </trkpt>
      <trkpt lat="43.199131" lon="-2.284291">
        <ele>897.043</ele>
        <time>2021-04-06T11:10:44Z</time>
      </trkpt>
      <trkpt lat="43.199147" lon="-2.284285">
        <ele>896.630</ele>
        <time>2021-04-06T11:10:46Z</time>
      </trkpt>
      <trkpt lat="43.199165" lon="-2.284278">
        <ele>896.263</ele>
        <time>2021-04-06T11:10:48Z</time>
      </trkpt>
      <trkpt lat="43.199186" lon="-2.284271">
        <ele>895.848</ele>
        <time>2021-04-06T11:10:50Z</time>
      </trkpt>
      <trkpt lat="43.199203" lon="-2.284273">
        <ele>895.583</ele>
        <time>2021-04-06T11:10:52Z</time>
      </trkpt>
      <trkpt lat="43.199226" lon="-2.284292">
        <ele>894.925</ele>
        <time>2021-04-06T11:10:54Z</time>
      </trkpt>
      <trkpt lat="43.199241" lon="-2.284319">
        <ele>894.517</ele>
        <time>2021-04-06T11:10:56Z</time>
      </trkpt>
      <trkpt lat="43.199244" lon="-2.284348">
        <ele>894.308</ele>
        <time>2021-04-06T11:10:58Z</time>
      </trkpt>
      <trkpt lat="43.199246" lon="-2.284363">
        <ele>894.215</ele>
        <time>2021-04-06T11:10:59Z</time>
      </trkpt>
      <trkpt lat="43.199259" lon="-2.284401">
        <ele>893.888</ele>
        <time>2021-04-06T11:11:01Z</time>
      </trkpt>
      <trkpt lat="43.199273" lon="-2.284439">
        <ele>893.519</ele>
        <time>2021-04-06T11:11:03Z</time>
      </trkpt>
      <trkpt lat="43.199287" lon="-2.284478">
        <ele>892.714</ele>
        <time>2021-04-06T11:11:05Z</time>
      </trkpt>
      <trkpt lat="43.199295" lon="-2.284520">
        <ele>891.990</ele>
        <time>2021-04-06T11:11:07Z</time>
      </trkpt>
      <trkpt lat="43.199302" lon="-2.284565">
        <ele>891.187</ele>
        <time>2021-04-06T11:11:09Z</time>
      </trkpt>
      <trkpt lat="43.199309" lon="-2.284588">
        <ele>890.680</ele>
        <time>2021-04-06T11:11:10Z</time>
      </trkpt>
      <trkpt lat="43.199315" lon="-2.284611">
        <ele>890.295</ele>
        <time>2021-04-06T11:11:11Z</time>
      </trkpt>
      <trkpt lat="43.199323" lon="-2.284635">
        <ele>889.845</ele>
        <time>2021-04-06T11:11:12Z</time>
      </trkpt>
      <trkpt lat="43.199330" lon="-2.284659">
        <ele>889.447</ele>
        <time>2021-04-06T11:11:13Z</time>
      </trkpt>
      <trkpt lat="43.199337" lon="-2.284684">
        <ele>889.011</ele>
        <time>2021-04-06T11:11:14Z</time>
      </trkpt>
      <trkpt lat="43.199340" lon="-2.284714">
        <ele>888.508</ele>
        <time>2021-04-06T11:11:15Z</time>
      </trkpt>
      <trkpt lat="43.199343" lon="-2.284747">
        <ele>888.061</ele>
        <time>2021-04-06T11:11:16Z</time>
      </trkpt>
      <trkpt lat="43.199347" lon="-2.284780">
        <ele>887.464</ele>
        <time>2021-04-06T11:11:17Z</time>
      </trkpt>
      <trkpt lat="43.199352" lon="-2.284813">
        <ele>886.995</ele>
        <time>2021-04-06T11:11:18Z</time>
      </trkpt>
      <trkpt lat="43.199353" lon="-2.284845">
        <ele>886.480</ele>
        <time>2021-04-06T11:11:19Z</time>
      </trkpt>
      <trkpt lat="43.199353" lon="-2.284880">
        <ele>885.966</ele>
        <time>2021-04-06T11:11:20Z</time>
      </trkpt>
      <trkpt lat="43.199353" lon="-2.284915">
        <ele>885.313</ele>
        <time>2021-04-06T11:11:21Z</time>
      </trkpt>
      <trkpt lat="43.199353" lon="-2.284948">
        <ele>884.876</ele>
        <time>2021-04-06T11:11:22Z</time>
      </trkpt>
      <trkpt lat="43.199354" lon="-2.284982">
        <ele>884.351</ele>
        <time>2021-04-06T11:11:23Z</time>
      </trkpt>
      <trkpt lat="43.199356" lon="-2.285015">
        <ele>883.879</ele>
        <time>2021-04-06T11:11:24Z</time>
      </trkpt>
      <trkpt lat="43.199359" lon="-2.285049">
        <ele>883.405</ele>
        <time>2021-04-06T11:11:25Z</time>
      </trkpt>
      <trkpt lat="43.199364" lon="-2.285079">
        <ele>883.025</ele>
        <time>2021-04-06T11:11:26Z</time>
      </trkpt>
      <trkpt lat="43.199371" lon="-2.285110">
        <ele>882.608</ele>
        <time>2021-04-06T11:11:27Z</time>
      </trkpt>
      <trkpt lat="43.199377" lon="-2.285141">
        <ele>882.254</ele>
        <time>2021-04-06T11:11:28Z</time>
      </trkpt>
      <trkpt lat="43.199382" lon="-2.285168">
        <ele>881.937</ele>
        <time>2021-04-06T11:11:29Z</time>
      </trkpt>
      <trkpt lat="43.199386" lon="-2.285195">
        <ele>881.638</ele>
        <time>2021-04-06T11:11:30Z</time>
      </trkpt>
      <trkpt lat="43.199392" lon="-2.285221">
        <ele>881.383</ele>
        <time>2021-04-06T11:11:31Z</time>
      </trkpt>
      <trkpt lat="43.199396" lon="-2.285252">
        <ele>881.069</ele>
        <time>2021-04-06T11:11:32Z</time>
      </trkpt>
      <trkpt lat="43.199397" lon="-2.285288">
        <ele>880.696</ele>
        <time>2021-04-06T11:11:33Z</time>
      </trkpt>
      <trkpt lat="43.199400" lon="-2.285322">
        <ele>880.339</ele>
        <time>2021-04-06T11:11:34Z</time>
      </trkpt>
      <trkpt lat="43.199397" lon="-2.285350">
        <ele>880.054</ele>
        <time>2021-04-06T11:11:35Z</time>
      </trkpt>
      <trkpt lat="43.199395" lon="-2.285375">
        <ele>879.826</ele>
        <time>2021-04-06T11:11:36Z</time>
      </trkpt>
      <trkpt lat="43.199399" lon="-2.285421">
        <ele>879.547</ele>
        <time>2021-04-06T11:11:38Z</time>
      </trkpt>
      <trkpt lat="43.199408" lon="-2.285465">
        <ele>879.211</ele>
        <time>2021-04-06T11:11:40Z</time>
      </trkpt>
      <trkpt lat="43.199415" lon="-2.285492">
        <ele>879.108</ele>
        <time>2021-04-06T11:11:41Z</time>
      </trkpt>
      <trkpt lat="43.199426" lon="-2.285533">
        <ele>878.959</ele>
        <time>2021-04-06T11:11:43Z</time>
      </trkpt>
      <trkpt lat="43.199433" lon="-2.285570">
        <ele>878.972</ele>
        <time>2021-04-06T11:11:46Z</time>
      </trkpt>
      <trkpt lat="43.199444" lon="-2.285605">
        <ele>879.283</ele>
        <time>2021-04-06T11:11:48Z</time>
      </trkpt>
      <trkpt lat="43.199454" lon="-2.285629">
        <ele>879.768</ele>
        <time>2021-04-06T11:11:49Z</time>
      </trkpt>
      <trkpt lat="43.199464" lon="-2.285675">
        <ele>880.314</ele>
        <time>2021-04-06T11:11:51Z</time>
      </trkpt>
      <trkpt lat="43.199472" lon="-2.285711">
        <ele>880.961</ele>
        <time>2021-04-06T11:11:53Z</time>
      </trkpt>
      <trkpt lat="43.199477" lon="-2.285745">
        <ele>881.274</ele>
        <time>2021-04-06T11:11:55Z</time>
      </trkpt>
      <trkpt lat="43.199484" lon="-2.285780">
        <ele>881.799</ele>
        <time>2021-04-06T11:11:57Z</time>
      </trkpt>
      <trkpt lat="43.199498" lon="-2.285810">
        <ele>882.662</ele>
        <time>2021-04-06T11:11:59Z</time>
      </trkpt>
      <trkpt lat="43.199511" lon="-2.285834">
        <ele>883.483</ele>
        <time>2021-04-06T11:12:01Z</time>
      </trkpt>
      <trkpt lat="43.199526" lon="-2.285862">
        <ele>884.411</ele>
        <time>2021-04-06T11:12:03Z</time>
      </trkpt>
      <trkpt lat="43.199540" lon="-2.285880">
        <ele>885.308</ele>
        <time>2021-04-06T11:12:05Z</time>
      </trkpt>
      <trkpt lat="43.199556" lon="-2.285897">
        <ele>886.393</ele>
        <time>2021-04-06T11:12:07Z</time>
      </trkpt>
      <trkpt lat="43.199575" lon="-2.285894">
        <ele>887.266</ele>
        <time>2021-04-06T11:12:09Z</time>
      </trkpt>
      <trkpt lat="43.199596" lon="-2.285882">
        <ele>888.217</ele>
        <time>2021-04-06T11:12:11Z</time>
      </trkpt>
      <trkpt lat="43.199616" lon="-2.285868">
        <ele>889.072</ele>
        <time>2021-04-06T11:12:13Z</time>
      </trkpt>
      <trkpt lat="43.199638" lon="-2.285848">
        <ele>889.988</ele>
        <time>2021-04-06T11:12:15Z</time>
      </trkpt>
      <trkpt lat="43.199653" lon="-2.285844">
        <ele>890.665</ele>
        <time>2021-04-06T11:12:17Z</time>
      </trkpt>
      <trkpt lat="43.199675" lon="-2.285833">
        <ele>891.658</ele>
        <time>2021-04-06T11:12:20Z</time>
      </trkpt>
      <trkpt lat="43.199686" lon="-2.285805">
        <ele>891.963</ele>
        <time>2021-04-06T11:12:22Z</time>
      </trkpt>
      <trkpt lat="43.199697" lon="-2.285787">
        <ele>892.345</ele>
        <time>2021-04-06T11:12:24Z</time>
      </trkpt>
      <trkpt lat="43.199715" lon="-2.285770">
        <ele>893.047</ele>
        <time>2021-04-06T11:12:26Z</time>
      </trkpt>
      <trkpt lat="43.199733" lon="-2.285757">
        <ele>893.311</ele>
        <time>2021-04-06T11:12:28Z</time>
      </trkpt>
      <trkpt lat="43.199751" lon="-2.285749">
        <ele>893.408</ele>
        <time>2021-04-06T11:12:30Z</time>
      </trkpt>
      <trkpt lat="43.199761" lon="-2.285739">
        <ele>893.411</ele>
        <time>2021-04-06T11:12:33Z</time>
      </trkpt>
      <trkpt lat="43.199778" lon="-2.285723">
        <ele>893.574</ele>
        <time>2021-04-06T11:12:36Z</time>
      </trkpt>
      <trkpt lat="43.199797" lon="-2.285705">
        <ele>893.565</ele>
        <time>2021-04-06T11:12:40Z</time>
      </trkpt>
      <trkpt lat="43.199813" lon="-2.285693">
        <ele>893.650</ele>
        <time>2021-04-06T11:12:44Z</time>
      </trkpt>
      <trkpt lat="43.199833" lon="-2.285687">
        <ele>893.866</ele>
        <time>2021-04-06T11:12:47Z</time>
      </trkpt>
      <trkpt lat="43.199848" lon="-2.285700">
        <ele>894.113</ele>
        <time>2021-04-06T11:12:49Z</time>
      </trkpt>
      <trkpt lat="43.199866" lon="-2.285714">
        <ele>894.556</ele>
        <time>2021-04-06T11:12:51Z</time>
      </trkpt>
      <trkpt lat="43.199888" lon="-2.285733">
        <ele>894.961</ele>
        <time>2021-04-06T11:12:53Z</time>
      </trkpt>
      <trkpt lat="43.199903" lon="-2.285760">
        <ele>895.376</ele>
        <time>2021-04-06T11:12:55Z</time>
      </trkpt>
      <trkpt lat="43.199901" lon="-2.285793">
        <ele>895.690</ele>
        <time>2021-04-06T11:12:57Z</time>
      </trkpt>
      <trkpt lat="43.199894" lon="-2.285822">
        <ele>895.819</ele>
        <time>2021-04-06T11:12:59Z</time>
      </trkpt>
      <trkpt lat="43.199888" lon="-2.285854">
        <ele>896.108</ele>
        <time>2021-04-06T11:13:01Z</time>
      </trkpt>
      <trkpt lat="43.199883" lon="-2.285890">
        <ele>896.524</ele>
        <time>2021-04-06T11:13:03Z</time>
      </trkpt>
      <trkpt lat="43.199884" lon="-2.285918">
        <ele>896.817</ele>
        <time>2021-04-06T11:13:05Z</time>
      </trkpt>
      <trkpt lat="43.199884" lon="-2.285941">
        <ele>897.188</ele>
        <time>2021-04-06T11:13:07Z</time>
      </trkpt>
      <trkpt lat="43.199887" lon="-2.285958">
        <ele>897.483</ele>
        <time>2021-04-06T11:13:08Z</time>
      </trkpt>
      <trkpt lat="43.199897" lon="-2.285988">
        <ele>897.989</ele>
        <time>2021-04-06T11:13:10Z</time>
      </trkpt>
      <trkpt lat="43.199907" lon="-2.286016">
        <ele>898.456</ele>
        <time>2021-04-06T11:13:12Z</time>
      </trkpt>
      <trkpt lat="43.199911" lon="-2.286041">
        <ele>898.849</ele>
        <time>2021-04-06T11:13:14Z</time>
      </trkpt>
      <trkpt lat="43.199912" lon="-2.286067">
        <ele>899.154</ele>
        <time>2021-04-06T11:13:17Z</time>
      </trkpt>
      <trkpt lat="43.199899" lon="-2.286094">
        <ele>899.317</ele>
        <time>2021-04-06T11:13:25Z</time>
      </trkpt>
      <trkpt lat="43.199904" lon="-2.286124">
        <ele>899.787</ele>
        <time>2021-04-06T11:13:27Z</time>
      </trkpt>
      <trkpt lat="43.199915" lon="-2.286151">
        <ele>900.115</ele>
        <time>2021-04-06T11:13:29Z</time>
      </trkpt>
      <trkpt lat="43.199921" lon="-2.286179">
        <ele>900.408</ele>
        <time>2021-04-06T11:13:31Z</time>
      </trkpt>
      <trkpt lat="43.199925" lon="-2.286208">
        <ele>900.748</ele>
        <time>2021-04-06T11:13:33Z</time>
      </trkpt>
      <trkpt lat="43.199929" lon="-2.286238">
        <ele>901.091</ele>
        <time>2021-04-06T11:13:35Z</time>
      </trkpt>
      <trkpt lat="43.199928" lon="-2.286264">
        <ele>901.222</ele>
        <time>2021-04-06T11:13:37Z</time>
      </trkpt>
      <trkpt lat="43.199922" lon="-2.286288">
        <ele>901.347</ele>
        <time>2021-04-06T11:13:39Z</time>
      </trkpt>
      <trkpt lat="43.199919" lon="-2.286311">
        <ele>901.433</ele>
        <time>2021-04-06T11:13:45Z</time>
      </trkpt>
      <trkpt lat="43.199922" lon="-2.286339">
        <ele>901.610</ele>
        <time>2021-04-06T11:13:51Z</time>
      </trkpt>
      <trkpt lat="43.199921" lon="-2.286367">
        <ele>901.893</ele>
        <time>2021-04-06T11:13:56Z</time>
      </trkpt>
      <trkpt lat="43.199928" lon="-2.286399">
        <ele>902.328</ele>
        <time>2021-04-06T11:14:01Z</time>
      </trkpt>
      <trkpt lat="43.199931" lon="-2.286424">
        <ele>902.566</ele>
        <time>2021-04-06T11:14:03Z</time>
      </trkpt>
      <trkpt lat="43.199934" lon="-2.286461">
        <ele>902.929</ele>
        <time>2021-04-06T11:14:06Z</time>
      </trkpt>
      <trkpt lat="43.199936" lon="-2.286483">
        <ele>903.221</ele>
        <time>2021-04-06T11:14:08Z</time>
      </trkpt>
      <trkpt lat="43.199935" lon="-2.286508">
        <ele>903.308</ele>
        <time>2021-04-06T11:14:11Z</time>
      </trkpt>
      <trkpt lat="43.199939" lon="-2.286518">
        <ele>903.673</ele>
        <time>2021-04-06T11:14:18Z</time>
      </trkpt>
      <trkpt lat="43.199938" lon="-2.286531">
        <ele>903.686</ele>
        <time>2021-04-06T11:14:59Z</time>
      </trkpt>
      <trkpt lat="43.199950" lon="-2.286566">
        <ele>904.317</ele>
        <time>2021-04-06T11:15:19Z</time>
      </trkpt>
      <trkpt lat="43.199963" lon="-2.286604">
        <ele>905.142</ele>
        <time>2021-04-06T11:15:21Z</time>
      </trkpt>
      <trkpt lat="43.199977" lon="-2.286649">
        <ele>906.028</ele>
        <time>2021-04-06T11:15:23Z</time>
      </trkpt>
      <trkpt lat="43.199988" lon="-2.286680">
        <ele>906.535</ele>
        <time>2021-04-06T11:15:24Z</time>
      </trkpt>
      <trkpt lat="43.200000" lon="-2.286716">
        <ele>906.848</ele>
        <time>2021-04-06T11:15:25Z</time>
      </trkpt>
      <trkpt lat="43.200014" lon="-2.286753">
        <ele>906.383</ele>
        <time>2021-04-06T11:15:26Z</time>
      </trkpt>
      <trkpt lat="43.200027" lon="-2.286792">
        <ele>905.939</ele>
        <time>2021-04-06T11:15:27Z</time>
      </trkpt>
      <trkpt lat="43.200041" lon="-2.286831">
        <ele>905.501</ele>
        <time>2021-04-06T11:15:28Z</time>
      </trkpt>
      <trkpt lat="43.200055" lon="-2.286871">
        <ele>905.121</ele>
        <time>2021-04-06T11:15:29Z</time>
      </trkpt>
      <trkpt lat="43.200069" lon="-2.286911">
        <ele>904.808</ele>
        <time>2021-04-06T11:15:30Z</time>
      </trkpt>
      <trkpt lat="43.200083" lon="-2.286951">
        <ele>904.560</ele>
        <time>2021-04-06T11:15:31Z</time>
      </trkpt>
      <trkpt lat="43.200096" lon="-2.286991">
        <ele>904.173</ele>
        <time>2021-04-06T11:15:32Z</time>
      </trkpt>
      <trkpt lat="43.200109" lon="-2.287032">
        <ele>903.784</ele>
        <time>2021-04-06T11:15:33Z</time>
      </trkpt>
      <trkpt lat="43.200119" lon="-2.287072">
        <ele>903.319</ele>
        <time>2021-04-06T11:15:34Z</time>
      </trkpt>
      <trkpt lat="43.200129" lon="-2.287114">
        <ele>903.015</ele>
        <time>2021-04-06T11:15:35Z</time>
      </trkpt>
      <trkpt lat="43.200138" lon="-2.287155">
        <ele>902.852</ele>
        <time>2021-04-06T11:15:36Z</time>
      </trkpt>
      <trkpt lat="43.200145" lon="-2.287195">
        <ele>902.545</ele>
        <time>2021-04-06T11:15:37Z</time>
      </trkpt>
      <trkpt lat="43.200153" lon="-2.287237">
        <ele>902.310</ele>
        <time>2021-04-06T11:15:38Z</time>
      </trkpt>
      <trkpt lat="43.200161" lon="-2.287279">
        <ele>902.132</ele>
        <time>2021-04-06T11:15:39Z</time>
      </trkpt>
      <trkpt lat="43.200167" lon="-2.287318">
        <ele>901.992</ele>
        <time>2021-04-06T11:15:40Z</time>
      </trkpt>
      <trkpt lat="43.200175" lon="-2.287361">
        <ele>901.611</ele>
        <time>2021-04-06T11:15:41Z</time>
      </trkpt>
      <trkpt lat="43.200186" lon="-2.287405">
        <ele>901.308</ele>
        <time>2021-04-06T11:15:42Z</time>
      </trkpt>
      <trkpt lat="43.200197" lon="-2.287445">
        <ele>901.110</ele>
        <time>2021-04-06T11:15:43Z</time>
      </trkpt>
      <trkpt lat="43.200210" lon="-2.287484">
        <ele>900.833</ele>
        <time>2021-04-06T11:15:44Z</time>
      </trkpt>
      <trkpt lat="43.200224" lon="-2.287518">
        <ele>900.544</ele>
        <time>2021-04-06T11:15:45Z</time>
      </trkpt>
      <trkpt lat="43.200241" lon="-2.287551">
        <ele>900.269</ele>
        <time>2021-04-06T11:15:46Z</time>
      </trkpt>
      <trkpt lat="43.200262" lon="-2.287581">
        <ele>899.985</ele>
        <time>2021-04-06T11:15:47Z</time>
      </trkpt>
      <trkpt lat="43.200286" lon="-2.287606">
        <ele>899.452</ele>
        <time>2021-04-06T11:15:48Z</time>
      </trkpt>
      <trkpt lat="43.200311" lon="-2.287632">
        <ele>898.875</ele>
        <time>2021-04-06T11:15:49Z</time>
      </trkpt>
      <trkpt lat="43.200339" lon="-2.287659">
        <ele>898.150</ele>
        <time>2021-04-06T11:15:50Z</time>
      </trkpt>
      <trkpt lat="43.200366" lon="-2.287687">
        <ele>897.516</ele>
        <time>2021-04-06T11:15:51Z</time>
      </trkpt>
      <trkpt lat="43.200394" lon="-2.287715">
        <ele>896.976</ele>
        <time>2021-04-06T11:15:52Z</time>
      </trkpt>
      <trkpt lat="43.200422" lon="-2.287743">
        <ele>896.413</ele>
        <time>2021-04-06T11:15:53Z</time>
      </trkpt>
      <trkpt lat="43.200447" lon="-2.287771">
        <ele>895.908</ele>
        <time>2021-04-06T11:15:54Z</time>
      </trkpt>
      <trkpt lat="43.200472" lon="-2.287801">
        <ele>895.578</ele>
        <time>2021-04-06T11:15:55Z</time>
      </trkpt>
      <trkpt lat="43.200495" lon="-2.287833">
        <ele>895.151</ele>
        <time>2021-04-06T11:15:56Z</time>
      </trkpt>
      <trkpt lat="43.200515" lon="-2.287864">
        <ele>894.832</ele>
        <time>2021-04-06T11:15:57Z</time>
      </trkpt>
      <trkpt lat="43.200533" lon="-2.287898">
        <ele>894.477</ele>
        <time>2021-04-06T11:15:58Z</time>
      </trkpt>
      <trkpt lat="43.200551" lon="-2.287931">
        <ele>894.193</ele>
        <time>2021-04-06T11:15:59Z</time>
      </trkpt>
      <trkpt lat="43.200567" lon="-2.287965">
        <ele>893.930</ele>
        <time>2021-04-06T11:16:00Z</time>
      </trkpt>
      <trkpt lat="43.200585" lon="-2.288001">
        <ele>893.843</ele>
        <time>2021-04-06T11:16:01Z</time>
      </trkpt>
      <trkpt lat="43.200603" lon="-2.288035">
        <ele>893.838</ele>
        <time>2021-04-06T11:16:02Z</time>
      </trkpt>
      <trkpt lat="43.200619" lon="-2.288066">
        <ele>893.876</ele>
        <time>2021-04-06T11:16:03Z</time>
      </trkpt>
      <trkpt lat="43.200636" lon="-2.288100">
        <ele>893.890</ele>
        <time>2021-04-06T11:16:04Z</time>
      </trkpt>
      <trkpt lat="43.200651" lon="-2.288133">
        <ele>893.819</ele>
        <time>2021-04-06T11:16:05Z</time>
      </trkpt>
      <trkpt lat="43.200680" lon="-2.288195">
        <ele>893.808</ele>
        <time>2021-04-06T11:16:07Z</time>
      </trkpt>
      <trkpt lat="43.200694" lon="-2.288226">
        <ele>893.834</ele>
        <time>2021-04-06T11:16:08Z</time>
      </trkpt>
      <trkpt lat="43.200708" lon="-2.288256">
        <ele>893.887</ele>
        <time>2021-04-06T11:16:09Z</time>
      </trkpt>
      <trkpt lat="43.200723" lon="-2.288286">
        <ele>893.778</ele>
        <time>2021-04-06T11:16:10Z</time>
      </trkpt>
      <trkpt lat="43.200737" lon="-2.288316">
        <ele>893.753</ele>
        <time>2021-04-06T11:16:11Z</time>
      </trkpt>
      <trkpt lat="43.200752" lon="-2.288345">
        <ele>893.669</ele>
        <time>2021-04-06T11:16:12Z</time>
      </trkpt>
      <trkpt lat="43.200765" lon="-2.288376">
        <ele>893.476</ele>
        <time>2021-04-06T11:16:13Z</time>
      </trkpt>
      <trkpt lat="43.200775" lon="-2.288408">
        <ele>893.319</ele>
        <time>2021-04-06T11:16:14Z</time>
      </trkpt>
      <trkpt lat="43.200784" lon="-2.288442">
        <ele>893.154</ele>
        <time>2021-04-06T11:16:15Z</time>
      </trkpt>
      <trkpt lat="43.200795" lon="-2.288476">
        <ele>892.986</ele>
        <time>2021-04-06T11:16:16Z</time>
      </trkpt>
      <trkpt lat="43.200804" lon="-2.288511">
        <ele>892.760</ele>
        <time>2021-04-06T11:16:17Z</time>
      </trkpt>
      <trkpt lat="43.200810" lon="-2.288547">
        <ele>892.526</ele>
        <time>2021-04-06T11:16:18Z</time>
      </trkpt>
      <trkpt lat="43.200813" lon="-2.288586">
        <ele>892.408</ele>
        <time>2021-04-06T11:16:19Z</time>
      </trkpt>
      <trkpt lat="43.200814" lon="-2.288623">
        <ele>892.275</ele>
        <time>2021-04-06T11:16:20Z</time>
      </trkpt>
      <trkpt lat="43.200815" lon="-2.288663">
        <ele>892.118</ele>
        <time>2021-04-06T11:16:21Z</time>
      </trkpt>
      <trkpt lat="43.200817" lon="-2.288704">
        <ele>891.989</ele>
        <time>2021-04-06T11:16:22Z</time>
      </trkpt>
      <trkpt lat="43.200817" lon="-2.288748">
        <ele>891.794</ele>
        <time>2021-04-06T11:16:23Z</time>
      </trkpt>
      <trkpt lat="43.200815" lon="-2.288791">
        <ele>891.650</ele>
        <time>2021-04-06T11:16:24Z</time>
      </trkpt>
      <trkpt lat="43.200813" lon="-2.288833">
        <ele>891.577</ele>
        <time>2021-04-06T11:16:25Z</time>
      </trkpt>
      <trkpt lat="43.200812" lon="-2.288877">
        <ele>891.480</ele>
        <time>2021-04-06T11:16:26Z</time>
      </trkpt>
      <trkpt lat="43.200811" lon="-2.288922">
        <ele>891.145</ele>
        <time>2021-04-06T11:16:27Z</time>
      </trkpt>
      <trkpt lat="43.200810" lon="-2.288963">
        <ele>890.889</ele>
        <time>2021-04-06T11:16:28Z</time>
      </trkpt>
      <trkpt lat="43.200810" lon="-2.289007">
        <ele>890.506</ele>
        <time>2021-04-06T11:16:29Z</time>
      </trkpt>
      <trkpt lat="43.200811" lon="-2.289051">
        <ele>890.226</ele>
        <time>2021-04-06T11:16:30Z</time>
      </trkpt>
      <trkpt lat="43.200812" lon="-2.289090">
        <ele>889.908</ele>
        <time>2021-04-06T11:16:31Z</time>
      </trkpt>
      <trkpt lat="43.200815" lon="-2.289133">
        <ele>889.535</ele>
        <time>2021-04-06T11:16:32Z</time>
      </trkpt>
      <trkpt lat="43.200821" lon="-2.289175">
        <ele>889.148</ele>
        <time>2021-04-06T11:16:33Z</time>
      </trkpt>
      <trkpt lat="43.200827" lon="-2.289212">
        <ele>888.849</ele>
        <time>2021-04-06T11:16:34Z</time>
      </trkpt>
      <trkpt lat="43.200839" lon="-2.289248">
        <ele>888.574</ele>
        <time>2021-04-06T11:16:35Z</time>
      </trkpt>
      <trkpt lat="43.200852" lon="-2.289277">
        <ele>888.520</ele>
        <time>2021-04-06T11:16:36Z</time>
      </trkpt>
      <trkpt lat="43.200865" lon="-2.289298">
        <ele>888.687</ele>
        <time>2021-04-06T11:16:37Z</time>
      </trkpt>
      <trkpt lat="43.200882" lon="-2.289314">
        <ele>888.710</ele>
        <time>2021-04-06T11:16:38Z</time>
      </trkpt>
      <trkpt lat="43.200904" lon="-2.289321">
        <ele>889.045</ele>
        <time>2021-04-06T11:16:39Z</time>
      </trkpt>
      <trkpt lat="43.200924" lon="-2.289325">
        <ele>889.371</ele>
        <time>2021-04-06T11:16:40Z</time>
      </trkpt>
      <trkpt lat="43.200947" lon="-2.289331">
        <ele>889.641</ele>
        <time>2021-04-06T11:16:41Z</time>
      </trkpt>
      <trkpt lat="43.200968" lon="-2.289335">
        <ele>889.915</ele>
        <time>2021-04-06T11:16:42Z</time>
      </trkpt>
      <trkpt lat="43.201004" lon="-2.289336">
        <ele>890.508</ele>
        <time>2021-04-06T11:16:44Z</time>
      </trkpt>
      <trkpt lat="43.201032" lon="-2.289339">
        <ele>890.974</ele>
        <time>2021-04-06T11:16:46Z</time>
      </trkpt>
      <trkpt lat="43.201061" lon="-2.289342">
        <ele>891.327</ele>
        <time>2021-04-06T11:16:48Z</time>
      </trkpt>
      <trkpt lat="43.201086" lon="-2.289357">
        <ele>891.638</ele>
        <time>2021-04-06T11:16:50Z</time>
      </trkpt>
      <trkpt lat="43.201106" lon="-2.289376">
        <ele>891.763</ele>
        <time>2021-04-06T11:16:52Z</time>
      </trkpt>
      <trkpt lat="43.201126" lon="-2.289392">
        <ele>892.179</ele>
        <time>2021-04-06T11:16:54Z</time>
      </trkpt>
      <trkpt lat="43.201146" lon="-2.289413">
        <ele>892.656</ele>
        <time>2021-04-06T11:16:56Z</time>
      </trkpt>
      <trkpt lat="43.201163" lon="-2.289437">
        <ele>893.039</ele>
        <time>2021-04-06T11:16:58Z</time>
      </trkpt>
      <trkpt lat="43.201180" lon="-2.289468">
        <ele>893.254</ele>
        <time>2021-04-06T11:17:00Z</time>
      </trkpt>
      <trkpt lat="43.201197" lon="-2.289497">
        <ele>893.514</ele>
        <time>2021-04-06T11:17:02Z</time>
      </trkpt>
      <trkpt lat="43.201210" lon="-2.289527">
        <ele>893.754</ele>
        <time>2021-04-06T11:17:04Z</time>
      </trkpt>
      <trkpt lat="43.201222" lon="-2.289560">
        <ele>893.709</ele>
        <time>2021-04-06T11:17:06Z</time>
      </trkpt>
      <trkpt lat="43.201237" lon="-2.289593">
        <ele>893.908</ele>
        <time>2021-04-06T11:17:09Z</time>
      </trkpt>
      <trkpt lat="43.201253" lon="-2.289625">
        <ele>894.268</ele>
        <time>2021-04-06T11:17:10Z</time>
      </trkpt>
      <trkpt lat="43.201272" lon="-2.289655">
        <ele>894.541</ele>
        <time>2021-04-06T11:17:12Z</time>
      </trkpt>
      <trkpt lat="43.201291" lon="-2.289686">
        <ele>894.942</ele>
        <time>2021-04-06T11:17:14Z</time>
      </trkpt>
      <trkpt lat="43.201310" lon="-2.289718">
        <ele>895.267</ele>
        <time>2021-04-06T11:17:16Z</time>
      </trkpt>
      <trkpt lat="43.201329" lon="-2.289749">
        <ele>895.693</ele>
        <time>2021-04-06T11:17:18Z</time>
      </trkpt>
      <trkpt lat="43.201347" lon="-2.289781">
        <ele>895.950</ele>
        <time>2021-04-06T11:17:20Z</time>
      </trkpt>
      <trkpt lat="43.201375" lon="-2.289825">
        <ele>896.433</ele>
        <time>2021-04-06T11:17:23Z</time>
      </trkpt>
      <trkpt lat="43.201398" lon="-2.289851">
        <ele>896.818</ele>
        <time>2021-04-06T11:17:25Z</time>
      </trkpt>
      <trkpt lat="43.201417" lon="-2.289885">
        <ele>896.747</ele>
        <time>2021-04-06T11:17:27Z</time>
      </trkpt>
      <trkpt lat="43.201437" lon="-2.289914">
        <ele>896.729</ele>
        <time>2021-04-06T11:17:29Z</time>
      </trkpt>
      <trkpt lat="43.201458" lon="-2.289943">
        <ele>896.721</ele>
        <time>2021-04-06T11:17:31Z</time>
      </trkpt>
      <trkpt lat="43.201481" lon="-2.289967">
        <ele>896.708</ele>
        <time>2021-04-06T11:17:33Z</time>
      </trkpt>
      <trkpt lat="43.201503" lon="-2.289987">
        <ele>896.851</ele>
        <time>2021-04-06T11:17:35Z</time>
      </trkpt>
      <trkpt lat="43.201528" lon="-2.289998">
        <ele>897.084</ele>
        <time>2021-04-06T11:17:37Z</time>
      </trkpt>
      <trkpt lat="43.201554" lon="-2.290000">
        <ele>897.475</ele>
        <time>2021-04-06T11:17:39Z</time>
      </trkpt>
      <trkpt lat="43.201581" lon="-2.289999">
        <ele>897.870</ele>
        <time>2021-04-06T11:17:42Z</time>
      </trkpt>
      <trkpt lat="43.201607" lon="-2.289990">
        <ele>898.336</ele>
        <time>2021-04-06T11:17:43Z</time>
      </trkpt>
      <trkpt lat="43.201635" lon="-2.289974">
        <ele>898.953</ele>
        <time>2021-04-06T11:17:45Z</time>
      </trkpt>
      <trkpt lat="43.201656" lon="-2.289949">
        <ele>899.696</ele>
        <time>2021-04-06T11:17:47Z</time>
      </trkpt>
      <trkpt lat="43.201671" lon="-2.289919">
        <ele>900.151</ele>
        <time>2021-04-06T11:17:49Z</time>
      </trkpt>
      <trkpt lat="43.201679" lon="-2.289884">
        <ele>900.515</ele>
        <time>2021-04-06T11:17:51Z</time>
      </trkpt>
      <trkpt lat="43.201685" lon="-2.289843">
        <ele>901.065</ele>
        <time>2021-04-06T11:17:53Z</time>
      </trkpt>
      <trkpt lat="43.201686" lon="-2.289805">
        <ele>901.511</ele>
        <time>2021-04-06T11:17:55Z</time>
      </trkpt>
      <trkpt lat="43.201681" lon="-2.289765">
        <ele>902.208</ele>
        <time>2021-04-06T11:17:57Z</time>
      </trkpt>
      <trkpt lat="43.201677" lon="-2.289734">
        <ele>902.718</ele>
        <time>2021-04-06T11:17:59Z</time>
      </trkpt>
      <trkpt lat="43.201679" lon="-2.289702">
        <ele>903.281</ele>
        <time>2021-04-06T11:18:01Z</time>
      </trkpt>
      <trkpt lat="43.201680" lon="-2.289668">
        <ele>903.632</ele>
        <time>2021-04-06T11:18:03Z</time>
      </trkpt>
      <trkpt lat="43.201681" lon="-2.289631">
        <ele>904.227</ele>
        <time>2021-04-06T11:18:05Z</time>
      </trkpt>
      <trkpt lat="43.201683" lon="-2.289594">
        <ele>904.713</ele>
        <time>2021-04-06T11:18:07Z</time>
      </trkpt>
      <trkpt lat="43.201690" lon="-2.289560">
        <ele>905.120</ele>
        <time>2021-04-06T11:18:09Z</time>
      </trkpt>
      <trkpt lat="43.201697" lon="-2.289523">
        <ele>905.683</ele>
        <time>2021-04-06T11:18:11Z</time>
      </trkpt>
      <trkpt lat="43.201703" lon="-2.289488">
        <ele>906.138</ele>
        <time>2021-04-06T11:18:13Z</time>
      </trkpt>
      <trkpt lat="43.201710" lon="-2.289453">
        <ele>906.634</ele>
        <time>2021-04-06T11:18:15Z</time>
      </trkpt>
      <trkpt lat="43.201714" lon="-2.289418">
        <ele>907.155</ele>
        <time>2021-04-06T11:18:17Z</time>
      </trkpt>
      <trkpt lat="43.201720" lon="-2.289382">
        <ele>907.610</ele>
        <time>2021-04-06T11:18:19Z</time>
      </trkpt>
      <trkpt lat="43.201723" lon="-2.289345">
        <ele>908.108</ele>
        <time>2021-04-06T11:18:21Z</time>
      </trkpt>
      <trkpt lat="43.201726" lon="-2.289328">
        <ele>908.380</ele>
        <time>2021-04-06T11:18:22Z</time>
      </trkpt>
      <trkpt lat="43.201731" lon="-2.289292">
        <ele>908.913</ele>
        <time>2021-04-06T11:18:24Z</time>
      </trkpt>
      <trkpt lat="43.201734" lon="-2.289252">
        <ele>909.584</ele>
        <time>2021-04-06T11:18:26Z</time>
      </trkpt>
      <trkpt lat="43.201737" lon="-2.289213">
        <ele>910.079</ele>
        <time>2021-04-06T11:18:28Z</time>
      </trkpt>
      <trkpt lat="43.201739" lon="-2.289177">
        <ele>910.665</ele>
        <time>2021-04-06T11:18:30Z</time>
      </trkpt>
      <trkpt lat="43.201745" lon="-2.289141">
        <ele>911.012</ele>
        <time>2021-04-06T11:18:32Z</time>
      </trkpt>
      <trkpt lat="43.201753" lon="-2.289107">
        <ele>911.425</ele>
        <time>2021-04-06T11:18:34Z</time>
      </trkpt>
      <trkpt lat="43.201766" lon="-2.289069">
        <ele>911.840</ele>
        <time>2021-04-06T11:18:36Z</time>
      </trkpt>
      <trkpt lat="43.201775" lon="-2.289033">
        <ele>912.251</ele>
        <time>2021-04-06T11:18:38Z</time>
      </trkpt>
      <trkpt lat="43.201785" lon="-2.288998">
        <ele>912.701</ele>
        <time>2021-04-06T11:18:40Z</time>
      </trkpt>
      <trkpt lat="43.201799" lon="-2.288967">
        <ele>913.011</ele>
        <time>2021-04-06T11:18:42Z</time>
      </trkpt>
      <trkpt lat="43.201815" lon="-2.288934">
        <ele>913.408</ele>
        <time>2021-04-06T11:18:44Z</time>
      </trkpt>
      <trkpt lat="43.201830" lon="-2.288901">
        <ele>913.882</ele>
        <time>2021-04-06T11:18:46Z</time>
      </trkpt>
      <trkpt lat="43.201847" lon="-2.288867">
        <ele>914.275</ele>
        <time>2021-04-06T11:18:48Z</time>
      </trkpt>
      <trkpt lat="43.201861" lon="-2.288833">
        <ele>914.616</ele>
        <time>2021-04-06T11:18:50Z</time>
      </trkpt>
      <trkpt lat="43.201876" lon="-2.288801">
        <ele>914.931</ele>
        <time>2021-04-06T11:18:52Z</time>
      </trkpt>
      <trkpt lat="43.201891" lon="-2.288770">
        <ele>915.367</ele>
        <time>2021-04-06T11:18:54Z</time>
      </trkpt>
      <trkpt lat="43.201908" lon="-2.288736">
        <ele>915.724</ele>
        <time>2021-04-06T11:18:56Z</time>
      </trkpt>
      <trkpt lat="43.201926" lon="-2.288703">
        <ele>916.067</ele>
        <time>2021-04-06T11:18:58Z</time>
      </trkpt>
      <trkpt lat="43.201943" lon="-2.288670">
        <ele>916.492</ele>
        <time>2021-04-06T11:19:00Z</time>
      </trkpt>
      <trkpt lat="43.201956" lon="-2.288639">
        <ele>916.632</ele>
        <time>2021-04-06T11:19:02Z</time>
      </trkpt>
      <trkpt lat="43.201975" lon="-2.288613">
        <ele>916.892</ele>
        <time>2021-04-06T11:19:04Z</time>
      </trkpt>
      <trkpt lat="43.201991" lon="-2.288581">
        <ele>916.811</ele>
        <time>2021-04-06T11:19:06Z</time>
      </trkpt>
      <trkpt lat="43.202006" lon="-2.288546">
        <ele>916.808</ele>
        <time>2021-04-06T11:19:08Z</time>
      </trkpt>
      <trkpt lat="43.202020" lon="-2.288510">
        <ele>916.960</ele>
        <time>2021-04-06T11:19:10Z</time>
      </trkpt>
      <trkpt lat="43.202032" lon="-2.288474">
        <ele>917.083</ele>
        <time>2021-04-06T11:19:12Z</time>
      </trkpt>
      <trkpt lat="43.202047" lon="-2.288438">
        <ele>917.164</ele>
        <time>2021-04-06T11:19:14Z</time>
      </trkpt>
      <trkpt lat="43.202060" lon="-2.288399">
        <ele>917.229</ele>
        <time>2021-04-06T11:19:16Z</time>
      </trkpt>
      <trkpt lat="43.202070" lon="-2.288361">
        <ele>917.455</ele>
        <time>2021-04-06T11:19:18Z</time>
      </trkpt>
      <trkpt lat="43.202080" lon="-2.288321">
        <ele>917.522</ele>
        <time>2021-04-06T11:19:20Z</time>
      </trkpt>
      <trkpt lat="43.202090" lon="-2.288282">
        <ele>917.525</ele>
        <time>2021-04-06T11:19:22Z</time>
      </trkpt>
      <trkpt lat="43.202104" lon="-2.288246">
        <ele>917.510</ele>
        <time>2021-04-06T11:19:24Z</time>
      </trkpt>
      <trkpt lat="43.202121" lon="-2.288210">
        <ele>917.559</ele>
        <time>2021-04-06T11:19:26Z</time>
      </trkpt>
      <trkpt lat="43.202138" lon="-2.288177">
        <ele>917.503</ele>
        <time>2021-04-06T11:19:28Z</time>
      </trkpt>
      <trkpt lat="43.202156" lon="-2.288143">
        <ele>917.623</ele>
        <time>2021-04-06T11:19:30Z</time>
      </trkpt>
      <trkpt lat="43.202178" lon="-2.288111">
        <ele>917.708</ele>
        <time>2021-04-06T11:19:32Z</time>
      </trkpt>
      <trkpt lat="43.202201" lon="-2.288081">
        <ele>917.832</ele>
        <time>2021-04-06T11:19:34Z</time>
      </trkpt>
      <trkpt lat="43.202225" lon="-2.288052">
        <ele>918.025</ele>
        <time>2021-04-06T11:19:36Z</time>
      </trkpt>
      <trkpt lat="43.202249" lon="-2.288024">
        <ele>918.236</ele>
        <time>2021-04-06T11:19:38Z</time>
      </trkpt>
      <trkpt lat="43.202274" lon="-2.288001">
        <ele>918.561</ele>
        <time>2021-04-06T11:19:40Z</time>
      </trkpt>
      <trkpt lat="43.202304" lon="-2.287983">
        <ele>918.957</ele>
        <time>2021-04-06T11:19:42Z</time>
      </trkpt>
      <trkpt lat="43.202333" lon="-2.287969">
        <ele>919.474</ele>
        <time>2021-04-06T11:19:44Z</time>
      </trkpt>
      <trkpt lat="43.202365" lon="-2.287960">
        <ele>919.987</ele>
        <time>2021-04-06T11:19:46Z</time>
      </trkpt>
      <trkpt lat="43.202396" lon="-2.287959">
        <ele>920.472</ele>
        <time>2021-04-06T11:19:48Z</time>
      </trkpt>
      <trkpt lat="43.202425" lon="-2.287965">
        <ele>920.843</ele>
        <time>2021-04-06T11:19:50Z</time>
      </trkpt>
      <trkpt lat="43.202453" lon="-2.287973">
        <ele>921.264</ele>
        <time>2021-04-06T11:19:52Z</time>
      </trkpt>
      <trkpt lat="43.202478" lon="-2.287983">
        <ele>921.510</ele>
        <time>2021-04-06T11:19:55Z</time>
      </trkpt>
      <trkpt lat="43.202504" lon="-2.288003">
        <ele>921.608</ele>
        <time>2021-04-06T11:19:56Z</time>
      </trkpt>
      <trkpt lat="43.202526" lon="-2.288027">
        <ele>921.861</ele>
        <time>2021-04-06T11:19:58Z</time>
      </trkpt>
      <trkpt lat="43.202546" lon="-2.288054">
        <ele>921.874</ele>
        <time>2021-04-06T11:20:00Z</time>
      </trkpt>
      <trkpt lat="43.202562" lon="-2.288082">
        <ele>921.945</ele>
        <time>2021-04-06T11:20:02Z</time>
      </trkpt>
      <trkpt lat="43.202578" lon="-2.288111">
        <ele>921.930</ele>
        <time>2021-04-06T11:20:04Z</time>
      </trkpt>
      <trkpt lat="43.202596" lon="-2.288144">
        <ele>922.086</ele>
        <time>2021-04-06T11:20:06Z</time>
      </trkpt>
      <trkpt lat="43.202612" lon="-2.288176">
        <ele>922.193</ele>
        <time>2021-04-06T11:20:08Z</time>
      </trkpt>
      <trkpt lat="43.202628" lon="-2.288204">
        <ele>922.286</ele>
        <time>2021-04-06T11:20:10Z</time>
      </trkpt>
      <trkpt lat="43.202641" lon="-2.288235">
        <ele>922.381</ele>
        <time>2021-04-06T11:20:12Z</time>
      </trkpt>
      <trkpt lat="43.202660" lon="-2.288263">
        <ele>922.576</ele>
        <time>2021-04-06T11:20:14Z</time>
      </trkpt>
      <trkpt lat="43.202680" lon="-2.288285">
        <ele>922.890</ele>
        <time>2021-04-06T11:20:16Z</time>
      </trkpt>
      <trkpt lat="43.202703" lon="-2.288306">
        <ele>923.319</ele>
        <time>2021-04-06T11:20:18Z</time>
      </trkpt>
      <trkpt lat="43.202728" lon="-2.288321">
        <ele>923.808</ele>
        <time>2021-04-06T11:20:20Z</time>
      </trkpt>
      <trkpt lat="43.202758" lon="-2.288325">
        <ele>924.564</ele>
        <time>2021-04-06T11:20:22Z</time>
      </trkpt>
      <trkpt lat="43.202789" lon="-2.288317">
        <ele>924.957</ele>
        <time>2021-04-06T11:20:24Z</time>
      </trkpt>
      <trkpt lat="43.202818" lon="-2.288300">
        <ele>924.478</ele>
        <time>2021-04-06T11:20:26Z</time>
      </trkpt>
      <trkpt lat="43.202842" lon="-2.288272">
        <ele>924.173</ele>
        <time>2021-04-06T11:20:28Z</time>
      </trkpt>
      <trkpt lat="43.202858" lon="-2.288234">
        <ele>924.049</ele>
        <time>2021-04-06T11:20:30Z</time>
      </trkpt>
      <trkpt lat="43.202871" lon="-2.288195">
        <ele>924.016</ele>
        <time>2021-04-06T11:20:32Z</time>
      </trkpt>
      <trkpt lat="43.202881" lon="-2.288154">
        <ele>924.089</ele>
        <time>2021-04-06T11:20:34Z</time>
      </trkpt>
      <trkpt lat="43.202885" lon="-2.288133">
        <ele>924.164</ele>
        <time>2021-04-06T11:20:35Z</time>
      </trkpt>
      <trkpt lat="43.202891" lon="-2.288089">
        <ele>924.281</ele>
        <time>2021-04-06T11:20:37Z</time>
      </trkpt>
      <trkpt lat="43.202896" lon="-2.288046">
        <ele>924.461</ele>
        <time>2021-04-06T11:20:39Z</time>
      </trkpt>
      <trkpt lat="43.202902" lon="-2.288002">
        <ele>924.517</ele>
        <time>2021-04-06T11:20:41Z</time>
      </trkpt>
      <trkpt lat="43.202908" lon="-2.287959">
        <ele>924.708</ele>
        <time>2021-04-06T11:20:43Z</time>
      </trkpt>
      <trkpt lat="43.202915" lon="-2.287917">
        <ele>924.855</ele>
        <time>2021-04-06T11:20:45Z</time>
      </trkpt>
      <trkpt lat="43.202919" lon="-2.287874">
        <ele>924.948</ele>
        <time>2021-04-06T11:20:47Z</time>
      </trkpt>
      <trkpt lat="43.202926" lon="-2.287833">
        <ele>925.049</ele>
        <time>2021-04-06T11:20:49Z</time>
      </trkpt>
      <trkpt lat="43.202932" lon="-2.287792">
        <ele>925.164</ele>
        <time>2021-04-06T11:20:51Z</time>
      </trkpt>
      <trkpt lat="43.202935" lon="-2.287749">
        <ele>925.490</ele>
        <time>2021-04-06T11:20:53Z</time>
      </trkpt>
      <trkpt lat="43.202940" lon="-2.287708">
        <ele>925.787</ele>
        <time>2021-04-06T11:20:55Z</time>
      </trkpt>
      <trkpt lat="43.202941" lon="-2.287665">
        <ele>926.180</ele>
        <time>2021-04-06T11:20:57Z</time>
      </trkpt>
      <trkpt lat="43.202944" lon="-2.287623">
        <ele>926.585</ele>
        <time>2021-04-06T11:20:59Z</time>
      </trkpt>
      <trkpt lat="43.202946" lon="-2.287581">
        <ele>926.861</ele>
        <time>2021-04-06T11:21:01Z</time>
      </trkpt>
      <trkpt lat="43.202948" lon="-2.287540">
        <ele>927.221</ele>
        <time>2021-04-06T11:21:03Z</time>
      </trkpt>
      <trkpt lat="43.202950" lon="-2.287503">
        <ele>927.513</ele>
        <time>2021-04-06T11:21:05Z</time>
      </trkpt>
      <trkpt lat="43.202952" lon="-2.287464">
        <ele>927.908</ele>
        <time>2021-04-06T11:21:07Z</time>
      </trkpt>
      <trkpt lat="43.202951" lon="-2.287421">
        <ele>928.413</ele>
        <time>2021-04-06T11:21:09Z</time>
      </trkpt>
      <trkpt lat="43.202951" lon="-2.287380">
        <ele>928.856</ele>
        <time>2021-04-06T11:21:11Z</time>
      </trkpt>
      <trkpt lat="43.202952" lon="-2.287341">
        <ele>929.227</ele>
        <time>2021-04-06T11:21:13Z</time>
      </trkpt>
      <trkpt lat="43.202953" lon="-2.287302">
        <ele>929.692</ele>
        <time>2021-04-06T11:21:15Z</time>
      </trkpt>
      <trkpt lat="43.202950" lon="-2.287263">
        <ele>930.148</ele>
        <time>2021-04-06T11:21:17Z</time>
      </trkpt>
      <trkpt lat="43.202947" lon="-2.287221">
        <ele>930.675</ele>
        <time>2021-04-06T11:21:19Z</time>
      </trkpt>
      <trkpt lat="43.202945" lon="-2.287182">
        <ele>930.928</ele>
        <time>2021-04-06T11:21:21Z</time>
      </trkpt>
      <trkpt lat="43.202945" lon="-2.287142">
        <ele>931.353</ele>
        <time>2021-04-06T11:21:23Z</time>
      </trkpt>
      <trkpt lat="43.202948" lon="-2.287105">
        <ele>931.638</ele>
        <time>2021-04-06T11:21:25Z</time>
      </trkpt>
      <trkpt lat="43.202950" lon="-2.287068">
        <ele>931.870</ele>
        <time>2021-04-06T11:21:27Z</time>
      </trkpt>
      <trkpt lat="43.202949" lon="-2.287026">
        <ele>932.217</ele>
        <time>2021-04-06T11:21:29Z</time>
      </trkpt>
      <trkpt lat="43.202950" lon="-2.286986">
        <ele>932.508</ele>
        <time>2021-04-06T11:21:31Z</time>
      </trkpt>
      <trkpt lat="43.202948" lon="-2.286946">
        <ele>932.930</ele>
        <time>2021-04-06T11:21:33Z</time>
      </trkpt>
      <trkpt lat="43.202948" lon="-2.286910">
        <ele>933.173</ele>
        <time>2021-04-06T11:21:35Z</time>
      </trkpt>
      <trkpt lat="43.202944" lon="-2.286872">
        <ele>933.334</ele>
        <time>2021-04-06T11:21:37Z</time>
      </trkpt>
      <trkpt lat="43.202940" lon="-2.286831">
        <ele>933.689</ele>
        <time>2021-04-06T11:21:39Z</time>
      </trkpt>
      <trkpt lat="43.202938" lon="-2.286791">
        <ele>933.855</ele>
        <time>2021-04-06T11:21:41Z</time>
      </trkpt>
      <trkpt lat="43.202936" lon="-2.286751">
        <ele>934.162</ele>
        <time>2021-04-06T11:21:43Z</time>
      </trkpt>
      <trkpt lat="43.202936" lon="-2.286713">
        <ele>934.275</ele>
        <time>2021-04-06T11:21:45Z</time>
      </trkpt>
      <trkpt lat="43.202936" lon="-2.286674">
        <ele>934.460</ele>
        <time>2021-04-06T11:21:47Z</time>
      </trkpt>
      <trkpt lat="43.202934" lon="-2.286632">
        <ele>934.838</ele>
        <time>2021-04-06T11:21:49Z</time>
      </trkpt>
      <trkpt lat="43.202933" lon="-2.286591">
        <ele>935.170</ele>
        <time>2021-04-06T11:21:51Z</time>
      </trkpt>
      <trkpt lat="43.202930" lon="-2.286549">
        <ele>935.517</ele>
        <time>2021-04-06T11:21:53Z</time>
      </trkpt>
      <trkpt lat="43.202930" lon="-2.286508">
        <ele>935.808</ele>
        <time>2021-04-06T11:21:55Z</time>
      </trkpt>
      <trkpt lat="43.202933" lon="-2.286468">
        <ele>936.040</ele>
        <time>2021-04-06T11:21:57Z</time>
      </trkpt>
      <trkpt lat="43.202933" lon="-2.286429">
        <ele>936.283</ele>
        <time>2021-04-06T11:21:59Z</time>
      </trkpt>
      <trkpt lat="43.202931" lon="-2.286388">
        <ele>936.614</ele>
        <time>2021-04-06T11:22:01Z</time>
      </trkpt>
      <trkpt lat="43.202932" lon="-2.286345">
        <ele>936.979</ele>
        <time>2021-04-06T11:22:03Z</time>
      </trkpt>
      <trkpt lat="43.202929" lon="-2.286303">
        <ele>937.345</ele>
        <time>2021-04-06T11:22:05Z</time>
      </trkpt>
      <trkpt lat="43.202926" lon="-2.286261">
        <ele>937.772</ele>
        <time>2021-04-06T11:22:07Z</time>
      </trkpt>
      <trkpt lat="43.202927" lon="-2.286220">
        <ele>937.995</ele>
        <time>2021-04-06T11:22:09Z</time>
      </trkpt>
      <trkpt lat="43.202930" lon="-2.286184">
        <ele>938.140</ele>
        <time>2021-04-06T11:22:11Z</time>
      </trkpt>
      <trkpt lat="43.202932" lon="-2.286144">
        <ele>938.355</ele>
        <time>2021-04-06T11:22:13Z</time>
      </trkpt>
      <trkpt lat="43.202930" lon="-2.286103">
        <ele>938.707</ele>
        <time>2021-04-06T11:22:15Z</time>
      </trkpt>
      <trkpt lat="43.202932" lon="-2.286063">
        <ele>939.217</ele>
        <time>2021-04-06T11:22:17Z</time>
      </trkpt>
      <trkpt lat="43.202934" lon="-2.286023">
        <ele>939.608</ele>
        <time>2021-04-06T11:22:19Z</time>
      </trkpt>
      <trkpt lat="43.202938" lon="-2.285985">
        <ele>940.072</ele>
        <time>2021-04-06T11:22:21Z</time>
      </trkpt>
      <trkpt lat="43.202942" lon="-2.285947">
        <ele>940.435</ele>
        <time>2021-04-06T11:22:23Z</time>
      </trkpt>
      <trkpt lat="43.202945" lon="-2.285907">
        <ele>940.856</ele>
        <time>2021-04-06T11:22:25Z</time>
      </trkpt>
      <trkpt lat="43.202952" lon="-2.285870">
        <ele>941.131</ele>
        <time>2021-04-06T11:22:27Z</time>
      </trkpt>
      <trkpt lat="43.202956" lon="-2.285833">
        <ele>941.587</ele>
        <time>2021-04-06T11:22:29Z</time>
      </trkpt>
      <trkpt lat="43.202961" lon="-2.285797">
        <ele>942.074</ele>
        <time>2021-04-06T11:22:31Z</time>
      </trkpt>
      <trkpt lat="43.202964" lon="-2.285759">
        <ele>942.557</ele>
        <time>2021-04-06T11:22:33Z</time>
      </trkpt>
      <trkpt lat="43.202973" lon="-2.285721">
        <ele>942.852</ele>
        <time>2021-04-06T11:22:35Z</time>
      </trkpt>
      <trkpt lat="43.202985" lon="-2.285686">
        <ele>943.037</ele>
        <time>2021-04-06T11:22:37Z</time>
      </trkpt>
      <trkpt lat="43.202993" lon="-2.285650">
        <ele>943.449</ele>
        <time>2021-04-06T11:22:39Z</time>
      </trkpt>
      <trkpt lat="43.203000" lon="-2.285616">
        <ele>943.713</ele>
        <time>2021-04-06T11:22:41Z</time>
      </trkpt>
      <trkpt lat="43.203013" lon="-2.285578">
        <ele>943.908</ele>
        <time>2021-04-06T11:22:43Z</time>
      </trkpt>
      <trkpt lat="43.203024" lon="-2.285542">
        <ele>944.180</ele>
        <time>2021-04-06T11:22:46Z</time>
      </trkpt>
      <trkpt lat="43.203031" lon="-2.285506">
        <ele>944.473</ele>
        <time>2021-04-06T11:22:47Z</time>
      </trkpt>
      <trkpt lat="43.203037" lon="-2.285472">
        <ele>944.874</ele>
        <time>2021-04-06T11:22:49Z</time>
      </trkpt>
      <trkpt lat="43.203043" lon="-2.285434">
        <ele>945.189</ele>
        <time>2021-04-06T11:22:51Z</time>
      </trkpt>
      <trkpt lat="43.203050" lon="-2.285397">
        <ele>945.515</ele>
        <time>2021-04-06T11:22:53Z</time>
      </trkpt>
      <trkpt lat="43.203053" lon="-2.285359">
        <ele>945.962</ele>
        <time>2021-04-06T11:22:55Z</time>
      </trkpt>
      <trkpt lat="43.203057" lon="-2.285325">
        <ele>946.315</ele>
        <time>2021-04-06T11:22:57Z</time>
      </trkpt>
      <trkpt lat="43.203067" lon="-2.285288">
        <ele>946.640</ele>
        <time>2021-04-06T11:22:59Z</time>
      </trkpt>
      <trkpt lat="43.203076" lon="-2.285251">
        <ele>946.918</ele>
        <time>2021-04-06T11:23:01Z</time>
      </trkpt>
      <trkpt lat="43.203083" lon="-2.285215">
        <ele>947.298</ele>
        <time>2021-04-06T11:23:03Z</time>
      </trkpt>
      <trkpt lat="43.203090" lon="-2.285180">
        <ele>947.517</ele>
        <time>2021-04-06T11:23:05Z</time>
      </trkpt>
      <trkpt lat="43.203098" lon="-2.285143">
        <ele>947.908</ele>
        <time>2021-04-06T11:23:07Z</time>
      </trkpt>
      <trkpt lat="43.203102" lon="-2.285102">
        <ele>948.448</ele>
        <time>2021-04-06T11:23:09Z</time>
      </trkpt>
      <trkpt lat="43.203107" lon="-2.285063">
        <ele>948.821</ele>
        <time>2021-04-06T11:23:11Z</time>
      </trkpt>
      <trkpt lat="43.203117" lon="-2.285025">
        <ele>949.172</ele>
        <time>2021-04-06T11:23:13Z</time>
      </trkpt>
      <trkpt lat="43.203125" lon="-2.284990">
        <ele>949.437</ele>
        <time>2021-04-06T11:23:15Z</time>
      </trkpt>
      <trkpt lat="43.203134" lon="-2.284953">
        <ele>949.943</ele>
        <time>2021-04-06T11:23:17Z</time>
      </trkpt>
      <trkpt lat="43.203146" lon="-2.284915">
        <ele>950.480</ele>
        <time>2021-04-06T11:23:19Z</time>
      </trkpt>
      <trkpt lat="43.203158" lon="-2.284878">
        <ele>950.843</ele>
        <time>2021-04-06T11:23:21Z</time>
      </trkpt>
      <trkpt lat="43.203174" lon="-2.284842">
        <ele>951.118</ele>
        <time>2021-04-06T11:23:23Z</time>
      </trkpt>
      <trkpt lat="43.203190" lon="-2.284809">
        <ele>951.438</ele>
        <time>2021-04-06T11:23:25Z</time>
      </trkpt>
      <trkpt lat="43.203207" lon="-2.284779">
        <ele>951.670</ele>
        <time>2021-04-06T11:23:27Z</time>
      </trkpt>
      <trkpt lat="43.203227" lon="-2.284751">
        <ele>951.717</ele>
        <time>2021-04-06T11:23:29Z</time>
      </trkpt>
      <trkpt lat="43.203245" lon="-2.284721">
        <ele>951.908</ele>
        <time>2021-04-06T11:23:31Z</time>
      </trkpt>
      <trkpt lat="43.203265" lon="-2.284692">
        <ele>952.270</ele>
        <time>2021-04-06T11:23:33Z</time>
      </trkpt>
      <trkpt lat="43.203287" lon="-2.284664">
        <ele>952.443</ele>
        <time>2021-04-06T11:23:35Z</time>
      </trkpt>
      <trkpt lat="43.203311" lon="-2.284638">
        <ele>952.664</ele>
        <time>2021-04-06T11:23:37Z</time>
      </trkpt>
      <trkpt lat="43.203333" lon="-2.284615">
        <ele>952.799</ele>
        <time>2021-04-06T11:23:39Z</time>
      </trkpt>
      <trkpt lat="43.203355" lon="-2.284595">
        <ele>953.045</ele>
        <time>2021-04-06T11:23:41Z</time>
      </trkpt>
      <trkpt lat="43.203381" lon="-2.284570">
        <ele>953.372</ele>
        <time>2021-04-06T11:23:43Z</time>
      </trkpt>
      <trkpt lat="43.203407" lon="-2.284545">
        <ele>953.785</ele>
        <time>2021-04-06T11:23:45Z</time>
      </trkpt>
      <trkpt lat="43.203434" lon="-2.284523">
        <ele>953.920</ele>
        <time>2021-04-06T11:23:47Z</time>
      </trkpt>
      <trkpt lat="43.203460" lon="-2.284505">
        <ele>954.154</ele>
        <time>2021-04-06T11:23:49Z</time>
      </trkpt>
      <trkpt lat="43.203484" lon="-2.284486">
        <ele>954.356</ele>
        <time>2021-04-06T11:23:51Z</time>
      </trkpt>
      <trkpt lat="43.203507" lon="-2.284464">
        <ele>954.611</ele>
        <time>2021-04-06T11:23:53Z</time>
      </trkpt>
      <trkpt lat="43.203531" lon="-2.284435">
        <ele>955.108</ele>
        <time>2021-04-06T11:23:55Z</time>
      </trkpt>
      <trkpt lat="43.203543" lon="-2.284419">
        <ele>955.462</ele>
        <time>2021-04-06T11:23:56Z</time>
      </trkpt>
      <trkpt lat="43.203565" lon="-2.284395">
        <ele>955.735</ele>
        <time>2021-04-06T11:23:58Z</time>
      </trkpt>
      <trkpt lat="43.203586" lon="-2.284374">
        <ele>956.086</ele>
        <time>2021-04-06T11:24:00Z</time>
      </trkpt>
      <trkpt lat="43.203604" lon="-2.284353">
        <ele>956.471</ele>
        <time>2021-04-06T11:24:02Z</time>
      </trkpt>
      <trkpt lat="43.203625" lon="-2.284335">
        <ele>957.027</ele>
        <time>2021-04-06T11:24:04Z</time>
      </trkpt>
      <trkpt lat="43.203653" lon="-2.284334">
        <ele>957.414</ele>
        <time>2021-04-06T11:24:06Z</time>
      </trkpt>
      <trkpt lat="43.203680" lon="-2.284344">
        <ele>957.577</ele>
        <time>2021-04-06T11:24:08Z</time>
      </trkpt>
      <trkpt lat="43.203704" lon="-2.284363">
        <ele>957.482</ele>
        <time>2021-04-06T11:24:10Z</time>
      </trkpt>
      <trkpt lat="43.203732" lon="-2.284386">
        <ele>957.261</ele>
        <time>2021-04-06T11:24:12Z</time>
      </trkpt>
      <trkpt lat="43.203756" lon="-2.284409">
        <ele>957.021</ele>
        <time>2021-04-06T11:24:14Z</time>
      </trkpt>
      <trkpt lat="43.203781" lon="-2.284428">
        <ele>956.913</ele>
        <time>2021-04-06T11:24:16Z</time>
      </trkpt>
      <trkpt lat="43.203808" lon="-2.284443">
        <ele>956.908</ele>
        <time>2021-04-06T11:24:18Z</time>
      </trkpt>
      <trkpt lat="43.203837" lon="-2.284451">
        <ele>957.183</ele>
        <time>2021-04-06T11:24:20Z</time>
      </trkpt>
      <trkpt lat="43.203870" lon="-2.284452">
        <ele>957.686</ele>
        <time>2021-04-06T11:24:22Z</time>
      </trkpt>
      <trkpt lat="43.203898" lon="-2.284440">
        <ele>958.017</ele>
        <time>2021-04-06T11:24:24Z</time>
      </trkpt>
      <trkpt lat="43.203923" lon="-2.284422">
        <ele>958.232</ele>
        <time>2021-04-06T11:24:26Z</time>
      </trkpt>
      <trkpt lat="43.203946" lon="-2.284406">
        <ele>958.378</ele>
        <time>2021-04-06T11:24:28Z</time>
      </trkpt>
      <trkpt lat="43.203969" lon="-2.284388">
        <ele>958.555</ele>
        <time>2021-04-06T11:24:30Z</time>
      </trkpt>
      <trkpt lat="43.203990" lon="-2.284360">
        <ele>958.948</ele>
        <time>2021-04-06T11:24:32Z</time>
      </trkpt>
      <trkpt lat="43.204013" lon="-2.284336">
        <ele>959.243</ele>
        <time>2021-04-06T11:24:34Z</time>
      </trkpt>
      <trkpt lat="43.204037" lon="-2.284315">
        <ele>959.445</ele>
        <time>2021-04-06T11:24:36Z</time>
      </trkpt>
      <trkpt lat="43.204056" lon="-2.284290">
        <ele>959.847</ele>
        <time>2021-04-06T11:24:38Z</time>
      </trkpt>
      <trkpt lat="43.204077" lon="-2.284263">
        <ele>960.111</ele>
        <time>2021-04-06T11:24:40Z</time>
      </trkpt>
      <trkpt lat="43.204099" lon="-2.284239">
        <ele>960.308</ele>
        <time>2021-04-06T11:24:42Z</time>
      </trkpt>
      <trkpt lat="43.204112" lon="-2.284210">
        <ele>960.821</ele>
        <time>2021-04-06T11:24:44Z</time>
      </trkpt>
      <trkpt lat="43.204128" lon="-2.284181">
        <ele>961.244</ele>
        <time>2021-04-06T11:24:46Z</time>
      </trkpt>
      <trkpt lat="43.204147" lon="-2.284150">
        <ele>961.815</ele>
        <time>2021-04-06T11:24:48Z</time>
      </trkpt>
      <trkpt lat="43.204164" lon="-2.284121">
        <ele>962.450</ele>
        <time>2021-04-06T11:24:50Z</time>
      </trkpt>
      <trkpt lat="43.204182" lon="-2.284094">
        <ele>962.666</ele>
        <time>2021-04-06T11:24:52Z</time>
      </trkpt>
      <trkpt lat="43.204198" lon="-2.284063">
        <ele>963.033</ele>
        <time>2021-04-06T11:24:54Z</time>
      </trkpt>
      <trkpt lat="43.204210" lon="-2.284029">
        <ele>963.646</ele>
        <time>2021-04-06T11:24:56Z</time>
      </trkpt>
      <trkpt lat="43.204224" lon="-2.283997">
        <ele>964.151</ele>
        <time>2021-04-06T11:24:58Z</time>
      </trkpt>
      <trkpt lat="43.204238" lon="-2.283968">
        <ele>964.555</ele>
        <time>2021-04-06T11:25:00Z</time>
      </trkpt>
      <trkpt lat="43.204255" lon="-2.283938">
        <ele>964.807</ele>
        <time>2021-04-06T11:25:02Z</time>
      </trkpt>
      <trkpt lat="43.204270" lon="-2.283904">
        <ele>965.217</ele>
        <time>2021-04-06T11:25:04Z</time>
      </trkpt>
      <trkpt lat="43.204282" lon="-2.283874">
        <ele>965.708</ele>
        <time>2021-04-06T11:25:06Z</time>
      </trkpt>
      <trkpt lat="43.204296" lon="-2.283846">
        <ele>966.062</ele>
        <time>2021-04-06T11:25:08Z</time>
      </trkpt>
      <trkpt lat="43.204308" lon="-2.283814">
        <ele>966.425</ele>
        <time>2021-04-06T11:25:10Z</time>
      </trkpt>
      <trkpt lat="43.204320" lon="-2.283782">
        <ele>966.926</ele>
        <time>2021-04-06T11:25:12Z</time>
      </trkpt>
      <trkpt lat="43.204333" lon="-2.283749">
        <ele>967.461</ele>
        <time>2021-04-06T11:25:14Z</time>
      </trkpt>
      <trkpt lat="43.204346" lon="-2.283720">
        <ele>967.867</ele>
        <time>2021-04-06T11:25:16Z</time>
      </trkpt>
      <trkpt lat="43.204362" lon="-2.283692">
        <ele>968.184</ele>
        <time>2021-04-06T11:25:18Z</time>
      </trkpt>
      <trkpt lat="43.204380" lon="-2.283663">
        <ele>968.447</ele>
        <time>2021-04-06T11:25:20Z</time>
      </trkpt>
      <trkpt lat="43.204397" lon="-2.283631">
        <ele>968.822</ele>
        <time>2021-04-06T11:25:22Z</time>
      </trkpt>
      <trkpt lat="43.204418" lon="-2.283600">
        <ele>969.128</ele>
        <time>2021-04-06T11:25:24Z</time>
      </trkpt>
      <trkpt lat="43.204439" lon="-2.283572">
        <ele>969.389</ele>
        <time>2021-04-06T11:25:26Z</time>
      </trkpt>
      <trkpt lat="43.204461" lon="-2.283546">
        <ele>969.617</ele>
        <time>2021-04-06T11:25:28Z</time>
      </trkpt>
      <trkpt lat="43.204484" lon="-2.283526">
        <ele>969.808</ele>
        <time>2021-04-06T11:25:30Z</time>
      </trkpt>
      <trkpt lat="43.204510" lon="-2.283506">
        <ele>969.939</ele>
        <time>2021-04-06T11:25:32Z</time>
      </trkpt>
      <trkpt lat="43.204534" lon="-2.283485">
        <ele>970.252</ele>
        <time>2021-04-06T11:25:34Z</time>
      </trkpt>
      <trkpt lat="43.204556" lon="-2.283464">
        <ele>970.453</ele>
        <time>2021-04-06T11:25:36Z</time>
      </trkpt>
      <trkpt lat="43.204575" lon="-2.283450">
        <ele>970.668</ele>
        <time>2021-04-06T11:25:38Z</time>
      </trkpt>
      <trkpt lat="43.204592" lon="-2.283433">
        <ele>970.824</ele>
        <time>2021-04-06T11:25:40Z</time>
      </trkpt>
      <trkpt lat="43.204604" lon="-2.283410">
        <ele>971.311</ele>
        <time>2021-04-06T11:25:42Z</time>
      </trkpt>
      <trkpt lat="43.204627" lon="-2.283393">
        <ele>971.584</ele>
        <time>2021-04-06T11:25:45Z</time>
      </trkpt>
      <trkpt lat="43.204646" lon="-2.283373">
        <ele>971.979</ele>
        <time>2021-04-06T11:25:47Z</time>
      </trkpt>
      <trkpt lat="43.204665" lon="-2.283349">
        <ele>972.329</ele>
        <time>2021-04-06T11:25:49Z</time>
      </trkpt>
      <trkpt lat="43.204682" lon="-2.283329">
        <ele>972.700</ele>
        <time>2021-04-06T11:25:51Z</time>
      </trkpt>
      <trkpt lat="43.204701" lon="-2.283314">
        <ele>972.920</ele>
        <time>2021-04-06T11:25:53Z</time>
      </trkpt>
      <trkpt lat="43.204725" lon="-2.283289">
        <ele>973.208</ele>
        <time>2021-04-06T11:25:55Z</time>
      </trkpt>
      <trkpt lat="43.204744" lon="-2.283264">
        <ele>973.639</ele>
        <time>2021-04-06T11:25:57Z</time>
      </trkpt>
      <trkpt lat="43.204761" lon="-2.283240">
        <ele>974.022</ele>
        <time>2021-04-06T11:25:59Z</time>
      </trkpt>
      <trkpt lat="43.204781" lon="-2.283216">
        <ele>974.373</ele>
        <time>2021-04-06T11:26:01Z</time>
      </trkpt>
      <trkpt lat="43.204803" lon="-2.283192">
        <ele>974.628</ele>
        <time>2021-04-06T11:26:03Z</time>
      </trkpt>
      <trkpt lat="43.204821" lon="-2.283166">
        <ele>975.054</ele>
        <time>2021-04-06T11:26:05Z</time>
      </trkpt>
      <trkpt lat="43.204837" lon="-2.283137">
        <ele>975.611</ele>
        <time>2021-04-06T11:26:07Z</time>
      </trkpt>
      <trkpt lat="43.204853" lon="-2.283108">
        <ele>976.154</ele>
        <time>2021-04-06T11:26:09Z</time>
      </trkpt>
      <trkpt lat="43.204867" lon="-2.283082">
        <ele>976.659</ele>
        <time>2021-04-06T11:26:11Z</time>
      </trkpt>
      <trkpt lat="43.204880" lon="-2.283055">
        <ele>977.229</ele>
        <time>2021-04-06T11:26:13Z</time>
      </trkpt>
      <trkpt lat="43.204895" lon="-2.283028">
        <ele>977.800</ele>
        <time>2021-04-06T11:26:15Z</time>
      </trkpt>
      <trkpt lat="43.204901" lon="-2.283000">
        <ele>978.620</ele>
        <time>2021-04-06T11:26:17Z</time>
      </trkpt>
      <trkpt lat="43.204899" lon="-2.282972">
        <ele>979.508</ele>
        <time>2021-04-06T11:26:19Z</time>
      </trkpt>
      <trkpt lat="43.204888" lon="-2.282940">
        <ele>980.849</ele>
        <time>2021-04-06T11:26:21Z</time>
      </trkpt>
      <trkpt lat="43.204872" lon="-2.282921">
        <ele>981.752</ele>
        <time>2021-04-06T11:26:23Z</time>
      </trkpt>
      <trkpt lat="43.204858" lon="-2.282913">
        <ele>982.213</ele>
        <time>2021-04-06T11:26:25Z</time>
      </trkpt>
      <trkpt lat="43.204839" lon="-2.282901">
        <ele>982.988</ele>
        <time>2021-04-06T11:26:27Z</time>
      </trkpt>
      <trkpt lat="43.204825" lon="-2.282884">
        <ele>983.734</ele>
        <time>2021-04-06T11:26:29Z</time>
      </trkpt>
      <trkpt lat="43.204809" lon="-2.282870">
        <ele>984.531</ele>
        <time>2021-04-06T11:26:31Z</time>
      </trkpt>
      <trkpt lat="43.204794" lon="-2.282844">
        <ele>985.674</ele>
        <time>2021-04-06T11:26:34Z</time>
      </trkpt>
      <trkpt lat="43.204779" lon="-2.282820">
        <ele>986.659</ele>
        <time>2021-04-06T11:26:37Z</time>
      </trkpt>
      <trkpt lat="43.204775" lon="-2.282793">
        <ele>987.659</ele>
        <time>2021-04-06T11:26:41Z</time>
      </trkpt>
      <trkpt lat="43.204763" lon="-2.282766">
        <ele>988.603</ele>
        <time>2021-04-06T11:26:45Z</time>
      </trkpt>
      <trkpt lat="43.204747" lon="-2.282740">
        <ele>989.623</ele>
        <time>2021-04-06T11:26:50Z</time>
      </trkpt>
      <trkpt lat="43.204725" lon="-2.282724">
        <ele>990.508</ele>
        <time>2021-04-06T11:26:54Z</time>
      </trkpt>
      <trkpt lat="43.204701" lon="-2.282723">
        <ele>990.922</ele>
        <time>2021-04-06T11:26:56Z</time>
      </trkpt>
      <trkpt lat="43.204681" lon="-2.282718">
        <ele>991.375</ele>
        <time>2021-04-06T11:26:58Z</time>
      </trkpt>
      <trkpt lat="43.204661" lon="-2.282708">
        <ele>991.916</ele>
        <time>2021-04-06T11:27:00Z</time>
      </trkpt>
      <trkpt lat="43.204651" lon="-2.282706">
        <ele>992.121</ele>
        <time>2021-04-06T11:27:01Z</time>
      </trkpt>
      <trkpt lat="43.204634" lon="-2.282699">
        <ele>992.577</ele>
        <time>2021-04-06T11:27:04Z</time>
      </trkpt>
      <trkpt lat="43.204616" lon="-2.282681">
        <ele>993.324</ele>
        <time>2021-04-06T11:27:14Z</time>
      </trkpt>
      <trkpt lat="43.204602" lon="-2.282671">
        <ele>993.817</ele>
        <time>2021-04-06T11:27:16Z</time>
      </trkpt>
      <trkpt lat="43.204587" lon="-2.282655">
        <ele>994.582</ele>
        <time>2021-04-06T11:27:19Z</time>
      </trkpt>
      <trkpt lat="43.204574" lon="-2.282643">
        <ele>995.033</ele>
        <time>2021-04-06T11:27:22Z</time>
      </trkpt>
      <trkpt lat="43.204579" lon="-2.282610">
        <ele>995.923</ele>
        <time>2021-04-06T11:27:25Z</time>
      </trkpt>
      <trkpt lat="43.204587" lon="-2.282591">
        <ele>996.315</ele>
        <time>2021-04-06T11:27:27Z</time>
      </trkpt>
      <trkpt lat="43.204593" lon="-2.282570">
        <ele>996.808</ele>
        <time>2021-04-06T11:27:29Z</time>
      </trkpt>
      <trkpt lat="43.204600" lon="-2.282536">
        <ele>997.730</ele>
        <time>2021-04-06T11:27:32Z</time>
      </trkpt>
      <trkpt lat="43.204601" lon="-2.282513">
        <ele>998.463</ele>
        <time>2021-04-06T11:27:34Z</time>
      </trkpt>
      <trkpt lat="43.204599" lon="-2.282490">
        <ele>999.074</ele>
        <time>2021-04-06T11:27:37Z</time>
      </trkpt>
      <trkpt lat="43.204593" lon="-2.282470">
        <ele>999.799</ele>
        <time>2021-04-06T11:27:40Z</time>
      </trkpt>
      <trkpt lat="43.204576" lon="-2.282437">
        <ele>1000.895</ele>
        <time>2021-04-06T11:27:42Z</time>
      </trkpt>
      <trkpt lat="43.204563" lon="-2.282422">
        <ele>1001.442</ele>
        <time>2021-04-06T11:27:44Z</time>
      </trkpt>
      <trkpt lat="43.204546" lon="-2.282402">
        <ele>1002.185</ele>
        <time>2021-04-06T11:27:47Z</time>
      </trkpt>
      <trkpt lat="43.204529" lon="-2.282376">
        <ele>1003.060</ele>
        <time>2021-04-06T11:27:50Z</time>
      </trkpt>
      <trkpt lat="43.204515" lon="-2.282359">
        <ele>1003.769</ele>
        <time>2021-04-06T11:27:52Z</time>
      </trkpt>
      <trkpt lat="43.204502" lon="-2.282342">
        <ele>1004.304</ele>
        <time>2021-04-06T11:27:54Z</time>
      </trkpt>
      <trkpt lat="43.204486" lon="-2.282311">
        <ele>1005.324</ele>
        <time>2021-04-06T11:27:57Z</time>
      </trkpt>
      <trkpt lat="43.204474" lon="-2.282290">
        <ele>1005.908</ele>
        <time>2021-04-06T11:27:59Z</time>
      </trkpt>
      <trkpt lat="43.204458" lon="-2.282274">
        <ele>1006.563</ele>
        <time>2021-04-06T11:28:01Z</time>
      </trkpt>
      <trkpt lat="43.204440" lon="-2.282264">
        <ele>1007.046</ele>
        <time>2021-04-06T11:28:03Z</time>
      </trkpt>
      <trkpt lat="43.204421" lon="-2.282261">
        <ele>1007.437</ele>
        <time>2021-04-06T11:28:05Z</time>
      </trkpt>
      <trkpt lat="43.204402" lon="-2.282261">
        <ele>1007.732</ele>
        <time>2021-04-06T11:28:07Z</time>
      </trkpt>
      <trkpt lat="43.204378" lon="-2.282260">
        <ele>1008.028</ele>
        <time>2021-04-06T11:28:09Z</time>
      </trkpt>
      <trkpt lat="43.204356" lon="-2.282261">
        <ele>1008.375</ele>
        <time>2021-04-06T11:28:11Z</time>
      </trkpt>
      <trkpt lat="43.204339" lon="-2.282252">
        <ele>1008.878</ele>
        <time>2021-04-06T11:28:13Z</time>
      </trkpt>
      <trkpt lat="43.204324" lon="-2.282242">
        <ele>1009.393</ele>
        <time>2021-04-06T11:28:15Z</time>
      </trkpt>
      <trkpt lat="43.204309" lon="-2.282229">
        <ele>1009.817</ele>
        <time>2021-04-06T11:28:17Z</time>
      </trkpt>
      <trkpt lat="43.204292" lon="-2.282217">
        <ele>1010.287</ele>
        <time>2021-04-06T11:28:19Z</time>
      </trkpt>
      <trkpt lat="43.204277" lon="-2.282198">
        <ele>1010.315</ele>
        <time>2021-04-06T11:28:21Z</time>
      </trkpt>
      <trkpt lat="43.204260" lon="-2.282186">
        <ele>1010.508</ele>
        <time>2021-04-06T11:28:23Z</time>
      </trkpt>
      <trkpt lat="43.204241" lon="-2.282183">
        <ele>1010.728</ele>
        <time>2021-04-06T11:28:25Z</time>
      </trkpt>
      <trkpt lat="43.204227" lon="-2.282163">
        <ele>1010.631</ele>
        <time>2021-04-06T11:28:28Z</time>
      </trkpt>
      <trkpt lat="43.204212" lon="-2.282139">
        <ele>1010.532</ele>
        <time>2021-04-06T11:28:30Z</time>
      </trkpt>
      <trkpt lat="43.204198" lon="-2.282115">
        <ele>1010.417</ele>
        <time>2021-04-06T11:28:33Z</time>
      </trkpt>
      <trkpt lat="43.204185" lon="-2.282095">
        <ele>1010.173</ele>
        <time>2021-04-06T11:28:35Z</time>
      </trkpt>
      <trkpt lat="43.204165" lon="-2.282081">
        <ele>1010.090</ele>
        <time>2021-04-06T11:28:38Z</time>
      </trkpt>
      <trkpt lat="43.204148" lon="-2.282062">
        <ele>1010.033</ele>
        <time>2021-04-06T11:28:41Z</time>
      </trkpt>
      <trkpt lat="43.204124" lon="-2.282064">
        <ele>1010.388</ele>
        <time>2021-04-06T11:28:44Z</time>
      </trkpt>
      <trkpt lat="43.204102" lon="-2.282058">
        <ele>1010.532</ele>
        <time>2021-04-06T11:28:46Z</time>
      </trkpt>
      <trkpt lat="43.204083" lon="-2.282049">
        <ele>1010.692</ele>
        <time>2021-04-06T11:28:48Z</time>
      </trkpt>
      <trkpt lat="43.204065" lon="-2.282043">
        <ele>1010.811</ele>
        <time>2021-04-06T11:28:50Z</time>
      </trkpt>
      <trkpt lat="43.204049" lon="-2.282040">
        <ele>1010.908</ele>
        <time>2021-04-06T11:28:52Z</time>
      </trkpt>
      <trkpt lat="43.204033" lon="-2.282037">
        <ele>1011.120</ele>
        <time>2021-04-06T11:28:54Z</time>
      </trkpt>
      <trkpt lat="43.204014" lon="-2.282036">
        <ele>1011.333</ele>
        <time>2021-04-06T11:28:56Z</time>
      </trkpt>
      <trkpt lat="43.203997" lon="-2.282038">
        <ele>1011.684</ele>
        <time>2021-04-06T11:28:58Z</time>
      </trkpt>
      <trkpt lat="43.203979" lon="-2.282051">
        <ele>1012.179</ele>
        <time>2021-04-06T11:29:02Z</time>
      </trkpt>
      <trkpt lat="43.203957" lon="-2.282056">
        <ele>1012.595</ele>
        <time>2021-04-06T11:29:06Z</time>
      </trkpt>
      <trkpt lat="43.203936" lon="-2.282056">
        <ele>1012.882</ele>
        <time>2021-04-06T11:29:10Z</time>
      </trkpt>
      <trkpt lat="43.203915" lon="-2.282074">
        <ele>1013.495</ele>
        <time>2021-04-06T11:29:13Z</time>
      </trkpt>
      <trkpt lat="43.203897" lon="-2.282078">
        <ele>1013.880</ele>
        <time>2021-04-06T11:29:18Z</time>
      </trkpt>
      <trkpt lat="43.203889" lon="-2.282093">
        <ele>1014.215</ele>
        <time>2021-04-06T11:29:49Z</time>
      </trkpt>
      <trkpt lat="43.203886" lon="-2.282103">
        <ele>1014.365</ele>
        <time>2021-04-06T11:29:54Z</time>
      </trkpt>
      <trkpt lat="43.203879" lon="-2.282091">
        <ele>1013.611</ele>
        <time>2021-04-06T11:30:32Z</time>
      </trkpt>
      <trkpt lat="43.203867" lon="-2.282110">
        <ele>1013.408</ele>
        <time>2021-04-06T11:30:56Z</time>
      </trkpt>
      <trkpt lat="43.203860" lon="-2.282139">
        <ele>1013.668</ele>
        <time>2021-04-06T11:31:00Z</time>
      </trkpt>
      <trkpt lat="43.203857" lon="-2.282165">
        <ele>1014.021</ele>
        <time>2021-04-06T11:31:07Z</time>
      </trkpt>
      <trkpt lat="43.203866" lon="-2.282188">
        <ele>1015.062</ele>
        <time>2021-04-06T11:31:15Z</time>
      </trkpt>
      <trkpt lat="43.203878" lon="-2.282216">
        <ele>1016.297</ele>
        <time>2021-04-06T11:31:18Z</time>
      </trkpt>
      <trkpt lat="43.203896" lon="-2.282226">
        <ele>1016.883</ele>
        <time>2021-04-06T11:31:20Z</time>
      </trkpt>
      <trkpt lat="43.203919" lon="-2.282214">
        <ele>1016.350</ele>
        <time>2021-04-06T11:31:23Z</time>
      </trkpt>
      <trkpt lat="43.203938" lon="-2.282224">
        <ele>1016.163</ele>
        <time>2021-04-06T11:31:25Z</time>
      </trkpt>
      <trkpt lat="43.203953" lon="-2.282256">
        <ele>1015.028</ele>
        <time>2021-04-06T11:31:27Z</time>
      </trkpt>
      <trkpt lat="43.203958" lon="-2.282298">
        <ele>1013.923</ele>
        <time>2021-04-06T11:31:29Z</time>
      </trkpt>
      <trkpt lat="43.203959" lon="-2.282336">
        <ele>1013.083</ele>
        <time>2021-04-06T11:31:31Z</time>
      </trkpt>
      <trkpt lat="43.203958" lon="-2.282370">
        <ele>1012.211</ele>
        <time>2021-04-06T11:31:33Z</time>
      </trkpt>
      <trkpt lat="43.203949" lon="-2.282409">
        <ele>1011.408</ele>
        <time>2021-04-06T11:31:35Z</time>
      </trkpt>
      <trkpt lat="43.203946" lon="-2.282431">
        <ele>1010.959</ele>
        <time>2021-04-06T11:31:38Z</time>
      </trkpt>
      <trkpt lat="43.203937" lon="-2.282454">
        <ele>1010.442</ele>
        <time>2021-04-06T11:31:39Z</time>
      </trkpt>
      <trkpt lat="43.203921" lon="-2.282491">
        <ele>1009.863</ele>
        <time>2021-04-06T11:31:41Z</time>
      </trkpt>
      <trkpt lat="43.203916" lon="-2.282525">
        <ele>1008.878</ele>
        <time>2021-04-06T11:31:43Z</time>
      </trkpt>
      <trkpt lat="43.203911" lon="-2.282569">
        <ele>1007.494</ele>
        <time>2021-04-06T11:31:45Z</time>
      </trkpt>
      <trkpt lat="43.203906" lon="-2.282595">
        <ele>1006.791</ele>
        <time>2021-04-06T11:31:46Z</time>
      </trkpt>
      <trkpt lat="43.203903" lon="-2.282621">
        <ele>1005.944</ele>
        <time>2021-04-06T11:31:47Z</time>
      </trkpt>
      <trkpt lat="43.203900" lon="-2.282643">
        <ele>1005.249</ele>
        <time>2021-04-06T11:31:48Z</time>
      </trkpt>
      <trkpt lat="43.203900" lon="-2.282666">
        <ele>1004.579</ele>
        <time>2021-04-06T11:31:49Z</time>
      </trkpt>
      <trkpt lat="43.203899" lon="-2.282691">
        <ele>1003.705</ele>
        <time>2021-04-06T11:31:50Z</time>
      </trkpt>
      <trkpt lat="43.203896" lon="-2.282741">
        <ele>1002.125</ele>
        <time>2021-04-06T11:31:52Z</time>
      </trkpt>
      <trkpt lat="43.203892" lon="-2.282767">
        <ele>1001.308</ele>
        <time>2021-04-06T11:31:53Z</time>
      </trkpt>
      <trkpt lat="43.203887" lon="-2.282793">
        <ele>1000.554</ele>
        <time>2021-04-06T11:31:54Z</time>
      </trkpt>
      <trkpt lat="43.203886" lon="-2.282818">
        <ele>999.827</ele>
        <time>2021-04-06T11:31:55Z</time>
      </trkpt>
      <trkpt lat="43.203887" lon="-2.282843">
        <ele>999.148</ele>
        <time>2021-04-06T11:31:56Z</time>
      </trkpt>
      <trkpt lat="43.203885" lon="-2.282866">
        <ele>998.413</ele>
        <time>2021-04-06T11:31:57Z</time>
      </trkpt>
      <trkpt lat="43.203870" lon="-2.282909">
        <ele>997.169</ele>
        <time>2021-04-06T11:31:59Z</time>
      </trkpt>
      <trkpt lat="43.203855" lon="-2.282924">
        <ele>996.586</ele>
        <time>2021-04-06T11:32:00Z</time>
      </trkpt>
      <trkpt lat="43.203835" lon="-2.282932">
        <ele>996.239</ele>
        <time>2021-04-06T11:32:01Z</time>
      </trkpt>
      <trkpt lat="43.203809" lon="-2.282938">
        <ele>995.834</ele>
        <time>2021-04-06T11:32:02Z</time>
      </trkpt>
      <trkpt lat="43.203782" lon="-2.282942">
        <ele>995.597</ele>
        <time>2021-04-06T11:32:03Z</time>
      </trkpt>
      <trkpt lat="43.203756" lon="-2.282939">
        <ele>995.423</ele>
        <time>2021-04-06T11:32:04Z</time>
      </trkpt>
      <trkpt lat="43.203730" lon="-2.282933">
        <ele>995.425</ele>
        <time>2021-04-06T11:32:05Z</time>
      </trkpt>
      <trkpt lat="43.203709" lon="-2.282931">
        <ele>995.308</ele>
        <time>2021-04-06T11:32:06Z</time>
      </trkpt>
      <trkpt lat="43.203688" lon="-2.282928">
        <ele>995.226</ele>
        <time>2021-04-06T11:32:07Z</time>
      </trkpt>
      <trkpt lat="43.203667" lon="-2.282927">
        <ele>995.139</ele>
        <time>2021-04-06T11:32:08Z</time>
      </trkpt>
      <trkpt lat="43.203649" lon="-2.282927">
        <ele>995.050</ele>
        <time>2021-04-06T11:32:09Z</time>
      </trkpt>
      <trkpt lat="43.203615" lon="-2.282932">
        <ele>994.655</ele>
        <time>2021-04-06T11:32:11Z</time>
      </trkpt>
      <trkpt lat="43.203584" lon="-2.282938">
        <ele>993.161</ele>
        <time>2021-04-06T11:32:13Z</time>
      </trkpt>
      <trkpt lat="43.203560" lon="-2.282957">
        <ele>991.678</ele>
        <time>2021-04-06T11:32:15Z</time>
      </trkpt>
      <trkpt lat="43.203544" lon="-2.282983">
        <ele>990.341</ele>
        <time>2021-04-06T11:32:17Z</time>
      </trkpt>
      <trkpt lat="43.203548" lon="-2.283017">
        <ele>989.866</ele>
        <time>2021-04-06T11:32:19Z</time>
      </trkpt>
      <trkpt lat="43.203548" lon="-2.283060">
        <ele>988.913</ele>
        <time>2021-04-06T11:32:21Z</time>
      </trkpt>
      <trkpt lat="43.203544" lon="-2.283083">
        <ele>988.243</ele>
        <time>2021-04-06T11:32:22Z</time>
      </trkpt>
      <trkpt lat="43.203539" lon="-2.283109">
        <ele>987.507</ele>
        <time>2021-04-06T11:32:23Z</time>
      </trkpt>
      <trkpt lat="43.203534" lon="-2.283135">
        <ele>986.808</ele>
        <time>2021-04-06T11:32:24Z</time>
      </trkpt>
      <trkpt lat="43.203524" lon="-2.283157">
        <ele>986.138</ele>
        <time>2021-04-06T11:32:25Z</time>
      </trkpt>
      <trkpt lat="43.203501" lon="-2.283186">
        <ele>985.041</ele>
        <time>2021-04-06T11:32:27Z</time>
      </trkpt>
      <trkpt lat="43.203474" lon="-2.283209">
        <ele>984.052</ele>
        <time>2021-04-06T11:32:29Z</time>
      </trkpt>
      <trkpt lat="43.203455" lon="-2.283237">
        <ele>983.387</ele>
        <time>2021-04-06T11:32:31Z</time>
      </trkpt>
      <trkpt lat="43.203438" lon="-2.283268">
        <ele>982.653</ele>
        <time>2021-04-06T11:32:33Z</time>
      </trkpt>
      <trkpt lat="43.203436" lon="-2.283297">
        <ele>982.250</ele>
        <time>2021-04-06T11:32:35Z</time>
      </trkpt>
      <trkpt lat="43.203439" lon="-2.283336">
        <ele>981.763</ele>
        <time>2021-04-06T11:32:37Z</time>
      </trkpt>
      <trkpt lat="43.203435" lon="-2.283378">
        <ele>980.768</ele>
        <time>2021-04-06T11:32:39Z</time>
      </trkpt>
      <trkpt lat="43.203431" lon="-2.283400">
        <ele>980.286</ele>
        <time>2021-04-06T11:32:40Z</time>
      </trkpt>
      <trkpt lat="43.203422" lon="-2.283441">
        <ele>979.260</ele>
        <time>2021-04-06T11:32:42Z</time>
      </trkpt>
      <trkpt lat="43.203407" lon="-2.283468">
        <ele>978.526</ele>
        <time>2021-04-06T11:32:44Z</time>
      </trkpt>
      <trkpt lat="43.203402" lon="-2.283505">
        <ele>977.608</ele>
        <time>2021-04-06T11:32:46Z</time>
      </trkpt>
      <trkpt lat="43.203399" lon="-2.283543">
        <ele>976.815</ele>
        <time>2021-04-06T11:32:48Z</time>
      </trkpt>
      <trkpt lat="43.203396" lon="-2.283585">
        <ele>975.888</ele>
        <time>2021-04-06T11:32:50Z</time>
      </trkpt>
      <trkpt lat="43.203395" lon="-2.283609">
        <ele>975.349</ele>
        <time>2021-04-06T11:32:51Z</time>
      </trkpt>
      <trkpt lat="43.203394" lon="-2.283638">
        <ele>974.724</ele>
        <time>2021-04-06T11:32:52Z</time>
      </trkpt>
      <trkpt lat="43.203388" lon="-2.283667">
        <ele>974.190</ele>
        <time>2021-04-06T11:32:53Z</time>
      </trkpt>
      <trkpt lat="43.203373" lon="-2.283697">
        <ele>973.577</ele>
        <time>2021-04-06T11:32:54Z</time>
      </trkpt>
      <trkpt lat="43.203351" lon="-2.283719">
        <ele>973.070</ele>
        <time>2021-04-06T11:32:55Z</time>
      </trkpt>
      <trkpt lat="43.203323" lon="-2.283730">
        <ele>972.745</ele>
        <time>2021-04-06T11:32:56Z</time>
      </trkpt>
      <trkpt lat="43.203295" lon="-2.283733">
        <ele>972.382</ele>
        <time>2021-04-06T11:32:57Z</time>
      </trkpt>
      <trkpt lat="43.203269" lon="-2.283733">
        <ele>971.943</ele>
        <time>2021-04-06T11:32:58Z</time>
      </trkpt>
      <trkpt lat="43.203245" lon="-2.283737">
        <ele>971.517</ele>
        <time>2021-04-06T11:32:59Z</time>
      </trkpt>
      <trkpt lat="43.203224" lon="-2.283751">
        <ele>971.108</ele>
        <time>2021-04-06T11:33:00Z</time>
      </trkpt>
      <trkpt lat="43.203208" lon="-2.283778">
        <ele>970.795</ele>
        <time>2021-04-06T11:33:01Z</time>
      </trkpt>
      <trkpt lat="43.203198" lon="-2.283809">
        <ele>970.548</ele>
        <time>2021-04-06T11:33:02Z</time>
      </trkpt>
      <trkpt lat="43.203193" lon="-2.283842">
        <ele>970.299</ele>
        <time>2021-04-06T11:33:03Z</time>
      </trkpt>
      <trkpt lat="43.203192" lon="-2.283871">
        <ele>970.134</ele>
        <time>2021-04-06T11:33:04Z</time>
      </trkpt>
      <trkpt lat="43.203191" lon="-2.283900">
        <ele>969.850</ele>
        <time>2021-04-06T11:33:05Z</time>
      </trkpt>
      <trkpt lat="43.203187" lon="-2.283929">
        <ele>969.467</ele>
        <time>2021-04-06T11:33:06Z</time>
      </trkpt>
      <trkpt lat="43.203177" lon="-2.283952">
        <ele>969.020</ele>
        <time>2021-04-06T11:33:07Z</time>
      </trkpt>
      <trkpt lat="43.203156" lon="-2.283988">
        <ele>968.585</ele>
        <time>2021-04-06T11:33:09Z</time>
      </trkpt>
      <trkpt lat="43.203144" lon="-2.284015">
        <ele>968.222</ele>
        <time>2021-04-06T11:33:10Z</time>
      </trkpt>
      <trkpt lat="43.203129" lon="-2.284046">
        <ele>967.962</ele>
        <time>2021-04-06T11:33:11Z</time>
      </trkpt>
      <trkpt lat="43.203114" lon="-2.284078">
        <ele>967.508</ele>
        <time>2021-04-06T11:33:12Z</time>
      </trkpt>
      <trkpt lat="43.203100" lon="-2.284110">
        <ele>967.208</ele>
        <time>2021-04-06T11:33:13Z</time>
      </trkpt>
      <trkpt lat="43.203084" lon="-2.284141">
        <ele>967.079</ele>
        <time>2021-04-06T11:33:14Z</time>
      </trkpt>
      <trkpt lat="43.203070" lon="-2.284170">
        <ele>966.822</ele>
        <time>2021-04-06T11:33:15Z</time>
      </trkpt>
      <trkpt lat="43.203056" lon="-2.284203">
        <ele>966.343</ele>
        <time>2021-04-06T11:33:16Z</time>
      </trkpt>
      <trkpt lat="43.203043" lon="-2.284236">
        <ele>965.928</ele>
        <time>2021-04-06T11:33:17Z</time>
      </trkpt>
      <trkpt lat="43.203031" lon="-2.284270">
        <ele>965.494</ele>
        <time>2021-04-06T11:33:18Z</time>
      </trkpt>
      <trkpt lat="43.203019" lon="-2.284308">
        <ele>965.161</ele>
        <time>2021-04-06T11:33:19Z</time>
      </trkpt>
      <trkpt lat="43.203009" lon="-2.284346">
        <ele>964.714</ele>
        <time>2021-04-06T11:33:20Z</time>
      </trkpt>
      <trkpt lat="43.203001" lon="-2.284382">
        <ele>964.549</ele>
        <time>2021-04-06T11:33:21Z</time>
      </trkpt>
      <trkpt lat="43.202991" lon="-2.284418">
        <ele>964.411</ele>
        <time>2021-04-06T11:33:22Z</time>
      </trkpt>
      <trkpt lat="43.202982" lon="-2.284452">
        <ele>964.221</ele>
        <time>2021-04-06T11:33:23Z</time>
      </trkpt>
      <trkpt lat="43.202972" lon="-2.284486">
        <ele>963.903</ele>
        <time>2021-04-06T11:33:24Z</time>
      </trkpt>
      <trkpt lat="43.202965" lon="-2.284520">
        <ele>963.508</ele>
        <time>2021-04-06T11:33:25Z</time>
      </trkpt>
      <trkpt lat="43.202962" lon="-2.284555">
        <ele>962.958</ele>
        <time>2021-04-06T11:33:26Z</time>
      </trkpt>
      <trkpt lat="43.202962" lon="-2.284587">
        <ele>962.341</ele>
        <time>2021-04-06T11:33:27Z</time>
      </trkpt>
      <trkpt lat="43.202964" lon="-2.284621">
        <ele>961.612</ele>
        <time>2021-04-06T11:33:28Z</time>
      </trkpt>
      <trkpt lat="43.202966" lon="-2.284652">
        <ele>960.987</ele>
        <time>2021-04-06T11:33:29Z</time>
      </trkpt>
      <trkpt lat="43.202966" lon="-2.284679">
        <ele>960.443</ele>
        <time>2021-04-06T11:33:30Z</time>
      </trkpt>
      <trkpt lat="43.202967" lon="-2.284704">
        <ele>959.910</ele>
        <time>2021-04-06T11:33:31Z</time>
      </trkpt>
      <trkpt lat="43.202966" lon="-2.284743">
        <ele>959.253</ele>
        <time>2021-04-06T11:33:33Z</time>
      </trkpt>
      <trkpt lat="43.202959" lon="-2.284795">
        <ele>958.518</ele>
        <time>2021-04-06T11:33:35Z</time>
      </trkpt>
      <trkpt lat="43.202959" lon="-2.284832">
        <ele>957.866</ele>
        <time>2021-04-06T11:33:36Z</time>
      </trkpt>
      <trkpt lat="43.202957" lon="-2.284871">
        <ele>957.229</ele>
        <time>2021-04-06T11:33:37Z</time>
      </trkpt>
      <trkpt lat="43.202955" lon="-2.284913">
        <ele>956.521</ele>
        <time>2021-04-06T11:33:38Z</time>
      </trkpt>
      <trkpt lat="43.202955" lon="-2.284953">
        <ele>955.808</ele>
        <time>2021-04-06T11:33:39Z</time>
      </trkpt>
      <trkpt lat="43.202953" lon="-2.284991">
        <ele>955.253</ele>
        <time>2021-04-06T11:33:40Z</time>
      </trkpt>
      <trkpt lat="43.202949" lon="-2.285029">
        <ele>954.726</ele>
        <time>2021-04-06T11:33:41Z</time>
      </trkpt>
      <trkpt lat="43.202944" lon="-2.285065">
        <ele>954.327</ele>
        <time>2021-04-06T11:33:42Z</time>
      </trkpt>
      <trkpt lat="43.202933" lon="-2.285098">
        <ele>954.122</ele>
        <time>2021-04-06T11:33:43Z</time>
      </trkpt>
      <trkpt lat="43.202927" lon="-2.285134">
        <ele>953.788</ele>
        <time>2021-04-06T11:33:44Z</time>
      </trkpt>
      <trkpt lat="43.202921" lon="-2.285167">
        <ele>953.375</ele>
        <time>2021-04-06T11:33:45Z</time>
      </trkpt>
      <trkpt lat="43.202917" lon="-2.285208">
        <ele>952.798</ele>
        <time>2021-04-06T11:33:46Z</time>
      </trkpt>
      <trkpt lat="43.202913" lon="-2.285251">
        <ele>952.173</ele>
        <time>2021-04-06T11:33:47Z</time>
      </trkpt>
      <trkpt lat="43.202907" lon="-2.285291">
        <ele>951.678</ele>
        <time>2021-04-06T11:33:48Z</time>
      </trkpt>
      <trkpt lat="43.202899" lon="-2.285331">
        <ele>951.233</ele>
        <time>2021-04-06T11:33:49Z</time>
      </trkpt>
      <trkpt lat="43.202889" lon="-2.285371">
        <ele>950.926</ele>
        <time>2021-04-06T11:33:50Z</time>
      </trkpt>
      <trkpt lat="43.202879" lon="-2.285410">
        <ele>950.508</ele>
        <time>2021-04-06T11:33:51Z</time>
      </trkpt>
      <trkpt lat="43.202868" lon="-2.285448">
        <ele>950.214</ele>
        <time>2021-04-06T11:33:52Z</time>
      </trkpt>
      <trkpt lat="43.202854" lon="-2.285480">
        <ele>950.187</ele>
        <time>2021-04-06T11:33:53Z</time>
      </trkpt>
      <trkpt lat="43.202840" lon="-2.285511">
        <ele>950.028</ele>
        <time>2021-04-06T11:33:54Z</time>
      </trkpt>
      <trkpt lat="43.202829" lon="-2.285546">
        <ele>949.783</ele>
        <time>2021-04-06T11:33:55Z</time>
      </trkpt>
      <trkpt lat="43.202820" lon="-2.285580">
        <ele>949.469</ele>
        <time>2021-04-06T11:33:56Z</time>
      </trkpt>
      <trkpt lat="43.202806" lon="-2.285611">
        <ele>949.256</ele>
        <time>2021-04-06T11:33:57Z</time>
      </trkpt>
      <trkpt lat="43.202789" lon="-2.285640">
        <ele>949.229</ele>
        <time>2021-04-06T11:33:58Z</time>
      </trkpt>
      <trkpt lat="43.202775" lon="-2.285666">
        <ele>949.044</ele>
        <time>2021-04-06T11:33:59Z</time>
      </trkpt>
      <trkpt lat="43.202761" lon="-2.285688">
        <ele>948.565</ele>
        <time>2021-04-06T11:34:00Z</time>
      </trkpt>
      <trkpt lat="43.202751" lon="-2.285712">
        <ele>948.068</ele>
        <time>2021-04-06T11:34:01Z</time>
      </trkpt>
      <trkpt lat="43.202740" lon="-2.285750">
        <ele>947.314</ele>
        <time>2021-04-06T11:34:03Z</time>
      </trkpt>
      <trkpt lat="43.202724" lon="-2.285780">
        <ele>946.708</ele>
        <time>2021-04-06T11:34:05Z</time>
      </trkpt>
      <trkpt lat="43.202704" lon="-2.285816">
        <ele>946.083</ele>
        <time>2021-04-06T11:34:07Z</time>
      </trkpt>
      <trkpt lat="43.202692" lon="-2.285835">
        <ele>945.786</ele>
        <time>2021-04-06T11:34:08Z</time>
      </trkpt>
      <trkpt lat="43.202671" lon="-2.285858">
        <ele>945.377</ele>
        <time>2021-04-06T11:34:10Z</time>
      </trkpt>
      <trkpt lat="43.202652" lon="-2.285874">
        <ele>945.072</ele>
        <time>2021-04-06T11:34:12Z</time>
      </trkpt>
      <trkpt lat="43.202635" lon="-2.285909">
        <ele>944.598</ele>
        <time>2021-04-06T11:34:14Z</time>
      </trkpt>
      <trkpt lat="43.202633" lon="-2.285931">
        <ele>944.225</ele>
        <time>2021-04-06T11:34:15Z</time>
      </trkpt>
      <trkpt lat="43.202631" lon="-2.285973">
        <ele>943.748</ele>
        <time>2021-04-06T11:34:17Z</time>
      </trkpt>
      <trkpt lat="43.202631" lon="-2.286015">
        <ele>943.213</ele>
        <time>2021-04-06T11:34:19Z</time>
      </trkpt>
      <trkpt lat="43.202622" lon="-2.286044">
        <ele>942.741</ele>
        <time>2021-04-06T11:34:21Z</time>
      </trkpt>
      <trkpt lat="43.202600" lon="-2.286071">
        <ele>942.281</ele>
        <time>2021-04-06T11:34:23Z</time>
      </trkpt>
      <trkpt lat="43.202584" lon="-2.286115">
        <ele>941.609</ele>
        <time>2021-04-06T11:34:25Z</time>
      </trkpt>
      <trkpt lat="43.202579" lon="-2.286147">
        <ele>941.208</ele>
        <time>2021-04-06T11:34:26Z</time>
      </trkpt>
      <trkpt lat="43.202578" lon="-2.286185">
        <ele>940.861</ele>
        <time>2021-04-06T11:34:27Z</time>
      </trkpt>
      <trkpt lat="43.202578" lon="-2.286227">
        <ele>940.424</ele>
        <time>2021-04-06T11:34:28Z</time>
      </trkpt>
      <trkpt lat="43.202580" lon="-2.286268">
        <ele>940.035</ele>
        <time>2021-04-06T11:34:29Z</time>
      </trkpt>
      <trkpt lat="43.202584" lon="-2.286307">
        <ele>939.730</ele>
        <time>2021-04-06T11:34:30Z</time>
      </trkpt>
      <trkpt lat="43.202588" lon="-2.286349">
        <ele>939.326</ele>
        <time>2021-04-06T11:34:31Z</time>
      </trkpt>
      <trkpt lat="43.202590" lon="-2.286390">
        <ele>939.023</ele>
        <time>2021-04-06T11:34:32Z</time>
      </trkpt>
      <trkpt lat="43.202590" lon="-2.286429">
        <ele>938.686</ele>
        <time>2021-04-06T11:34:33Z</time>
      </trkpt>
      <trkpt lat="43.202588" lon="-2.286465">
        <ele>938.251</ele>
        <time>2021-04-06T11:34:34Z</time>
      </trkpt>
      <trkpt lat="43.202582" lon="-2.286496">
        <ele>937.871</ele>
        <time>2021-04-06T11:34:35Z</time>
      </trkpt>
      <trkpt lat="43.202572" lon="-2.286523">
        <ele>937.541</ele>
        <time>2021-04-06T11:34:36Z</time>
      </trkpt>
      <trkpt lat="43.202560" lon="-2.286548">
        <ele>937.115</ele>
        <time>2021-04-06T11:34:37Z</time>
      </trkpt>
      <trkpt lat="43.202549" lon="-2.286577">
        <ele>936.608</ele>
        <time>2021-04-06T11:34:38Z</time>
      </trkpt>
      <trkpt lat="43.202545" lon="-2.286611">
        <ele>936.284</ele>
        <time>2021-04-06T11:34:39Z</time>
      </trkpt>
      <trkpt lat="43.202544" lon="-2.286647">
        <ele>935.877</ele>
        <time>2021-04-06T11:34:40Z</time>
      </trkpt>
      <trkpt lat="43.202546" lon="-2.286683">
        <ele>935.588</ele>
        <time>2021-04-06T11:34:41Z</time>
      </trkpt>
      <trkpt lat="43.202547" lon="-2.286723">
        <ele>935.173</ele>
        <time>2021-04-06T11:34:42Z</time>
      </trkpt>
      <trkpt lat="43.202548" lon="-2.286761">
        <ele>934.729</ele>
        <time>2021-04-06T11:34:43Z</time>
      </trkpt>
      <trkpt lat="43.202548" lon="-2.286798">
        <ele>934.326</ele>
        <time>2021-04-06T11:34:44Z</time>
      </trkpt>
      <trkpt lat="43.202550" lon="-2.286837">
        <ele>933.979</ele>
        <time>2021-04-06T11:34:45Z</time>
      </trkpt>
      <trkpt lat="43.202552" lon="-2.286874">
        <ele>933.534</ele>
        <time>2021-04-06T11:34:46Z</time>
      </trkpt>
      <trkpt lat="43.202554" lon="-2.286907">
        <ele>933.267</ele>
        <time>2021-04-06T11:34:47Z</time>
      </trkpt>
      <trkpt lat="43.202554" lon="-2.286942">
        <ele>932.881</ele>
        <time>2021-04-06T11:34:48Z</time>
      </trkpt>
      <trkpt lat="43.202553" lon="-2.286971">
        <ele>932.519</ele>
        <time>2021-04-06T11:34:49Z</time>
      </trkpt>
      <trkpt lat="43.202550" lon="-2.287015">
        <ele>932.008</ele>
        <time>2021-04-06T11:34:51Z</time>
      </trkpt>
      <trkpt lat="43.202549" lon="-2.287053">
        <ele>931.593</ele>
        <time>2021-04-06T11:34:53Z</time>
      </trkpt>
      <trkpt lat="43.202561" lon="-2.287081">
        <ele>931.426</ele>
        <time>2021-04-06T11:34:55Z</time>
      </trkpt>
      <trkpt lat="43.202566" lon="-2.287102">
        <ele>931.257</ele>
        <time>2021-04-06T11:34:57Z</time>
      </trkpt>
      <trkpt lat="43.202546" lon="-2.287095">
        <ele>931.022</ele>
        <time>2021-04-06T11:35:00Z</time>
      </trkpt>
      <trkpt lat="43.202532" lon="-2.287077">
        <ele>931.058</ele>
        <time>2021-04-06T11:35:01Z</time>
      </trkpt>
      <trkpt lat="43.202518" lon="-2.287056">
        <ele>931.135</ele>
        <time>2021-04-06T11:35:02Z</time>
      </trkpt>
      <trkpt lat="43.202505" lon="-2.287029">
        <ele>931.258</ele>
        <time>2021-04-06T11:35:03Z</time>
      </trkpt>
      <trkpt lat="43.202496" lon="-2.287006">
        <ele>931.243</ele>
        <time>2021-04-06T11:35:04Z</time>
      </trkpt>
      <trkpt lat="43.202485" lon="-2.286985">
        <ele>931.191</ele>
        <time>2021-04-06T11:35:05Z</time>
      </trkpt>
      <trkpt lat="43.202472" lon="-2.286967">
        <ele>930.881</ele>
        <time>2021-04-06T11:35:06Z</time>
      </trkpt>
      <trkpt lat="43.202452" lon="-2.286965">
        <ele>930.219</ele>
        <time>2021-04-06T11:35:08Z</time>
      </trkpt>
      <trkpt lat="43.202443" lon="-2.286988">
        <ele>929.708</ele>
        <time>2021-04-06T11:35:10Z</time>
      </trkpt>
      <trkpt lat="43.202414" lon="-2.287013">
        <ele>928.596</ele>
        <time>2021-04-06T11:35:12Z</time>
      </trkpt>
      <trkpt lat="43.202393" lon="-2.287024">
        <ele>927.759</ele>
        <time>2021-04-06T11:35:13Z</time>
      </trkpt>
      <trkpt lat="43.202368" lon="-2.287036">
        <ele>926.790</ele>
        <time>2021-04-06T11:35:14Z</time>
      </trkpt>
      <trkpt lat="43.202341" lon="-2.287049">
        <ele>925.795</ele>
        <time>2021-04-06T11:35:15Z</time>
      </trkpt>
      <trkpt lat="43.202316" lon="-2.287060">
        <ele>924.851</ele>
        <time>2021-04-06T11:35:16Z</time>
      </trkpt>
      <trkpt lat="43.202290" lon="-2.287072">
        <ele>923.838</ele>
        <time>2021-04-06T11:35:17Z</time>
      </trkpt>
      <trkpt lat="43.202262" lon="-2.287084">
        <ele>922.881</ele>
        <time>2021-04-06T11:35:18Z</time>
      </trkpt>
      <trkpt lat="43.202234" lon="-2.287097">
        <ele>921.726</ele>
        <time>2021-04-06T11:35:19Z</time>
      </trkpt>
      <trkpt lat="43.202206" lon="-2.287111">
        <ele>920.919</ele>
        <time>2021-04-06T11:35:20Z</time>
      </trkpt>
      <trkpt lat="43.202178" lon="-2.287126">
        <ele>920.109</ele>
        <time>2021-04-06T11:35:21Z</time>
      </trkpt>
      <trkpt lat="43.202152" lon="-2.287143">
        <ele>919.319</ele>
        <time>2021-04-06T11:35:22Z</time>
      </trkpt>
      <trkpt lat="43.202126" lon="-2.287156">
        <ele>918.608</ele>
        <time>2021-04-06T11:35:23Z</time>
      </trkpt>
      <trkpt lat="43.202097" lon="-2.287168">
        <ele>917.988</ele>
        <time>2021-04-06T11:35:24Z</time>
      </trkpt>
      <trkpt lat="43.202071" lon="-2.287182">
        <ele>917.241</ele>
        <time>2021-04-06T11:35:25Z</time>
      </trkpt>
      <trkpt lat="43.202047" lon="-2.287196">
        <ele>916.582</ele>
        <time>2021-04-06T11:35:26Z</time>
      </trkpt>
      <trkpt lat="43.202025" lon="-2.287214">
        <ele>915.867</ele>
        <time>2021-04-06T11:35:27Z</time>
      </trkpt>
      <trkpt lat="43.202004" lon="-2.287231">
        <ele>915.333</ele>
        <time>2021-04-06T11:35:28Z</time>
      </trkpt>
      <trkpt lat="43.201982" lon="-2.287251">
        <ele>914.850</ele>
        <time>2021-04-06T11:35:29Z</time>
      </trkpt>
      <trkpt lat="43.201962" lon="-2.287272">
        <ele>914.393</ele>
        <time>2021-04-06T11:35:30Z</time>
      </trkpt>
      <trkpt lat="43.201942" lon="-2.287294">
        <ele>913.978</ele>
        <time>2021-04-06T11:35:31Z</time>
      </trkpt>
      <trkpt lat="43.201926" lon="-2.287314">
        <ele>913.088</ele>
        <time>2021-04-06T11:35:32Z</time>
      </trkpt>
      <trkpt lat="43.201912" lon="-2.287334">
        <ele>912.324</ele>
        <time>2021-04-06T11:35:33Z</time>
      </trkpt>
      <trkpt lat="43.201892" lon="-2.287372">
        <ele>911.326</ele>
        <time>2021-04-06T11:35:35Z</time>
      </trkpt>
      <trkpt lat="43.201880" lon="-2.287392">
        <ele>910.708</ele>
        <time>2021-04-06T11:35:36Z</time>
      </trkpt>
      <trkpt lat="43.201867" lon="-2.287410">
        <ele>910.085</ele>
        <time>2021-04-06T11:35:37Z</time>
      </trkpt>
      <trkpt lat="43.201847" lon="-2.287430">
        <ele>909.058</ele>
        <time>2021-04-06T11:35:39Z</time>
      </trkpt>
      <trkpt lat="43.201823" lon="-2.287449">
        <ele>907.829</ele>
        <time>2021-04-06T11:35:41Z</time>
      </trkpt>
      <trkpt lat="43.201799" lon="-2.287452">
        <ele>906.674</ele>
        <time>2021-04-06T11:35:43Z</time>
      </trkpt>
      <trkpt lat="43.201789" lon="-2.287414">
        <ele>906.090</ele>
        <time>2021-04-06T11:35:45Z</time>
      </trkpt>
      <trkpt lat="43.201781" lon="-2.287391">
        <ele>905.527</ele>
        <time>2021-04-06T11:35:47Z</time>
      </trkpt>
      <trkpt lat="43.201769" lon="-2.287373">
        <ele>904.990</ele>
        <time>2021-04-06T11:35:49Z</time>
      </trkpt>
      <trkpt lat="43.201752" lon="-2.287385">
        <ele>904.085</ele>
        <time>2021-04-06T11:35:51Z</time>
      </trkpt>
      <trkpt lat="43.201733" lon="-2.287387">
        <ele>903.058</ele>
        <time>2021-04-06T11:35:53Z</time>
      </trkpt>
      <trkpt lat="43.201715" lon="-2.287377">
        <ele>902.152</ele>
        <time>2021-04-06T11:35:55Z</time>
      </trkpt>
      <trkpt lat="43.201691" lon="-2.287385">
        <ele>900.817</ele>
        <time>2021-04-06T11:35:58Z</time>
      </trkpt>
      <trkpt lat="43.201678" lon="-2.287423">
        <ele>900.308</ele>
        <time>2021-04-06T11:36:00Z</time>
      </trkpt>
      <trkpt lat="43.201670" lon="-2.287456">
        <ele>900.032</ele>
        <time>2021-04-06T11:36:02Z</time>
      </trkpt>
      <trkpt lat="43.201654" lon="-2.287471">
        <ele>899.495</ele>
        <time>2021-04-06T11:36:04Z</time>
      </trkpt>
      <trkpt lat="43.201635" lon="-2.287469">
        <ele>898.586</ele>
        <time>2021-04-06T11:36:06Z</time>
      </trkpt>
      <trkpt lat="43.201622" lon="-2.287453">
        <ele>897.951</ele>
        <time>2021-04-06T11:36:07Z</time>
      </trkpt>
      <trkpt lat="43.201608" lon="-2.287436">
        <ele>897.367</ele>
        <time>2021-04-06T11:36:08Z</time>
      </trkpt>
      <trkpt lat="43.201592" lon="-2.287417">
        <ele>896.654</ele>
        <time>2021-04-06T11:36:09Z</time>
      </trkpt>
      <trkpt lat="43.201576" lon="-2.287397">
        <ele>895.897</ele>
        <time>2021-04-06T11:36:10Z</time>
      </trkpt>
      <trkpt lat="43.201560" lon="-2.287378">
        <ele>895.162</ele>
        <time>2021-04-06T11:36:11Z</time>
      </trkpt>
      <trkpt lat="43.201543" lon="-2.287355">
        <ele>894.478</ele>
        <time>2021-04-06T11:36:12Z</time>
      </trkpt>
      <trkpt lat="43.201529" lon="-2.287325">
        <ele>893.733</ele>
        <time>2021-04-06T11:36:13Z</time>
      </trkpt>
      <trkpt lat="43.201517" lon="-2.287290">
        <ele>893.226</ele>
        <time>2021-04-06T11:36:14Z</time>
      </trkpt>
      <trkpt lat="43.201504" lon="-2.287256">
        <ele>892.608</ele>
        <time>2021-04-06T11:36:15Z</time>
      </trkpt>
      <trkpt lat="43.201489" lon="-2.287226">
        <ele>892.064</ele>
        <time>2021-04-06T11:36:16Z</time>
      </trkpt>
      <trkpt lat="43.201473" lon="-2.287198">
        <ele>891.417</ele>
        <time>2021-04-06T11:36:17Z</time>
      </trkpt>
      <trkpt lat="43.201457" lon="-2.287168">
        <ele>890.868</ele>
        <time>2021-04-06T11:36:18Z</time>
      </trkpt>
      <trkpt lat="43.201436" lon="-2.287135">
        <ele>890.013</ele>
        <time>2021-04-06T11:36:19Z</time>
      </trkpt>
      <trkpt lat="43.201414" lon="-2.287102">
        <ele>889.169</ele>
        <time>2021-04-06T11:36:20Z</time>
      </trkpt>
      <trkpt lat="43.201395" lon="-2.287071">
        <ele>888.356</ele>
        <time>2021-04-06T11:36:21Z</time>
      </trkpt>
      <trkpt lat="43.201376" lon="-2.287037">
        <ele>887.779</ele>
        <time>2021-04-06T11:36:22Z</time>
      </trkpt>
      <trkpt lat="43.201345" lon="-2.286971">
        <ele>887.164</ele>
        <time>2021-04-06T11:36:24Z</time>
      </trkpt>
      <trkpt lat="43.201330" lon="-2.286932">
        <ele>886.878</ele>
        <time>2021-04-06T11:36:25Z</time>
      </trkpt>
      <trkpt lat="43.201317" lon="-2.286895">
        <ele>886.533</ele>
        <time>2021-04-06T11:36:26Z</time>
      </trkpt>
      <trkpt lat="43.201306" lon="-2.286858">
        <ele>886.326</ele>
        <time>2021-04-06T11:36:27Z</time>
      </trkpt>
      <trkpt lat="43.201294" lon="-2.286820">
        <ele>886.108</ele>
        <time>2021-04-06T11:36:28Z</time>
      </trkpt>
      <trkpt lat="43.201284" lon="-2.286785">
        <ele>885.994</ele>
        <time>2021-04-06T11:36:29Z</time>
      </trkpt>
      <trkpt lat="43.201275" lon="-2.286747">
        <ele>885.767</ele>
        <time>2021-04-06T11:36:30Z</time>
      </trkpt>
      <trkpt lat="43.201265" lon="-2.286707">
        <ele>885.428</ele>
        <time>2021-04-06T11:36:31Z</time>
      </trkpt>
      <trkpt lat="43.201254" lon="-2.286667">
        <ele>885.173</ele>
        <time>2021-04-06T11:36:32Z</time>
      </trkpt>
      <trkpt lat="43.201245" lon="-2.286627">
        <ele>884.939</ele>
        <time>2021-04-06T11:36:33Z</time>
      </trkpt>
      <trkpt lat="43.201236" lon="-2.286588">
        <ele>884.646</ele>
        <time>2021-04-06T11:36:34Z</time>
      </trkpt>
      <trkpt lat="43.201229" lon="-2.286550">
        <ele>884.339</ele>
        <time>2021-04-06T11:36:35Z</time>
      </trkpt>
      <trkpt lat="43.201221" lon="-2.286511">
        <ele>884.094</ele>
        <time>2021-04-06T11:36:36Z</time>
      </trkpt>
      <trkpt lat="43.201215" lon="-2.286472">
        <ele>883.861</ele>
        <time>2021-04-06T11:36:37Z</time>
      </trkpt>
      <trkpt lat="43.201212" lon="-2.286437">
        <ele>883.721</ele>
        <time>2021-04-06T11:36:38Z</time>
      </trkpt>
      <trkpt lat="43.201205" lon="-2.286406">
        <ele>883.413</ele>
        <time>2021-04-06T11:36:39Z</time>
      </trkpt>
      <trkpt lat="43.201197" lon="-2.286372">
        <ele>883.008</ele>
        <time>2021-04-06T11:36:40Z</time>
      </trkpt>
      <trkpt lat="43.201192" lon="-2.286339">
        <ele>882.813</ele>
        <time>2021-04-06T11:36:41Z</time>
      </trkpt>
      <trkpt lat="43.201184" lon="-2.286300">
        <ele>882.446</ele>
        <time>2021-04-06T11:36:42Z</time>
      </trkpt>
      <trkpt lat="43.201173" lon="-2.286262">
        <ele>881.967</ele>
        <time>2021-04-06T11:36:43Z</time>
      </trkpt>
      <trkpt lat="43.201162" lon="-2.286227">
        <ele>881.442</ele>
        <time>2021-04-06T11:36:44Z</time>
      </trkpt>
      <trkpt lat="43.201147" lon="-2.286189">
        <ele>880.748</ele>
        <time>2021-04-06T11:36:45Z</time>
      </trkpt>
      <trkpt lat="43.201136" lon="-2.286151">
        <ele>880.165</ele>
        <time>2021-04-06T11:36:46Z</time>
      </trkpt>
      <trkpt lat="43.201129" lon="-2.286115">
        <ele>879.758</ele>
        <time>2021-04-06T11:36:47Z</time>
      </trkpt>
      <trkpt lat="43.201122" lon="-2.286075">
        <ele>879.283</ele>
        <time>2021-04-06T11:36:48Z</time>
      </trkpt>
      <trkpt lat="43.201115" lon="-2.286039">
        <ele>878.674</ele>
        <time>2021-04-06T11:36:49Z</time>
      </trkpt>
      <trkpt lat="43.201109" lon="-2.286001">
        <ele>878.256</ele>
        <time>2021-04-06T11:36:50Z</time>
      </trkpt>
      <trkpt lat="43.201105" lon="-2.285962">
        <ele>877.921</ele>
        <time>2021-04-06T11:36:51Z</time>
      </trkpt>
      <trkpt lat="43.201099" lon="-2.285924">
        <ele>877.508</ele>
        <time>2021-04-06T11:36:52Z</time>
      </trkpt>
      <trkpt lat="43.201090" lon="-2.285886">
        <ele>877.174</ele>
        <time>2021-04-06T11:36:53Z</time>
      </trkpt>
      <trkpt lat="43.201079" lon="-2.285845">
        <ele>876.697</ele>
        <time>2021-04-06T11:36:54Z</time>
      </trkpt>
      <trkpt lat="43.201068" lon="-2.285803">
        <ele>876.128</ele>
        <time>2021-04-06T11:36:55Z</time>
      </trkpt>
      <trkpt lat="43.201058" lon="-2.285761">
        <ele>875.583</ele>
        <time>2021-04-06T11:36:56Z</time>
      </trkpt>
      <trkpt lat="43.201052" lon="-2.285722">
        <ele>874.929</ele>
        <time>2021-04-06T11:36:57Z</time>
      </trkpt>
      <trkpt lat="43.201042" lon="-2.285685">
        <ele>874.456</ele>
        <time>2021-04-06T11:36:58Z</time>
      </trkpt>
      <trkpt lat="43.201032" lon="-2.285648">
        <ele>873.969</ele>
        <time>2021-04-06T11:36:59Z</time>
      </trkpt>
      <trkpt lat="43.201023" lon="-2.285609">
        <ele>873.354</ele>
        <time>2021-04-06T11:37:00Z</time>
      </trkpt>
      <trkpt lat="43.201015" lon="-2.285575">
        <ele>872.812</ele>
        <time>2021-04-06T11:37:01Z</time>
      </trkpt>
      <trkpt lat="43.201009" lon="-2.285541">
        <ele>872.432</ele>
        <time>2021-04-06T11:37:02Z</time>
      </trkpt>
      <trkpt lat="43.201003" lon="-2.285511">
        <ele>871.905</ele>
        <time>2021-04-06T11:37:03Z</time>
      </trkpt>
      <trkpt lat="43.200994" lon="-2.285479">
        <ele>871.408</ele>
        <time>2021-04-06T11:37:04Z</time>
      </trkpt>
      <trkpt lat="43.200990" lon="-2.285451">
        <ele>871.098</ele>
        <time>2021-04-06T11:37:05Z</time>
      </trkpt>
      <trkpt lat="43.200986" lon="-2.285419">
        <ele>870.581</ele>
        <time>2021-04-06T11:37:06Z</time>
      </trkpt>
      <trkpt lat="43.200986" lon="-2.285385">
        <ele>870.112</ele>
        <time>2021-04-06T11:37:07Z</time>
      </trkpt>
      <trkpt lat="43.200987" lon="-2.285350">
        <ele>869.757</ele>
        <time>2021-04-06T11:37:08Z</time>
      </trkpt>
      <trkpt lat="43.200987" lon="-2.285316">
        <ele>869.283</ele>
        <time>2021-04-06T11:37:09Z</time>
      </trkpt>
      <trkpt lat="43.200988" lon="-2.285279">
        <ele>868.820</ele>
        <time>2021-04-06T11:37:10Z</time>
      </trkpt>
      <trkpt lat="43.200991" lon="-2.285246">
        <ele>868.473</ele>
        <time>2021-04-06T11:37:11Z</time>
      </trkpt>
      <trkpt lat="43.200992" lon="-2.285207">
        <ele>868.078</ele>
        <time>2021-04-06T11:37:12Z</time>
      </trkpt>
      <trkpt lat="43.200991" lon="-2.285166">
        <ele>867.518</ele>
        <time>2021-04-06T11:37:13Z</time>
      </trkpt>
      <trkpt lat="43.200988" lon="-2.285124">
        <ele>866.998</ele>
        <time>2021-04-06T11:37:14Z</time>
      </trkpt>
      <trkpt lat="43.200986" lon="-2.285083">
        <ele>866.317</ele>
        <time>2021-04-06T11:37:15Z</time>
      </trkpt>
      <trkpt lat="43.200984" lon="-2.285045">
        <ele>865.808</ele>
        <time>2021-04-06T11:37:16Z</time>
      </trkpt>
      <trkpt lat="43.200982" lon="-2.285005">
        <ele>865.398</ele>
        <time>2021-04-06T11:37:17Z</time>
      </trkpt>
      <trkpt lat="43.200976" lon="-2.284962">
        <ele>864.591</ele>
        <time>2021-04-06T11:37:18Z</time>
      </trkpt>
      <trkpt lat="43.200973" lon="-2.284921">
        <ele>863.982</ele>
        <time>2021-04-06T11:37:19Z</time>
      </trkpt>
      <trkpt lat="43.200972" lon="-2.284881">
        <ele>863.397</ele>
        <time>2021-04-06T11:37:20Z</time>
      </trkpt>
      <trkpt lat="43.200967" lon="-2.284838">
        <ele>862.673</ele>
        <time>2021-04-06T11:37:21Z</time>
      </trkpt>
      <trkpt lat="43.200964" lon="-2.284800">
        <ele>861.920</ele>
        <time>2021-04-06T11:37:22Z</time>
      </trkpt>
      <trkpt lat="43.200959" lon="-2.284760">
        <ele>861.333</ele>
        <time>2021-04-06T11:37:23Z</time>
      </trkpt>
      <trkpt lat="43.200952" lon="-2.284719">
        <ele>860.548</ele>
        <time>2021-04-06T11:37:24Z</time>
      </trkpt>
      <trkpt lat="43.200944" lon="-2.284681">
        <ele>859.844</ele>
        <time>2021-04-06T11:37:25Z</time>
      </trkpt>
      <trkpt lat="43.200938" lon="-2.284645">
        <ele>859.105</ele>
        <time>2021-04-06T11:37:26Z</time>
      </trkpt>
      <trkpt lat="43.200929" lon="-2.284609">
        <ele>858.315</ele>
        <time>2021-04-06T11:37:27Z</time>
      </trkpt>
      <trkpt lat="43.200920" lon="-2.284574">
        <ele>857.508</ele>
        <time>2021-04-06T11:37:28Z</time>
      </trkpt>
      <trkpt lat="43.200912" lon="-2.284541">
        <ele>856.861</ele>
        <time>2021-04-06T11:37:29Z</time>
      </trkpt>
      <trkpt lat="43.200906" lon="-2.284508">
        <ele>856.134</ele>
        <time>2021-04-06T11:37:30Z</time>
      </trkpt>
      <trkpt lat="43.200899" lon="-2.284479">
        <ele>855.535</ele>
        <time>2021-04-06T11:37:31Z</time>
      </trkpt>
      <trkpt lat="43.200888" lon="-2.284450">
        <ele>854.750</ele>
        <time>2021-04-06T11:37:32Z</time>
      </trkpt>
      <trkpt lat="43.200875" lon="-2.284422">
        <ele>853.936</ele>
        <time>2021-04-06T11:37:33Z</time>
      </trkpt>
      <trkpt lat="43.200863" lon="-2.284393">
        <ele>853.113</ele>
        <time>2021-04-06T11:37:34Z</time>
      </trkpt>
      <trkpt lat="43.200853" lon="-2.284364">
        <ele>852.486</ele>
        <time>2021-04-06T11:37:35Z</time>
      </trkpt>
      <trkpt lat="43.200847" lon="-2.284333">
        <ele>851.831</ele>
        <time>2021-04-06T11:37:36Z</time>
      </trkpt>
      <trkpt lat="43.200844" lon="-2.284300">
        <ele>851.259</ele>
        <time>2021-04-06T11:37:37Z</time>
      </trkpt>
      <trkpt lat="43.200839" lon="-2.284266">
        <ele>850.603</ele>
        <time>2021-04-06T11:37:38Z</time>
      </trkpt>
      <trkpt lat="43.200828" lon="-2.284231">
        <ele>849.923</ele>
        <time>2021-04-06T11:37:39Z</time>
      </trkpt>
      <trkpt lat="43.200815" lon="-2.284200">
        <ele>849.408</ele>
        <time>2021-04-06T11:37:40Z</time>
      </trkpt>
      <trkpt lat="43.200804" lon="-2.284170">
        <ele>848.852</ele>
        <time>2021-04-06T11:37:41Z</time>
      </trkpt>
      <trkpt lat="43.200797" lon="-2.284139">
        <ele>848.215</ele>
        <time>2021-04-06T11:37:42Z</time>
      </trkpt>
      <trkpt lat="43.200795" lon="-2.284105">
        <ele>847.686</ele>
        <time>2021-04-06T11:37:43Z</time>
      </trkpt>
      <trkpt lat="43.200791" lon="-2.284070">
        <ele>846.911</ele>
        <time>2021-04-06T11:37:44Z</time>
      </trkpt>
      <trkpt lat="43.200784" lon="-2.284038">
        <ele>846.297</ele>
        <time>2021-04-06T11:37:45Z</time>
      </trkpt>
      <trkpt lat="43.200775" lon="-2.284008">
        <ele>845.634</ele>
        <time>2021-04-06T11:37:46Z</time>
      </trkpt>
      <trkpt lat="43.200768" lon="-2.283981">
        <ele>845.037</ele>
        <time>2021-04-06T11:37:47Z</time>
      </trkpt>
      <trkpt lat="43.200764" lon="-2.283955">
        <ele>844.552</ele>
        <time>2021-04-06T11:37:48Z</time>
      </trkpt>
      <trkpt lat="43.200759" lon="-2.283927">
        <ele>843.954</ele>
        <time>2021-04-06T11:37:49Z</time>
      </trkpt>
      <trkpt lat="43.200752" lon="-2.283899">
        <ele>843.356</ele>
        <time>2021-04-06T11:37:50Z</time>
      </trkpt>
      <trkpt lat="43.200744" lon="-2.283869">
        <ele>842.611</ele>
        <time>2021-04-06T11:37:51Z</time>
      </trkpt>
      <trkpt lat="43.200734" lon="-2.283842">
        <ele>842.008</ele>
        <time>2021-04-06T11:37:52Z</time>
      </trkpt>
      <trkpt lat="43.200718" lon="-2.283821">
        <ele>841.342</ele>
        <time>2021-04-06T11:37:53Z</time>
      </trkpt>
      <trkpt lat="43.200705" lon="-2.283799">
        <ele>840.735</ele>
        <time>2021-04-06T11:37:54Z</time>
      </trkpt>
      <trkpt lat="43.200695" lon="-2.283778">
        <ele>840.166</ele>
        <time>2021-04-06T11:37:55Z</time>
      </trkpt>
      <trkpt lat="43.200686" lon="-2.283753">
        <ele>839.471</ele>
        <time>2021-04-06T11:37:56Z</time>
      </trkpt>
      <trkpt lat="43.200678" lon="-2.283726">
        <ele>838.797</ele>
        <time>2021-04-06T11:37:57Z</time>
      </trkpt>
      <trkpt lat="43.200672" lon="-2.283693">
        <ele>837.994</ele>
        <time>2021-04-06T11:37:58Z</time>
      </trkpt>
      <trkpt lat="43.200659" lon="-2.283633">
        <ele>836.417</ele>
        <time>2021-04-06T11:38:00Z</time>
      </trkpt>
      <trkpt lat="43.200655" lon="-2.283604">
        <ele>835.672</ele>
        <time>2021-04-06T11:38:01Z</time>
      </trkpt>
      <trkpt lat="43.200651" lon="-2.283573">
        <ele>834.758</ele>
        <time>2021-04-06T11:38:02Z</time>
      </trkpt>
      <trkpt lat="43.200650" lon="-2.283544">
        <ele>833.852</ele>
        <time>2021-04-06T11:38:03Z</time>
      </trkpt>
      <trkpt lat="43.200655" lon="-2.283518">
        <ele>833.217</ele>
        <time>2021-04-06T11:38:04Z</time>
      </trkpt>
      <trkpt lat="43.200662" lon="-2.283492">
        <ele>832.608</ele>
        <time>2021-04-06T11:38:05Z</time>
      </trkpt>
      <trkpt lat="43.200669" lon="-2.283467">
        <ele>832.112</ele>
        <time>2021-04-06T11:38:06Z</time>
      </trkpt>
      <trkpt lat="43.200675" lon="-2.283440">
        <ele>831.565</ele>
        <time>2021-04-06T11:38:07Z</time>
      </trkpt>
      <trkpt lat="43.200684" lon="-2.283416">
        <ele>831.026</ele>
        <time>2021-04-06T11:38:08Z</time>
      </trkpt>
      <trkpt lat="43.200693" lon="-2.283394">
        <ele>830.641</ele>
        <time>2021-04-06T11:38:09Z</time>
      </trkpt>
      <trkpt lat="43.200701" lon="-2.283347">
        <ele>829.537</ele>
        <time>2021-04-06T11:38:11Z</time>
      </trkpt>
      <trkpt lat="43.200707" lon="-2.283324">
        <ele>829.054</ele>
        <time>2021-04-06T11:38:12Z</time>
      </trkpt>
      <trkpt lat="43.200715" lon="-2.283299">
        <ele>828.337</ele>
        <time>2021-04-06T11:38:13Z</time>
      </trkpt>
      <trkpt lat="43.200730" lon="-2.283255">
        <ele>827.232</ele>
        <time>2021-04-06T11:38:15Z</time>
      </trkpt>
      <trkpt lat="43.200736" lon="-2.283230">
        <ele>826.573</ele>
        <time>2021-04-06T11:38:16Z</time>
      </trkpt>
      <trkpt lat="43.200740" lon="-2.283207">
        <ele>825.985</ele>
        <time>2021-04-06T11:38:18Z</time>
      </trkpt>
      <trkpt lat="43.200739" lon="-2.283160">
        <ele>824.313</ele>
        <time>2021-04-06T11:38:19Z</time>
      </trkpt>
      <trkpt lat="43.200733" lon="-2.283139">
        <ele>823.508</ele>
        <time>2021-04-06T11:38:20Z</time>
      </trkpt>
      <trkpt lat="43.200728" lon="-2.283101">
        <ele>822.284</ele>
        <time>2021-04-06T11:38:22Z</time>
      </trkpt>
      <trkpt lat="43.200732" lon="-2.283060">
        <ele>821.087</ele>
        <time>2021-04-06T11:38:24Z</time>
      </trkpt>
      <trkpt lat="43.200734" lon="-2.283015">
        <ele>819.678</ele>
        <time>2021-04-06T11:38:26Z</time>
      </trkpt>
      <trkpt lat="43.200731" lon="-2.282991">
        <ele>818.893</ele>
        <time>2021-04-06T11:38:27Z</time>
      </trkpt>
      <trkpt lat="43.200731" lon="-2.282954">
        <ele>817.679</ele>
        <time>2021-04-06T11:38:29Z</time>
      </trkpt>
      <trkpt lat="43.200736" lon="-2.282931">
        <ele>817.046</ele>
        <time>2021-04-06T11:38:30Z</time>
      </trkpt>
      <trkpt lat="43.200745" lon="-2.282890">
        <ele>815.999</ele>
        <time>2021-04-06T11:38:32Z</time>
      </trkpt>
      <trkpt lat="43.200745" lon="-2.282852">
        <ele>814.824</ele>
        <time>2021-04-06T11:38:34Z</time>
      </trkpt>
      <trkpt lat="43.200740" lon="-2.282829">
        <ele>813.963</ele>
        <time>2021-04-06T11:38:35Z</time>
      </trkpt>
      <trkpt lat="43.200734" lon="-2.282777">
        <ele>812.144</ele>
        <time>2021-04-06T11:38:37Z</time>
      </trkpt>
      <trkpt lat="43.200733" lon="-2.282750">
        <ele>811.518</ele>
        <time>2021-04-06T11:38:38Z</time>
      </trkpt>
      <trkpt lat="43.200733" lon="-2.282723">
        <ele>810.908</ele>
        <time>2021-04-06T11:38:39Z</time>
      </trkpt>
      <trkpt lat="43.200734" lon="-2.282695">
        <ele>810.283</ele>
        <time>2021-04-06T11:38:40Z</time>
      </trkpt>
      <trkpt lat="43.200737" lon="-2.282668">
        <ele>809.736</ele>
        <time>2021-04-06T11:38:41Z</time>
      </trkpt>
      <trkpt lat="43.200742" lon="-2.282641">
        <ele>809.317</ele>
        <time>2021-04-06T11:38:42Z</time>
      </trkpt>
      <trkpt lat="43.200743" lon="-2.282616">
        <ele>808.732</ele>
        <time>2021-04-06T11:38:43Z</time>
      </trkpt>
      <trkpt lat="43.200744" lon="-2.282589">
        <ele>808.138</ele>
        <time>2021-04-06T11:38:44Z</time>
      </trkpt>
      <trkpt lat="43.200744" lon="-2.282562">
        <ele>807.575</ele>
        <time>2021-04-06T11:38:45Z</time>
      </trkpt>
      <trkpt lat="43.200742" lon="-2.282534">
        <ele>806.868</ele>
        <time>2021-04-06T11:38:46Z</time>
      </trkpt>
      <trkpt lat="43.200739" lon="-2.282507">
        <ele>806.183</ele>
        <time>2021-04-06T11:38:47Z</time>
      </trkpt>
      <trkpt lat="43.200730" lon="-2.282481">
        <ele>805.232</ele>
        <time>2021-04-06T11:38:48Z</time>
      </trkpt>
      <trkpt lat="43.200721" lon="-2.282455">
        <ele>804.392</ele>
        <time>2021-04-06T11:38:49Z</time>
      </trkpt>
      <trkpt lat="43.200714" lon="-2.282429">
        <ele>803.511</ele>
        <time>2021-04-06T11:38:50Z</time>
      </trkpt>
      <trkpt lat="43.200707" lon="-2.282401">
        <ele>802.608</ele>
        <time>2021-04-06T11:38:51Z</time>
      </trkpt>
      <trkpt lat="43.200706" lon="-2.282375">
        <ele>801.910</ele>
        <time>2021-04-06T11:38:52Z</time>
      </trkpt>
      <trkpt lat="43.200706" lon="-2.282350">
        <ele>801.343</ele>
        <time>2021-04-06T11:38:53Z</time>
      </trkpt>
      <trkpt lat="43.200709" lon="-2.282325">
        <ele>800.844</ele>
        <time>2021-04-06T11:38:54Z</time>
      </trkpt>
      <trkpt lat="43.200710" lon="-2.282298">
        <ele>800.259</ele>
        <time>2021-04-06T11:38:55Z</time>
      </trkpt>
      <trkpt lat="43.200708" lon="-2.282269">
        <ele>799.525</ele>
        <time>2021-04-06T11:38:56Z</time>
      </trkpt>
      <trkpt lat="43.200697" lon="-2.282241">
        <ele>798.512</ele>
        <time>2021-04-06T11:38:57Z</time>
      </trkpt>
      <trkpt lat="43.200691" lon="-2.282215">
        <ele>797.755</ele>
        <time>2021-04-06T11:38:58Z</time>
      </trkpt>
      <trkpt lat="43.200685" lon="-2.282190">
        <ele>797.010</ele>
        <time>2021-04-06T11:38:59Z</time>
      </trkpt>
      <trkpt lat="43.200679" lon="-2.282164">
        <ele>796.294</ele>
        <time>2021-04-06T11:39:00Z</time>
      </trkpt>
      <trkpt lat="43.200673" lon="-2.282142">
        <ele>795.557</ele>
        <time>2021-04-06T11:39:01Z</time>
      </trkpt>
      <trkpt lat="43.200668" lon="-2.282120">
        <ele>794.822</ele>
        <time>2021-04-06T11:39:02Z</time>
      </trkpt>
      <trkpt lat="43.200664" lon="-2.282075">
        <ele>793.608</ele>
        <time>2021-04-06T11:39:04Z</time>
      </trkpt>
      <trkpt lat="43.200659" lon="-2.282053">
        <ele>792.966</ele>
        <time>2021-04-06T11:39:05Z</time>
      </trkpt>
      <trkpt lat="43.200652" lon="-2.282010">
        <ele>791.739</ele>
        <time>2021-04-06T11:39:07Z</time>
      </trkpt>
      <trkpt lat="43.200650" lon="-2.281964">
        <ele>790.550</ele>
        <time>2021-04-06T11:39:09Z</time>
      </trkpt>
      <trkpt lat="43.200636" lon="-2.281930">
        <ele>789.295</ele>
        <time>2021-04-06T11:39:11Z</time>
      </trkpt>
      <trkpt lat="43.200624" lon="-2.281888">
        <ele>787.821</ele>
        <time>2021-04-06T11:39:13Z</time>
      </trkpt>
      <trkpt lat="43.200615" lon="-2.281863">
        <ele>786.988</ele>
        <time>2021-04-06T11:39:14Z</time>
      </trkpt>
      <trkpt lat="43.200612" lon="-2.281819">
        <ele>785.771</ele>
        <time>2021-04-06T11:39:16Z</time>
      </trkpt>
      <trkpt lat="43.200614" lon="-2.281794">
        <ele>785.136</ele>
        <time>2021-04-06T11:39:17Z</time>
      </trkpt>
      <trkpt lat="43.200612" lon="-2.281768">
        <ele>784.421</ele>
        <time>2021-04-06T11:39:18Z</time>
      </trkpt>
      <trkpt lat="43.200610" lon="-2.281741">
        <ele>783.641</ele>
        <time>2021-04-06T11:39:19Z</time>
      </trkpt>
      <trkpt lat="43.200605" lon="-2.281716">
        <ele>782.805</ele>
        <time>2021-04-06T11:39:20Z</time>
      </trkpt>
      <trkpt lat="43.200599" lon="-2.281691">
        <ele>782.008</ele>
        <time>2021-04-06T11:39:21Z</time>
      </trkpt>
      <trkpt lat="43.200594" lon="-2.281665">
        <ele>781.279</ele>
        <time>2021-04-06T11:39:22Z</time>
      </trkpt>
      <trkpt lat="43.200591" lon="-2.281641">
        <ele>780.672</ele>
        <time>2021-04-06T11:39:23Z</time>
      </trkpt>
      <trkpt lat="43.200587" lon="-2.281599">
        <ele>779.613</ele>
        <time>2021-04-06T11:39:25Z</time>
      </trkpt>
      <trkpt lat="43.200580" lon="-2.281555">
        <ele>778.498</ele>
        <time>2021-04-06T11:39:27Z</time>
      </trkpt>
      <trkpt lat="43.200578" lon="-2.281529">
        <ele>777.874</ele>
        <time>2021-04-06T11:39:28Z</time>
      </trkpt>
      <trkpt lat="43.200577" lon="-2.281500">
        <ele>777.141</ele>
        <time>2021-04-06T11:39:29Z</time>
      </trkpt>
      <trkpt lat="43.200577" lon="-2.281474">
        <ele>776.594</ele>
        <time>2021-04-06T11:39:30Z</time>
      </trkpt>
      <trkpt lat="43.200577" lon="-2.281452">
        <ele>776.129</ele>
        <time>2021-04-06T11:39:31Z</time>
      </trkpt>
      <trkpt lat="43.200576" lon="-2.281381">
        <ele>774.573</ele>
        <time>2021-04-06T11:39:34Z</time>
      </trkpt>
      <trkpt lat="43.200566" lon="-2.281338">
        <ele>773.185</ele>
        <time>2021-04-06T11:39:36Z</time>
      </trkpt>
      <trkpt lat="43.200563" lon="-2.281300">
        <ele>772.013</ele>
        <time>2021-04-06T11:39:38Z</time>
      </trkpt>
      <trkpt lat="43.200544" lon="-2.281274">
        <ele>770.608</ele>
        <time>2021-04-06T11:39:40Z</time>
      </trkpt>
      <trkpt lat="43.200519" lon="-2.281261">
        <ele>769.324</ele>
        <time>2021-04-06T11:39:42Z</time>
      </trkpt>
      <trkpt lat="43.200497" lon="-2.281246">
        <ele>768.077</ele>
        <time>2021-04-06T11:39:44Z</time>
      </trkpt>
      <trkpt lat="43.200476" lon="-2.281233">
        <ele>766.878</ele>
        <time>2021-04-06T11:39:46Z</time>
      </trkpt>
      <trkpt lat="43.200460" lon="-2.281225">
        <ele>765.943</ele>
        <time>2021-04-06T11:39:48Z</time>
      </trkpt>
      <trkpt lat="43.200444" lon="-2.281213">
        <ele>765.019</ele>
        <time>2021-04-06T11:39:50Z</time>
      </trkpt>
      <trkpt lat="43.200424" lon="-2.281198">
        <ele>763.856</ele>
        <time>2021-04-06T11:39:52Z</time>
      </trkpt>
      <trkpt lat="43.200401" lon="-2.281188">
        <ele>762.769</ele>
        <time>2021-04-06T11:39:54Z</time>
      </trkpt>
      <trkpt lat="43.200392" lon="-2.281185">
        <ele>762.254</ele>
        <time>2021-04-06T11:39:55Z</time>
      </trkpt>
      <trkpt lat="43.200376" lon="-2.281175">
        <ele>761.455</ele>
        <time>2021-04-06T11:39:58Z</time>
      </trkpt>
      <trkpt lat="43.200365" lon="-2.281152">
        <ele>760.407</ele>
        <time>2021-04-06T11:40:00Z</time>
      </trkpt>
      <trkpt lat="43.200362" lon="-2.281124">
        <ele>759.617</ele>
        <time>2021-04-06T11:40:03Z</time>
      </trkpt>
      <trkpt lat="43.200345" lon="-2.281109">
        <ele>758.608</ele>
        <time>2021-04-06T11:40:05Z</time>
      </trkpt>
      <trkpt lat="43.200344" lon="-2.281080">
        <ele>757.982</ele>
        <time>2021-04-06T11:40:08Z</time>
      </trkpt>
      <trkpt lat="43.200337" lon="-2.281069">
        <ele>757.415</ele>
        <time>2021-04-06T11:40:10Z</time>
      </trkpt>
      <trkpt lat="43.200337" lon="-2.281038">
        <ele>756.726</ele>
        <time>2021-04-06T11:40:13Z</time>
      </trkpt>
      <trkpt lat="43.200325" lon="-2.281014">
        <ele>755.731</ele>
        <time>2021-04-06T11:40:15Z</time>
      </trkpt>
      <trkpt lat="43.200300" lon="-2.280987">
        <ele>754.137</ele>
        <time>2021-04-06T11:40:17Z</time>
      </trkpt>
      <trkpt lat="43.200288" lon="-2.280968">
        <ele>753.384</ele>
        <time>2021-04-06T11:40:18Z</time>
      </trkpt>
      <trkpt lat="43.200277" lon="-2.280945">
        <ele>752.447</ele>
        <time>2021-04-06T11:40:19Z</time>
      </trkpt>
      <trkpt lat="43.200267" lon="-2.280922">
        <ele>751.632</ele>
        <time>2021-04-06T11:40:20Z</time>
      </trkpt>
      <trkpt lat="43.200261" lon="-2.280901">
        <ele>751.022</ele>
        <time>2021-04-06T11:40:21Z</time>
      </trkpt>
      <trkpt lat="43.200257" lon="-2.280877">
        <ele>750.362</ele>
        <time>2021-04-06T11:40:22Z</time>
      </trkpt>
      <trkpt lat="43.200255" lon="-2.280843">
        <ele>749.508</ele>
        <time>2021-04-06T11:40:24Z</time>
      </trkpt>
      <trkpt lat="43.200263" lon="-2.280803">
        <ele>748.808</ele>
        <time>2021-04-06T11:40:26Z</time>
      </trkpt>
      <trkpt lat="43.200278" lon="-2.280768">
        <ele>748.459</ele>
        <time>2021-04-06T11:40:28Z</time>
      </trkpt>
      <trkpt lat="43.200285" lon="-2.280746">
        <ele>748.072</ele>
        <time>2021-04-06T11:40:29Z</time>
      </trkpt>
      <trkpt lat="43.200268" lon="-2.280709">
        <ele>746.553</ele>
        <time>2021-04-06T11:40:31Z</time>
      </trkpt>
      <trkpt lat="43.200233" lon="-2.280708">
        <ele>745.368</ele>
        <time>2021-04-06T11:40:33Z</time>
      </trkpt>
      <trkpt lat="43.200210" lon="-2.280730">
        <ele>745.114</ele>
        <time>2021-04-06T11:40:35Z</time>
      </trkpt>
      <trkpt lat="43.200195" lon="-2.280769">
        <ele>745.661</ele>
        <time>2021-04-06T11:40:37Z</time>
      </trkpt>
      <trkpt lat="43.200186" lon="-2.280791">
        <ele>745.974</ele>
        <time>2021-04-06T11:40:38Z</time>
      </trkpt>
      <trkpt lat="43.200178" lon="-2.280836">
        <ele>746.829</ele>
        <time>2021-04-06T11:40:40Z</time>
      </trkpt>
      <trkpt lat="43.200192" lon="-2.280866">
        <ele>748.116</ele>
        <time>2021-04-06T11:40:42Z</time>
      </trkpt>
      <trkpt lat="43.200093" lon="-2.280838">
        <ele>744.276</ele>
        <time>2021-04-06T11:40:51Z</time>
      </trkpt>
      <trkpt lat="43.200013" lon="-2.280762">
        <ele>739.413</ele>
        <time>2021-04-06T11:40:58Z</time>
      </trkpt>
      <trkpt lat="43.199956" lon="-2.280662">
        <ele>737.908</ele>
        <time>2021-04-06T11:41:06Z</time>
      </trkpt>
      <trkpt lat="43.199884" lon="-2.280555">
        <ele>737.648</ele>
        <time>2021-04-06T11:41:17Z</time>
      </trkpt>
      <trkpt lat="43.199846" lon="-2.280442">
        <ele>736.081</ele>
        <time>2021-04-06T11:41:32Z</time>
      </trkpt>
      <trkpt lat="43.199808" lon="-2.280317">
        <ele>734.012</ele>
        <time>2021-04-06T11:41:44Z</time>
      </trkpt>
      <trkpt lat="43.199812" lon="-2.280199">
        <ele>730.827</ele>
        <time>2021-04-06T11:41:51Z</time>
      </trkpt>
      <trkpt lat="43.199788" lon="-2.280071">
        <ele>728.453</ele>
        <time>2021-04-06T11:41:59Z</time>
      </trkpt>
      <trkpt lat="43.199790" lon="-2.279994">
        <ele>726.470</ele>
        <time>2021-04-06T11:42:06Z</time>
      </trkpt>
      <trkpt lat="43.199757" lon="-2.279882">
        <ele>723.753</ele>
        <time>2021-04-06T11:42:13Z</time>
      </trkpt>
      <trkpt lat="43.199758" lon="-2.279748">
        <ele>719.018</ele>
        <time>2021-04-06T11:42:20Z</time>
      </trkpt>
      <trkpt lat="43.199749" lon="-2.279667">
        <ele>716.899</ele>
        <time>2021-04-06T11:42:25Z</time>
      </trkpt>
      <trkpt lat="43.199744" lon="-2.279637">
        <ele>716.007</ele>
        <time>2021-04-06T11:42:27Z</time>
      </trkpt>
      <trkpt lat="43.199720" lon="-2.279564">
        <ele>714.627</ele>
        <time>2021-04-06T11:42:30Z</time>
      </trkpt>
      <trkpt lat="43.199707" lon="-2.279541">
        <ele>714.808</ele>
        <time>2021-04-06T11:42:31Z</time>
      </trkpt>
      <trkpt lat="43.199698" lon="-2.279518">
        <ele>714.716</ele>
        <time>2021-04-06T11:42:32Z</time>
      </trkpt>
      <trkpt lat="43.199697" lon="-2.279475">
        <ele>713.579</ele>
        <time>2021-04-06T11:42:34Z</time>
      </trkpt>
      <trkpt lat="43.199693" lon="-2.279443">
        <ele>712.920</ele>
        <time>2021-04-06T11:42:36Z</time>
      </trkpt>
      <trkpt lat="43.199691" lon="-2.279411">
        <ele>712.335</ele>
        <time>2021-04-06T11:42:38Z</time>
      </trkpt>
      <trkpt lat="43.199662" lon="-2.279267">
        <ele>710.951</ele>
        <time>2021-04-06T11:42:43Z</time>
      </trkpt>
      <trkpt lat="43.199630" lon="-2.279131">
        <ele>709.918</ele>
        <time>2021-04-06T11:42:48Z</time>
      </trkpt>
      <trkpt lat="43.199626" lon="-2.279107">
        <ele>709.791</ele>
        <time>2021-04-06T11:42:49Z</time>
      </trkpt>
      <trkpt lat="43.199622" lon="-2.279075">
        <ele>709.276</ele>
        <time>2021-04-06T11:42:50Z</time>
      </trkpt>
      <trkpt lat="43.199619" lon="-2.279039">
        <ele>708.748</ele>
        <time>2021-04-06T11:42:51Z</time>
      </trkpt>
      <trkpt lat="43.199615" lon="-2.279006">
        <ele>708.261</ele>
        <time>2021-04-06T11:42:52Z</time>
      </trkpt>
      <trkpt lat="43.199610" lon="-2.278974">
        <ele>707.817</ele>
        <time>2021-04-06T11:42:53Z</time>
      </trkpt>
      <trkpt lat="43.199607" lon="-2.278943">
        <ele>707.408</ele>
        <time>2021-04-06T11:42:54Z</time>
      </trkpt>
      <trkpt lat="43.199607" lon="-2.278908">
        <ele>706.621</ele>
        <time>2021-04-06T11:42:55Z</time>
      </trkpt>
      <trkpt lat="43.199606" lon="-2.278873">
        <ele>705.984</ele>
        <time>2021-04-06T11:42:56Z</time>
      </trkpt>
      <trkpt lat="43.199606" lon="-2.278836">
        <ele>704.965</ele>
        <time>2021-04-06T11:42:57Z</time>
      </trkpt>
      <trkpt lat="43.199600" lon="-2.278800">
        <ele>704.410</ele>
        <time>2021-04-06T11:42:59Z</time>
      </trkpt>
      <trkpt lat="43.199589" lon="-2.278766">
        <ele>704.146</ele>
        <time>2021-04-06T11:43:00Z</time>
      </trkpt>
      <trkpt lat="43.199570" lon="-2.278722">
        <ele>704.083</ele>
        <time>2021-04-06T11:43:01Z</time>
      </trkpt>
      <trkpt lat="43.199564" lon="-2.278694">
        <ele>703.696</ele>
        <time>2021-04-06T11:43:02Z</time>
      </trkpt>
      <trkpt lat="43.199554" lon="-2.278671">
        <ele>703.641</ele>
        <time>2021-04-06T11:43:03Z</time>
      </trkpt>
      <trkpt lat="43.199552" lon="-2.278644">
        <ele>703.014</ele>
        <time>2021-04-06T11:43:04Z</time>
      </trkpt>
      <trkpt lat="43.199545" lon="-2.278619">
        <ele>702.854</ele>
        <time>2021-04-06T11:43:05Z</time>
      </trkpt>
      <trkpt lat="43.199534" lon="-2.278596">
        <ele>702.809</ele>
        <time>2021-04-06T11:43:06Z</time>
      </trkpt>
      <trkpt lat="43.199523" lon="-2.278571">
        <ele>702.708</ele>
        <time>2021-04-06T11:43:07Z</time>
      </trkpt>
      <trkpt lat="43.199513" lon="-2.278544">
        <ele>702.558</ele>
        <time>2021-04-06T11:43:08Z</time>
      </trkpt>
      <trkpt lat="43.199507" lon="-2.278518">
        <ele>702.141</ele>
        <time>2021-04-06T11:43:09Z</time>
      </trkpt>
      <trkpt lat="43.199499" lon="-2.278493">
        <ele>701.852</ele>
        <time>2021-04-06T11:43:10Z</time>
      </trkpt>
      <trkpt lat="43.199492" lon="-2.278466">
        <ele>701.477</ele>
        <time>2021-04-06T11:43:11Z</time>
      </trkpt>
      <trkpt lat="43.199487" lon="-2.278440">
        <ele>701.043</ele>
        <time>2021-04-06T11:43:12Z</time>
      </trkpt>
      <trkpt lat="43.199484" lon="-2.278412">
        <ele>700.360</ele>
        <time>2021-04-06T11:43:13Z</time>
      </trkpt>
      <trkpt lat="43.199478" lon="-2.278385">
        <ele>699.953</ele>
        <time>2021-04-06T11:43:14Z</time>
      </trkpt>
      <trkpt lat="43.199474" lon="-2.278355">
        <ele>699.238</ele>
        <time>2021-04-06T11:43:15Z</time>
      </trkpt>
      <trkpt lat="43.199472" lon="-2.278327">
        <ele>698.614</ele>
        <time>2021-04-06T11:43:16Z</time>
      </trkpt>
      <trkpt lat="43.199463" lon="-2.278298">
        <ele>698.254</ele>
        <time>2021-04-06T11:43:17Z</time>
      </trkpt>
      <trkpt lat="43.199454" lon="-2.278274">
        <ele>698.109</ele>
        <time>2021-04-06T11:43:18Z</time>
      </trkpt>
      <trkpt lat="43.199441" lon="-2.278238">
        <ele>697.808</ele>
        <time>2021-04-06T11:43:20Z</time>
      </trkpt>
      <trkpt lat="43.199427" lon="-2.278200">
        <ele>697.648</ele>
        <time>2021-04-06T11:43:22Z</time>
      </trkpt>
      <trkpt lat="43.199421" lon="-2.278165">
        <ele>697.051</ele>
        <time>2021-04-06T11:43:24Z</time>
      </trkpt>
      <trkpt lat="43.199404" lon="-2.278122">
        <ele>696.942</ele>
        <time>2021-04-06T11:43:26Z</time>
      </trkpt>
      <trkpt lat="43.199392" lon="-2.278097">
        <ele>696.987</ele>
        <time>2021-04-06T11:43:27Z</time>
      </trkpt>
      <trkpt lat="43.199383" lon="-2.278068">
        <ele>696.633</ele>
        <time>2021-04-06T11:43:28Z</time>
      </trkpt>
      <trkpt lat="43.199373" lon="-2.278041">
        <ele>696.520</ele>
        <time>2021-04-06T11:43:29Z</time>
      </trkpt>
      <trkpt lat="43.199369" lon="-2.278013">
        <ele>696.193</ele>
        <time>2021-04-06T11:43:30Z</time>
      </trkpt>
      <trkpt lat="43.199367" lon="-2.277983">
        <ele>695.518</ele>
        <time>2021-04-06T11:43:31Z</time>
      </trkpt>
      <trkpt lat="43.199366" lon="-2.277951">
        <ele>694.966</ele>
        <time>2021-04-06T11:43:32Z</time>
      </trkpt>
      <trkpt lat="43.199362" lon="-2.277916">
        <ele>694.329</ele>
        <time>2021-04-06T11:43:33Z</time>
      </trkpt>
      <trkpt lat="43.199358" lon="-2.277887">
        <ele>693.821</ele>
        <time>2021-04-06T11:43:34Z</time>
      </trkpt>
      <trkpt lat="43.199356" lon="-2.277860">
        <ele>693.308</ele>
        <time>2021-04-06T11:43:35Z</time>
      </trkpt>
      <trkpt lat="43.199357" lon="-2.277830">
        <ele>692.643</ele>
        <time>2021-04-06T11:43:36Z</time>
      </trkpt>
      <trkpt lat="43.199356" lon="-2.277799">
        <ele>691.986</ele>
        <time>2021-04-06T11:43:37Z</time>
      </trkpt>
      <trkpt lat="43.199349" lon="-2.277768">
        <ele>691.627</ele>
        <time>2021-04-06T11:43:38Z</time>
      </trkpt>
      <trkpt lat="43.199343" lon="-2.277733">
        <ele>691.262</ele>
        <time>2021-04-06T11:43:39Z</time>
      </trkpt>
      <trkpt lat="43.199334" lon="-2.277700">
        <ele>691.188</ele>
        <time>2021-04-06T11:43:40Z</time>
      </trkpt>
      <trkpt lat="43.199330" lon="-2.277662">
        <ele>690.535</ele>
        <time>2021-04-06T11:43:41Z</time>
      </trkpt>
      <trkpt lat="43.199325" lon="-2.277629">
        <ele>690.148</ele>
        <time>2021-04-06T11:43:42Z</time>
      </trkpt>
      <trkpt lat="43.199318" lon="-2.277598">
        <ele>689.893</ele>
        <time>2021-04-06T11:43:43Z</time>
      </trkpt>
      <trkpt lat="43.199312" lon="-2.277567">
        <ele>689.514</ele>
        <time>2021-04-06T11:43:44Z</time>
      </trkpt>
      <trkpt lat="43.199309" lon="-2.277537">
        <ele>689.154</ele>
        <time>2021-04-06T11:43:45Z</time>
      </trkpt>
      <trkpt lat="43.199304" lon="-2.277499">
        <ele>688.509</ele>
        <time>2021-04-06T11:43:46Z</time>
      </trkpt>
      <trkpt lat="43.199300" lon="-2.277460">
        <ele>687.808</ele>
        <time>2021-04-06T11:43:47Z</time>
      </trkpt>
      <trkpt lat="43.199299" lon="-2.277431">
        <ele>687.258</ele>
        <time>2021-04-06T11:43:48Z</time>
      </trkpt>
      <trkpt lat="43.199293" lon="-2.277393">
        <ele>686.651</ele>
        <time>2021-04-06T11:43:49Z</time>
      </trkpt>
      <trkpt lat="43.199284" lon="-2.277351">
        <ele>686.012</ele>
        <time>2021-04-06T11:43:50Z</time>
      </trkpt>
      <trkpt lat="43.199279" lon="-2.277313">
        <ele>685.387</ele>
        <time>2021-04-06T11:43:51Z</time>
      </trkpt>
      <trkpt lat="43.199271" lon="-2.277279">
        <ele>684.883</ele>
        <time>2021-04-06T11:43:52Z</time>
      </trkpt>
      <trkpt lat="43.199258" lon="-2.277244">
        <ele>684.690</ele>
        <time>2021-04-06T11:43:53Z</time>
      </trkpt>
      <trkpt lat="43.199248" lon="-2.277214">
        <ele>684.323</ele>
        <time>2021-04-06T11:43:54Z</time>
      </trkpt>
      <trkpt lat="43.199243" lon="-2.277181">
        <ele>683.768</ele>
        <time>2021-04-06T11:43:55Z</time>
      </trkpt>
      <trkpt lat="43.199240" lon="-2.277144">
        <ele>682.991</ele>
        <time>2021-04-06T11:43:56Z</time>
      </trkpt>
      <trkpt lat="43.199231" lon="-2.277107">
        <ele>682.481</ele>
        <time>2021-04-06T11:43:57Z</time>
      </trkpt>
      <trkpt lat="43.199225" lon="-2.277069">
        <ele>681.719</ele>
        <time>2021-04-06T11:43:58Z</time>
      </trkpt>
      <trkpt lat="43.199227" lon="-2.277032">
        <ele>680.708</ele>
        <time>2021-04-06T11:43:59Z</time>
      </trkpt>
      <trkpt lat="43.199229" lon="-2.277001">
        <ele>679.946</ele>
        <time>2021-04-06T11:44:00Z</time>
      </trkpt>
      <trkpt lat="43.199226" lon="-2.276966">
        <ele>679.259</ele>
        <time>2021-04-06T11:44:01Z</time>
      </trkpt>
      <trkpt lat="43.199225" lon="-2.276929">
        <ele>678.450</ele>
        <time>2021-04-06T11:44:02Z</time>
      </trkpt>
      <trkpt lat="43.199223" lon="-2.276894">
        <ele>677.775</ele>
        <time>2021-04-06T11:44:03Z</time>
      </trkpt>
      <trkpt lat="43.199222" lon="-2.276864">
        <ele>677.181</ele>
        <time>2021-04-06T11:44:04Z</time>
      </trkpt>
      <trkpt lat="43.199218" lon="-2.276840">
        <ele>676.728</ele>
        <time>2021-04-06T11:44:05Z</time>
      </trkpt>
      <trkpt lat="43.199218" lon="-2.276812">
        <ele>676.151</ele>
        <time>2021-04-06T11:44:06Z</time>
      </trkpt>
      <trkpt lat="43.199213" lon="-2.276780">
        <ele>675.696</ele>
        <time>2021-04-06T11:44:07Z</time>
      </trkpt>
      <trkpt lat="43.199207" lon="-2.276749">
        <ele>675.225</ele>
        <time>2021-04-06T11:44:08Z</time>
      </trkpt>
      <trkpt lat="43.199205" lon="-2.276716">
        <ele>674.526</ele>
        <time>2021-04-06T11:44:09Z</time>
      </trkpt>
      <trkpt lat="43.199198" lon="-2.276682">
        <ele>674.108</ele>
        <time>2021-04-06T11:44:10Z</time>
      </trkpt>
      <trkpt lat="43.199191" lon="-2.276649">
        <ele>673.708</ele>
        <time>2021-04-06T11:44:11Z</time>
      </trkpt>
      <trkpt lat="43.199186" lon="-2.276609">
        <ele>673.089</ele>
        <time>2021-04-06T11:44:12Z</time>
      </trkpt>
      <trkpt lat="43.199182" lon="-2.276572">
        <ele>672.312</ele>
        <time>2021-04-06T11:44:13Z</time>
      </trkpt>
      <trkpt lat="43.199177" lon="-2.276529">
        <ele>671.613</ele>
        <time>2021-04-06T11:44:14Z</time>
      </trkpt>
      <trkpt lat="43.199168" lon="-2.276483">
        <ele>671.078</ele>
        <time>2021-04-06T11:44:15Z</time>
      </trkpt>
      <trkpt lat="43.199159" lon="-2.276444">
        <ele>670.664</ele>
        <time>2021-04-06T11:44:16Z</time>
      </trkpt>
      <trkpt lat="43.199145" lon="-2.276369">
        <ele>669.651</ele>
        <time>2021-04-06T11:44:18Z</time>
      </trkpt>
      <trkpt lat="43.199139" lon="-2.276332">
        <ele>669.134</ele>
        <time>2021-04-06T11:44:19Z</time>
      </trkpt>
      <trkpt lat="43.199132" lon="-2.276293">
        <ele>668.619</ele>
        <time>2021-04-06T11:44:20Z</time>
      </trkpt>
      <trkpt lat="43.199125" lon="-2.276262">
        <ele>668.212</ele>
        <time>2021-04-06T11:44:21Z</time>
      </trkpt>
      <trkpt lat="43.199122" lon="-2.276229">
        <ele>667.632</ele>
        <time>2021-04-06T11:44:22Z</time>
      </trkpt>
      <trkpt lat="43.199120" lon="-2.276195">
        <ele>667.005</ele>
        <time>2021-04-06T11:44:23Z</time>
      </trkpt>
      <trkpt lat="43.199121" lon="-2.276164">
        <ele>666.308</ele>
        <time>2021-04-06T11:44:24Z</time>
      </trkpt>
      <trkpt lat="43.199120" lon="-2.276130">
        <ele>665.618</ele>
        <time>2021-04-06T11:44:25Z</time>
      </trkpt>
      <trkpt lat="43.199108" lon="-2.276086">
        <ele>665.231</ele>
        <time>2021-04-06T11:44:26Z</time>
      </trkpt>
      <trkpt lat="43.199067" lon="-2.275982">
        <ele>665.062</ele>
        <time>2021-04-06T11:44:28Z</time>
      </trkpt>
      <trkpt lat="43.199053" lon="-2.275941">
        <ele>664.917</ele>
        <time>2021-04-06T11:44:29Z</time>
      </trkpt>
      <trkpt lat="43.199040" lon="-2.275907">
        <ele>664.983</ele>
        <time>2021-04-06T11:44:30Z</time>
      </trkpt>
      <trkpt lat="43.199030" lon="-2.275876">
        <ele>664.760</ele>
        <time>2021-04-06T11:44:31Z</time>
      </trkpt>
      <trkpt lat="43.199021" lon="-2.275843">
        <ele>664.523</ele>
        <time>2021-04-06T11:44:32Z</time>
      </trkpt>
      <trkpt lat="43.199018" lon="-2.275805">
        <ele>663.978</ele>
        <time>2021-04-06T11:44:33Z</time>
      </trkpt>
      <trkpt lat="43.199020" lon="-2.275768">
        <ele>663.014</ele>
        <time>2021-04-06T11:44:34Z</time>
      </trkpt>
      <trkpt lat="43.199017" lon="-2.275732">
        <ele>662.454</ele>
        <time>2021-04-06T11:44:35Z</time>
      </trkpt>
      <trkpt lat="43.199011" lon="-2.275698">
        <ele>661.909</ele>
        <time>2021-04-06T11:44:36Z</time>
      </trkpt>
      <trkpt lat="43.199000" lon="-2.275665">
        <ele>661.808</ele>
        <time>2021-04-06T11:44:37Z</time>
      </trkpt>
      <trkpt lat="43.198983" lon="-2.275587">
        <ele>660.928</ele>
        <time>2021-04-06T11:44:39Z</time>
      </trkpt>
      <trkpt lat="43.198971" lon="-2.275541">
        <ele>660.611</ele>
        <time>2021-04-06T11:44:40Z</time>
      </trkpt>
      <trkpt lat="43.198961" lon="-2.275503">
        <ele>660.342</ele>
        <time>2021-04-06T11:44:41Z</time>
      </trkpt>
      <trkpt lat="43.198942" lon="-2.275443">
        <ele>660.047</ele>
        <time>2021-04-06T11:44:43Z</time>
      </trkpt>
      <trkpt lat="43.198935" lon="-2.275411">
        <ele>659.693</ele>
        <time>2021-04-06T11:44:44Z</time>
      </trkpt>
      <trkpt lat="43.198931" lon="-2.275375">
        <ele>659.150</ele>
        <time>2021-04-06T11:44:45Z</time>
      </trkpt>
      <trkpt lat="43.198930" lon="-2.275344">
        <ele>658.563</ele>
        <time>2021-04-06T11:44:46Z</time>
      </trkpt>
      <trkpt lat="43.198927" lon="-2.275312">
        <ele>657.928</ele>
        <time>2021-04-06T11:44:47Z</time>
      </trkpt>
      <trkpt lat="43.198928" lon="-2.275277">
        <ele>657.268</ele>
        <time>2021-04-06T11:44:48Z</time>
      </trkpt>
      <trkpt lat="43.198928" lon="-2.275239">
        <ele>656.642</ele>
        <time>2021-04-06T11:44:49Z</time>
      </trkpt>
      <trkpt lat="43.198927" lon="-2.275196">
        <ele>656.026</ele>
        <time>2021-04-06T11:44:50Z</time>
      </trkpt>
      <trkpt lat="43.198927" lon="-2.275154">
        <ele>655.408</ele>
        <time>2021-04-06T11:44:51Z</time>
      </trkpt>
      <trkpt lat="43.198923" lon="-2.275111">
        <ele>655.083</ele>
        <time>2021-04-06T11:44:52Z</time>
      </trkpt>
      <trkpt lat="43.198906" lon="-2.275072">
        <ele>655.266</ele>
        <time>2021-04-06T11:44:53Z</time>
      </trkpt>
      <trkpt lat="43.198898" lon="-2.275036">
        <ele>655.167</ele>
        <time>2021-04-06T11:44:54Z</time>
      </trkpt>
      <trkpt lat="43.198892" lon="-2.274996">
        <ele>654.822</ele>
        <time>2021-04-06T11:44:55Z</time>
      </trkpt>
      <trkpt lat="43.198886" lon="-2.274954">
        <ele>654.348</ele>
        <time>2021-04-06T11:44:56Z</time>
      </trkpt>
      <trkpt lat="43.198876" lon="-2.274915">
        <ele>654.215</ele>
        <time>2021-04-06T11:44:57Z</time>
      </trkpt>
      <trkpt lat="43.198866" lon="-2.274877">
        <ele>654.158</ele>
        <time>2021-04-06T11:44:58Z</time>
      </trkpt>
      <trkpt lat="43.198855" lon="-2.274835">
        <ele>653.993</ele>
        <time>2021-04-06T11:44:59Z</time>
      </trkpt>
      <trkpt lat="43.198845" lon="-2.274791">
        <ele>653.758</ele>
        <time>2021-04-06T11:45:00Z</time>
      </trkpt>
      <trkpt lat="43.198835" lon="-2.274743">
        <ele>653.552</ele>
        <time>2021-04-06T11:45:01Z</time>
      </trkpt>
      <trkpt lat="43.198824" lon="-2.274695">
        <ele>653.417</ele>
        <time>2021-04-06T11:45:02Z</time>
      </trkpt>
      <trkpt lat="43.198814" lon="-2.274651">
        <ele>653.408</ele>
        <time>2021-04-06T11:45:03Z</time>
      </trkpt>
      <trkpt lat="43.198808" lon="-2.274608">
        <ele>653.232</ele>
        <time>2021-04-06T11:45:04Z</time>
      </trkpt>
      <trkpt lat="43.198804" lon="-2.274572">
        <ele>652.955</ele>
        <time>2021-04-06T11:45:05Z</time>
      </trkpt>
      <trkpt lat="43.198801" lon="-2.274533">
        <ele>652.696</ele>
        <time>2021-04-06T11:45:06Z</time>
      </trkpt>
      <trkpt lat="43.198798" lon="-2.274494">
        <ele>652.261</ele>
        <time>2021-04-06T11:45:07Z</time>
      </trkpt>
      <trkpt lat="43.198794" lon="-2.274449">
        <ele>651.897</ele>
        <time>2021-04-06T11:45:08Z</time>
      </trkpt>
      <trkpt lat="43.198788" lon="-2.274412">
        <ele>651.614</ele>
        <time>2021-04-06T11:45:09Z</time>
      </trkpt>
      <trkpt lat="43.198780" lon="-2.274373">
        <ele>651.577</ele>
        <time>2021-04-06T11:45:10Z</time>
      </trkpt>
      <trkpt lat="43.198776" lon="-2.274342">
        <ele>651.212</ele>
        <time>2021-04-06T11:45:11Z</time>
      </trkpt>
      <trkpt lat="43.198773" lon="-2.274312">
        <ele>650.919</ele>
        <time>2021-04-06T11:45:12Z</time>
      </trkpt>
      <trkpt lat="43.198769" lon="-2.274280">
        <ele>650.709</ele>
        <time>2021-04-06T11:45:13Z</time>
      </trkpt>
      <trkpt lat="43.198763" lon="-2.274246">
        <ele>650.519</ele>
        <time>2021-04-06T11:45:14Z</time>
      </trkpt>
      <trkpt lat="43.198754" lon="-2.274208">
        <ele>650.408</ele>
        <time>2021-04-06T11:45:15Z</time>
      </trkpt>
      <trkpt lat="43.198746" lon="-2.274168">
        <ele>650.238</ele>
        <time>2021-04-06T11:45:16Z</time>
      </trkpt>
      <trkpt lat="43.198700" lon="-2.274032">
        <ele>650.481</ele>
        <time>2021-04-06T11:45:20Z</time>
      </trkpt>
      <trkpt lat="43.198682" lon="-2.273995">
        <ele>650.732</ele>
        <time>2021-04-06T11:45:21Z</time>
      </trkpt>
      <trkpt lat="43.198670" lon="-2.273962">
        <ele>650.747</ele>
        <time>2021-04-06T11:45:22Z</time>
      </trkpt>
      <trkpt lat="43.198626" lon="-2.273824">
        <ele>649.173</ele>
        <time>2021-04-06T11:45:26Z</time>
      </trkpt>
      <trkpt lat="43.198605" lon="-2.273748">
        <ele>647.220</ele>
        <time>2021-04-06T11:45:28Z</time>
      </trkpt>
      <trkpt lat="43.198594" lon="-2.273718">
        <ele>646.653</ele>
        <time>2021-04-06T11:45:29Z</time>
      </trkpt>
      <trkpt lat="43.198583" lon="-2.273689">
        <ele>646.138</ele>
        <time>2021-04-06T11:45:30Z</time>
      </trkpt>
      <trkpt lat="43.198576" lon="-2.273654">
        <ele>645.228</ele>
        <time>2021-04-06T11:45:31Z</time>
      </trkpt>
      <trkpt lat="43.198565" lon="-2.273621">
        <ele>644.589</ele>
        <time>2021-04-06T11:45:32Z</time>
      </trkpt>
      <trkpt lat="43.198555" lon="-2.273586">
        <ele>643.917</ele>
        <time>2021-04-06T11:45:33Z</time>
      </trkpt>
      <trkpt lat="43.198530" lon="-2.273520">
        <ele>643.208</ele>
        <time>2021-04-06T11:45:35Z</time>
      </trkpt>
      <trkpt lat="43.198519" lon="-2.273482">
        <ele>642.679</ele>
        <time>2021-04-06T11:45:36Z</time>
      </trkpt>
      <trkpt lat="43.198483" lon="-2.273369">
        <ele>641.082</ele>
        <time>2021-04-06T11:45:39Z</time>
      </trkpt>
      <trkpt lat="43.198468" lon="-2.273334">
        <ele>640.713</ele>
        <time>2021-04-06T11:45:40Z</time>
      </trkpt>
      <trkpt lat="43.198452" lon="-2.273301">
        <ele>640.858</ele>
        <time>2021-04-06T11:45:41Z</time>
      </trkpt>
      <trkpt lat="43.198440" lon="-2.273267">
        <ele>640.724</ele>
        <time>2021-04-06T11:45:42Z</time>
      </trkpt>
      <trkpt lat="43.198430" lon="-2.273233">
        <ele>640.511</ele>
        <time>2021-04-06T11:45:43Z</time>
      </trkpt>
      <trkpt lat="43.198423" lon="-2.273198">
        <ele>640.284</ele>
        <time>2021-04-06T11:45:44Z</time>
      </trkpt>
      <trkpt lat="43.198418" lon="-2.273168">
        <ele>639.959</ele>
        <time>2021-04-06T11:45:45Z</time>
      </trkpt>
      <trkpt lat="43.198417" lon="-2.273140">
        <ele>639.473</ele>
        <time>2021-04-06T11:45:46Z</time>
      </trkpt>
      <trkpt lat="43.198420" lon="-2.273114">
        <ele>638.885</ele>
        <time>2021-04-06T11:45:47Z</time>
      </trkpt>
      <trkpt lat="43.198421" lon="-2.273087">
        <ele>638.213</ele>
        <time>2021-04-06T11:45:48Z</time>
      </trkpt>
      <trkpt lat="43.198427" lon="-2.273057">
        <ele>637.308</ele>
        <time>2021-04-06T11:45:49Z</time>
      </trkpt>
      <trkpt lat="43.198432" lon="-2.273023">
        <ele>636.454</ele>
        <time>2021-04-06T11:45:50Z</time>
      </trkpt>
      <trkpt lat="43.198435" lon="-2.272990">
        <ele>635.757</ele>
        <time>2021-04-06T11:45:51Z</time>
      </trkpt>
      <trkpt lat="43.198433" lon="-2.272957">
        <ele>635.228</ele>
        <time>2021-04-06T11:45:52Z</time>
      </trkpt>
      <trkpt lat="43.198427" lon="-2.272923">
        <ele>634.983</ele>
        <time>2021-04-06T11:45:53Z</time>
      </trkpt>
      <trkpt lat="43.198420" lon="-2.272891">
        <ele>634.719</ele>
        <time>2021-04-06T11:45:54Z</time>
      </trkpt>
      <trkpt lat="43.198413" lon="-2.272856">
        <ele>634.486</ele>
        <time>2021-04-06T11:45:55Z</time>
      </trkpt>
      <trkpt lat="43.198409" lon="-2.272815">
        <ele>633.979</ele>
        <time>2021-04-06T11:45:56Z</time>
      </trkpt>
      <trkpt lat="43.198409" lon="-2.272774">
        <ele>633.174</ele>
        <time>2021-04-06T11:45:57Z</time>
      </trkpt>
      <trkpt lat="43.198398" lon="-2.272646">
        <ele>631.683</ele>
        <time>2021-04-06T11:46:00Z</time>
      </trkpt>
      <trkpt lat="43.198395" lon="-2.272603">
        <ele>631.125</ele>
        <time>2021-04-06T11:46:01Z</time>
      </trkpt>
      <trkpt lat="43.198340" lon="-2.272474">
        <ele>632.117</ele>
        <time>2021-04-06T11:46:04Z</time>
      </trkpt>
      <trkpt lat="43.198291" lon="-2.272326">
        <ele>632.208</ele>
        <time>2021-04-06T11:46:08Z</time>
      </trkpt>
      <trkpt lat="43.198285" lon="-2.272279">
        <ele>631.875</ele>
        <time>2021-04-06T11:46:09Z</time>
      </trkpt>
      <trkpt lat="43.198274" lon="-2.272239">
        <ele>631.748</ele>
        <time>2021-04-06T11:46:10Z</time>
      </trkpt>
      <trkpt lat="43.198263" lon="-2.272201">
        <ele>631.659</ele>
        <time>2021-04-06T11:46:11Z</time>
      </trkpt>
      <trkpt lat="43.198254" lon="-2.272168">
        <ele>631.554</ele>
        <time>2021-04-06T11:46:12Z</time>
      </trkpt>
      <trkpt lat="43.198247" lon="-2.272137">
        <ele>631.390</ele>
        <time>2021-04-06T11:46:13Z</time>
      </trkpt>
      <trkpt lat="43.198238" lon="-2.272102">
        <ele>631.297</ele>
        <time>2021-04-06T11:46:14Z</time>
      </trkpt>
      <trkpt lat="43.198232" lon="-2.272067">
        <ele>630.850</ele>
        <time>2021-04-06T11:46:15Z</time>
      </trkpt>
      <trkpt lat="43.198227" lon="-2.272032">
        <ele>630.485</ele>
        <time>2021-04-06T11:46:16Z</time>
      </trkpt>
      <trkpt lat="43.198217" lon="-2.271994">
        <ele>630.267</ele>
        <time>2021-04-06T11:46:17Z</time>
      </trkpt>
      <trkpt lat="43.198205" lon="-2.271963">
        <ele>630.381</ele>
        <time>2021-04-06T11:46:18Z</time>
      </trkpt>
      <trkpt lat="43.198199" lon="-2.271928">
        <ele>630.019</ele>
        <time>2021-04-06T11:46:19Z</time>
      </trkpt>
      <trkpt lat="43.198190" lon="-2.271892">
        <ele>629.908</ele>
        <time>2021-04-06T11:46:20Z</time>
      </trkpt>
      <trkpt lat="43.198179" lon="-2.271855">
        <ele>629.943</ele>
        <time>2021-04-06T11:46:21Z</time>
      </trkpt>
      <trkpt lat="43.198174" lon="-2.271818">
        <ele>629.586</ele>
        <time>2021-04-06T11:46:22Z</time>
      </trkpt>
      <trkpt lat="43.198163" lon="-2.271774">
        <ele>629.467</ele>
        <time>2021-04-06T11:46:23Z</time>
      </trkpt>
      <trkpt lat="43.198146" lon="-2.271731">
        <ele>629.592</ele>
        <time>2021-04-06T11:46:24Z</time>
      </trkpt>
      <trkpt lat="43.198127" lon="-2.271694">
        <ele>629.978</ele>
        <time>2021-04-06T11:46:25Z</time>
      </trkpt>
      <trkpt lat="43.198105" lon="-2.271653">
        <ele>630.295</ele>
        <time>2021-04-06T11:46:26Z</time>
      </trkpt>
      <trkpt lat="43.198084" lon="-2.271614">
        <ele>630.528</ele>
        <time>2021-04-06T11:46:27Z</time>
      </trkpt>
      <trkpt lat="43.198062" lon="-2.271577">
        <ele>630.833</ele>
        <time>2021-04-06T11:46:28Z</time>
      </trkpt>
      <trkpt lat="43.198044" lon="-2.271542">
        <ele>630.764</ele>
        <time>2021-04-06T11:46:29Z</time>
      </trkpt>
      <trkpt lat="43.198026" lon="-2.271499">
        <ele>630.406</ele>
        <time>2021-04-06T11:46:30Z</time>
      </trkpt>
      <trkpt lat="43.198012" lon="-2.271463">
        <ele>630.116</ele>
        <time>2021-04-06T11:46:31Z</time>
      </trkpt>
      <trkpt lat="43.198000" lon="-2.271425">
        <ele>629.608</ele>
        <time>2021-04-06T11:46:32Z</time>
      </trkpt>
      <trkpt lat="43.197991" lon="-2.271385">
        <ele>629.033</ele>
        <time>2021-04-06T11:46:33Z</time>
      </trkpt>
      <trkpt lat="43.197986" lon="-2.271354">
        <ele>628.446</ele>
        <time>2021-04-06T11:46:34Z</time>
      </trkpt>
      <trkpt lat="43.197970" lon="-2.271291">
        <ele>627.437</ele>
        <time>2021-04-06T11:46:36Z</time>
      </trkpt>
      <trkpt lat="43.197945" lon="-2.271241">
        <ele>627.072</ele>
        <time>2021-04-06T11:46:38Z</time>
      </trkpt>
      <trkpt lat="43.197938" lon="-2.271214">
        <ele>626.548</ele>
        <time>2021-04-06T11:46:39Z</time>
      </trkpt>
      <trkpt lat="43.197929" lon="-2.271184">
        <ele>626.085</ele>
        <time>2021-04-06T11:46:40Z</time>
      </trkpt>
      <trkpt lat="43.197915" lon="-2.271156">
        <ele>625.758</ele>
        <time>2021-04-06T11:46:41Z</time>
      </trkpt>
      <trkpt lat="43.197900" lon="-2.271127">
        <ele>625.333</ele>
        <time>2021-04-06T11:46:42Z</time>
      </trkpt>
      <trkpt lat="43.197884" lon="-2.271095">
        <ele>625.097</ele>
        <time>2021-04-06T11:46:43Z</time>
      </trkpt>
      <trkpt lat="43.197864" lon="-2.271059">
        <ele>624.923</ele>
        <time>2021-04-06T11:46:44Z</time>
      </trkpt>
      <trkpt lat="43.197844" lon="-2.271029">
        <ele>624.825</ele>
        <time>2021-04-06T11:46:45Z</time>
      </trkpt>
      <trkpt lat="43.197823" lon="-2.271001">
        <ele>624.708</ele>
        <time>2021-04-06T11:46:46Z</time>
      </trkpt>
      <trkpt lat="43.197800" lon="-2.270974">
        <ele>624.696</ele>
        <time>2021-04-06T11:46:47Z</time>
      </trkpt>
      <trkpt lat="43.197777" lon="-2.270950">
        <ele>624.569</ele>
        <time>2021-04-06T11:46:48Z</time>
      </trkpt>
      <trkpt lat="43.197757" lon="-2.270923">
        <ele>623.940</ele>
        <time>2021-04-06T11:46:49Z</time>
      </trkpt>
      <trkpt lat="43.197714" lon="-2.270872">
        <ele>622.645</ele>
        <time>2021-04-06T11:46:51Z</time>
      </trkpt>
      <trkpt lat="43.197671" lon="-2.270836">
        <ele>621.331</ele>
        <time>2021-04-06T11:46:53Z</time>
      </trkpt>
      <trkpt lat="43.197654" lon="-2.270823">
        <ele>620.828</ele>
        <time>2021-04-06T11:46:54Z</time>
      </trkpt>
      <trkpt lat="43.197612" lon="-2.270807">
        <ele>619.831</ele>
        <time>2021-04-06T11:46:56Z</time>
      </trkpt>
      <trkpt lat="43.197593" lon="-2.270799">
        <ele>619.456</ele>
        <time>2021-04-06T11:46:57Z</time>
      </trkpt>
      <trkpt lat="43.197575" lon="-2.270792">
        <ele>618.966</ele>
        <time>2021-04-06T11:46:58Z</time>
      </trkpt>
      <trkpt lat="43.197542" lon="-2.270781">
        <ele>618.129</ele>
        <time>2021-04-06T11:47:00Z</time>
      </trkpt>
      <trkpt lat="43.197512" lon="-2.270771">
        <ele>617.221</ele>
        <time>2021-04-06T11:47:02Z</time>
      </trkpt>
      <trkpt lat="43.197479" lon="-2.270761">
        <ele>615.408</ele>
        <time>2021-04-06T11:47:04Z</time>
      </trkpt>
      <trkpt lat="43.197449" lon="-2.270753">
        <ele>613.383</ele>
        <time>2021-04-06T11:47:06Z</time>
      </trkpt>
      <trkpt lat="43.197421" lon="-2.270762">
        <ele>612.136</ele>
        <time>2021-04-06T11:47:08Z</time>
      </trkpt>
      <trkpt lat="43.197393" lon="-2.270775">
        <ele>611.117</ele>
        <time>2021-04-06T11:47:10Z</time>
      </trkpt>
      <trkpt lat="43.197365" lon="-2.270796">
        <ele>610.542</ele>
        <time>2021-04-06T11:47:12Z</time>
      </trkpt>
      <trkpt lat="43.197339" lon="-2.270814">
        <ele>609.898</ele>
        <time>2021-04-06T11:47:14Z</time>
      </trkpt>
      <trkpt lat="43.197307" lon="-2.270829">
        <ele>608.715</ele>
        <time>2021-04-06T11:47:16Z</time>
      </trkpt>
      <trkpt lat="43.197291" lon="-2.270840">
        <ele>608.328</ele>
        <time>2021-04-06T11:47:17Z</time>
      </trkpt>
      <trkpt lat="43.197271" lon="-2.270849">
        <ele>607.593</ele>
        <time>2021-04-06T11:47:18Z</time>
      </trkpt>
      <trkpt lat="43.197252" lon="-2.270860">
        <ele>607.077</ele>
        <time>2021-04-06T11:47:19Z</time>
      </trkpt>
      <trkpt lat="43.197236" lon="-2.270873">
        <ele>606.661</ele>
        <time>2021-04-06T11:47:20Z</time>
      </trkpt>
      <trkpt lat="43.197212" lon="-2.270906">
        <ele>606.727</ele>
        <time>2021-04-06T11:47:22Z</time>
      </trkpt>
      <trkpt lat="43.197186" lon="-2.270939">
        <ele>606.408</ele>
        <time>2021-04-06T11:47:24Z</time>
      </trkpt>
      <trkpt lat="43.197172" lon="-2.270954">
        <ele>606.254</ele>
        <time>2021-04-06T11:47:25Z</time>
      </trkpt>
      <trkpt lat="43.197148" lon="-2.270982">
        <ele>605.747</ele>
        <time>2021-04-06T11:47:27Z</time>
      </trkpt>
      <trkpt lat="43.197118" lon="-2.271007">
        <ele>604.758</ele>
        <time>2021-04-06T11:47:29Z</time>
      </trkpt>
      <trkpt lat="43.197100" lon="-2.271022">
        <ele>604.093</ele>
        <time>2021-04-06T11:47:30Z</time>
      </trkpt>
      <trkpt lat="43.197084" lon="-2.271036">
        <ele>603.479</ele>
        <time>2021-04-06T11:47:31Z</time>
      </trkpt>
      <trkpt lat="43.197068" lon="-2.271048">
        <ele>602.826</ele>
        <time>2021-04-06T11:47:32Z</time>
      </trkpt>
      <trkpt lat="43.197052" lon="-2.271061">
        <ele>602.189</ele>
        <time>2021-04-06T11:47:33Z</time>
      </trkpt>
      <trkpt lat="43.197026" lon="-2.271091">
        <ele>601.424</ele>
        <time>2021-04-06T11:47:35Z</time>
      </trkpt>
      <trkpt lat="43.197014" lon="-2.271104">
        <ele>601.077</ele>
        <time>2021-04-06T11:47:36Z</time>
      </trkpt>
      <trkpt lat="43.196990" lon="-2.271128">
        <ele>600.261</ele>
        <time>2021-04-06T11:47:38Z</time>
      </trkpt>
      <trkpt lat="43.196962" lon="-2.271147">
        <ele>599.027</ele>
        <time>2021-04-06T11:47:40Z</time>
      </trkpt>
      <trkpt lat="43.196926" lon="-2.271173">
        <ele>597.708</ele>
        <time>2021-04-06T11:47:42Z</time>
      </trkpt>
      <trkpt lat="43.196908" lon="-2.271195">
        <ele>597.654</ele>
        <time>2021-04-06T11:47:43Z</time>
      </trkpt>
      <trkpt lat="43.196893" lon="-2.271211">
        <ele>597.317</ele>
        <time>2021-04-06T11:47:44Z</time>
      </trkpt>
      <trkpt lat="43.196862" lon="-2.271235">
        <ele>596.528</ele>
        <time>2021-04-06T11:47:46Z</time>
      </trkpt>
      <trkpt lat="43.196822" lon="-2.271246">
        <ele>594.473</ele>
        <time>2021-04-06T11:47:48Z</time>
      </trkpt>
      <trkpt lat="43.196802" lon="-2.271255">
        <ele>593.579</ele>
        <time>2021-04-06T11:47:49Z</time>
      </trkpt>
      <trkpt lat="43.196784" lon="-2.271267">
        <ele>592.986</ele>
        <time>2021-04-06T11:47:50Z</time>
      </trkpt>
      <trkpt lat="43.196765" lon="-2.271277">
        <ele>592.129</ele>
        <time>2021-04-06T11:47:51Z</time>
      </trkpt>
      <trkpt lat="43.196747" lon="-2.271290">
        <ele>591.624</ele>
        <time>2021-04-06T11:47:52Z</time>
      </trkpt>
      <trkpt lat="43.196730" lon="-2.271303">
        <ele>591.144</ele>
        <time>2021-04-06T11:47:53Z</time>
      </trkpt>
      <trkpt lat="43.196702" lon="-2.271320">
        <ele>590.105</ele>
        <time>2021-04-06T11:47:55Z</time>
      </trkpt>
      <trkpt lat="43.196686" lon="-2.271323">
        <ele>589.215</ele>
        <time>2021-04-06T11:47:56Z</time>
      </trkpt>
      <trkpt lat="43.196668" lon="-2.271329">
        <ele>588.308</ele>
        <time>2021-04-06T11:47:57Z</time>
      </trkpt>
      <trkpt lat="43.196651" lon="-2.271335">
        <ele>587.631</ele>
        <time>2021-04-06T11:47:58Z</time>
      </trkpt>
      <trkpt lat="43.196618" lon="-2.271353">
        <ele>586.654</ele>
        <time>2021-04-06T11:48:00Z</time>
      </trkpt>
      <trkpt lat="43.196604" lon="-2.271366">
        <ele>586.535</ele>
        <time>2021-04-06T11:48:01Z</time>
      </trkpt>
      <trkpt lat="43.196577" lon="-2.271391">
        <ele>586.370</ele>
        <time>2021-04-06T11:48:03Z</time>
      </trkpt>
      <trkpt lat="43.196551" lon="-2.271406">
        <ele>585.566</ele>
        <time>2021-04-06T11:48:05Z</time>
      </trkpt>
      <trkpt lat="43.196524" lon="-2.271409">
        <ele>584.283</ele>
        <time>2021-04-06T11:48:07Z</time>
      </trkpt>
      <trkpt lat="43.196504" lon="-2.271425">
        <ele>583.846</ele>
        <time>2021-04-06T11:48:09Z</time>
      </trkpt>
      <trkpt lat="43.196476" lon="-2.271447">
        <ele>583.121</ele>
        <time>2021-04-06T11:48:11Z</time>
      </trkpt>
      <trkpt lat="43.196459" lon="-2.271456">
        <ele>582.647</ele>
        <time>2021-04-06T11:48:12Z</time>
      </trkpt>
      <trkpt lat="43.196442" lon="-2.271469">
        <ele>582.229</ele>
        <time>2021-04-06T11:48:13Z</time>
      </trkpt>
      <trkpt lat="43.196428" lon="-2.271480">
        <ele>581.821</ele>
        <time>2021-04-06T11:48:14Z</time>
      </trkpt>
      <trkpt lat="43.196414" lon="-2.271494">
        <ele>581.608</ele>
        <time>2021-04-06T11:48:15Z</time>
      </trkpt>
      <trkpt lat="43.196385" lon="-2.271509">
        <ele>580.561</ele>
        <time>2021-04-06T11:48:17Z</time>
      </trkpt>
      <trkpt lat="43.196372" lon="-2.271523">
        <ele>580.374</ele>
        <time>2021-04-06T11:48:18Z</time>
      </trkpt>
      <trkpt lat="43.196346" lon="-2.271546">
        <ele>579.795</ele>
        <time>2021-04-06T11:48:20Z</time>
      </trkpt>
      <trkpt lat="43.196320" lon="-2.271561">
        <ele>578.880</ele>
        <time>2021-04-06T11:48:22Z</time>
      </trkpt>
      <trkpt lat="43.196295" lon="-2.271578">
        <ele>578.056</ele>
        <time>2021-04-06T11:48:24Z</time>
      </trkpt>
      <trkpt lat="43.196274" lon="-2.271605">
        <ele>577.743</ele>
        <time>2021-04-06T11:48:26Z</time>
      </trkpt>
      <trkpt lat="43.196247" lon="-2.271625">
        <ele>576.846</ele>
        <time>2021-04-06T11:48:28Z</time>
      </trkpt>
      <trkpt lat="43.196224" lon="-2.271650">
        <ele>576.361</ele>
        <time>2021-04-06T11:48:30Z</time>
      </trkpt>
      <trkpt lat="43.196199" lon="-2.271669">
        <ele>575.514</ele>
        <time>2021-04-06T11:48:32Z</time>
      </trkpt>
      <trkpt lat="43.196177" lon="-2.271691">
        <ele>574.954</ele>
        <time>2021-04-06T11:48:34Z</time>
      </trkpt>
      <trkpt lat="43.196154" lon="-2.271707">
        <ele>574.009</ele>
        <time>2021-04-06T11:48:36Z</time>
      </trkpt>
      <trkpt lat="43.196126" lon="-2.271726">
        <ele>572.908</ele>
        <time>2021-04-06T11:48:38Z</time>
      </trkpt>
      <trkpt lat="43.196110" lon="-2.271733">
        <ele>572.138</ele>
        <time>2021-04-06T11:48:39Z</time>
      </trkpt>
      <trkpt lat="43.196096" lon="-2.271743">
        <ele>571.511</ele>
        <time>2021-04-06T11:48:40Z</time>
      </trkpt>
      <trkpt lat="43.196067" lon="-2.271765">
        <ele>570.332</ele>
        <time>2021-04-06T11:48:42Z</time>
      </trkpt>
      <trkpt lat="43.196039" lon="-2.271782">
        <ele>569.117</ele>
        <time>2021-04-06T11:48:44Z</time>
      </trkpt>
      <trkpt lat="43.196014" lon="-2.271794">
        <ele>567.873</ele>
        <time>2021-04-06T11:48:46Z</time>
      </trkpt>
      <trkpt lat="43.195988" lon="-2.271808">
        <ele>566.650</ele>
        <time>2021-04-06T11:48:48Z</time>
      </trkpt>
      <trkpt lat="43.195962" lon="-2.271821">
        <ele>565.383</ele>
        <time>2021-04-06T11:48:50Z</time>
      </trkpt>
      <trkpt lat="43.195938" lon="-2.271846">
        <ele>564.658</ele>
        <time>2021-04-06T11:48:52Z</time>
      </trkpt>
      <trkpt lat="43.195916" lon="-2.271871">
        <ele>564.099</ele>
        <time>2021-04-06T11:48:54Z</time>
      </trkpt>
      <trkpt lat="43.195902" lon="-2.271883">
        <ele>563.507</ele>
        <time>2021-04-06T11:48:55Z</time>
      </trkpt>
      <trkpt lat="43.195874" lon="-2.271906">
        <ele>562.427</ele>
        <time>2021-04-06T11:48:57Z</time>
      </trkpt>
      <trkpt lat="43.195849" lon="-2.271923">
        <ele>561.308</ele>
        <time>2021-04-06T11:48:59Z</time>
      </trkpt>
      <trkpt lat="43.195824" lon="-2.271951">
        <ele>560.686</ele>
        <time>2021-04-06T11:49:01Z</time>
      </trkpt>
      <trkpt lat="43.195801" lon="-2.271975">
        <ele>559.889</ele>
        <time>2021-04-06T11:49:03Z</time>
      </trkpt>
      <trkpt lat="43.195787" lon="-2.271988">
        <ele>559.370</ele>
        <time>2021-04-06T11:49:04Z</time>
      </trkpt>
      <trkpt lat="43.195771" lon="-2.271999">
        <ele>558.585</ele>
        <time>2021-04-06T11:49:05Z</time>
      </trkpt>
      <trkpt lat="43.195746" lon="-2.272022">
        <ele>557.681</ele>
        <time>2021-04-06T11:49:07Z</time>
      </trkpt>
      <trkpt lat="43.195719" lon="-2.272038">
        <ele>556.388</ele>
        <time>2021-04-06T11:49:09Z</time>
      </trkpt>
      <trkpt lat="43.195693" lon="-2.272061">
        <ele>555.371</ele>
        <time>2021-04-06T11:49:11Z</time>
      </trkpt>
      <trkpt lat="43.195670" lon="-2.272089">
        <ele>554.676</ele>
        <time>2021-04-06T11:49:13Z</time>
      </trkpt>
      <trkpt lat="43.195646" lon="-2.272120">
        <ele>553.968</ele>
        <time>2021-04-06T11:49:15Z</time>
      </trkpt>
      <trkpt lat="43.195631" lon="-2.272136">
        <ele>553.442</ele>
        <time>2021-04-06T11:49:16Z</time>
      </trkpt>
      <trkpt lat="43.195606" lon="-2.272162">
        <ele>552.526</ele>
        <time>2021-04-06T11:49:18Z</time>
      </trkpt>
      <trkpt lat="43.195581" lon="-2.272182">
        <ele>551.508</ele>
        <time>2021-04-06T11:49:20Z</time>
      </trkpt>
      <trkpt lat="43.195568" lon="-2.272196">
        <ele>551.143</ele>
        <time>2021-04-06T11:49:21Z</time>
      </trkpt>
      <trkpt lat="43.195541" lon="-2.272218">
        <ele>550.016</ele>
        <time>2021-04-06T11:49:23Z</time>
      </trkpt>
      <trkpt lat="43.195517" lon="-2.272239">
        <ele>549.327</ele>
        <time>2021-04-06T11:49:25Z</time>
      </trkpt>
      <trkpt lat="43.195491" lon="-2.272261">
        <ele>548.452</ele>
        <time>2021-04-06T11:49:27Z</time>
      </trkpt>
      <trkpt lat="43.195475" lon="-2.272273">
        <ele>547.998</ele>
        <time>2021-04-06T11:49:28Z</time>
      </trkpt>
      <trkpt lat="43.195459" lon="-2.272285">
        <ele>547.315</ele>
        <time>2021-04-06T11:49:29Z</time>
      </trkpt>
      <trkpt lat="43.195431" lon="-2.272312">
        <ele>546.648</ele>
        <time>2021-04-06T11:49:31Z</time>
      </trkpt>
      <trkpt lat="43.195414" lon="-2.272322">
        <ele>545.923</ele>
        <time>2021-04-06T11:49:32Z</time>
      </trkpt>
      <trkpt lat="43.195381" lon="-2.272344">
        <ele>544.726</ele>
        <time>2021-04-06T11:49:34Z</time>
      </trkpt>
      <trkpt lat="43.195366" lon="-2.272358">
        <ele>544.347</ele>
        <time>2021-04-06T11:49:35Z</time>
      </trkpt>
      <trkpt lat="43.195351" lon="-2.272374">
        <ele>544.011</ele>
        <time>2021-04-06T11:49:36Z</time>
      </trkpt>
      <trkpt lat="43.195329" lon="-2.272401">
        <ele>543.608</ele>
        <time>2021-04-06T11:49:38Z</time>
      </trkpt>
      <trkpt lat="43.195298" lon="-2.272421">
        <ele>542.639</ele>
        <time>2021-04-06T11:49:40Z</time>
      </trkpt>
      <trkpt lat="43.195270" lon="-2.272443">
        <ele>541.762</ele>
        <time>2021-04-06T11:49:42Z</time>
      </trkpt>
      <trkpt lat="43.195243" lon="-2.272470">
        <ele>540.953</ele>
        <time>2021-04-06T11:49:44Z</time>
      </trkpt>
      <trkpt lat="43.195214" lon="-2.272491">
        <ele>539.858</ele>
        <time>2021-04-06T11:49:46Z</time>
      </trkpt>
      <trkpt lat="43.195191" lon="-2.272512">
        <ele>539.074</ele>
        <time>2021-04-06T11:49:48Z</time>
      </trkpt>
      <trkpt lat="43.195165" lon="-2.272531">
        <ele>537.981</ele>
        <time>2021-04-06T11:49:50Z</time>
      </trkpt>
      <trkpt lat="43.195137" lon="-2.272550">
        <ele>536.694</ele>
        <time>2021-04-06T11:49:52Z</time>
      </trkpt>
      <trkpt lat="43.195110" lon="-2.272564">
        <ele>535.369</ele>
        <time>2021-04-06T11:49:54Z</time>
      </trkpt>
      <trkpt lat="43.195097" lon="-2.272576">
        <ele>534.929</ele>
        <time>2021-04-06T11:49:55Z</time>
      </trkpt>
      <trkpt lat="43.195072" lon="-2.272601">
        <ele>534.000</ele>
        <time>2021-04-06T11:49:57Z</time>
      </trkpt>
      <trkpt lat="43.195047" lon="-2.272626">
        <ele>533.120</ele>
        <time>2021-04-06T11:49:59Z</time>
      </trkpt>
      <trkpt lat="43.195018" lon="-2.272647">
        <ele>531.808</ele>
        <time>2021-04-06T11:50:01Z</time>
      </trkpt>
      <trkpt lat="43.194985" lon="-2.272668">
        <ele>530.559</ele>
        <time>2021-04-06T11:50:03Z</time>
      </trkpt>
      <trkpt lat="43.194969" lon="-2.272682">
        <ele>530.132</ele>
        <time>2021-04-06T11:50:04Z</time>
      </trkpt>
      <trkpt lat="43.194953" lon="-2.272696">
        <ele>529.653</ele>
        <time>2021-04-06T11:50:05Z</time>
      </trkpt>
      <trkpt lat="43.194939" lon="-2.272707">
        <ele>529.248</ele>
        <time>2021-04-06T11:50:06Z</time>
      </trkpt>
      <trkpt lat="43.194909" lon="-2.272727">
        <ele>528.274</ele>
        <time>2021-04-06T11:50:08Z</time>
      </trkpt>
      <trkpt lat="43.194881" lon="-2.272744">
        <ele>527.251</ele>
        <time>2021-04-06T11:50:10Z</time>
      </trkpt>
      <trkpt lat="43.194847" lon="-2.272756">
        <ele>525.874</ele>
        <time>2021-04-06T11:50:12Z</time>
      </trkpt>
      <trkpt lat="43.194830" lon="-2.272762">
        <ele>525.129</ele>
        <time>2021-04-06T11:50:13Z</time>
      </trkpt>
      <trkpt lat="43.194813" lon="-2.272773">
        <ele>524.553</ele>
        <time>2021-04-06T11:50:14Z</time>
      </trkpt>
      <trkpt lat="43.194803" lon="-2.272794">
        <ele>524.404</ele>
        <time>2021-04-06T11:50:15Z</time>
      </trkpt>
      <trkpt lat="43.194790" lon="-2.272821">
        <ele>524.214</ele>
        <time>2021-04-06T11:50:17Z</time>
      </trkpt>
      <trkpt lat="43.194775" lon="-2.272839">
        <ele>523.808</ele>
        <time>2021-04-06T11:50:19Z</time>
      </trkpt>
      <trkpt lat="43.194756" lon="-2.272843">
        <ele>522.982</ele>
        <time>2021-04-06T11:50:21Z</time>
      </trkpt>
      <trkpt lat="43.194756" lon="-2.272824">
        <ele>522.635</ele>
        <time>2021-04-06T11:50:23Z</time>
      </trkpt>
      <trkpt lat="43.194753" lon="-2.272788">
        <ele>521.776</ele>
        <time>2021-04-06T11:50:25Z</time>
      </trkpt>
      <trkpt lat="43.194755" lon="-2.272741">
        <ele>520.861</ele>
        <time>2021-04-06T11:50:27Z</time>
      </trkpt>
      <trkpt lat="43.194756" lon="-2.272715">
        <ele>520.377</ele>
        <time>2021-04-06T11:50:28Z</time>
      </trkpt>
      <trkpt lat="43.194758" lon="-2.272691">
        <ele>519.954</ele>
        <time>2021-04-06T11:50:29Z</time>
      </trkpt>
      <trkpt lat="43.194762" lon="-2.272665">
        <ele>519.557</ele>
        <time>2021-04-06T11:50:30Z</time>
      </trkpt>
      <trkpt lat="43.194767" lon="-2.272620">
        <ele>518.862</ele>
        <time>2021-04-06T11:50:32Z</time>
      </trkpt>
      <trkpt lat="43.194767" lon="-2.272579">
        <ele>517.878</ele>
        <time>2021-04-06T11:50:34Z</time>
      </trkpt>
      <trkpt lat="43.194763" lon="-2.272553">
        <ele>517.133</ele>
        <time>2021-04-06T11:50:35Z</time>
      </trkpt>
      <trkpt lat="43.194764" lon="-2.272527">
        <ele>516.626</ele>
        <time>2021-04-06T11:50:36Z</time>
      </trkpt>
      <trkpt lat="43.194769" lon="-2.272500">
        <ele>516.208</ele>
        <time>2021-04-06T11:50:37Z</time>
      </trkpt>
      <trkpt lat="43.194775" lon="-2.272472">
        <ele>515.794</ele>
        <time>2021-04-06T11:50:38Z</time>
      </trkpt>
      <trkpt lat="43.194782" lon="-2.272445">
        <ele>515.297</ele>
        <time>2021-04-06T11:50:39Z</time>
      </trkpt>
      <trkpt lat="43.194786" lon="-2.272421">
        <ele>514.758</ele>
        <time>2021-04-06T11:50:40Z</time>
      </trkpt>
      <trkpt lat="43.194792" lon="-2.272395">
        <ele>514.223</ele>
        <time>2021-04-06T11:50:41Z</time>
      </trkpt>
      <trkpt lat="43.194798" lon="-2.272370">
        <ele>513.889</ele>
        <time>2021-04-06T11:50:42Z</time>
      </trkpt>
      <trkpt lat="43.194807" lon="-2.272343">
        <ele>513.486</ele>
        <time>2021-04-06T11:50:43Z</time>
      </trkpt>
      <trkpt lat="43.194815" lon="-2.272319">
        <ele>513.149</ele>
        <time>2021-04-06T11:50:44Z</time>
      </trkpt>
      <trkpt lat="43.194818" lon="-2.272293">
        <ele>512.574</ele>
        <time>2021-04-06T11:50:45Z</time>
      </trkpt>
      <trkpt lat="43.194828" lon="-2.272248">
        <ele>511.765</ele>
        <time>2021-04-06T11:50:47Z</time>
      </trkpt>
      <trkpt lat="43.194834" lon="-2.272224">
        <ele>511.368</ele>
        <time>2021-04-06T11:50:48Z</time>
      </trkpt>
      <trkpt lat="43.194838" lon="-2.272199">
        <ele>510.814</ele>
        <time>2021-04-06T11:50:49Z</time>
      </trkpt>
      <trkpt lat="43.194842" lon="-2.272173">
        <ele>510.208</ele>
        <time>2021-04-06T11:50:50Z</time>
      </trkpt>
      <trkpt lat="43.194847" lon="-2.272147">
        <ele>509.743</ele>
        <time>2021-04-06T11:50:51Z</time>
      </trkpt>
      <trkpt lat="43.194850" lon="-2.272125">
        <ele>509.266</ele>
        <time>2021-04-06T11:50:52Z</time>
      </trkpt>
      <trkpt lat="43.194857" lon="-2.272080">
        <ele>508.287</ele>
        <time>2021-04-06T11:50:54Z</time>
      </trkpt>
      <trkpt lat="43.194864" lon="-2.272057">
        <ele>507.962</ele>
        <time>2021-04-06T11:50:55Z</time>
      </trkpt>
      <trkpt lat="43.194879" lon="-2.272015">
        <ele>507.428</ele>
        <time>2021-04-06T11:50:57Z</time>
      </trkpt>
      <trkpt lat="43.194884" lon="-2.271975">
        <ele>506.565</ele>
        <time>2021-04-06T11:50:59Z</time>
      </trkpt>
      <trkpt lat="43.194892" lon="-2.271951">
        <ele>506.128</ele>
        <time>2021-04-06T11:51:00Z</time>
      </trkpt>
      <trkpt lat="43.194901" lon="-2.271928">
        <ele>505.923</ele>
        <time>2021-04-06T11:51:01Z</time>
      </trkpt>
      <trkpt lat="43.194912" lon="-2.271904">
        <ele>505.797</ele>
        <time>2021-04-06T11:51:02Z</time>
      </trkpt>
      <trkpt lat="43.194921" lon="-2.271876">
        <ele>505.323</ele>
        <time>2021-04-06T11:51:03Z</time>
      </trkpt>
      <trkpt lat="43.194929" lon="-2.271847">
        <ele>504.825</ele>
        <time>2021-04-06T11:51:04Z</time>
      </trkpt>
      <trkpt lat="43.194938" lon="-2.271823">
        <ele>504.508</ele>
        <time>2021-04-06T11:51:05Z</time>
      </trkpt>
      <trkpt lat="43.194954" lon="-2.271780">
        <ele>504.086</ele>
        <time>2021-04-06T11:51:07Z</time>
      </trkpt>
      <trkpt lat="43.194960" lon="-2.271755">
        <ele>503.689</ele>
        <time>2021-04-06T11:51:08Z</time>
      </trkpt>
      <trkpt lat="43.194966" lon="-2.271728">
        <ele>503.140</ele>
        <time>2021-04-06T11:51:09Z</time>
      </trkpt>
      <trkpt lat="43.194975" lon="-2.271703">
        <ele>502.875</ele>
        <time>2021-04-06T11:51:10Z</time>
      </trkpt>
      <trkpt lat="43.194984" lon="-2.271679">
        <ele>502.661</ele>
        <time>2021-04-06T11:51:11Z</time>
      </trkpt>
      <trkpt lat="43.194996" lon="-2.271631">
        <ele>501.878</ele>
        <time>2021-04-06T11:51:13Z</time>
      </trkpt>
      <trkpt lat="43.194999" lon="-2.271603">
        <ele>501.191</ele>
        <time>2021-04-06T11:51:14Z</time>
      </trkpt>
      <trkpt lat="43.195002" lon="-2.271578">
        <ele>500.646</ele>
        <time>2021-04-06T11:51:15Z</time>
      </trkpt>
      <trkpt lat="43.195010" lon="-2.271538">
        <ele>499.959</ele>
        <time>2021-04-06T11:51:17Z</time>
      </trkpt>
      <trkpt lat="43.195015" lon="-2.271512">
        <ele>499.403</ele>
        <time>2021-04-06T11:51:18Z</time>
      </trkpt>
      <trkpt lat="43.195019" lon="-2.271489">
        <ele>498.923</ele>
        <time>2021-04-06T11:51:19Z</time>
      </trkpt>
      <trkpt lat="43.195029" lon="-2.271447">
        <ele>498.308</ele>
        <time>2021-04-06T11:51:21Z</time>
      </trkpt>
      <trkpt lat="43.195042" lon="-2.271401">
        <ele>497.612</ele>
        <time>2021-04-06T11:51:23Z</time>
      </trkpt>
      <trkpt lat="43.195047" lon="-2.271377">
        <ele>497.125</ele>
        <time>2021-04-06T11:51:24Z</time>
      </trkpt>
      <trkpt lat="43.195051" lon="-2.271352">
        <ele>496.576</ele>
        <time>2021-04-06T11:51:25Z</time>
      </trkpt>
      <trkpt lat="43.195055" lon="-2.271329">
        <ele>496.021</ele>
        <time>2021-04-06T11:51:26Z</time>
      </trkpt>
      <trkpt lat="43.195059" lon="-2.271304">
        <ele>495.437</ele>
        <time>2021-04-06T11:51:27Z</time>
      </trkpt>
      <trkpt lat="43.195066" lon="-2.271256">
        <ele>494.174</ele>
        <time>2021-04-06T11:51:29Z</time>
      </trkpt>
      <trkpt lat="43.195071" lon="-2.271228">
        <ele>493.577</ele>
        <time>2021-04-06T11:51:30Z</time>
      </trkpt>
      <trkpt lat="43.195076" lon="-2.271199">
        <ele>492.822</ele>
        <time>2021-04-06T11:51:31Z</time>
      </trkpt>
      <trkpt lat="43.195080" lon="-2.271173">
        <ele>492.174</ele>
        <time>2021-04-06T11:51:32Z</time>
      </trkpt>
      <trkpt lat="43.195083" lon="-2.271147">
        <ele>491.456</ele>
        <time>2021-04-06T11:51:33Z</time>
      </trkpt>
      <trkpt lat="43.195087" lon="-2.271122">
        <ele>490.821</ele>
        <time>2021-04-06T11:51:34Z</time>
      </trkpt>
      <trkpt lat="43.195093" lon="-2.271095">
        <ele>490.208</ele>
        <time>2021-04-06T11:51:35Z</time>
      </trkpt>
      <trkpt lat="43.195097" lon="-2.271070">
        <ele>489.694</ele>
        <time>2021-04-06T11:51:36Z</time>
      </trkpt>
      <trkpt lat="43.195112" lon="-2.271025">
        <ele>488.987</ele>
        <time>2021-04-06T11:51:38Z</time>
      </trkpt>
      <trkpt lat="43.195117" lon="-2.271000">
        <ele>488.328</ele>
        <time>2021-04-06T11:51:39Z</time>
      </trkpt>
      <trkpt lat="43.195130" lon="-2.270965">
        <ele>487.893</ele>
        <time>2021-04-06T11:51:41Z</time>
      </trkpt>
      <trkpt lat="43.195141" lon="-2.270929">
        <ele>487.299</ele>
        <time>2021-04-06T11:51:43Z</time>
      </trkpt>
      <trkpt lat="43.195144" lon="-2.270905">
        <ele>486.686</ele>
        <time>2021-04-06T11:51:44Z</time>
      </trkpt>
      <trkpt lat="43.195147" lon="-2.270877">
        <ele>485.839</ele>
        <time>2021-04-06T11:51:45Z</time>
      </trkpt>
      <trkpt lat="43.195152" lon="-2.270852">
        <ele>485.344</ele>
        <time>2021-04-06T11:51:46Z</time>
      </trkpt>
      <trkpt lat="43.195157" lon="-2.270826">
        <ele>484.767</ele>
        <time>2021-04-06T11:51:47Z</time>
      </trkpt>
      <trkpt lat="43.195165" lon="-2.270801">
        <ele>484.381</ele>
        <time>2021-04-06T11:51:48Z</time>
      </trkpt>
      <trkpt lat="43.195171" lon="-2.270778">
        <ele>483.919</ele>
        <time>2021-04-06T11:51:49Z</time>
      </trkpt>
      <trkpt lat="43.195178" lon="-2.270754">
        <ele>483.508</ele>
        <time>2021-04-06T11:51:50Z</time>
      </trkpt>
      <trkpt lat="43.195186" lon="-2.270729">
        <ele>483.143</ele>
        <time>2021-04-06T11:51:51Z</time>
      </trkpt>
      <trkpt lat="43.195193" lon="-2.270707">
        <ele>482.886</ele>
        <time>2021-04-06T11:51:52Z</time>
      </trkpt>
      <trkpt lat="43.195199" lon="-2.270681">
        <ele>482.287</ele>
        <time>2021-04-06T11:51:53Z</time>
      </trkpt>
      <trkpt lat="43.195206" lon="-2.270655">
        <ele>481.872</ele>
        <time>2021-04-06T11:51:54Z</time>
      </trkpt>
      <trkpt lat="43.195214" lon="-2.270627">
        <ele>481.348</ele>
        <time>2021-04-06T11:51:55Z</time>
      </trkpt>
      <trkpt lat="43.195219" lon="-2.270599">
        <ele>480.695</ele>
        <time>2021-04-06T11:51:56Z</time>
      </trkpt>
      <trkpt lat="43.195227" lon="-2.270572">
        <ele>480.118</ele>
        <time>2021-04-06T11:51:57Z</time>
      </trkpt>
      <trkpt lat="43.195233" lon="-2.270544">
        <ele>479.513</ele>
        <time>2021-04-06T11:51:58Z</time>
      </trkpt>
      <trkpt lat="43.195240" lon="-2.270518">
        <ele>479.024</ele>
        <time>2021-04-06T11:51:59Z</time>
      </trkpt>
      <trkpt lat="43.195251" lon="-2.270495">
        <ele>478.804</ele>
        <time>2021-04-06T11:52:00Z</time>
      </trkpt>
      <trkpt lat="43.195261" lon="-2.270470">
        <ele>478.414</ele>
        <time>2021-04-06T11:52:01Z</time>
      </trkpt>
      <trkpt lat="43.195271" lon="-2.270444">
        <ele>478.108</ele>
        <time>2021-04-06T11:52:02Z</time>
      </trkpt>
      <trkpt lat="43.195280" lon="-2.270418">
        <ele>477.779</ele>
        <time>2021-04-06T11:52:03Z</time>
      </trkpt>
      <trkpt lat="43.195285" lon="-2.270392">
        <ele>477.092</ele>
        <time>2021-04-06T11:52:04Z</time>
      </trkpt>
      <trkpt lat="43.195290" lon="-2.270367">
        <ele>476.583</ele>
        <time>2021-04-06T11:52:05Z</time>
      </trkpt>
      <trkpt lat="43.195295" lon="-2.270342">
        <ele>475.958</ele>
        <time>2021-04-06T11:52:06Z</time>
      </trkpt>
      <trkpt lat="43.195307" lon="-2.270294">
        <ele>474.944</ele>
        <time>2021-04-06T11:52:08Z</time>
      </trkpt>
      <trkpt lat="43.195314" lon="-2.270269">
        <ele>474.471</ele>
        <time>2021-04-06T11:52:09Z</time>
      </trkpt>
      <trkpt lat="43.195324" lon="-2.270242">
        <ele>474.174</ele>
        <time>2021-04-06T11:52:10Z</time>
      </trkpt>
      <trkpt lat="43.195334" lon="-2.270212">
        <ele>473.769</ele>
        <time>2021-04-06T11:52:11Z</time>
      </trkpt>
      <trkpt lat="43.195343" lon="-2.270183">
        <ele>473.377</ele>
        <time>2021-04-06T11:52:12Z</time>
      </trkpt>
      <trkpt lat="43.195365" lon="-2.270128">
        <ele>472.861</ele>
        <time>2021-04-06T11:52:14Z</time>
      </trkpt>
      <trkpt lat="43.195371" lon="-2.270099">
        <ele>472.227</ele>
        <time>2021-04-06T11:52:15Z</time>
      </trkpt>
      <trkpt lat="43.195378" lon="-2.270073">
        <ele>471.808</ele>
        <time>2021-04-06T11:52:16Z</time>
      </trkpt>
      <trkpt lat="43.195385" lon="-2.270051">
        <ele>471.584</ele>
        <time>2021-04-06T11:52:17Z</time>
      </trkpt>
      <trkpt lat="43.195402" lon="-2.270010">
        <ele>471.177</ele>
        <time>2021-04-06T11:52:19Z</time>
      </trkpt>
      <trkpt lat="43.195408" lon="-2.269987">
        <ele>470.878</ele>
        <time>2021-04-06T11:52:20Z</time>
      </trkpt>
      <trkpt lat="43.195416" lon="-2.269961">
        <ele>470.513</ele>
        <time>2021-04-06T11:52:21Z</time>
      </trkpt>
      <trkpt lat="43.195416" lon="-2.269936">
        <ele>469.969</ele>
        <time>2021-04-06T11:52:22Z</time>
      </trkpt>
      <trkpt lat="43.195383" lon="-2.269920">
        <ele>467.996</ele>
        <time>2021-04-06T11:52:24Z</time>
      </trkpt>
      <trkpt lat="43.195364" lon="-2.269928">
        <ele>467.299</ele>
        <time>2021-04-06T11:52:25Z</time>
      </trkpt>
      <trkpt lat="43.195347" lon="-2.269940">
        <ele>466.794</ele>
        <time>2021-04-06T11:52:26Z</time>
      </trkpt>
      <trkpt lat="43.195319" lon="-2.269967">
        <ele>466.154</ele>
        <time>2021-04-06T11:52:28Z</time>
      </trkpt>
      <trkpt lat="43.195290" lon="-2.269982">
        <ele>465.156</ele>
        <time>2021-04-06T11:52:30Z</time>
      </trkpt>
      <trkpt lat="43.195264" lon="-2.269995">
        <ele>464.211</ele>
        <time>2021-04-06T11:52:32Z</time>
      </trkpt>
      <trkpt lat="43.195240" lon="-2.270012">
        <ele>463.408</ele>
        <time>2021-04-06T11:52:34Z</time>
      </trkpt>
      <trkpt lat="43.195214" lon="-2.270035">
        <ele>462.852</ele>
        <time>2021-04-06T11:52:36Z</time>
      </trkpt>
      <trkpt lat="43.195197" lon="-2.270046">
        <ele>462.385</ele>
        <time>2021-04-06T11:52:37Z</time>
      </trkpt>
      <trkpt lat="43.195181" lon="-2.270053">
        <ele>461.786</ele>
        <time>2021-04-06T11:52:38Z</time>
      </trkpt>
      <trkpt lat="43.195162" lon="-2.270060">
        <ele>461.081</ele>
        <time>2021-04-06T11:52:39Z</time>
      </trkpt>
      <trkpt lat="43.195134" lon="-2.270066">
        <ele>459.867</ele>
        <time>2021-04-06T11:52:41Z</time>
      </trkpt>
      <trkpt lat="43.195096" lon="-2.270079">
        <ele>458.314</ele>
        <time>2021-04-06T11:52:43Z</time>
      </trkpt>
      <trkpt lat="43.195077" lon="-2.270086">
        <ele>457.637</ele>
        <time>2021-04-06T11:52:44Z</time>
      </trkpt>
      <trkpt lat="43.195059" lon="-2.270094">
        <ele>456.922</ele>
        <time>2021-04-06T11:52:45Z</time>
      </trkpt>
      <trkpt lat="43.195031" lon="-2.270109">
        <ele>456.126</ele>
        <time>2021-04-06T11:52:47Z</time>
      </trkpt>
      <trkpt lat="43.195007" lon="-2.270119">
        <ele>455.247</ele>
        <time>2021-04-06T11:52:49Z</time>
      </trkpt>
      <trkpt lat="43.194974" lon="-2.270134">
        <ele>454.211</ele>
        <time>2021-04-06T11:52:51Z</time>
      </trkpt>
      <trkpt lat="43.194938" lon="-2.270152">
        <ele>453.108</ele>
        <time>2021-04-06T11:52:53Z</time>
      </trkpt>
      <trkpt lat="43.194918" lon="-2.270163">
        <ele>452.629</ele>
        <time>2021-04-06T11:52:54Z</time>
      </trkpt>
      <trkpt lat="43.194897" lon="-2.270174">
        <ele>452.032</ele>
        <time>2021-04-06T11:52:55Z</time>
      </trkpt>
      <trkpt lat="43.194880" lon="-2.270186">
        <ele>451.653</ele>
        <time>2021-04-06T11:52:56Z</time>
      </trkpt>
      <trkpt lat="43.194862" lon="-2.270194">
        <ele>451.038</ele>
        <time>2021-04-06T11:52:57Z</time>
      </trkpt>
      <trkpt lat="43.194843" lon="-2.270204">
        <ele>450.494</ele>
        <time>2021-04-06T11:52:58Z</time>
      </trkpt>
      <trkpt lat="43.194826" lon="-2.270212">
        <ele>449.951</ele>
        <time>2021-04-06T11:52:59Z</time>
      </trkpt>
      <trkpt lat="43.194794" lon="-2.270231">
        <ele>449.024</ele>
        <time>2021-04-06T11:53:01Z</time>
      </trkpt>
      <trkpt lat="43.194763" lon="-2.270244">
        <ele>447.979</ele>
        <time>2021-04-06T11:53:03Z</time>
      </trkpt>
      <trkpt lat="43.194746" lon="-2.270250">
        <ele>447.367</ele>
        <time>2021-04-06T11:53:04Z</time>
      </trkpt>
      <trkpt lat="43.194716" lon="-2.270265">
        <ele>446.481</ele>
        <time>2021-04-06T11:53:06Z</time>
      </trkpt>
      <trkpt lat="43.194699" lon="-2.270276">
        <ele>445.919</ele>
        <time>2021-04-06T11:53:07Z</time>
      </trkpt>
      <trkpt lat="43.194682" lon="-2.270289">
        <ele>445.608</ele>
        <time>2021-04-06T11:53:08Z</time>
      </trkpt>
      <trkpt lat="43.194653" lon="-2.270310">
        <ele>444.983</ele>
        <time>2021-04-06T11:53:10Z</time>
      </trkpt>
      <trkpt lat="43.194636" lon="-2.270320">
        <ele>444.516</ele>
        <time>2021-04-06T11:53:11Z</time>
      </trkpt>
      <trkpt lat="43.194619" lon="-2.270324">
        <ele>443.987</ele>
        <time>2021-04-06T11:53:12Z</time>
      </trkpt>
      <trkpt lat="43.194585" lon="-2.270335">
        <ele>442.742</ele>
        <time>2021-04-06T11:53:14Z</time>
      </trkpt>
      <trkpt lat="43.194565" lon="-2.270337">
        <ele>441.938</ele>
        <time>2021-04-06T11:53:15Z</time>
      </trkpt>
      <trkpt lat="43.194535" lon="-2.270360">
        <ele>441.325</ele>
        <time>2021-04-06T11:53:17Z</time>
      </trkpt>
      <trkpt lat="43.194506" lon="-2.270370">
        <ele>440.348</ele>
        <time>2021-04-06T11:53:19Z</time>
      </trkpt>
      <trkpt lat="43.194489" lon="-2.270378">
        <ele>439.813</ele>
        <time>2021-04-06T11:53:20Z</time>
      </trkpt>
      <trkpt lat="43.194472" lon="-2.270391">
        <ele>439.552</ele>
        <time>2021-04-06T11:53:21Z</time>
      </trkpt>
      <trkpt lat="43.194454" lon="-2.270402">
        <ele>439.053</ele>
        <time>2021-04-06T11:53:22Z</time>
      </trkpt>
      <trkpt lat="43.194436" lon="-2.270413">
        <ele>438.508</ele>
        <time>2021-04-06T11:53:23Z</time>
      </trkpt>
      <trkpt lat="43.194420" lon="-2.270423">
        <ele>438.108</ele>
        <time>2021-04-06T11:53:24Z</time>
      </trkpt>
      <trkpt lat="43.194404" lon="-2.270433">
        <ele>437.752</ele>
        <time>2021-04-06T11:53:25Z</time>
      </trkpt>
      <trkpt lat="43.194377" lon="-2.270455">
        <ele>437.265</ele>
        <time>2021-04-06T11:53:27Z</time>
      </trkpt>
      <trkpt lat="43.194352" lon="-2.270480">
        <ele>436.846</ele>
        <time>2021-04-06T11:53:29Z</time>
      </trkpt>
      <trkpt lat="43.194326" lon="-2.270491">
        <ele>436.011</ele>
        <time>2021-04-06T11:53:31Z</time>
      </trkpt>
      <trkpt lat="43.194310" lon="-2.270493">
        <ele>435.427</ele>
        <time>2021-04-06T11:53:32Z</time>
      </trkpt>
      <trkpt lat="43.194291" lon="-2.270491">
        <ele>434.594</ele>
        <time>2021-04-06T11:53:33Z</time>
      </trkpt>
      <trkpt lat="43.194270" lon="-2.270497">
        <ele>433.877</ele>
        <time>2021-04-06T11:53:34Z</time>
      </trkpt>
      <trkpt lat="43.194247" lon="-2.270512">
        <ele>433.212</ele>
        <time>2021-04-06T11:53:35Z</time>
      </trkpt>
      <trkpt lat="43.194225" lon="-2.270525">
        <ele>432.616</ele>
        <time>2021-04-06T11:53:36Z</time>
      </trkpt>
      <trkpt lat="43.194204" lon="-2.270538">
        <ele>432.176</ele>
        <time>2021-04-06T11:53:37Z</time>
      </trkpt>
      <trkpt lat="43.194184" lon="-2.270551">
        <ele>431.613</ele>
        <time>2021-04-06T11:53:38Z</time>
      </trkpt>
      <trkpt lat="43.194164" lon="-2.270564">
        <ele>431.108</ele>
        <time>2021-04-06T11:53:39Z</time>
      </trkpt>
      <trkpt lat="43.194147" lon="-2.270576">
        <ele>430.778</ele>
        <time>2021-04-06T11:53:40Z</time>
      </trkpt>
      <trkpt lat="43.194130" lon="-2.270586">
        <ele>430.371</ele>
        <time>2021-04-06T11:53:41Z</time>
      </trkpt>
      <trkpt lat="43.194114" lon="-2.270595">
        <ele>429.982</ele>
        <time>2021-04-06T11:53:42Z</time>
      </trkpt>
      <trkpt lat="43.194095" lon="-2.270607">
        <ele>429.597</ele>
        <time>2021-04-06T11:53:43Z</time>
      </trkpt>
      <trkpt lat="43.194077" lon="-2.270618">
        <ele>429.083</ele>
        <time>2021-04-06T11:53:44Z</time>
      </trkpt>
      <trkpt lat="43.194058" lon="-2.270628">
        <ele>428.530</ele>
        <time>2021-04-06T11:53:45Z</time>
      </trkpt>
      <trkpt lat="43.194042" lon="-2.270640">
        <ele>428.233</ele>
        <time>2021-04-06T11:53:46Z</time>
      </trkpt>
      <trkpt lat="43.194027" lon="-2.270654">
        <ele>427.958</ele>
        <time>2021-04-06T11:53:47Z</time>
      </trkpt>
      <trkpt lat="43.194009" lon="-2.270667">
        <ele>427.671</ele>
        <time>2021-04-06T11:53:48Z</time>
      </trkpt>
      <trkpt lat="43.193992" lon="-2.270678">
        <ele>427.241</ele>
        <time>2021-04-06T11:53:49Z</time>
      </trkpt>
      <trkpt lat="43.193959" lon="-2.270696">
        <ele>426.315</ele>
        <time>2021-04-06T11:53:51Z</time>
      </trkpt>
      <trkpt lat="43.193942" lon="-2.270706">
        <ele>425.908</ele>
        <time>2021-04-06T11:53:52Z</time>
      </trkpt>
      <trkpt lat="43.193922" lon="-2.270713">
        <ele>425.364</ele>
        <time>2021-04-06T11:53:53Z</time>
      </trkpt>
      <trkpt lat="43.193890" lon="-2.270725">
        <ele>424.367</ele>
        <time>2021-04-06T11:53:55Z</time>
      </trkpt>
      <trkpt lat="43.193859" lon="-2.270740">
        <ele>423.438</ele>
        <time>2021-04-06T11:53:57Z</time>
      </trkpt>
      <trkpt lat="43.193843" lon="-2.270752">
        <ele>423.123</ele>
        <time>2021-04-06T11:53:58Z</time>
      </trkpt>
      <trkpt lat="43.193814" lon="-2.270764">
        <ele>422.229</ele>
        <time>2021-04-06T11:54:00Z</time>
      </trkpt>
      <trkpt lat="43.193787" lon="-2.270778">
        <ele>421.536</ele>
        <time>2021-04-06T11:54:02Z</time>
      </trkpt>
      <trkpt lat="43.193771" lon="-2.270783">
        <ele>421.069</ele>
        <time>2021-04-06T11:54:03Z</time>
      </trkpt>
      <trkpt lat="43.193754" lon="-2.270787">
        <ele>420.444</ele>
        <time>2021-04-06T11:54:04Z</time>
      </trkpt>
      <trkpt lat="43.193736" lon="-2.270793">
        <ele>419.897</ele>
        <time>2021-04-06T11:54:05Z</time>
      </trkpt>
      <trkpt lat="43.193716" lon="-2.270802">
        <ele>419.323</ele>
        <time>2021-04-06T11:54:06Z</time>
      </trkpt>
      <trkpt lat="43.193696" lon="-2.270817">
        <ele>418.925</ele>
        <time>2021-04-06T11:54:07Z</time>
      </trkpt>
      <trkpt lat="43.193678" lon="-2.270831">
        <ele>418.608</ele>
        <time>2021-04-06T11:54:08Z</time>
      </trkpt>
      <trkpt lat="43.193658" lon="-2.270837">
        <ele>418.066</ele>
        <time>2021-04-06T11:54:09Z</time>
      </trkpt>
      <trkpt lat="43.193640" lon="-2.270844">
        <ele>417.579</ele>
        <time>2021-04-06T11:54:10Z</time>
      </trkpt>
      <trkpt lat="43.193623" lon="-2.270854">
        <ele>417.150</ele>
        <time>2021-04-06T11:54:11Z</time>
      </trkpt>
      <trkpt lat="43.193606" lon="-2.270868">
        <ele>416.815</ele>
        <time>2021-04-06T11:54:12Z</time>
      </trkpt>
      <trkpt lat="43.193587" lon="-2.270877">
        <ele>416.231</ele>
        <time>2021-04-06T11:54:13Z</time>
      </trkpt>
      <trkpt lat="43.193569" lon="-2.270890">
        <ele>415.818</ele>
        <time>2021-04-06T11:54:14Z</time>
      </trkpt>
      <trkpt lat="43.193551" lon="-2.270904">
        <ele>415.521</ele>
        <time>2021-04-06T11:54:15Z</time>
      </trkpt>
      <trkpt lat="43.193533" lon="-2.270914">
        <ele>415.016</ele>
        <time>2021-04-06T11:54:16Z</time>
      </trkpt>
      <trkpt lat="43.193514" lon="-2.270926">
        <ele>414.629</ele>
        <time>2021-04-06T11:54:17Z</time>
      </trkpt>
      <trkpt lat="43.193495" lon="-2.270937">
        <ele>414.100</ele>
        <time>2021-04-06T11:54:18Z</time>
      </trkpt>
      <trkpt lat="43.193474" lon="-2.270947">
        <ele>413.620</ele>
        <time>2021-04-06T11:54:19Z</time>
      </trkpt>
      <trkpt lat="43.193453" lon="-2.270956">
        <ele>413.008</ele>
        <time>2021-04-06T11:54:20Z</time>
      </trkpt>
      <trkpt lat="43.193433" lon="-2.270962">
        <ele>412.349</ele>
        <time>2021-04-06T11:54:21Z</time>
      </trkpt>
      <trkpt lat="43.193416" lon="-2.270967">
        <ele>411.842</ele>
        <time>2021-04-06T11:54:22Z</time>
      </trkpt>
      <trkpt lat="43.193387" lon="-2.270975">
        <ele>410.843</ele>
        <time>2021-04-06T11:54:24Z</time>
      </trkpt>
      <trkpt lat="43.193362" lon="-2.270987">
        <ele>410.288</ele>
        <time>2021-04-06T11:54:26Z</time>
      </trkpt>
      <trkpt lat="43.193348" lon="-2.270999">
        <ele>410.064</ele>
        <time>2021-04-06T11:54:29Z</time>
      </trkpt>
      <trkpt lat="43.193324" lon="-2.271024">
        <ele>409.891</ele>
        <time>2021-04-06T11:54:32Z</time>
      </trkpt>
      <trkpt lat="43.193307" lon="-2.271033">
        <ele>409.344</ele>
        <time>2021-04-06T11:54:33Z</time>
      </trkpt>
      <trkpt lat="43.193288" lon="-2.271044">
        <ele>408.849</ele>
        <time>2021-04-06T11:54:34Z</time>
      </trkpt>
      <trkpt lat="43.193270" lon="-2.271057">
        <ele>408.537</ele>
        <time>2021-04-06T11:54:35Z</time>
      </trkpt>
      <trkpt lat="43.193251" lon="-2.271070">
        <ele>408.149</ele>
        <time>2021-04-06T11:54:36Z</time>
      </trkpt>
      <trkpt lat="43.193229" lon="-2.271084">
        <ele>407.613</ele>
        <time>2021-04-06T11:54:37Z</time>
      </trkpt>
      <trkpt lat="43.193208" lon="-2.271098">
        <ele>407.108</ele>
        <time>2021-04-06T11:54:38Z</time>
      </trkpt>
      <trkpt lat="43.193188" lon="-2.271115">
        <ele>406.880</ele>
        <time>2021-04-06T11:54:39Z</time>
      </trkpt>
      <trkpt lat="43.193169" lon="-2.271131">
        <ele>406.493</ele>
        <time>2021-04-06T11:54:40Z</time>
      </trkpt>
      <trkpt lat="43.193151" lon="-2.271148">
        <ele>406.124</ele>
        <time>2021-04-06T11:54:41Z</time>
      </trkpt>
      <trkpt lat="43.193134" lon="-2.271161">
        <ele>405.819</ele>
        <time>2021-04-06T11:54:42Z</time>
      </trkpt>
      <trkpt lat="43.193117" lon="-2.271174">
        <ele>405.485</ele>
        <time>2021-04-06T11:54:43Z</time>
      </trkpt>
      <trkpt lat="43.193097" lon="-2.271184">
        <ele>404.982</ele>
        <time>2021-04-06T11:54:44Z</time>
      </trkpt>
      <trkpt lat="43.193078" lon="-2.271195">
        <ele>404.485</ele>
        <time>2021-04-06T11:54:45Z</time>
      </trkpt>
      <trkpt lat="43.193060" lon="-2.271204">
        <ele>403.910</ele>
        <time>2021-04-06T11:54:46Z</time>
      </trkpt>
      <trkpt lat="43.193045" lon="-2.271211">
        <ele>403.496</ele>
        <time>2021-04-06T11:54:47Z</time>
      </trkpt>
      <trkpt lat="43.193015" lon="-2.271229">
        <ele>402.731</ele>
        <time>2021-04-06T11:54:49Z</time>
      </trkpt>
      <trkpt lat="43.192985" lon="-2.271239">
        <ele>401.724</ele>
        <time>2021-04-06T11:54:51Z</time>
      </trkpt>
      <trkpt lat="43.192956" lon="-2.271252">
        <ele>400.808</ele>
        <time>2021-04-06T11:54:53Z</time>
      </trkpt>
      <trkpt lat="43.192931" lon="-2.271265">
        <ele>400.016</ele>
        <time>2021-04-06T11:54:55Z</time>
      </trkpt>
      <trkpt lat="43.192916" lon="-2.271274">
        <ele>399.699</ele>
        <time>2021-04-06T11:54:56Z</time>
      </trkpt>
      <trkpt lat="43.192888" lon="-2.271287">
        <ele>398.790</ele>
        <time>2021-04-06T11:54:58Z</time>
      </trkpt>
      <trkpt lat="43.192870" lon="-2.271295">
        <ele>398.165</ele>
        <time>2021-04-06T11:54:59Z</time>
      </trkpt>
      <trkpt lat="43.192839" lon="-2.271313">
        <ele>397.171</ele>
        <time>2021-04-06T11:55:01Z</time>
      </trkpt>
      <trkpt lat="43.192809" lon="-2.271331">
        <ele>396.248</ele>
        <time>2021-04-06T11:55:03Z</time>
      </trkpt>
      <trkpt lat="43.192783" lon="-2.271347">
        <ele>395.321</ele>
        <time>2021-04-06T11:55:05Z</time>
      </trkpt>
      <trkpt lat="43.192755" lon="-2.271363">
        <ele>394.546</ele>
        <time>2021-04-06T11:55:07Z</time>
      </trkpt>
      <trkpt lat="43.192727" lon="-2.271386">
        <ele>393.735</ele>
        <time>2021-04-06T11:55:09Z</time>
      </trkpt>
      <trkpt lat="43.192707" lon="-2.271391">
        <ele>393.086</ele>
        <time>2021-04-06T11:55:11Z</time>
      </trkpt>
      <trkpt lat="43.192687" lon="-2.271402">
        <ele>392.414</ele>
        <time>2021-04-06T11:55:13Z</time>
      </trkpt>
      <trkpt lat="43.192667" lon="-2.271419">
        <ele>391.808</ele>
        <time>2021-04-06T11:55:15Z</time>
      </trkpt>
      <trkpt lat="43.192639" lon="-2.271443">
        <ele>391.140</ele>
        <time>2021-04-06T11:55:18Z</time>
      </trkpt>
      <trkpt lat="43.192619" lon="-2.271470">
        <ele>390.763</ele>
        <time>2021-04-06T11:55:19Z</time>
      </trkpt>
      <trkpt lat="43.192608" lon="-2.271487">
        <ele>390.514</ele>
        <time>2021-04-06T11:55:20Z</time>
      </trkpt>
      <trkpt lat="43.192582" lon="-2.271506">
        <ele>389.649</ele>
        <time>2021-04-06T11:55:22Z</time>
      </trkpt>
      <trkpt lat="43.192551" lon="-2.271531">
        <ele>388.555</ele>
        <time>2021-04-06T11:55:24Z</time>
      </trkpt>
      <trkpt lat="43.192531" lon="-2.271543">
        <ele>387.782</ele>
        <time>2021-04-06T11:55:25Z</time>
      </trkpt>
      <trkpt lat="43.192515" lon="-2.271554">
        <ele>387.155</ele>
        <time>2021-04-06T11:55:26Z</time>
      </trkpt>
      <trkpt lat="43.192500" lon="-2.271562">
        <ele>386.510</ele>
        <time>2021-04-06T11:55:27Z</time>
      </trkpt>
      <trkpt lat="43.192470" lon="-2.271582">
        <ele>385.365</ele>
        <time>2021-04-06T11:55:29Z</time>
      </trkpt>
      <trkpt lat="43.192439" lon="-2.271594">
        <ele>383.968</ele>
        <time>2021-04-06T11:55:31Z</time>
      </trkpt>
      <trkpt lat="43.192407" lon="-2.271582">
        <ele>382.114</ele>
        <time>2021-04-06T11:55:33Z</time>
      </trkpt>
      <trkpt lat="43.192396" lon="-2.271556">
        <ele>381.208</ele>
        <time>2021-04-06T11:55:35Z</time>
      </trkpt>
      <trkpt lat="43.192391" lon="-2.271518">
        <ele>380.453</ele>
        <time>2021-04-06T11:55:37Z</time>
      </trkpt>
      <trkpt lat="43.192387" lon="-2.271477">
        <ele>379.616</ele>
        <time>2021-04-06T11:55:39Z</time>
      </trkpt>
      <trkpt lat="43.192383" lon="-2.271453">
        <ele>379.097</ele>
        <time>2021-04-06T11:55:40Z</time>
      </trkpt>
      <trkpt lat="43.192382" lon="-2.271410">
        <ele>378.422</ele>
        <time>2021-04-06T11:55:42Z</time>
      </trkpt>
      <trkpt lat="43.192385" lon="-2.271372">
        <ele>377.938</ele>
        <time>2021-04-06T11:55:44Z</time>
      </trkpt>
      <trkpt lat="43.192383" lon="-2.271332">
        <ele>377.035</ele>
        <time>2021-04-06T11:55:46Z</time>
      </trkpt>
      <trkpt lat="43.192379" lon="-2.271290">
        <ele>376.048</ele>
        <time>2021-04-06T11:55:48Z</time>
      </trkpt>
      <trkpt lat="43.192372" lon="-2.271263">
        <ele>375.193</ele>
        <time>2021-04-06T11:55:49Z</time>
      </trkpt>
      <trkpt lat="43.192369" lon="-2.271231">
        <ele>374.332</ele>
        <time>2021-04-06T11:55:51Z</time>
      </trkpt>
      <trkpt lat="43.192365" lon="-2.271199">
        <ele>373.492</ele>
        <time>2021-04-06T11:55:53Z</time>
      </trkpt>
      <trkpt lat="43.192353" lon="-2.271167">
        <ele>372.211</ele>
        <time>2021-04-06T11:55:55Z</time>
      </trkpt>
      <trkpt lat="43.192338" lon="-2.271136">
        <ele>370.808</ele>
        <time>2021-04-06T11:55:57Z</time>
      </trkpt>
      <trkpt lat="43.192333" lon="-2.271105">
        <ele>369.860</ele>
        <time>2021-04-06T11:55:59Z</time>
      </trkpt>
      <trkpt lat="43.192333" lon="-2.271072">
        <ele>369.063</ele>
        <time>2021-04-06T11:56:01Z</time>
      </trkpt>
      <trkpt lat="43.192324" lon="-2.271033">
        <ele>367.674</ele>
        <time>2021-04-06T11:56:03Z</time>
      </trkpt>
      <trkpt lat="43.192295" lon="-2.271034">
        <ele>366.189</ele>
        <time>2021-04-06T11:56:05Z</time>
      </trkpt>
      <trkpt lat="43.192264" lon="-2.271058">
        <ele>365.155</ele>
        <time>2021-04-06T11:56:07Z</time>
      </trkpt>
      <trkpt lat="43.192251" lon="-2.271076">
        <ele>364.832</ele>
        <time>2021-04-06T11:56:08Z</time>
      </trkpt>
      <trkpt lat="43.192237" lon="-2.271093">
        <ele>364.465</ele>
        <time>2021-04-06T11:56:09Z</time>
      </trkpt>
      <trkpt lat="43.192222" lon="-2.271107">
        <ele>363.950</ele>
        <time>2021-04-06T11:56:10Z</time>
      </trkpt>
      <trkpt lat="43.192192" lon="-2.271126">
        <ele>362.392</ele>
        <time>2021-04-06T11:56:12Z</time>
      </trkpt>
      <trkpt lat="43.192175" lon="-2.271136">
        <ele>361.473</ele>
        <time>2021-04-06T11:56:13Z</time>
      </trkpt>
      <trkpt lat="43.192145" lon="-2.271159">
        <ele>359.920</ele>
        <time>2021-04-06T11:56:15Z</time>
      </trkpt>
      <trkpt lat="43.192127" lon="-2.271180">
        <ele>359.208</ele>
        <time>2021-04-06T11:56:16Z</time>
      </trkpt>
      <trkpt lat="43.192111" lon="-2.271196">
        <ele>358.686</ele>
        <time>2021-04-06T11:56:17Z</time>
      </trkpt>
      <trkpt lat="43.192090" lon="-2.271227">
        <ele>358.129</ele>
        <time>2021-04-06T11:56:19Z</time>
      </trkpt>
      <trkpt lat="43.192073" lon="-2.271248">
        <ele>357.580</ele>
        <time>2021-04-06T11:56:20Z</time>
      </trkpt>
      <trkpt lat="43.192059" lon="-2.271269">
        <ele>357.225</ele>
        <time>2021-04-06T11:56:21Z</time>
      </trkpt>
      <trkpt lat="43.192035" lon="-2.271306">
        <ele>356.891</ele>
        <time>2021-04-06T11:56:23Z</time>
      </trkpt>
      <trkpt lat="43.192016" lon="-2.271325">
        <ele>356.268</ele>
        <time>2021-04-06T11:56:24Z</time>
      </trkpt>
      <trkpt lat="43.191999" lon="-2.271340">
        <ele>355.731</ele>
        <time>2021-04-06T11:56:25Z</time>
      </trkpt>
      <trkpt lat="43.191971" lon="-2.271366">
        <ele>354.866</ele>
        <time>2021-04-06T11:56:27Z</time>
      </trkpt>
      <trkpt lat="43.191955" lon="-2.271382">
        <ele>354.433</ele>
        <time>2021-04-06T11:56:28Z</time>
      </trkpt>
      <trkpt lat="43.191935" lon="-2.271410">
        <ele>353.723</ele>
        <time>2021-04-06T11:56:30Z</time>
      </trkpt>
      <trkpt lat="43.191923" lon="-2.271426">
        <ele>353.215</ele>
        <time>2021-04-06T11:56:31Z</time>
      </trkpt>
      <trkpt lat="43.191910" lon="-2.271440">
        <ele>352.708</ele>
        <time>2021-04-06T11:56:32Z</time>
      </trkpt>
      <trkpt lat="43.191893" lon="-2.271456">
        <ele>351.940</ele>
        <time>2021-04-06T11:56:34Z</time>
      </trkpt>
      <trkpt lat="43.191874" lon="-2.271469">
        <ele>351.063</ele>
        <time>2021-04-06T11:56:36Z</time>
      </trkpt>
      <trkpt lat="43.191861" lon="-2.271490">
        <ele>350.694</ele>
        <time>2021-04-06T11:56:38Z</time>
      </trkpt>
      <trkpt lat="43.191834" lon="-2.271511">
        <ele>349.359</ele>
        <time>2021-04-06T11:56:40Z</time>
      </trkpt>
      <trkpt lat="43.191819" lon="-2.271530">
        <ele>348.895</ele>
        <time>2021-04-06T11:56:41Z</time>
      </trkpt>
      <trkpt lat="43.191807" lon="-2.271548">
        <ele>348.462</ele>
        <time>2021-04-06T11:56:42Z</time>
      </trkpt>
      <trkpt lat="43.191793" lon="-2.271566">
        <ele>348.065</ele>
        <time>2021-04-06T11:56:43Z</time>
      </trkpt>
      <trkpt lat="43.191781" lon="-2.271585">
        <ele>347.750</ele>
        <time>2021-04-06T11:56:44Z</time>
      </trkpt>
      <trkpt lat="43.191769" lon="-2.271604">
        <ele>347.369</ele>
        <time>2021-04-06T11:56:45Z</time>
      </trkpt>
      <trkpt lat="43.191755" lon="-2.271621">
        <ele>346.904</ele>
        <time>2021-04-06T11:56:46Z</time>
      </trkpt>
      <trkpt lat="43.191742" lon="-2.271637">
        <ele>346.524</ele>
        <time>2021-04-06T11:56:47Z</time>
      </trkpt>
      <trkpt lat="43.191729" lon="-2.271657">
        <ele>346.208</ele>
        <time>2021-04-06T11:56:48Z</time>
      </trkpt>
      <trkpt lat="43.191706" lon="-2.271673">
        <ele>345.293</ele>
        <time>2021-04-06T11:56:50Z</time>
      </trkpt>
      <trkpt lat="43.191681" lon="-2.271688">
        <ele>344.156</ele>
        <time>2021-04-06T11:56:52Z</time>
      </trkpt>
      <trkpt lat="43.191668" lon="-2.271714">
        <ele>343.897</ele>
        <time>2021-04-06T11:56:54Z</time>
      </trkpt>
      <trkpt lat="43.191652" lon="-2.271754">
        <ele>343.442</ele>
        <time>2021-04-06T11:56:56Z</time>
      </trkpt>
      <trkpt lat="43.191643" lon="-2.271773">
        <ele>343.288</ele>
        <time>2021-04-06T11:56:57Z</time>
      </trkpt>
      <trkpt lat="43.191628" lon="-2.271793">
        <ele>342.665</ele>
        <time>2021-04-06T11:56:58Z</time>
      </trkpt>
      <trkpt lat="43.191618" lon="-2.271822">
        <ele>342.638</ele>
        <time>2021-04-06T11:56:59Z</time>
      </trkpt>
      <trkpt lat="43.191612" lon="-2.271854">
        <ele>342.833</ele>
        <time>2021-04-06T11:57:00Z</time>
      </trkpt>
      <trkpt lat="43.191601" lon="-2.271877">
        <ele>342.596</ele>
        <time>2021-04-06T11:57:01Z</time>
      </trkpt>
      <trkpt lat="43.191586" lon="-2.271895">
        <ele>342.131</ele>
        <time>2021-04-06T11:57:02Z</time>
      </trkpt>
      <trkpt lat="43.191573" lon="-2.271912">
        <ele>341.724</ele>
        <time>2021-04-06T11:57:03Z</time>
      </trkpt>
      <trkpt lat="43.191545" lon="-2.271945">
        <ele>340.908</ele>
        <time>2021-04-06T11:57:05Z</time>
      </trkpt>
      <trkpt lat="43.191530" lon="-2.271965">
        <ele>340.546</ele>
        <time>2021-04-06T11:57:06Z</time>
      </trkpt>
      <trkpt lat="43.191512" lon="-2.271984">
        <ele>340.069</ele>
        <time>2021-04-06T11:57:07Z</time>
      </trkpt>
      <trkpt lat="43.191490" lon="-2.272001">
        <ele>339.210</ele>
        <time>2021-04-06T11:57:08Z</time>
      </trkpt>
      <trkpt lat="43.191468" lon="-2.272015">
        <ele>338.415</ele>
        <time>2021-04-06T11:57:09Z</time>
      </trkpt>
      <trkpt lat="43.191448" lon="-2.272030">
        <ele>337.891</ele>
        <time>2021-04-06T11:57:10Z</time>
      </trkpt>
      <trkpt lat="43.191427" lon="-2.272045">
        <ele>337.048</ele>
        <time>2021-04-06T11:57:11Z</time>
      </trkpt>
      <trkpt lat="43.191407" lon="-2.272065">
        <ele>336.551</ele>
        <time>2021-04-06T11:57:12Z</time>
      </trkpt>
      <trkpt lat="43.191390" lon="-2.272085">
        <ele>336.196</ele>
        <time>2021-04-06T11:57:13Z</time>
      </trkpt>
      <trkpt lat="43.191374" lon="-2.272105">
        <ele>335.762</ele>
        <time>2021-04-06T11:57:14Z</time>
      </trkpt>
      <trkpt lat="43.191357" lon="-2.272129">
        <ele>335.383</ele>
        <time>2021-04-06T11:57:15Z</time>
      </trkpt>
      <trkpt lat="43.191345" lon="-2.272154">
        <ele>335.311</ele>
        <time>2021-04-06T11:57:16Z</time>
      </trkpt>
      <trkpt lat="43.191333" lon="-2.272176">
        <ele>335.208</ele>
        <time>2021-04-06T11:57:17Z</time>
      </trkpt>
      <trkpt lat="43.191322" lon="-2.272199">
        <ele>335.133</ele>
        <time>2021-04-06T11:57:18Z</time>
      </trkpt>
      <trkpt lat="43.191309" lon="-2.272221">
        <ele>334.986</ele>
        <time>2021-04-06T11:57:19Z</time>
      </trkpt>
      <trkpt lat="43.191296" lon="-2.272242">
        <ele>334.797</ele>
        <time>2021-04-06T11:57:20Z</time>
      </trkpt>
      <trkpt lat="43.191283" lon="-2.272262">
        <ele>334.542</ele>
        <time>2021-04-06T11:57:21Z</time>
      </trkpt>
      <trkpt lat="43.191266" lon="-2.272279">
        <ele>334.048</ele>
        <time>2021-04-06T11:57:22Z</time>
      </trkpt>
      <trkpt lat="43.191248" lon="-2.272294">
        <ele>333.415</ele>
        <time>2021-04-06T11:57:23Z</time>
      </trkpt>
      <trkpt lat="43.191230" lon="-2.272311">
        <ele>332.968</ele>
        <time>2021-04-06T11:57:24Z</time>
      </trkpt>
      <trkpt lat="43.191212" lon="-2.272329">
        <ele>332.443</ele>
        <time>2021-04-06T11:57:25Z</time>
      </trkpt>
      <trkpt lat="43.191199" lon="-2.272350">
        <ele>332.292</ele>
        <time>2021-04-06T11:57:26Z</time>
      </trkpt>
      <trkpt lat="43.191177" lon="-2.272375">
        <ele>331.673</ele>
        <time>2021-04-06T11:57:28Z</time>
      </trkpt>
      <trkpt lat="43.191156" lon="-2.272398">
        <ele>331.120</ele>
        <time>2021-04-06T11:57:30Z</time>
      </trkpt>
      <trkpt lat="43.191141" lon="-2.272416">
        <ele>330.708</ele>
        <time>2021-04-06T11:57:31Z</time>
      </trkpt>
      <trkpt lat="43.191121" lon="-2.272432">
        <ele>330.026</ele>
        <time>2021-04-06T11:57:32Z</time>
      </trkpt>
      <trkpt lat="43.191106" lon="-2.272449">
        <ele>329.649</ele>
        <time>2021-04-06T11:57:33Z</time>
      </trkpt>
      <trkpt lat="43.191090" lon="-2.272464">
        <ele>329.220</ele>
        <time>2021-04-06T11:57:34Z</time>
      </trkpt>
      <trkpt lat="43.191076" lon="-2.272479">
        <ele>328.845</ele>
        <time>2021-04-06T11:57:35Z</time>
      </trkpt>
      <trkpt lat="43.191050" lon="-2.272520">
        <ele>328.221</ele>
        <time>2021-04-06T11:57:37Z</time>
      </trkpt>
      <trkpt lat="43.191038" lon="-2.272539">
        <ele>327.958</ele>
        <time>2021-04-06T11:57:38Z</time>
      </trkpt>
      <trkpt lat="43.191026" lon="-2.272557">
        <ele>327.511</ele>
        <time>2021-04-06T11:57:39Z</time>
      </trkpt>
      <trkpt lat="43.191014" lon="-2.272584">
        <ele>327.356</ele>
        <time>2021-04-06T11:57:40Z</time>
      </trkpt>
      <trkpt lat="43.191003" lon="-2.272617">
        <ele>327.282</ele>
        <time>2021-04-06T11:57:41Z</time>
      </trkpt>
      <trkpt lat="43.190990" lon="-2.272644">
        <ele>327.043</ele>
        <time>2021-04-06T11:57:42Z</time>
      </trkpt>
      <trkpt lat="43.190973" lon="-2.272668">
        <ele>326.517</ele>
        <time>2021-04-06T11:57:43Z</time>
      </trkpt>
      <trkpt lat="43.190953" lon="-2.272689">
        <ele>325.808</ele>
        <time>2021-04-06T11:57:44Z</time>
      </trkpt>
      <trkpt lat="43.190933" lon="-2.272710">
        <ele>325.015</ele>
        <time>2021-04-06T11:57:45Z</time>
      </trkpt>
      <trkpt lat="43.190910" lon="-2.272735">
        <ele>324.288</ele>
        <time>2021-04-06T11:57:46Z</time>
      </trkpt>
      <trkpt lat="43.190889" lon="-2.272765">
        <ele>323.689</ele>
        <time>2021-04-06T11:57:47Z</time>
      </trkpt>
      <trkpt lat="43.190867" lon="-2.272794">
        <ele>322.864</ele>
        <time>2021-04-06T11:57:48Z</time>
      </trkpt>
      <trkpt lat="43.190846" lon="-2.272829">
        <ele>321.870</ele>
        <time>2021-04-06T11:57:49Z</time>
      </trkpt>
      <trkpt lat="43.190824" lon="-2.272865">
        <ele>320.967</ele>
        <time>2021-04-06T11:57:50Z</time>
      </trkpt>
      <trkpt lat="43.190802" lon="-2.272900">
        <ele>320.230</ele>
        <time>2021-04-06T11:57:51Z</time>
      </trkpt>
      <trkpt lat="43.190783" lon="-2.272937">
        <ele>319.775</ele>
        <time>2021-04-06T11:57:52Z</time>
      </trkpt>
      <trkpt lat="43.190766" lon="-2.272974">
        <ele>319.353</ele>
        <time>2021-04-06T11:57:53Z</time>
      </trkpt>
      <trkpt lat="43.190751" lon="-2.273006">
        <ele>319.004</ele>
        <time>2021-04-06T11:57:54Z</time>
      </trkpt>
      <trkpt lat="43.190736" lon="-2.273037">
        <ele>318.714</ele>
        <time>2021-04-06T11:57:55Z</time>
      </trkpt>
      <trkpt lat="43.190722" lon="-2.273058">
        <ele>318.408</ele>
        <time>2021-04-06T11:57:56Z</time>
      </trkpt>
      <trkpt lat="43.190707" lon="-2.273075">
        <ele>317.832</ele>
        <time>2021-04-06T11:57:57Z</time>
      </trkpt>
      <trkpt lat="43.190693" lon="-2.273088">
        <ele>317.375</ele>
        <time>2021-04-06T11:57:58Z</time>
      </trkpt>
      <trkpt lat="43.190679" lon="-2.273092">
        <ele>316.866</ele>
        <time>2021-04-06T11:57:59Z</time>
      </trkpt>
      <trkpt lat="43.190658" lon="-2.273092">
        <ele>316.151</ele>
        <time>2021-04-06T11:58:00Z</time>
      </trkpt>
      <trkpt lat="43.190635" lon="-2.273096">
        <ele>315.487</ele>
        <time>2021-04-06T11:58:01Z</time>
      </trkpt>
      <trkpt lat="43.190608" lon="-2.273090">
        <ele>314.634</ele>
        <time>2021-04-06T11:58:02Z</time>
      </trkpt>
      <trkpt lat="43.190590" lon="-2.273083">
        <ele>314.067</ele>
        <time>2021-04-06T11:58:03Z</time>
      </trkpt>
      <trkpt lat="43.190580" lon="-2.273065">
        <ele>313.882</ele>
        <time>2021-04-06T11:58:04Z</time>
      </trkpt>
      <trkpt lat="43.190571" lon="-2.273044">
        <ele>313.383</ele>
        <time>2021-04-06T11:58:05Z</time>
      </trkpt>
      <trkpt lat="43.190559" lon="-2.272996">
        <ele>312.325</ele>
        <time>2021-04-06T11:58:07Z</time>
      </trkpt>
      <trkpt lat="43.190559" lon="-2.272946">
        <ele>311.517</ele>
        <time>2021-04-06T11:58:09Z</time>
      </trkpt>
      <trkpt lat="43.190560" lon="-2.272915">
        <ele>311.108</ele>
        <time>2021-04-06T11:58:10Z</time>
      </trkpt>
      <trkpt lat="43.190562" lon="-2.272882">
        <ele>310.895</ele>
        <time>2021-04-06T11:58:11Z</time>
      </trkpt>
      <trkpt lat="43.190562" lon="-2.272851">
        <ele>310.398</ele>
        <time>2021-04-06T11:58:12Z</time>
      </trkpt>
      <trkpt lat="43.190575" lon="-2.272809">
        <ele>310.329</ele>
        <time>2021-04-06T11:58:13Z</time>
      </trkpt>
      <trkpt lat="43.190590" lon="-2.272768">
        <ele>310.314</ele>
        <time>2021-04-06T11:58:14Z</time>
      </trkpt>
      <trkpt lat="43.190604" lon="-2.272727">
        <ele>310.220</ele>
        <time>2021-04-06T11:58:15Z</time>
      </trkpt>
      <trkpt lat="43.190615" lon="-2.272682">
        <ele>309.987</ele>
        <time>2021-04-06T11:58:16Z</time>
      </trkpt>
      <trkpt lat="43.190625" lon="-2.272636">
        <ele>309.620</ele>
        <time>2021-04-06T11:58:17Z</time>
      </trkpt>
      <trkpt lat="43.190634" lon="-2.272588">
        <ele>309.295</ele>
        <time>2021-04-06T11:58:18Z</time>
      </trkpt>
      <trkpt lat="43.190639" lon="-2.272542">
        <ele>308.673</ele>
        <time>2021-04-06T11:58:19Z</time>
      </trkpt>
      <trkpt lat="43.190650" lon="-2.272499">
        <ele>308.485</ele>
        <time>2021-04-06T11:58:20Z</time>
      </trkpt>
      <trkpt lat="43.190666" lon="-2.272453">
        <ele>308.213</ele>
        <time>2021-04-06T11:58:21Z</time>
      </trkpt>
      <trkpt lat="43.190676" lon="-2.272411">
        <ele>307.708</ele>
        <time>2021-04-06T11:58:22Z</time>
      </trkpt>
      <trkpt lat="43.190685" lon="-2.272372">
        <ele>307.384</ele>
        <time>2021-04-06T11:58:23Z</time>
      </trkpt>
      <trkpt lat="43.190694" lon="-2.272337">
        <ele>307.037</ele>
        <time>2021-04-06T11:58:24Z</time>
      </trkpt>
      <trkpt lat="43.190703" lon="-2.272303">
        <ele>306.658</ele>
        <time>2021-04-06T11:58:25Z</time>
      </trkpt>
      <trkpt lat="43.190711" lon="-2.272271">
        <ele>306.353</ele>
        <time>2021-04-06T11:58:26Z</time>
      </trkpt>
      <trkpt lat="43.190727" lon="-2.272236">
        <ele>306.359</ele>
        <time>2021-04-06T11:58:27Z</time>
      </trkpt>
      <trkpt lat="43.190744" lon="-2.272197">
        <ele>306.396</ele>
        <time>2021-04-06T11:58:28Z</time>
      </trkpt>
      <trkpt lat="43.190764" lon="-2.272157">
        <ele>306.449</ele>
        <time>2021-04-06T11:58:29Z</time>
      </trkpt>
      <trkpt lat="43.190786" lon="-2.272120">
        <ele>306.614</ele>
        <time>2021-04-06T11:58:30Z</time>
      </trkpt>
      <trkpt lat="43.190801" lon="-2.272079">
        <ele>306.522</ele>
        <time>2021-04-06T11:58:31Z</time>
      </trkpt>
      <trkpt lat="43.190807" lon="-2.272038">
        <ele>305.962</ele>
        <time>2021-04-06T11:58:32Z</time>
      </trkpt>
      <trkpt lat="43.190800" lon="-2.271990">
        <ele>304.508</ele>
        <time>2021-04-06T11:58:33Z</time>
      </trkpt>
      <trkpt lat="43.190788" lon="-2.271950">
        <ele>303.208</ele>
        <time>2021-04-06T11:58:34Z</time>
      </trkpt>
      <trkpt lat="43.190761" lon="-2.271926">
        <ele>301.379</ele>
        <time>2021-04-06T11:58:35Z</time>
      </trkpt>
      <trkpt lat="43.190728" lon="-2.271914">
        <ele>299.582</ele>
        <time>2021-04-06T11:58:36Z</time>
      </trkpt>
      <trkpt lat="43.190694" lon="-2.271911">
        <ele>298.093</ele>
        <time>2021-04-06T11:58:37Z</time>
      </trkpt>
      <trkpt lat="43.190663" lon="-2.271915">
        <ele>296.888</ele>
        <time>2021-04-06T11:58:38Z</time>
      </trkpt>
      <trkpt lat="43.190636" lon="-2.271929">
        <ele>296.084</ele>
        <time>2021-04-06T11:58:39Z</time>
      </trkpt>
      <trkpt lat="43.190614" lon="-2.271945">
        <ele>295.541</ele>
        <time>2021-04-06T11:58:40Z</time>
      </trkpt>
      <trkpt lat="43.190593" lon="-2.271961">
        <ele>294.964</ele>
        <time>2021-04-06T11:58:41Z</time>
      </trkpt>
      <trkpt lat="43.190572" lon="-2.271985">
        <ele>294.479</ele>
        <time>2021-04-06T11:58:42Z</time>
      </trkpt>
      <trkpt lat="43.190551" lon="-2.272022">
        <ele>294.126</ele>
        <time>2021-04-06T11:58:43Z</time>
      </trkpt>
      <trkpt lat="43.190529" lon="-2.272053">
        <ele>293.547</ele>
        <time>2021-04-06T11:58:44Z</time>
      </trkpt>
      <trkpt lat="43.190508" lon="-2.272084">
        <ele>292.911</ele>
        <time>2021-04-06T11:58:45Z</time>
      </trkpt>
      <trkpt lat="43.190488" lon="-2.272116">
        <ele>292.608</ele>
        <time>2021-04-06T11:58:46Z</time>
      </trkpt>
      <trkpt lat="43.190466" lon="-2.272144">
        <ele>292.069</ele>
        <time>2021-04-06T11:58:47Z</time>
      </trkpt>
      <trkpt lat="43.190444" lon="-2.272171">
        <ele>291.632</ele>
        <time>2021-04-06T11:58:48Z</time>
      </trkpt>
      <trkpt lat="43.190421" lon="-2.272199">
        <ele>291.153</ele>
        <time>2021-04-06T11:58:49Z</time>
      </trkpt>
      <trkpt lat="43.190397" lon="-2.272221">
        <ele>290.598</ele>
        <time>2021-04-06T11:58:50Z</time>
      </trkpt>
      <trkpt lat="43.190368" lon="-2.272235">
        <ele>289.624</ele>
        <time>2021-04-06T11:58:51Z</time>
      </trkpt>
      <trkpt lat="43.190342" lon="-2.272244">
        <ele>288.641</ele>
        <time>2021-04-06T11:58:52Z</time>
      </trkpt>
      <trkpt lat="43.190306" lon="-2.272249">
        <ele>287.154</ele>
        <time>2021-04-06T11:58:53Z</time>
      </trkpt>
      <trkpt lat="43.190274" lon="-2.272254">
        <ele>285.849</ele>
        <time>2021-04-06T11:58:54Z</time>
      </trkpt>
      <trkpt lat="43.190233" lon="-2.272259">
        <ele>285.214</ele>
        <time>2021-04-06T11:58:55Z</time>
      </trkpt>
      <trkpt lat="43.190196" lon="-2.272261">
        <ele>284.654</ele>
        <time>2021-04-06T11:58:56Z</time>
      </trkpt>
      <trkpt lat="43.190155" lon="-2.272264">
        <ele>283.909</ele>
        <time>2021-04-06T11:58:57Z</time>
      </trkpt>
      <trkpt lat="43.190123" lon="-2.272262">
        <ele>283.308</ele>
        <time>2021-04-06T11:58:58Z</time>
      </trkpt>
      <trkpt lat="43.190106" lon="-2.272264">
        <ele>283.078</ele>
        <time>2021-04-06T11:58:59Z</time>
      </trkpt>
      <trkpt lat="43.190085" lon="-2.272264">
        <ele>282.671</ele>
        <time>2021-04-06T11:59:00Z</time>
      </trkpt>
      <trkpt lat="43.190060" lon="-2.272259">
        <ele>282.042</ele>
        <time>2021-04-06T11:59:01Z</time>
      </trkpt>
      <trkpt lat="43.190037" lon="-2.272262">
        <ele>281.767</ele>
        <time>2021-04-06T11:59:02Z</time>
      </trkpt>
      <trkpt lat="43.190012" lon="-2.272265">
        <ele>281.373</ele>
        <time>2021-04-06T11:59:03Z</time>
      </trkpt>
      <trkpt lat="43.189990" lon="-2.272268">
        <ele>280.960</ele>
        <time>2021-04-06T11:59:04Z</time>
      </trkpt>
      <trkpt lat="43.189961" lon="-2.272276">
        <ele>280.633</ele>
        <time>2021-04-06T11:59:06Z</time>
      </trkpt>
      <trkpt lat="43.189937" lon="-2.272282">
        <ele>280.278</ele>
        <time>2021-04-06T11:59:07Z</time>
      </trkpt>
      <trkpt lat="43.189914" lon="-2.272289">
        <ele>280.092</ele>
        <time>2021-04-06T11:59:08Z</time>
      </trkpt>
      <trkpt lat="43.189883" lon="-2.272299">
        <ele>279.673</ele>
        <time>2021-04-06T11:59:09Z</time>
      </trkpt>
      <trkpt lat="43.189848" lon="-2.272301">
        <ele>279.020</ele>
        <time>2021-04-06T11:59:10Z</time>
      </trkpt>
      <trkpt lat="43.189776" lon="-2.272318">
        <ele>278.108</ele>
        <time>2021-04-06T11:59:12Z</time>
      </trkpt>
      <trkpt lat="43.189737" lon="-2.272325">
        <ele>277.696</ele>
        <time>2021-04-06T11:59:13Z</time>
      </trkpt>
      <trkpt lat="43.189704" lon="-2.272330">
        <ele>277.469</ele>
        <time>2021-04-06T11:59:14Z</time>
      </trkpt>
      <trkpt lat="43.189672" lon="-2.272336">
        <ele>277.490</ele>
        <time>2021-04-06T11:59:15Z</time>
      </trkpt>
      <trkpt lat="43.189636" lon="-2.272343">
        <ele>277.395</ele>
        <time>2021-04-06T11:59:16Z</time>
      </trkpt>
      <trkpt lat="43.189608" lon="-2.272347">
        <ele>277.381</ele>
        <time>2021-04-06T11:59:17Z</time>
      </trkpt>
      <trkpt lat="43.189575" lon="-2.272353">
        <ele>277.218</ele>
        <time>2021-04-06T11:59:18Z</time>
      </trkpt>
      <trkpt lat="43.189548" lon="-2.272363">
        <ele>277.361</ele>
        <time>2021-04-06T11:59:19Z</time>
      </trkpt>
      <trkpt lat="43.189519" lon="-2.272369">
        <ele>277.316</ele>
        <time>2021-04-06T11:59:20Z</time>
      </trkpt>
      <trkpt lat="43.189490" lon="-2.272375">
        <ele>277.252</ele>
        <time>2021-04-06T11:59:21Z</time>
      </trkpt>
      <trkpt lat="43.189464" lon="-2.272387">
        <ele>277.353</ele>
        <time>2021-04-06T11:59:22Z</time>
      </trkpt>
      <trkpt lat="43.189438" lon="-2.272402">
        <ele>277.408</ele>
        <time>2021-04-06T11:59:23Z</time>
      </trkpt>
      <trkpt lat="43.189404" lon="-2.272418">
        <ele>277.208</ele>
        <time>2021-04-06T11:59:24Z</time>
      </trkpt>
      <trkpt lat="43.189367" lon="-2.272434">
        <ele>277.062</ele>
        <time>2021-04-06T11:59:25Z</time>
      </trkpt>
      <trkpt lat="43.189330" lon="-2.272455">
        <ele>276.975</ele>
        <time>2021-04-06T11:59:26Z</time>
      </trkpt>
      <trkpt lat="43.189293" lon="-2.272486">
        <ele>276.966</ele>
        <time>2021-04-06T11:59:27Z</time>
      </trkpt>
      <trkpt lat="43.189259" lon="-2.272508">
        <ele>276.811</ele>
        <time>2021-04-06T11:59:28Z</time>
      </trkpt>
      <trkpt lat="43.189226" lon="-2.272532">
        <ele>276.517</ele>
        <time>2021-04-06T11:59:29Z</time>
      </trkpt>
      <trkpt lat="43.189194" lon="-2.272558">
        <ele>276.394</ele>
        <time>2021-04-06T11:59:30Z</time>
      </trkpt>
      <trkpt lat="43.189167" lon="-2.272578">
        <ele>276.147</ele>
        <time>2021-04-06T11:59:31Z</time>
      </trkpt>
      <trkpt lat="43.189140" lon="-2.272601">
        <ele>275.842</ele>
        <time>2021-04-06T11:59:32Z</time>
      </trkpt>
      <trkpt lat="43.189113" lon="-2.272625">
        <ele>275.473</ele>
        <time>2021-04-06T11:59:33Z</time>
      </trkpt>
      <trkpt lat="43.189091" lon="-2.272649">
        <ele>275.285</ele>
        <time>2021-04-06T11:59:34Z</time>
      </trkpt>
      <trkpt lat="43.189072" lon="-2.272673">
        <ele>275.113</ele>
        <time>2021-04-06T11:59:35Z</time>
      </trkpt>
      <trkpt lat="43.189056" lon="-2.272696">
        <ele>275.008</ele>
        <time>2021-04-06T11:59:36Z</time>
      </trkpt>
      <trkpt lat="43.189036" lon="-2.272718">
        <ele>274.864</ele>
        <time>2021-04-06T11:59:37Z</time>
      </trkpt>
      <trkpt lat="43.189016" lon="-2.272740">
        <ele>274.737</ele>
        <time>2021-04-06T11:59:38Z</time>
      </trkpt>
      <trkpt lat="43.188994" lon="-2.272761">
        <ele>274.428</ele>
        <time>2021-04-06T11:59:39Z</time>
      </trkpt>
      <trkpt lat="43.188976" lon="-2.272782">
        <ele>274.233</ele>
        <time>2021-04-06T11:59:40Z</time>
      </trkpt>
      <trkpt lat="43.188954" lon="-2.272806">
        <ele>273.729</ele>
        <time>2021-04-06T11:59:41Z</time>
      </trkpt>
      <trkpt lat="43.188928" lon="-2.272833">
        <ele>273.236</ele>
        <time>2021-04-06T11:59:42Z</time>
      </trkpt>
      <trkpt lat="43.188903" lon="-2.272858">
        <ele>272.619</ele>
        <time>2021-04-06T11:59:43Z</time>
      </trkpt>
      <trkpt lat="43.188878" lon="-2.272885">
        <ele>272.184</ele>
        <time>2021-04-06T11:59:44Z</time>
      </trkpt>
      <trkpt lat="43.188857" lon="-2.272918">
        <ele>271.755</ele>
        <time>2021-04-06T11:59:45Z</time>
      </trkpt>
      <trkpt lat="43.188837" lon="-2.272955">
        <ele>271.407</ele>
        <time>2021-04-06T11:59:46Z</time>
      </trkpt>
      <trkpt lat="43.188820" lon="-2.272996">
        <ele>271.217</ele>
        <time>2021-04-06T11:59:47Z</time>
      </trkpt>
      <trkpt lat="43.188804" lon="-2.273040">
        <ele>271.108</ele>
        <time>2021-04-06T11:59:48Z</time>
      </trkpt>
      <trkpt lat="43.188791" lon="-2.273081">
        <ele>270.772</ele>
        <time>2021-04-06T11:59:49Z</time>
      </trkpt>
      <trkpt lat="43.188781" lon="-2.273117">
        <ele>270.145</ele>
        <time>2021-04-06T11:59:50Z</time>
      </trkpt>
      <trkpt lat="43.188776" lon="-2.273156">
        <ele>269.786</ele>
        <time>2021-04-06T11:59:51Z</time>
      </trkpt>
      <trkpt lat="43.188775" lon="-2.273195">
        <ele>269.321</ele>
        <time>2021-04-06T11:59:52Z</time>
      </trkpt>
      <trkpt lat="43.188777" lon="-2.273232">
        <ele>269.127</ele>
        <time>2021-04-06T11:59:53Z</time>
      </trkpt>
      <trkpt lat="43.188781" lon="-2.273268">
        <ele>268.854</ele>
        <time>2021-04-06T11:59:54Z</time>
      </trkpt>
      <trkpt lat="43.188788" lon="-2.273312">
        <ele>268.667</ele>
        <time>2021-04-06T11:59:55Z</time>
      </trkpt>
      <trkpt lat="43.188798" lon="-2.273355">
        <ele>268.252</ele>
        <time>2021-04-06T11:59:56Z</time>
      </trkpt>
      <trkpt lat="43.188805" lon="-2.273393">
        <ele>267.436</ele>
        <time>2021-04-06T11:59:57Z</time>
      </trkpt>
      <trkpt lat="43.188810" lon="-2.273425">
        <ele>266.817</ele>
        <time>2021-04-06T11:59:58Z</time>
      </trkpt>
      <trkpt lat="43.188806" lon="-2.273453">
        <ele>265.918</ele>
        <time>2021-04-06T11:59:59Z</time>
      </trkpt>
      <trkpt lat="43.188795" lon="-2.273475">
        <ele>265.108</ele>
        <time>2021-04-06T12:00:00Z</time>
      </trkpt>
      <trkpt lat="43.188773" lon="-2.273489">
        <ele>264.030</ele>
        <time>2021-04-06T12:00:01Z</time>
      </trkpt>
      <trkpt lat="43.188748" lon="-2.273491">
        <ele>263.243</ele>
        <time>2021-04-06T12:00:02Z</time>
      </trkpt>
      <trkpt lat="43.188722" lon="-2.273484">
        <ele>262.674</ele>
        <time>2021-04-06T12:00:03Z</time>
      </trkpt>
      <trkpt lat="43.188696" lon="-2.273469">
        <ele>262.279</ele>
        <time>2021-04-06T12:00:04Z</time>
      </trkpt>
      <trkpt lat="43.188671" lon="-2.273457">
        <ele>261.835</ele>
        <time>2021-04-06T12:00:05Z</time>
      </trkpt>
      <trkpt lat="43.188654" lon="-2.273444">
        <ele>261.732</ele>
        <time>2021-04-06T12:00:06Z</time>
      </trkpt>
      <trkpt lat="43.188624" lon="-2.273434">
        <ele>261.145</ele>
        <time>2021-04-06T12:00:08Z</time>
      </trkpt>
      <trkpt lat="43.188590" lon="-2.273417">
        <ele>260.570</ele>
        <time>2021-04-06T12:00:10Z</time>
      </trkpt>
      <trkpt lat="43.188563" lon="-2.273408">
        <ele>259.867</ele>
        <time>2021-04-06T12:00:11Z</time>
      </trkpt>
      <trkpt lat="43.188530" lon="-2.273404">
        <ele>258.781</ele>
        <time>2021-04-06T12:00:12Z</time>
      </trkpt>
      <trkpt lat="43.188496" lon="-2.273399">
        <ele>257.619</ele>
        <time>2021-04-06T12:00:13Z</time>
      </trkpt>
      <trkpt lat="43.188465" lon="-2.273392">
        <ele>256.608</ele>
        <time>2021-04-06T12:00:14Z</time>
      </trkpt>
      <trkpt lat="43.188434" lon="-2.273382">
        <ele>255.723</ele>
        <time>2021-04-06T12:00:15Z</time>
      </trkpt>
      <trkpt lat="43.188400" lon="-2.273366">
        <ele>254.866</ele>
        <time>2021-04-06T12:00:16Z</time>
      </trkpt>
      <trkpt lat="43.188344" lon="-2.273327">
        <ele>253.547</ele>
        <time>2021-04-06T12:00:18Z</time>
      </trkpt>
      <trkpt lat="43.188318" lon="-2.273300">
        <ele>252.622</ele>
        <time>2021-04-06T12:00:19Z</time>
      </trkpt>
      <trkpt lat="43.188277" lon="-2.273234">
        <ele>251.188</ele>
        <time>2021-04-06T12:00:21Z</time>
      </trkpt>
      <trkpt lat="43.188252" lon="-2.273205">
        <ele>250.145</ele>
        <time>2021-04-06T12:00:22Z</time>
      </trkpt>
      <trkpt lat="43.188234" lon="-2.273177">
        <ele>249.478</ele>
        <time>2021-04-06T12:00:23Z</time>
      </trkpt>
      <trkpt lat="43.188201" lon="-2.273164">
        <ele>247.983</ele>
        <time>2021-04-06T12:00:24Z</time>
      </trkpt>
      <trkpt lat="43.188165" lon="-2.273167">
        <ele>246.263</ele>
        <time>2021-04-06T12:00:25Z</time>
      </trkpt>
      <trkpt lat="43.188136" lon="-2.273187">
        <ele>244.844</ele>
        <time>2021-04-06T12:00:26Z</time>
      </trkpt>
      <trkpt lat="43.188118" lon="-2.273222">
        <ele>243.918</ele>
        <time>2021-04-06T12:00:27Z</time>
      </trkpt>
      <trkpt lat="43.188109" lon="-2.273263">
        <ele>243.408</ele>
        <time>2021-04-06T12:00:28Z</time>
      </trkpt>
      <trkpt lat="43.188103" lon="-2.273304">
        <ele>243.123</ele>
        <time>2021-04-06T12:00:29Z</time>
      </trkpt>
      <trkpt lat="43.188102" lon="-2.273347">
        <ele>242.836</ele>
        <time>2021-04-06T12:00:30Z</time>
      </trkpt>
      <trkpt lat="43.188101" lon="-2.273390">
        <ele>242.387</ele>
        <time>2021-04-06T12:00:31Z</time>
      </trkpt>
      <trkpt lat="43.188100" lon="-2.273434">
        <ele>241.722</ele>
        <time>2021-04-06T12:00:32Z</time>
      </trkpt>
      <trkpt lat="43.188098" lon="-2.273476">
        <ele>241.188</ele>
        <time>2021-04-06T12:00:33Z</time>
      </trkpt>
      <trkpt lat="43.188091" lon="-2.273512">
        <ele>240.445</ele>
        <time>2021-04-06T12:00:34Z</time>
      </trkpt>
      <trkpt lat="43.188081" lon="-2.273541">
        <ele>239.718</ele>
        <time>2021-04-06T12:00:35Z</time>
      </trkpt>
      <trkpt lat="43.188061" lon="-2.273562">
        <ele>238.753</ele>
        <time>2021-04-06T12:00:36Z</time>
      </trkpt>
      <trkpt lat="43.188037" lon="-2.273565">
        <ele>237.347</ele>
        <time>2021-04-06T12:00:37Z</time>
      </trkpt>
      <trkpt lat="43.188010" lon="-2.273560">
        <ele>235.729</ele>
        <time>2021-04-06T12:00:38Z</time>
      </trkpt>
      <trkpt lat="43.187990" lon="-2.273542">
        <ele>234.721</ele>
        <time>2021-04-06T12:00:39Z</time>
      </trkpt>
      <trkpt lat="43.187969" lon="-2.273518">
        <ele>233.708</ele>
        <time>2021-04-06T12:00:40Z</time>
      </trkpt>
      <trkpt lat="43.187952" lon="-2.273489">
        <ele>233.111</ele>
        <time>2021-04-06T12:00:41Z</time>
      </trkpt>
      <trkpt lat="43.187936" lon="-2.273457">
        <ele>232.674</ele>
        <time>2021-04-06T12:00:42Z</time>
      </trkpt>
      <trkpt lat="43.187923" lon="-2.273424">
        <ele>232.495</ele>
        <time>2021-04-06T12:00:43Z</time>
      </trkpt>
      <trkpt lat="43.187914" lon="-2.273388">
        <ele>232.560</ele>
        <time>2021-04-06T12:00:44Z</time>
      </trkpt>
      <trkpt lat="43.187914" lon="-2.273343">
        <ele>233.236</ele>
        <time>2021-04-06T12:00:45Z</time>
      </trkpt>
      <trkpt lat="43.187915" lon="-2.273243">
        <ele>233.743</ele>
        <time>2021-04-06T12:00:47Z</time>
      </trkpt>
      <trkpt lat="43.187919" lon="-2.273193">
        <ele>234.186</ele>
        <time>2021-04-06T12:00:48Z</time>
      </trkpt>
      <trkpt lat="43.187928" lon="-2.273141">
        <ele>234.721</ele>
        <time>2021-04-06T12:00:49Z</time>
      </trkpt>
      <trkpt lat="43.187928" lon="-2.273099">
        <ele>234.941</ele>
        <time>2021-04-06T12:00:50Z</time>
      </trkpt>
      <trkpt lat="43.187925" lon="-2.273055">
        <ele>234.981</ele>
        <time>2021-04-06T12:00:51Z</time>
      </trkpt>
      <trkpt lat="43.187922" lon="-2.273009">
        <ele>234.209</ele>
        <time>2021-04-06T12:00:52Z</time>
      </trkpt>
      <trkpt lat="43.187914" lon="-2.272967">
        <ele>233.408</ele>
        <time>2021-04-06T12:00:53Z</time>
      </trkpt>
      <trkpt lat="43.187909" lon="-2.272922">
        <ele>232.711</ele>
        <time>2021-04-06T12:00:54Z</time>
      </trkpt>
      <trkpt lat="43.187905" lon="-2.272879">
        <ele>232.044</ele>
        <time>2021-04-06T12:00:55Z</time>
      </trkpt>
      <trkpt lat="43.187900" lon="-2.272838">
        <ele>231.485</ele>
        <time>2021-04-06T12:00:56Z</time>
      </trkpt>
      <trkpt lat="43.187895" lon="-2.272796">
        <ele>230.720</ele>
        <time>2021-04-06T12:00:57Z</time>
      </trkpt>
      <trkpt lat="43.187891" lon="-2.272755">
        <ele>229.946</ele>
        <time>2021-04-06T12:00:58Z</time>
      </trkpt>
      <trkpt lat="43.187889" lon="-2.272711">
        <ele>229.153</ele>
        <time>2021-04-06T12:00:59Z</time>
      </trkpt>
      <trkpt lat="43.187884" lon="-2.272666">
        <ele>228.276</ele>
        <time>2021-04-06T12:01:00Z</time>
      </trkpt>
      <trkpt lat="43.187882" lon="-2.272622">
        <ele>227.461</ele>
        <time>2021-04-06T12:01:01Z</time>
      </trkpt>
      <trkpt lat="43.187882" lon="-2.272580">
        <ele>226.894</ele>
        <time>2021-04-06T12:01:02Z</time>
      </trkpt>
      <trkpt lat="43.187882" lon="-2.272536">
        <ele>226.157</ele>
        <time>2021-04-06T12:01:03Z</time>
      </trkpt>
      <trkpt lat="43.187882" lon="-2.272494">
        <ele>225.422</ele>
        <time>2021-04-06T12:01:04Z</time>
      </trkpt>
      <trkpt lat="43.187883" lon="-2.272453">
        <ele>224.608</ele>
        <time>2021-04-06T12:01:05Z</time>
      </trkpt>
      <trkpt lat="43.187886" lon="-2.272412">
        <ele>223.826</ele>
        <time>2021-04-06T12:01:06Z</time>
      </trkpt>
      <trkpt lat="43.187894" lon="-2.272372">
        <ele>223.389</ele>
        <time>2021-04-06T12:01:07Z</time>
      </trkpt>
      <trkpt lat="43.187904" lon="-2.272330">
        <ele>222.840</ele>
        <time>2021-04-06T12:01:08Z</time>
      </trkpt>
      <trkpt lat="43.187912" lon="-2.272288">
        <ele>222.225</ele>
        <time>2021-04-06T12:01:09Z</time>
      </trkpt>
      <trkpt lat="43.187921" lon="-2.272246">
        <ele>221.771</ele>
        <time>2021-04-06T12:01:10Z</time>
      </trkpt>
      <trkpt lat="43.187929" lon="-2.272207">
        <ele>221.158</ele>
        <time>2021-04-06T12:01:11Z</time>
      </trkpt>
      <trkpt lat="43.187941" lon="-2.272169">
        <ele>220.581</ele>
        <time>2021-04-06T12:01:12Z</time>
      </trkpt>
      <trkpt lat="43.187950" lon="-2.272132">
        <ele>219.816</ele>
        <time>2021-04-06T12:01:13Z</time>
      </trkpt>
      <trkpt lat="43.187963" lon="-2.272094">
        <ele>219.326</ele>
        <time>2021-04-06T12:01:14Z</time>
      </trkpt>
      <trkpt lat="43.187972" lon="-2.272058">
        <ele>218.647</ele>
        <time>2021-04-06T12:01:15Z</time>
      </trkpt>
      <trkpt lat="43.187976" lon="-2.272022">
        <ele>217.811</ele>
        <time>2021-04-06T12:01:16Z</time>
      </trkpt>
      <trkpt lat="43.187971" lon="-2.271987">
        <ele>216.708</ele>
        <time>2021-04-06T12:01:17Z</time>
      </trkpt>
      <trkpt lat="43.187954" lon="-2.271957">
        <ele>215.459</ele>
        <time>2021-04-06T12:01:18Z</time>
      </trkpt>
      <trkpt lat="43.187931" lon="-2.271939">
        <ele>214.342</ele>
        <time>2021-04-06T12:01:19Z</time>
      </trkpt>
      <trkpt lat="43.187897" lon="-2.271934">
        <ele>213.263</ele>
        <time>2021-04-06T12:01:20Z</time>
      </trkpt>
      <trkpt lat="43.187858" lon="-2.271938">
        <ele>212.248</ele>
        <time>2021-04-06T12:01:21Z</time>
      </trkpt>
      <trkpt lat="43.187822" lon="-2.271951">
        <ele>211.484</ele>
        <time>2021-04-06T12:01:22Z</time>
      </trkpt>
      <trkpt lat="43.187787" lon="-2.271967">
        <ele>210.891</ele>
        <time>2021-04-06T12:01:23Z</time>
      </trkpt>
      <trkpt lat="43.187753" lon="-2.271984">
        <ele>210.464</ele>
        <time>2021-04-06T12:01:24Z</time>
      </trkpt>
      <trkpt lat="43.187720" lon="-2.272003">
        <ele>210.159</ele>
        <time>2021-04-06T12:01:25Z</time>
      </trkpt>
      <trkpt lat="43.187687" lon="-2.272023">
        <ele>209.939</ele>
        <time>2021-04-06T12:01:26Z</time>
      </trkpt>
      <trkpt lat="43.187658" lon="-2.272038">
        <ele>209.601</ele>
        <time>2021-04-06T12:01:27Z</time>
      </trkpt>
      <trkpt lat="43.187625" lon="-2.272048">
        <ele>209.121</ele>
        <time>2021-04-06T12:01:28Z</time>
      </trkpt>
      <trkpt lat="43.187593" lon="-2.272052">
        <ele>208.508</ele>
        <time>2021-04-06T12:01:29Z</time>
      </trkpt>
      <trkpt lat="43.187561" lon="-2.272053">
        <ele>207.870</ele>
        <time>2021-04-06T12:01:30Z</time>
      </trkpt>
      <trkpt lat="43.187529" lon="-2.272048">
        <ele>207.153</ele>
        <time>2021-04-06T12:01:31Z</time>
      </trkpt>
      <trkpt lat="43.187499" lon="-2.272037">
        <ele>206.364</ele>
        <time>2021-04-06T12:01:32Z</time>
      </trkpt>
      <trkpt lat="43.187469" lon="-2.272026">
        <ele>205.959</ele>
        <time>2021-04-06T12:01:33Z</time>
      </trkpt>
      <trkpt lat="43.187439" lon="-2.272014">
        <ele>205.485</ele>
        <time>2021-04-06T12:01:34Z</time>
      </trkpt>
      <trkpt lat="43.187409" lon="-2.272004">
        <ele>204.912</ele>
        <time>2021-04-06T12:01:35Z</time>
      </trkpt>
      <trkpt lat="43.187381" lon="-2.271994">
        <ele>204.595</ele>
        <time>2021-04-06T12:01:36Z</time>
      </trkpt>
      <trkpt lat="43.187352" lon="-2.271981">
        <ele>204.080</ele>
        <time>2021-04-06T12:01:37Z</time>
      </trkpt>
      <trkpt lat="43.187324" lon="-2.271963">
        <ele>203.413</ele>
        <time>2021-04-06T12:01:38Z</time>
      </trkpt>
      <trkpt lat="43.187298" lon="-2.271942">
        <ele>202.843</ele>
        <time>2021-04-06T12:01:39Z</time>
      </trkpt>
      <trkpt lat="43.187271" lon="-2.271918">
        <ele>202.007</ele>
        <time>2021-04-06T12:01:40Z</time>
      </trkpt>
      <trkpt lat="43.187245" lon="-2.271896">
        <ele>201.208</ele>
        <time>2021-04-06T12:01:41Z</time>
      </trkpt>
      <trkpt lat="43.187220" lon="-2.271873">
        <ele>200.528</ele>
        <time>2021-04-06T12:01:42Z</time>
      </trkpt>
      <trkpt lat="43.187196" lon="-2.271849">
        <ele>199.921</ele>
        <time>2021-04-06T12:01:43Z</time>
      </trkpt>
      <trkpt lat="43.187172" lon="-2.271824">
        <ele>199.332</ele>
        <time>2021-04-06T12:01:44Z</time>
      </trkpt>
      <trkpt lat="43.187150" lon="-2.271799">
        <ele>198.767</ele>
        <time>2021-04-06T12:01:45Z</time>
      </trkpt>
      <trkpt lat="43.187125" lon="-2.271775">
        <ele>198.273</ele>
        <time>2021-04-06T12:01:46Z</time>
      </trkpt>
      <trkpt lat="43.187100" lon="-2.271751">
        <ele>197.740</ele>
        <time>2021-04-06T12:01:47Z</time>
      </trkpt>
      <trkpt lat="43.187078" lon="-2.271725">
        <ele>197.223</ele>
        <time>2021-04-06T12:01:48Z</time>
      </trkpt>
      <trkpt lat="43.187055" lon="-2.271699">
        <ele>196.648</ele>
        <time>2021-04-06T12:01:49Z</time>
      </trkpt>
      <trkpt lat="43.187032" lon="-2.271673">
        <ele>196.186</ele>
        <time>2021-04-06T12:01:50Z</time>
      </trkpt>
      <trkpt lat="43.187010" lon="-2.271649">
        <ele>195.760</ele>
        <time>2021-04-06T12:01:51Z</time>
      </trkpt>
      <trkpt lat="43.186987" lon="-2.271623">
        <ele>195.226</ele>
        <time>2021-04-06T12:01:52Z</time>
      </trkpt>
      <trkpt lat="43.186964" lon="-2.271598">
        <ele>194.708</ele>
        <time>2021-04-06T12:01:53Z</time>
      </trkpt>
      <trkpt lat="43.186942" lon="-2.271577">
        <ele>194.465</ele>
        <time>2021-04-06T12:01:54Z</time>
      </trkpt>
      <trkpt lat="43.186918" lon="-2.271554">
        <ele>193.948</ele>
        <time>2021-04-06T12:01:55Z</time>
      </trkpt>
      <trkpt lat="43.186893" lon="-2.271534">
        <ele>193.449</ele>
        <time>2021-04-06T12:01:56Z</time>
      </trkpt>
      <trkpt lat="43.186868" lon="-2.271516">
        <ele>193.024</ele>
        <time>2021-04-06T12:01:57Z</time>
      </trkpt>
      <trkpt lat="43.186846" lon="-2.271497">
        <ele>192.710</ele>
        <time>2021-04-06T12:01:58Z</time>
      </trkpt>
      <trkpt lat="43.186824" lon="-2.271475">
        <ele>192.347</ele>
        <time>2021-04-06T12:01:59Z</time>
      </trkpt>
      <trkpt lat="43.186806" lon="-2.271447">
        <ele>191.870</ele>
        <time>2021-04-06T12:02:00Z</time>
      </trkpt>
      <trkpt lat="43.186796" lon="-2.271412">
        <ele>191.385</ele>
        <time>2021-04-06T12:02:01Z</time>
      </trkpt>
      <trkpt lat="43.186798" lon="-2.271374">
        <ele>190.884</ele>
        <time>2021-04-06T12:02:02Z</time>
      </trkpt>
      <trkpt lat="43.186808" lon="-2.271342">
        <ele>190.407</ele>
        <time>2021-04-06T12:02:03Z</time>
      </trkpt>
      <trkpt lat="43.186825" lon="-2.271322">
        <ele>190.117</ele>
        <time>2021-04-06T12:02:04Z</time>
      </trkpt>
      <trkpt lat="43.186845" lon="-2.271304">
        <ele>189.908</ele>
        <time>2021-04-06T12:02:05Z</time>
      </trkpt>
      <trkpt lat="43.186867" lon="-2.271291">
        <ele>189.795</ele>
        <time>2021-04-06T12:02:06Z</time>
      </trkpt>
      <trkpt lat="43.186895" lon="-2.271281">
        <ele>189.528</ele>
        <time>2021-04-06T12:02:07Z</time>
      </trkpt>
      <trkpt lat="43.186922" lon="-2.271267">
        <ele>189.399</ele>
        <time>2021-04-06T12:02:08Z</time>
      </trkpt>
      <trkpt lat="43.186951" lon="-2.271256">
        <ele>189.074</ele>
        <time>2021-04-06T12:02:09Z</time>
      </trkpt>
      <trkpt lat="43.186977" lon="-2.271244">
        <ele>188.640</ele>
        <time>2021-04-06T12:02:10Z</time>
      </trkpt>
      <trkpt lat="43.187006" lon="-2.271233">
        <ele>188.137</ele>
        <time>2021-04-06T12:02:11Z</time>
      </trkpt>
      <trkpt lat="43.187036" lon="-2.271223">
        <ele>187.660</ele>
        <time>2021-04-06T12:02:12Z</time>
      </trkpt>
      <trkpt lat="43.187065" lon="-2.271208">
        <ele>187.065</ele>
        <time>2021-04-06T12:02:13Z</time>
      </trkpt>
      <trkpt lat="43.187094" lon="-2.271186">
        <ele>186.269</ele>
        <time>2021-04-06T12:02:14Z</time>
      </trkpt>
      <trkpt lat="43.187118" lon="-2.271160">
        <ele>185.404</ele>
        <time>2021-04-06T12:02:15Z</time>
      </trkpt>
      <trkpt lat="43.187137" lon="-2.271127">
        <ele>184.524</ele>
        <time>2021-04-06T12:02:16Z</time>
      </trkpt>
      <trkpt lat="43.187146" lon="-2.271089">
        <ele>183.708</ele>
        <time>2021-04-06T12:02:17Z</time>
      </trkpt>
      <trkpt lat="43.187150" lon="-2.271049">
        <ele>183.023</ele>
        <time>2021-04-06T12:02:18Z</time>
      </trkpt>
      <trkpt lat="43.187146" lon="-2.271010">
        <ele>182.456</ele>
        <time>2021-04-06T12:02:19Z</time>
      </trkpt>
      <trkpt lat="43.187135" lon="-2.270967">
        <ele>181.837</ele>
        <time>2021-04-06T12:02:20Z</time>
      </trkpt>
      <trkpt lat="43.187099" lon="-2.270892">
        <ele>181.272</ele>
        <time>2021-04-06T12:02:22Z</time>
      </trkpt>
      <trkpt lat="43.187082" lon="-2.270856">
        <ele>180.918</ele>
        <time>2021-04-06T12:02:23Z</time>
      </trkpt>
      <trkpt lat="43.187070" lon="-2.270821">
        <ele>180.565</ele>
        <time>2021-04-06T12:02:24Z</time>
      </trkpt>
      <trkpt lat="43.187059" lon="-2.270784">
        <ele>180.028</ele>
        <time>2021-04-06T12:02:25Z</time>
      </trkpt>
      <trkpt lat="43.187052" lon="-2.270744">
        <ele>179.333</ele>
        <time>2021-04-06T12:02:26Z</time>
      </trkpt>
      <trkpt lat="43.187048" lon="-2.270700">
        <ele>178.666</ele>
        <time>2021-04-06T12:02:27Z</time>
      </trkpt>
      <trkpt lat="43.187044" lon="-2.270657">
        <ele>177.829</ele>
        <time>2021-04-06T12:02:28Z</time>
      </trkpt>
      <trkpt lat="43.187040" lon="-2.270616">
        <ele>177.121</ele>
        <time>2021-04-06T12:02:29Z</time>
      </trkpt>
      <trkpt lat="43.187036" lon="-2.270577">
        <ele>176.408</ele>
        <time>2021-04-06T12:02:30Z</time>
      </trkpt>
      <trkpt lat="43.187028" lon="-2.270540">
        <ele>175.743</ele>
        <time>2021-04-06T12:02:31Z</time>
      </trkpt>
      <trkpt lat="43.187020" lon="-2.270504">
        <ele>174.936</ele>
        <time>2021-04-06T12:02:32Z</time>
      </trkpt>
      <trkpt lat="43.187008" lon="-2.270468">
        <ele>174.197</ele>
        <time>2021-04-06T12:02:33Z</time>
      </trkpt>
      <trkpt lat="43.186993" lon="-2.270436">
        <ele>173.592</ele>
        <time>2021-04-06T12:02:34Z</time>
      </trkpt>
      <trkpt lat="43.186974" lon="-2.270405">
        <ele>173.048</ele>
        <time>2021-04-06T12:02:35Z</time>
      </trkpt>
      <trkpt lat="43.186956" lon="-2.270379">
        <ele>172.715</ele>
        <time>2021-04-06T12:02:36Z</time>
      </trkpt>
      <trkpt lat="43.186936" lon="-2.270351">
        <ele>172.298</ele>
        <time>2021-04-06T12:02:37Z</time>
      </trkpt>
      <trkpt lat="43.186913" lon="-2.270327">
        <ele>171.933</ele>
        <time>2021-04-06T12:02:38Z</time>
      </trkpt>
      <trkpt lat="43.186891" lon="-2.270305">
        <ele>171.694</ele>
        <time>2021-04-06T12:02:39Z</time>
      </trkpt>
      <trkpt lat="43.186868" lon="-2.270279">
        <ele>171.157</ele>
        <time>2021-04-06T12:02:40Z</time>
      </trkpt>
      <trkpt lat="43.186842" lon="-2.270257">
        <ele>170.822</ele>
        <time>2021-04-06T12:02:41Z</time>
      </trkpt>
      <trkpt lat="43.186819" lon="-2.270233">
        <ele>170.408</ele>
        <time>2021-04-06T12:02:42Z</time>
      </trkpt>
      <trkpt lat="43.186798" lon="-2.270211">
        <ele>169.976</ele>
        <time>2021-04-06T12:02:43Z</time>
      </trkpt>
      <trkpt lat="43.186776" lon="-2.270190">
        <ele>169.669</ele>
        <time>2021-04-06T12:02:44Z</time>
      </trkpt>
      <trkpt lat="43.186748" lon="-2.270167">
        <ele>169.290</ele>
        <time>2021-04-06T12:02:45Z</time>
      </trkpt>
      <trkpt lat="43.186719" lon="-2.270139">
        <ele>168.835</ele>
        <time>2021-04-06T12:02:46Z</time>
      </trkpt>
      <trkpt lat="43.186689" lon="-2.270114">
        <ele>168.481</ele>
        <time>2021-04-06T12:02:47Z</time>
      </trkpt>
      <trkpt lat="43.186658" lon="-2.270083">
        <ele>167.958</ele>
        <time>2021-04-06T12:02:48Z</time>
      </trkpt>
      <trkpt lat="43.186628" lon="-2.270049">
        <ele>167.581</ele>
        <time>2021-04-06T12:02:49Z</time>
      </trkpt>
      <trkpt lat="43.186601" lon="-2.270011">
        <ele>167.076</ele>
        <time>2021-04-06T12:02:50Z</time>
      </trkpt>
      <trkpt lat="43.186577" lon="-2.269967">
        <ele>166.482</ele>
        <time>2021-04-06T12:02:51Z</time>
      </trkpt>
      <trkpt lat="43.186555" lon="-2.269931">
        <ele>166.143</ele>
        <time>2021-04-06T12:02:52Z</time>
      </trkpt>
      <trkpt lat="43.186536" lon="-2.269899">
        <ele>165.917</ele>
        <time>2021-04-06T12:02:53Z</time>
      </trkpt>
      <trkpt lat="43.186515" lon="-2.269870">
        <ele>165.808</ele>
        <time>2021-04-06T12:02:54Z</time>
      </trkpt>
      <trkpt lat="43.186497" lon="-2.269838">
        <ele>165.755</ele>
        <time>2021-04-06T12:02:55Z</time>
      </trkpt>
      <trkpt lat="43.186483" lon="-2.269807">
        <ele>165.458</ele>
        <time>2021-04-06T12:02:56Z</time>
      </trkpt>
      <trkpt lat="43.186467" lon="-2.269776">
        <ele>165.319</ele>
        <time>2021-04-06T12:02:57Z</time>
      </trkpt>
      <trkpt lat="43.186453" lon="-2.269747">
        <ele>165.234</ele>
        <time>2021-04-06T12:02:58Z</time>
      </trkpt>
      <trkpt lat="43.186439" lon="-2.269722">
        <ele>165.220</ele>
        <time>2021-04-06T12:02:59Z</time>
      </trkpt>
      <trkpt lat="43.186422" lon="-2.269697">
        <ele>165.467</ele>
        <time>2021-04-06T12:03:00Z</time>
      </trkpt>
      <trkpt lat="43.186407" lon="-2.269679">
        <ele>165.670</ele>
        <time>2021-04-06T12:03:01Z</time>
      </trkpt>
      <trkpt lat="43.186390" lon="-2.269660">
        <ele>165.855</ele>
        <time>2021-04-06T12:03:02Z</time>
      </trkpt>
      <trkpt lat="43.186373" lon="-2.269636">
        <ele>165.575</ele>
        <time>2021-04-06T12:03:03Z</time>
      </trkpt>
      <trkpt lat="43.186355" lon="-2.269613">
        <ele>165.228</ele>
        <time>2021-04-06T12:03:04Z</time>
      </trkpt>
      <trkpt lat="43.186338" lon="-2.269585">
        <ele>164.820</ele>
        <time>2021-04-06T12:03:05Z</time>
      </trkpt>
      <trkpt lat="43.186320" lon="-2.269553">
        <ele>164.408</ele>
        <time>2021-04-06T12:03:06Z</time>
      </trkpt>
      <trkpt lat="43.186304" lon="-2.269521">
        <ele>163.944</ele>
        <time>2021-04-06T12:03:07Z</time>
      </trkpt>
      <trkpt lat="43.186287" lon="-2.269488">
        <ele>163.537</ele>
        <time>2021-04-06T12:03:08Z</time>
      </trkpt>
      <trkpt lat="43.186270" lon="-2.269455">
        <ele>163.098</ele>
        <time>2021-04-06T12:03:09Z</time>
      </trkpt>
      <trkpt lat="43.186253" lon="-2.269420">
        <ele>162.793</ele>
        <time>2021-04-06T12:03:10Z</time>
      </trkpt>
      <trkpt lat="43.186235" lon="-2.269387">
        <ele>162.479</ele>
        <time>2021-04-06T12:03:11Z</time>
      </trkpt>
      <trkpt lat="43.186215" lon="-2.269353">
        <ele>162.126</ele>
        <time>2021-04-06T12:03:12Z</time>
      </trkpt>
      <trkpt lat="43.186195" lon="-2.269319">
        <ele>161.969</ele>
        <time>2021-04-06T12:03:13Z</time>
      </trkpt>
      <trkpt lat="43.186174" lon="-2.269288">
        <ele>161.724</ele>
        <time>2021-04-06T12:03:14Z</time>
      </trkpt>
      <trkpt lat="43.186152" lon="-2.269261">
        <ele>161.666</ele>
        <time>2021-04-06T12:03:15Z</time>
      </trkpt>
      <trkpt lat="43.186130" lon="-2.269232">
        <ele>161.529</ele>
        <time>2021-04-06T12:03:16Z</time>
      </trkpt>
      <trkpt lat="43.186108" lon="-2.269204">
        <ele>161.321</ele>
        <time>2021-04-06T12:03:17Z</time>
      </trkpt>
      <trkpt lat="43.186085" lon="-2.269182">
        <ele>160.608</ele>
        <time>2021-04-06T12:03:18Z</time>
      </trkpt>
      <trkpt lat="43.186059" lon="-2.269157">
        <ele>159.823</ele>
        <time>2021-04-06T12:03:19Z</time>
      </trkpt>
      <trkpt lat="43.186032" lon="-2.269131">
        <ele>158.976</ele>
        <time>2021-04-06T12:03:20Z</time>
      </trkpt>
      <trkpt lat="43.186006" lon="-2.269103">
        <ele>158.137</ele>
        <time>2021-04-06T12:03:21Z</time>
      </trkpt>
      <trkpt lat="43.185983" lon="-2.269068">
        <ele>157.372</ele>
        <time>2021-04-06T12:03:22Z</time>
      </trkpt>
      <trkpt lat="43.185969" lon="-2.269034">
        <ele>156.798</ele>
        <time>2021-04-06T12:03:23Z</time>
      </trkpt>
      <trkpt lat="43.185957" lon="-2.268997">
        <ele>156.295</ele>
        <time>2021-04-06T12:03:24Z</time>
      </trkpt>
      <trkpt lat="43.185947" lon="-2.268959">
        <ele>155.728</ele>
        <time>2021-04-06T12:03:25Z</time>
      </trkpt>
      <trkpt lat="43.185936" lon="-2.268920">
        <ele>155.153</ele>
        <time>2021-04-06T12:03:26Z</time>
      </trkpt>
      <trkpt lat="43.185929" lon="-2.268880">
        <ele>154.627</ele>
        <time>2021-04-06T12:03:27Z</time>
      </trkpt>
      <trkpt lat="43.185921" lon="-2.268838">
        <ele>154.168</ele>
        <time>2021-04-06T12:03:28Z</time>
      </trkpt>
      <trkpt lat="43.185914" lon="-2.268799">
        <ele>153.614</ele>
        <time>2021-04-06T12:03:29Z</time>
      </trkpt>
      <trkpt lat="43.185909" lon="-2.268758">
        <ele>153.108</ele>
        <time>2021-04-06T12:03:30Z</time>
      </trkpt>
      <trkpt lat="43.185901" lon="-2.268714">
        <ele>152.569</ele>
        <time>2021-04-06T12:03:31Z</time>
      </trkpt>
      <trkpt lat="43.185895" lon="-2.268672">
        <ele>151.952</ele>
        <time>2021-04-06T12:03:32Z</time>
      </trkpt>
      <trkpt lat="43.185889" lon="-2.268632">
        <ele>151.413</ele>
        <time>2021-04-06T12:03:33Z</time>
      </trkpt>
      <trkpt lat="43.185884" lon="-2.268590">
        <ele>151.018</ele>
        <time>2021-04-06T12:03:34Z</time>
      </trkpt>
      <trkpt lat="43.185879" lon="-2.268551">
        <ele>150.634</ele>
        <time>2021-04-06T12:03:35Z</time>
      </trkpt>
      <trkpt lat="43.185873" lon="-2.268511">
        <ele>150.271</ele>
        <time>2021-04-06T12:03:36Z</time>
      </trkpt>
      <trkpt lat="43.185865" lon="-2.268430">
        <ele>149.514</ele>
        <time>2021-04-06T12:03:38Z</time>
      </trkpt>
      <trkpt lat="43.185863" lon="-2.268393">
        <ele>149.279</ele>
        <time>2021-04-06T12:03:39Z</time>
      </trkpt>
      <trkpt lat="43.185859" lon="-2.268357">
        <ele>148.844</ele>
        <time>2021-04-06T12:03:40Z</time>
      </trkpt>
      <trkpt lat="43.185856" lon="-2.268322">
        <ele>148.505</ele>
        <time>2021-04-06T12:03:41Z</time>
      </trkpt>
      <trkpt lat="43.185850" lon="-2.268288">
        <ele>148.315</ele>
        <time>2021-04-06T12:03:42Z</time>
      </trkpt>
      <trkpt lat="43.185843" lon="-2.268253">
        <ele>148.008</ele>
        <time>2021-04-06T12:03:43Z</time>
      </trkpt>
      <trkpt lat="43.185835" lon="-2.268216">
        <ele>147.661</ele>
        <time>2021-04-06T12:03:44Z</time>
      </trkpt>
      <trkpt lat="43.185828" lon="-2.268180">
        <ele>147.394</ele>
        <time>2021-04-06T12:03:45Z</time>
      </trkpt>
      <trkpt lat="43.185821" lon="-2.268142">
        <ele>146.975</ele>
        <time>2021-04-06T12:03:46Z</time>
      </trkpt>
      <trkpt lat="43.185815" lon="-2.268103">
        <ele>146.550</ele>
        <time>2021-04-06T12:03:47Z</time>
      </trkpt>
      <trkpt lat="43.185811" lon="-2.268066">
        <ele>146.276</ele>
        <time>2021-04-06T12:03:48Z</time>
      </trkpt>
      <trkpt lat="43.185805" lon="-2.268032">
        <ele>145.973</ele>
        <time>2021-04-06T12:03:49Z</time>
      </trkpt>
      <trkpt lat="43.185796" lon="-2.267998">
        <ele>145.566</ele>
        <time>2021-04-06T12:03:50Z</time>
      </trkpt>
      <trkpt lat="43.185782" lon="-2.267964">
        <ele>144.911</ele>
        <time>2021-04-06T12:03:51Z</time>
      </trkpt>
      <trkpt lat="43.185768" lon="-2.267929">
        <ele>144.348</ele>
        <time>2021-04-06T12:03:52Z</time>
      </trkpt>
      <trkpt lat="43.185751" lon="-2.267897">
        <ele>143.661</ele>
        <time>2021-04-06T12:03:53Z</time>
      </trkpt>
      <trkpt lat="43.185733" lon="-2.267864">
        <ele>142.917</ele>
        <time>2021-04-06T12:03:54Z</time>
      </trkpt>
      <trkpt lat="43.185723" lon="-2.267827">
        <ele>142.508</ele>
        <time>2021-04-06T12:03:55Z</time>
      </trkpt>
      <trkpt lat="43.185714" lon="-2.267786">
        <ele>142.291</ele>
        <time>2021-04-06T12:03:56Z</time>
      </trkpt>
      <trkpt lat="43.185704" lon="-2.267748">
        <ele>141.824</ele>
        <time>2021-04-06T12:03:57Z</time>
      </trkpt>
      <trkpt lat="43.185691" lon="-2.267713">
        <ele>141.335</ele>
        <time>2021-04-06T12:03:58Z</time>
      </trkpt>
      <trkpt lat="43.185681" lon="-2.267677">
        <ele>140.910</ele>
        <time>2021-04-06T12:03:59Z</time>
      </trkpt>
      <trkpt lat="43.185667" lon="-2.267642">
        <ele>140.466</ele>
        <time>2021-04-06T12:04:00Z</time>
      </trkpt>
      <trkpt lat="43.185650" lon="-2.267611">
        <ele>139.913</ele>
        <time>2021-04-06T12:04:01Z</time>
      </trkpt>
      <trkpt lat="43.185633" lon="-2.267585">
        <ele>139.376</ele>
        <time>2021-04-06T12:04:02Z</time>
      </trkpt>
      <trkpt lat="43.185611" lon="-2.267560">
        <ele>138.661</ele>
        <time>2021-04-06T12:04:03Z</time>
      </trkpt>
      <trkpt lat="43.185588" lon="-2.267540">
        <ele>138.027</ele>
        <time>2021-04-06T12:04:04Z</time>
      </trkpt>
      <trkpt lat="43.185572" lon="-2.267521">
        <ele>137.568</ele>
        <time>2021-04-06T12:04:05Z</time>
      </trkpt>
      <trkpt lat="43.185558" lon="-2.267499">
        <ele>137.114</ele>
        <time>2021-04-06T12:04:06Z</time>
      </trkpt>
      <trkpt lat="43.185545" lon="-2.267478">
        <ele>136.608</ele>
        <time>2021-04-06T12:04:07Z</time>
      </trkpt>
      <trkpt lat="43.185534" lon="-2.267456">
        <ele>136.299</ele>
        <time>2021-04-06T12:04:08Z</time>
      </trkpt>
      <trkpt lat="43.185504" lon="-2.267435">
        <ele>135.392</ele>
        <time>2021-04-06T12:04:10Z</time>
      </trkpt>
      <trkpt lat="43.185488" lon="-2.267434">
        <ele>134.893</ele>
        <time>2021-04-06T12:04:12Z</time>
      </trkpt>
      <trkpt lat="43.185484" lon="-2.267390">
        <ele>134.568</ele>
        <time>2021-04-06T12:04:16Z</time>
      </trkpt>
      <trkpt lat="43.185472" lon="-2.267363">
        <ele>134.134</ele>
        <time>2021-04-06T12:04:17Z</time>
      </trkpt>
      <trkpt lat="43.185458" lon="-2.267337">
        <ele>133.671</ele>
        <time>2021-04-06T12:04:18Z</time>
      </trkpt>
      <trkpt lat="43.185443" lon="-2.267309">
        <ele>133.174</ele>
        <time>2021-04-06T12:04:19Z</time>
      </trkpt>
      <trkpt lat="43.185429" lon="-2.267281">
        <ele>132.679</ele>
        <time>2021-04-06T12:04:20Z</time>
      </trkpt>
      <trkpt lat="43.185407" lon="-2.267254">
        <ele>131.873</ele>
        <time>2021-04-06T12:04:21Z</time>
      </trkpt>
      <trkpt lat="43.185386" lon="-2.267229">
        <ele>131.185</ele>
        <time>2021-04-06T12:04:22Z</time>
      </trkpt>
      <trkpt lat="43.185360" lon="-2.267205">
        <ele>130.213</ele>
        <time>2021-04-06T12:04:23Z</time>
      </trkpt>
      <trkpt lat="43.185337" lon="-2.267180">
        <ele>129.408</ele>
        <time>2021-04-06T12:04:24Z</time>
      </trkpt>
      <trkpt lat="43.185315" lon="-2.267159">
        <ele>128.684</ele>
        <time>2021-04-06T12:04:25Z</time>
      </trkpt>
      <trkpt lat="43.185288" lon="-2.267141">
        <ele>127.767</ele>
        <time>2021-04-06T12:04:26Z</time>
      </trkpt>
      <trkpt lat="43.185262" lon="-2.267126">
        <ele>126.988</ele>
        <time>2021-04-06T12:04:27Z</time>
      </trkpt>
      <trkpt lat="43.185235" lon="-2.267111">
        <ele>126.213</ele>
        <time>2021-04-06T12:04:28Z</time>
      </trkpt>
      <trkpt lat="43.185212" lon="-2.267097">
        <ele>125.669</ele>
        <time>2021-04-06T12:04:29Z</time>
      </trkpt>
      <trkpt lat="43.185187" lon="-2.267082">
        <ele>124.946</ele>
        <time>2021-04-06T12:04:30Z</time>
      </trkpt>
      <trkpt lat="43.185161" lon="-2.267065">
        <ele>124.119</ele>
        <time>2021-04-06T12:04:31Z</time>
      </trkpt>
      <trkpt lat="43.185138" lon="-2.267049">
        <ele>123.484</ele>
        <time>2021-04-06T12:04:32Z</time>
      </trkpt>
      <trkpt lat="43.185113" lon="-2.267033">
        <ele>122.766</ele>
        <time>2021-04-06T12:04:33Z</time>
      </trkpt>
      <trkpt lat="43.185090" lon="-2.267022">
        <ele>122.029</ele>
        <time>2021-04-06T12:04:34Z</time>
      </trkpt>
      <trkpt lat="43.185072" lon="-2.267012">
        <ele>121.521</ele>
        <time>2021-04-06T12:04:35Z</time>
      </trkpt>
      <trkpt lat="43.185057" lon="-2.267002">
        <ele>121.008</ele>
        <time>2021-04-06T12:04:37Z</time>
      </trkpt>
      <trkpt lat="43.185040" lon="-2.266988">
        <ele>120.593</ele>
        <time>2021-04-06T12:04:39Z</time>
      </trkpt>
      <trkpt lat="43.185026" lon="-2.266976">
        <ele>120.086</ele>
        <time>2021-04-06T12:04:40Z</time>
      </trkpt>
      <trkpt lat="43.185009" lon="-2.266957">
        <ele>119.437</ele>
        <time>2021-04-06T12:04:41Z</time>
      </trkpt>
      <trkpt lat="43.184993" lon="-2.266934">
        <ele>118.742</ele>
        <time>2021-04-06T12:04:42Z</time>
      </trkpt>
      <trkpt lat="43.184975" lon="-2.266911">
        <ele>118.068</ele>
        <time>2021-04-06T12:04:43Z</time>
      </trkpt>
      <trkpt lat="43.184957" lon="-2.266884">
        <ele>117.355</ele>
        <time>2021-04-06T12:04:44Z</time>
      </trkpt>
      <trkpt lat="43.184940" lon="-2.266857">
        <ele>116.588</ele>
        <time>2021-04-06T12:04:45Z</time>
      </trkpt>
      <trkpt lat="43.184923" lon="-2.266830">
        <ele>115.813</ele>
        <time>2021-04-06T12:04:46Z</time>
      </trkpt>
      <trkpt lat="43.184905" lon="-2.266807">
        <ele>115.189</ele>
        <time>2021-04-06T12:04:47Z</time>
      </trkpt>
      <trkpt lat="43.184886" lon="-2.266782">
        <ele>114.406</ele>
        <time>2021-04-06T12:04:48Z</time>
      </trkpt>
      <trkpt lat="43.184871" lon="-2.266756">
        <ele>113.726</ele>
        <time>2021-04-06T12:04:49Z</time>
      </trkpt>
      <trkpt lat="43.184856" lon="-2.266730">
        <ele>113.108</ele>
        <time>2021-04-06T12:04:50Z</time>
      </trkpt>
      <trkpt lat="43.184840" lon="-2.266704">
        <ele>112.465</ele>
        <time>2021-04-06T12:04:51Z</time>
      </trkpt>
      <trkpt lat="43.184827" lon="-2.266679">
        <ele>111.838</ele>
        <time>2021-04-06T12:04:52Z</time>
      </trkpt>
      <trkpt lat="43.184813" lon="-2.266655">
        <ele>111.079</ele>
        <time>2021-04-06T12:04:53Z</time>
      </trkpt>
      <trkpt lat="43.184788" lon="-2.266649">
        <ele>110.344</ele>
        <time>2021-04-06T12:04:54Z</time>
      </trkpt>
      <trkpt lat="43.184764" lon="-2.266661">
        <ele>109.930</ele>
        <time>2021-04-06T12:04:55Z</time>
      </trkpt>
      <trkpt lat="43.184744" lon="-2.266674">
        <ele>109.697</ele>
        <time>2021-04-06T12:04:56Z</time>
      </trkpt>
      <trkpt lat="43.184724" lon="-2.266685">
        <ele>109.280</ele>
        <time>2021-04-06T12:04:58Z</time>
      </trkpt>
      <trkpt lat="43.184710" lon="-2.266668">
        <ele>108.755</ele>
        <time>2021-04-06T12:05:00Z</time>
      </trkpt>
      <trkpt lat="43.184699" lon="-2.266639">
        <ele>107.874</ele>
        <time>2021-04-06T12:05:02Z</time>
      </trkpt>
      <trkpt lat="43.184686" lon="-2.266613">
        <ele>107.056</ele>
        <time>2021-04-06T12:05:04Z</time>
      </trkpt>
      <trkpt lat="43.184668" lon="-2.266588">
        <ele>106.121</ele>
        <time>2021-04-06T12:05:06Z</time>
      </trkpt>
      <trkpt lat="43.184654" lon="-2.266577">
        <ele>105.608</ele>
        <time>2021-04-06T12:05:07Z</time>
      </trkpt>
      <trkpt lat="43.184633" lon="-2.266554">
        <ele>104.784</ele>
        <time>2021-04-06T12:05:09Z</time>
      </trkpt>
      <trkpt lat="43.184616" lon="-2.266523">
        <ele>103.837</ele>
        <time>2021-04-06T12:05:11Z</time>
      </trkpt>
      <trkpt lat="43.184600" lon="-2.266492">
        <ele>102.958</ele>
        <time>2021-04-06T12:05:13Z</time>
      </trkpt>
      <trkpt lat="43.184582" lon="-2.266466">
        <ele>102.153</ele>
        <time>2021-04-06T12:05:15Z</time>
      </trkpt>
      <trkpt lat="43.184557" lon="-2.266439">
        <ele>101.129</ele>
        <time>2021-04-06T12:05:17Z</time>
      </trkpt>
      <trkpt lat="43.184529" lon="-2.266410">
        <ele>100.146</ele>
        <time>2021-04-06T12:05:19Z</time>
      </trkpt>
      <trkpt lat="43.184517" lon="-2.266392">
        <ele>99.649</ele>
        <time>2021-04-06T12:05:20Z</time>
      </trkpt>
      <trkpt lat="43.184497" lon="-2.266362">
        <ele>98.474</ele>
        <time>2021-04-06T12:05:22Z</time>
      </trkpt>
      <trkpt lat="43.184477" lon="-2.266347">
        <ele>97.661</ele>
        <time>2021-04-06T12:05:24Z</time>
      </trkpt>
      <trkpt lat="43.184465" lon="-2.266326">
        <ele>96.821</ele>
        <time>2021-04-06T12:05:26Z</time>
      </trkpt>
      <trkpt lat="43.184447" lon="-2.266308">
        <ele>96.013</ele>
        <time>2021-04-06T12:05:29Z</time>
      </trkpt>
      <trkpt lat="43.184426" lon="-2.266292">
        <ele>95.008</ele>
        <time>2021-04-06T12:05:31Z</time>
      </trkpt>
      <trkpt lat="43.184408" lon="-2.266266">
        <ele>93.823</ele>
        <time>2021-04-06T12:05:33Z</time>
      </trkpt>
      <trkpt lat="43.184399" lon="-2.266253">
        <ele>93.346</ele>
        <time>2021-04-06T12:05:34Z</time>
      </trkpt>
      <trkpt lat="43.184384" lon="-2.266231">
        <ele>92.327</ele>
        <time>2021-04-06T12:05:36Z</time>
      </trkpt>
      <trkpt lat="43.184372" lon="-2.266208">
        <ele>91.582</ele>
        <time>2021-04-06T12:05:38Z</time>
      </trkpt>
      <trkpt lat="43.184359" lon="-2.266191">
        <ele>90.878</ele>
        <time>2021-04-06T12:05:40Z</time>
      </trkpt>
      <trkpt lat="43.184342" lon="-2.266168">
        <ele>89.995</ele>
        <time>2021-04-06T12:05:43Z</time>
      </trkpt>
      <trkpt lat="43.184323" lon="-2.266165">
        <ele>89.428</ele>
        <time>2021-04-06T12:05:45Z</time>
      </trkpt>
      <trkpt lat="43.184308" lon="-2.266167">
        <ele>89.163</ele>
        <time>2021-04-06T12:05:47Z</time>
      </trkpt>
      <trkpt lat="43.184364" lon="-2.266069">
        <ele>88.367</ele>
        <time>2021-04-06T12:05:59Z</time>
      </trkpt>
      <trkpt lat="43.184420" lon="-2.265975">
        <ele>86.881</ele>
        <time>2021-04-06T12:06:05Z</time>
      </trkpt>
      <trkpt lat="43.184480" lon="-2.265912">
        <ele>85.519</ele>
        <time>2021-04-06T12:06:08Z</time>
      </trkpt>
      <trkpt lat="43.184489" lon="-2.265883">
        <ele>84.608</ele>
        <time>2021-04-06T12:06:09Z</time>
      </trkpt>
      <trkpt lat="43.184491" lon="-2.265858">
        <ele>83.973</ele>
        <time>2021-04-06T12:06:10Z</time>
      </trkpt>
      <trkpt lat="43.184484" lon="-2.265835">
        <ele>83.276</ele>
        <time>2021-04-06T12:06:11Z</time>
      </trkpt>
      <trkpt lat="43.184415" lon="-2.265807">
        <ele>82.897</ele>
        <time>2021-04-06T12:06:18Z</time>
      </trkpt>
    </trkseg>
  </trk>
</gpx>
